<?xml version='1.0' encoding='UTF-8'?><gpx version="1.1" creator="JPX - https://github.com/jenetics/jpx" xmlns="http://www.topografix.com/GPX/1/1"><trk><trkseg><trkpt lat="43.69599124858256" lon="12.49356772235129"><ele>484.99999999999994</ele><time>2026-04-18T07:28:03Z</time></trkpt><trkpt lat="43.69596769519082" lon="12.493444003766324"><ele>485.0</ele><time>2026-04-18T07:28:04Z</time></trkpt><trkpt lat="43.69600049192046" lon="12.493361585605715"><ele>485.0</ele><time>2026-04-18T07:28:05Z</time></trkpt><trkpt lat="43.69603748244224" lon="12.493258386007447"><ele>485.0</ele><time>2026-04-18T07:28:06Z</time></trkpt><trkpt lat="43.696080862089445" lon="12.49314675455973"><ele>484.99999999999994</ele><time>2026-04-18T07:28:07Z</time></trkpt><trkpt lat="43.69613604646274" lon="12.49303852351267"><ele>485.0</ele><time>2026-04-18T07:28:08Z</time></trkpt><trkpt lat="43.69620003662181" lon="12.492906386998607"><ele>488.75</ele><time>2026-04-18T07:28:09Z</time></trkpt><trkpt lat="43.696265365520546" lon="12.492793069894867"><ele>492.5</ele><time>2026-04-18T07:28:10Z</time></trkpt><trkpt lat="43.69634144058931" lon="12.492658849851052"><ele>496.25</ele><time>2026-04-18T07:28:11Z</time></trkpt><trkpt lat="43.696413257035545" lon="12.492514446973965"><ele>500.0</ele><time>2026-04-18T07:28:12Z</time></trkpt><trkpt lat="43.69648388054821" lon="12.492350379440385"><ele>500.0</ele><time>2026-04-18T07:28:13Z</time></trkpt><trkpt lat="43.69654803275807" lon="12.492179389197958"><ele>500.0</ele><time>2026-04-18T07:28:14Z</time></trkpt><trkpt lat="43.6966003433235" lon="12.491995697655812"><ele>500.0</ele><time>2026-04-18T07:28:15Z</time></trkpt><trkpt lat="43.6966511020493" lon="12.491812896741086"><ele>500.0</ele><time>2026-04-18T07:28:16Z</time></trkpt><trkpt lat="43.69669786620476" lon="12.491644690315887"><ele>497.25</ele><time>2026-04-18T07:28:17Z</time></trkpt><trkpt lat="43.69675129235394" lon="12.49148917983266"><ele>494.5</ele><time>2026-04-18T07:28:18Z</time></trkpt><trkpt lat="43.696798341871244" lon="12.491334128374573"><ele>491.75</ele><time>2026-04-18T07:28:19Z</time></trkpt><trkpt lat="43.696822740212696" lon="12.491168824332036"><ele>489.0</ele><time>2026-04-18T07:28:20Z</time></trkpt><trkpt lat="43.696836472937086" lon="12.490991292316773"><ele>486.25</ele><time>2026-04-18T07:28:21Z</time></trkpt><trkpt lat="43.696842320955035" lon="12.490812932653995"><ele>483.5</ele><time>2026-04-18T07:28:22Z</time></trkpt><trkpt lat="43.69685017214469" lon="12.49064954239011"><ele>480.75</ele><time>2026-04-18T07:28:23Z</time></trkpt><trkpt lat="43.69685423883061" lon="12.490484529040934"><ele>478.0</ele><time>2026-04-18T07:28:24Z</time></trkpt><trkpt lat="43.6968606761354" lon="12.490320847216015"><ele>475.75</ele><time>2026-04-18T07:28:25Z</time></trkpt><trkpt lat="43.696879814845325" lon="12.490166677145414"><ele>473.5</ele><time>2026-04-18T07:28:26Z</time></trkpt><trkpt lat="43.696921235136095" lon="12.490034258570807"><ele>471.25</ele><time>2026-04-18T07:28:27Z</time></trkpt><trkpt lat="43.696982770706256" lon="12.489904339150634"><ele>469.0</ele><time>2026-04-18T07:28:28Z</time></trkpt><trkpt lat="43.69706991831335" lon="12.48978635003498"><ele>470.25</ele><time>2026-04-18T07:28:29Z</time></trkpt><trkpt lat="43.69716388135772" lon="12.489680513932733"><ele>471.5</ele><time>2026-04-18T07:28:30Z</time></trkpt><trkpt lat="43.69726099523842" lon="12.489566147121886"><ele>472.75</ele><time>2026-04-18T07:28:31Z</time></trkpt><trkpt lat="43.697353835501815" lon="12.489446563588848"><ele>474.0</ele><time>2026-04-18T07:28:32Z</time></trkpt><trkpt lat="43.69744468912298" lon="12.489321158417273"><ele>474.0</ele><time>2026-04-18T07:28:33Z</time></trkpt><trkpt lat="43.69774054392202" lon="12.489031071811894"><ele>474.0</ele><time>2026-04-18T07:28:36Z</time></trkpt><trkpt lat="43.69786282538616" lon="12.48897337872354"><ele>472.75</ele><time>2026-04-18T07:28:37Z</time></trkpt><trkpt lat="43.697988789890864" lon="12.488916574185787"><ele>471.5</ele><time>2026-04-18T07:28:38Z</time></trkpt><trkpt lat="43.69810342392062" lon="12.48883484324001"><ele>470.25</ele><time>2026-04-18T07:28:39Z</time></trkpt><trkpt lat="43.69823471973116" lon="12.488783256708684"><ele>469.0</ele><time>2026-04-18T07:28:40Z</time></trkpt><trkpt lat="43.69833217405139" lon="12.488658297508781"><ele>469.0</ele><time>2026-04-18T07:28:41Z</time></trkpt><trkpt lat="43.6983494405702" lon="12.488405250321216"><ele>469.0</ele><time>2026-04-18T07:28:42Z</time></trkpt><trkpt lat="43.69842359738793" lon="12.488224844224506"><ele>469.0</ele><time>2026-04-18T07:28:43Z</time></trkpt><trkpt lat="43.698504435144315" lon="12.48804341635405"><ele>471.0</ele><time>2026-04-18T07:28:44Z</time></trkpt><trkpt lat="43.69858612507302" lon="12.487868251181999"><ele>473.0</ele><time>2026-04-18T07:28:45Z</time></trkpt><trkpt lat="43.69866065554699" lon="12.487698466335265"><ele>475.0</ele><time>2026-04-18T07:28:46Z</time></trkpt><trkpt lat="43.6987363335317" lon="12.487530734531454"><ele>477.0</ele><time>2026-04-18T07:28:47Z</time></trkpt><trkpt lat="43.698814481461696" lon="12.48735651746732"><ele>477.0</ele><time>2026-04-18T07:28:48Z</time></trkpt><trkpt lat="43.69888752151176" lon="12.487186371239009"><ele>477.0</ele><time>2026-04-18T07:28:49Z</time></trkpt><trkpt lat="43.69895325510956" lon="12.487019003975245"><ele>477.0</ele><time>2026-04-18T07:28:50Z</time></trkpt><trkpt lat="43.69900558621648" lon="12.486857244182586"><ele>477.0</ele><time>2026-04-18T07:28:51Z</time></trkpt><trkpt lat="43.69903310019686" lon="12.486682022265459"><ele>474.0</ele><time>2026-04-18T07:28:52Z</time></trkpt><trkpt lat="43.699044876534934" lon="12.486515669941928"><ele>471.0</ele><time>2026-04-18T07:28:53Z</time></trkpt><trkpt lat="43.69902668222017" lon="12.486354471615801"><ele>468.0</ele><time>2026-04-18T07:28:54Z</time></trkpt><trkpt lat="43.69897750075195" lon="12.486215411534205"><ele>465.0</ele><time>2026-04-18T07:28:55Z</time></trkpt><trkpt lat="43.698898602912124" lon="12.486086700776532"><ele>462.5</ele><time>2026-04-18T07:28:55.999Z</time></trkpt><trkpt lat="43.698813520249814" lon="12.48593236880975"><ele>460.0</ele><time>2026-04-18T07:28:56.999Z</time></trkpt><trkpt lat="43.69873640138986" lon="12.485767274812487"><ele>457.5</ele><time>2026-04-18T07:28:57.999Z</time></trkpt><trkpt lat="43.69865896783671" lon="12.4855893986925"><ele>455.0</ele><time>2026-04-18T07:28:58.999Z</time></trkpt><trkpt lat="43.69859484333385" lon="12.48540779586346"><ele>449.5</ele><time>2026-04-18T07:28:59.999Z</time></trkpt><trkpt lat="43.69854714896855" lon="12.485221325917337"><ele>444.0</ele><time>2026-04-18T07:29:00.999Z</time></trkpt><trkpt lat="43.69852040177127" lon="12.485038088483227"><ele>438.5</ele><time>2026-04-18T07:29:01.999Z</time></trkpt><trkpt lat="43.698512331308045" lon="12.484855236637358"><ele>433.0</ele><time>2026-04-18T07:29:02.999Z</time></trkpt><trkpt lat="43.698523382073915" lon="12.484672720320688"><ele>432.25</ele><time>2026-04-18T07:29:03.999Z</time></trkpt><trkpt lat="43.69853989826724" lon="12.484495049733901"><ele>431.5</ele><time>2026-04-18T07:29:04.999Z</time></trkpt><trkpt lat="43.69853689336278" lon="12.484317893398652"><ele>430.75</ele><time>2026-04-18T07:29:05.999Z</time></trkpt><trkpt lat="43.69849532753531" lon="12.484158112161102"><ele>430.0</ele><time>2026-04-18T07:29:06.999Z</time></trkpt><trkpt lat="43.698429688686865" lon="12.484018039670055"><ele>430.0</ele><time>2026-04-18T07:29:07.999Z</time></trkpt><trkpt lat="43.69833708277924" lon="12.483896275254764"><ele>430.0</ele><time>2026-04-18T07:29:08.999Z</time></trkpt><trkpt lat="43.69824033723989" lon="12.48378942104256"><ele>430.0</ele><time>2026-04-18T07:29:09.999Z</time></trkpt><trkpt lat="43.69813631123702" lon="12.483704296784952"><ele>430.0</ele><time>2026-04-18T07:29:10.999Z</time></trkpt><trkpt lat="43.698029222809275" lon="12.483664177271569"><ele>429.5</ele><time>2026-04-18T07:29:11.999Z</time></trkpt><trkpt lat="43.697910566369366" lon="12.483634143627945"><ele>429.0</ele><time>2026-04-18T07:29:12.999Z</time></trkpt><trkpt lat="43.69779880121916" lon="12.483637365267072"><ele>428.5</ele><time>2026-04-18T07:29:13.999Z</time></trkpt><trkpt lat="43.697662793579575" lon="12.483657282731484"><ele>428.0</ele><time>2026-04-18T07:29:14.999Z</time></trkpt><trkpt lat="43.69753187004364" lon="12.483671997621387"><ele>429.5</ele><time>2026-04-18T07:29:15.999Z</time></trkpt><trkpt lat="43.69739884579033" lon="12.483672539564417"><ele>431.0</ele><time>2026-04-18T07:29:16.999Z</time></trkpt><trkpt lat="43.69727284768632" lon="12.483639910137525"><ele>432.5</ele><time>2026-04-18T07:29:17.999Z</time></trkpt><trkpt lat="43.69716135718609" lon="12.483568088634721"><ele>434.0</ele><time>2026-04-18T07:29:18.999Z</time></trkpt><trkpt lat="43.6970607882335" lon="12.483448605184714"><ele>434.0</ele><time>2026-04-18T07:29:19.999Z</time></trkpt><trkpt lat="43.69696900530512" lon="12.483301181258199"><ele>434.0</ele><time>2026-04-18T07:29:20.999Z</time></trkpt><trkpt lat="43.696880749981695" lon="12.483143736177317"><ele>434.0</ele><time>2026-04-18T07:29:21.999Z</time></trkpt><trkpt lat="43.696804958302444" lon="12.482979442165421"><ele>434.0</ele><time>2026-04-18T07:29:22.999Z</time></trkpt><trkpt lat="43.69672212294676" lon="12.482791749084694"><ele>431.66666666666663</ele><time>2026-04-18T07:29:23.999Z</time></trkpt><trkpt lat="43.69664051094266" lon="12.482593066735635"><ele>429.33333333333337</ele><time>2026-04-18T07:29:24.999Z</time></trkpt><trkpt lat="43.69656806272275" lon="12.482383671143465"><ele>427.0</ele><time>2026-04-18T07:29:26Z</time></trkpt><trkpt lat="43.696493424139376" lon="12.482165858688738"><ele>430.6666666666667</ele><time>2026-04-18T07:29:27Z</time></trkpt><trkpt lat="43.69641044087002" lon="12.481957891830287"><ele>434.33333333333337</ele><time>2026-04-18T07:29:28Z</time></trkpt><trkpt lat="43.69632475079609" lon="12.481766496002955"><ele>438.0</ele><time>2026-04-18T07:29:29Z</time></trkpt><trkpt lat="43.69619857954229" lon="12.481621700564176"><ele>430.33333333333337</ele><time>2026-04-18T07:29:30Z</time></trkpt><trkpt lat="43.69604917558245" lon="12.481524990275348"><ele>422.6666666666667</ele><time>2026-04-18T07:29:31Z</time></trkpt><trkpt lat="43.69589546194177" lon="12.48143760771779"><ele>415.0</ele><time>2026-04-18T07:29:32Z</time></trkpt><trkpt lat="43.695744318069636" lon="12.481333476844192"><ele>420.6666666666667</ele><time>2026-04-18T07:29:33Z</time></trkpt><trkpt lat="43.69560200448641" lon="12.4812085619563"><ele>426.33333333333337</ele><time>2026-04-18T07:29:34Z</time></trkpt><trkpt lat="43.695449958874725" lon="12.481102304468857"><ele>432.0</ele><time>2026-04-18T07:29:35Z</time></trkpt><trkpt lat="43.69528095163852" lon="12.48106019168706"><ele>428.33333333333337</ele><time>2026-04-18T07:29:36Z</time></trkpt><trkpt lat="43.69510672500197" lon="12.48108732357057"><ele>424.6666666666667</ele><time>2026-04-18T07:29:37Z</time></trkpt><trkpt lat="43.694938988442146" lon="12.481161856901798"><ele>421.0</ele><time>2026-04-18T07:29:38Z</time></trkpt><trkpt lat="43.69477000688263" lon="12.48124621630503"><ele>414.6666666666667</ele><time>2026-04-18T07:29:39Z</time></trkpt><trkpt lat="43.69461291279108" lon="12.481308303900352"><ele>408.33333333333337</ele><time>2026-04-18T07:29:40Z</time></trkpt><trkpt lat="43.69444846309762" lon="12.481355398222716"><ele>402.0</ele><time>2026-04-18T07:29:41Z</time></trkpt><trkpt lat="43.69430444773983" lon="12.481396538471376"><ele>400.66666666666663</ele><time>2026-04-18T07:29:42Z</time></trkpt><trkpt lat="43.694149374986296" lon="12.481360180479399"><ele>399.3333333333333</ele><time>2026-04-18T07:29:43Z</time></trkpt><trkpt lat="43.69397095602178" lon="12.481343381984669"><ele>398.0</ele><time>2026-04-18T07:29:44Z</time></trkpt><trkpt lat="43.69379007347558" lon="12.481334245878143"><ele>398.0</ele><time>2026-04-18T07:29:45Z</time></trkpt><trkpt lat="43.69361025113553" lon="12.4813967920454"><ele>398.0</ele><time>2026-04-18T07:29:46Z</time></trkpt><trkpt lat="43.69344114454499" lon="12.48145452244312"><ele>398.0</ele><time>2026-04-18T07:29:47Z</time></trkpt><trkpt lat="43.693281560087286" lon="12.481496447440831"><ele>395.3333333333333</ele><time>2026-04-18T07:29:48Z</time></trkpt><trkpt lat="43.69312121045203" lon="12.481471841463877"><ele>392.66666666666663</ele><time>2026-04-18T07:29:49Z</time></trkpt><trkpt lat="43.6929658870554" lon="12.481429494448122"><ele>390.0</ele><time>2026-04-18T07:29:50Z</time></trkpt><trkpt lat="43.69280649306035" lon="12.481381772386658"><ele>392.25</ele><time>2026-04-18T07:29:51Z</time></trkpt><trkpt lat="43.692651709943966" lon="12.481329570288521"><ele>394.5</ele><time>2026-04-18T07:29:52Z</time></trkpt><trkpt lat="43.69250779315548" lon="12.481266236484403"><ele>396.75</ele><time>2026-04-18T07:29:53Z</time></trkpt><trkpt lat="43.692398328855454" lon="12.481169160399869"><ele>399.0</ele><time>2026-04-18T07:29:54Z</time></trkpt><trkpt lat="43.692288464112934" lon="12.48104954519939"><ele>399.0</ele><time>2026-04-18T07:29:55Z</time></trkpt><trkpt lat="43.69215890801871" lon="12.480960206312579"><ele>399.0</ele><time>2026-04-18T07:29:56Z</time></trkpt><trkpt lat="43.692011827952996" lon="12.480924208394407"><ele>399.0</ele><time>2026-04-18T07:29:57Z</time></trkpt><trkpt lat="43.69185944513735" lon="12.480884107271839"><ele>399.0</ele><time>2026-04-18T07:29:58Z</time></trkpt><trkpt lat="43.69170623401093" lon="12.480848821304964"><ele>395.5</ele><time>2026-04-18T07:29:59Z</time></trkpt><trkpt lat="43.691555794377" lon="12.480797727882296"><ele>392.0</ele><time>2026-04-18T07:30:00Z</time></trkpt><trkpt lat="43.69141166530381" lon="12.480755436405552"><ele>388.5</ele><time>2026-04-18T07:30:01Z</time></trkpt><trkpt lat="43.69126957223712" lon="12.480720216107288"><ele>385.0</ele><time>2026-04-18T07:30:02Z</time></trkpt><trkpt lat="43.69111807840455" lon="12.480675796047247"><ele>380.0</ele><time>2026-04-18T07:30:03Z</time></trkpt><trkpt lat="43.69096688585801" lon="12.480618627057734"><ele>375.0</ele><time>2026-04-18T07:30:04Z</time></trkpt><trkpt lat="43.690822527974554" lon="12.480551065710038"><ele>370.0</ele><time>2026-04-18T07:30:05Z</time></trkpt><trkpt lat="43.69067122584623" lon="12.480499170866958"><ele>370.0</ele><time>2026-04-18T07:30:06Z</time></trkpt><trkpt lat="43.690546162953574" lon="12.480500972514243"><ele>370.0</ele><time>2026-04-18T07:30:07Z</time></trkpt><trkpt lat="43.69041402640709" lon="12.480518802357514"><ele>370.0</ele><time>2026-04-18T07:30:08Z</time></trkpt><trkpt lat="43.690297860705975" lon="12.480578582778577"><ele>370.0</ele><time>2026-04-18T07:30:09Z</time></trkpt><trkpt lat="43.69019071089555" lon="12.480691976821053"><ele>371.25</ele><time>2026-04-18T07:30:10Z</time></trkpt><trkpt lat="43.69009243411592" lon="12.480845240755782"><ele>372.5</ele><time>2026-04-18T07:30:11Z</time></trkpt><trkpt lat="43.6899778966333" lon="12.480981861792426"><ele>373.75</ele><time>2026-04-18T07:30:12Z</time></trkpt><trkpt lat="43.68987647757217" lon="12.481091489224866"><ele>375.0</ele><time>2026-04-18T07:30:13Z</time></trkpt><trkpt lat="43.68977451311847" lon="12.481154179738176"><ele>375.0</ele><time>2026-04-18T07:30:14Z</time></trkpt><trkpt lat="43.689643545580886" lon="12.481195039877399"><ele>375.0</ele><time>2026-04-18T07:30:15Z</time></trkpt><trkpt lat="43.68950579135264" lon="12.481235980196404"><ele>375.0</ele><time>2026-04-18T07:30:16Z</time></trkpt><trkpt lat="43.6893488592874" lon="12.481291117418586"><ele>375.0</ele><time>2026-04-18T07:30:17Z</time></trkpt><trkpt lat="43.689184445075135" lon="12.481306988567844"><ele>366.3333333333333</ele><time>2026-04-18T07:30:18Z</time></trkpt><trkpt lat="43.68900939063816" lon="12.481333866425723"><ele>357.66666666666663</ele><time>2026-04-18T07:30:19Z</time></trkpt><trkpt lat="43.6888416848981" lon="12.481359606856135"><ele>349.0</ele><time>2026-04-18T07:30:20Z</time></trkpt><trkpt lat="43.688673166947076" lon="12.481396142398555"><ele>349.66666666666663</ele><time>2026-04-18T07:30:21Z</time></trkpt><trkpt lat="43.68850683848907" lon="12.48142389805451"><ele>350.3333333333333</ele><time>2026-04-18T07:30:22Z</time></trkpt><trkpt lat="43.68835164212659" lon="12.481448459264854"><ele>351.0</ele><time>2026-04-18T07:30:23Z</time></trkpt><trkpt lat="43.68821291146063" lon="12.481446398733459"><ele>351.0</ele><time>2026-04-18T07:30:24Z</time></trkpt><trkpt lat="43.68808082519221" lon="12.481390123322017"><ele>351.0</ele><time>2026-04-18T07:30:25Z</time></trkpt><trkpt lat="43.68794347717006" lon="12.481358392795464"><ele>351.0</ele><time>2026-04-18T07:30:26Z</time></trkpt><trkpt lat="43.687825597455635" lon="12.481311678926367"><ele>351.0</ele><time>2026-04-18T07:30:27Z</time></trkpt><trkpt lat="43.68771844789137" lon="12.481281455217431"><ele>350.25</ele><time>2026-04-18T07:30:28Z</time></trkpt><trkpt lat="43.68760526011286" lon="12.48133705843512"><ele>349.5</ele><time>2026-04-18T07:30:29Z</time></trkpt><trkpt lat="43.68750692088175" lon="12.481415127227715"><ele>348.75</ele><time>2026-04-18T07:30:30Z</time></trkpt><trkpt lat="43.68742254398352" lon="12.481524505058458"><ele>348.0</ele><time>2026-04-18T07:30:31Z</time></trkpt><trkpt lat="43.6873442443298" lon="12.481655578708414"><ele>348.0</ele><time>2026-04-18T07:30:32Z</time></trkpt><trkpt lat="43.68724124940567" lon="12.4817585731591"><ele>348.0</ele><time>2026-04-18T07:30:33Z</time></trkpt><trkpt lat="43.68711905317294" lon="12.48186955709449"><ele>348.0</ele><time>2026-04-18T07:30:34Z</time></trkpt><trkpt lat="43.68698345559818" lon="12.481966538332262"><ele>348.0</ele><time>2026-04-18T07:30:35Z</time></trkpt><trkpt lat="43.68683778024101" lon="12.482058136894745"><ele>343.6666666666667</ele><time>2026-04-18T07:30:36Z</time></trkpt><trkpt lat="43.68668619334067" lon="12.482144005874567"><ele>339.33333333333337</ele><time>2026-04-18T07:30:37Z</time></trkpt><trkpt lat="43.686529075669476" lon="12.48222175508026"><ele>335.0</ele><time>2026-04-18T07:30:38Z</time></trkpt><trkpt lat="43.68636674465788" lon="12.482289534532105"><ele>335.0</ele><time>2026-04-18T07:30:39Z</time></trkpt><trkpt lat="43.68619378834987" lon="12.482372516885667"><ele>335.0</ele><time>2026-04-18T07:30:40Z</time></trkpt><trkpt lat="43.6860478821259" lon="12.482451738092145"><ele>335.0</ele><time>2026-04-18T07:30:41Z</time></trkpt><trkpt lat="43.68590478836344" lon="12.482551529766935"><ele>335.5</ele><time>2026-04-18T07:30:42Z</time></trkpt><trkpt lat="43.68577804523948" lon="12.48266287987027"><ele>336.0</ele><time>2026-04-18T07:30:43Z</time></trkpt><trkpt lat="43.68564740422464" lon="12.482759605359874"><ele>336.5</ele><time>2026-04-18T07:30:44Z</time></trkpt><trkpt lat="43.68551931374912" lon="12.48282718375523"><ele>337.0</ele><time>2026-04-18T07:30:45Z</time></trkpt><trkpt lat="43.68539259723895" lon="12.482869752208485"><ele>334.5</ele><time>2026-04-18T07:30:46Z</time></trkpt><trkpt lat="43.685256994864325" lon="12.482888521943728"><ele>332.0</ele><time>2026-04-18T07:30:47Z</time></trkpt><trkpt lat="43.68512860313227" lon="12.482897984168517"><ele>329.5</ele><time>2026-04-18T07:30:48Z</time></trkpt><trkpt lat="43.68502217885531" lon="12.482836657795307"><ele>327.0</ele><time>2026-04-18T07:30:49Z</time></trkpt><trkpt lat="43.68493739594566" lon="12.48280512610407"><ele>327.0</ele><time>2026-04-18T07:30:50Z</time></trkpt><trkpt lat="43.68487968487224" lon="12.48270346411458"><ele>327.0</ele><time>2026-04-18T07:30:51Z</time></trkpt><trkpt lat="43.684826364656644" lon="12.48256525287452"><ele>327.0</ele><time>2026-04-18T07:30:52Z</time></trkpt><trkpt lat="43.68477409956243" lon="12.48238975333522"><ele>327.0</ele><time>2026-04-18T07:30:53Z</time></trkpt><trkpt lat="43.68473331910029" lon="12.482203321924187"><ele>331.6666666666667</ele><time>2026-04-18T07:30:54Z</time></trkpt><trkpt lat="43.68469312003893" lon="12.48199596363789"><ele>336.33333333333337</ele><time>2026-04-18T07:30:55Z</time></trkpt><trkpt lat="43.68465924888444" lon="12.481778115690439"><ele>341.0</ele><time>2026-04-18T07:30:56Z</time></trkpt><trkpt lat="43.68463326945963" lon="12.481554823528189"><ele>341.0</ele><time>2026-04-18T07:30:57Z</time></trkpt><trkpt lat="43.68460803339626" lon="12.481314918792616"><ele>341.0</ele><time>2026-04-18T07:30:58Z</time></trkpt><trkpt lat="43.6845819614762" lon="12.481086952529393"><ele>341.0</ele><time>2026-04-18T07:30:59Z</time></trkpt><trkpt lat="43.68454955369416" lon="12.480865092854536"><ele>341.0</ele><time>2026-04-18T07:31:00Z</time></trkpt><trkpt lat="43.68450432926915" lon="12.480665505616146"><ele>341.0</ele><time>2026-04-18T07:31:01Z</time></trkpt><trkpt lat="43.68445174558231" lon="12.4804755967849"><ele>341.0</ele><time>2026-04-18T07:31:02Z</time></trkpt><trkpt lat="43.684363654362485" lon="12.480299743948366"><ele>332.33333333333337</ele><time>2026-04-18T07:31:03Z</time></trkpt><trkpt lat="43.68424413997169" lon="12.480138821729824"><ele>323.6666666666667</ele><time>2026-04-18T07:31:04Z</time></trkpt><trkpt lat="43.68410763367474" lon="12.479984141350677"><ele>315.0</ele><time>2026-04-18T07:31:05Z</time></trkpt><trkpt lat="43.68397434994653" lon="12.479834911112848"><ele>315.0</ele><time>2026-04-18T07:31:06Z</time></trkpt><trkpt lat="43.68384501040126" lon="12.479668079488471"><ele>315.0</ele><time>2026-04-18T07:31:07Z</time></trkpt><trkpt lat="43.68371458860268" lon="12.479487979306368"><ele>315.0</ele><time>2026-04-18T07:31:08Z</time></trkpt><trkpt lat="43.683583813046" lon="12.479302745384219"><ele>313.6666666666667</ele><time>2026-04-18T07:31:09Z</time></trkpt><trkpt lat="43.68345158326197" lon="12.479112827436255"><ele>312.33333333333337</ele><time>2026-04-18T07:31:10Z</time></trkpt><trkpt lat="43.68331929655946" lon="12.478915666900404"><ele>311.0</ele><time>2026-04-18T07:31:11Z</time></trkpt><trkpt lat="43.68318371304267" lon="12.478713602523197"><ele>311.0</ele><time>2026-04-18T07:31:12Z</time></trkpt><trkpt lat="43.683044500554175" lon="12.478510968969564"><ele>311.0</ele><time>2026-04-18T07:31:12.999Z</time></trkpt><trkpt lat="43.68290427301927" lon="12.478313726436868"><ele>311.0</ele><time>2026-04-18T07:31:13.999Z</time></trkpt><trkpt lat="43.682759829859634" lon="12.478107797733712"><ele>309.0</ele><time>2026-04-18T07:31:14.999Z</time></trkpt><trkpt lat="43.68262127708925" lon="12.477906133233711"><ele>307.0</ele><time>2026-04-18T07:31:15.999Z</time></trkpt><trkpt lat="43.682484479241026" lon="12.477704129338251"><ele>305.0</ele><time>2026-04-18T07:31:16.999Z</time></trkpt><trkpt lat="43.682344102773676" lon="12.477497400623875"><ele>305.0</ele><time>2026-04-18T07:31:17.999Z</time></trkpt><trkpt lat="43.68220311309511" lon="12.47730062667468"><ele>305.0</ele><time>2026-04-18T07:31:18.999Z</time></trkpt><trkpt lat="43.68206528914771" lon="12.4771072407457"><ele>305.0</ele><time>2026-04-18T07:31:19.999Z</time></trkpt><trkpt lat="43.68191481951548" lon="12.476940293669138"><ele>305.0</ele><time>2026-04-18T07:31:20.999Z</time></trkpt><trkpt lat="43.681763474712476" lon="12.476780505239642"><ele>305.0</ele><time>2026-04-18T07:31:21.999Z</time></trkpt><trkpt lat="43.681605320479584" lon="12.476636913204306"><ele>305.0</ele><time>2026-04-18T07:31:22.999Z</time></trkpt><trkpt lat="43.68144966353253" lon="12.47648713551268"><ele>305.0</ele><time>2026-04-18T07:31:23.999Z</time></trkpt><trkpt lat="43.68129371833419" lon="12.476324745235935"><ele>305.0</ele><time>2026-04-18T07:31:24.999Z</time></trkpt><trkpt lat="43.681146734390666" lon="12.476161165528943"><ele>305.0</ele><time>2026-04-18T07:31:25.999Z</time></trkpt><trkpt lat="43.68100880420066" lon="12.47598538042467"><ele>305.0</ele><time>2026-04-18T07:31:26.999Z</time></trkpt><trkpt lat="43.68090567692085" lon="12.475786300369718"><ele>305.0</ele><time>2026-04-18T07:31:27.999Z</time></trkpt><trkpt lat="43.68081728192542" lon="12.475565963809467"><ele>305.0</ele><time>2026-04-18T07:31:28.999Z</time></trkpt><trkpt lat="43.68074320688283" lon="12.475324323622976"><ele>305.0</ele><time>2026-04-18T07:31:29.999Z</time></trkpt><trkpt lat="43.68066802653827" lon="12.475097780766383"><ele>305.0</ele><time>2026-04-18T07:31:31Z</time></trkpt><trkpt lat="43.6805943225114" lon="12.474836765822314"><ele>305.0</ele><time>2026-04-18T07:31:32Z</time></trkpt><trkpt lat="43.68052133756179" lon="12.474579410206902"><ele>305.33333333333337</ele><time>2026-04-18T07:31:33Z</time></trkpt><trkpt lat="43.6804459464642" lon="12.474324325473829"><ele>305.6666666666667</ele><time>2026-04-18T07:31:34Z</time></trkpt><trkpt lat="43.68037084362526" lon="12.474074844902123"><ele>306.0</ele><time>2026-04-18T07:31:35Z</time></trkpt><trkpt lat="43.68029658370465" lon="12.473812822437099"><ele>306.3333333333333</ele><time>2026-04-18T07:31:36Z</time></trkpt><trkpt lat="43.68022499271296" lon="12.473564030157405"><ele>306.66666666666663</ele><time>2026-04-18T07:31:37Z</time></trkpt><trkpt lat="43.68015106980811" lon="12.473293532202867"><ele>307.0</ele><time>2026-04-18T07:31:38Z</time></trkpt><trkpt lat="43.68007898395914" lon="12.473053696001854"><ele>307.3333333333333</ele><time>2026-04-18T07:31:39Z</time></trkpt><trkpt lat="43.680008419108475" lon="12.472793417868745"><ele>307.6666666666667</ele><time>2026-04-18T07:31:40Z</time></trkpt><trkpt lat="43.679935616844745" lon="12.4725354004192"><ele>308.0</ele><time>2026-04-18T07:31:41Z</time></trkpt><trkpt lat="43.67986249573992" lon="12.472291188365407"><ele>307.6666666666667</ele><time>2026-04-18T07:31:42Z</time></trkpt><trkpt lat="43.67980935901856" lon="12.472041054254557"><ele>307.3333333333333</ele><time>2026-04-18T07:31:43Z</time></trkpt><trkpt lat="43.67972637595973" lon="12.471801608107638"><ele>307.0</ele><time>2026-04-18T07:31:44Z</time></trkpt><trkpt lat="43.67967469773663" lon="12.471550679107793"><ele>307.0</ele><time>2026-04-18T07:31:45Z</time></trkpt><trkpt lat="43.67967259684798" lon="12.471319710503323"><ele>307.0</ele><time>2026-04-18T07:31:46Z</time></trkpt><trkpt lat="43.679691662313154" lon="12.47108200675155"><ele>307.0</ele><time>2026-04-18T07:31:47Z</time></trkpt><trkpt lat="43.67973568297376" lon="12.470854582068437"><ele>307.0</ele><time>2026-04-18T07:31:48Z</time></trkpt><trkpt lat="43.679788153380755" lon="12.470625415426921"><ele>307.0</ele><time>2026-04-18T07:31:49Z</time></trkpt><trkpt lat="43.67982871470103" lon="12.470401490295563"><ele>307.0</ele><time>2026-04-18T07:31:50Z</time></trkpt><trkpt lat="43.67986828908384" lon="12.47020336043558"><ele>308.0</ele><time>2026-04-18T07:31:51Z</time></trkpt><trkpt lat="43.67987794103387" lon="12.470009700306791"><ele>309.0</ele><time>2026-04-18T07:31:52Z</time></trkpt><trkpt lat="43.679851808318695" lon="12.469831445420587"><ele>310.0</ele><time>2026-04-18T07:31:53Z</time></trkpt><trkpt lat="43.679784756045215" lon="12.469666748739103"><ele>311.0</ele><time>2026-04-18T07:31:54Z</time></trkpt><trkpt lat="43.679681809667784" lon="12.469511902390025"><ele>311.33333333333337</ele><time>2026-04-18T07:31:55Z</time></trkpt><trkpt lat="43.679556428558406" lon="12.469359007458054"><ele>311.6666666666667</ele><time>2026-04-18T07:31:56Z</time></trkpt><trkpt lat="43.67945578729725" lon="12.469199653850684"><ele>312.0</ele><time>2026-04-18T07:31:57Z</time></trkpt><trkpt lat="43.67931778002911" lon="12.469012074070712"><ele>312.6666666666667</ele><time>2026-04-18T07:31:58Z</time></trkpt><trkpt lat="43.67918195275289" lon="12.468826027245317"><ele>313.33333333333337</ele><time>2026-04-18T07:31:59Z</time></trkpt><trkpt lat="43.679040810721965" lon="12.46866194207676"><ele>314.0</ele><time>2026-04-18T07:32:00Z</time></trkpt><trkpt lat="43.67893057466969" lon="12.468479165618234"><ele>314.0</ele><time>2026-04-18T07:32:01Z</time></trkpt><trkpt lat="43.67881413200194" lon="12.468318493380401"><ele>314.0</ele><time>2026-04-18T07:32:02Z</time></trkpt><trkpt lat="43.67871192523284" lon="12.468177331558264"><ele>314.0</ele><time>2026-04-18T07:32:03Z</time></trkpt><trkpt lat="43.678606615234536" lon="12.468031713052337"><ele>313.75</ele><time>2026-04-18T07:32:04Z</time></trkpt><trkpt lat="43.678514735021245" lon="12.46790465499796"><ele>313.5</ele><time>2026-04-18T07:32:05Z</time></trkpt><trkpt lat="43.67843149272181" lon="12.467781258241686"><ele>313.25</ele><time>2026-04-18T07:32:06Z</time></trkpt><trkpt lat="43.678324661561945" lon="12.467683053894094"><ele>313.0</ele><time>2026-04-18T07:32:07Z</time></trkpt><trkpt lat="43.678262712649634" lon="12.467592396468378"><ele>313.0</ele><time>2026-04-18T07:32:08Z</time></trkpt><trkpt lat="43.67820179101122" lon="12.467565375005476"><ele>313.0</ele><time>2026-04-18T07:32:09Z</time></trkpt><trkpt lat="43.67811748155032" lon="12.467539500478017"><ele>313.0</ele><time>2026-04-18T07:32:11Z</time></trkpt><trkpt lat="43.678113197037746" lon="12.46732503558347"><ele>313.0</ele><time>2026-04-18T07:32:12Z</time></trkpt><trkpt lat="43.678086198628584" lon="12.467189424467055"><ele>313.0</ele><time>2026-04-18T07:32:13Z</time></trkpt><trkpt lat="43.67805627304651" lon="12.46704445568932"><ele>313.5</ele><time>2026-04-18T07:32:14Z</time></trkpt><trkpt lat="43.67801573454312" lon="12.46688797238283"><ele>314.0</ele><time>2026-04-18T07:32:15Z</time></trkpt><trkpt lat="43.677961018207235" lon="12.46670420924713"><ele>314.5</ele><time>2026-04-18T07:32:16Z</time></trkpt><trkpt lat="43.67790148465137" lon="12.466521417545891"><ele>315.0</ele><time>2026-04-18T07:32:17Z</time></trkpt><trkpt lat="43.677836606431526" lon="12.466328490208998"><ele>316.0</ele><time>2026-04-18T07:32:18Z</time></trkpt><trkpt lat="43.67776700415869" lon="12.466121315442324"><ele>317.0</ele><time>2026-04-18T07:32:19Z</time></trkpt><trkpt lat="43.677690727480794" lon="12.465907586002405"><ele>318.0</ele><time>2026-04-18T07:32:20Z</time></trkpt><trkpt lat="43.677612522809035" lon="12.465689131748755"><ele>318.0</ele><time>2026-04-18T07:32:21Z</time></trkpt><trkpt lat="43.6775352131465" lon="12.46546760401991"><ele>318.0</ele><time>2026-04-18T07:32:22Z</time></trkpt><trkpt lat="43.67745678613376" lon="12.465243947367263"><ele>318.0</ele><time>2026-04-18T07:32:23Z</time></trkpt><trkpt lat="43.67737501508475" lon="12.465004972238813"><ele>318.3333333333333</ele><time>2026-04-18T07:32:24Z</time></trkpt><trkpt lat="43.67729436107801" lon="12.464766450616136"><ele>318.66666666666663</ele><time>2026-04-18T07:32:25Z</time></trkpt><trkpt lat="43.67721586567034" lon="12.464526931150248"><ele>319.0</ele><time>2026-04-18T07:32:26Z</time></trkpt><trkpt lat="43.677130395285985" lon="12.464277897262637"><ele>319.0</ele><time>2026-04-18T07:32:27Z</time></trkpt><trkpt lat="43.67704469234689" lon="12.464029454318558"><ele>319.0</ele><time>2026-04-18T07:32:28Z</time></trkpt><trkpt lat="43.676976366712076" lon="12.46383031806837"><ele>319.0</ele><time>2026-04-18T07:32:29Z</time></trkpt><trkpt lat="43.67689553733373" lon="12.463594621224955"><ele>319.3333333333333</ele><time>2026-04-18T07:32:30Z</time></trkpt><trkpt lat="43.67681646189751" lon="12.463373984481462"><ele>319.6666666666667</ele><time>2026-04-18T07:32:31Z</time></trkpt><trkpt lat="43.6767387132918" lon="12.463165594398466"><ele>320.0</ele><time>2026-04-18T07:32:32Z</time></trkpt><trkpt lat="43.67667116520956" lon="12.462950782421705"><ele>320.25</ele><time>2026-04-18T07:32:33Z</time></trkpt><trkpt lat="43.67660075926516" lon="12.462750765371721"><ele>320.5</ele><time>2026-04-18T07:32:34Z</time></trkpt><trkpt lat="43.676537874849686" lon="12.462569726246022"><ele>320.75</ele><time>2026-04-18T07:32:35Z</time></trkpt><trkpt lat="43.676477380885856" lon="12.462392709437909"><ele>321.0</ele><time>2026-04-18T07:32:36Z</time></trkpt><trkpt lat="43.67642146004981" lon="12.46222274257245"><ele>321.25</ele><time>2026-04-18T07:32:37Z</time></trkpt><trkpt lat="43.67637124607718" lon="12.462055694432648"><ele>321.5</ele><time>2026-04-18T07:32:38Z</time></trkpt><trkpt lat="43.67633186622683" lon="12.461893688640215"><ele>321.75</ele><time>2026-04-18T07:32:39Z</time></trkpt><trkpt lat="43.67630018945453" lon="12.461734352328191"><ele>322.0</ele><time>2026-04-18T07:32:40Z</time></trkpt><trkpt lat="43.67627326127443" lon="12.46156576707152"><ele>322.0</ele><time>2026-04-18T07:32:41Z</time></trkpt><trkpt lat="43.676245654702655" lon="12.461388969347334"><ele>322.0</ele><time>2026-04-18T07:32:42Z</time></trkpt><trkpt lat="43.67621554826569" lon="12.461200482712972"><ele>322.0</ele><time>2026-04-18T07:32:43Z</time></trkpt><trkpt lat="43.67618095888823" lon="12.46099919571346"><ele>322.0</ele><time>2026-04-18T07:32:44Z</time></trkpt><trkpt lat="43.67614710489433" lon="12.460780498993484"><ele>322.0</ele><time>2026-04-18T07:32:45Z</time></trkpt><trkpt lat="43.676113025974615" lon="12.46055225765693"><ele>322.0</ele><time>2026-04-18T07:32:46Z</time></trkpt><trkpt lat="43.67607185320308" lon="12.460308825263029"><ele>322.0</ele><time>2026-04-18T07:32:47Z</time></trkpt><trkpt lat="43.67601534941661" lon="12.460059865992282"><ele>322.5</ele><time>2026-04-18T07:32:48Z</time></trkpt><trkpt lat="43.6758633734197" lon="12.459561405367833"><ele>323.0</ele><time>2026-04-18T07:32:50Z</time></trkpt><trkpt lat="43.67578195966435" lon="12.45930586958073"><ele>323.0</ele><time>2026-04-18T07:32:51Z</time></trkpt><trkpt lat="43.67570778254759" lon="12.459080744272887"><ele>323.0</ele><time>2026-04-18T07:32:52Z</time></trkpt><trkpt lat="43.675628111125164" lon="12.458838405985857"><ele>323.0</ele><time>2026-04-18T07:32:53Z</time></trkpt><trkpt lat="43.675544745717865" lon="12.458590928481598"><ele>323.0</ele><time>2026-04-18T07:32:54Z</time></trkpt><trkpt lat="43.675463824302724" lon="12.458343659997803"><ele>323.0</ele><time>2026-04-18T07:32:55Z</time></trkpt><trkpt lat="43.67538633025194" lon="12.458098432688177"><ele>323.0</ele><time>2026-04-18T07:32:56Z</time></trkpt><trkpt lat="43.67530848168612" lon="12.457852047558656"><ele>323.33333333333337</ele><time>2026-04-18T07:32:57Z</time></trkpt><trkpt lat="43.675228313301034" lon="12.457604120094333"><ele>323.6666666666667</ele><time>2026-04-18T07:32:58Z</time></trkpt><trkpt lat="43.67514910910674" lon="12.457355826233064"><ele>324.0</ele><time>2026-04-18T07:32:59Z</time></trkpt><trkpt lat="43.67507058475055" lon="12.457107748513645"><ele>324.0</ele><time>2026-04-18T07:33:00Z</time></trkpt><trkpt lat="43.67499313522004" lon="12.45686155555011"><ele>324.0</ele><time>2026-04-18T07:33:01Z</time></trkpt><trkpt lat="43.67491570149648" lon="12.456618404204534"><ele>324.0</ele><time>2026-04-18T07:33:02Z</time></trkpt><trkpt lat="43.67483904709868" lon="12.456377129313621"><ele>325.0</ele><time>2026-04-18T07:33:03Z</time></trkpt><trkpt lat="43.6747624181514" lon="12.456138783865216"><ele>326.0</ele><time>2026-04-18T07:33:04Z</time></trkpt><trkpt lat="43.674681668564766" lon="12.45589937347354"><ele>327.0</ele><time>2026-04-18T07:33:05Z</time></trkpt><trkpt lat="43.67459153910473" lon="12.455647199159342"><ele>327.3333333333333</ele><time>2026-04-18T07:33:06Z</time></trkpt><trkpt lat="43.674497692455176" lon="12.45539193242614"><ele>327.66666666666663</ele><time>2026-04-18T07:33:07Z</time></trkpt><trkpt lat="43.67443493401155" lon="12.45510421330807"><ele>328.0</ele><time>2026-04-18T07:33:08Z</time></trkpt><trkpt lat="43.674343301389825" lon="12.454820046452856"><ele>328.0</ele><time>2026-04-18T07:33:09Z</time></trkpt><trkpt lat="43.67424830607027" lon="12.454525451102652"><ele>328.0</ele><time>2026-04-18T07:33:10Z</time></trkpt><trkpt lat="43.67417344313401" lon="12.454294775690116"><ele>328.0</ele><time>2026-04-18T07:33:11Z</time></trkpt><trkpt lat="43.674068374686236" lon="12.454019155788965"><ele>329.3333333333333</ele><time>2026-04-18T07:33:12Z</time></trkpt><trkpt lat="43.67398248142753" lon="12.453730975647403"><ele>330.6666666666667</ele><time>2026-04-18T07:33:13Z</time></trkpt><trkpt lat="43.673892158677965" lon="12.453456228913057"><ele>332.0</ele><time>2026-04-18T07:33:14Z</time></trkpt><trkpt lat="43.67380875257462" lon="12.453185791446666"><ele>334.0</ele><time>2026-04-18T07:33:15Z</time></trkpt><trkpt lat="43.67372853082463" lon="12.452913665312984"><ele>336.0</ele><time>2026-04-18T07:33:16Z</time></trkpt><trkpt lat="43.67368927946826" lon="12.452638042395437"><ele>338.0</ele><time>2026-04-18T07:33:17Z</time></trkpt><trkpt lat="43.67365393296813" lon="12.452366919505613"><ele>337.0</ele><time>2026-04-18T07:33:18Z</time></trkpt><trkpt lat="43.67362386124352" lon="12.4520963753408"><ele>336.0</ele><time>2026-04-18T07:33:19Z</time></trkpt><trkpt lat="43.67359272885503" lon="12.451840263160012"><ele>335.0</ele><time>2026-04-18T07:33:20Z</time></trkpt><trkpt lat="43.67356548226478" lon="12.451591074825801"><ele>335.0</ele><time>2026-04-18T07:33:21Z</time></trkpt><trkpt lat="43.67354979444349" lon="12.45135348169404"><ele>335.0</ele><time>2026-04-18T07:33:22Z</time></trkpt><trkpt lat="43.673557938368134" lon="12.451124520757295"><ele>335.0</ele><time>2026-04-18T07:33:23Z</time></trkpt><trkpt lat="43.673582857299856" lon="12.450921603924822"><ele>338.6666666666667</ele><time>2026-04-18T07:33:24Z</time></trkpt><trkpt lat="43.67362070770903" lon="12.450673901143043"><ele>342.3333333333333</ele><time>2026-04-18T07:33:25Z</time></trkpt><trkpt lat="43.673656311794346" lon="12.450429683471132"><ele>346.0</ele><time>2026-04-18T07:33:26Z</time></trkpt><trkpt lat="43.67367691613782" lon="12.450200703552321"><ele>347.3333333333333</ele><time>2026-04-18T07:33:27Z</time></trkpt><trkpt lat="43.67371138893424" lon="12.449953537763575"><ele>348.6666666666667</ele><time>2026-04-18T07:33:28Z</time></trkpt><trkpt lat="43.673746525298284" lon="12.4497102377927"><ele>350.0</ele><time>2026-04-18T07:33:29Z</time></trkpt><trkpt lat="43.67377122686403" lon="12.449466711393224"><ele>350.6666666666667</ele><time>2026-04-18T07:33:30Z</time></trkpt><trkpt lat="43.67377218027339" lon="12.449226039602616"><ele>351.3333333333333</ele><time>2026-04-18T07:33:31Z</time></trkpt><trkpt lat="43.67375540589749" lon="12.4489778690962"><ele>352.0</ele><time>2026-04-18T07:33:32Z</time></trkpt><trkpt lat="43.67373264533978" lon="12.448728860493542"><ele>355.0</ele><time>2026-04-18T07:33:33Z</time></trkpt><trkpt lat="43.673708385371135" lon="12.448481392112848"><ele>358.0</ele><time>2026-04-18T07:33:34Z</time></trkpt><trkpt lat="43.673684141591764" lon="12.448235990290264"><ele>361.0</ele><time>2026-04-18T07:33:35Z</time></trkpt><trkpt lat="43.67365966120758" lon="12.447988416567515"><ele>362.3333333333333</ele><time>2026-04-18T07:33:36Z</time></trkpt><trkpt lat="43.673635601074615" lon="12.447743969002897"><ele>363.6666666666667</ele><time>2026-04-18T07:33:37Z</time></trkpt><trkpt lat="43.67360736802377" lon="12.447489691451874"><ele>365.0</ele><time>2026-04-18T07:33:38Z</time></trkpt><trkpt lat="43.67358365493264" lon="12.447245473802871"><ele>357.0</ele><time>2026-04-18T07:33:39Z</time></trkpt><trkpt lat="43.67355465755012" lon="12.446994381656468"><ele>349.0</ele><time>2026-04-18T07:33:40Z</time></trkpt><trkpt lat="43.67352633122122" lon="12.446741406310574"><ele>341.0</ele><time>2026-04-18T07:33:41Z</time></trkpt><trkpt lat="43.67349795774149" lon="12.446494860492413"><ele>341.0</ele><time>2026-04-18T07:33:42Z</time></trkpt><trkpt lat="43.673470514059105" lon="12.446247209420099"><ele>341.0</ele><time>2026-04-18T07:33:43Z</time></trkpt><trkpt lat="43.67344184946377" lon="12.446008447771765"><ele>341.0</ele><time>2026-04-18T07:33:44Z</time></trkpt><trkpt lat="43.6734185862388" lon="12.445760380899635"><ele>341.0</ele><time>2026-04-18T07:33:45Z</time></trkpt><trkpt lat="43.67339800106469" lon="12.445500928783055"><ele>341.0</ele><time>2026-04-18T07:33:46Z</time></trkpt><trkpt lat="43.67338624181234" lon="12.445245676264008"><ele>341.0</ele><time>2026-04-18T07:33:47Z</time></trkpt><trkpt lat="43.673374902285886" lon="12.444988365450634"><ele>341.6666666666667</ele><time>2026-04-18T07:33:48Z</time></trkpt><trkpt lat="43.67336549338758" lon="12.444724085503085"><ele>342.3333333333333</ele><time>2026-04-18T07:33:49Z</time></trkpt><trkpt lat="43.673356077682904" lon="12.44446542328599"><ele>343.0</ele><time>2026-04-18T07:33:50Z</time></trkpt><trkpt lat="43.67334648603513" lon="12.444210560842867"><ele>343.0</ele><time>2026-04-18T07:33:51Z</time></trkpt><trkpt lat="43.673335147962234" lon="12.443959630698341"><ele>343.0</ele><time>2026-04-18T07:33:52Z</time></trkpt><trkpt lat="43.6733221244198" lon="12.4437093899909"><ele>343.0</ele><time>2026-04-18T07:33:53Z</time></trkpt><trkpt lat="43.673309109418405" lon="12.443459244559667"><ele>342.0</ele><time>2026-04-18T07:33:54Z</time></trkpt><trkpt lat="43.67330360700098" lon="12.443213840864004"><ele>341.0</ele><time>2026-04-18T07:33:55Z</time></trkpt><trkpt lat="43.67330842948935" lon="12.442967021131752"><ele>340.0</ele><time>2026-04-18T07:33:56Z</time></trkpt><trkpt lat="43.673319282920104" lon="12.442707520899356"><ele>340.3333333333333</ele><time>2026-04-18T07:33:57Z</time></trkpt><trkpt lat="43.67332168884828" lon="12.44244032811647"><ele>340.6666666666667</ele><time>2026-04-18T07:33:58Z</time></trkpt><trkpt lat="43.673325398079534" lon="12.442198477024187"><ele>341.0</ele><time>2026-04-18T07:33:59Z</time></trkpt><trkpt lat="43.67332531840472" lon="12.441940306988974"><ele>341.0</ele><time>2026-04-18T07:34:00Z</time></trkpt><trkpt lat="43.67332216834511" lon="12.441690009688433"><ele>341.0</ele><time>2026-04-18T07:34:01Z</time></trkpt><trkpt lat="43.67330828682822" lon="12.441421081049961"><ele>341.0</ele><time>2026-04-18T07:34:02Z</time></trkpt><trkpt lat="43.67328711128119" lon="12.44117199449219"><ele>343.33333333333337</ele><time>2026-04-18T07:34:03Z</time></trkpt><trkpt lat="43.67326339436454" lon="12.440919662705165"><ele>345.6666666666667</ele><time>2026-04-18T07:34:04Z</time></trkpt><trkpt lat="43.67324173699651" lon="12.440674649773742"><ele>348.0</ele><time>2026-04-18T07:34:05Z</time></trkpt><trkpt lat="43.67321818561254" lon="12.44042012196008"><ele>349.6666666666667</ele><time>2026-04-18T07:34:06Z</time></trkpt><trkpt lat="43.67319679981245" lon="12.440172671700372"><ele>351.33333333333337</ele><time>2026-04-18T07:34:07Z</time></trkpt><trkpt lat="43.67317571750363" lon="12.439926108510729"><ele>353.0</ele><time>2026-04-18T07:34:08Z</time></trkpt><trkpt lat="43.67315115521523" lon="12.439688190367562"><ele>351.33333333333337</ele><time>2026-04-18T07:34:09Z</time></trkpt><trkpt lat="43.673118563334796" lon="12.439440243877092"><ele>349.6666666666667</ele><time>2026-04-18T07:34:10Z</time></trkpt><trkpt lat="43.673079029666155" lon="12.439197532319715"><ele>348.0</ele><time>2026-04-18T07:34:11Z</time></trkpt><trkpt lat="43.67302798012169" lon="12.438966166085834"><ele>345.3333333333333</ele><time>2026-04-18T07:34:12Z</time></trkpt><trkpt lat="43.672968216867154" lon="12.438735858783406"><ele>342.66666666666663</ele><time>2026-04-18T07:34:13Z</time></trkpt><trkpt lat="43.672893636244034" lon="12.438510674769791"><ele>340.0</ele><time>2026-04-18T07:34:14Z</time></trkpt><trkpt lat="43.67280252043852" lon="12.438292349149098"><ele>340.3333333333333</ele><time>2026-04-18T07:34:15Z</time></trkpt><trkpt lat="43.67269869011065" lon="12.438078397296033"><ele>340.6666666666667</ele><time>2026-04-18T07:34:16Z</time></trkpt><trkpt lat="43.6725926762282" lon="12.43787803228569"><ele>341.0</ele><time>2026-04-18T07:34:17Z</time></trkpt><trkpt lat="43.67248340289807" lon="12.437695197455977"><ele>341.0</ele><time>2026-04-18T07:34:18Z</time></trkpt><trkpt lat="43.67236673570233" lon="12.437509786972564"><ele>341.0</ele><time>2026-04-18T07:34:19Z</time></trkpt><trkpt lat="43.67225077449527" lon="12.437328182792276"><ele>341.0</ele><time>2026-04-18T07:34:20Z</time></trkpt><trkpt lat="43.67213804856503" lon="12.437144177643559"><ele>340.33333333333337</ele><time>2026-04-18T07:34:21Z</time></trkpt><trkpt lat="43.672026594309585" lon="12.436956438109867"><ele>339.6666666666667</ele><time>2026-04-18T07:34:22Z</time></trkpt><trkpt lat="43.6719130700775" lon="12.436771081561549"><ele>339.0</ele><time>2026-04-18T07:34:23Z</time></trkpt><trkpt lat="43.67179745107009" lon="12.436582742627564"><ele>339.0</ele><time>2026-04-18T07:34:24Z</time></trkpt><trkpt lat="43.67168123487026" lon="12.436390956468315"><ele>339.0</ele><time>2026-04-18T07:34:25Z</time></trkpt><trkpt lat="43.67156667162712" lon="12.436195716344288"><ele>339.0</ele><time>2026-04-18T07:34:26Z</time></trkpt><trkpt lat="43.67146599494067" lon="12.435999053506018"><ele>339.0</ele><time>2026-04-18T07:34:27Z</time></trkpt><trkpt lat="43.671373757130844" lon="12.435778093111947"><ele>339.0</ele><time>2026-04-18T07:34:28Z</time></trkpt><trkpt lat="43.67129873282512" lon="12.435547901864975"><ele>339.0</ele><time>2026-04-18T07:34:29Z</time></trkpt><trkpt lat="43.671233852814325" lon="12.435312220682183"><ele>339.3333333333333</ele><time>2026-04-18T07:34:30Z</time></trkpt><trkpt lat="43.671179825211155" lon="12.43507102540511"><ele>339.66666666666663</ele><time>2026-04-18T07:34:31Z</time></trkpt><trkpt lat="43.67113182170231" lon="12.43482317017673"><ele>340.0</ele><time>2026-04-18T07:34:32Z</time></trkpt><trkpt lat="43.67109491433204" lon="12.434582517085671"><ele>340.3333333333333</ele><time>2026-04-18T07:34:33Z</time></trkpt><trkpt lat="43.671056405975335" lon="12.43433068085455"><ele>340.6666666666667</ele><time>2026-04-18T07:34:34Z</time></trkpt><trkpt lat="43.67101951118853" lon="12.434089843161155"><ele>341.0</ele><time>2026-04-18T07:34:35Z</time></trkpt><trkpt lat="43.670978006721526" lon="12.43384489773214"><ele>341.0</ele><time>2026-04-18T07:34:36Z</time></trkpt><trkpt lat="43.670937823333354" lon="12.433600878719092"><ele>341.0</ele><time>2026-04-18T07:34:37Z</time></trkpt><trkpt lat="43.67090113713606" lon="12.433361943424329"><ele>341.0</ele><time>2026-04-18T07:34:38Z</time></trkpt><trkpt lat="43.67086380069859" lon="12.433120137917946"><ele>341.33333333333337</ele><time>2026-04-18T07:34:39Z</time></trkpt><trkpt lat="43.670826391233945" lon="12.432882172383787"><ele>341.6666666666667</ele><time>2026-04-18T07:34:40Z</time></trkpt><trkpt lat="43.6707908226676" lon="12.432645119115868"><ele>342.0</ele><time>2026-04-18T07:34:41Z</time></trkpt><trkpt lat="43.67075656260144" lon="12.432418792524862"><ele>342.0</ele><time>2026-04-18T07:34:42Z</time></trkpt><trkpt lat="43.670721783220124" lon="12.432180664552844"><ele>342.0</ele><time>2026-04-18T07:34:43Z</time></trkpt><trkpt lat="43.67068535735858" lon="12.43195638127785"><ele>342.0</ele><time>2026-04-18T07:34:44Z</time></trkpt><trkpt lat="43.67065047279444" lon="12.431720646836778"><ele>342.3333333333333</ele><time>2026-04-18T07:34:45Z</time></trkpt><trkpt lat="43.67061422964382" lon="12.431489951579623"><ele>342.66666666666663</ele><time>2026-04-18T07:34:45.999Z</time></trkpt><trkpt lat="43.67057874637698" lon="12.43126365027573"><ele>343.0</ele><time>2026-04-18T07:34:46.999Z</time></trkpt><trkpt lat="43.67054432218015" lon="12.431046851331477"><ele>343.0</ele><time>2026-04-18T07:34:47.999Z</time></trkpt><trkpt lat="43.670509841972134" lon="12.430835271978111"><ele>343.0</ele><time>2026-04-18T07:34:48.999Z</time></trkpt><trkpt lat="43.67047628887371" lon="12.430629017722147"><ele>343.0</ele><time>2026-04-18T07:34:49.999Z</time></trkpt><trkpt lat="43.67044722519104" lon="12.430431682673552"><ele>343.5</ele><time>2026-04-18T07:34:50.999Z</time></trkpt><trkpt lat="43.67042108960759" lon="12.43024454859416"><ele>344.0</ele><time>2026-04-18T07:34:51.999Z</time></trkpt><trkpt lat="43.67039499317422" lon="12.430070174080067"><ele>344.5</ele><time>2026-04-18T07:34:52.999Z</time></trkpt><trkpt lat="43.670369904170194" lon="12.429908945144128"><ele>345.0</ele><time>2026-04-18T07:34:53.999Z</time></trkpt><trkpt lat="43.67034296639332" lon="12.42975332869665"><ele>345.0</ele><time>2026-04-18T07:34:54.999Z</time></trkpt><trkpt lat="43.670313940378904" lon="12.429595539153228"><ele>345.0</ele><time>2026-04-18T07:34:55.999Z</time></trkpt><trkpt lat="43.67028667545592" lon="12.429430035918529"><ele>345.0</ele><time>2026-04-18T07:34:56.999Z</time></trkpt><trkpt lat="43.670262989152555" lon="12.429264129445402"><ele>345.0</ele><time>2026-04-18T07:34:57.999Z</time></trkpt><trkpt lat="43.67023734220236" lon="12.42909169276048"><ele>345.5</ele><time>2026-04-18T07:34:58.999Z</time></trkpt><trkpt lat="43.67021038427998" lon="12.428919024950938"><ele>346.0</ele><time>2026-04-18T07:34:59.999Z</time></trkpt><trkpt lat="43.67018148177335" lon="12.428737624231655"><ele>346.5</ele><time>2026-04-18T07:35:00.999Z</time></trkpt><trkpt lat="43.670151216096585" lon="12.428562254966591"><ele>347.0</ele><time>2026-04-18T07:35:01.999Z</time></trkpt><trkpt lat="43.670120941994576" lon="12.428374475953808"><ele>347.25</ele><time>2026-04-18T07:35:02.999Z</time></trkpt><trkpt lat="43.67008862609747" lon="12.428189601464464"><ele>347.5</ele><time>2026-04-18T07:35:03.999Z</time></trkpt><trkpt lat="43.670053220928885" lon="12.428003258420285"><ele>347.75</ele><time>2026-04-18T07:35:04.999Z</time></trkpt><trkpt lat="43.67001589180599" lon="12.427825883045879"><ele>348.0</ele><time>2026-04-18T07:35:05.999Z</time></trkpt><trkpt lat="43.66997726807467" lon="12.427637128258858"><ele>348.0</ele><time>2026-04-18T07:35:06.999Z</time></trkpt><trkpt lat="43.66994003040791" lon="12.427446792846178"><ele>348.0</ele><time>2026-04-18T07:35:07.999Z</time></trkpt><trkpt lat="43.66990230429869" lon="12.42725494493337"><ele>348.0</ele><time>2026-04-18T07:35:08.999Z</time></trkpt><trkpt lat="43.66986425333427" lon="12.427057951437284"><ele>348.0</ele><time>2026-04-18T07:35:09.999Z</time></trkpt><trkpt lat="43.669821649336846" lon="12.426851279798196"><ele>348.6666666666667</ele><time>2026-04-18T07:35:10.999Z</time></trkpt><trkpt lat="43.6697764847668" lon="12.426643673333762"><ele>349.33333333333337</ele><time>2026-04-18T07:35:11.999Z</time></trkpt><trkpt lat="43.66973544249817" lon="12.426421286761748"><ele>350.0</ele><time>2026-04-18T07:35:12.999Z</time></trkpt><trkpt lat="43.66969313821378" lon="12.426206337861327"><ele>350.0</ele><time>2026-04-18T07:35:13.999Z</time></trkpt><trkpt lat="43.66964931037117" lon="12.425975276583344"><ele>350.0</ele><time>2026-04-18T07:35:14.999Z</time></trkpt><trkpt lat="43.66960403227017" lon="12.425752468079033"><ele>350.0</ele><time>2026-04-18T07:35:15.999Z</time></trkpt><trkpt lat="43.66956061490669" lon="12.425525122770749"><ele>349.6666666666667</ele><time>2026-04-18T07:35:16.999Z</time></trkpt><trkpt lat="43.66953177640543" lon="12.425289016303065"><ele>349.3333333333333</ele><time>2026-04-18T07:35:17.999Z</time></trkpt><trkpt lat="43.66948255437763" lon="12.425058948495604"><ele>349.0</ele><time>2026-04-18T07:35:18.999Z</time></trkpt><trkpt lat="43.66948332177518" lon="12.4248247665272"><ele>349.3333333333333</ele><time>2026-04-18T07:35:19.999Z</time></trkpt><trkpt lat="43.66948417211642" lon="12.424588856908368"><ele>349.6666666666667</ele><time>2026-04-18T07:35:20.999Z</time></trkpt><trkpt lat="43.66947747887688" lon="12.424354608952486"><ele>350.0</ele><time>2026-04-18T07:35:21.999Z</time></trkpt><trkpt lat="43.66948948675049" lon="12.424130073055764"><ele>350.0</ele><time>2026-04-18T07:35:22.999Z</time></trkpt><trkpt lat="43.6695015133331" lon="12.423904206139126"><ele>350.0</ele><time>2026-04-18T07:35:23.999Z</time></trkpt><trkpt lat="43.66950883880223" lon="12.423673288357529"><ele>350.0</ele><time>2026-04-18T07:35:24.999Z</time></trkpt><trkpt lat="43.66951617963053" lon="12.423441535761418"><ele>351.0</ele><time>2026-04-18T07:35:25.999Z</time></trkpt><trkpt lat="43.66952173301928" lon="12.423204803108458"><ele>352.0</ele><time>2026-04-18T07:35:26.999Z</time></trkpt><trkpt lat="43.66952507361731" lon="12.42296699769013"><ele>353.0</ele><time>2026-04-18T07:35:27.999Z</time></trkpt><trkpt lat="43.66952811279181" lon="12.422722762256534"><ele>354.0</ele><time>2026-04-18T07:35:28.999Z</time></trkpt><trkpt lat="43.66952163256104" lon="12.422481055234265"><ele>355.0</ele><time>2026-04-18T07:35:29.999Z</time></trkpt><trkpt lat="43.669506330159834" lon="12.422235423054254"><ele>356.0</ele><time>2026-04-18T07:35:30.999Z</time></trkpt><trkpt lat="43.66948175214228" lon="12.421988049714923"><ele>356.0</ele><time>2026-04-18T07:35:31.999Z</time></trkpt><trkpt lat="43.66945380402234" lon="12.421738053874789"><ele>356.0</ele><time>2026-04-18T07:35:32.999Z</time></trkpt><trkpt lat="43.66942706810095" lon="12.421490108217156"><ele>356.0</ele><time>2026-04-18T07:35:33.999Z</time></trkpt><trkpt lat="43.669399330855896" lon="12.421245415834163"><ele>355.0</ele><time>2026-04-18T07:35:34.999Z</time></trkpt><trkpt lat="43.669371150082924" lon="12.421002992071323"><ele>354.0</ele><time>2026-04-18T07:35:35.999Z</time></trkpt><trkpt lat="43.66934440903182" lon="12.42077074025266"><ele>353.0</ele><time>2026-04-18T07:35:36.999Z</time></trkpt><trkpt lat="43.66931879300673" lon="12.42055846477339"><ele>353.0</ele><time>2026-04-18T07:35:37.999Z</time></trkpt><trkpt lat="43.669293857352365" lon="12.420345258305838"><ele>353.0</ele><time>2026-04-18T07:35:38.999Z</time></trkpt><trkpt lat="43.66927099588458" lon="12.420120876491579"><ele>353.0</ele><time>2026-04-18T07:35:39.999Z</time></trkpt><trkpt lat="43.66924856587275" lon="12.419897532857892"><ele>353.0</ele><time>2026-04-18T07:35:40.999Z</time></trkpt><trkpt lat="43.6692242777157" lon="12.419675414963656"><ele>353.0</ele><time>2026-04-18T07:35:41.999Z</time></trkpt><trkpt lat="43.66918316210288" lon="12.419453568629528"><ele>353.0</ele><time>2026-04-18T07:35:42.999Z</time></trkpt><trkpt lat="43.66910514836792" lon="12.419249382159459"><ele>353.0</ele><time>2026-04-18T07:35:43.999Z</time></trkpt><trkpt lat="43.668995108690105" lon="12.41906604434412"><ele>353.0</ele><time>2026-04-18T07:35:44.999Z</time></trkpt><trkpt lat="43.66887820587971" lon="12.418886329786996"><ele>353.0</ele><time>2026-04-18T07:35:45.999Z</time></trkpt><trkpt lat="43.66876383124187" lon="12.418704351253286"><ele>353.0</ele><time>2026-04-18T07:35:46.999Z</time></trkpt><trkpt lat="43.66865305593737" lon="12.418526767998754"><ele>353.0</ele><time>2026-04-18T07:35:47.999Z</time></trkpt><trkpt lat="43.66854281823312" lon="12.418346496175834"><ele>353.0</ele><time>2026-04-18T07:35:48.999Z</time></trkpt><trkpt lat="43.66844104464516" lon="12.418167368846529"><ele>355.0</ele><time>2026-04-18T07:35:49.999Z</time></trkpt><trkpt lat="43.66834845934915" lon="12.417984154964802"><ele>357.0</ele><time>2026-04-18T07:35:50.999Z</time></trkpt><trkpt lat="43.66826388744573" lon="12.41779335946983"><ele>359.0</ele><time>2026-04-18T07:35:51.999Z</time></trkpt><trkpt lat="43.668187774168736" lon="12.417600044383157"><ele>359.0</ele><time>2026-04-18T07:35:52.999Z</time></trkpt><trkpt lat="43.66810964424726" lon="12.41739146421794"><ele>359.0</ele><time>2026-04-18T07:35:53.999Z</time></trkpt><trkpt lat="43.66803549334865" lon="12.417189348828375"><ele>359.0</ele><time>2026-04-18T07:35:54.999Z</time></trkpt><trkpt lat="43.6679584958459" lon="12.416982275264587"><ele>358.0</ele><time>2026-04-18T07:35:55.999Z</time></trkpt><trkpt lat="43.66788018801316" lon="12.416778827979655"><ele>357.0</ele><time>2026-04-18T07:35:56.999Z</time></trkpt><trkpt lat="43.66780362611456" lon="12.416578883855314"><ele>356.0</ele><time>2026-04-18T07:35:57.999Z</time></trkpt><trkpt lat="43.667720477953736" lon="12.416367362209112"><ele>356.6666666666667</ele><time>2026-04-18T07:35:58.999Z</time></trkpt><trkpt lat="43.667635069378036" lon="12.41615728435221"><ele>357.3333333333333</ele><time>2026-04-18T07:35:59.999Z</time></trkpt><trkpt lat="43.667561217309775" lon="12.415961515376763"><ele>358.0</ele><time>2026-04-18T07:36:00.999Z</time></trkpt><trkpt lat="43.667497723492076" lon="12.415761414895838"><ele>358.0</ele><time>2026-04-18T07:36:01.999Z</time></trkpt><trkpt lat="43.667438939821146" lon="12.415551548023354"><ele>358.0</ele><time>2026-04-18T07:36:02.999Z</time></trkpt><trkpt lat="43.667388569413376" lon="12.415354062333488"><ele>358.0</ele><time>2026-04-18T07:36:03.999Z</time></trkpt><trkpt lat="43.667344565234295" lon="12.415159615709742"><ele>357.75</ele><time>2026-04-18T07:36:04.999Z</time></trkpt><trkpt lat="43.66730002030217" lon="12.414966055043243"><ele>357.5</ele><time>2026-04-18T07:36:05.999Z</time></trkpt><trkpt lat="43.66725999096533" lon="12.414772321384268"><ele>357.25</ele><time>2026-04-18T07:36:06.999Z</time></trkpt><trkpt lat="43.66722870373922" lon="12.41458557093529"><ele>357.0</ele><time>2026-04-18T07:36:07.999Z</time></trkpt><trkpt lat="43.66719635588808" lon="12.414394303173745"><ele>356.75</ele><time>2026-04-18T07:36:08.999Z</time></trkpt><trkpt lat="43.66716972353296" lon="12.414205324755795"><ele>356.5</ele><time>2026-04-18T07:36:09.999Z</time></trkpt><trkpt lat="43.667149779267504" lon="12.41401087329619"><ele>356.25</ele><time>2026-04-18T07:36:10.999Z</time></trkpt><trkpt lat="43.667132410685745" lon="12.41382508659227"><ele>356.0</ele><time>2026-04-18T07:36:11.999Z</time></trkpt><trkpt lat="43.6671173768576" lon="12.413639824425214"><ele>356.5</ele><time>2026-04-18T07:36:12.999Z</time></trkpt><trkpt lat="43.667102331449584" lon="12.413455539435772"><ele>357.0</ele><time>2026-04-18T07:36:13.999Z</time></trkpt><trkpt lat="43.66708257989232" lon="12.413268462722852"><ele>357.5</ele><time>2026-04-18T07:36:14.999Z</time></trkpt><trkpt lat="43.66706516524241" lon="12.413082946746473"><ele>358.0</ele><time>2026-04-18T07:36:15.999Z</time></trkpt><trkpt lat="43.66704877940142" lon="12.412897458726368"><ele>358.5</ele><time>2026-04-18T07:36:16.999Z</time></trkpt><trkpt lat="43.6670333312203" lon="12.412714577130053"><ele>359.0</ele><time>2026-04-18T07:36:17.999Z</time></trkpt><trkpt lat="43.66701906940406" lon="12.41254100196552"><ele>359.5</ele><time>2026-04-18T07:36:18.999Z</time></trkpt><trkpt lat="43.66700183324458" lon="12.412383259687457"><ele>360.0</ele><time>2026-04-18T07:36:19.999Z</time></trkpt><trkpt lat="43.66698674330448" lon="12.412238661096795"><ele>360.6666666666667</ele><time>2026-04-18T07:36:20.999Z</time></trkpt><trkpt lat="43.6669777555129" lon="12.412110157600498"><ele>361.3333333333333</ele><time>2026-04-18T07:36:21.999Z</time></trkpt><trkpt lat="43.66696538799319" lon="12.411994801846632"><ele>362.0</ele><time>2026-04-18T07:36:22.999Z</time></trkpt><trkpt lat="43.666963687326245" lon="12.411886031406896"><ele>362.66666666666663</ele><time>2026-04-18T07:36:23.999Z</time></trkpt><trkpt lat="43.666905243834954" lon="12.41179471513884"><ele>363.3333333333333</ele><time>2026-04-18T07:36:24.999Z</time></trkpt><trkpt lat="43.66688038656512" lon="12.4116976553539"><ele>364.0</ele><time>2026-04-18T07:36:25.999Z</time></trkpt><trkpt lat="43.666875012033394" lon="12.411598688886684"><ele>362.57142857142856</ele><time>2026-04-18T07:36:26.999Z</time></trkpt><trkpt lat="43.666864673165236" lon="12.411503771579616"><ele>361.1428571428571</ele><time>2026-04-18T07:36:27.999Z</time></trkpt><trkpt lat="43.666817304608095" lon="12.411438024694037"><ele>359.7142857142857</ele><time>2026-04-18T07:36:28.999Z</time></trkpt><trkpt lat="43.666749031301734" lon="12.41142320554062"><ele>358.2857142857143</ele><time>2026-04-18T07:36:29.999Z</time></trkpt><trkpt lat="43.66667581706713" lon="12.411453895187202"><ele>356.85714285714283</ele><time>2026-04-18T07:36:30.999Z</time></trkpt><trkpt lat="43.66660137766613" lon="12.411500842368577"><ele>355.42857142857144</ele><time>2026-04-18T07:36:31.999Z</time></trkpt><trkpt lat="43.66652083145696" lon="12.411519930784824"><ele>354.0</ele><time>2026-04-18T07:36:32.999Z</time></trkpt><trkpt lat="43.666438602986275" lon="12.41152056430995"><ele>354.0</ele><time>2026-04-18T07:36:33.999Z</time></trkpt><trkpt lat="43.666345844840556" lon="12.411513340562472"><ele>354.0</ele><time>2026-04-18T07:36:34.999Z</time></trkpt><trkpt lat="43.666250045269805" lon="12.411502874048656"><ele>354.0</ele><time>2026-04-18T07:36:35.999Z</time></trkpt><trkpt lat="43.66614518929852" lon="12.411497115216042"><ele>354.0</ele><time>2026-04-18T07:36:36.999Z</time></trkpt><trkpt lat="43.666043583490634" lon="12.411490833271266"><ele>354.0</ele><time>2026-04-18T07:36:37.999Z</time></trkpt><trkpt lat="43.66594409157154" lon="12.41148325648393"><ele>354.0</ele><time>2026-04-18T07:36:38.999Z</time></trkpt><trkpt lat="43.66584785785247" lon="12.411475900976992"><ele>354.0</ele><time>2026-04-18T07:36:39.999Z</time></trkpt><trkpt lat="43.665761840291374" lon="12.411469852187782"><ele>354.0</ele><time>2026-04-18T07:36:40.999Z</time></trkpt><trkpt lat="43.66567287396969" lon="12.41145296522415"><ele>354.0</ele><time>2026-04-18T07:36:41.999Z</time></trkpt><trkpt lat="43.66558673906134" lon="12.411422383759632"><ele>354.0</ele><time>2026-04-18T07:36:42.999Z</time></trkpt><trkpt lat="43.66553571437824" lon="12.4113531076025"><ele>354.0</ele><time>2026-04-18T07:36:43.999Z</time></trkpt><trkpt lat="43.66548359335907" lon="12.411284711478348"><ele>354.0</ele><time>2026-04-18T07:36:46.999Z</time></trkpt><trkpt lat="43.665400096390854" lon="12.411322020153161"><ele>354.0</ele><time>2026-04-18T07:36:53.999Z</time></trkpt><trkpt lat="43.665325091250416" lon="12.411470602023348"><ele>354.0</ele><time>2026-04-18T07:36:55.999Z</time></trkpt><trkpt lat="43.665288550005464" lon="12.411548021637271"><ele>354.0</ele><time>2026-04-18T07:36:56.999Z</time></trkpt><trkpt lat="43.66526473585161" lon="12.411655675726553"><ele>354.0</ele><time>2026-04-18T07:36:57.999Z</time></trkpt><trkpt lat="43.66521202765979" lon="12.411816511693981"><ele>355.8333333333333</ele><time>2026-04-18T07:36:59.999Z</time></trkpt><trkpt lat="43.66517845721316" lon="12.41193058389814"><ele>357.6666666666667</ele><time>2026-04-18T07:37:00.999Z</time></trkpt><trkpt lat="43.66514998459821" lon="12.412033566948374"><ele>359.5</ele><time>2026-04-18T07:37:01.999Z</time></trkpt><trkpt lat="43.66512077943513" lon="12.412146853829665"><ele>361.33333333333337</ele><time>2026-04-18T07:37:02.999Z</time></trkpt><trkpt lat="43.66510080037162" lon="12.412250020407999"><ele>363.1666666666667</ele><time>2026-04-18T07:37:03.999Z</time></trkpt><trkpt lat="43.665082097465955" lon="12.412400139562559"><ele>365.0</ele><time>2026-04-18T07:37:05.999Z</time></trkpt><trkpt lat="43.66504339548701" lon="12.412503345225838"><ele>365.0</ele><time>2026-04-18T07:37:07.999Z</time></trkpt><trkpt lat="43.66498247997824" lon="12.41260530360856"><ele>365.0</ele><time>2026-04-18T07:37:09.999Z</time></trkpt><trkpt lat="43.66493926921045" lon="12.412685630683333"><ele>365.0</ele><time>2026-04-18T07:37:11.999Z</time></trkpt><trkpt lat="43.66487036552892" lon="12.412719962119182"><ele>365.0</ele><time>2026-04-18T07:37:14.999Z</time></trkpt><trkpt lat="43.66480724268449" lon="12.412752599332174"><ele>365.0</ele><time>2026-04-18T07:37:18.999Z</time></trkpt><trkpt lat="43.66472236189276" lon="12.412803269225378"><ele>365.0</ele><time>2026-04-18T07:37:21.999Z</time></trkpt><trkpt lat="43.6646378467958" lon="12.412846269304532"><ele>365.0</ele><time>2026-04-18T07:37:23.999Z</time></trkpt><trkpt lat="43.66456549838965" lon="12.412891235029356"><ele>365.0</ele><time>2026-04-18T07:37:25.999Z</time></trkpt><trkpt lat="43.664443580431914" lon="12.412926366339596"><ele>365.0</ele><time>2026-04-18T07:37:27.999Z</time></trkpt><trkpt lat="43.664345731808986" lon="12.41297166516136"><ele>365.0</ele><time>2026-04-18T07:37:29.999Z</time></trkpt><trkpt lat="43.66428031156963" lon="12.41301383574981"><ele>365.0</ele><time>2026-04-18T07:37:32.999Z</time></trkpt><trkpt lat="43.66421052694972" lon="12.4130334262263"><ele>364.6</ele><time>2026-04-18T07:37:34.999Z</time></trkpt><trkpt lat="43.66413441764273" lon="12.413075088674933"><ele>364.2</ele><time>2026-04-18T07:37:36.999Z</time></trkpt><trkpt lat="43.66403481438988" lon="12.413130395566178"><ele>363.79999999999995</ele><time>2026-04-18T07:37:38.999Z</time></trkpt><trkpt lat="43.663922439911765" lon="12.41321392168264"><ele>363.4</ele><time>2026-04-18T07:37:40.999Z</time></trkpt><trkpt lat="43.66386112339377" lon="12.413271982793464"><ele>363.0</ele><time>2026-04-18T07:37:41.999Z</time></trkpt><trkpt lat="43.66379028220502" lon="12.413328856342348"><ele>363.0</ele><time>2026-04-18T07:37:42.999Z</time></trkpt><trkpt lat="43.663719592368416" lon="12.413377585696784"><ele>363.0</ele><time>2026-04-18T07:37:43.999Z</time></trkpt><trkpt lat="43.66363308137121" lon="12.413421287491625"><ele>363.0</ele><time>2026-04-18T07:37:44.999Z</time></trkpt><trkpt lat="43.663541047184566" lon="12.413450966589082"><ele>363.0</ele><time>2026-04-18T07:37:45.999Z</time></trkpt><trkpt lat="43.663448490973835" lon="12.41347501062674"><ele>363.0</ele><time>2026-04-18T07:37:46.999Z</time></trkpt><trkpt lat="43.663345641785995" lon="12.413494870704664"><ele>362.2</ele><time>2026-04-18T07:37:47.999Z</time></trkpt><trkpt lat="43.663242600572694" lon="12.413511918563387"><ele>361.4</ele><time>2026-04-18T07:37:49Z</time></trkpt><trkpt lat="43.66314209934139" lon="12.41352325709039"><ele>360.59999999999997</ele><time>2026-04-18T07:37:50Z</time></trkpt><trkpt lat="43.66304058924168" lon="12.413530065778925"><ele>359.79999999999995</ele><time>2026-04-18T07:37:51Z</time></trkpt><trkpt lat="43.662958324184146" lon="12.413529178722198"><ele>359.0</ele><time>2026-04-18T07:37:52Z</time></trkpt><trkpt lat="43.662875211308325" lon="12.413529818290236"><ele>359.0</ele><time>2026-04-18T07:37:53Z</time></trkpt><trkpt lat="43.66280239583655" lon="12.41353729134613"><ele>359.0</ele><time>2026-04-18T07:37:54Z</time></trkpt><trkpt lat="43.6627402965717" lon="12.41356747984882"><ele>359.0</ele><time>2026-04-18T07:37:55Z</time></trkpt><trkpt lat="43.6626623270782" lon="12.413615157579404"><ele>359.0</ele><time>2026-04-18T07:37:57Z</time></trkpt><trkpt lat="43.66269467063867" lon="12.413841896186174"><ele>359.0</ele><time>2026-04-18T07:38:00Z</time></trkpt><trkpt lat="43.66272874126915" lon="12.413948577295582"><ele>358.6</ele><time>2026-04-18T07:38:01Z</time></trkpt><trkpt lat="43.66273477003567" lon="12.414085947922882"><ele>358.2</ele><time>2026-04-18T07:38:02Z</time></trkpt><trkpt lat="43.662744417456416" lon="12.414231042625225"><ele>357.8</ele><time>2026-04-18T07:38:03Z</time></trkpt><trkpt lat="43.66276835911156" lon="12.41438170055558"><ele>357.40000000000003</ele><time>2026-04-18T07:38:04Z</time></trkpt><trkpt lat="43.662780105990606" lon="12.414546274993297"><ele>357.0</ele><time>2026-04-18T07:38:05Z</time></trkpt><trkpt lat="43.66277568213433" lon="12.414726048128292"><ele>356.75</ele><time>2026-04-18T07:38:06Z</time></trkpt><trkpt lat="43.66278887990421" lon="12.414919987595164"><ele>356.5</ele><time>2026-04-18T07:38:07Z</time></trkpt><trkpt lat="43.662801834639204" lon="12.415118651572145"><ele>356.25</ele><time>2026-04-18T07:38:08Z</time></trkpt><trkpt lat="43.66281505110941" lon="12.415321329449352"><ele>356.0</ele><time>2026-04-18T07:38:09Z</time></trkpt><trkpt lat="43.66282808227955" lon="12.4155294143139"><ele>356.0</ele><time>2026-04-18T07:38:10Z</time></trkpt><trkpt lat="43.662841857105725" lon="12.415735402882621"><ele>356.0</ele><time>2026-04-18T07:38:11Z</time></trkpt><trkpt lat="43.6628720632706" lon="12.415950400381476"><ele>356.0</ele><time>2026-04-18T07:38:12Z</time></trkpt><trkpt lat="43.662885503563125" lon="12.416175301447684"><ele>356.33333333333337</ele><time>2026-04-18T07:38:13Z</time></trkpt><trkpt lat="43.66290000183264" lon="12.416409155157865"><ele>356.6666666666667</ele><time>2026-04-18T07:38:14Z</time></trkpt><trkpt lat="43.66290950557258" lon="12.416636172106875"><ele>357.0</ele><time>2026-04-18T07:38:15Z</time></trkpt><trkpt lat="43.662929177690124" lon="12.416864207548155"><ele>357.0</ele><time>2026-04-18T07:38:16Z</time></trkpt><trkpt lat="43.66293810731866" lon="12.417104011230384"><ele>357.0</ele><time>2026-04-18T07:38:16.999Z</time></trkpt><trkpt lat="43.66295953274429" lon="12.417349668965631"><ele>357.0</ele><time>2026-04-18T07:38:17.999Z</time></trkpt><trkpt lat="43.66297421201347" lon="12.417585635988003"><ele>357.0</ele><time>2026-04-18T07:38:18.999Z</time></trkpt><trkpt lat="43.6629884496272" lon="12.417829679942493"><ele>357.0</ele><time>2026-04-18T07:38:19.999Z</time></trkpt><trkpt lat="43.66300434175294" lon="12.418072360717513"><ele>357.0</ele><time>2026-04-18T07:38:20.999Z</time></trkpt><trkpt lat="43.663005115449806" lon="12.41832009013912"><ele>356.6666666666667</ele><time>2026-04-18T07:38:21.999Z</time></trkpt><trkpt lat="43.66302115959822" lon="12.418573197438386"><ele>356.33333333333337</ele><time>2026-04-18T07:38:22.999Z</time></trkpt><trkpt lat="43.663037244202144" lon="12.418832817248118"><ele>356.0</ele><time>2026-04-18T07:38:23.999Z</time></trkpt><trkpt lat="43.66305326895361" lon="12.419090589990253"><ele>356.0</ele><time>2026-04-18T07:38:24.999Z</time></trkpt><trkpt lat="43.66306940435032" lon="12.419350142546053"><ele>356.0</ele><time>2026-04-18T07:38:25.999Z</time></trkpt><trkpt lat="43.66308569832818" lon="12.419609720560938"><ele>356.0</ele><time>2026-04-18T07:38:26.999Z</time></trkpt><trkpt lat="43.66310202215601" lon="12.41986781661482"><ele>355.0</ele><time>2026-04-18T07:38:27.999Z</time></trkpt><trkpt lat="43.66311770603955" lon="12.420126299991544"><ele>354.0</ele><time>2026-04-18T07:38:28.999Z</time></trkpt><trkpt lat="43.66313402141231" lon="12.42038909553093"><ele>353.0</ele><time>2026-04-18T07:38:29.999Z</time></trkpt><trkpt lat="43.66315022210493" lon="12.420647509121006"><ele>352.33333333333337</ele><time>2026-04-18T07:38:30.999Z</time></trkpt><trkpt lat="43.66316551482905" lon="12.420891439857837"><ele>351.6666666666667</ele><time>2026-04-18T07:38:31.999Z</time></trkpt><trkpt lat="43.66318040833774" lon="12.421129002652634"><ele>351.0</ele><time>2026-04-18T07:38:32.999Z</time></trkpt><trkpt lat="43.663194212570886" lon="12.421347611287242"><ele>351.0</ele><time>2026-04-18T07:38:33.999Z</time></trkpt><trkpt lat="43.663207471758135" lon="12.421556487339062"><ele>351.0</ele><time>2026-04-18T07:38:34.999Z</time></trkpt><trkpt lat="43.66322070234714" lon="12.421764913023372"><ele>351.0</ele><time>2026-04-18T07:38:35.999Z</time></trkpt><trkpt lat="43.66323353116073" lon="12.421967009346416"><ele>350.75</ele><time>2026-04-18T07:38:36.999Z</time></trkpt><trkpt lat="43.663261819734124" lon="12.422163709102067"><ele>350.5</ele><time>2026-04-18T07:38:37.999Z</time></trkpt><trkpt lat="43.663274664992834" lon="12.422359539852414"><ele>350.25</ele><time>2026-04-18T07:38:38.999Z</time></trkpt><trkpt lat="43.6632712369409" lon="12.42256100035119"><ele>350.0</ele><time>2026-04-18T07:38:39.999Z</time></trkpt><trkpt lat="43.66328402824537" lon="12.422762505785064"><ele>350.0</ele><time>2026-04-18T07:38:40.999Z</time></trkpt><trkpt lat="43.663296664766754" lon="12.42296157291949"><ele>350.0</ele><time>2026-04-18T07:38:41.999Z</time></trkpt><trkpt lat="43.66331854914301" lon="12.423165397730214"><ele>350.0</ele><time>2026-04-18T07:38:42.999Z</time></trkpt><trkpt lat="43.663333673589186" lon="12.423360650520381"><ele>350.0</ele><time>2026-04-18T07:38:43.999Z</time></trkpt><trkpt lat="43.663343575876375" lon="12.423562398336202"><ele>350.0</ele><time>2026-04-18T07:38:44.999Z</time></trkpt><trkpt lat="43.66335701110236" lon="12.423765898951249"><ele>350.0</ele><time>2026-04-18T07:38:45.999Z</time></trkpt><trkpt lat="43.66337291720662" lon="12.423975025260997"><ele>350.0</ele><time>2026-04-18T07:38:46.999Z</time></trkpt><trkpt lat="43.66338886416814" lon="12.424190510254062"><ele>350.0</ele><time>2026-04-18T07:38:47.999Z</time></trkpt><trkpt lat="43.663401481729736" lon="12.424396218829013"><ele>350.0</ele><time>2026-04-18T07:38:48.999Z</time></trkpt><trkpt lat="43.66341428909873" lon="12.424584973451035"><ele>350.0</ele><time>2026-04-18T07:38:49.999Z</time></trkpt><trkpt lat="43.66342461146246" lon="12.42477699741707"><ele>350.0</ele><time>2026-04-18T07:38:50.999Z</time></trkpt><trkpt lat="43.663436836195956" lon="12.424963464244714"><ele>350.25</ele><time>2026-04-18T07:38:51.999Z</time></trkpt><trkpt lat="43.66344779156066" lon="12.425145842104845"><ele>350.5</ele><time>2026-04-18T07:38:52.999Z</time></trkpt><trkpt lat="43.66345938732265" lon="12.42532143667926"><ele>350.75</ele><time>2026-04-18T07:38:53.999Z</time></trkpt><trkpt lat="43.663472111104895" lon="12.425486318803587"><ele>351.0</ele><time>2026-04-18T07:38:54.999Z</time></trkpt><trkpt lat="43.663482139186556" lon="12.425647708302359"><ele>351.0</ele><time>2026-04-18T07:38:55.999Z</time></trkpt><trkpt lat="43.66349861347262" lon="12.425797409784089"><ele>351.0</ele><time>2026-04-18T07:38:56.999Z</time></trkpt><trkpt lat="43.663507090227384" lon="12.425941061199607"><ele>351.0</ele><time>2026-04-18T07:38:57.999Z</time></trkpt><trkpt lat="43.66357609397396" lon="12.426218471093296"><ele>351.0</ele><time>2026-04-18T07:38:59.999Z</time></trkpt><trkpt lat="43.663596978240854" lon="12.426364717067859"><ele>349.0</ele><time>2026-04-18T07:39:00.999Z</time></trkpt><trkpt lat="43.663647535964984" lon="12.426498743625839"><ele>347.0</ele><time>2026-04-18T07:39:01.999Z</time></trkpt><trkpt lat="43.663682783065134" lon="12.42665051178001"><ele>345.0</ele><time>2026-04-18T07:39:02.999Z</time></trkpt><trkpt lat="43.663721884510664" lon="12.426818192843678"><ele>343.0</ele><time>2026-04-18T07:39:03.999Z</time></trkpt><trkpt lat="43.663752507928685" lon="12.427005127255383"><ele>343.0</ele><time>2026-04-18T07:39:04.999Z</time></trkpt><trkpt lat="43.66376383361607" lon="12.427211766815793"><ele>343.0</ele><time>2026-04-18T07:39:05.999Z</time></trkpt><trkpt lat="43.66376671849983" lon="12.427416264564739"><ele>343.0</ele><time>2026-04-18T07:39:06.999Z</time></trkpt><trkpt lat="43.66376569732068" lon="12.42762254418379"><ele>343.0</ele><time>2026-04-18T07:39:07.999Z</time></trkpt><trkpt lat="43.663764507133365" lon="12.427825421509244"><ele>343.25</ele><time>2026-04-18T07:39:08.999Z</time></trkpt><trkpt lat="43.663764953908434" lon="12.428016734582465"><ele>343.5</ele><time>2026-04-18T07:39:09.999Z</time></trkpt><trkpt lat="43.66376410885367" lon="12.428194075504162"><ele>343.75</ele><time>2026-04-18T07:39:10.999Z</time></trkpt><trkpt lat="43.66375699235888" lon="12.42836057238958"><ele>344.0</ele><time>2026-04-18T07:39:11.999Z</time></trkpt><trkpt lat="43.66373969737206" lon="12.428514754783736"><ele>344.0</ele><time>2026-04-18T07:39:12.999Z</time></trkpt><trkpt lat="43.663685930015504" lon="12.428652134213332"><ele>344.0</ele><time>2026-04-18T07:39:13.999Z</time></trkpt><trkpt lat="43.66362503384381" lon="12.42875632535554"><ele>344.0</ele><time>2026-04-18T07:39:14.999Z</time></trkpt><trkpt lat="43.6635435375532" lon="12.428835480481876"><ele>344.0</ele><time>2026-04-18T07:39:15.999Z</time></trkpt><trkpt lat="43.66344774708418" lon="12.428811508409927"><ele>344.0</ele><time>2026-04-18T07:39:16.999Z</time></trkpt><trkpt lat="43.663329777042975" lon="12.428803231229672"><ele>346.0</ele><time>2026-04-18T07:39:17.999Z</time></trkpt><trkpt lat="43.66320348042052" lon="12.428799721555668"><ele>348.0</ele><time>2026-04-18T07:39:18.999Z</time></trkpt><trkpt lat="43.663067735295385" lon="12.428772152860747"><ele>350.0</ele><time>2026-04-18T07:39:19.999Z</time></trkpt><trkpt lat="43.66294003510942" lon="12.428761996184837"><ele>352.0</ele><time>2026-04-18T07:39:20.999Z</time></trkpt><trkpt lat="43.66281240834252" lon="12.428788325555796"><ele>350.5</ele><time>2026-04-18T07:39:21.999Z</time></trkpt><trkpt lat="43.66270355599791" lon="12.42886814987882"><ele>349.0</ele><time>2026-04-18T07:39:22.999Z</time></trkpt><trkpt lat="43.662613732605166" lon="12.428985105171833"><ele>347.5</ele><time>2026-04-18T07:39:23.999Z</time></trkpt><trkpt lat="43.66252726774822" lon="12.429109151229364"><ele>346.0</ele><time>2026-04-18T07:39:24.999Z</time></trkpt><trkpt lat="43.662453619199496" lon="12.429234113613534"><ele>346.0</ele><time>2026-04-18T07:39:25.999Z</time></trkpt><trkpt lat="43.662399039275414" lon="12.429366874497367"><ele>346.0</ele><time>2026-04-18T07:39:26.999Z</time></trkpt><trkpt lat="43.66237335751172" lon="12.429520194851946"><ele>346.0</ele><time>2026-04-18T07:39:27.999Z</time></trkpt><trkpt lat="43.662374971505145" lon="12.429675358504529"><ele>346.0</ele><time>2026-04-18T07:39:28.999Z</time></trkpt><trkpt lat="43.66241288858941" lon="12.429850546623067"><ele>345.75</ele><time>2026-04-18T07:39:29.999Z</time></trkpt><trkpt lat="43.662475636299725" lon="12.430017551586406"><ele>345.5</ele><time>2026-04-18T07:39:30.999Z</time></trkpt><trkpt lat="43.662566462048524" lon="12.430169652663057"><ele>345.25</ele><time>2026-04-18T07:39:31.999Z</time></trkpt><trkpt lat="43.662667534768794" lon="12.430308734264962"><ele>345.0</ele><time>2026-04-18T07:39:32.999Z</time></trkpt><trkpt lat="43.66278456677418" lon="12.430455183959122"><ele>347.3333333333333</ele><time>2026-04-18T07:39:33.999Z</time></trkpt><trkpt lat="43.66290338447695" lon="12.43060665358212"><ele>349.66666666666663</ele><time>2026-04-18T07:39:34.999Z</time></trkpt><trkpt lat="43.66301019007705" lon="12.430794827606707"><ele>352.0</ele><time>2026-04-18T07:39:35.999Z</time></trkpt><trkpt lat="43.66310244889451" lon="12.430969370021119"><ele>352.0</ele><time>2026-04-18T07:39:36.999Z</time></trkpt><trkpt lat="43.663151035938064" lon="12.431146849421388"><ele>352.0</ele><time>2026-04-18T07:39:37.999Z</time></trkpt><trkpt lat="43.66316989454973" lon="12.431343598581396"><ele>352.0</ele><time>2026-04-18T07:39:38.999Z</time></trkpt><trkpt lat="43.663173722408324" lon="12.431555827290529"><ele>352.0</ele><time>2026-04-18T07:39:39.999Z</time></trkpt><trkpt lat="43.663192041755764" lon="12.43178119329358"><ele>353.3333333333333</ele><time>2026-04-18T07:39:40.999Z</time></trkpt><trkpt lat="43.66323279250241" lon="12.43199588586175"><ele>354.6666666666667</ele><time>2026-04-18T07:39:41.999Z</time></trkpt><trkpt lat="43.66331594301155" lon="12.432198056511412"><ele>356.0</ele><time>2026-04-18T07:39:42.999Z</time></trkpt><trkpt lat="43.663424863372114" lon="12.432368261306028"><ele>355.6666666666667</ele><time>2026-04-18T07:39:43.999Z</time></trkpt><trkpt lat="43.66350770415307" lon="12.432559800145409"><ele>355.3333333333333</ele><time>2026-04-18T07:39:44.999Z</time></trkpt><trkpt lat="43.66358874814126" lon="12.432765823854277"><ele>355.0</ele><time>2026-04-18T07:39:45.999Z</time></trkpt><trkpt lat="43.66365865175853" lon="12.432958448405264"><ele>357.66666666666663</ele><time>2026-04-18T07:39:46.999Z</time></trkpt><trkpt lat="43.66372782765487" lon="12.433173401067556"><ele>360.3333333333333</ele><time>2026-04-18T07:39:47.999Z</time></trkpt><trkpt lat="43.66378573722977" lon="12.433386183968869"><ele>363.0</ele><time>2026-04-18T07:39:48.999Z</time></trkpt><trkpt lat="43.66383655078864" lon="12.433608031408173"><ele>364.0</ele><time>2026-04-18T07:39:49.999Z</time></trkpt><trkpt lat="43.66387745109183" lon="12.43382763242705"><ele>365.0</ele><time>2026-04-18T07:39:50.999Z</time></trkpt><trkpt lat="43.66391496136891" lon="12.434061444449245"><ele>366.0</ele><time>2026-04-18T07:39:51.999Z</time></trkpt><trkpt lat="43.66395240249832" lon="12.434284601918113"><ele>366.0</ele><time>2026-04-18T07:39:52.999Z</time></trkpt><trkpt lat="43.663994873265246" lon="12.43447755327454"><ele>366.0</ele><time>2026-04-18T07:39:53.999Z</time></trkpt><trkpt lat="43.6640171551536" lon="12.434645030018224"><ele>366.0</ele><time>2026-04-18T07:39:55Z</time></trkpt><trkpt lat="43.66402525691554" lon="12.434801207681822"><ele>366.0</ele><time>2026-04-18T07:39:56Z</time></trkpt><trkpt lat="43.66397915580834" lon="12.434941340950594"><ele>367.25</ele><time>2026-04-18T07:39:57Z</time></trkpt><trkpt lat="43.66391609620266" lon="12.435057283102628"><ele>368.5</ele><time>2026-04-18T07:39:58Z</time></trkpt><trkpt lat="43.663817085312395" lon="12.435184981833228"><ele>369.75</ele><time>2026-04-18T07:39:59Z</time></trkpt><trkpt lat="43.663684579140984" lon="12.435266682609992"><ele>371.0</ele><time>2026-04-18T07:40:00Z</time></trkpt><trkpt lat="43.663533111531486" lon="12.435340781862879"><ele>373.25</ele><time>2026-04-18T07:40:01Z</time></trkpt><trkpt lat="43.66337924493797" lon="12.435409991883976"><ele>375.5</ele><time>2026-04-18T07:40:02Z</time></trkpt><trkpt lat="43.66324090101463" lon="12.435489601265221"><ele>377.75</ele><time>2026-04-18T07:40:03Z</time></trkpt><trkpt lat="43.6631214379058" lon="12.435583693961364"><ele>380.0</ele><time>2026-04-18T07:40:04Z</time></trkpt><trkpt lat="43.66303080610392" lon="12.435703322574085"><ele>380.0</ele><time>2026-04-18T07:40:05Z</time></trkpt><trkpt lat="43.66296479755823" lon="12.435846279829166"><ele>380.0</ele><time>2026-04-18T07:40:06Z</time></trkpt><trkpt lat="43.66292114235181" lon="12.436017529244955"><ele>380.0</ele><time>2026-04-18T07:40:07Z</time></trkpt><trkpt lat="43.66289350790268" lon="12.436208543466325"><ele>380.0</ele><time>2026-04-18T07:40:08Z</time></trkpt><trkpt lat="43.662868208962195" lon="12.436398945452796"><ele>381.25</ele><time>2026-04-18T07:40:09Z</time></trkpt><trkpt lat="43.66284285106015" lon="12.436578281380248"><ele>382.5</ele><time>2026-04-18T07:40:10Z</time></trkpt><trkpt lat="43.66281459687183" lon="12.436742705678029"><ele>383.75</ele><time>2026-04-18T07:40:11Z</time></trkpt><trkpt lat="43.66277861513082" lon="12.43689709385281"><ele>385.0</ele><time>2026-04-18T07:40:12Z</time></trkpt><trkpt lat="43.662728263116435" lon="12.437040384784863"><ele>384.0</ele><time>2026-04-18T07:40:13Z</time></trkpt><trkpt lat="43.662651555454225" lon="12.43715646395769"><ele>383.0</ele><time>2026-04-18T07:40:14Z</time></trkpt><trkpt lat="43.66254382775796" lon="12.437229244271744"><ele>382.0</ele><time>2026-04-18T07:40:15Z</time></trkpt><trkpt lat="43.662431179497844" lon="12.437289740902346"><ele>381.0</ele><time>2026-04-18T07:40:16Z</time></trkpt><trkpt lat="43.66231911675908" lon="12.43735343703688"><ele>381.0</ele><time>2026-04-18T07:40:17Z</time></trkpt><trkpt lat="43.6622037288096" lon="12.437411863227204"><ele>381.0</ele><time>2026-04-18T07:40:18Z</time></trkpt><trkpt lat="43.66207556144268" lon="12.437475482512303"><ele>381.0</ele><time>2026-04-18T07:40:19Z</time></trkpt><trkpt lat="43.6619454777211" lon="12.437535405960654"><ele>381.0</ele><time>2026-04-18T07:40:20Z</time></trkpt><trkpt lat="43.661814885414934" lon="12.437596891784574"><ele>384.33333333333337</ele><time>2026-04-18T07:40:21Z</time></trkpt><trkpt lat="43.66167575044338" lon="12.4376613830554"><ele>387.6666666666667</ele><time>2026-04-18T07:40:22Z</time></trkpt><trkpt lat="43.66153006174664" lon="12.437732654539884"><ele>391.0</ele><time>2026-04-18T07:40:23Z</time></trkpt><trkpt lat="43.661380828660434" lon="12.437805753854837"><ele>391.0</ele><time>2026-04-18T07:40:24Z</time></trkpt><trkpt lat="43.661225672264486" lon="12.437878016349037"><ele>391.0</ele><time>2026-04-18T07:40:25Z</time></trkpt><trkpt lat="43.661076791179205" lon="12.43794861032413"><ele>391.0</ele><time>2026-04-18T07:40:26Z</time></trkpt><trkpt lat="43.66092814232561" lon="12.438022601259567"><ele>388.6666666666667</ele><time>2026-04-18T07:40:27Z</time></trkpt><trkpt lat="43.66076690620573" lon="12.438095937723627"><ele>386.33333333333337</ele><time>2026-04-18T07:40:28Z</time></trkpt><trkpt lat="43.660613132897" lon="12.438149507236254"><ele>384.0</ele><time>2026-04-18T07:40:29Z</time></trkpt><trkpt lat="43.660455217041694" lon="12.43822457800616"><ele>384.0</ele><time>2026-04-18T07:40:30Z</time></trkpt><trkpt lat="43.66030393300998" lon="12.438322640269229"><ele>384.0</ele><time>2026-04-18T07:40:31Z</time></trkpt><trkpt lat="43.66015244313436" lon="12.438394137626643"><ele>384.0</ele><time>2026-04-18T07:40:32Z</time></trkpt><trkpt lat="43.66000333130547" lon="12.438462932781636"><ele>383.6666666666667</ele><time>2026-04-18T07:40:33Z</time></trkpt><trkpt lat="43.65985871305177" lon="12.438532056287478"><ele>383.33333333333337</ele><time>2026-04-18T07:40:34Z</time></trkpt><trkpt lat="43.65971289649019" lon="12.438599594959339"><ele>383.0</ele><time>2026-04-18T07:40:35Z</time></trkpt><trkpt lat="43.659569107466424" lon="12.438666297382461"><ele>383.75</ele><time>2026-04-18T07:40:36Z</time></trkpt><trkpt lat="43.65942663240196" lon="12.43873141057727"><ele>384.5</ele><time>2026-04-18T07:40:37Z</time></trkpt><trkpt lat="43.659286517010095" lon="12.438798179134501"><ele>385.25</ele><time>2026-04-18T07:40:38Z</time></trkpt><trkpt lat="43.659147399614696" lon="12.438865185246248"><ele>386.0</ele><time>2026-04-18T07:40:39Z</time></trkpt><trkpt lat="43.65900292480026" lon="12.438894889972675"><ele>387.25</ele><time>2026-04-18T07:40:40Z</time></trkpt><trkpt lat="43.65887652524348" lon="12.438922080581623"><ele>388.5</ele><time>2026-04-18T07:40:41Z</time></trkpt><trkpt lat="43.65874479529569" lon="12.43893028452795"><ele>389.75</ele><time>2026-04-18T07:40:42Z</time></trkpt><trkpt lat="43.65860105664972" lon="12.438907260333519"><ele>391.0</ele><time>2026-04-18T07:40:43Z</time></trkpt><trkpt lat="43.65843438797764" lon="12.438850267957582"><ele>391.0</ele><time>2026-04-18T07:40:44Z</time></trkpt><trkpt lat="43.65829510012165" lon="12.438792191470354"><ele>391.0</ele><time>2026-04-18T07:40:45Z</time></trkpt><trkpt lat="43.658135029980876" lon="12.43872231271074"><ele>391.0</ele><time>2026-04-18T07:40:46Z</time></trkpt><trkpt lat="43.65797517819968" lon="12.438652529256277"><ele>391.0</ele><time>2026-04-18T07:40:47Z</time></trkpt><trkpt lat="43.65781364962129" lon="12.43858102378574"><ele>391.0</ele><time>2026-04-18T07:40:48Z</time></trkpt><trkpt lat="43.65765367068826" lon="12.438510171601617"><ele>391.0</ele><time>2026-04-18T07:40:49Z</time></trkpt><trkpt lat="43.6574953900908" lon="12.438440071577261"><ele>392.6666666666667</ele><time>2026-04-18T07:40:50Z</time></trkpt><trkpt lat="43.65732486931069" lon="12.438364521330634"><ele>394.33333333333337</ele><time>2026-04-18T07:40:51Z</time></trkpt><trkpt lat="43.65715160843036" lon="12.438287510335789"><ele>396.0</ele><time>2026-04-18T07:40:52Z</time></trkpt><trkpt lat="43.656978764167576" lon="12.438210684525274"><ele>397.33333333333337</ele><time>2026-04-18T07:40:53Z</time></trkpt><trkpt lat="43.65681396037776" lon="12.43813743254328"><ele>398.6666666666667</ele><time>2026-04-18T07:40:54Z</time></trkpt><trkpt lat="43.656648530027006" lon="12.43806390207002"><ele>400.0</ele><time>2026-04-18T07:40:55Z</time></trkpt><trkpt lat="43.65648534668692" lon="12.437991370361711"><ele>401.0</ele><time>2026-04-18T07:40:56Z</time></trkpt><trkpt lat="43.65633620418802" lon="12.43792468471352"><ele>402.0</ele><time>2026-04-18T07:40:57Z</time></trkpt><trkpt lat="43.656204688785316" lon="12.43787823983272"><ele>403.0</ele><time>2026-04-18T07:40:58Z</time></trkpt><trkpt lat="43.65609083653518" lon="12.437834191631916"><ele>404.0</ele><time>2026-04-18T07:40:59Z</time></trkpt><trkpt lat="43.65598094072475" lon="12.437851404339"><ele>405.25</ele><time>2026-04-18T07:41:00Z</time></trkpt><trkpt lat="43.6558965195994" lon="12.437967781532352"><ele>406.5</ele><time>2026-04-18T07:41:01Z</time></trkpt><trkpt lat="43.65582544188339" lon="12.438072504493153"><ele>407.75</ele><time>2026-04-18T07:41:02Z</time></trkpt><trkpt lat="43.6558033381257" lon="12.438213904005158"><ele>409.0</ele><time>2026-04-18T07:41:03Z</time></trkpt><trkpt lat="43.65586619467437" lon="12.438368391389872"><ele>409.0</ele><time>2026-04-18T07:41:03.999Z</time></trkpt><trkpt lat="43.655940314405385" lon="12.438460008797776"><ele>409.0</ele><time>2026-04-18T07:41:04.999Z</time></trkpt><trkpt lat="43.65602253907957" lon="12.438561303489301"><ele>409.0</ele><time>2026-04-18T07:41:05.999Z</time></trkpt><trkpt lat="43.656125341313434" lon="12.438667757284628"><ele>409.0</ele><time>2026-04-18T07:41:06.999Z</time></trkpt><trkpt lat="43.65621870027461" lon="12.438804438969592"><ele>408.25</ele><time>2026-04-18T07:41:07.999Z</time></trkpt><trkpt lat="43.65632868664715" lon="12.438931052004255"><ele>407.5</ele><time>2026-04-18T07:41:08.999Z</time></trkpt><trkpt lat="43.65644382627485" lon="12.439063597343909"><ele>406.75</ele><time>2026-04-18T07:41:09.999Z</time></trkpt><trkpt lat="43.6565558662147" lon="12.43919947917939"><ele>406.0</ele><time>2026-04-18T07:41:10.999Z</time></trkpt><trkpt lat="43.65664869809674" lon="12.439319773076031"><ele>406.0</ele><time>2026-04-18T07:41:11.999Z</time></trkpt><trkpt lat="43.656708607489435" lon="12.439443689726795"><ele>406.0</ele><time>2026-04-18T07:41:12.999Z</time></trkpt><trkpt lat="43.65671078109389" lon="12.439589819093506"><ele>406.0</ele><time>2026-04-18T07:41:13.999Z</time></trkpt><trkpt lat="43.65674209836255" lon="12.439735854392408"><ele>406.0</ele><time>2026-04-18T07:41:14.999Z</time></trkpt><trkpt lat="43.65678655030118" lon="12.439859273663805"><ele>406.0</ele><time>2026-04-18T07:41:15.999Z</time></trkpt><trkpt lat="43.65685025814361" lon="12.439952254570487"><ele>406.0</ele><time>2026-04-18T07:41:16.999Z</time></trkpt><trkpt lat="43.65693561204477" lon="12.440007988506057"><ele>406.0</ele><time>2026-04-18T07:41:17.999Z</time></trkpt><trkpt lat="43.657041054676434" lon="12.440058783793633"><ele>406.0</ele><time>2026-04-18T07:41:18.999Z</time></trkpt><trkpt lat="43.65715362850575" lon="12.440107274556228"><ele>406.0</ele><time>2026-04-18T07:41:19.999Z</time></trkpt><trkpt lat="43.65725507891417" lon="12.440167423848788"><ele>406.0</ele><time>2026-04-18T07:41:20.999Z</time></trkpt><trkpt lat="43.65730984611764" lon="12.44023827226827"><ele>407.0</ele><time>2026-04-18T07:41:21.999Z</time></trkpt><trkpt lat="43.6573310093467" lon="12.44035405214793"><ele>408.0</ele><time>2026-04-18T07:41:22.999Z</time></trkpt><trkpt lat="43.65730994998396" lon="12.440476214100613"><ele>409.0</ele><time>2026-04-18T07:41:23.999Z</time></trkpt><trkpt lat="43.657237875846036" lon="12.440574956090096"><ele>410.0</ele><time>2026-04-18T07:41:24.999Z</time></trkpt><trkpt lat="43.65718200711938" lon="12.440720982744367"><ele>411.0</ele><time>2026-04-18T07:41:25.999Z</time></trkpt><trkpt lat="43.6571562143882" lon="12.440902620467801"><ele>411.0</ele><time>2026-04-18T07:41:26.999Z</time></trkpt><trkpt lat="43.657141804043384" lon="12.441101940064861"><ele>411.0</ele><time>2026-04-18T07:41:27.999Z</time></trkpt><trkpt lat="43.6571411362303" lon="12.441290970008591"><ele>411.0</ele><time>2026-04-18T07:41:28.999Z</time></trkpt><trkpt lat="43.65712166143369" lon="12.441460131813757"><ele>411.0</ele><time>2026-04-18T07:41:29.999Z</time></trkpt><trkpt lat="43.657144095409514" lon="12.441617217120216"><ele>409.6</ele><time>2026-04-18T07:41:30.999Z</time></trkpt><trkpt lat="43.657161103360735" lon="12.441754576658766"><ele>408.20000000000005</ele><time>2026-04-18T07:41:31.999Z</time></trkpt><trkpt lat="43.65720314107403" lon="12.441872343186867"><ele>406.79999999999995</ele><time>2026-04-18T07:41:32.999Z</time></trkpt><trkpt lat="43.657270389752426" lon="12.441970456960474"><ele>405.4</ele><time>2026-04-18T07:41:33.999Z</time></trkpt><trkpt lat="43.6573534438494" lon="12.442037530668438"><ele>404.0</ele><time>2026-04-18T07:41:34.999Z</time></trkpt><trkpt lat="43.65743974512735" lon="12.442074905939782"><ele>403.99999999999994</ele><time>2026-04-18T07:41:35.999Z</time></trkpt><trkpt lat="43.65753676569564" lon="12.442071602286022"><ele>404.0</ele><time>2026-04-18T07:41:36.999Z</time></trkpt><trkpt lat="43.657626627384445" lon="12.442055890559999"><ele>404.0</ele><time>2026-04-18T07:41:37.999Z</time></trkpt><trkpt lat="43.657699688023406" lon="12.442077506823946"><ele>404.0</ele><time>2026-04-18T07:41:38.999Z</time></trkpt><trkpt lat="43.65773886998128" lon="12.442228834241197"><ele>403.99999999999994</ele><time>2026-04-18T07:41:40.999Z</time></trkpt><trkpt lat="43.65770238754661" lon="12.4423052417184"><ele>404.0</ele><time>2026-04-18T07:41:41.999Z</time></trkpt><trkpt lat="43.657632404661804" lon="12.44235059377655"><ele>401.2</ele><time>2026-04-18T07:41:42.999Z</time></trkpt><trkpt lat="43.6575347256431" lon="12.44232948541949"><ele>398.4</ele><time>2026-04-18T07:41:43.999Z</time></trkpt><trkpt lat="43.6574254875839" lon="12.442291591176737"><ele>395.6</ele><time>2026-04-18T07:41:44.999Z</time></trkpt><trkpt lat="43.65731232256405" lon="12.442261988852492"><ele>392.8</ele><time>2026-04-18T07:41:45.999Z</time></trkpt><trkpt lat="43.65719728417614" lon="12.44223446443653"><ele>390.0</ele><time>2026-04-18T07:41:46.999Z</time></trkpt><trkpt lat="43.657071072401855" lon="12.442195119740472"><ele>389.0</ele><time>2026-04-18T07:41:47.999Z</time></trkpt><trkpt lat="43.656905526078965" lon="12.442138753880192"><ele>388.0</ele><time>2026-04-18T07:41:48.999Z</time></trkpt><trkpt lat="43.65673034749331" lon="12.442080375222783"><ele>387.0</ele><time>2026-04-18T07:41:49.999Z</time></trkpt><trkpt lat="43.6565470686805" lon="12.442019441965236"><ele>387.0</ele><time>2026-04-18T07:41:50.999Z</time></trkpt><trkpt lat="43.65636795878948" lon="12.441979513772159"><ele>387.0</ele><time>2026-04-18T07:41:51.999Z</time></trkpt><trkpt lat="43.6561867390531" lon="12.441915027839556"><ele>387.0</ele><time>2026-04-18T07:41:52.999Z</time></trkpt><trkpt lat="43.65599921251862" lon="12.44188735069269"><ele>385.0</ele><time>2026-04-18T07:41:53.999Z</time></trkpt><trkpt lat="43.655800104581985" lon="12.441913904124515"><ele>383.0</ele><time>2026-04-18T07:41:54.999Z</time></trkpt><trkpt lat="43.65561738085122" lon="12.441981268208977"><ele>381.0</ele><time>2026-04-18T07:41:55.999Z</time></trkpt><trkpt lat="43.65543991899141" lon="12.442077406244332"><ele>378.3333333333333</ele><time>2026-04-18T07:41:56.999Z</time></trkpt><trkpt lat="43.65525000582996" lon="12.442136062348943"><ele>375.66666666666663</ele><time>2026-04-18T07:41:57.999Z</time></trkpt><trkpt lat="43.65507009927066" lon="12.442210110001854"><ele>373.0</ele><time>2026-04-18T07:41:58.999Z</time></trkpt><trkpt lat="43.65489103923358" lon="12.44228454283685"><ele>373.0</ele><time>2026-04-18T07:41:59.999Z</time></trkpt><trkpt lat="43.654719489360915" lon="12.44235728659674"><ele>373.0</ele><time>2026-04-18T07:42:01Z</time></trkpt><trkpt lat="43.6545473307776" lon="12.442430288454261"><ele>373.0</ele><time>2026-04-18T07:42:02Z</time></trkpt><trkpt lat="43.65438966881858" lon="12.442497143206223"><ele>374.0</ele><time>2026-04-18T07:42:03Z</time></trkpt><trkpt lat="43.654226249001056" lon="12.442566439548013"><ele>375.0</ele><time>2026-04-18T07:42:04Z</time></trkpt><trkpt lat="43.65407877719183" lon="12.442628973272296"><ele>376.0</ele><time>2026-04-18T07:42:05Z</time></trkpt><trkpt lat="43.65394727730635" lon="12.442686720334956"><ele>376.0</ele><time>2026-04-18T07:42:06Z</time></trkpt><trkpt lat="43.6538191185501" lon="12.442743365341142"><ele>376.0</ele><time>2026-04-18T07:42:07Z</time></trkpt><trkpt lat="43.65371105950641" lon="12.44279664195721"><ele>376.0</ele><time>2026-04-18T07:42:08Z</time></trkpt><trkpt lat="43.65361562345099" lon="12.442870365118694"><ele>376.0</ele><time>2026-04-18T07:42:09Z</time></trkpt><trkpt lat="43.65355404072365" lon="12.442947358670551"><ele>376.0</ele><time>2026-04-18T07:42:10Z</time></trkpt><trkpt lat="43.65354112362092" lon="12.443042353671965"><ele>375.6</ele><time>2026-04-18T07:42:11Z</time></trkpt><trkpt lat="43.65354300308182" lon="12.443192903704684"><ele>375.20000000000005</ele><time>2026-04-18T07:42:13Z</time></trkpt><trkpt lat="43.6535625842575" lon="12.44328664436182"><ele>374.79999999999995</ele><time>2026-04-18T07:42:14Z</time></trkpt><trkpt lat="43.653595315033854" lon="12.443401483038889"><ele>374.4</ele><time>2026-04-18T07:42:15Z</time></trkpt><trkpt lat="43.65362104209595" lon="12.443533420367313"><ele>374.0</ele><time>2026-04-18T07:42:16Z</time></trkpt><trkpt lat="43.65359786790107" lon="12.443663393032242"><ele>374.0</ele><time>2026-04-18T07:42:17Z</time></trkpt><trkpt lat="43.65358822686826" lon="12.443789482366395"><ele>374.0</ele><time>2026-04-18T07:42:18Z</time></trkpt><trkpt lat="43.65352781129112" lon="12.443877783191969"><ele>374.0</ele><time>2026-04-18T07:42:19Z</time></trkpt><trkpt lat="43.65344096530677" lon="12.443963365192626"><ele>374.0</ele><time>2026-04-18T07:42:20Z</time></trkpt><trkpt lat="43.65333307928628" lon="12.444053516569626"><ele>374.0</ele><time>2026-04-18T07:42:21Z</time></trkpt><trkpt lat="43.653215764353824" lon="12.444144437472385"><ele>375.0</ele><time>2026-04-18T07:42:22Z</time></trkpt><trkpt lat="43.65306358858661" lon="12.444219038481158"><ele>376.0</ele><time>2026-04-18T07:42:23Z</time></trkpt><trkpt lat="43.65292288262289" lon="12.444339654852467"><ele>377.0</ele><time>2026-04-18T07:42:24Z</time></trkpt><trkpt lat="43.65276583185054" lon="12.444473561908746"><ele>377.0</ele><time>2026-04-18T07:42:25Z</time></trkpt><trkpt lat="43.65261827665401" lon="12.444598520051986"><ele>377.0</ele><time>2026-04-18T07:42:26Z</time></trkpt><trkpt lat="43.65247161384739" lon="12.444722767506706"><ele>377.0</ele><time>2026-04-18T07:42:27Z</time></trkpt><trkpt lat="43.652344432409734" lon="12.44482801604977"><ele>378.5</ele><time>2026-04-18T07:42:28Z</time></trkpt><trkpt lat="43.65223522048587" lon="12.444869599380997"><ele>380.0</ele><time>2026-04-18T07:42:29Z</time></trkpt><trkpt lat="43.652111760109065" lon="12.44489547981912"><ele>381.5</ele><time>2026-04-18T07:42:30Z</time></trkpt><trkpt lat="43.65197437663004" lon="12.444923645696901"><ele>383.0</ele><time>2026-04-18T07:42:31Z</time></trkpt><trkpt lat="43.65182310869341" lon="12.44495498480409"><ele>383.0</ele><time>2026-04-18T07:42:32Z</time></trkpt><trkpt lat="43.65166080267332" lon="12.44498821592993"><ele>383.0</ele><time>2026-04-18T07:42:33Z</time></trkpt><trkpt lat="43.65149302179678" lon="12.445022568014254"><ele>383.0</ele><time>2026-04-18T07:42:34Z</time></trkpt><trkpt lat="43.65133306303763" lon="12.445054673991251"><ele>383.0</ele><time>2026-04-18T07:42:35Z</time></trkpt><trkpt lat="43.65116826009044" lon="12.445109171488895"><ele>383.0</ele><time>2026-04-18T07:42:36Z</time></trkpt><trkpt lat="43.65100655617461" lon="12.445116832390807"><ele>383.0</ele><time>2026-04-18T07:42:37Z</time></trkpt><trkpt lat="43.650862440161404" lon="12.445088589789178"><ele>384.5</ele><time>2026-04-18T07:42:38Z</time></trkpt><trkpt lat="43.65075258527706" lon="12.444999967179687"><ele>386.0</ele><time>2026-04-18T07:42:39Z</time></trkpt><trkpt lat="43.65063459941117" lon="12.444917326269877"><ele>387.5</ele><time>2026-04-18T07:42:40Z</time></trkpt><trkpt lat="43.65051814493479" lon="12.444850375738197"><ele>389.0</ele><time>2026-04-18T07:42:41Z</time></trkpt><trkpt lat="43.650404463276026" lon="12.444768761842159"><ele>390.4</ele><time>2026-04-18T07:42:42Z</time></trkpt><trkpt lat="43.65028549551469" lon="12.444724157778763"><ele>391.79999999999995</ele><time>2026-04-18T07:42:43Z</time></trkpt><trkpt lat="43.65018533114152" lon="12.444739480037308"><ele>393.20000000000005</ele><time>2026-04-18T07:42:44Z</time></trkpt><trkpt lat="43.650084943445414" lon="12.44478275346459"><ele>394.6</ele><time>2026-04-18T07:42:45Z</time></trkpt><trkpt lat="43.64999072188167" lon="12.444855058118016"><ele>396.0</ele><time>2026-04-18T07:42:46Z</time></trkpt><trkpt lat="43.649889923532086" lon="12.444950479012226"><ele>396.0</ele><time>2026-04-18T07:42:47Z</time></trkpt><trkpt lat="43.64977575492936" lon="12.445018064400257"><ele>396.0</ele><time>2026-04-18T07:42:48Z</time></trkpt><trkpt lat="43.64966031869841" lon="12.445094889414563"><ele>396.0</ele><time>2026-04-18T07:42:49Z</time></trkpt><trkpt lat="43.64953130266099" lon="12.44516337435867"><ele>396.0</ele><time>2026-04-18T07:42:50Z</time></trkpt><trkpt lat="43.649408493427394" lon="12.445219474787462"><ele>395.25</ele><time>2026-04-18T07:42:51Z</time></trkpt><trkpt lat="43.64927381582785" lon="12.445229982094496"><ele>394.5</ele><time>2026-04-18T07:42:52Z</time></trkpt><trkpt lat="43.64915474871348" lon="12.445235600249218"><ele>393.75</ele><time>2026-04-18T07:42:53Z</time></trkpt><trkpt lat="43.649027616296884" lon="12.445242469100933"><ele>393.0</ele><time>2026-04-18T07:42:54Z</time></trkpt><trkpt lat="43.64891237016744" lon="12.445320308541154"><ele>393.0</ele><time>2026-04-18T07:42:55Z</time></trkpt><trkpt lat="43.64879020522342" lon="12.445411353228295"><ele>393.0</ele><time>2026-04-18T07:42:56Z</time></trkpt><trkpt lat="43.64866907684635" lon="12.445523142979733"><ele>393.0</ele><time>2026-04-18T07:42:57Z</time></trkpt><trkpt lat="43.6485514804985" lon="12.44563879111205"><ele>393.0</ele><time>2026-04-18T07:42:58Z</time></trkpt><trkpt lat="43.64844235725552" lon="12.445760649244427"><ele>397.0</ele><time>2026-04-18T07:42:59Z</time></trkpt><trkpt lat="43.64834965519419" lon="12.445890726930182"><ele>401.0</ele><time>2026-04-18T07:43:00Z</time></trkpt><trkpt lat="43.64827658209358" lon="12.446045252506002"><ele>405.0</ele><time>2026-04-18T07:43:01Z</time></trkpt><trkpt lat="43.64820064788527" lon="12.446208104699256"><ele>409.0</ele><time>2026-04-18T07:43:02Z</time></trkpt><trkpt lat="43.648120151925944" lon="12.446373687763641"><ele>412.5</ele><time>2026-04-18T07:43:03Z</time></trkpt><trkpt lat="43.648040149338506" lon="12.446536968911248"><ele>416.0</ele><time>2026-04-18T07:43:04Z</time></trkpt><trkpt lat="43.64798458720289" lon="12.446696836861681"><ele>419.5</ele><time>2026-04-18T07:43:05Z</time></trkpt><trkpt lat="43.64795582262598" lon="12.446844898240307"><ele>423.0</ele><time>2026-04-18T07:43:06Z</time></trkpt><trkpt lat="43.64796398198292" lon="12.446970297958035"><ele>423.0</ele><time>2026-04-18T07:43:07Z</time></trkpt><trkpt lat="43.6480040294587" lon="12.447105915895554"><ele>423.0</ele><time>2026-04-18T07:43:08Z</time></trkpt><trkpt lat="43.64805833746423" lon="12.4472602318888"><ele>423.0</ele><time>2026-04-18T07:43:09Z</time></trkpt><trkpt lat="43.648109953800564" lon="12.447420159016193"><ele>423.0</ele><time>2026-04-18T07:43:10Z</time></trkpt><trkpt lat="43.648158602418015" lon="12.44759205288371"><ele>424.0</ele><time>2026-04-18T07:43:11Z</time></trkpt><trkpt lat="43.64821007465868" lon="12.44776090674218"><ele>425.0</ele><time>2026-04-18T07:43:12Z</time></trkpt><trkpt lat="43.64826512264575" lon="12.447938211491962"><ele>426.0</ele><time>2026-04-18T07:43:13Z</time></trkpt><trkpt lat="43.64831479614195" lon="12.448108587598307"><ele>427.0</ele><time>2026-04-18T07:43:14Z</time></trkpt><trkpt lat="43.64836004285994" lon="12.44827324247176"><ele>427.0</ele><time>2026-04-18T07:43:15Z</time></trkpt><trkpt lat="43.64839730807425" lon="12.448442593515873"><ele>427.0</ele><time>2026-04-18T07:43:16Z</time></trkpt><trkpt lat="43.64843688244136" lon="12.448606567603436"><ele>427.0</ele><time>2026-04-18T07:43:17Z</time></trkpt><trkpt lat="43.64846403646584" lon="12.448767003647145"><ele>427.0</ele><time>2026-04-18T07:43:18Z</time></trkpt><trkpt lat="43.64847562449766" lon="12.448931163649808"><ele>427.8</ele><time>2026-04-18T07:43:19Z</time></trkpt><trkpt lat="43.648469948982424" lon="12.449101270769107"><ele>428.6</ele><time>2026-04-18T07:43:20Z</time></trkpt><trkpt lat="43.64844325878062" lon="12.449251190731712"><ele>429.40000000000003</ele><time>2026-04-18T07:43:21Z</time></trkpt><trkpt lat="43.64839815228371" lon="12.449382847300868"><ele>430.20000000000005</ele><time>2026-04-18T07:43:22Z</time></trkpt><trkpt lat="43.6483354553686" lon="12.449470701819351"><ele>431.0</ele><time>2026-04-18T07:43:23Z</time></trkpt><trkpt lat="43.6482429553789" lon="12.449551387261588"><ele>431.0</ele><time>2026-04-18T07:43:24Z</time></trkpt><trkpt lat="43.64811902606124" lon="12.449537991560678"><ele>431.0</ele><time>2026-04-18T07:43:25Z</time></trkpt><trkpt lat="43.647991186664655" lon="12.449597952279097"><ele>431.0</ele><time>2026-04-18T07:43:26Z</time></trkpt><trkpt lat="43.64787091823233" lon="12.449638615501122"><ele>431.0</ele><time>2026-04-18T07:43:27Z</time></trkpt><trkpt lat="43.64779565894891" lon="12.449716286375127"><ele>431.5</ele><time>2026-04-18T07:43:28Z</time></trkpt><trkpt lat="43.64771753306471" lon="12.449820139234609"><ele>432.0</ele><time>2026-04-18T07:43:29Z</time></trkpt><trkpt lat="43.647629142920216" lon="12.449948607557548"><ele>432.5</ele><time>2026-04-18T07:43:30Z</time></trkpt><trkpt lat="43.64755298966546" lon="12.450074198558058"><ele>433.0</ele><time>2026-04-18T07:43:31Z</time></trkpt><trkpt lat="43.6474920215812" lon="12.450192259382037"><ele>433.00000000000006</ele><time>2026-04-18T07:43:31.999Z</time></trkpt><trkpt lat="43.647464614832224" lon="12.450299056391268"><ele>433.0</ele><time>2026-04-18T07:43:32.999Z</time></trkpt><trkpt lat="43.647473390490774" lon="12.450398231962806"><ele>433.0</ele><time>2026-04-18T07:43:33.999Z</time></trkpt><trkpt lat="43.647508610841584" lon="12.450492632416994"><ele>433.0</ele><time>2026-04-18T07:43:34.999Z</time></trkpt><trkpt lat="43.64756762286593" lon="12.450552980300168"><ele>433.00000000000006</ele><time>2026-04-18T07:43:35.999Z</time></trkpt><trkpt lat="43.64765115889539" lon="12.450559323244676"><ele>433.0</ele><time>2026-04-18T07:43:36.999Z</time></trkpt><trkpt lat="43.64774624622255" lon="12.450524582121062"><ele>435.25</ele><time>2026-04-18T07:43:37.999Z</time></trkpt><trkpt lat="43.64786059620917" lon="12.450469902470076"><ele>437.5</ele><time>2026-04-18T07:43:38.999Z</time></trkpt><trkpt lat="43.64798318188844" lon="12.450418146662958"><ele>439.75</ele><time>2026-04-18T07:43:39.999Z</time></trkpt><trkpt lat="43.64811797269175" lon="12.450369370148337"><ele>442.0</ele><time>2026-04-18T07:43:40.999Z</time></trkpt><trkpt lat="43.64827359077073" lon="12.450320863728383"><ele>442.0</ele><time>2026-04-18T07:43:41.999Z</time></trkpt><trkpt lat="43.6484088937011" lon="12.450287096466996"><ele>442.00000000000006</ele><time>2026-04-18T07:43:42.999Z</time></trkpt><trkpt lat="43.64851391496136" lon="12.45028263947321"><ele>442.00000000000006</ele><time>2026-04-18T07:43:43.999Z</time></trkpt><trkpt lat="43.64860584631014" lon="12.450262586167135"><ele>442.0</ele><time>2026-04-18T07:43:44.999Z</time></trkpt><trkpt lat="43.648672947996346" lon="12.450316562650611"><ele>442.0</ele><time>2026-04-18T07:43:45.999Z</time></trkpt><trkpt lat="43.648732491038864" lon="12.450408908020467"><ele>445.20000000000005</ele><time>2026-04-18T07:43:46.999Z</time></trkpt><trkpt lat="43.648743339337344" lon="12.450528828094498"><ele>448.40000000000003</ele><time>2026-04-18T07:43:47.999Z</time></trkpt><trkpt lat="43.64871999401695" lon="12.450650582500746"><ele>451.59999999999997</ele><time>2026-04-18T07:43:48.999Z</time></trkpt><trkpt lat="43.64864889779157" lon="12.450735574111219"><ele>454.79999999999995</ele><time>2026-04-18T07:43:49.999Z</time></trkpt><trkpt lat="43.64854468261516" lon="12.450756536806088"><ele>458.0</ele><time>2026-04-18T07:43:50.999Z</time></trkpt><trkpt lat="43.64843001037001" lon="12.450801369600518"><ele>458.0</ele><time>2026-04-18T07:43:51.999Z</time></trkpt><trkpt lat="43.64830789442789" lon="12.45081154655102"><ele>458.0</ele><time>2026-04-18T07:43:52.999Z</time></trkpt><trkpt lat="43.648180445930414" lon="12.45083393259864"><ele>458.0</ele><time>2026-04-18T07:43:53.999Z</time></trkpt><trkpt lat="43.64805950304795" lon="12.450866811706062"><ele>458.0</ele><time>2026-04-18T07:43:54.999Z</time></trkpt><trkpt lat="43.64795347141925" lon="12.450918965808485"><ele>458.0</ele><time>2026-04-18T07:43:55.999Z</time></trkpt><trkpt lat="43.64787243907757" lon="12.450994157836973"><ele>457.99999999999994</ele><time>2026-04-18T07:43:56.999Z</time></trkpt><trkpt lat="43.64781870690156" lon="12.45110317526555"><ele>457.99999999999994</ele><time>2026-04-18T07:43:57.999Z</time></trkpt><trkpt lat="43.64782245381919" lon="12.451227708303321"><ele>458.0</ele><time>2026-04-18T07:43:58.999Z</time></trkpt><trkpt lat="43.64786059616821" lon="12.45135996130229"><ele>458.0</ele><time>2026-04-18T07:43:59.999Z</time></trkpt><trkpt lat="43.647901397012234" lon="12.451518373971489"><ele>462.0</ele><time>2026-04-18T07:44:00.999Z</time></trkpt><trkpt lat="43.64795732769615" lon="12.451689589066826"><ele>466.0</ele><time>2026-04-18T07:44:01.999Z</time></trkpt><trkpt lat="43.647980845902445" lon="12.451858353334574"><ele>470.0</ele><time>2026-04-18T07:44:02.999Z</time></trkpt><trkpt lat="43.647953534752496" lon="12.451998690884883"><ele>474.0</ele><time>2026-04-18T07:44:03.999Z</time></trkpt><trkpt lat="43.64788814482748" lon="12.452144948442523"><ele>473.0</ele><time>2026-04-18T07:44:04.999Z</time></trkpt><trkpt lat="43.64780653582985" lon="12.452327940183963"><ele>472.0</ele><time>2026-04-18T07:44:05.999Z</time></trkpt><trkpt lat="43.6477430168222" lon="12.452525950212143"><ele>471.0</ele><time>2026-04-18T07:44:07Z</time></trkpt><trkpt lat="43.64767783008592" lon="12.4526772303516"><ele>470.0</ele><time>2026-04-18T07:44:08Z</time></trkpt><trkpt lat="43.64760504137722" lon="12.45276955920478"><ele>470.0</ele><time>2026-04-18T07:44:09Z</time></trkpt><trkpt lat="43.64751404721904" lon="12.452833749321279"><ele>470.0</ele><time>2026-04-18T07:44:10Z</time></trkpt><trkpt lat="43.647381621464895" lon="12.452796813832972"><ele>470.0</ele><time>2026-04-18T07:44:11Z</time></trkpt><trkpt lat="43.64725050015977" lon="12.452811543574164"><ele>470.0</ele><time>2026-04-18T07:44:12Z</time></trkpt><trkpt lat="43.647131497296925" lon="12.452831322348747"><ele>470.0</ele><time>2026-04-18T07:44:13Z</time></trkpt><trkpt lat="43.647025050918806" lon="12.45287446119736"><ele>470.0</ele><time>2026-04-18T07:44:14Z</time></trkpt><trkpt lat="43.64694016822002" lon="12.452942363932618"><ele>470.0</ele><time>2026-04-18T07:44:15Z</time></trkpt><trkpt lat="43.64686444857529" lon="12.453009997879024"><ele>470.0</ele><time>2026-04-18T07:44:16Z</time></trkpt><trkpt lat="43.646843438300216" lon="12.453139334945877"><ele>470.0</ele><time>2026-04-18T07:44:17Z</time></trkpt><trkpt lat="43.64684754828728" lon="12.453253352987296"><ele>470.8</ele><time>2026-04-18T07:44:18Z</time></trkpt><trkpt lat="43.646875493893575" lon="12.453368613592184"><ele>471.6</ele><time>2026-04-18T07:44:19Z</time></trkpt><trkpt lat="43.64690695118484" lon="12.453505778494982"><ele>472.4</ele><time>2026-04-18T07:44:20Z</time></trkpt><trkpt lat="43.646961534604245" lon="12.453651252464196"><ele>473.2</ele><time>2026-04-18T07:44:21Z</time></trkpt><trkpt lat="43.64699344174063" lon="12.453788346432487"><ele>474.0</ele><time>2026-04-18T07:44:22Z</time></trkpt><trkpt lat="43.64700343304082" lon="12.453930101906831"><ele>475.25</ele><time>2026-04-18T07:44:23Z</time></trkpt><trkpt lat="43.64700055041002" lon="12.454093972895668"><ele>476.5</ele><time>2026-04-18T07:44:24Z</time></trkpt><trkpt lat="43.64694664575709" lon="12.454222248563887"><ele>477.75</ele><time>2026-04-18T07:44:25Z</time></trkpt><trkpt lat="43.64689400207349" lon="12.454401880698914"><ele>479.0</ele><time>2026-04-18T07:44:26Z</time></trkpt><trkpt lat="43.646839144998694" lon="12.454610715350206"><ele>481.4</ele><time>2026-04-18T07:44:27Z</time></trkpt><trkpt lat="43.6467691513816" lon="12.45477302466663"><ele>483.79999999999995</ele><time>2026-04-18T07:44:28Z</time></trkpt><trkpt lat="43.6467068393021" lon="12.454901553461573"><ele>486.20000000000005</ele><time>2026-04-18T07:44:29Z</time></trkpt><trkpt lat="43.64665159674255" lon="12.45500469090578"><ele>488.6</ele><time>2026-04-18T07:44:30Z</time></trkpt><trkpt lat="43.64659657272637" lon="12.45507792486046"><ele>491.0</ele><time>2026-04-18T07:44:31Z</time></trkpt><trkpt lat="43.64652751765396" lon="12.455111485029752"><ele>491.0</ele><time>2026-04-18T07:44:32Z</time></trkpt><trkpt lat="43.64642612073475" lon="12.455143253161832"><ele>491.0</ele><time>2026-04-18T07:44:33Z</time></trkpt><trkpt lat="43.64631140895447" lon="12.45512307696874"><ele>491.0</ele><time>2026-04-18T07:44:34Z</time></trkpt><trkpt lat="43.646186259565425" lon="12.455078900745903"><ele>491.0</ele><time>2026-04-18T07:44:35Z</time></trkpt><trkpt lat="43.64607201537194" lon="12.45503470773746"><ele>490.3333333333333</ele><time>2026-04-18T07:44:36Z</time></trkpt><trkpt lat="43.64599913862081" lon="12.455027419780361"><ele>489.66666666666663</ele><time>2026-04-18T07:44:37Z</time></trkpt><trkpt lat="43.645912881038775" lon="12.455086920048311"><ele>489.0</ele><time>2026-04-18T07:44:39Z</time></trkpt><trkpt lat="43.64588975400387" lon="12.455174799190086"><ele>488.33333333333337</ele><time>2026-04-18T07:44:40Z</time></trkpt><trkpt lat="43.645884173746474" lon="12.4552682782832"><ele>487.6666666666667</ele><time>2026-04-18T07:44:41Z</time></trkpt><trkpt lat="43.6459198420645" lon="12.455357641666495"><ele>487.0</ele><time>2026-04-18T07:44:42Z</time></trkpt><trkpt lat="43.64600192635046" lon="12.455410961487452"><ele>487.0</ele><time>2026-04-18T07:44:43Z</time></trkpt><trkpt lat="43.64609650515416" lon="12.455399856961023"><ele>487.00000000000006</ele><time>2026-04-18T07:44:44Z</time></trkpt><trkpt lat="43.64619282252765" lon="12.455430741117352"><ele>487.00000000000006</ele><time>2026-04-18T07:44:45Z</time></trkpt><trkpt lat="43.64629779628761" lon="12.455453885475242"><ele>487.0</ele><time>2026-04-18T07:44:46Z</time></trkpt><trkpt lat="43.64641473123212" lon="12.455481428169035"><ele>487.0</ele><time>2026-04-18T07:44:47Z</time></trkpt><trkpt lat="43.64654019224406" lon="12.455521222017149"><ele>494.6666666666667</ele><time>2026-04-18T07:44:48Z</time></trkpt><trkpt lat="43.6466779249855" lon="12.455576548562094"><ele>502.33333333333337</ele><time>2026-04-18T07:44:49Z</time></trkpt><trkpt lat="43.64683417760053" lon="12.455642630006455"><ele>510.0</ele><time>2026-04-18T07:44:50Z</time></trkpt><trkpt lat="43.64698781707248" lon="12.455702065686951"><ele>510.0</ele><time>2026-04-18T07:44:51Z</time></trkpt><trkpt lat="43.64712833259368" lon="12.455753331670136"><ele>510.0</ele><time>2026-04-18T07:44:52Z</time></trkpt><trkpt lat="43.64727101870372" lon="12.455783286410412"><ele>510.0</ele><time>2026-04-18T07:44:53Z</time></trkpt><trkpt lat="43.64737539619946" lon="12.45584933299789"><ele>510.0</ele><time>2026-04-18T07:44:54Z</time></trkpt><trkpt lat="43.647460318794366" lon="12.455903550461946"><ele>510.0</ele><time>2026-04-18T07:44:55Z</time></trkpt><trkpt lat="43.64752532779557" lon="12.455972927456916"><ele>510.0</ele><time>2026-04-18T07:44:56Z</time></trkpt><trkpt lat="43.64758027263372" lon="12.456063881014563"><ele>510.0</ele><time>2026-04-18T07:44:57Z</time></trkpt><trkpt lat="43.647597653472786" lon="12.456180043505789"><ele>510.0</ele><time>2026-04-18T07:44:58Z</time></trkpt><trkpt lat="43.64762268247653" lon="12.456305186683194"><ele>510.0</ele><time>2026-04-18T07:44:59Z</time></trkpt><trkpt lat="43.64759336475768" lon="12.456446108937309"><ele>511.6666666666667</ele><time>2026-04-18T07:45:00Z</time></trkpt><trkpt lat="43.64754771546783" lon="12.456562245235698"><ele>513.3333333333334</ele><time>2026-04-18T07:45:01Z</time></trkpt><trkpt lat="43.647481507431586" lon="12.456613488600512"><ele>515.0</ele><time>2026-04-18T07:45:02Z</time></trkpt><trkpt lat="43.64742548338544" lon="12.456660559014066"><ele>516.6666666666667</ele><time>2026-04-18T07:45:03Z</time></trkpt><trkpt lat="43.64736016756054" lon="12.45672604552385"><ele>518.3333333333334</ele><time>2026-04-18T07:45:04Z</time></trkpt><trkpt lat="43.64726469008382" lon="12.45675264629736"><ele>520.0</ele><time>2026-04-18T07:45:05Z</time></trkpt><trkpt lat="43.64718508551363" lon="12.456741628004561"><ele>520.0</ele><time>2026-04-18T07:45:06Z</time></trkpt><trkpt lat="43.647115412774305" lon="12.456680265062385"><ele>520.0</ele><time>2026-04-18T07:45:07Z</time></trkpt><trkpt lat="43.6470301053549" lon="12.456587788232612"><ele>520.0</ele><time>2026-04-18T07:45:08Z</time></trkpt><trkpt lat="43.64693826573693" lon="12.456470516313884"><ele>520.0</ele><time>2026-04-18T07:45:09Z</time></trkpt><trkpt lat="43.64684859289139" lon="12.456359850228932"><ele>520.0</ele><time>2026-04-18T07:45:10Z</time></trkpt><trkpt lat="43.646772340718826" lon="12.45628331098822"><ele>520.8333333333334</ele><time>2026-04-18T07:45:11Z</time></trkpt><trkpt lat="43.64670177967338" lon="12.456239218980677"><ele>521.6666666666667</ele><time>2026-04-18T07:45:12Z</time></trkpt><trkpt lat="43.646619812933054" lon="12.456226791666072"><ele>522.5</ele><time>2026-04-18T07:45:13Z</time></trkpt><trkpt lat="43.64653649786242" lon="12.45624781915271"><ele>523.3333333333334</ele><time>2026-04-18T07:45:14Z</time></trkpt><trkpt lat="43.646443206260486" lon="12.456292481501258"><ele>524.1666666666666</ele><time>2026-04-18T07:45:15Z</time></trkpt><trkpt lat="43.64634708139947" lon="12.456337527215663"><ele>525.0</ele><time>2026-04-18T07:45:16Z</time></trkpt><trkpt lat="43.64624456147764" lon="12.456392532939022"><ele>525.0</ele><time>2026-04-18T07:45:17Z</time></trkpt><trkpt lat="43.64616962166397" lon="12.456433915982998"><ele>525.0</ele><time>2026-04-18T07:45:18Z</time></trkpt><trkpt lat="43.64609007973383" lon="12.456484998563418"><ele>525.0</ele><time>2026-04-18T07:45:19Z</time></trkpt><trkpt lat="43.646017895253856" lon="12.456538530166815"><ele>525.0</ele><time>2026-04-18T07:45:20Z</time></trkpt><trkpt lat="43.6459278198738" lon="12.456589953018545"><ele>525.0</ele><time>2026-04-18T07:45:21Z</time></trkpt><trkpt lat="43.64585718142306" lon="12.456696976563238"><ele>524.6</ele><time>2026-04-18T07:45:22Z</time></trkpt><trkpt lat="43.645797544562335" lon="12.456783405026284"><ele>524.2</ele><time>2026-04-18T07:45:23Z</time></trkpt><trkpt lat="43.645740882039725" lon="12.456891400616872"><ele>523.8</ele><time>2026-04-18T07:45:24Z</time></trkpt><trkpt lat="43.64569072103639" lon="12.457020929301171"><ele>523.4</ele><time>2026-04-18T07:45:25Z</time></trkpt><trkpt lat="43.645648217162304" lon="12.457157631052034"><ele>523.0</ele><time>2026-04-18T07:45:26Z</time></trkpt><trkpt lat="43.6456053118838" lon="12.45728626200307"><ele>524.1999999999999</ele><time>2026-04-18T07:45:27Z</time></trkpt><trkpt lat="43.645555920235736" lon="12.45741565055705"><ele>525.4</ele><time>2026-04-18T07:45:28Z</time></trkpt><trkpt lat="43.64549152103647" lon="12.45752400034512"><ele>526.5999999999999</ele><time>2026-04-18T07:45:29Z</time></trkpt><trkpt lat="43.645417239469" lon="12.45759673003263"><ele>527.8</ele><time>2026-04-18T07:45:30Z</time></trkpt><trkpt lat="43.64531695174828" lon="12.45760954735906"><ele>529.0</ele><time>2026-04-18T07:45:31Z</time></trkpt><trkpt lat="43.64522861650824" lon="12.457630297389308"><ele>529.0</ele><time>2026-04-18T07:45:32Z</time></trkpt><trkpt lat="43.64513341955724" lon="12.457672764857412"><ele>529.0</ele><time>2026-04-18T07:45:33Z</time></trkpt><trkpt lat="43.64503382566134" lon="12.457689354812207"><ele>529.0</ele><time>2026-04-18T07:45:34Z</time></trkpt><trkpt lat="43.644935850454154" lon="12.457714320531892"><ele>529.0</ele><time>2026-04-18T07:45:35Z</time></trkpt><trkpt lat="43.6448436872464" lon="12.457763440416878"><ele>529.0</ele><time>2026-04-18T07:45:36Z</time></trkpt><trkpt lat="43.64476883654225" lon="12.457824731119521"><ele>529.0</ele><time>2026-04-18T07:45:37Z</time></trkpt><trkpt lat="43.6447218591118" lon="12.457900022858382"><ele>529.0</ele><time>2026-04-18T07:45:38Z</time></trkpt><trkpt lat="43.644687316869465" lon="12.457987434649416"><ele>529.0</ele><time>2026-04-18T07:45:39Z</time></trkpt><trkpt lat="43.64466380662961" lon="12.458088186492716"><ele>529.0</ele><time>2026-04-18T07:45:40Z</time></trkpt><trkpt lat="43.644659002063285" lon="12.458203918047232"><ele>529.0</ele><time>2026-04-18T07:45:41Z</time></trkpt><trkpt lat="43.644667630474686" lon="12.4583277553507"><ele>529.0</ele><time>2026-04-18T07:45:42Z</time></trkpt><trkpt lat="43.644680865004375" lon="12.458489184865568"><ele>531.0</ele><time>2026-04-18T07:45:43Z</time></trkpt><trkpt lat="43.6446918860932" lon="12.458619678554092"><ele>533.0</ele><time>2026-04-18T07:45:44Z</time></trkpt><trkpt lat="43.644685478275264" lon="12.458762472744224"><ele>535.0</ele><time>2026-04-18T07:45:45Z</time></trkpt><trkpt lat="43.6446876381857" lon="12.458892529124801"><ele>537.0</ele><time>2026-04-18T07:45:46Z</time></trkpt><trkpt lat="43.64468162444031" lon="12.459042223538821"><ele>539.0</ele><time>2026-04-18T07:45:47Z</time></trkpt><trkpt lat="43.644655084855025" lon="12.459187612784108"><ele>541.0</ele><time>2026-04-18T07:45:48Z</time></trkpt><trkpt lat="43.64462238764424" lon="12.459322429167917"><ele>543.0</ele><time>2026-04-18T07:45:49Z</time></trkpt><trkpt lat="43.644583264586686" lon="12.459469837511156"><ele>545.0</ele><time>2026-04-18T07:45:50Z</time></trkpt><trkpt lat="43.644508461215814" lon="12.459547542280955"><ele>547.0</ele><time>2026-04-18T07:45:51Z</time></trkpt><trkpt lat="43.64443718647747" lon="12.459679107132013"><ele>549.0</ele><time>2026-04-18T07:45:52Z</time></trkpt><trkpt lat="43.644342441105024" lon="12.459739668891215"><ele>549.0</ele><time>2026-04-18T07:45:53Z</time></trkpt><trkpt lat="43.64424639808818" lon="12.459836293974165"><ele>549.0</ele><time>2026-04-18T07:45:54Z</time></trkpt><trkpt lat="43.644157667116154" lon="12.459955185694641"><ele>549.0</ele><time>2026-04-18T07:45:54.999Z</time></trkpt><trkpt lat="43.64405841216418" lon="12.460055415551967"><ele>549.0</ele><time>2026-04-18T07:45:55.999Z</time></trkpt><trkpt lat="43.64395792026111" lon="12.460151381809366"><ele>549.0</ele><time>2026-04-18T07:45:56.999Z</time></trkpt><trkpt lat="43.64386693509983" lon="12.46025691835005"><ele>549.0</ele><time>2026-04-18T07:45:57.999Z</time></trkpt><trkpt lat="43.643773204710556" lon="12.46034850477569"><ele>549.0</ele><time>2026-04-18T07:45:58.999Z</time></trkpt><trkpt lat="43.64366481267841" lon="12.46042019406626"><ele>549.0</ele><time>2026-04-18T07:45:59.999Z</time></trkpt><trkpt lat="43.64355998538326" lon="12.460502272618168"><ele>549.75</ele><time>2026-04-18T07:46:00.999Z</time></trkpt><trkpt lat="43.643449368877995" lon="12.460587541118487"><ele>550.5</ele><time>2026-04-18T07:46:01.999Z</time></trkpt><trkpt lat="43.64334190779333" lon="12.46067092644998"><ele>551.25</ele><time>2026-04-18T07:46:02.999Z</time></trkpt><trkpt lat="43.64323359551059" lon="12.460781821582739"><ele>552.0</ele><time>2026-04-18T07:46:03.999Z</time></trkpt><trkpt lat="43.643118653659016" lon="12.460870110368306"><ele>552.0</ele><time>2026-04-18T07:46:04.999Z</time></trkpt><trkpt lat="43.6430058456364" lon="12.460954922188716"><ele>552.0</ele><time>2026-04-18T07:46:05.999Z</time></trkpt><trkpt lat="43.64289317144785" lon="12.461020993371196"><ele>552.0</ele><time>2026-04-18T07:46:06.999Z</time></trkpt><trkpt lat="43.64279128735815" lon="12.46106616329662"><ele>552.0</ele><time>2026-04-18T07:46:07.999Z</time></trkpt><trkpt lat="43.64268758319633" lon="12.461085757037743"><ele>550.25</ele><time>2026-04-18T07:46:08.999Z</time></trkpt><trkpt lat="43.64257563151732" lon="12.461093600310768"><ele>548.5</ele><time>2026-04-18T07:46:09.999Z</time></trkpt><trkpt lat="43.64246866831552" lon="12.461069405162414"><ele>546.75</ele><time>2026-04-18T07:46:10.999Z</time></trkpt><trkpt lat="43.64235646311109" lon="12.461016979645665"><ele>545.0</ele><time>2026-04-18T07:46:11.999Z</time></trkpt><trkpt lat="43.64224942690981" lon="12.460962002897524"><ele>545.0</ele><time>2026-04-18T07:46:13Z</time></trkpt><trkpt lat="43.64217137201879" lon="12.460911083520557"><ele>545.0</ele><time>2026-04-18T07:46:14Z</time></trkpt><trkpt lat="43.64210687316198" lon="12.460857176532386"><ele>545.0</ele><time>2026-04-18T07:46:15Z</time></trkpt><trkpt lat="43.64204166881887" lon="12.46072601156349"><ele>545.0</ele><time>2026-04-18T07:46:17Z</time></trkpt><trkpt lat="43.642029912544444" lon="12.460554359467576"><ele>545.0</ele><time>2026-04-18T07:46:19Z</time></trkpt><trkpt lat="43.64202963086697" lon="12.460459008249053"><ele>544.0</ele><time>2026-04-18T07:46:20Z</time></trkpt><trkpt lat="43.64202668053081" lon="12.46036514063697"><ele>543.0</ele><time>2026-04-18T07:46:21Z</time></trkpt><trkpt lat="43.6420152848962" lon="12.46027592309597"><ele>542.0</ele><time>2026-04-18T07:46:22Z</time></trkpt><trkpt lat="43.64199324516479" lon="12.460162616771461"><ele>541.0</ele><time>2026-04-18T07:46:24Z</time></trkpt><trkpt lat="43.64197758438718" lon="12.46006848376931"><ele>540.0</ele><time>2026-04-18T07:46:38Z</time></trkpt><trkpt lat="43.6419351107562" lon="12.460000753326307"><ele>539.0</ele><time>2026-04-18T07:46:39Z</time></trkpt><trkpt lat="43.64189545930635" lon="12.459916543028031"><ele>538.0</ele><time>2026-04-18T07:46:40Z</time></trkpt><trkpt lat="43.64184563612122" lon="12.459829638051717"><ele>538.0</ele><time>2026-04-18T07:46:41Z</time></trkpt><trkpt lat="43.64177954768123" lon="12.459743301856177"><ele>538.0</ele><time>2026-04-18T07:46:42Z</time></trkpt><trkpt lat="43.64169574251933" lon="12.459664792353637"><ele>538.0</ele><time>2026-04-18T07:46:43Z</time></trkpt><trkpt lat="43.64159976603952" lon="12.459589056105806"><ele>538.0</ele><time>2026-04-18T07:46:44Z</time></trkpt><trkpt lat="43.64150298215829" lon="12.459518603449382"><ele>538.0</ele><time>2026-04-18T07:46:45Z</time></trkpt><trkpt lat="43.6414288841323" lon="12.459501732140744"><ele>537.6666666666667</ele><time>2026-04-18T07:46:46Z</time></trkpt><trkpt lat="43.64134938578988" lon="12.459491074461255"><ele>537.3333333333334</ele><time>2026-04-18T07:46:47Z</time></trkpt><trkpt lat="43.6412818108202" lon="12.459501161973531"><ele>537.0</ele><time>2026-04-18T07:46:48Z</time></trkpt><trkpt lat="43.64122044716843" lon="12.459527403201154"><ele>536.6666666666666</ele><time>2026-04-18T07:46:49Z</time></trkpt><trkpt lat="43.64115811261496" lon="12.459580031122929"><ele>536.3333333333333</ele><time>2026-04-18T07:46:50Z</time></trkpt><trkpt lat="43.64108513396886" lon="12.459655331884806"><ele>536.0</ele><time>2026-04-18T07:46:51Z</time></trkpt><trkpt lat="43.641010461381846" lon="12.459740935637937"><ele>536.8</ele><time>2026-04-18T07:46:52Z</time></trkpt><trkpt lat="43.640935943477785" lon="12.459835797525097"><ele>537.6</ele><time>2026-04-18T07:46:53Z</time></trkpt><trkpt lat="43.64085040251048" lon="12.459935470559289"><ele>538.4</ele><time>2026-04-18T07:46:54Z</time></trkpt><trkpt lat="43.64075760185671" lon="12.46003503082528"><ele>539.2</ele><time>2026-04-18T07:46:55Z</time></trkpt><trkpt lat="43.64067542457724" lon="12.460104963337375"><ele>540.0</ele><time>2026-04-18T07:46:56Z</time></trkpt><trkpt lat="43.640578062399825" lon="12.460154716857195"><ele>540.0</ele><time>2026-04-18T07:46:57Z</time></trkpt><trkpt lat="43.640462748822706" lon="12.460188718998134"><ele>540.0</ele><time>2026-04-18T07:46:58Z</time></trkpt><trkpt lat="43.64033495395821" lon="12.460221691808655"><ele>540.0</ele><time>2026-04-18T07:46:59Z</time></trkpt><trkpt lat="43.640207671645875" lon="12.460266624052142"><ele>540.0</ele><time>2026-04-18T07:47:00Z</time></trkpt><trkpt lat="43.64008300582876" lon="12.460324727227025"><ele>542.25</ele><time>2026-04-18T07:47:01Z</time></trkpt><trkpt lat="43.63996231374647" lon="12.460392556279075"><ele>544.5</ele><time>2026-04-18T07:47:02Z</time></trkpt><trkpt lat="43.63985352047407" lon="12.46046441033931"><ele>546.75</ele><time>2026-04-18T07:47:03Z</time></trkpt><trkpt lat="43.63975733045532" lon="12.460533284136902"><ele>549.0</ele><time>2026-04-18T07:47:04Z</time></trkpt><trkpt lat="43.63967224194394" lon="12.460598680091417"><ele>544.6</ele><time>2026-04-18T07:47:05Z</time></trkpt><trkpt lat="43.63960821557725" lon="12.460672548747198"><ele>540.2</ele><time>2026-04-18T07:47:06Z</time></trkpt><trkpt lat="43.63957107460815" lon="12.46076848140912"><ele>535.8000000000001</ele><time>2026-04-18T07:47:07Z</time></trkpt><trkpt lat="43.63954324912533" lon="12.460889051980745"><ele>531.4</ele><time>2026-04-18T07:47:08Z</time></trkpt><trkpt lat="43.63952053993347" lon="12.461024534794502"><ele>527.0</ele><time>2026-04-18T07:47:09Z</time></trkpt><trkpt lat="43.63948146309374" lon="12.461173526542565"><ele>527.75</ele><time>2026-04-18T07:47:10Z</time></trkpt><trkpt lat="43.63941458801534" lon="12.461327587573562"><ele>528.5</ele><time>2026-04-18T07:47:11Z</time></trkpt><trkpt lat="43.639329427357964" lon="12.461461059333871"><ele>529.25</ele><time>2026-04-18T07:47:12Z</time></trkpt><trkpt lat="43.639231476129645" lon="12.461576454512347"><ele>530.0</ele><time>2026-04-18T07:47:13Z</time></trkpt><trkpt lat="43.639129633630304" lon="12.46167422120094"><ele>530.0</ele><time>2026-04-18T07:47:14Z</time></trkpt><trkpt lat="43.639020746047635" lon="12.46177236727263"><ele>530.0</ele><time>2026-04-18T07:47:15Z</time></trkpt><trkpt lat="43.63891307380293" lon="12.461852708137828"><ele>530.0</ele><time>2026-04-18T07:47:16Z</time></trkpt><trkpt lat="43.638798845279126" lon="12.46191566369627"><ele>530.0</ele><time>2026-04-18T07:47:17Z</time></trkpt><trkpt lat="43.63867297363065" lon="12.461965674324608"><ele>528.6</ele><time>2026-04-18T07:47:18Z</time></trkpt><trkpt lat="43.6385551619493" lon="12.462013675372875"><ele>527.2</ele><time>2026-04-18T07:47:19Z</time></trkpt><trkpt lat="43.638454969922165" lon="12.462073031862912"><ele>525.8</ele><time>2026-04-18T07:47:20Z</time></trkpt><trkpt lat="43.638373624967926" lon="12.46215761776676"><ele>524.4</ele><time>2026-04-18T07:47:21Z</time></trkpt><trkpt lat="43.63830298756152" lon="12.46226041739982"><ele>523.0</ele><time>2026-04-18T07:47:22Z</time></trkpt><trkpt lat="43.63823278301877" lon="12.462393379877394"><ele>523.0</ele><time>2026-04-18T07:47:23Z</time></trkpt><trkpt lat="43.63815579195197" lon="12.462538335007821"><ele>523.0</ele><time>2026-04-18T07:47:24Z</time></trkpt><trkpt lat="43.638071462072816" lon="12.462679409848057"><ele>523.0</ele><time>2026-04-18T07:47:25Z</time></trkpt><trkpt lat="43.637977138499814" lon="12.462820198706716"><ele>523.0</ele><time>2026-04-18T07:47:26Z</time></trkpt><trkpt lat="43.63789646050588" lon="12.462955225745096"><ele>523.8</ele><time>2026-04-18T07:47:27Z</time></trkpt><trkpt lat="43.6378216395664" lon="12.463103117375066"><ele>524.5999999999999</ele><time>2026-04-18T07:47:28Z</time></trkpt><trkpt lat="43.6377742954057" lon="12.463246612666905"><ele>525.4000000000001</ele><time>2026-04-18T07:47:29Z</time></trkpt><trkpt lat="43.63772586918377" lon="12.463374205400664"><ele>526.2</ele><time>2026-04-18T07:47:30Z</time></trkpt><trkpt lat="43.63767191316438" lon="12.463477331490928"><ele>527.0</ele><time>2026-04-18T07:47:31Z</time></trkpt><trkpt lat="43.63760488254631" lon="12.463547918897003"><ele>527.0</ele><time>2026-04-18T07:47:32Z</time></trkpt><trkpt lat="43.6375169493067" lon="12.463597935792466"><ele>527.0</ele><time>2026-04-18T07:47:33Z</time></trkpt><trkpt lat="43.63741931325568" lon="12.463580747755588"><ele>527.0</ele><time>2026-04-18T07:47:34Z</time></trkpt><trkpt lat="43.63731737500861" lon="12.463585064996526"><ele>527.0</ele><time>2026-04-18T07:47:35Z</time></trkpt><trkpt lat="43.63719395962828" lon="12.463600837574912"><ele>527.0</ele><time>2026-04-18T07:47:36Z</time></trkpt><trkpt lat="43.63707527512744" lon="12.463603964210316"><ele>527.5</ele><time>2026-04-18T07:47:37Z</time></trkpt><trkpt lat="43.63693826330664" lon="12.463604928179954"><ele>528.0</ele><time>2026-04-18T07:47:38Z</time></trkpt><trkpt lat="43.63679803844229" lon="12.463594631198168"><ele>528.5</ele><time>2026-04-18T07:47:39Z</time></trkpt><trkpt lat="43.636667307476245" lon="12.463586524066788"><ele>529.0</ele><time>2026-04-18T07:47:40Z</time></trkpt><trkpt lat="43.63653755903623" lon="12.463546326032754"><ele>529.0</ele><time>2026-04-18T07:47:41Z</time></trkpt><trkpt lat="43.636412135993794" lon="12.463499933076777"><ele>529.0</ele><time>2026-04-18T07:47:42Z</time></trkpt><trkpt lat="43.63628109897379" lon="12.46343858638738"><ele>529.0</ele><time>2026-04-18T07:47:43Z</time></trkpt><trkpt lat="43.636141159683945" lon="12.46339351905732"><ele>529.0</ele><time>2026-04-18T07:47:44Z</time></trkpt><trkpt lat="43.635998383977636" lon="12.463329792960879"><ele>525.5</ele><time>2026-04-18T07:47:45Z</time></trkpt><trkpt lat="43.63586344071928" lon="12.463266487221812"><ele>522.0</ele><time>2026-04-18T07:47:46Z</time></trkpt><trkpt lat="43.63573690360347" lon="12.46321232369427"><ele>518.5</ele><time>2026-04-18T07:47:47Z</time></trkpt><trkpt lat="43.63561245743195" lon="12.463157190880269"><ele>515.0</ele><time>2026-04-18T07:47:48Z</time></trkpt><trkpt lat="43.63550499750357" lon="12.4630792101212"><ele>515.0</ele><time>2026-04-18T07:47:49Z</time></trkpt><trkpt lat="43.635415500227566" lon="12.463018697931178"><ele>515.0</ele><time>2026-04-18T07:47:50Z</time></trkpt><trkpt lat="43.63533528703212" lon="12.462932580670607"><ele>515.0</ele><time>2026-04-18T07:47:51Z</time></trkpt><trkpt lat="43.6352806107415" lon="12.462816446464132"><ele>515.0</ele><time>2026-04-18T07:47:52Z</time></trkpt><trkpt lat="43.63523003813985" lon="12.462685284659935"><ele>515.0</ele><time>2026-04-18T07:47:53Z</time></trkpt><trkpt lat="43.635168718132796" lon="12.462570848474908"><ele>514.6</ele><time>2026-04-18T07:47:54Z</time></trkpt><trkpt lat="43.63508253498486" lon="12.462498841619144"><ele>514.2</ele><time>2026-04-18T07:47:55Z</time></trkpt><trkpt lat="43.634978849441545" lon="12.462468724509787"><ele>513.8</ele><time>2026-04-18T07:47:56Z</time></trkpt><trkpt lat="43.63487035232369" lon="12.46242311086878"><ele>513.4</ele><time>2026-04-18T07:47:57Z</time></trkpt><trkpt lat="43.634764405226406" lon="12.462344594711215"><ele>513.0</ele><time>2026-04-18T07:47:58Z</time></trkpt><trkpt lat="43.63465223014102" lon="12.462264289147557"><ele>513.0</ele><time>2026-04-18T07:47:59Z</time></trkpt><trkpt lat="43.634534932713294" lon="12.462170262723637"><ele>513.0</ele><time>2026-04-18T07:47:59.999Z</time></trkpt><trkpt lat="43.63442638540442" lon="12.462062964703644"><ele>513.0</ele><time>2026-04-18T07:48:00.999Z</time></trkpt><trkpt lat="43.63433286322679" lon="12.461949691509624"><ele>513.0</ele><time>2026-04-18T07:48:01.999Z</time></trkpt><trkpt lat="43.63426455215823" lon="12.461833484409542"><ele>512.0</ele><time>2026-04-18T07:48:02.999Z</time></trkpt><trkpt lat="43.634213182272354" lon="12.461693235953968"><ele>510.99999999999994</ele><time>2026-04-18T07:48:03.999Z</time></trkpt><trkpt lat="43.634153815001376" lon="12.461576473681948"><ele>509.99999999999994</ele><time>2026-04-18T07:48:04.999Z</time></trkpt><trkpt lat="43.63408050535263" lon="12.461475865441804"><ele>509.0</ele><time>2026-04-18T07:48:05.999Z</time></trkpt><trkpt lat="43.63399651495818" lon="12.4614177372465"><ele>508.0</ele><time>2026-04-18T07:48:06.999Z</time></trkpt><trkpt lat="43.63388641572496" lon="12.46140217499242"><ele>508.0</ele><time>2026-04-18T07:48:07.999Z</time></trkpt><trkpt lat="43.633782581810976" lon="12.461394054385645"><ele>508.0</ele><time>2026-04-18T07:48:08.999Z</time></trkpt><trkpt lat="43.63366343536259" lon="12.461402008282336"><ele>508.0</ele><time>2026-04-18T07:48:09.999Z</time></trkpt><trkpt lat="43.63354441332737" lon="12.461406497021171"><ele>508.0</ele><time>2026-04-18T07:48:10.999Z</time></trkpt><trkpt lat="43.63342428254196" lon="12.461438645060195"><ele>506.79999999999995</ele><time>2026-04-18T07:48:11.999Z</time></trkpt><trkpt lat="43.633303375921685" lon="12.46145390044704"><ele>505.59999999999997</ele><time>2026-04-18T07:48:12.999Z</time></trkpt><trkpt lat="43.63319184615805" lon="12.461468159089613"><ele>504.40000000000003</ele><time>2026-04-18T07:48:13.999Z</time></trkpt><trkpt lat="43.633103664153516" lon="12.461522119193253"><ele>503.20000000000005</ele><time>2026-04-18T07:48:14.999Z</time></trkpt><trkpt lat="43.633051765435205" lon="12.461651908205429"><ele>502.0</ele><time>2026-04-18T07:48:15.999Z</time></trkpt><trkpt lat="43.63301122506842" lon="12.461760743983428"><ele>502.0</ele><time>2026-04-18T07:48:16.999Z</time></trkpt><trkpt lat="43.632993352711374" lon="12.461883763027993"><ele>502.00000000000006</ele><time>2026-04-18T07:48:17.999Z</time></trkpt><trkpt lat="43.63299100870515" lon="12.46200300280674"><ele>502.00000000000006</ele><time>2026-04-18T07:48:19Z</time></trkpt><trkpt lat="43.633008809863576" lon="12.462105384594791"><ele>502.0</ele><time>2026-04-18T07:48:20Z</time></trkpt><trkpt lat="43.633046249801744" lon="12.46222800056099"><ele>502.0</ele><time>2026-04-18T07:48:21Z</time></trkpt><trkpt lat="43.63309497359513" lon="12.46235326209561"><ele>502.75</ele><time>2026-04-18T07:48:22Z</time></trkpt><trkpt lat="43.63315125441632" lon="12.462498702456395"><ele>503.5</ele><time>2026-04-18T07:48:23Z</time></trkpt><trkpt lat="43.6331894070519" lon="12.462656904429496"><ele>504.25</ele><time>2026-04-18T07:48:24Z</time></trkpt><trkpt lat="43.63317633214881" lon="12.462839335580274"><ele>505.0</ele><time>2026-04-18T07:48:25Z</time></trkpt><trkpt lat="43.63319428684937" lon="12.463003199646993"><ele>506.0</ele><time>2026-04-18T07:48:26Z</time></trkpt><trkpt lat="43.63323109923826" lon="12.463122821109769"><ele>507.0</ele><time>2026-04-18T07:48:27Z</time></trkpt><trkpt lat="43.6332764181748" lon="12.463227473487784"><ele>508.0</ele><time>2026-04-18T07:48:28Z</time></trkpt><trkpt lat="43.633336478572055" lon="12.463311699639588"><ele>509.0</ele><time>2026-04-18T07:48:29Z</time></trkpt><trkpt lat="43.633410237090914" lon="12.46338495503918"><ele>510.0</ele><time>2026-04-18T07:48:30Z</time></trkpt><trkpt lat="43.63350510378046" lon="12.463464731952751"><ele>510.0</ele><time>2026-04-18T07:48:31Z</time></trkpt><trkpt lat="43.63361344556676" lon="12.463545145371116"><ele>510.0</ele><time>2026-04-18T07:48:32Z</time></trkpt><trkpt lat="43.633735560347795" lon="12.463637335542137"><ele>510.0</ele><time>2026-04-18T07:48:33Z</time></trkpt><trkpt lat="43.63385418693969" lon="12.463725148349384"><ele>510.0</ele><time>2026-04-18T07:48:34Z</time></trkpt><trkpt lat="43.63397542085786" lon="12.463820959868027"><ele>511.5</ele><time>2026-04-18T07:48:35Z</time></trkpt><trkpt lat="43.63408061514072" lon="12.46395017331389"><ele>513.0</ele><time>2026-04-18T07:48:36Z</time></trkpt><trkpt lat="43.63418884194495" lon="12.464084427799024"><ele>514.5</ele><time>2026-04-18T07:48:37Z</time></trkpt><trkpt lat="43.63430900638538" lon="12.464216626260276"><ele>516.0</ele><time>2026-04-18T07:48:38Z</time></trkpt><trkpt lat="43.63443651740001" lon="12.46432195700884"><ele>516.25</ele><time>2026-04-18T07:48:39Z</time></trkpt><trkpt lat="43.634550509764935" lon="12.464443061233078"><ele>516.5</ele><time>2026-04-18T07:48:40Z</time></trkpt><trkpt lat="43.63465770384499" lon="12.46455767991332"><ele>516.75</ele><time>2026-04-18T07:48:41Z</time></trkpt><trkpt lat="43.634760146305666" lon="12.46467154395543"><ele>517.0</ele><time>2026-04-18T07:48:42Z</time></trkpt><trkpt lat="43.63485902739109" lon="12.464781196987783"><ele>517.0</ele><time>2026-04-18T07:48:43Z</time></trkpt><trkpt lat="43.634956983874126" lon="12.464893261659329"><ele>517.0</ele><time>2026-04-18T07:48:44Z</time></trkpt><trkpt lat="43.63505358617701" lon="12.46501341216902"><ele>517.0</ele><time>2026-04-18T07:48:45Z</time></trkpt><trkpt lat="43.635136390091674" lon="12.465134589184183"><ele>517.0</ele><time>2026-04-18T07:48:46Z</time></trkpt><trkpt lat="43.63520765560273" lon="12.465269352632316"><ele>517.0</ele><time>2026-04-18T07:48:47Z</time></trkpt><trkpt lat="43.63526216686727" lon="12.465395665695581"><ele>517.0</ele><time>2026-04-18T07:48:48Z</time></trkpt><trkpt lat="43.63529549878217" lon="12.46551913701046"><ele>517.0</ele><time>2026-04-18T07:48:49Z</time></trkpt><trkpt lat="43.63529849477092" lon="12.465643044647607"><ele>517.0</ele><time>2026-04-18T07:48:50Z</time></trkpt><trkpt lat="43.635290521956115" lon="12.465742290641968"><ele>517.0</ele><time>2026-04-18T07:48:51Z</time></trkpt><trkpt lat="43.63525576377945" lon="12.465823682910164"><ele>517.0</ele><time>2026-04-18T07:48:52Z</time></trkpt><trkpt lat="43.63519396937398" lon="12.465877925179203"><ele>519.6</ele><time>2026-04-18T07:48:53Z</time></trkpt><trkpt lat="43.63512597571662" lon="12.46594981740187"><ele>522.2</ele><time>2026-04-18T07:48:54Z</time></trkpt><trkpt lat="43.63502951155349" lon="12.466028965473033"><ele>524.8</ele><time>2026-04-18T07:48:55Z</time></trkpt><trkpt lat="43.63492314770568" lon="12.466110960640048"><ele>527.4</ele><time>2026-04-18T07:48:56Z</time></trkpt><trkpt lat="43.63481246296002" lon="12.466194272933093"><ele>530.0</ele><time>2026-04-18T07:48:57Z</time></trkpt><trkpt lat="43.63471495717048" lon="12.466264583562358"><ele>530.0</ele><time>2026-04-18T07:48:58Z</time></trkpt><trkpt lat="43.63459952659702" lon="12.466347819350565"><ele>530.0</ele><time>2026-04-18T07:48:59Z</time></trkpt><trkpt lat="43.63447522964583" lon="12.466432632607116"><ele>530.0</ele><time>2026-04-18T07:49:00Z</time></trkpt><trkpt lat="43.63435192156907" lon="12.466492556282207"><ele>530.0</ele><time>2026-04-18T07:49:01Z</time></trkpt><trkpt lat="43.6342215276045" lon="12.466516209876158"><ele>530.0</ele><time>2026-04-18T07:49:02Z</time></trkpt><trkpt lat="43.63409420085614" lon="12.466553206310039"><ele>530.0</ele><time>2026-04-18T07:49:03Z</time></trkpt><trkpt lat="43.63398015322945" lon="12.466611757795109"><ele>530.0</ele><time>2026-04-18T07:49:04Z</time></trkpt><trkpt lat="43.63388806975643" lon="12.466695486221283"><ele>530.0</ele><time>2026-04-18T07:49:05Z</time></trkpt><trkpt lat="43.63381922227178" lon="12.466835172492452"><ele>530.0</ele><time>2026-04-18T07:49:06Z</time></trkpt><trkpt lat="43.63378459309779" lon="12.466988355888114"><ele>530.0</ele><time>2026-04-18T07:49:07Z</time></trkpt><trkpt lat="43.63372621715684" lon="12.467140748279656"><ele>530.0</ele><time>2026-04-18T07:49:08Z</time></trkpt><trkpt lat="43.63363921242855" lon="12.467303136445686"><ele>530.0</ele><time>2026-04-18T07:49:09Z</time></trkpt><trkpt lat="43.633547460101944" lon="12.46746505437757"><ele>532.0</ele><time>2026-04-18T07:49:10Z</time></trkpt><trkpt lat="43.63345177689964" lon="12.467606409528626"><ele>534.0</ele><time>2026-04-18T07:49:11Z</time></trkpt><trkpt lat="43.633358014948215" lon="12.467722544142184"><ele>536.0</ele><time>2026-04-18T07:49:12Z</time></trkpt><trkpt lat="43.63325162408056" lon="12.467816517479218"><ele>538.0</ele><time>2026-04-18T07:49:13Z</time></trkpt><trkpt lat="43.6331377571164" lon="12.467901146541944"><ele>537.5</ele><time>2026-04-18T07:49:14Z</time></trkpt><trkpt lat="43.633017075481526" lon="12.467981200510861"><ele>537.0</ele><time>2026-04-18T07:49:15Z</time></trkpt><trkpt lat="43.63289359296172" lon="12.4680514673909"><ele>536.5</ele><time>2026-04-18T07:49:16Z</time></trkpt><trkpt lat="43.632764166607735" lon="12.468113648381992"><ele>536.0</ele><time>2026-04-18T07:49:17Z</time></trkpt><trkpt lat="43.632633617251805" lon="12.468182337943668"><ele>536.0</ele><time>2026-04-18T07:49:18Z</time></trkpt><trkpt lat="43.63250903044322" lon="12.468254312215853"><ele>536.0</ele><time>2026-04-18T07:49:19Z</time></trkpt><trkpt lat="43.63238863430604" lon="12.468320389079304"><ele>536.0</ele><time>2026-04-18T07:49:20Z</time></trkpt><trkpt lat="43.632276571682745" lon="12.468370427938627"><ele>536.0</ele><time>2026-04-18T07:49:21Z</time></trkpt><trkpt lat="43.63217621670704" lon="12.468383972426189"><ele>536.0</ele><time>2026-04-18T07:49:22Z</time></trkpt><trkpt lat="43.63208211522174" lon="12.468370623906388"><ele>536.0</ele><time>2026-04-18T07:49:23Z</time></trkpt><trkpt lat="43.63198110543141" lon="12.46835441613077"><ele>536.0</ele><time>2026-04-18T07:49:24Z</time></trkpt><trkpt lat="43.63189536029828" lon="12.468350712774233"><ele>536.0</ele><time>2026-04-18T07:49:25Z</time></trkpt><trkpt lat="43.63182105291901" lon="12.468398571995706"><ele>536.0</ele><time>2026-04-18T07:49:26Z</time></trkpt><trkpt lat="43.631763007347054" lon="12.468434596260444"><ele>536.0</ele><time>2026-04-18T07:49:27Z</time></trkpt><trkpt lat="43.63169695911415" lon="12.468464492605632"><ele>536.0</ele><time>2026-04-18T07:49:28Z</time></trkpt><trkpt lat="43.63164111643719" lon="12.468530449470643"><ele>536.0</ele><time>2026-04-18T07:49:29Z</time></trkpt><trkpt lat="43.631606112564064" lon="12.468642207104535"><ele>536.0</ele><time>2026-04-18T07:49:30Z</time></trkpt><trkpt lat="43.631570071427454" lon="12.468747836927548"><ele>536.0</ele><time>2026-04-18T07:49:31Z</time></trkpt><trkpt lat="43.631519265572805" lon="12.468847655670915"><ele>536.0</ele><time>2026-04-18T07:49:32Z</time></trkpt><trkpt lat="43.631471067309604" lon="12.46896459659278"><ele>536.0</ele><time>2026-04-18T07:49:33Z</time></trkpt><trkpt lat="43.63142193432237" lon="12.469083804989113"><ele>536.0</ele><time>2026-04-18T07:49:34Z</time></trkpt><trkpt lat="43.63137616925517" lon="12.46919075391049"><ele>536.0</ele><time>2026-04-18T07:49:35Z</time></trkpt><trkpt lat="43.63132862123476" lon="12.469298329555533"><ele>536.0</ele><time>2026-04-18T07:49:36Z</time></trkpt><trkpt lat="43.63127031310706" lon="12.46942727777556"><ele>536.0</ele><time>2026-04-18T07:49:37Z</time></trkpt><trkpt lat="43.631220096135" lon="12.469549585720792"><ele>536.0</ele><time>2026-04-18T07:49:38Z</time></trkpt><trkpt lat="43.63117431622156" lon="12.469694156693707"><ele>536.0</ele><time>2026-04-18T07:49:39Z</time></trkpt><trkpt lat="43.63117745010024" lon="12.469835837341074"><ele>536.0</ele><time>2026-04-18T07:49:40Z</time></trkpt><trkpt lat="43.631167647336" lon="12.469977706127008"><ele>536.0</ele><time>2026-04-18T07:49:41Z</time></trkpt><trkpt lat="43.631168978810734" lon="12.47010873246915"><ele>536.0</ele><time>2026-04-18T07:49:42Z</time></trkpt><trkpt lat="43.631180941845486" lon="12.4702245150388"><ele>536.0</ele><time>2026-04-18T07:49:43Z</time></trkpt><trkpt lat="43.631210302463124" lon="12.470321147604903"><ele>536.0</ele><time>2026-04-18T07:49:44Z</time></trkpt><trkpt lat="43.63125740642237" lon="12.470409682307467"><ele>536.0</ele><time>2026-04-18T07:49:45Z</time></trkpt><trkpt lat="43.6313107753824" lon="12.470501488028246"><ele>536.0</ele><time>2026-04-18T07:49:46Z</time></trkpt><trkpt lat="43.63137310559037" lon="12.470590349037055"><ele>536.0</ele><time>2026-04-18T07:49:47Z</time></trkpt><trkpt lat="43.63144484943757" lon="12.470685152270054"><ele>536.0</ele><time>2026-04-18T07:49:48Z</time></trkpt><trkpt lat="43.63152536781504" lon="12.470776061539178"><ele>536.4</ele><time>2026-04-18T07:49:49Z</time></trkpt><trkpt lat="43.63160288352254" lon="12.47085542890588"><ele>536.8</ele><time>2026-04-18T07:49:50Z</time></trkpt><trkpt lat="43.63167611158269" lon="12.470931414169472"><ele>537.1999999999999</ele><time>2026-04-18T07:49:51Z</time></trkpt><trkpt lat="43.63172589953011" lon="12.471033160920282"><ele>537.6</ele><time>2026-04-18T07:49:52Z</time></trkpt><trkpt lat="43.63179594921329" lon="12.471114151556014"><ele>538.0</ele><time>2026-04-18T07:49:53Z</time></trkpt><trkpt lat="43.631845763761504" lon="12.471215880286556"><ele>537.3333333333334</ele><time>2026-04-18T07:49:54Z</time></trkpt><trkpt lat="43.63189694614381" lon="12.471320901502247"><ele>536.6666666666667</ele><time>2026-04-18T07:49:55Z</time></trkpt><trkpt lat="43.63193581639003" lon="12.471414386118418"><ele>536.0</ele><time>2026-04-18T07:49:56Z</time></trkpt><trkpt lat="43.63197561569125" lon="12.471517987316464"><ele>535.3333333333334</ele><time>2026-04-18T07:49:57Z</time></trkpt><trkpt lat="43.63198911975137" lon="12.471611127570108"><ele>534.6666666666666</ele><time>2026-04-18T07:49:58Z</time></trkpt><trkpt lat="43.632018251471486" lon="12.47171231245543"><ele>534.0</ele><time>2026-04-18T07:50:00Z</time></trkpt><trkpt lat="43.63213789142458" lon="12.47170206248601"><ele>534.0</ele><time>2026-04-18T07:50:02Z</time></trkpt><trkpt lat="43.63216814850829" lon="12.47178555014849"><ele>534.0</ele><time>2026-04-18T07:50:13.999Z</time></trkpt><trkpt lat="43.6320379639289" lon="12.471910123677837"><ele>534.0</ele><time>2026-04-18T07:50:15.999Z</time></trkpt><trkpt lat="43.63199004748579" lon="12.471984572578977"><ele>534.0</ele><time>2026-04-18T07:50:16.999Z</time></trkpt><trkpt lat="43.63193944208845" lon="12.472099075416951"><ele>534.0</ele><time>2026-04-18T07:50:17.999Z</time></trkpt><trkpt lat="43.631881008423285" lon="12.472226213170503"><ele>534.0</ele><time>2026-04-18T07:50:18.999Z</time></trkpt><trkpt lat="43.631809895035154" lon="12.472369034096477"><ele>534.0</ele><time>2026-04-18T07:50:19.999Z</time></trkpt><trkpt lat="43.63177620484792" lon="12.472485640310982"><ele>534.0</ele><time>2026-04-18T07:50:20.999Z</time></trkpt><trkpt lat="43.631708251650835" lon="12.472631905119119"><ele>534.0</ele><time>2026-04-18T07:50:21.999Z</time></trkpt><trkpt lat="43.63162619840961" lon="12.472786066106869"><ele>534.0</ele><time>2026-04-18T07:50:22.999Z</time></trkpt><trkpt lat="43.63152805589451" lon="12.472926535769064"><ele>534.0</ele><time>2026-04-18T07:50:23.999Z</time></trkpt><trkpt lat="43.63143067819408" lon="12.4730608615971"><ele>534.0</ele><time>2026-04-18T07:50:25Z</time></trkpt><trkpt lat="43.63132333944457" lon="12.473186676401397"><ele>534.0</ele><time>2026-04-18T07:50:26Z</time></trkpt><trkpt lat="43.631208961955764" lon="12.473311803973584"><ele>532.3333333333334</ele><time>2026-04-18T07:50:27Z</time></trkpt><trkpt lat="43.631094755744215" lon="12.473434902212489"><ele>530.6666666666667</ele><time>2026-04-18T07:50:28Z</time></trkpt><trkpt lat="43.630979024239814" lon="12.473583053766928"><ele>529.0</ele><time>2026-04-18T07:50:29Z</time></trkpt><trkpt lat="43.63085289275122" lon="12.473709746693373"><ele>531.6666666666667</ele><time>2026-04-18T07:50:30Z</time></trkpt><trkpt lat="43.63072473540067" lon="12.473840980306075"><ele>534.3333333333334</ele><time>2026-04-18T07:50:31Z</time></trkpt><trkpt lat="43.630591038829245" lon="12.473966239672828"><ele>537.0</ele><time>2026-04-18T07:50:32Z</time></trkpt><trkpt lat="43.63046127648628" lon="12.474092123212474"><ele>537.0</ele><time>2026-04-18T07:50:33Z</time></trkpt><trkpt lat="43.63033782064629" lon="12.474240237823505"><ele>537.0</ele><time>2026-04-18T07:50:34Z</time></trkpt><trkpt lat="43.630226333782105" lon="12.474411213114989"><ele>537.0</ele><time>2026-04-18T07:50:35Z</time></trkpt><trkpt lat="43.630131628650744" lon="12.474585369139096"><ele>535.5</ele><time>2026-04-18T07:50:36Z</time></trkpt><trkpt lat="43.6300249072707" lon="12.474719424093903"><ele>534.0</ele><time>2026-04-18T07:50:37Z</time></trkpt><trkpt lat="43.62992596422222" lon="12.474819196455378"><ele>532.5</ele><time>2026-04-18T07:50:38Z</time></trkpt><trkpt lat="43.62981142431752" lon="12.474830272755394"><ele>531.0</ele><time>2026-04-18T07:50:39Z</time></trkpt><trkpt lat="43.62967975320372" lon="12.474806068594445"><ele>531.0</ele><time>2026-04-18T07:50:40Z</time></trkpt><trkpt lat="43.62953099586902" lon="12.474776080725423"><ele>531.0</ele><time>2026-04-18T07:50:41Z</time></trkpt><trkpt lat="43.62937113298949" lon="12.47474124421342"><ele>531.0</ele><time>2026-04-18T07:50:42Z</time></trkpt><trkpt lat="43.62921106447139" lon="12.47470668749879"><ele>528.25</ele><time>2026-04-18T07:50:43Z</time></trkpt><trkpt lat="43.62906277480926" lon="12.474684309165983"><ele>525.5</ele><time>2026-04-18T07:50:44Z</time></trkpt><trkpt lat="43.6289445443848" lon="12.474687901218255"><ele>522.75</ele><time>2026-04-18T07:50:45Z</time></trkpt><trkpt lat="43.62883140385334" lon="12.474742474558884"><ele>520.0</ele><time>2026-04-18T07:50:46Z</time></trkpt><trkpt lat="43.62873557343866" lon="12.474866084902661"><ele>520.0</ele><time>2026-04-18T07:50:47Z</time></trkpt><trkpt lat="43.628654583671604" lon="12.47503210886494"><ele>520.0</ele><time>2026-04-18T07:50:48Z</time></trkpt><trkpt lat="43.62857842494904" lon="12.475208979637683"><ele>520.0</ele><time>2026-04-18T07:50:49Z</time></trkpt><trkpt lat="43.62849128930311" lon="12.475353181734416"><ele>520.0</ele><time>2026-04-18T07:50:50Z</time></trkpt><trkpt lat="43.62838854000129" lon="12.475458119151392"><ele>519.0</ele><time>2026-04-18T07:50:51Z</time></trkpt><trkpt lat="43.62825976169682" lon="12.475538182883264"><ele>518.0</ele><time>2026-04-18T07:50:52Z</time></trkpt><trkpt lat="43.62811045141972" lon="12.475599643714576"><ele>517.0</ele><time>2026-04-18T07:50:53Z</time></trkpt><trkpt lat="43.62795007652804" lon="12.475654691782568"><ele>513.0</ele><time>2026-04-18T07:50:54Z</time></trkpt><trkpt lat="43.6277843693542" lon="12.475715880038958"><ele>509.0</ele><time>2026-04-18T07:50:55Z</time></trkpt><trkpt lat="43.62760650295845" lon="12.475784481543409"><ele>505.0</ele><time>2026-04-18T07:50:56Z</time></trkpt><trkpt lat="43.62742581372179" lon="12.475855334198002"><ele>505.0</ele><time>2026-04-18T07:50:57Z</time></trkpt><trkpt lat="43.62724057298633" lon="12.475926074097485"><ele>505.0</ele><time>2026-04-18T07:50:58Z</time></trkpt><trkpt lat="43.62706023540098" lon="12.475989105393271"><ele>505.0</ele><time>2026-04-18T07:50:59Z</time></trkpt><trkpt lat="43.626896409224145" lon="12.476047659586365"><ele>503.0</ele><time>2026-04-18T07:51:00Z</time></trkpt><trkpt lat="43.62674349938343" lon="12.476104832426778"><ele>501.0</ele><time>2026-04-18T07:51:01Z</time></trkpt><trkpt lat="43.62660406437788" lon="12.4761573269015"><ele>499.0</ele><time>2026-04-18T07:51:02Z</time></trkpt><trkpt lat="43.626480129216525" lon="12.476184050178222"><ele>497.0</ele><time>2026-04-18T07:51:03Z</time></trkpt><trkpt lat="43.62636031677728" lon="12.47616011267474"><ele>497.0</ele><time>2026-04-18T07:51:04Z</time></trkpt><trkpt lat="43.62625266200158" lon="12.476073281118298"><ele>497.0</ele><time>2026-04-18T07:51:05Z</time></trkpt><trkpt lat="43.62616154953799" lon="12.475929948253688"><ele>497.0</ele><time>2026-04-18T07:51:06Z</time></trkpt><trkpt lat="43.626079912574816" lon="12.475756612644558"><ele>497.0</ele><time>2026-04-18T07:51:07Z</time></trkpt><trkpt lat="43.62599802088446" lon="12.475563385070952"><ele>493.75</ele><time>2026-04-18T07:51:08Z</time></trkpt><trkpt lat="43.62593937900148" lon="12.47539187643257"><ele>490.5</ele><time>2026-04-18T07:51:09Z</time></trkpt><trkpt lat="43.62592038238568" lon="12.475231738083133"><ele>487.25</ele><time>2026-04-18T07:51:10Z</time></trkpt><trkpt lat="43.62593961956208" lon="12.475063812136389"><ele>484.0</ele><time>2026-04-18T07:51:11Z</time></trkpt><trkpt lat="43.62595954733981" lon="12.474909274456065"><ele>484.0</ele><time>2026-04-18T07:51:12Z</time></trkpt><trkpt lat="43.62592590714787" lon="12.474791280823686"><ele>484.0</ele><time>2026-04-18T07:51:13Z</time></trkpt><trkpt lat="43.625845373502365" lon="12.474719111760589"><ele>484.0</ele><time>2026-04-18T07:51:14Z</time></trkpt><trkpt lat="43.625739563448406" lon="12.474703465757415"><ele>484.0</ele><time>2026-04-18T07:51:15Z</time></trkpt><trkpt lat="43.62563273491342" lon="12.47475822311987"><ele>484.0</ele><time>2026-04-18T07:51:16Z</time></trkpt><trkpt lat="43.625562749222915" lon="12.474877321278564"><ele>484.0</ele><time>2026-04-18T07:51:17Z</time></trkpt><trkpt lat="43.62553100312251" lon="12.475023318026187"><ele>484.0</ele><time>2026-04-18T07:51:18Z</time></trkpt><trkpt lat="43.625552157340564" lon="12.475191977473353"><ele>484.0</ele><time>2026-04-18T07:51:19Z</time></trkpt><trkpt lat="43.62560349886316" lon="12.475360712914974"><ele>484.0</ele><time>2026-04-18T07:51:20Z</time></trkpt><trkpt lat="43.62566551717496" lon="12.47553988393741"><ele>484.33333333333337</ele><time>2026-04-18T07:51:21Z</time></trkpt><trkpt lat="43.6257128718189" lon="12.475755048832895"><ele>484.66666666666663</ele><time>2026-04-18T07:51:22Z</time></trkpt><trkpt lat="43.62577286926746" lon="12.475964191376569"><ele>485.0</ele><time>2026-04-18T07:51:23Z</time></trkpt><trkpt lat="43.62583703603416" lon="12.47618786740192"><ele>481.66666666666663</ele><time>2026-04-18T07:51:24Z</time></trkpt><trkpt lat="43.62590056412393" lon="12.476409317153765"><ele>478.33333333333337</ele><time>2026-04-18T07:51:25Z</time></trkpt><trkpt lat="43.62595819701126" lon="12.47660938614236"><ele>475.0</ele><time>2026-04-18T07:51:26Z</time></trkpt><trkpt lat="43.626006222155986" lon="12.47678662534646"><ele>475.0</ele><time>2026-04-18T07:51:27Z</time></trkpt><trkpt lat="43.62604193912652" lon="12.476940197134375"><ele>475.0</ele><time>2026-04-18T07:51:28Z</time></trkpt><trkpt lat="43.62606019812562" lon="12.477072302937513"><ele>475.0</ele><time>2026-04-18T07:51:29Z</time></trkpt><trkpt lat="43.62601330105363" lon="12.477180350036702"><ele>475.0</ele><time>2026-04-18T07:51:30Z</time></trkpt><trkpt lat="43.625921473551045" lon="12.47721902403078"><ele>475.0</ele><time>2026-04-18T07:51:31Z</time></trkpt><trkpt lat="43.625829888384295" lon="12.477187768769886"><ele>475.0</ele><time>2026-04-18T07:51:32Z</time></trkpt><trkpt lat="43.625753037999786" lon="12.47709742305992"><ele>475.0</ele><time>2026-04-18T07:51:33Z</time></trkpt><trkpt lat="43.625696048953145" lon="12.47694253913699"><ele>475.0</ele><time>2026-04-18T07:51:34Z</time></trkpt><trkpt lat="43.62565346622861" lon="12.476744054228876"><ele>475.0</ele><time>2026-04-18T07:51:35Z</time></trkpt><trkpt lat="43.62561724107967" lon="12.476520912500877"><ele>475.0</ele><time>2026-04-18T07:51:36Z</time></trkpt><trkpt lat="43.62557404807277" lon="12.476299798650494"><ele>475.0</ele><time>2026-04-18T07:51:37Z</time></trkpt><trkpt lat="43.625522523408534" lon="12.476061058177384"><ele>475.0</ele><time>2026-04-18T07:51:38Z</time></trkpt><trkpt lat="43.6254433014272" lon="12.47582900250245"><ele>478.33333333333337</ele><time>2026-04-18T07:51:39Z</time></trkpt><trkpt lat="43.62533321131914" lon="12.475616357667786"><ele>481.66666666666663</ele><time>2026-04-18T07:51:40Z</time></trkpt><trkpt lat="43.625205265639096" lon="12.475421345194631"><ele>485.0</ele><time>2026-04-18T07:51:41Z</time></trkpt><trkpt lat="43.62508513725617" lon="12.475254647537463"><ele>479.0</ele><time>2026-04-18T07:51:42Z</time></trkpt><trkpt lat="43.62500086555086" lon="12.475085914662078"><ele>473.0</ele><time>2026-04-18T07:51:43Z</time></trkpt><trkpt lat="43.624971429413996" lon="12.47490679575543"><ele>467.0</ele><time>2026-04-18T07:51:44Z</time></trkpt><trkpt lat="43.62496817483443" lon="12.474727864963631"><ele>461.0</ele><time>2026-04-18T07:51:45Z</time></trkpt><trkpt lat="43.624944810672844" lon="12.474593291618866"><ele>461.0</ele><time>2026-04-18T07:51:46Z</time></trkpt><trkpt lat="43.624865569016876" lon="12.474512829172482"><ele>461.0</ele><time>2026-04-18T07:51:47Z</time></trkpt><trkpt lat="43.624761614223" lon="12.4744932892103"><ele>461.0</ele><time>2026-04-18T07:51:48Z</time></trkpt><trkpt lat="43.62466299236125" lon="12.47456731895612"><ele>461.0</ele><time>2026-04-18T07:51:49Z</time></trkpt><trkpt lat="43.62460548399546" lon="12.47469085082847"><ele>461.0</ele><time>2026-04-18T07:51:50Z</time></trkpt><trkpt lat="43.6245929977384" lon="12.474851859806403"><ele>461.0</ele><time>2026-04-18T07:51:51Z</time></trkpt><trkpt lat="43.62463590012546" lon="12.475038527331884"><ele>461.0</ele><time>2026-04-18T07:51:52Z</time></trkpt><trkpt lat="43.62471849277012" lon="12.475231194670517"><ele>461.0</ele><time>2026-04-18T07:51:53Z</time></trkpt><trkpt lat="43.6248183665565" lon="12.475435874631172"><ele>459.5</ele><time>2026-04-18T07:51:54Z</time></trkpt><trkpt lat="43.624885061719816" lon="12.475658345239323"><ele>458.0</ele><time>2026-04-18T07:51:55Z</time></trkpt><trkpt lat="43.62494962046242" lon="12.475843389249828"><ele>456.5</ele><time>2026-04-18T07:51:56Z</time></trkpt><trkpt lat="43.624989793219356" lon="12.476003396929237"><ele>455.0</ele><time>2026-04-18T07:51:57Z</time></trkpt><trkpt lat="43.62499251592635" lon="12.476165961160826"><ele>454.0</ele><time>2026-04-18T07:51:58Z</time></trkpt><trkpt lat="43.62494873066335" lon="12.476318831965491"><ele>453.0</ele><time>2026-04-18T07:51:59Z</time></trkpt><trkpt lat="43.62485129271159" lon="12.476450660082458"><ele>452.0</ele><time>2026-04-18T07:52:00Z</time></trkpt><trkpt lat="43.62471848568986" lon="12.47653236987306"><ele>451.0</ele><time>2026-04-18T07:52:01Z</time></trkpt><trkpt lat="43.62458082021277" lon="12.476631400208541"><ele>449.75</ele><time>2026-04-18T07:52:02Z</time></trkpt><trkpt lat="43.62446147422494" lon="12.476734820463582"><ele>448.5</ele><time>2026-04-18T07:52:03Z</time></trkpt><trkpt lat="43.624345874459515" lon="12.47676499667144"><ele>447.25</ele><time>2026-04-18T07:52:04Z</time></trkpt><trkpt lat="43.624237606982064" lon="12.476850656821638"><ele>446.0</ele><time>2026-04-18T07:52:05Z</time></trkpt><trkpt lat="43.62413702192395" lon="12.47664896902296"><ele>446.0</ele><time>2026-04-18T07:52:06Z</time></trkpt><trkpt lat="43.62403964138606" lon="12.476507589936848"><ele>446.0</ele><time>2026-04-18T07:52:07Z</time></trkpt><trkpt lat="43.62394208416978" lon="12.476349705885083"><ele>446.0</ele><time>2026-04-18T07:52:08Z</time></trkpt><trkpt lat="43.6238252641836" lon="12.476185111125371"><ele>443.66666666666663</ele><time>2026-04-18T07:52:09Z</time></trkpt><trkpt lat="43.623694558051334" lon="12.476013429003354"><ele>441.33333333333337</ele><time>2026-04-18T07:52:10Z</time></trkpt><trkpt lat="43.623563103043" lon="12.475846367092245"><ele>439.0</ele><time>2026-04-18T07:52:10.999Z</time></trkpt><trkpt lat="43.623439867147454" lon="12.475692953946146"><ele>438.6666666666667</ele><time>2026-04-18T07:52:11.999Z</time></trkpt><trkpt lat="43.62331097270374" lon="12.475578463101611"><ele>438.33333333333337</ele><time>2026-04-18T07:52:12.999Z</time></trkpt><trkpt lat="43.62317213819715" lon="12.475495185403165"><ele>438.0</ele><time>2026-04-18T07:52:13.999Z</time></trkpt><trkpt lat="43.62302597791521" lon="12.475442937813762"><ele>434.66666666666663</ele><time>2026-04-18T07:52:14.999Z</time></trkpt><trkpt lat="43.622888599117516" lon="12.475385323106048"><ele>431.3333333333333</ele><time>2026-04-18T07:52:15.999Z</time></trkpt><trkpt lat="43.62276433651852" lon="12.475274358965928"><ele>428.0</ele><time>2026-04-18T07:52:16.999Z</time></trkpt><trkpt lat="43.62265318090853" lon="12.475113429898215"><ele>427.0</ele><time>2026-04-18T07:52:17.999Z</time></trkpt><trkpt lat="43.6225406016609" lon="12.47496211746735"><ele>426.0</ele><time>2026-04-18T07:52:18.999Z</time></trkpt><trkpt lat="43.6224025214073" lon="12.474848552838063"><ele>425.0</ele><time>2026-04-18T07:52:19.999Z</time></trkpt><trkpt lat="43.622230728508306" lon="12.47478717616801"><ele>425.0</ele><time>2026-04-18T07:52:20.999Z</time></trkpt><trkpt lat="43.6220518851252" lon="12.474785205489223"><ele>425.0</ele><time>2026-04-18T07:52:21.999Z</time></trkpt><trkpt lat="43.62187905666756" lon="12.474841096868325"><ele>425.0</ele><time>2026-04-18T07:52:22.999Z</time></trkpt><trkpt lat="43.62172976984667" lon="12.474932780177825"><ele>424.3333333333333</ele><time>2026-04-18T07:52:23.999Z</time></trkpt><trkpt lat="43.62159404900991" lon="12.475077507396694"><ele>423.66666666666663</ele><time>2026-04-18T07:52:24.999Z</time></trkpt><trkpt lat="43.62148627778485" lon="12.475259279599651"><ele>423.0</ele><time>2026-04-18T07:52:25.999Z</time></trkpt><trkpt lat="43.621389205702116" lon="12.475468199140696"><ele>423.0</ele><time>2026-04-18T07:52:26.999Z</time></trkpt><trkpt lat="43.621284173421174" lon="12.47566021089367"><ele>423.0</ele><time>2026-04-18T07:52:27.999Z</time></trkpt><trkpt lat="43.621183866517256" lon="12.47582517102568"><ele>423.0</ele><time>2026-04-18T07:52:28.999Z</time></trkpt><trkpt lat="43.62108069701644" lon="12.475912740108111"><ele>419.5</ele><time>2026-04-18T07:52:29.999Z</time></trkpt><trkpt lat="43.62095661703272" lon="12.475950264489056"><ele>416.0</ele><time>2026-04-18T07:52:31Z</time></trkpt><trkpt lat="43.620817236759926" lon="12.475951272701252"><ele>412.5</ele><time>2026-04-18T07:52:32Z</time></trkpt><trkpt lat="43.62066717588779" lon="12.475894977928132"><ele>409.0</ele><time>2026-04-18T07:52:33Z</time></trkpt><trkpt lat="43.62050732201401" lon="12.475845353734522"><ele>409.0</ele><time>2026-04-18T07:52:34Z</time></trkpt><trkpt lat="43.620337355159236" lon="12.475759467785922"><ele>409.0</ele><time>2026-04-18T07:52:35Z</time></trkpt><trkpt lat="43.62016505023411" lon="12.475675518691723"><ele>409.0</ele><time>2026-04-18T07:52:36Z</time></trkpt><trkpt lat="43.61999573879438" lon="12.47559988337165"><ele>409.33333333333337</ele><time>2026-04-18T07:52:37Z</time></trkpt><trkpt lat="43.61982361776118" lon="12.47552461421437"><ele>409.66666666666663</ele><time>2026-04-18T07:52:38Z</time></trkpt><trkpt lat="43.619646062858145" lon="12.475442656967566"><ele>410.0</ele><time>2026-04-18T07:52:39Z</time></trkpt><trkpt lat="43.61947499307912" lon="12.47536069927866"><ele>406.66666666666663</ele><time>2026-04-18T07:52:40Z</time></trkpt><trkpt lat="43.619300219848135" lon="12.475258601889834"><ele>403.33333333333337</ele><time>2026-04-18T07:52:41Z</time></trkpt><trkpt lat="43.61915837122494" lon="12.47514794084735"><ele>400.0</ele><time>2026-04-18T07:52:42Z</time></trkpt><trkpt lat="43.619011294963094" lon="12.474990536869386"><ele>400.0</ele><time>2026-04-18T07:52:43Z</time></trkpt><trkpt lat="43.618873345267666" lon="12.474833360337914"><ele>400.0</ele><time>2026-04-18T07:52:44Z</time></trkpt><trkpt lat="43.618709008404345" lon="12.474661765723178"><ele>400.0</ele><time>2026-04-18T07:52:45Z</time></trkpt><trkpt lat="43.61856143716383" lon="12.474479721220593"><ele>397.6666666666667</ele><time>2026-04-18T07:52:46Z</time></trkpt><trkpt lat="43.61840829732239" lon="12.47429388122783"><ele>395.33333333333337</ele><time>2026-04-18T07:52:47Z</time></trkpt><trkpt lat="43.61826079419116" lon="12.474114422561012"><ele>393.0</ele><time>2026-04-18T07:52:48Z</time></trkpt><trkpt lat="43.61811859923596" lon="12.473956957072254"><ele>392.66666666666663</ele><time>2026-04-18T07:52:49Z</time></trkpt><trkpt lat="43.617953308397944" lon="12.473749766335274"><ele>392.3333333333333</ele><time>2026-04-18T07:52:50Z</time></trkpt><trkpt lat="43.61778913920357" lon="12.47359215190259"><ele>392.0</ele><time>2026-04-18T07:52:51Z</time></trkpt><trkpt lat="43.61764184375157" lon="12.473462113115016"><ele>390.66666666666663</ele><time>2026-04-18T07:52:52Z</time></trkpt><trkpt lat="43.61748980508819" lon="12.473362956674034"><ele>389.33333333333337</ele><time>2026-04-18T07:52:53Z</time></trkpt><trkpt lat="43.617318099544306" lon="12.473302692132611"><ele>388.0</ele><time>2026-04-18T07:52:54Z</time></trkpt><trkpt lat="43.61713005136201" lon="12.473269871939037"><ele>387.0</ele><time>2026-04-18T07:52:55Z</time></trkpt><trkpt lat="43.61694522294708" lon="12.473263307594419"><ele>386.0</ele><time>2026-04-18T07:52:56Z</time></trkpt><trkpt lat="43.616754069211304" lon="12.473287662578079"><ele>385.0</ele><time>2026-04-18T07:52:57Z</time></trkpt><trkpt lat="43.61656891441141" lon="12.473334368599028"><ele>385.0</ele><time>2026-04-18T07:52:58Z</time></trkpt><trkpt lat="43.61637597357326" lon="12.473368162125766"><ele>385.0</ele><time>2026-04-18T07:52:59Z</time></trkpt><trkpt lat="43.61617751975101" lon="12.473420652934017"><ele>385.0</ele><time>2026-04-18T07:53:00Z</time></trkpt><trkpt lat="43.61598083349492" lon="12.473473073630375"><ele>383.0</ele><time>2026-04-18T07:53:01Z</time></trkpt><trkpt lat="43.61578102969025" lon="12.473526325232328"><ele>381.0</ele><time>2026-04-18T07:53:02Z</time></trkpt><trkpt lat="43.61557556780671" lon="12.4735800143202"><ele>379.0</ele><time>2026-04-18T07:53:03Z</time></trkpt><trkpt lat="43.61537496223734" lon="12.473647306984988"><ele>378.66666666666663</ele><time>2026-04-18T07:53:04Z</time></trkpt><trkpt lat="43.615173759047096" lon="12.473697386943769"><ele>378.3333333333333</ele><time>2026-04-18T07:53:05Z</time></trkpt><trkpt lat="43.614983594701876" lon="12.473741625294972"><ele>378.0</ele><time>2026-04-18T07:53:06Z</time></trkpt><trkpt lat="43.61480441390816" lon="12.473787816414962"><ele>378.0</ele><time>2026-04-18T07:53:07Z</time></trkpt><trkpt lat="43.61463232629474" lon="12.473844946073024"><ele>378.0</ele><time>2026-04-18T07:53:08Z</time></trkpt><trkpt lat="43.61447604570389" lon="12.473934356822857"><ele>378.0</ele><time>2026-04-18T07:53:09Z</time></trkpt><trkpt lat="43.61434637362191" lon="12.47409731869404"><ele>377.6666666666667</ele><time>2026-04-18T07:53:10Z</time></trkpt><trkpt lat="43.61423708342722" lon="12.474317914395819"><ele>377.33333333333337</ele><time>2026-04-18T07:53:11Z</time></trkpt><trkpt lat="43.61414841008884" lon="12.474559952611756"><ele>377.0</ele><time>2026-04-18T07:53:12Z</time></trkpt><trkpt lat="43.614038216731466" lon="12.474799765251946"><ele>377.0</ele><time>2026-04-18T07:53:13Z</time></trkpt><trkpt lat="43.613929096534584" lon="12.475049545324982"><ele>377.0</ele><time>2026-04-18T07:53:14Z</time></trkpt><trkpt lat="43.61381649011568" lon="12.475307305685215"><ele>377.0</ele><time>2026-04-18T07:53:15Z</time></trkpt><trkpt lat="43.613699014471116" lon="12.4755820019496"><ele>376.0</ele><time>2026-04-18T07:53:16Z</time></trkpt><trkpt lat="43.61358471701853" lon="12.475851582889579"><ele>375.0</ele><time>2026-04-18T07:53:17Z</time></trkpt><trkpt lat="43.61347150907412" lon="12.476118594531032"><ele>374.6666666666667</ele><time>2026-04-18T07:53:18Z</time></trkpt><trkpt lat="43.61337101966908" lon="12.476385356921277"><ele>374.33333333333337</ele><time>2026-04-18T07:53:19Z</time></trkpt><trkpt lat="43.613254576640585" lon="12.476631951143833"><ele>374.0</ele><time>2026-04-18T07:53:20Z</time></trkpt><trkpt lat="43.613143670642366" lon="12.476875226217683"><ele>375.6666666666667</ele><time>2026-04-18T07:53:21Z</time></trkpt><trkpt lat="43.613037839464596" lon="12.477122981244854"><ele>377.3333333333333</ele><time>2026-04-18T07:53:22Z</time></trkpt><trkpt lat="43.61293890715006" lon="12.47737789948473"><ele>379.0</ele><time>2026-04-18T07:53:23Z</time></trkpt><trkpt lat="43.612846828637174" lon="12.477638632966489"><ele>378.66666666666663</ele><time>2026-04-18T07:53:24Z</time></trkpt><trkpt lat="43.612764874225576" lon="12.47789560497681"><ele>378.3333333333333</ele><time>2026-04-18T07:53:25Z</time></trkpt><trkpt lat="43.61267983032525" lon="12.478156478442525"><ele>378.0</ele><time>2026-04-18T07:53:26Z</time></trkpt><trkpt lat="43.61259811848554" lon="12.478419190435128"><ele>378.0</ele><time>2026-04-18T07:53:27Z</time></trkpt><trkpt lat="43.61251632697521" lon="12.47868325598242"><ele>378.0</ele><time>2026-04-18T07:53:28Z</time></trkpt><trkpt lat="43.612434324621574" lon="12.478948049918301"><ele>378.0</ele><time>2026-04-18T07:53:29Z</time></trkpt><trkpt lat="43.61234771126517" lon="12.479212338483064"><ele>378.3333333333333</ele><time>2026-04-18T07:53:30Z</time></trkpt><trkpt lat="43.61226038836692" lon="12.479470399340414"><ele>378.66666666666663</ele><time>2026-04-18T07:53:31Z</time></trkpt><trkpt lat="43.61217173136399" lon="12.479730981087943"><ele>379.0</ele><time>2026-04-18T07:53:32Z</time></trkpt><trkpt lat="43.61208101356844" lon="12.479984215685443"><ele>379.3333333333333</ele><time>2026-04-18T07:53:33Z</time></trkpt><trkpt lat="43.61198229122458" lon="12.480229046023343"><ele>379.6666666666667</ele><time>2026-04-18T07:53:34Z</time></trkpt><trkpt lat="43.61187274486689" lon="12.48045883055409"><ele>380.0</ele><time>2026-04-18T07:53:35Z</time></trkpt><trkpt lat="43.61175108275784" lon="12.480686259938722"><ele>380.0</ele><time>2026-04-18T07:53:36Z</time></trkpt><trkpt lat="43.61162712254816" lon="12.480904691472956"><ele>380.0</ele><time>2026-04-18T07:53:37Z</time></trkpt><trkpt lat="43.61149666744281" lon="12.48112028106077"><ele>380.0</ele><time>2026-04-18T07:53:38Z</time></trkpt><trkpt lat="43.61136590658228" lon="12.481328686259843"><ele>378.6666666666667</ele><time>2026-04-18T07:53:39Z</time></trkpt><trkpt lat="43.6112286386133" lon="12.48153675917498"><ele>377.3333333333333</ele><time>2026-04-18T07:53:40Z</time></trkpt><trkpt lat="43.611095207216074" lon="12.48172925345024"><ele>376.0</ele><time>2026-04-18T07:53:41Z</time></trkpt><trkpt lat="43.610977913262296" lon="12.481898373831463"><ele>376.0</ele><time>2026-04-18T07:53:42Z</time></trkpt><trkpt lat="43.61086717198738" lon="12.482062421140741"><ele>376.0</ele><time>2026-04-18T07:53:43Z</time></trkpt><trkpt lat="43.61077078223305" lon="12.482228201632143"><ele>376.0</ele><time>2026-04-18T07:53:44Z</time></trkpt><trkpt lat="43.610699070140356" lon="12.482402176038407"><ele>377.66666666666663</ele><time>2026-04-18T07:53:45Z</time></trkpt><trkpt lat="43.61066040680436" lon="12.48259235620509"><ele>379.3333333333333</ele><time>2026-04-18T07:53:46Z</time></trkpt><trkpt lat="43.610637398212546" lon="12.482808289869293"><ele>381.0</ele><time>2026-04-18T07:53:47Z</time></trkpt><trkpt lat="43.61061923659665" lon="12.483027847315585"><ele>381.0</ele><time>2026-04-18T07:53:48Z</time></trkpt><trkpt lat="43.61059239832418" lon="12.483275156651429"><ele>381.0</ele><time>2026-04-18T07:53:49Z</time></trkpt><trkpt lat="43.61053108034977" lon="12.483504152263249"><ele>381.0</ele><time>2026-04-18T07:53:50Z</time></trkpt><trkpt lat="43.610436770088434" lon="12.483715645763965"><ele>378.6666666666667</ele><time>2026-04-18T07:53:51Z</time></trkpt><trkpt lat="43.610305416125186" lon="12.483899317847795"><ele>376.33333333333337</ele><time>2026-04-18T07:53:52Z</time></trkpt><trkpt lat="43.610153169911975" lon="12.484075094565076"><ele>374.0</ele><time>2026-04-18T07:53:53Z</time></trkpt><trkpt lat="43.60999322314136" lon="12.484241919015068"><ele>374.0</ele><time>2026-04-18T07:53:54Z</time></trkpt><trkpt lat="43.60983257600598" lon="12.484423380813032"><ele>374.0</ele><time>2026-04-18T07:53:55Z</time></trkpt><trkpt lat="43.60966301872951" lon="12.484588054939763"><ele>374.0</ele><time>2026-04-18T07:53:56Z</time></trkpt><trkpt lat="43.60948894591615" lon="12.484752541589156"><ele>375.0</ele><time>2026-04-18T07:53:57Z</time></trkpt><trkpt lat="43.60932303686021" lon="12.484912015110305"><ele>376.0</ele><time>2026-04-18T07:53:58Z</time></trkpt><trkpt lat="43.609164091606594" lon="12.485075605718446"><ele>377.0</ele><time>2026-04-18T07:53:59Z</time></trkpt><trkpt lat="43.60901975267465" lon="12.485235122588767"><ele>377.0</ele><time>2026-04-18T07:54:00Z</time></trkpt><trkpt lat="43.60889345125998" lon="12.485417687790282"><ele>377.0</ele><time>2026-04-18T07:54:01Z</time></trkpt><trkpt lat="43.608789929929564" lon="12.485621717248158"><ele>377.0</ele><time>2026-04-18T07:54:02Z</time></trkpt><trkpt lat="43.608715411502" lon="12.485847471670358"><ele>376.6666666666667</ele><time>2026-04-18T07:54:03Z</time></trkpt><trkpt lat="43.60863987566287" lon="12.486075325869738"><ele>376.3333333333333</ele><time>2026-04-18T07:54:04Z</time></trkpt><trkpt lat="43.60853339235843" lon="12.4862790444012"><ele>376.0</ele><time>2026-04-18T07:54:05Z</time></trkpt><trkpt lat="43.608414172752624" lon="12.48649114471416"><ele>376.0</ele><time>2026-04-18T07:54:06Z</time></trkpt><trkpt lat="43.60828725290902" lon="12.486680943513864"><ele>376.0</ele><time>2026-04-18T07:54:07Z</time></trkpt><trkpt lat="43.608157007584" lon="12.486898864458361"><ele>376.0</ele><time>2026-04-18T07:54:08Z</time></trkpt><trkpt lat="43.6080132373152" lon="12.487105043271322"><ele>373.66666666666663</ele><time>2026-04-18T07:54:09Z</time></trkpt><trkpt lat="43.60786547009276" lon="12.487316994873087"><ele>371.3333333333333</ele><time>2026-04-18T07:54:10Z</time></trkpt><trkpt lat="43.607716713650724" lon="12.487532930975233"><ele>369.0</ele><time>2026-04-18T07:54:11Z</time></trkpt><trkpt lat="43.60757672755908" lon="12.487739037782152"><ele>371.6666666666667</ele><time>2026-04-18T07:54:12Z</time></trkpt><trkpt lat="43.60743560874259" lon="12.487945343941742"><ele>374.33333333333337</ele><time>2026-04-18T07:54:13Z</time></trkpt><trkpt lat="43.60729202312061" lon="12.488151702289203"><ele>377.0</ele><time>2026-04-18T07:54:14Z</time></trkpt><trkpt lat="43.60715526328165" lon="12.488351719489508"><ele>377.0</ele><time>2026-04-18T07:54:15Z</time></trkpt><trkpt lat="43.60701561041346" lon="12.4885599555722"><ele>377.0</ele><time>2026-04-18T07:54:16Z</time></trkpt><trkpt lat="43.60687420090136" lon="12.488765679494852"><ele>377.0</ele><time>2026-04-18T07:54:17Z</time></trkpt><trkpt lat="43.606707042346066" lon="12.488932540636219"><ele>376.0</ele><time>2026-04-18T07:54:18Z</time></trkpt><trkpt lat="43.606536099114244" lon="12.489079357665466"><ele>375.0</ele><time>2026-04-18T07:54:19Z</time></trkpt><trkpt lat="43.606349234096896" lon="12.489202947634801"><ele>374.0</ele><time>2026-04-18T07:54:19.999Z</time></trkpt><trkpt lat="43.60616059897571" lon="12.48930339601013"><ele>374.33333333333337</ele><time>2026-04-18T07:54:20.999Z</time></trkpt><trkpt lat="43.60597605635981" lon="12.489419109319842"><ele>374.6666666666667</ele><time>2026-04-18T07:54:21.999Z</time></trkpt><trkpt lat="43.60578148842225" lon="12.489518622285779"><ele>375.0</ele><time>2026-04-18T07:54:22.999Z</time></trkpt><trkpt lat="43.605582308002354" lon="12.489626144789694"><ele>375.0</ele><time>2026-04-18T07:54:23.999Z</time></trkpt><trkpt lat="43.60538772521792" lon="12.489740587728916"><ele>375.0</ele><time>2026-04-18T07:54:24.999Z</time></trkpt><trkpt lat="43.605202238579636" lon="12.489861971975168"><ele>375.0</ele><time>2026-04-18T07:54:25.999Z</time></trkpt><trkpt lat="43.605023143748504" lon="12.48999182535386"><ele>372.3333333333333</ele><time>2026-04-18T07:54:26.999Z</time></trkpt><trkpt lat="43.60485952528185" lon="12.490147540964994"><ele>369.66666666666663</ele><time>2026-04-18T07:54:27.999Z</time></trkpt><trkpt lat="43.60471555928854" lon="12.490345996263267"><ele>367.0</ele><time>2026-04-18T07:54:28.999Z</time></trkpt><trkpt lat="43.604596507547726" lon="12.49057203896226"><ele>365.0</ele><time>2026-04-18T07:54:29.999Z</time></trkpt><trkpt lat="43.60448901230604" lon="12.49081751722723"><ele>363.0</ele><time>2026-04-18T07:54:30.999Z</time></trkpt><trkpt lat="43.6043641205516" lon="12.491050118099306"><ele>361.0</ele><time>2026-04-18T07:54:31.999Z</time></trkpt><trkpt lat="43.60425084682657" lon="12.491291412882001"><ele>361.0</ele><time>2026-04-18T07:54:32.999Z</time></trkpt><trkpt lat="43.60413756023065" lon="12.491533046486031"><ele>361.0</ele><time>2026-04-18T07:54:33.999Z</time></trkpt><trkpt lat="43.604024334654916" lon="12.491772715274829"><ele>361.0</ele><time>2026-04-18T07:54:34.999Z</time></trkpt><trkpt lat="43.603908295848676" lon="12.4920018214013"><ele>360.66666666666663</ele><time>2026-04-18T07:54:35.999Z</time></trkpt><trkpt lat="43.60377411775618" lon="12.492206775607917"><ele>360.3333333333333</ele><time>2026-04-18T07:54:37Z</time></trkpt><trkpt lat="43.60362641681501" lon="12.492394483848534"><ele>360.0</ele><time>2026-04-18T07:54:38Z</time></trkpt><trkpt lat="43.60347581677059" lon="12.492584510482983"><ele>360.0</ele><time>2026-04-18T07:54:39Z</time></trkpt><trkpt lat="43.60334715937855" lon="12.492797521118572"><ele>360.0</ele><time>2026-04-18T07:54:40Z</time></trkpt><trkpt lat="43.603229147560704" lon="12.493010877945306"><ele>360.0</ele><time>2026-04-18T07:54:41Z</time></trkpt><trkpt lat="43.603119828545914" lon="12.493254195206614"><ele>360.6666666666667</ele><time>2026-04-18T07:54:42Z</time></trkpt><trkpt lat="43.603016513497124" lon="12.493500590458396"><ele>361.33333333333337</ele><time>2026-04-18T07:54:43Z</time></trkpt><trkpt lat="43.602893989882496" lon="12.493733995468107"><ele>362.0</ele><time>2026-04-18T07:54:44Z</time></trkpt><trkpt lat="43.60279309846664" lon="12.493995964510399"><ele>360.6666666666667</ele><time>2026-04-18T07:54:45Z</time></trkpt><trkpt lat="43.60267827020651" lon="12.494245797671361"><ele>359.3333333333333</ele><time>2026-04-18T07:54:46Z</time></trkpt><trkpt lat="43.60256331472552" lon="12.494490689953917"><ele>358.0</ele><time>2026-04-18T07:54:47Z</time></trkpt><trkpt lat="43.602448321496105" lon="12.494736556535447"><ele>358.0</ele><time>2026-04-18T07:54:48Z</time></trkpt><trkpt lat="43.6023197808219" lon="12.494977774805461"><ele>358.0</ele><time>2026-04-18T07:54:49Z</time></trkpt><trkpt lat="43.602217229907176" lon="12.495223617993961"><ele>358.0</ele><time>2026-04-18T07:54:50Z</time></trkpt><trkpt lat="43.602107943579476" lon="12.49545611659814"><ele>356.3333333333333</ele><time>2026-04-18T07:54:51Z</time></trkpt><trkpt lat="43.60199740707114" lon="12.49570064017251"><ele>354.6666666666667</ele><time>2026-04-18T07:54:52Z</time></trkpt><trkpt lat="43.60188159073734" lon="12.495938715155004"><ele>353.0</ele><time>2026-04-18T07:54:53Z</time></trkpt><trkpt lat="43.601736169355135" lon="12.496143466652173"><ele>356.33333333333337</ele><time>2026-04-18T07:54:54Z</time></trkpt><trkpt lat="43.60160099442321" lon="12.49633406121192"><ele>359.6666666666667</ele><time>2026-04-18T07:54:55Z</time></trkpt><trkpt lat="43.601446758243135" lon="12.496505546232589"><ele>363.0</ele><time>2026-04-18T07:54:56Z</time></trkpt><trkpt lat="43.601284725130036" lon="12.496669697097303"><ele>359.6666666666667</ele><time>2026-04-18T07:54:57Z</time></trkpt><trkpt lat="43.60113114651275" lon="12.49684130743302"><ele>356.33333333333337</ele><time>2026-04-18T07:54:58Z</time></trkpt><trkpt lat="43.60097529178888" lon="12.497010165886545"><ele>353.0</ele><time>2026-04-18T07:54:59Z</time></trkpt><trkpt lat="43.600839560625545" lon="12.497205113001334"><ele>353.0</ele><time>2026-04-18T07:55:00Z</time></trkpt><trkpt lat="43.600743553816024" lon="12.497442931326038"><ele>353.0</ele><time>2026-04-18T07:55:01Z</time></trkpt><trkpt lat="43.600670312118275" lon="12.497716475677706"><ele>353.0</ele><time>2026-04-18T07:55:02Z</time></trkpt><trkpt lat="43.60058493870256" lon="12.497968710509548"><ele>354.0</ele><time>2026-04-18T07:55:03Z</time></trkpt><trkpt lat="43.60049525718976" lon="12.498214221367848"><ele>355.0</ele><time>2026-04-18T07:55:04Z</time></trkpt><trkpt lat="43.60038537939596" lon="12.498459928418749"><ele>356.0</ele><time>2026-04-18T07:55:05Z</time></trkpt><trkpt lat="43.60026765386991" lon="12.498684982275082"><ele>355.0</ele><time>2026-04-18T07:55:06Z</time></trkpt><trkpt lat="43.600132531898645" lon="12.498904043977246"><ele>354.0</ele><time>2026-04-18T07:55:07Z</time></trkpt><trkpt lat="43.59999395355754" lon="12.499105811035752"><ele>353.0</ele><time>2026-04-18T07:55:08Z</time></trkpt><trkpt lat="43.59984032504742" lon="12.499298157735566"><ele>353.0</ele><time>2026-04-18T07:55:09Z</time></trkpt><trkpt lat="43.599681400588466" lon="12.499475719457154"><ele>353.0</ele><time>2026-04-18T07:55:10Z</time></trkpt><trkpt lat="43.59951576045307" lon="12.499643176411936"><ele>353.0</ele><time>2026-04-18T07:55:11Z</time></trkpt><trkpt lat="43.59933645829541" lon="12.499784122824922"><ele>352.6666666666667</ele><time>2026-04-18T07:55:12Z</time></trkpt><trkpt lat="43.599148908320004" lon="12.49991173277742"><ele>352.3333333333333</ele><time>2026-04-18T07:55:13Z</time></trkpt><trkpt lat="43.59896353839202" lon="12.500051294408477"><ele>352.0</ele><time>2026-04-18T07:55:14Z</time></trkpt><trkpt lat="43.598767792435744" lon="12.500166622985915"><ele>351.0</ele><time>2026-04-18T07:55:15Z</time></trkpt><trkpt lat="43.59857873214337" lon="12.50027872998063"><ele>350.0</ele><time>2026-04-18T07:55:16Z</time></trkpt><trkpt lat="43.59838653454391" lon="12.500383827893986"><ele>349.0</ele><time>2026-04-18T07:55:17Z</time></trkpt><trkpt lat="43.5981969738912" lon="12.50050000529721"><ele>349.0</ele><time>2026-04-18T07:55:18Z</time></trkpt><trkpt lat="43.598013265096945" lon="12.500619253222606"><ele>349.0</ele><time>2026-04-18T07:55:19Z</time></trkpt><trkpt lat="43.59783059987092" lon="12.500738285793544"><ele>349.0</ele><time>2026-04-18T07:55:20Z</time></trkpt><trkpt lat="43.59764216909614" lon="12.500860971302407"><ele>349.0</ele><time>2026-04-18T07:55:21Z</time></trkpt><trkpt lat="43.59745818605033" lon="12.500979798749459"><ele>349.0</ele><time>2026-04-18T07:55:22Z</time></trkpt><trkpt lat="43.59726230675401" lon="12.501096784462947"><ele>349.0</ele><time>2026-04-18T07:55:23Z</time></trkpt><trkpt lat="43.59706891446826" lon="12.501211188264351"><ele>349.0</ele><time>2026-04-18T07:55:24Z</time></trkpt><trkpt lat="43.596874988721986" lon="12.501327130752621"><ele>349.0</ele><time>2026-04-18T07:55:25Z</time></trkpt><trkpt lat="43.59668697130234" lon="12.501439324450217"><ele>349.0</ele><time>2026-04-18T07:55:26Z</time></trkpt><trkpt lat="43.59649490008678" lon="12.501541999389502"><ele>349.0</ele><time>2026-04-18T07:55:27Z</time></trkpt><trkpt lat="43.59629586644643" lon="12.501618017090328"><ele>349.0</ele><time>2026-04-18T07:55:28Z</time></trkpt><trkpt lat="43.59608908407976" lon="12.501663976223298"><ele>349.0</ele><time>2026-04-18T07:55:29Z</time></trkpt><trkpt lat="43.59588932796084" lon="12.50168067400988"><ele>348.66666666666663</ele><time>2026-04-18T07:55:30Z</time></trkpt><trkpt lat="43.59567932864863" lon="12.501696437933033"><ele>348.3333333333333</ele><time>2026-04-18T07:55:31Z</time></trkpt><trkpt lat="43.59546957983212" lon="12.501709855169153"><ele>348.0</ele><time>2026-04-18T07:55:32Z</time></trkpt><trkpt lat="43.59526380340788" lon="12.501730024186903"><ele>348.0</ele><time>2026-04-18T07:55:33Z</time></trkpt><trkpt lat="43.5950575884178" lon="12.501762318847097"><ele>348.0</ele><time>2026-04-18T07:55:34Z</time></trkpt><trkpt lat="43.594855310965535" lon="12.501814045060518"><ele>348.0</ele><time>2026-04-18T07:55:35Z</time></trkpt><trkpt lat="43.59466071325043" lon="12.501908888451647"><ele>347.0</ele><time>2026-04-18T07:55:36Z</time></trkpt><trkpt lat="43.59448071661221" lon="12.502058490039948"><ele>346.0</ele><time>2026-04-18T07:55:37Z</time></trkpt><trkpt lat="43.594304191768565" lon="12.502216926192027"><ele>345.0</ele><time>2026-04-18T07:55:38Z</time></trkpt><trkpt lat="43.59413205384114" lon="12.502378896902487"><ele>344.6666666666667</ele><time>2026-04-18T07:55:39Z</time></trkpt><trkpt lat="43.59395730622875" lon="12.502533063693123"><ele>344.33333333333337</ele><time>2026-04-18T07:55:40Z</time></trkpt><trkpt lat="43.59380144940211" lon="12.502670347532352"><ele>344.0</ele><time>2026-04-18T07:55:41Z</time></trkpt><trkpt lat="43.59366763126668" lon="12.50282307744981"><ele>345.6666666666667</ele><time>2026-04-18T07:55:42Z</time></trkpt><trkpt lat="43.593539399034924" lon="12.503021029139509"><ele>347.3333333333333</ele><time>2026-04-18T07:55:43Z</time></trkpt><trkpt lat="43.593411861831974" lon="12.503227409914897"><ele>349.0</ele><time>2026-04-18T07:55:44Z</time></trkpt><trkpt lat="43.59327871608831" lon="12.503450128184085"><ele>349.0</ele><time>2026-04-18T07:55:45Z</time></trkpt><trkpt lat="43.59314341096385" lon="12.503675785839544"><ele>349.0</ele><time>2026-04-18T07:55:46Z</time></trkpt><trkpt lat="43.59301174703194" lon="12.503895889358747"><ele>349.0</ele><time>2026-04-18T07:55:47Z</time></trkpt><trkpt lat="43.592890321049545" lon="12.50410398367776"><ele>349.66666666666663</ele><time>2026-04-18T07:55:48Z</time></trkpt><trkpt lat="43.592781204373935" lon="12.50428935637081"><ele>350.3333333333333</ele><time>2026-04-18T07:55:49Z</time></trkpt><trkpt lat="43.59266922715537" lon="12.504482248381557"><ele>351.0</ele><time>2026-04-18T07:55:50Z</time></trkpt><trkpt lat="43.5925552200872" lon="12.504674751051041"><ele>351.0</ele><time>2026-04-18T07:55:51Z</time></trkpt><trkpt lat="43.592433790606535" lon="12.504879734993281"><ele>351.0</ele><time>2026-04-18T07:55:52Z</time></trkpt><trkpt lat="43.59231352178977" lon="12.505094106098701"><ele>351.0</ele><time>2026-04-18T07:55:53Z</time></trkpt><trkpt lat="43.59220717497479" lon="12.505309041418334"><ele>348.6666666666667</ele><time>2026-04-18T07:55:54Z</time></trkpt><trkpt lat="43.59210549373398" lon="12.505541052318847"><ele>346.33333333333337</ele><time>2026-04-18T07:55:55Z</time></trkpt><trkpt lat="43.592006611205434" lon="12.50577703328401"><ele>344.0</ele><time>2026-04-18T07:55:56Z</time></trkpt><trkpt lat="43.59191180400027" lon="12.50602132829334"><ele>346.33333333333337</ele><time>2026-04-18T07:55:57Z</time></trkpt><trkpt lat="43.59181691642998" lon="12.506265757340543"><ele>348.6666666666667</ele><time>2026-04-18T07:55:58Z</time></trkpt><trkpt lat="43.59172590642332" lon="12.50649696909223"><ele>351.0</ele><time>2026-04-18T07:55:59Z</time></trkpt><trkpt lat="43.59164384221246" lon="12.506703053187726"><ele>351.0</ele><time>2026-04-18T07:56:00Z</time></trkpt><trkpt lat="43.59156045582536" lon="12.506910343739031"><ele>351.0</ele><time>2026-04-18T07:56:01Z</time></trkpt><trkpt lat="43.59147497729042" lon="12.507127345480356"><ele>351.0</ele><time>2026-04-18T07:56:02Z</time></trkpt><trkpt lat="43.59138994753983" lon="12.507344267342187"><ele>354.3333333333333</ele><time>2026-04-18T07:56:03Z</time></trkpt><trkpt lat="43.59130937118111" lon="12.507551801517248"><ele>357.66666666666663</ele><time>2026-04-18T07:56:04Z</time></trkpt><trkpt lat="43.591232966757296" lon="12.507761982189502"><ele>361.0</ele><time>2026-04-18T07:56:05Z</time></trkpt><trkpt lat="43.59117301849333" lon="12.507981144108792"><ele>354.3333333333333</ele><time>2026-04-18T07:56:06Z</time></trkpt><trkpt lat="43.59113955564854" lon="12.50821046460489"><ele>347.6666666666667</ele><time>2026-04-18T07:56:07Z</time></trkpt><trkpt lat="43.59111971299339" lon="12.508440946102088"><ele>341.0</ele><time>2026-04-18T07:56:08Z</time></trkpt><trkpt lat="43.59109682214677" lon="12.508650241805361"><ele>342.0</ele><time>2026-04-18T07:56:09Z</time></trkpt><trkpt lat="43.591058564242346" lon="12.508856566424553"><ele>343.0</ele><time>2026-04-18T07:56:10Z</time></trkpt><trkpt lat="43.591014757155094" lon="12.509047396933264"><ele>344.0</ele><time>2026-04-18T07:56:11Z</time></trkpt><trkpt lat="43.590968096030366" lon="12.50922826278228"><ele>345.0</ele><time>2026-04-18T07:56:12Z</time></trkpt><trkpt lat="43.59091672292353" lon="12.509400794561754"><ele>345.0</ele><time>2026-04-18T07:56:13Z</time></trkpt><trkpt lat="43.59086367141558" lon="12.509569307299124"><ele>345.0</ele><time>2026-04-18T07:56:14Z</time></trkpt><trkpt lat="43.59081125880081" lon="12.509732877201518"><ele>345.0</ele><time>2026-04-18T07:56:15Z</time></trkpt><trkpt lat="43.59076705146066" lon="12.509890925869598"><ele>345.0</ele><time>2026-04-18T07:56:16Z</time></trkpt><trkpt lat="43.59073184671554" lon="12.510033469466018"><ele>346.2</ele><time>2026-04-18T07:56:17Z</time></trkpt><trkpt lat="43.590698004433165" lon="12.51012906786732"><ele>347.4</ele><time>2026-04-18T07:56:18Z</time></trkpt><trkpt lat="43.590577440951094" lon="12.510139323733956"><ele>348.6</ele><time>2026-04-18T07:56:20Z</time></trkpt><trkpt lat="43.59051619279204" lon="12.510090914721223"><ele>349.8</ele><time>2026-04-18T07:56:21Z</time></trkpt><trkpt lat="43.59042459704431" lon="12.510069282214825"><ele>351.0</ele><time>2026-04-18T07:56:23Z</time></trkpt><trkpt lat="43.59031926340512" lon="12.510017446693961"><ele>348.5</ele><time>2026-04-18T07:56:25Z</time></trkpt><trkpt lat="43.59026119221904" lon="12.50997574016219"><ele>346.0</ele><time>2026-04-18T07:56:26Z</time></trkpt><trkpt lat="43.59020392243204" lon="12.509935604983264"><ele>343.5</ele><time>2026-04-18T07:56:27Z</time></trkpt><trkpt lat="43.590130652184946" lon="12.509892109092858"><ele>341.0</ele><time>2026-04-18T07:56:28Z</time></trkpt><trkpt lat="43.59004090363921" lon="12.509838888179674"><ele>338.5</ele><time>2026-04-18T07:56:29Z</time></trkpt><trkpt lat="43.589954872955964" lon="12.509794611900997"><ele>336.0</ele><time>2026-04-18T07:56:30Z</time></trkpt><trkpt lat="43.589871063233865" lon="12.509748682839717"><ele>336.0</ele><time>2026-04-18T07:56:31Z</time></trkpt><trkpt lat="43.589782240496255" lon="12.509696951409916"><ele>336.0</ele><time>2026-04-18T07:56:32Z</time></trkpt><trkpt lat="43.58968377579648" lon="12.50964007030126"><ele>336.0</ele><time>2026-04-18T07:56:33Z</time></trkpt><trkpt lat="43.589583831821685" lon="12.509581794171568"><ele>336.0</ele><time>2026-04-18T07:56:34Z</time></trkpt><trkpt lat="43.58948636122015" lon="12.509535691951788"><ele>336.0</ele><time>2026-04-18T07:56:36Z</time></trkpt><trkpt lat="43.589402180668635" lon="12.509490557359955"><ele>336.5</ele><time>2026-04-18T07:56:38Z</time></trkpt><trkpt lat="43.589312691885304" lon="12.509497674129923"><ele>337.0</ele><time>2026-04-18T07:56:40Z</time></trkpt><trkpt lat="43.589258706904516" lon="12.509398530003855"><ele>337.5</ele><time>2026-04-18T07:56:41Z</time></trkpt><trkpt lat="43.5892007062693" lon="12.509349628497393"><ele>338.0</ele><time>2026-04-18T07:56:42Z</time></trkpt><trkpt lat="43.589146880289526" lon="12.509289245936525"><ele>338.5</ele><time>2026-04-18T07:56:43Z</time></trkpt><trkpt lat="43.58909074393029" lon="12.509210525628456"><ele>339.0</ele><time>2026-04-18T07:56:44Z</time></trkpt><trkpt lat="43.58904035119437" lon="12.509123821362918"><ele>339.0</ele><time>2026-04-18T07:56:45Z</time></trkpt><trkpt lat="43.58897673871755" lon="12.509049966100882"><ele>339.0</ele><time>2026-04-18T07:56:46Z</time></trkpt><trkpt lat="43.5889196005847" lon="12.508962820229383"><ele>339.0</ele><time>2026-04-18T07:56:47Z</time></trkpt><trkpt lat="43.588856395593304" lon="12.508865166173548"><ele>339.0</ele><time>2026-04-18T07:56:48Z</time></trkpt><trkpt lat="43.58879126795284" lon="12.508763262942203"><ele>339.0</ele><time>2026-04-18T07:56:49Z</time></trkpt><trkpt lat="43.58873024741639" lon="12.508668265262408"><ele>340.2</ele><time>2026-04-18T07:56:50Z</time></trkpt><trkpt lat="43.58866897795669" lon="12.508580250063016"><ele>341.4</ele><time>2026-04-18T07:56:51Z</time></trkpt><trkpt lat="43.588603352365276" lon="12.508507654023797"><ele>342.6</ele><time>2026-04-18T07:56:52Z</time></trkpt><trkpt lat="43.58853378517994" lon="12.508426818412993"><ele>343.8</ele><time>2026-04-18T07:56:53Z</time></trkpt><trkpt lat="43.58845614256214" lon="12.508351071513813"><ele>345.0</ele><time>2026-04-18T07:56:54Z</time></trkpt><trkpt lat="43.58837352320612" lon="12.508267944599835"><ele>345.0</ele><time>2026-04-18T07:56:55Z</time></trkpt><trkpt lat="43.58828651016294" lon="12.508186578006995"><ele>345.0</ele><time>2026-04-18T07:56:56Z</time></trkpt><trkpt lat="43.58817895690182" lon="12.508130200167502"><ele>345.0</ele><time>2026-04-18T07:56:57Z</time></trkpt><trkpt lat="43.588066816956335" lon="12.508060177380598"><ele>345.0</ele><time>2026-04-18T07:56:58Z</time></trkpt><trkpt lat="43.587958260650815" lon="12.50797820058852"><ele>345.0</ele><time>2026-04-18T07:56:59Z</time></trkpt><trkpt lat="43.58786853522129" lon="12.507874759264373"><ele>345.0</ele><time>2026-04-18T07:57:00Z</time></trkpt><trkpt lat="43.58781140005554" lon="12.507759101957673"><ele>345.0</ele><time>2026-04-18T07:57:01Z</time></trkpt><trkpt lat="43.58778712219618" lon="12.50762123498342"><ele>345.0</ele><time>2026-04-18T07:57:02Z</time></trkpt><trkpt lat="43.58778888995557" lon="12.50745953890852"><ele>345.0</ele><time>2026-04-18T07:57:03Z</time></trkpt><trkpt lat="43.587800394034026" lon="12.507281937082562"><ele>345.0</ele><time>2026-04-18T07:57:04Z</time></trkpt><trkpt lat="43.58780871576683" lon="12.507086908770322"><ele>345.0</ele><time>2026-04-18T07:57:05Z</time></trkpt><trkpt lat="43.58780443371725" lon="12.506889156921558"><ele>345.0</ele><time>2026-04-18T07:57:06Z</time></trkpt><trkpt lat="43.587777727215865" lon="12.506687134054976"><ele>345.0</ele><time>2026-04-18T07:57:07Z</time></trkpt><trkpt lat="43.58773055995642" lon="12.506472751640642"><ele>346.25</ele><time>2026-04-18T07:57:08Z</time></trkpt><trkpt lat="43.5876841026087" lon="12.50626933551012"><ele>347.5</ele><time>2026-04-18T07:57:09Z</time></trkpt><trkpt lat="43.58765338642421" lon="12.506083125143348"><ele>348.75</ele><time>2026-04-18T07:57:10Z</time></trkpt><trkpt lat="43.58764868565244" lon="12.505917283832387"><ele>350.0</ele><time>2026-04-18T07:57:11Z</time></trkpt><trkpt lat="43.587679249101434" lon="12.505749422395764"><ele>351.75</ele><time>2026-04-18T07:57:12Z</time></trkpt><trkpt lat="43.58773897894622" lon="12.505576637344532"><ele>353.5</ele><time>2026-04-18T07:57:13Z</time></trkpt><trkpt lat="43.58780889777322" lon="12.505401048000937"><ele>355.25</ele><time>2026-04-18T07:57:14Z</time></trkpt><trkpt lat="43.58787555495755" lon="12.505217995875492"><ele>357.0</ele><time>2026-04-18T07:57:15Z</time></trkpt><trkpt lat="43.58794285639023" lon="12.505022611886693"><ele>357.75</ele><time>2026-04-18T07:57:16Z</time></trkpt><trkpt lat="43.58800487416203" lon="12.50483047768112"><ele>358.5</ele><time>2026-04-18T07:57:17Z</time></trkpt><trkpt lat="43.58806530217949" lon="12.504655572115116"><ele>359.25</ele><time>2026-04-18T07:57:18Z</time></trkpt><trkpt lat="43.588141343270756" lon="12.504506744275943"><ele>360.0</ele><time>2026-04-18T07:57:19Z</time></trkpt><trkpt lat="43.58825557774346" lon="12.50439601429479"><ele>362.3333333333333</ele><time>2026-04-18T07:57:20Z</time></trkpt><trkpt lat="43.588372670854675" lon="12.50426945059445"><ele>364.66666666666663</ele><time>2026-04-18T07:57:21Z</time></trkpt><trkpt lat="43.5885082726365" lon="12.504156427654868"><ele>367.0</ele><time>2026-04-18T07:57:22Z</time></trkpt><trkpt lat="43.588649738353986" lon="12.504035414831682"><ele>370.0</ele><time>2026-04-18T07:57:23Z</time></trkpt><trkpt lat="43.588793877303274" lon="12.50389407990812"><ele>373.0</ele><time>2026-04-18T07:57:24Z</time></trkpt><trkpt lat="43.58891098634723" lon="12.503744201361313"><ele>376.0</ele><time>2026-04-18T07:57:25Z</time></trkpt><trkpt lat="43.58899178493344" lon="12.503565655508872"><ele>376.0</ele><time>2026-04-18T07:57:26Z</time></trkpt><trkpt lat="43.58899311973329" lon="12.503360769508483"><ele>376.0</ele><time>2026-04-18T07:57:27Z</time></trkpt><trkpt lat="43.58899002067389" lon="12.503155622428167"><ele>376.0</ele><time>2026-04-18T07:57:28Z</time></trkpt><trkpt lat="43.58895439275698" lon="12.502952706398602"><ele>376.0</ele><time>2026-04-18T07:57:29Z</time></trkpt><trkpt lat="43.588949016042875" lon="12.50275819050366"><ele>378.75</ele><time>2026-04-18T07:57:30Z</time></trkpt><trkpt lat="43.58898412477818" lon="12.502580853410288"><ele>381.5</ele><time>2026-04-18T07:57:31Z</time></trkpt><trkpt lat="43.58905231338642" lon="12.502435225966055"><ele>384.25</ele><time>2026-04-18T07:57:32Z</time></trkpt><trkpt lat="43.58916362744325" lon="12.50233761129241"><ele>387.0</ele><time>2026-04-18T07:57:33Z</time></trkpt><trkpt lat="43.58924451711283" lon="12.502190980252136"><ele>387.25</ele><time>2026-04-18T07:57:34Z</time></trkpt><trkpt lat="43.589312661829126" lon="12.502013825256938"><ele>387.5</ele><time>2026-04-18T07:57:35Z</time></trkpt><trkpt lat="43.589344500090796" lon="12.501802512667222"><ele>387.75</ele><time>2026-04-18T07:57:36Z</time></trkpt><trkpt lat="43.589366246295334" lon="12.501602925209726"><ele>388.0</ele><time>2026-04-18T07:57:37Z</time></trkpt><trkpt lat="43.589418298608166" lon="12.501454626229517"><ele>388.0</ele><time>2026-04-18T07:57:38Z</time></trkpt><trkpt lat="43.58949837342834" lon="12.501330148815898"><ele>388.0</ele><time>2026-04-18T07:57:39Z</time></trkpt><trkpt lat="43.589592832313805" lon="12.501219521159932"><ele>388.0</ele><time>2026-04-18T07:57:40Z</time></trkpt><trkpt lat="43.58968867232228" lon="12.501102395896138"><ele>388.0</ele><time>2026-04-18T07:57:41Z</time></trkpt><trkpt lat="43.589790620260864" lon="12.500974484470166"><ele>390.75</ele><time>2026-04-18T07:57:42Z</time></trkpt><trkpt lat="43.58989686542523" lon="12.500858111105051"><ele>393.5</ele><time>2026-04-18T07:57:43Z</time></trkpt><trkpt lat="43.59000691157633" lon="12.500778820570934"><ele>396.25</ele><time>2026-04-18T07:57:44Z</time></trkpt><trkpt lat="43.590118503301525" lon="12.5007535344963"><ele>399.0</ele><time>2026-04-18T07:57:45Z</time></trkpt><trkpt lat="43.590206818647985" lon="12.500721873365418"><ele>399.0</ele><time>2026-04-18T07:57:46Z</time></trkpt><trkpt lat="43.59029340908774" lon="12.50071746315611"><ele>399.0</ele><time>2026-04-18T07:57:47Z</time></trkpt><trkpt lat="43.59036950164948" lon="12.500680600855764"><ele>399.0</ele><time>2026-04-18T07:57:48Z</time></trkpt><trkpt lat="43.59043838992336" lon="12.50057836390942"><ele>399.0</ele><time>2026-04-18T07:57:49Z</time></trkpt><trkpt lat="43.59049235815877" lon="12.500449858366988"><ele>399.0</ele><time>2026-04-18T07:57:50Z</time></trkpt><trkpt lat="43.59056894444655" lon="12.500317648975889"><ele>400.25</ele><time>2026-04-18T07:57:51Z</time></trkpt><trkpt lat="43.59066231487736" lon="12.500192689771476"><ele>401.5</ele><time>2026-04-18T07:57:52Z</time></trkpt><trkpt lat="43.590784003693955" lon="12.500097893197958"><ele>402.75</ele><time>2026-04-18T07:57:53Z</time></trkpt><trkpt lat="43.590901677592946" lon="12.500008888151548"><ele>404.0</ele><time>2026-04-18T07:57:54Z</time></trkpt><trkpt lat="43.59101471609226" lon="12.499906151151503"><ele>404.0</ele><time>2026-04-18T07:57:55Z</time></trkpt><trkpt lat="43.59113419517219" lon="12.499808468935099"><ele>404.0</ele><time>2026-04-18T07:57:56Z</time></trkpt><trkpt lat="43.59124155783894" lon="12.499698782826119"><ele>404.0</ele><time>2026-04-18T07:57:57Z</time></trkpt><trkpt lat="43.591334301016495" lon="12.499573830360617"><ele>404.0</ele><time>2026-04-18T07:57:58Z</time></trkpt><trkpt lat="43.59140514417007" lon="12.49942549635545"><ele>405.5</ele><time>2026-04-18T07:57:59Z</time></trkpt><trkpt lat="43.591471374332336" lon="12.499269776258364"><ele>407.0</ele><time>2026-04-18T07:58:00Z</time></trkpt><trkpt lat="43.59155043846902" lon="12.499128665791176"><ele>408.5</ele><time>2026-04-18T07:58:01Z</time></trkpt><trkpt lat="43.591670310447135" lon="12.499058603144173"><ele>410.0</ele><time>2026-04-18T07:58:02Z</time></trkpt><trkpt lat="43.59178168259214" lon="12.498952627718952"><ele>410.0</ele><time>2026-04-18T07:58:03Z</time></trkpt><trkpt lat="43.59189698109874" lon="12.498853377185041"><ele>410.0</ele><time>2026-04-18T07:58:04Z</time></trkpt><trkpt lat="43.5919793973441" lon="12.498690411865162"><ele>410.0</ele><time>2026-04-18T07:58:05Z</time></trkpt><trkpt lat="43.59205293651921" lon="12.498513480293585"><ele>410.0</ele><time>2026-04-18T07:58:06Z</time></trkpt><trkpt lat="43.59211896649501" lon="12.498354626970281"><ele>410.5</ele><time>2026-04-18T07:58:07Z</time></trkpt><trkpt lat="43.59218163225261" lon="12.498208908626587"><ele>411.0</ele><time>2026-04-18T07:58:08Z</time></trkpt><trkpt lat="43.59224801833869" lon="12.498080402369744"><ele>411.5</ele><time>2026-04-18T07:58:09Z</time></trkpt><trkpt lat="43.59233136778244" lon="12.497966750391223"><ele>412.0</ele><time>2026-04-18T07:58:10Z</time></trkpt><trkpt lat="43.59243149173387" lon="12.497850707098104"><ele>412.0</ele><time>2026-04-18T07:58:11Z</time></trkpt><trkpt lat="43.592535643236644" lon="12.497716440399877"><ele>412.0</ele><time>2026-04-18T07:58:12Z</time></trkpt><trkpt lat="43.5926385004728" lon="12.49756119531672"><ele>412.0</ele><time>2026-04-18T07:58:13Z</time></trkpt><trkpt lat="43.59273920698113" lon="12.497390629968192"><ele>412.0</ele><time>2026-04-18T07:58:14Z</time></trkpt><trkpt lat="43.592836466077955" lon="12.497217017722736"><ele>412.0</ele><time>2026-04-18T07:58:15Z</time></trkpt><trkpt lat="43.59293056854868" lon="12.497043236798692"><ele>412.0</ele><time>2026-04-18T07:58:16Z</time></trkpt><trkpt lat="43.59302495507543" lon="12.496867480209787"><ele>416.6666666666667</ele><time>2026-04-18T07:58:17Z</time></trkpt><trkpt lat="43.59311428210609" lon="12.496680120310113"><ele>421.33333333333337</ele><time>2026-04-18T07:58:18Z</time></trkpt><trkpt lat="43.59318876122348" lon="12.496489299420167"><ele>426.0</ele><time>2026-04-18T07:58:19Z</time></trkpt><trkpt lat="43.593253034093365" lon="12.496293255230434"><ele>423.33333333333337</ele><time>2026-04-18T07:58:20Z</time></trkpt><trkpt lat="43.59330212026142" lon="12.49608891104585"><ele>420.6666666666667</ele><time>2026-04-18T07:58:21Z</time></trkpt><trkpt lat="43.593331174281616" lon="12.495877412169781"><ele>418.0</ele><time>2026-04-18T07:58:22Z</time></trkpt><trkpt lat="43.59335671799408" lon="12.495655340415109"><ele>418.0</ele><time>2026-04-18T07:58:23Z</time></trkpt><trkpt lat="43.593386484424265" lon="12.495430505612651"><ele>418.0</ele><time>2026-04-18T07:58:24Z</time></trkpt><trkpt lat="43.59341909082266" lon="12.495199082119353"><ele>418.0</ele><time>2026-04-18T07:58:25Z</time></trkpt><trkpt lat="43.59344509415913" lon="12.494959730463496"><ele>416.0</ele><time>2026-04-18T07:58:26Z</time></trkpt><trkpt lat="43.59345948902946" lon="12.494721079898934"><ele>414.0</ele><time>2026-04-18T07:58:27Z</time></trkpt><trkpt lat="43.59346910430045" lon="12.494479022016229"><ele>412.0</ele><time>2026-04-18T07:58:28Z</time></trkpt><trkpt lat="43.593474356586064" lon="12.494242895545518"><ele>411.33333333333337</ele><time>2026-04-18T07:58:29Z</time></trkpt><trkpt lat="43.59347905078206" lon="12.494006117784553"><ele>410.66666666666663</ele><time>2026-04-18T07:58:30Z</time></trkpt><trkpt lat="43.59348539229541" lon="12.493781016657655"><ele>410.0</ele><time>2026-04-18T07:58:31Z</time></trkpt><trkpt lat="43.593494634908026" lon="12.493545211492606"><ele>409.66666666666663</ele><time>2026-04-18T07:58:32Z</time></trkpt><trkpt lat="43.593503446915754" lon="12.493315339011952"><ele>409.33333333333337</ele><time>2026-04-18T07:58:33Z</time></trkpt><trkpt lat="43.59350906139271" lon="12.493091137320668"><ele>409.0</ele><time>2026-04-18T07:58:34Z</time></trkpt><trkpt lat="43.59351207702371" lon="12.492865325726065"><ele>409.6666666666667</ele><time>2026-04-18T07:58:35Z</time></trkpt><trkpt lat="43.59351961212837" lon="12.492633748734209"><ele>410.33333333333337</ele><time>2026-04-18T07:58:36Z</time></trkpt><trkpt lat="43.59352505672729" lon="12.492399668821784"><ele>411.0</ele><time>2026-04-18T07:58:37Z</time></trkpt><trkpt lat="43.59353278534627" lon="12.492162792707838"><ele>412.66666666666663</ele><time>2026-04-18T07:58:38Z</time></trkpt><trkpt lat="43.59353988585564" lon="12.491930425430855"><ele>414.3333333333333</ele><time>2026-04-18T07:58:39Z</time></trkpt><trkpt lat="43.5935461215477" lon="12.491701527906603"><ele>416.0</ele><time>2026-04-18T07:58:40Z</time></trkpt><trkpt lat="43.5935510969783" lon="12.491467468822286"><ele>417.66666666666663</ele><time>2026-04-18T07:58:41Z</time></trkpt><trkpt lat="43.59355853104666" lon="12.491237349595885"><ele>419.33333333333337</ele><time>2026-04-18T07:58:42Z</time></trkpt><trkpt lat="43.59356714625452" lon="12.49102031946672"><ele>421.0</ele><time>2026-04-18T07:58:43Z</time></trkpt><trkpt lat="43.5935776570993" lon="12.490792011464809"><ele>421.0</ele><time>2026-04-18T07:58:44Z</time></trkpt><trkpt lat="43.593591445497246" lon="12.490559937353208"><ele>421.0</ele><time>2026-04-18T07:58:45Z</time></trkpt><trkpt lat="43.59360306415427" lon="12.490316531228117"><ele>421.0</ele><time>2026-04-18T07:58:46Z</time></trkpt><trkpt lat="43.59361201992487" lon="12.490073534171888"><ele>422.0</ele><time>2026-04-18T07:58:47Z</time></trkpt><trkpt lat="43.59361903338566" lon="12.489824138453052"><ele>423.0</ele><time>2026-04-18T07:58:48Z</time></trkpt><trkpt lat="43.59362694096581" lon="12.489578840501046"><ele>424.0</ele><time>2026-04-18T07:58:49Z</time></trkpt><trkpt lat="43.59363856160423" lon="12.489326341439376"><ele>424.0</ele><time>2026-04-18T07:58:50Z</time></trkpt><trkpt lat="43.59365244739769" lon="12.489073388322112"><ele>424.0</ele><time>2026-04-18T07:58:51Z</time></trkpt><trkpt lat="43.59366474692305" lon="12.488821368067793"><ele>424.0</ele><time>2026-04-18T07:58:52Z</time></trkpt><trkpt lat="43.59367712155817" lon="12.488564217545036"><ele>427.0</ele><time>2026-04-18T07:58:53Z</time></trkpt><trkpt lat="43.5936900382074" lon="12.48830685981235"><ele>430.0</ele><time>2026-04-18T07:58:54Z</time></trkpt><trkpt lat="43.59370092624206" lon="12.488061184335162"><ele>433.0</ele><time>2026-04-18T07:58:55Z</time></trkpt><trkpt lat="43.593703872191284" lon="12.487825640230433"><ele>434.5</ele><time>2026-04-18T07:58:56Z</time></trkpt><trkpt lat="43.59368640192047" lon="12.487614889050402"><ele>436.0</ele><time>2026-04-18T07:58:57Z</time></trkpt><trkpt lat="43.593631391908254" lon="12.487466975034112"><ele>437.5</ele><time>2026-04-18T07:58:58Z</time></trkpt><trkpt lat="43.593538212438474" lon="12.487360795096949"><ele>439.0</ele><time>2026-04-18T07:58:59Z</time></trkpt><trkpt lat="43.593409864788036" lon="12.487287457446078"><ele>439.0</ele><time>2026-04-18T07:59:00Z</time></trkpt><trkpt lat="43.59326510792159" lon="12.487236595245658"><ele>439.0</ele><time>2026-04-18T07:59:01Z</time></trkpt><trkpt lat="43.59310340860116" lon="12.48718880090121"><ele>439.0</ele><time>2026-04-18T07:59:02Z</time></trkpt><trkpt lat="43.592947647085744" lon="12.487140527601927"><ele>440.0</ele><time>2026-04-18T07:59:03Z</time></trkpt><trkpt lat="43.59278779693109" lon="12.48711314798641"><ele>441.0</ele><time>2026-04-18T07:59:04Z</time></trkpt><trkpt lat="43.59262140977953" lon="12.48711204513486"><ele>442.0</ele><time>2026-04-18T07:59:05Z</time></trkpt><trkpt lat="43.59244081473211" lon="12.48713734605457"><ele>442.0</ele><time>2026-04-18T07:59:06Z</time></trkpt><trkpt lat="43.59225761399902" lon="12.487176686273266"><ele>442.0</ele><time>2026-04-18T07:59:07Z</time></trkpt><trkpt lat="43.5920770164539" lon="12.487217275072092"><ele>442.0</ele><time>2026-04-18T07:59:08Z</time></trkpt><trkpt lat="43.591906404035726" lon="12.487248303521419"><ele>444.0</ele><time>2026-04-18T07:59:09Z</time></trkpt><trkpt lat="43.59175391349208" lon="12.487266662370974"><ele>446.0</ele><time>2026-04-18T07:59:10Z</time></trkpt><trkpt lat="43.59161694042928" lon="12.48726636593707"><ele>448.0</ele><time>2026-04-18T07:59:11Z</time></trkpt><trkpt lat="43.591499109726506" lon="12.487198859470002"><ele>450.0</ele><time>2026-04-18T07:59:12Z</time></trkpt><trkpt lat="43.59140382298837" lon="12.487097429349713"><ele>452.0</ele><time>2026-04-18T07:59:13Z</time></trkpt><trkpt lat="43.591346462644495" lon="12.486979141672895"><ele>454.0</ele><time>2026-04-18T07:59:14Z</time></trkpt><trkpt lat="43.591342953338945" lon="12.486814385756208"><ele>456.0</ele><time>2026-04-18T07:59:15Z</time></trkpt><trkpt lat="43.59139375461022" lon="12.486624155549753"><ele>458.0</ele><time>2026-04-18T07:59:16Z</time></trkpt><trkpt lat="43.59145831227882" lon="12.48640996764022"><ele>460.3333333333333</ele><time>2026-04-18T07:59:17Z</time></trkpt><trkpt lat="43.59151057426818" lon="12.486157334832097"><ele>462.66666666666663</ele><time>2026-04-18T07:59:18Z</time></trkpt><trkpt lat="43.591579912171916" lon="12.485885795660087"><ele>465.0</ele><time>2026-04-18T07:59:19Z</time></trkpt><trkpt lat="43.591645229518306" lon="12.485588209203664"><ele>469.0</ele><time>2026-04-18T07:59:20Z</time></trkpt><trkpt lat="43.591703900076574" lon="12.485320070114383"><ele>473.0</ele><time>2026-04-18T07:59:21Z</time></trkpt><trkpt lat="43.59176074549395" lon="12.485101406497"><ele>477.0</ele><time>2026-04-18T07:59:22Z</time></trkpt><trkpt lat="43.59183295695587" lon="12.484942516534366"><ele>477.0</ele><time>2026-04-18T07:59:23Z</time></trkpt><trkpt lat="43.59189165285754" lon="12.484836578926904"><ele>477.0</ele><time>2026-04-18T07:59:24Z</time></trkpt><trkpt lat="43.591994463858704" lon="12.484775813943664"><ele>477.0</ele><time>2026-04-18T07:59:25Z</time></trkpt><trkpt lat="43.59211429350787" lon="12.484770712227979"><ele>477.0</ele><time>2026-04-18T07:59:26Z</time></trkpt><trkpt lat="43.59224052018633" lon="12.484728261095224"><ele>475.5</ele><time>2026-04-18T07:59:27Z</time></trkpt><trkpt lat="43.592367504487946" lon="12.484713211746238"><ele>474.0</ele><time>2026-04-18T07:59:28Z</time></trkpt><trkpt lat="43.59250178184811" lon="12.484683524429066"><ele>472.5</ele><time>2026-04-18T07:59:29Z</time></trkpt><trkpt lat="43.59264381146753" lon="12.484625766541171"><ele>471.0</ele><time>2026-04-18T07:59:30Z</time></trkpt><trkpt lat="43.59277730664928" lon="12.484546147844643"><ele>473.8</ele><time>2026-04-18T07:59:31Z</time></trkpt><trkpt lat="43.59288897003579" lon="12.484462559301882"><ele>476.6</ele><time>2026-04-18T07:59:32Z</time></trkpt><trkpt lat="43.592938802522646" lon="12.484373778037584"><ele>479.4</ele><time>2026-04-18T07:59:33Z</time></trkpt><trkpt lat="43.59291325037259" lon="12.484169129688564"><ele>482.2</ele><time>2026-04-18T07:59:35Z</time></trkpt><trkpt lat="43.5928656824793" lon="12.484090723571471"><ele>485.0</ele><time>2026-04-18T07:59:36Z</time></trkpt><trkpt lat="43.59276948344408" lon="12.484053084547607"><ele>485.0</ele><time>2026-04-18T07:59:37Z</time></trkpt><trkpt lat="43.5926456945329" lon="12.484098549453572"><ele>485.0</ele><time>2026-04-18T07:59:38Z</time></trkpt><trkpt lat="43.59251667091506" lon="12.484139990477663"><ele>485.0</ele><time>2026-04-18T07:59:39Z</time></trkpt><trkpt lat="43.59239932080443" lon="12.484165278238093"><ele>485.0</ele><time>2026-04-18T07:59:40Z</time></trkpt><trkpt lat="43.592300749320614" lon="12.484157622475683"><ele>485.0</ele><time>2026-04-18T07:59:41Z</time></trkpt><trkpt lat="43.592239779782886" lon="12.484085900574096"><ele>485.0</ele><time>2026-04-18T07:59:42Z</time></trkpt><trkpt lat="43.59220723164772" lon="12.484000786600237"><ele>485.0</ele><time>2026-04-18T07:59:43Z</time></trkpt><trkpt lat="43.5922485996014" lon="12.483899971429105"><ele>485.0</ele><time>2026-04-18T07:59:44Z</time></trkpt><trkpt lat="43.59233076018573" lon="12.483829820075082"><ele>485.0</ele><time>2026-04-18T07:59:45Z</time></trkpt><trkpt lat="43.59246178360332" lon="12.483788239224864"><ele>485.0</ele><time>2026-04-18T07:59:46Z</time></trkpt><trkpt lat="43.592619364868476" lon="12.483767139584456"><ele>485.0</ele><time>2026-04-18T07:59:47Z</time></trkpt><trkpt lat="43.592779208998856" lon="12.483737914081818"><ele>485.0</ele><time>2026-04-18T07:59:48Z</time></trkpt><trkpt lat="43.59292358810336" lon="12.483695500596665"><ele>489.16666666666663</ele><time>2026-04-18T07:59:49Z</time></trkpt><trkpt lat="43.59301229158188" lon="12.483638760170644"><ele>493.3333333333333</ele><time>2026-04-18T07:59:50Z</time></trkpt><trkpt lat="43.59306269958529" lon="12.483547137643862"><ele>497.5</ele><time>2026-04-18T07:59:51Z</time></trkpt><trkpt lat="43.59305704759351" lon="12.483434841149295"><ele>501.66666666666663</ele><time>2026-04-18T07:59:52Z</time></trkpt><trkpt lat="43.593016189210516" lon="12.483348372827962"><ele>505.8333333333333</ele><time>2026-04-18T07:59:53Z</time></trkpt><trkpt lat="43.592937029257314" lon="12.483303253630988"><ele>510.0</ele><time>2026-04-18T07:59:54Z</time></trkpt><trkpt lat="43.59286150660148" lon="12.483250276814093"><ele>508.5</ele><time>2026-04-18T07:59:55Z</time></trkpt><trkpt lat="43.59273396656932" lon="12.483273355484645"><ele>507.0</ele><time>2026-04-18T07:59:56Z</time></trkpt><trkpt lat="43.59261481081303" lon="12.483318224381048"><ele>505.5</ele><time>2026-04-18T07:59:57Z</time></trkpt><trkpt lat="43.59250745991189" lon="12.483357161634425"><ele>504.0</ele><time>2026-04-18T07:59:58Z</time></trkpt><trkpt lat="43.59240635775601" lon="12.483386244291363"><ele>504.0</ele><time>2026-04-18T07:59:59Z</time></trkpt><trkpt lat="43.592324809821264" lon="12.483381074589841"><ele>504.0</ele><time>2026-04-18T08:00:00Z</time></trkpt><trkpt lat="43.59228383698565" lon="12.48329814765113"><ele>504.0</ele><time>2026-04-18T08:00:01Z</time></trkpt><trkpt lat="43.59230254861286" lon="12.483186494333594"><ele>504.0</ele><time>2026-04-18T08:00:02Z</time></trkpt><trkpt lat="43.59241509761074" lon="12.48309111410276"><ele>504.0</ele><time>2026-04-18T08:00:04Z</time></trkpt><trkpt lat="43.59251311221086" lon="12.483069245346375"><ele>504.0</ele><time>2026-04-18T08:00:05Z</time></trkpt><trkpt lat="43.592619091698005" lon="12.48305542003351"><ele>504.0</ele><time>2026-04-18T08:00:06Z</time></trkpt><trkpt lat="43.59272377330928" lon="12.483028036027692"><ele>504.0</ele><time>2026-04-18T08:00:07Z</time></trkpt><trkpt lat="43.59284138732903" lon="12.482991422293193"><ele>504.0</ele><time>2026-04-18T08:00:08Z</time></trkpt><trkpt lat="43.5929623429531" lon="12.482946856276042"><ele>505.2</ele><time>2026-04-18T08:00:09Z</time></trkpt><trkpt lat="43.5930769324127" lon="12.482904835161602"><ele>506.4</ele><time>2026-04-18T08:00:10Z</time></trkpt><trkpt lat="43.59318410882422" lon="12.482879706216574"><ele>507.6</ele><time>2026-04-18T08:00:11Z</time></trkpt><trkpt lat="43.59327461568102" lon="12.482886538222406"><ele>508.8</ele><time>2026-04-18T08:00:12Z</time></trkpt><trkpt lat="43.59335660977719" lon="12.48292134816779"><ele>510.0</ele><time>2026-04-18T08:00:13Z</time></trkpt><trkpt lat="43.593440770849504" lon="12.482982043017362"><ele>510.0</ele><time>2026-04-18T08:00:14Z</time></trkpt><trkpt lat="43.593522581719164" lon="12.483050248608633"><ele>510.0</ele><time>2026-04-18T08:00:15Z</time></trkpt><trkpt lat="43.593600777388914" lon="12.483114773476915"><ele>510.0</ele><time>2026-04-18T08:00:16Z</time></trkpt><trkpt lat="43.59373165083663" lon="12.483200430771257"><ele>510.0</ele><time>2026-04-18T08:00:17Z</time></trkpt><trkpt lat="43.593856195967575" lon="12.483292971975132"><ele>512.0</ele><time>2026-04-18T08:00:18Z</time></trkpt><trkpt lat="43.59396744032254" lon="12.483387230784766"><ele>514.0</ele><time>2026-04-18T08:00:19Z</time></trkpt><trkpt lat="43.59406314761478" lon="12.483469887202812"><ele>516.0</ele><time>2026-04-18T08:00:20Z</time></trkpt><trkpt lat="43.59414279760844" lon="12.48354076872954"><ele>518.0</ele><time>2026-04-18T08:00:21Z</time></trkpt><trkpt lat="43.59421809018552" lon="12.483585651619718"><ele>520.0</ele><time>2026-04-18T08:00:22Z</time></trkpt><trkpt lat="43.594284200190884" lon="12.483583282294644"><ele>520.0</ele><time>2026-04-18T08:00:23Z</time></trkpt><trkpt lat="43.5943811691472" lon="12.483501002343617"><ele>520.0</ele><time>2026-04-18T08:00:25Z</time></trkpt><trkpt lat="43.5944298557877" lon="12.483413567779747"><ele>520.0</ele><time>2026-04-18T08:00:26Z</time></trkpt><trkpt lat="43.59447822199866" lon="12.48329161080529"><ele>520.0</ele><time>2026-04-18T08:00:27Z</time></trkpt><trkpt lat="43.59451633948642" lon="12.483140311252749"><ele>520.0</ele><time>2026-04-18T08:00:28Z</time></trkpt><trkpt lat="43.59455434148356" lon="12.482964284367096"><ele>521.6</ele><time>2026-04-18T08:00:29Z</time></trkpt><trkpt lat="43.594601047746046" lon="12.482814141099132"><ele>523.2</ele><time>2026-04-18T08:00:30Z</time></trkpt><trkpt lat="43.59465956214152" lon="12.482699239460537"><ele>524.8</ele><time>2026-04-18T08:00:31Z</time></trkpt><trkpt lat="43.59474138718279" lon="12.482606971716155"><ele>526.4</ele><time>2026-04-18T08:00:32Z</time></trkpt><trkpt lat="43.59482659390381" lon="12.482538618712915"><ele>528.0</ele><time>2026-04-18T08:00:33Z</time></trkpt><trkpt lat="43.59492171412552" lon="12.482487989790494"><ele>528.0</ele><time>2026-04-18T08:00:34Z</time></trkpt><trkpt lat="43.59502301088464" lon="12.482457133792293"><ele>528.0</ele><time>2026-04-18T08:00:35Z</time></trkpt><trkpt lat="43.59512524010371" lon="12.482421824319363"><ele>528.0</ele><time>2026-04-18T08:00:36Z</time></trkpt><trkpt lat="43.59522134785731" lon="12.482386223344331"><ele>528.0</ele><time>2026-04-18T08:00:37Z</time></trkpt><trkpt lat="43.595313234981965" lon="12.482339081039195"><ele>528.0</ele><time>2026-04-18T08:00:38Z</time></trkpt><trkpt lat="43.59538910964123" lon="12.48227746949081"><ele>525.6</ele><time>2026-04-18T08:00:39Z</time></trkpt><trkpt lat="43.595459305123995" lon="12.482203067186628"><ele>523.1999999999999</ele><time>2026-04-18T08:00:40Z</time></trkpt><trkpt lat="43.59554559021547" lon="12.482129809740051"><ele>520.8</ele><time>2026-04-18T08:00:41Z</time></trkpt><trkpt lat="43.59561634868263" lon="12.48201398532395"><ele>518.4</ele><time>2026-04-18T08:00:42Z</time></trkpt><trkpt lat="43.595702222139465" lon="12.481917350006597"><ele>516.0</ele><time>2026-04-18T08:00:43Z</time></trkpt><trkpt lat="43.595790298474604" lon="12.481801776002712"><ele>521.25</ele><time>2026-04-18T08:00:44Z</time></trkpt><trkpt lat="43.59589500752412" lon="12.481665053481318"><ele>526.5</ele><time>2026-04-18T08:00:45Z</time></trkpt><trkpt lat="43.59600318284117" lon="12.48151501630007"><ele>531.75</ele><time>2026-04-18T08:00:46Z</time></trkpt><trkpt lat="43.596112024553626" lon="12.481388113246362"><ele>537.0</ele><time>2026-04-18T08:00:47Z</time></trkpt><trkpt lat="43.59619820135177" lon="12.481294808422952"><ele>541.6</ele><time>2026-04-18T08:00:48Z</time></trkpt><trkpt lat="43.596279782504084" lon="12.481231898211648"><ele>546.2</ele><time>2026-04-18T08:00:49Z</time></trkpt><trkpt lat="43.59635723411022" lon="12.48120014538628"><ele>550.8</ele><time>2026-04-18T08:00:50Z</time></trkpt><trkpt lat="43.596442401902614" lon="12.4811989886958"><ele>555.4</ele><time>2026-04-18T08:00:51Z</time></trkpt><trkpt lat="43.59654861348304" lon="12.481206425587638"><ele>560.0</ele><time>2026-04-18T08:00:52Z</time></trkpt><trkpt lat="43.59667628356084" lon="12.481228120984015"><ele>560.0</ele><time>2026-04-18T08:00:53Z</time></trkpt><trkpt lat="43.596835635111184" lon="12.481231951579012"><ele>560.0</ele><time>2026-04-18T08:00:54Z</time></trkpt><trkpt lat="43.59698081171053" lon="12.481246794401056"><ele>560.0</ele><time>2026-04-18T08:00:55Z</time></trkpt><trkpt lat="43.597089016990225" lon="12.481249181984383"><ele>560.0</ele><time>2026-04-18T08:00:56Z</time></trkpt><trkpt lat="43.5971593537995" lon="12.4812496298854"><ele>560.0</ele><time>2026-04-18T08:00:57Z</time></trkpt><trkpt lat="43.597232993361" lon="12.481197700418212"><ele>560.0</ele><time>2026-04-18T08:00:59Z</time></trkpt><trkpt lat="43.59723815167427" lon="12.481063637088084"><ele>560.0</ele><time>2026-04-18T08:01:01Z</time></trkpt><trkpt lat="43.59719696926946" lon="12.480941233027139"><ele>560.0</ele><time>2026-04-18T08:01:03Z</time></trkpt><trkpt lat="43.5970590326379" lon="12.480908988241675"><ele>560.0</ele><time>2026-04-18T08:01:05Z</time></trkpt><trkpt lat="43.596928356033956" lon="12.480890125713758"><ele>560.0</ele><time>2026-04-18T08:01:07Z</time></trkpt><trkpt lat="43.59680711651207" lon="12.480866506642908"><ele>560.0</ele><time>2026-04-18T08:01:09Z</time></trkpt><trkpt lat="43.59672022343908" lon="12.480849578725561"><ele>560.0</ele><time>2026-04-18T08:01:10Z</time></trkpt><trkpt lat="43.596619290941746" lon="12.480829915730489"><ele>560.0</ele><time>2026-04-18T08:01:11Z</time></trkpt><trkpt lat="43.59649902107138" lon="12.480806485564536"><ele>560.0</ele><time>2026-04-18T08:01:12Z</time></trkpt><trkpt lat="43.596400714400104" lon="12.480787334123804"><ele>560.0</ele><time>2026-04-18T08:01:13Z</time></trkpt><trkpt lat="43.5962912276634" lon="12.480783272108537"><ele>560.0</ele><time>2026-04-18T08:01:14Z</time></trkpt><trkpt lat="43.59618181111049" lon="12.480753817779481"><ele>560.0</ele><time>2026-04-18T08:01:15Z</time></trkpt><trkpt lat="43.59609456152065" lon="12.480730532273947"><ele>560.0</ele><time>2026-04-18T08:01:16Z</time></trkpt><trkpt lat="43.59603324699614" lon="12.480695702763336"><ele>560.0</ele><time>2026-04-18T08:01:17Z</time></trkpt><trkpt lat="43.59598182249741" lon="12.4806408092426"><ele>560.0</ele><time>2026-04-18T08:01:18Z</time></trkpt><trkpt lat="43.595986830781904" lon="12.480500476139541"><ele>560.0</ele><time>2026-04-18T08:01:20Z</time></trkpt><trkpt lat="43.59607427835965" lon="12.480406784794507"><ele>560.0</ele><time>2026-04-18T08:01:22Z</time></trkpt><trkpt lat="43.59614180586083" lon="12.48040722454953"><ele>560.0</ele><time>2026-04-18T08:01:23Z</time></trkpt><trkpt lat="43.596230674544266" lon="12.480456018273074"><ele>560.0</ele><time>2026-04-18T08:01:24Z</time></trkpt><trkpt lat="43.596373578156815" lon="12.480451005852817"><ele>560.0</ele><time>2026-04-18T08:01:25Z</time></trkpt><trkpt lat="43.59652537666112" lon="12.48047590333622"><ele>560.0</ele><time>2026-04-18T08:01:26Z</time></trkpt><trkpt lat="43.59670869685769" lon="12.480479144945376"><ele>560.0</ele><time>2026-04-18T08:01:27Z</time></trkpt><trkpt lat="43.59688240318973" lon="12.480480655458416"><ele>560.0</ele><time>2026-04-18T08:01:28Z</time></trkpt><trkpt lat="43.59702924859217" lon="12.480492900064858"><ele>562.75</ele><time>2026-04-18T08:01:29Z</time></trkpt><trkpt lat="43.597153071037106" lon="12.480522784025712"><ele>565.5</ele><time>2026-04-18T08:01:30Z</time></trkpt><trkpt lat="43.59727767592632" lon="12.480578704366108"><ele>568.25</ele><time>2026-04-18T08:01:31Z</time></trkpt><trkpt lat="43.59739480360103" lon="12.480684013809235"><ele>571.0</ele><time>2026-04-18T08:01:32Z</time></trkpt><trkpt lat="43.59752853005461" lon="12.480730364634464"><ele>571.0</ele><time>2026-04-18T08:01:33Z</time></trkpt><trkpt lat="43.597641328961814" lon="12.480790482075657"><ele>571.0</ele><time>2026-04-18T08:01:34Z</time></trkpt><trkpt lat="43.5977436390407" lon="12.480826575788004"><ele>571.0</ele><time>2026-04-18T08:01:35Z</time></trkpt><trkpt lat="43.597818642440394" lon="12.480835495430616"><ele>571.0</ele><time>2026-04-18T08:01:36Z</time></trkpt><trkpt lat="43.59788787359978" lon="12.480811422887799"><ele>571.0</ele><time>2026-04-18T08:01:37Z</time></trkpt><trkpt lat="43.59796091527184" lon="12.4807523460787"><ele>573.6</ele><time>2026-04-18T08:01:38Z</time></trkpt><trkpt lat="43.59803368804575" lon="12.48067542994789"><ele>576.2</ele><time>2026-04-18T08:01:39Z</time></trkpt><trkpt lat="43.598095197194986" lon="12.480579503671855"><ele>578.8</ele><time>2026-04-18T08:01:40Z</time></trkpt><trkpt lat="43.59815861196459" lon="12.480470662872726"><ele>581.4</ele><time>2026-04-18T08:01:41Z</time></trkpt><trkpt lat="43.598247519287106" lon="12.48033909650787"><ele>584.0</ele><time>2026-04-18T08:01:42Z</time></trkpt><trkpt lat="43.598338378505716" lon="12.48023390693312"><ele>584.6</ele><time>2026-04-18T08:01:43Z</time></trkpt><trkpt lat="43.598441361259944" lon="12.480108484420668"><ele>585.2</ele><time>2026-04-18T08:01:45Z</time></trkpt><trkpt lat="43.59845802338868" lon="12.4799709307994"><ele>585.8000000000001</ele><time>2026-04-18T08:01:47Z</time></trkpt><trkpt lat="43.598463318529014" lon="12.479856488161797"><ele>586.4</ele><time>2026-04-18T08:01:48Z</time></trkpt><trkpt lat="43.598467684738715" lon="12.479714565104228"><ele>587.0</ele><time>2026-04-18T08:01:49Z</time></trkpt><trkpt lat="43.598465993365245" lon="12.479564628637482"><ele>588.0</ele><time>2026-04-18T08:01:50Z</time></trkpt><trkpt lat="43.59845984721625" lon="12.47938112965737"><ele>589.0</ele><time>2026-04-18T08:01:51Z</time></trkpt><trkpt lat="43.59848605608137" lon="12.479199863243327"><ele>590.0</ele><time>2026-04-18T08:01:52Z</time></trkpt><trkpt lat="43.598503935364086" lon="12.47900825209285"><ele>591.0</ele><time>2026-04-18T08:01:53Z</time></trkpt><trkpt lat="43.59852299818769" lon="12.478803669966787"><ele>591.25</ele><time>2026-04-18T08:01:54Z</time></trkpt><trkpt lat="43.59853833503737" lon="12.478616615153378"><ele>591.5</ele><time>2026-04-18T08:01:55Z</time></trkpt><trkpt lat="43.59855200767617" lon="12.478440279194944"><ele>591.75</ele><time>2026-04-18T08:01:56Z</time></trkpt><trkpt lat="43.5985638930963" lon="12.478275349355984"><ele>592.0</ele><time>2026-04-18T08:01:57Z</time></trkpt><trkpt lat="43.598571342984634" lon="12.478116689171417"><ele>592.0</ele><time>2026-04-18T08:01:58Z</time></trkpt><trkpt lat="43.598571396604406" lon="12.47796981900389"><ele>592.0</ele><time>2026-04-18T08:01:59Z</time></trkpt><trkpt lat="43.59855007828119" lon="12.477847030184762"><ele>592.0</ele><time>2026-04-18T08:02:00Z</time></trkpt><trkpt lat="43.5985446619365" lon="12.477703883166594"><ele>592.0</ele><time>2026-04-18T08:02:02Z</time></trkpt><trkpt lat="43.598510912004144" lon="12.477569031393536"><ele>592.0</ele><time>2026-04-18T08:02:04Z</time></trkpt><trkpt lat="43.598438533369496" lon="12.477527872287096"><ele>591.0</ele><time>2026-04-18T08:02:04.999Z</time></trkpt><trkpt lat="43.59838374474493" lon="12.477463082766292"><ele>590.0</ele><time>2026-04-18T08:02:05.999Z</time></trkpt><trkpt lat="43.59832246782728" lon="12.477396295914572"><ele>589.0</ele><time>2026-04-18T08:02:06.999Z</time></trkpt><trkpt lat="43.5982598864411" lon="12.477310108949741"><ele>588.0</ele><time>2026-04-18T08:02:07.999Z</time></trkpt><trkpt lat="43.59820979973435" lon="12.47720583310787"><ele>587.0</ele><time>2026-04-18T08:02:08.999Z</time></trkpt><trkpt lat="43.598164992688474" lon="12.477086033451052"><ele>586.0</ele><time>2026-04-18T08:02:09.999Z</time></trkpt><trkpt lat="43.59812439019212" lon="12.476981688837528"><ele>587.0</ele><time>2026-04-18T08:02:10.999Z</time></trkpt><trkpt lat="43.59807547248092" lon="12.476904833676425"><ele>588.0</ele><time>2026-04-18T08:02:11.999Z</time></trkpt><trkpt lat="43.59800959723964" lon="12.476856663198937"><ele>589.0</ele><time>2026-04-18T08:02:12.999Z</time></trkpt><trkpt lat="43.597936754276645" lon="12.476796331743639"><ele>590.0</ele><time>2026-04-18T08:02:13.999Z</time></trkpt><trkpt lat="43.597864236450306" lon="12.47670820015973"><ele>591.0</ele><time>2026-04-18T08:02:14.999Z</time></trkpt><trkpt lat="43.597831190121575" lon="12.476588515888603"><ele>592.0</ele><time>2026-04-18T08:02:15.999Z</time></trkpt><trkpt lat="43.59778099632144" lon="12.476471299976513"><ele>592.0</ele><time>2026-04-18T08:02:16.999Z</time></trkpt><trkpt lat="43.59775634150999" lon="12.476344863759472"><ele>592.0</ele><time>2026-04-18T08:02:17.999Z</time></trkpt><trkpt lat="43.59773117019279" lon="12.476238741099534"><ele>592.0</ele><time>2026-04-18T08:02:18.999Z</time></trkpt><trkpt lat="43.59769873792536" lon="12.476163332502937"><ele>592.0</ele><time>2026-04-18T08:02:19.999Z</time></trkpt><trkpt lat="43.59761999127623" lon="12.476096135393272"><ele>592.0</ele><time>2026-04-18T08:02:21.999Z</time></trkpt><trkpt lat="43.5975154641972" lon="12.476121223754616"><ele>592.0</ele><time>2026-04-18T08:02:23.999Z</time></trkpt><trkpt lat="43.59744086675339" lon="12.476152887883144"><ele>592.2</ele><time>2026-04-18T08:02:24.999Z</time></trkpt><trkpt lat="43.597352826179836" lon="12.476184951659814"><ele>592.4000000000001</ele><time>2026-04-18T08:02:25.999Z</time></trkpt><trkpt lat="43.59725190497807" lon="12.476194118646651"><ele>592.5999999999999</ele><time>2026-04-18T08:02:26.999Z</time></trkpt><trkpt lat="43.59715308478448" lon="12.476220610854497"><ele>592.8</ele><time>2026-04-18T08:02:27.999Z</time></trkpt><trkpt lat="43.597049361738854" lon="12.47624783615036"><ele>593.0</ele><time>2026-04-18T08:02:28.999Z</time></trkpt><trkpt lat="43.59694464092158" lon="12.476273484168669"><ele>593.0</ele><time>2026-04-18T08:02:29.999Z</time></trkpt><trkpt lat="43.59685200212854" lon="12.476295145872674"><ele>593.0</ele><time>2026-04-18T08:02:30.999Z</time></trkpt><trkpt lat="43.59675698216238" lon="12.476314192855174"><ele>593.0</ele><time>2026-04-18T08:02:31.999Z</time></trkpt><trkpt lat="43.596671683120256" lon="12.476323987333531"><ele>593.0</ele><time>2026-04-18T08:02:32.999Z</time></trkpt><trkpt lat="43.59658495361479" lon="12.47632619184119"><ele>593.0</ele><time>2026-04-18T08:02:33.999Z</time></trkpt><trkpt lat="43.59652116893077" lon="12.476257385705912"><ele>593.0</ele><time>2026-04-18T08:02:34.999Z</time></trkpt><trkpt lat="43.59644838479487" lon="12.476218232328106"><ele>589.9999999999999</ele><time>2026-04-18T08:02:35.999Z</time></trkpt><trkpt lat="43.59639138234452" lon="12.476133111930963"><ele>587.0</ele><time>2026-04-18T08:02:36.999Z</time></trkpt><trkpt lat="43.59637631856384" lon="12.476035214006702"><ele>584.0</ele><time>2026-04-18T08:02:37.999Z</time></trkpt><trkpt lat="43.59638979753794" lon="12.475947627544867"><ele>581.0</ele><time>2026-04-18T08:02:38.999Z</time></trkpt><trkpt lat="43.59642867760589" lon="12.47586441584892"><ele>578.0</ele><time>2026-04-18T08:02:39.999Z</time></trkpt><trkpt lat="43.59647835339621" lon="12.475794458328211"><ele>574.9999999999999</ele><time>2026-04-18T08:02:40.999Z</time></trkpt><trkpt lat="43.596535301633494" lon="12.475720615033215"><ele>572.0</ele><time>2026-04-18T08:02:41.999Z</time></trkpt><trkpt lat="43.59658340514509" lon="12.475648867959295"><ele>572.0</ele><time>2026-04-18T08:02:42.999Z</time></trkpt><trkpt lat="43.59663008683994" lon="12.475497512267644"><ele>572.0</ele><time>2026-04-18T08:02:44.999Z</time></trkpt><trkpt lat="43.59662998508391" lon="12.47531710333475"><ele>572.0</ele><time>2026-04-18T08:02:46.999Z</time></trkpt><trkpt lat="43.59661864578524" lon="12.475210714145012"><ele>572.0</ele><time>2026-04-18T08:02:47.999Z</time></trkpt><trkpt lat="43.5966025659483" lon="12.475090553350805"><ele>572.0</ele><time>2026-04-18T08:02:48.999Z</time></trkpt><trkpt lat="43.5965869065645" lon="12.474970069054057"><ele>572.2</ele><time>2026-04-18T08:02:49.999Z</time></trkpt><trkpt lat="43.596560805069075" lon="12.474846500482192"><ele>572.4000000000001</ele><time>2026-04-18T08:02:50.999Z</time></trkpt><trkpt lat="43.5965394942357" lon="12.474709165789697"><ele>572.5999999999999</ele><time>2026-04-18T08:02:51.999Z</time></trkpt><trkpt lat="43.596530874076294" lon="12.474572748864977"><ele>572.8</ele><time>2026-04-18T08:02:52.999Z</time></trkpt><trkpt lat="43.59653003898822" lon="12.474421078241178"><ele>573.0</ele><time>2026-04-18T08:02:53.999Z</time></trkpt><trkpt lat="43.59654579149406" lon="12.474267350209002"><ele>573.0</ele><time>2026-04-18T08:02:54.999Z</time></trkpt><trkpt lat="43.596567828682694" lon="12.474102399806767"><ele>573.0</ele><time>2026-04-18T08:02:55.999Z</time></trkpt><trkpt lat="43.5965862901742" lon="12.473927052189914"><ele>573.0</ele><time>2026-04-18T08:02:56.999Z</time></trkpt><trkpt lat="43.59659456791152" lon="12.47376709604239"><ele>573.0</ele><time>2026-04-18T08:02:57.999Z</time></trkpt><trkpt lat="43.596589329235755" lon="12.473614295958152"><ele>573.1666666666666</ele><time>2026-04-18T08:02:58.999Z</time></trkpt><trkpt lat="43.59657549186459" lon="12.473470005245913"><ele>573.3333333333334</ele><time>2026-04-18T08:02:59.999Z</time></trkpt><trkpt lat="43.59656905889456" lon="12.473353005831912"><ele>573.5</ele><time>2026-04-18T08:03:00.999Z</time></trkpt><trkpt lat="43.59656492232781" lon="12.4732636753896"><ele>573.6666666666667</ele><time>2026-04-18T08:03:01.999Z</time></trkpt><trkpt lat="43.596580884892134" lon="12.473166243865165"><ele>573.8333333333334</ele><time>2026-04-18T08:03:02.999Z</time></trkpt><trkpt lat="43.596631630972325" lon="12.473074285358651"><ele>574.0</ele><time>2026-04-18T08:03:03.999Z</time></trkpt><trkpt lat="43.59669649499006" lon="12.47300709598523"><ele>574.0</ele><time>2026-04-18T08:03:04.999Z</time></trkpt><trkpt lat="43.59677301876263" lon="12.472939328588659"><ele>574.0</ele><time>2026-04-18T08:03:05.999Z</time></trkpt><trkpt lat="43.596833203440156" lon="12.472869876588685"><ele>574.0</ele><time>2026-04-18T08:03:06.999Z</time></trkpt><trkpt lat="43.59686312976904" lon="12.472728992576643"><ele>574.0</ele><time>2026-04-18T08:03:08.999Z</time></trkpt><trkpt lat="43.59683602532831" lon="12.472621608454736"><ele>574.0</ele><time>2026-04-18T08:03:10.999Z</time></trkpt><trkpt lat="43.596802921385155" lon="12.47254223938563"><ele>574.0</ele><time>2026-04-18T08:03:11.999Z</time></trkpt><trkpt lat="43.596762566435444" lon="12.472444330808566"><ele>573.2</ele><time>2026-04-18T08:03:12.999Z</time></trkpt><trkpt lat="43.59671445145569" lon="12.47232147425242"><ele>572.4</ele><time>2026-04-18T08:03:13.999Z</time></trkpt><trkpt lat="43.59667325278658" lon="12.472201094599829"><ele>571.6</ele><time>2026-04-18T08:03:14.999Z</time></trkpt><trkpt lat="43.59665877603681" lon="12.472063479619257"><ele>570.8</ele><time>2026-04-18T08:03:15.999Z</time></trkpt><trkpt lat="43.59667647809413" lon="12.471936009822869"><ele>570.0</ele><time>2026-04-18T08:03:16.999Z</time></trkpt><trkpt lat="43.596730174410524" lon="12.471817900077282"><ele>570.0</ele><time>2026-04-18T08:03:17.999Z</time></trkpt><trkpt lat="43.59677003419402" lon="12.471652220418555"><ele>570.0</ele><time>2026-04-18T08:03:18.999Z</time></trkpt><trkpt lat="43.59682433811932" lon="12.471500603541203"><ele>570.0</ele><time>2026-04-18T08:03:19.999Z</time></trkpt><trkpt lat="43.59687686625087" lon="12.471336352541627"><ele>570.0</ele><time>2026-04-18T08:03:20.999Z</time></trkpt><trkpt lat="43.59692713921382" lon="12.4711832901429"><ele>572.75</ele><time>2026-04-18T08:03:21.999Z</time></trkpt><trkpt lat="43.59697606348279" lon="12.47102569000515"><ele>575.5</ele><time>2026-04-18T08:03:22.999Z</time></trkpt><trkpt lat="43.59701914362021" lon="12.4708710307119"><ele>578.25</ele><time>2026-04-18T08:03:23.999Z</time></trkpt><trkpt lat="43.59706525135913" lon="12.470715846100136"><ele>581.0</ele><time>2026-04-18T08:03:24.999Z</time></trkpt><trkpt lat="43.597118495479016" lon="12.470557811041463"><ele>576.2</ele><time>2026-04-18T08:03:25.999Z</time></trkpt><trkpt lat="43.59716955354053" lon="12.470414818953186"><ele>571.4000000000001</ele><time>2026-04-18T08:03:26.999Z</time></trkpt><trkpt lat="43.597215117641326" lon="12.470314724534376"><ele>566.6</ele><time>2026-04-18T08:03:27.999Z</time></trkpt><trkpt lat="43.597246258726145" lon="12.470213852493364"><ele>561.8000000000001</ele><time>2026-04-18T08:03:28.999Z</time></trkpt><trkpt lat="43.59724779284986" lon="12.470123680324436"><ele>557.0</ele><time>2026-04-18T08:03:29.999Z</time></trkpt><trkpt lat="43.597199805161196" lon="12.469953346050309"><ele>557.0</ele><time>2026-04-18T08:03:31.999Z</time></trkpt><trkpt lat="43.59715438929536" lon="12.469873771408968"><ele>557.0</ele><time>2026-04-18T08:03:32.999Z</time></trkpt><trkpt lat="43.5971031022869" lon="12.469782488558486"><ele>557.0</ele><time>2026-04-18T08:03:33.999Z</time></trkpt><trkpt lat="43.59705219407541" lon="12.469683211770471"><ele>557.0</ele><time>2026-04-18T08:03:34.999Z</time></trkpt><trkpt lat="43.596999996617704" lon="12.469583211458284"><ele>557.0</ele><time>2026-04-18T08:03:35.999Z</time></trkpt><trkpt lat="43.596972087676605" lon="12.4694573632802"><ele>557.0</ele><time>2026-04-18T08:03:36.999Z</time></trkpt><trkpt lat="43.59695207781254" lon="12.469357440395406"><ele>558.3333333333333</ele><time>2026-04-18T08:03:37.999Z</time></trkpt><trkpt lat="43.59696404138691" lon="12.469256356325745"><ele>559.6666666666666</ele><time>2026-04-18T08:03:38.999Z</time></trkpt><trkpt lat="43.59697135356493" lon="12.469143850821007"><ele>561.0</ele><time>2026-04-18T08:03:39.999Z</time></trkpt><trkpt lat="43.59700197440905" lon="12.469031227433273"><ele>562.3333333333334</ele><time>2026-04-18T08:03:40.999Z</time></trkpt><trkpt lat="43.597029774172775" lon="12.46890232634444"><ele>563.6666666666667</ele><time>2026-04-18T08:03:41.999Z</time></trkpt><trkpt lat="43.597071604004526" lon="12.468790580240624"><ele>565.0</ele><time>2026-04-18T08:03:42.999Z</time></trkpt><trkpt lat="43.59711271423828" lon="12.468683858667726"><ele>566.0</ele><time>2026-04-18T08:03:43.999Z</time></trkpt><trkpt lat="43.59711199616503" lon="12.468535845477602"><ele>567.0</ele><time>2026-04-18T08:03:44.999Z</time></trkpt><trkpt lat="43.597156466598086" lon="12.468394015269636"><ele>568.0</ele><time>2026-04-18T08:03:45.999Z</time></trkpt><trkpt lat="43.59717884723579" lon="12.46826063134171"><ele>569.0</ele><time>2026-04-18T08:03:46.999Z</time></trkpt><trkpt lat="43.597188672675934" lon="12.46812338511084"><ele>570.0</ele><time>2026-04-18T08:03:47.999Z</time></trkpt><trkpt lat="43.59719511177907" lon="12.467975664630492"><ele>572.4</ele><time>2026-04-18T08:03:48.999Z</time></trkpt><trkpt lat="43.5971796878371" lon="12.467830969961419"><ele>574.8</ele><time>2026-04-18T08:03:49.999Z</time></trkpt><trkpt lat="43.597182501335276" lon="12.467702393173258"><ele>577.2</ele><time>2026-04-18T08:03:50.999Z</time></trkpt><trkpt lat="43.59721126545922" lon="12.467579555505452"><ele>579.6</ele><time>2026-04-18T08:03:51.999Z</time></trkpt><trkpt lat="43.597246735864495" lon="12.467467320074455"><ele>582.0</ele><time>2026-04-18T08:03:52.999Z</time></trkpt><trkpt lat="43.59726708372073" lon="12.467370782497849"><ele>582.0</ele><time>2026-04-18T08:03:53.999Z</time></trkpt><trkpt lat="43.5972853107284" lon="12.46727295750439"><ele>582.0</ele><time>2026-04-18T08:03:55.999Z</time></trkpt><trkpt lat="43.597244406068945" lon="12.467202693602395"><ele>582.0</ele><time>2026-04-18T08:03:57.999Z</time></trkpt><trkpt lat="43.597135227475995" lon="12.467081830375271"><ele>582.0</ele><time>2026-04-18T08:03:59.999Z</time></trkpt><trkpt lat="43.59707081869709" lon="12.466990837661458"><ele>582.0</ele><time>2026-04-18T08:04:00.999Z</time></trkpt><trkpt lat="43.597012554298615" lon="12.466937292064454"><ele>582.0</ele><time>2026-04-18T08:04:01.999Z</time></trkpt><trkpt lat="43.59692971553741" lon="12.466908053188954"><ele>589.0</ele><time>2026-04-18T08:04:03.999Z</time></trkpt><trkpt lat="43.59673624758672" lon="12.466881477976305"><ele>596.0</ele><time>2026-04-18T08:04:06.999Z</time></trkpt><trkpt lat="43.596639272948295" lon="12.466851865925989"><ele>603.0</ele><time>2026-04-18T08:04:08.999Z</time></trkpt><trkpt lat="43.596564053208404" lon="12.466707165359344"><ele>610.0</ele><time>2026-04-18T08:04:10.999Z</time></trkpt><trkpt lat="43.59652141400232" lon="12.466594341401608"><ele>610.0</ele><time>2026-04-18T08:04:11.999Z</time></trkpt><trkpt lat="43.596494336504435" lon="12.46647242301332"><ele>610.0</ele><time>2026-04-18T08:04:12.999Z</time></trkpt><trkpt lat="43.59647610648738" lon="12.46634195541577"><ele>610.0</ele><time>2026-04-18T08:04:13.999Z</time></trkpt><trkpt lat="43.596471020169794" lon="12.46623025323922"><ele>610.0</ele><time>2026-04-18T08:04:14.999Z</time></trkpt><trkpt lat="43.596450884419816" lon="12.466127133364761"><ele>610.0</ele><time>2026-04-18T08:04:15.999Z</time></trkpt><trkpt lat="43.5964158143619" lon="12.46605339966929"><ele>610.0</ele><time>2026-04-18T08:04:16.999Z</time></trkpt><trkpt lat="43.59636083348353" lon="12.466007757607901"><ele>610.4</ele><time>2026-04-18T08:04:17.999Z</time></trkpt><trkpt lat="43.59624688102868" lon="12.465948641813249"><ele>610.8</ele><time>2026-04-18T08:04:19.999Z</time></trkpt><trkpt lat="43.59617434283879" lon="12.465928074812428"><ele>611.2</ele><time>2026-04-18T08:04:20.999Z</time></trkpt><trkpt lat="43.59609697653946" lon="12.46593161586956"><ele>611.6</ele><time>2026-04-18T08:04:21.999Z</time></trkpt><trkpt lat="43.59599989343801" lon="12.465937195222972"><ele>612.0</ele><time>2026-04-18T08:04:22.999Z</time></trkpt><trkpt lat="43.595885530229154" lon="12.465925448479773"><ele>612.0</ele><time>2026-04-18T08:04:23.999Z</time></trkpt><trkpt lat="43.59578693743115" lon="12.465855538709945"><ele>612.0</ele><time>2026-04-18T08:04:24.999Z</time></trkpt><trkpt lat="43.59569622491799" lon="12.465779614694839"><ele>612.0</ele><time>2026-04-18T08:04:25.999Z</time></trkpt><trkpt lat="43.59560879305523" lon="12.465752077494871"><ele>612.0</ele><time>2026-04-18T08:04:26.999Z</time></trkpt><trkpt lat="43.59554227583172" lon="12.4657097881561"><ele>612.0</ele><time>2026-04-18T08:04:27.999Z</time></trkpt><trkpt lat="43.59542817871448" lon="12.465724068369841"><ele>612.0</ele><time>2026-04-18T08:04:29.999Z</time></trkpt><trkpt lat="43.59536747148665" lon="12.465766896506855"><ele>612.0</ele><time>2026-04-18T08:04:30.999Z</time></trkpt><trkpt lat="43.59529038402252" lon="12.465818932122067"><ele>612.0</ele><time>2026-04-18T08:04:31.999Z</time></trkpt><trkpt lat="43.595198402876285" lon="12.465869480477432"><ele>612.0</ele><time>2026-04-18T08:04:32.999Z</time></trkpt><trkpt lat="43.59510602555648" lon="12.465900983633269"><ele>612.0</ele><time>2026-04-18T08:04:33.999Z</time></trkpt><trkpt lat="43.595003976602214" lon="12.465901437444053"><ele>612.0</ele><time>2026-04-18T08:04:34.999Z</time></trkpt><trkpt lat="43.594900649597705" lon="12.465888091722272"><ele>612.0</ele><time>2026-04-18T08:04:35.999Z</time></trkpt><trkpt lat="43.59480307845864" lon="12.465901322390566"><ele>612.0</ele><time>2026-04-18T08:04:36.999Z</time></trkpt><trkpt lat="43.59472721997644" lon="12.465900764586431"><ele>612.0</ele><time>2026-04-18T08:04:37.999Z</time></trkpt><trkpt lat="43.59466468638256" lon="12.465929720352197"><ele>612.0</ele><time>2026-04-18T08:04:38.999Z</time></trkpt><trkpt lat="43.59459390411173" lon="12.465991063780063"><ele>612.0</ele><time>2026-04-18T08:04:39.999Z</time></trkpt><trkpt lat="43.5945044815726" lon="12.46604042035195"><ele>612.0</ele><time>2026-04-18T08:04:40.999Z</time></trkpt><trkpt lat="43.594416715613775" lon="12.466116156616655"><ele>612.0</ele><time>2026-04-18T08:04:41.999Z</time></trkpt><trkpt lat="43.59431483927536" lon="12.46620663003055"><ele>612.0</ele><time>2026-04-18T08:04:42.999Z</time></trkpt><trkpt lat="43.59421137551639" lon="12.466300500077605"><ele>612.0</ele><time>2026-04-18T08:04:43.999Z</time></trkpt><trkpt lat="43.59412110280753" lon="12.466379278689418"><ele>612.0</ele><time>2026-04-18T08:04:44.999Z</time></trkpt><trkpt lat="43.59405010126797" lon="12.466439759563682"><ele>612.0</ele><time>2026-04-18T08:04:45.999Z</time></trkpt><trkpt lat="43.593992423006156" lon="12.466480892655731"><ele>612.0</ele><time>2026-04-18T08:04:46.999Z</time></trkpt><trkpt lat="43.593892975933315" lon="12.466477211514944"><ele>612.0</ele><time>2026-04-18T08:04:48.999Z</time></trkpt><trkpt lat="43.59381257538023" lon="12.466339138681658"><ele>612.0</ele><time>2026-04-18T08:04:50.999Z</time></trkpt><trkpt lat="43.593780389117455" lon="12.466257574347363"><ele>612.0</ele><time>2026-04-18T08:04:51.999Z</time></trkpt><trkpt lat="43.59373766428732" lon="12.466169026056637"><ele>612.0</ele><time>2026-04-18T08:04:52.999Z</time></trkpt><trkpt lat="43.59371696156876" lon="12.466056939255846"><ele>612.0</ele><time>2026-04-18T08:04:53.999Z</time></trkpt><trkpt lat="43.59371383892817" lon="12.465916950992838"><ele>612.0</ele><time>2026-04-18T08:04:54.999Z</time></trkpt><trkpt lat="43.593753250134405" lon="12.465814459781166"><ele>612.0</ele><time>2026-04-18T08:04:55.999Z</time></trkpt><trkpt lat="43.593768264343325" lon="12.465693125855475"><ele>612.0</ele><time>2026-04-18T08:04:56.999Z</time></trkpt><trkpt lat="43.59379994130795" lon="12.465573813019232"><ele>612.0</ele><time>2026-04-18T08:04:57.999Z</time></trkpt><trkpt lat="43.593821497774414" lon="12.465455152510131"><ele>612.0</ele><time>2026-04-18T08:04:58.999Z</time></trkpt><trkpt lat="43.593842248983094" lon="12.465331406954606"><ele>612.0</ele><time>2026-04-18T08:04:59.999Z</time></trkpt><trkpt lat="43.59385686476057" lon="12.465235931076187"><ele>612.0</ele><time>2026-04-18T08:05:00.999Z</time></trkpt><trkpt lat="43.593869868560574" lon="12.46510693416047"><ele>612.0</ele><time>2026-04-18T08:05:02.999Z</time></trkpt><trkpt lat="43.593857113156176" lon="12.46501994588905"><ele>612.0</ele><time>2026-04-18T08:05:05.999Z</time></trkpt><trkpt lat="43.593789357941446" lon="12.465030412240498"><ele>611.8000000000001</ele><time>2026-04-18T08:05:15.999Z</time></trkpt><trkpt lat="43.59369294603342" lon="12.465039931776316"><ele>611.6</ele><time>2026-04-18T08:05:18.999Z</time></trkpt><trkpt lat="43.593578209050904" lon="12.465043310485845"><ele>611.4000000000001</ele><time>2026-04-18T08:05:20.999Z</time></trkpt><trkpt lat="43.59350801686654" lon="12.465004578990134"><ele>611.2</ele><time>2026-04-18T08:05:21.999Z</time></trkpt><trkpt lat="43.5934090737125" lon="12.4649821605003"><ele>611.0</ele><time>2026-04-18T08:05:22.999Z</time></trkpt><trkpt lat="43.59330860884463" lon="12.464983302627054"><ele>615.4</ele><time>2026-04-18T08:05:23.999Z</time></trkpt><trkpt lat="43.59319632652947" lon="12.46495995493695"><ele>619.8</ele><time>2026-04-18T08:05:24.999Z</time></trkpt><trkpt lat="43.59308403717398" lon="12.464919966857153"><ele>624.1999999999999</ele><time>2026-04-18T08:05:25.999Z</time></trkpt><trkpt lat="43.5929683359457" lon="12.464903622534866"><ele>628.6</ele><time>2026-04-18T08:05:26.999Z</time></trkpt><trkpt lat="43.59286946599597" lon="12.464868693036527"><ele>633.0</ele><time>2026-04-18T08:05:27.999Z</time></trkpt><trkpt lat="43.592784921161055" lon="12.464852423966349"><ele>633.1999999999999</ele><time>2026-04-18T08:05:28.999Z</time></trkpt><trkpt lat="43.592676965001836" lon="12.464825596391922"><ele>633.4</ele><time>2026-04-18T08:05:29.999Z</time></trkpt><trkpt lat="43.59258505352539" lon="12.464811638419448"><ele>633.5999999999999</ele><time>2026-04-18T08:05:30.999Z</time></trkpt><trkpt lat="43.5924894083626" lon="12.46481016921072"><ele>633.8</ele><time>2026-04-18T08:05:31.999Z</time></trkpt><trkpt lat="43.592383236438664" lon="12.464809044321889"><ele>634.0</ele><time>2026-04-18T08:05:32.999Z</time></trkpt><trkpt lat="43.59226244330766" lon="12.464821154954121"><ele>634.0</ele><time>2026-04-18T08:05:33.999Z</time></trkpt><trkpt lat="43.59214528624713" lon="12.464852971313805"><ele>634.0</ele><time>2026-04-18T08:05:34.999Z</time></trkpt><trkpt lat="43.59201758781906" lon="12.464847651394328"><ele>634.0</ele><time>2026-04-18T08:05:35.999Z</time></trkpt><trkpt lat="43.59189534602993" lon="12.464841056520577"><ele>634.0</ele><time>2026-04-18T08:05:36.999Z</time></trkpt><trkpt lat="43.59179440712373" lon="12.464816025205605"><ele>634.0</ele><time>2026-04-18T08:05:37.999Z</time></trkpt><trkpt lat="43.59169636226119" lon="12.464762766606231"><ele>634.0</ele><time>2026-04-18T08:05:38.999Z</time></trkpt><trkpt lat="43.59159555233991" lon="12.464722024406177"><ele>634.0</ele><time>2026-04-18T08:05:39.999Z</time></trkpt><trkpt lat="43.59149583452451" lon="12.464657290693536"><ele>634.0</ele><time>2026-04-18T08:05:40.999Z</time></trkpt><trkpt lat="43.591392958635794" lon="12.46458699980034"><ele>634.0</ele><time>2026-04-18T08:05:41.999Z</time></trkpt><trkpt lat="43.59129472613827" lon="12.464513678229373"><ele>630.6</ele><time>2026-04-18T08:05:42.999Z</time></trkpt><trkpt lat="43.59120201897388" lon="12.464446181800586"><ele>627.2</ele><time>2026-04-18T08:05:43.999Z</time></trkpt><trkpt lat="43.59110756515567" lon="12.464400507103408"><ele>623.8000000000001</ele><time>2026-04-18T08:05:44.999Z</time></trkpt><trkpt lat="43.59101974741883" lon="12.46437332379009"><ele>620.4</ele><time>2026-04-18T08:05:45.999Z</time></trkpt><trkpt lat="43.590927716452235" lon="12.464358710435596"><ele>617.0</ele><time>2026-04-18T08:05:46.999Z</time></trkpt><trkpt lat="43.590831446985014" lon="12.46435389873128"><ele>617.0</ele><time>2026-04-18T08:05:47.999Z</time></trkpt><trkpt lat="43.59075157599622" lon="12.464370472372615"><ele>617.0</ele><time>2026-04-18T08:05:48.999Z</time></trkpt><trkpt lat="43.590665043391034" lon="12.464402049022592"><ele>617.0</ele><time>2026-04-18T08:05:49.999Z</time></trkpt><trkpt lat="43.59057275123679" lon="12.464442375303014"><ele>617.0</ele><time>2026-04-18T08:05:50.999Z</time></trkpt><trkpt lat="43.590483788034895" lon="12.464487322617181"><ele>617.0</ele><time>2026-04-18T08:05:51.999Z</time></trkpt><trkpt lat="43.590409587445265" lon="12.464538745670948"><ele>617.0</ele><time>2026-04-18T08:05:52.999Z</time></trkpt><trkpt lat="43.590338654440515" lon="12.464601520653206"><ele>620.0</ele><time>2026-04-18T08:05:53.999Z</time></trkpt><trkpt lat="43.59027596681148" lon="12.464671026533352"><ele>623.0</ele><time>2026-04-18T08:05:54.999Z</time></trkpt><trkpt lat="43.590199461599234" lon="12.46474161888838"><ele>626.0</ele><time>2026-04-18T08:05:55.999Z</time></trkpt><trkpt lat="43.590143362148304" lon="12.464836574274944"><ele>629.0</ele><time>2026-04-18T08:05:56.999Z</time></trkpt><trkpt lat="43.59008554892869" lon="12.4649317866847"><ele>632.0</ele><time>2026-04-18T08:05:57.999Z</time></trkpt><trkpt lat="43.59003249594407" lon="12.465008969691981"><ele>635.0</ele><time>2026-04-18T08:05:58.999Z</time></trkpt><trkpt lat="43.58994829200231" lon="12.46505747348788"><ele>635.0</ele><time>2026-04-18T08:06:00.999Z</time></trkpt><trkpt lat="43.58987722100576" lon="12.464908344909006"><ele>635.0</ele><time>2026-04-18T08:06:02.999Z</time></trkpt><trkpt lat="43.589821222104035" lon="12.464833610483689"><ele>635.0</ele><time>2026-04-18T08:06:03.999Z</time></trkpt><trkpt lat="43.58978011265913" lon="12.464767741387439"><ele>635.0</ele><time>2026-04-18T08:06:04.999Z</time></trkpt><trkpt lat="43.5896935914317" lon="12.4647204251627"><ele>635.0</ele><time>2026-04-18T08:06:06.999Z</time></trkpt><trkpt lat="43.589629594540284" lon="12.46475710485764"><ele>635.0</ele><time>2026-04-18T08:06:07.999Z</time></trkpt><trkpt lat="43.58955945148653" lon="12.464782951436208"><ele>634.0</ele><time>2026-04-18T08:06:08.999Z</time></trkpt><trkpt lat="43.58947582989288" lon="12.464811664937137"><ele>633.0</ele><time>2026-04-18T08:06:09.999Z</time></trkpt><trkpt lat="43.58938253941649" lon="12.46481989080325"><ele>632.0</ele><time>2026-04-18T08:06:10.999Z</time></trkpt><trkpt lat="43.589282977119616" lon="12.464851774797161"><ele>631.0</ele><time>2026-04-18T08:06:11.999Z</time></trkpt><trkpt lat="43.58918466512386" lon="12.464933076183426"><ele>630.0</ele><time>2026-04-18T08:06:12.999Z</time></trkpt><trkpt lat="43.589078602652044" lon="12.46496155974334"><ele>630.0</ele><time>2026-04-18T08:06:13.999Z</time></trkpt><trkpt lat="43.58895925181435" lon="12.465009086929216"><ele>630.0</ele><time>2026-04-18T08:06:14.999Z</time></trkpt><trkpt lat="43.58883818873576" lon="12.465032192955581"><ele>630.0</ele><time>2026-04-18T08:06:15.999Z</time></trkpt><trkpt lat="43.588713544136795" lon="12.465043970252113"><ele>630.0</ele><time>2026-04-18T08:06:16.999Z</time></trkpt><trkpt lat="43.58859016354034" lon="12.465052579089836"><ele>629.8</ele><time>2026-04-18T08:06:17.999Z</time></trkpt><trkpt lat="43.588476448176564" lon="12.46505026015298"><ele>629.6</ele><time>2026-04-18T08:06:18.999Z</time></trkpt><trkpt lat="43.58836214462723" lon="12.465055229138912"><ele>629.4</ele><time>2026-04-18T08:06:19.999Z</time></trkpt><trkpt lat="43.58826501679884" lon="12.46501720916088"><ele>629.2</ele><time>2026-04-18T08:06:20.999Z</time></trkpt><trkpt lat="43.58818225206609" lon="12.465040935858687"><ele>629.0</ele><time>2026-04-18T08:06:21.999Z</time></trkpt><trkpt lat="43.58810394620511" lon="12.465050893545419"><ele>629.0</ele><time>2026-04-18T08:06:22.999Z</time></trkpt><trkpt lat="43.58801487947728" lon="12.465072111343519"><ele>629.0</ele><time>2026-04-18T08:06:23.999Z</time></trkpt><trkpt lat="43.5879141425911" lon="12.465100878280335"><ele>629.0</ele><time>2026-04-18T08:06:24.999Z</time></trkpt><trkpt lat="43.587811559296554" lon="12.46511770414453"><ele>629.0</ele><time>2026-04-18T08:06:25.999Z</time></trkpt><trkpt lat="43.587710766021715" lon="12.465098323365208"><ele>629.0</ele><time>2026-04-18T08:06:26.999Z</time></trkpt><trkpt lat="43.58763019328569" lon="12.465039624108247"><ele>628.8</ele><time>2026-04-18T08:06:27.999Z</time></trkpt><trkpt lat="43.58754252214313" lon="12.464955461141805"><ele>628.5999999999999</ele><time>2026-04-18T08:06:28.999Z</time></trkpt><trkpt lat="43.587459597142534" lon="12.464873373224355"><ele>628.4</ele><time>2026-04-18T08:06:29.999Z</time></trkpt><trkpt lat="43.58737929193189" lon="12.464813715723723"><ele>628.1999999999999</ele><time>2026-04-18T08:06:30.999Z</time></trkpt><trkpt lat="43.58729596369362" lon="12.464779321375502"><ele>628.0</ele><time>2026-04-18T08:06:31.999Z</time></trkpt><trkpt lat="43.587217059510486" lon="12.464765165519028"><ele>628.0</ele><time>2026-04-18T08:06:32.999Z</time></trkpt><trkpt lat="43.5871402243649" lon="12.46477145281951"><ele>628.0</ele><time>2026-04-18T08:06:33.999Z</time></trkpt><trkpt lat="43.587070636566224" lon="12.4648069651587"><ele>628.0</ele><time>2026-04-18T08:06:34.999Z</time></trkpt><trkpt lat="43.58700191103476" lon="12.464862617826082"><ele>628.0</ele><time>2026-04-18T08:06:35.999Z</time></trkpt><trkpt lat="43.586937806776795" lon="12.46493936369646"><ele>628.0</ele><time>2026-04-18T08:06:36.999Z</time></trkpt><trkpt lat="43.586857118396765" lon="12.464998667228512"><ele>628.0</ele><time>2026-04-18T08:06:37.999Z</time></trkpt><trkpt lat="43.58679391241051" lon="12.465048183634885"><ele>627.6</ele><time>2026-04-18T08:06:38.999Z</time></trkpt><trkpt lat="43.58668143218172" lon="12.465080475995606"><ele>627.1999999999999</ele><time>2026-04-18T08:06:40.999Z</time></trkpt><trkpt lat="43.58660875766736" lon="12.464990845498708"><ele>626.8</ele><time>2026-04-18T08:06:42.999Z</time></trkpt><trkpt lat="43.586601230813734" lon="12.464874211758719"><ele>626.4</ele><time>2026-04-18T08:06:44.999Z</time></trkpt><trkpt lat="43.586631456906524" lon="12.464780396550916"><ele>626.0</ele><time>2026-04-18T08:06:46.999Z</time></trkpt><trkpt lat="43.58670630885442" lon="12.464720143545343"><ele>626.0</ele><time>2026-04-18T08:06:48.999Z</time></trkpt><trkpt lat="43.586772109600346" lon="12.464719500545518"><ele>626.0</ele><time>2026-04-18T08:06:49.999Z</time></trkpt><trkpt lat="43.58684147687206" lon="12.464688576136302"><ele>626.0</ele><time>2026-04-18T08:06:50.999Z</time></trkpt><trkpt lat="43.5869183224585" lon="12.464682576917038"><ele>626.0</ele><time>2026-04-18T08:06:51.999Z</time></trkpt><trkpt lat="43.58698387275862" lon="12.464661319202145"><ele>626.0</ele><time>2026-04-18T08:06:52.999Z</time></trkpt><trkpt lat="43.58706432772489" lon="12.464603325631337"><ele>626.0</ele><time>2026-04-18T08:06:54.999Z</time></trkpt><trkpt lat="43.587080483589446" lon="12.464513045332556"><ele>626.0</ele><time>2026-04-18T08:06:56.999Z</time></trkpt><trkpt lat="43.58702034320909" lon="12.464430050818907"><ele>621.8</ele><time>2026-04-18T08:06:58.999Z</time></trkpt><trkpt lat="43.58694436301164" lon="12.46444059297895"><ele>617.6</ele><time>2026-04-18T08:07:02.999Z</time></trkpt><trkpt lat="43.58686050024967" lon="12.46439884161905"><ele>613.4</ele><time>2026-04-18T08:07:04.999Z</time></trkpt><trkpt lat="43.58678443416623" lon="12.464380360838767"><ele>609.2</ele><time>2026-04-18T08:07:05.999Z</time></trkpt><trkpt lat="43.5866817132059" lon="12.464355404114517"><ele>605.0</ele><time>2026-04-18T08:07:06.999Z</time></trkpt><trkpt lat="43.58657193298251" lon="12.46432873222365"><ele>605.0</ele><time>2026-04-18T08:07:07.999Z</time></trkpt><trkpt lat="43.58649538032006" lon="12.464311026990336"><ele>605.0</ele><time>2026-04-18T08:07:08.999Z</time></trkpt><trkpt lat="43.58637135191711" lon="12.464284983113068"><ele>605.0</ele><time>2026-04-18T08:07:09.999Z</time></trkpt><trkpt lat="43.58623187750974" lon="12.464283978227666"><ele>605.0</ele><time>2026-04-18T08:07:10.999Z</time></trkpt><trkpt lat="43.58608729006458" lon="12.464252320127164"><ele>604.75</ele><time>2026-04-18T08:07:12Z</time></trkpt><trkpt lat="43.58595172409946" lon="12.464229041957967"><ele>604.5</ele><time>2026-04-18T08:07:13Z</time></trkpt><trkpt lat="43.58582170193534" lon="12.464203425209131"><ele>604.25</ele><time>2026-04-18T08:07:14Z</time></trkpt><trkpt lat="43.585698929140555" lon="12.464179499119746"><ele>604.0</ele><time>2026-04-18T08:07:15Z</time></trkpt><trkpt lat="43.58559196608993" lon="12.464128076148551"><ele>604.0</ele><time>2026-04-18T08:07:16Z</time></trkpt><trkpt lat="43.58548822202508" lon="12.464083623378498"><ele>604.0</ele><time>2026-04-18T08:07:17Z</time></trkpt><trkpt lat="43.585385146638416" lon="12.464029683552441"><ele>604.0</ele><time>2026-04-18T08:07:18Z</time></trkpt><trkpt lat="43.58529208262809" lon="12.463994132101751"><ele>604.0</ele><time>2026-04-18T08:07:19Z</time></trkpt><trkpt lat="43.58520208618807" lon="12.463934252058085"><ele>604.0</ele><time>2026-04-18T08:07:20Z</time></trkpt><trkpt lat="43.58511609324178" lon="12.463875874089272"><ele>604.6</ele><time>2026-04-18T08:07:21Z</time></trkpt><trkpt lat="43.5850216392711" lon="12.463816887023892"><ele>605.2</ele><time>2026-04-18T08:07:22Z</time></trkpt><trkpt lat="43.58493724338476" lon="12.463763079615529"><ele>605.8000000000001</ele><time>2026-04-18T08:07:23Z</time></trkpt><trkpt lat="43.58483717545759" lon="12.463698565155699"><ele>606.4</ele><time>2026-04-18T08:07:24Z</time></trkpt><trkpt lat="43.58473130278877" lon="12.463628395124147"><ele>607.0</ele><time>2026-04-18T08:07:25Z</time></trkpt><trkpt lat="43.584614831057195" lon="12.46355250231302"><ele>602.0</ele><time>2026-04-18T08:07:26Z</time></trkpt><trkpt lat="43.58450098678632" lon="12.463482051273079"><ele>597.0</ele><time>2026-04-18T08:07:27Z</time></trkpt><trkpt lat="43.58439774151831" lon="12.46342784716388"><ele>592.0</ele><time>2026-04-18T08:07:28Z</time></trkpt><trkpt lat="43.58429193112518" lon="12.463388782449028"><ele>587.0</ele><time>2026-04-18T08:07:29Z</time></trkpt><trkpt lat="43.58418776601489" lon="12.463349174782214"><ele>587.0</ele><time>2026-04-18T08:07:30Z</time></trkpt><trkpt lat="43.58409098791341" lon="12.463318402674807"><ele>587.0</ele><time>2026-04-18T08:07:31Z</time></trkpt><trkpt lat="43.58399767629906" lon="12.463284187126622"><ele>587.0</ele><time>2026-04-18T08:07:32Z</time></trkpt><trkpt lat="43.58390871673763" lon="12.463256897237908"><ele>587.0</ele><time>2026-04-18T08:07:33Z</time></trkpt><trkpt lat="43.583819958121495" lon="12.463222357970961"><ele>587.0</ele><time>2026-04-18T08:07:34Z</time></trkpt><trkpt lat="43.58375172340785" lon="12.463171515269995"><ele>587.4</ele><time>2026-04-18T08:07:35Z</time></trkpt><trkpt lat="43.58367951075347" lon="12.463052532262614"><ele>587.8000000000001</ele><time>2026-04-18T08:07:37Z</time></trkpt><trkpt lat="43.58367368907379" lon="12.462895849733654"><ele>588.2</ele><time>2026-04-18T08:07:39Z</time></trkpt><trkpt lat="43.58376290926091" lon="12.462812621189201"><ele>588.6</ele><time>2026-04-18T08:07:41Z</time></trkpt><trkpt lat="43.583852282490874" lon="12.462787365673698"><ele>589.0</ele><time>2026-04-18T08:07:43Z</time></trkpt><trkpt lat="43.58392148143098" lon="12.462771080324192"><ele>585.3333333333334</ele><time>2026-04-18T08:07:44Z</time></trkpt><trkpt lat="43.58399018170432" lon="12.462759189689818"><ele>581.6666666666667</ele><time>2026-04-18T08:07:45Z</time></trkpt><trkpt lat="43.58407630948963" lon="12.462742556411854"><ele>578.0</ele><time>2026-04-18T08:07:46Z</time></trkpt><trkpt lat="43.58416231487625" lon="12.462767527258613"><ele>574.3333333333334</ele><time>2026-04-18T08:07:47Z</time></trkpt><trkpt lat="43.58422721283593" lon="12.462716855013753"><ele>570.6666666666666</ele><time>2026-04-18T08:07:48Z</time></trkpt><trkpt lat="43.58429816963784" lon="12.46269894917428"><ele>567.0</ele><time>2026-04-18T08:07:49Z</time></trkpt><trkpt lat="43.58436608770466" lon="12.462708274206788"><ele>567.0</ele><time>2026-04-18T08:07:50Z</time></trkpt><trkpt lat="43.584488135973864" lon="12.462673613331496"><ele>567.0</ele><time>2026-04-18T08:07:52Z</time></trkpt><trkpt lat="43.584611727411165" lon="12.462668625721989"><ele>567.0</ele><time>2026-04-18T08:07:54Z</time></trkpt><trkpt lat="43.58468257115255" lon="12.4626830885223"><ele>567.0</ele><time>2026-04-18T08:07:55Z</time></trkpt><trkpt lat="43.58477338591839" lon="12.462704326083498"><ele>567.0</ele><time>2026-04-18T08:07:56Z</time></trkpt><trkpt lat="43.584860195385886" lon="12.46275665172068"><ele>567.4</ele><time>2026-04-18T08:07:57Z</time></trkpt><trkpt lat="43.584958203451876" lon="12.46276762564199"><ele>567.8000000000001</ele><time>2026-04-18T08:07:58Z</time></trkpt><trkpt lat="43.585051470648395" lon="12.462796596431318"><ele>568.2</ele><time>2026-04-18T08:07:59Z</time></trkpt><trkpt lat="43.5851572950219" lon="12.462804489267125"><ele>568.6</ele><time>2026-04-18T08:08:00Z</time></trkpt><trkpt lat="43.58525678312892" lon="12.462802947552357"><ele>569.0</ele><time>2026-04-18T08:08:01Z</time></trkpt><trkpt lat="43.58536733369977" lon="12.462757787208838"><ele>569.0</ele><time>2026-04-18T08:08:02Z</time></trkpt><trkpt lat="43.58546850455944" lon="12.462698349798496"><ele>569.0</ele><time>2026-04-18T08:08:03Z</time></trkpt><trkpt lat="43.585558558101255" lon="12.462637504517959"><ele>569.0</ele><time>2026-04-18T08:08:04Z</time></trkpt><trkpt lat="43.58563106740641" lon="12.462571018755025"><ele>569.0</ele><time>2026-04-18T08:08:05Z</time></trkpt><trkpt lat="43.5856881320135" lon="12.462495262340525"><ele>569.0</ele><time>2026-04-18T08:08:06Z</time></trkpt><trkpt lat="43.585736453597924" lon="12.462395330474013"><ele>569.0</ele><time>2026-04-18T08:08:06.999Z</time></trkpt><trkpt lat="43.58577660223263" lon="12.462272824543978"><ele>569.0</ele><time>2026-04-18T08:08:07.999Z</time></trkpt><trkpt lat="43.5858080848349" lon="12.46213420214481"><ele>569.0</ele><time>2026-04-18T08:08:08.999Z</time></trkpt><trkpt lat="43.585835189604886" lon="12.461980026043538"><ele>569.0</ele><time>2026-04-18T08:08:09.999Z</time></trkpt><trkpt lat="43.585865362717904" lon="12.461829399414276"><ele>569.0</ele><time>2026-04-18T08:08:10.999Z</time></trkpt><trkpt lat="43.585895759753626" lon="12.461678472390538"><ele>566.6</ele><time>2026-04-18T08:08:11.999Z</time></trkpt><trkpt lat="43.58591709040092" lon="12.461535925535859"><ele>564.2</ele><time>2026-04-18T08:08:12.999Z</time></trkpt><trkpt lat="43.585917658421884" lon="12.461397192815252"><ele>561.8000000000001</ele><time>2026-04-18T08:08:13.999Z</time></trkpt><trkpt lat="43.585912164983256" lon="12.461251819568059"><ele>559.4</ele><time>2026-04-18T08:08:14.999Z</time></trkpt><trkpt lat="43.58590524714145" lon="12.461129386528897"><ele>557.0</ele><time>2026-04-18T08:08:15.999Z</time></trkpt><trkpt lat="43.5859105652223" lon="12.461038629574926"><ele>555.3333333333333</ele><time>2026-04-18T08:08:16.999Z</time></trkpt><trkpt lat="43.585941093647975" lon="12.460959327192414"><ele>553.6666666666666</ele><time>2026-04-18T08:08:17.999Z</time></trkpt><trkpt lat="43.585994692209084" lon="12.460895520486577"><ele>552.0</ele><time>2026-04-18T08:08:18.999Z</time></trkpt><trkpt lat="43.58608057000069" lon="12.460862175666781"><ele>550.3333333333334</ele><time>2026-04-18T08:08:19.999Z</time></trkpt><trkpt lat="43.586150162075256" lon="12.460773236958275"><ele>548.6666666666667</ele><time>2026-04-18T08:08:20.999Z</time></trkpt><trkpt lat="43.58623661037415" lon="12.460705281536574"><ele>547.0</ele><time>2026-04-18T08:08:21.999Z</time></trkpt><trkpt lat="43.586323994314256" lon="12.460635906740741"><ele>547.0</ele><time>2026-04-18T08:08:22.999Z</time></trkpt><trkpt lat="43.58642010606048" lon="12.460571084640666"><ele>547.0</ele><time>2026-04-18T08:08:23.999Z</time></trkpt><trkpt lat="43.58651864026098" lon="12.460572065827897"><ele>547.0</ele><time>2026-04-18T08:08:24.999Z</time></trkpt><trkpt lat="43.58659158526779" lon="12.460558598466122"><ele>547.0</ele><time>2026-04-18T08:08:25.999Z</time></trkpt><trkpt lat="43.586674477487485" lon="12.460556555657533"><ele>547.0</ele><time>2026-04-18T08:08:26.999Z</time></trkpt><trkpt lat="43.58673736234881" lon="12.460605979305535"><ele>547.0</ele><time>2026-04-18T08:08:27.999Z</time></trkpt><trkpt lat="43.58681479173641" lon="12.460632269528475"><ele>547.0</ele><time>2026-04-18T08:08:28.999Z</time></trkpt><trkpt lat="43.586878289476246" lon="12.460629095938906"><ele>547.0</ele><time>2026-04-18T08:08:29.999Z</time></trkpt><trkpt lat="43.58696664399509" lon="12.460582903571238"><ele>547.0</ele><time>2026-04-18T08:08:31.999Z</time></trkpt><trkpt lat="43.586976079997264" lon="12.460484084750334"><ele>547.0</ele><time>2026-04-18T08:08:32.999Z</time></trkpt><trkpt lat="43.58696936487901" lon="12.460323555913119"><ele>547.0</ele><time>2026-04-18T08:08:34.999Z</time></trkpt><trkpt lat="43.586931905570395" lon="12.46025209965224"><ele>547.0</ele><time>2026-04-18T08:08:35.999Z</time></trkpt><trkpt lat="43.58681565948577" lon="12.460156536660644"><ele>543.6</ele><time>2026-04-18T08:08:37.999Z</time></trkpt><trkpt lat="43.58673519289724" lon="12.460113667153825"><ele>540.2</ele><time>2026-04-18T08:08:38.999Z</time></trkpt><trkpt lat="43.58663793624267" lon="12.46006893641411"><ele>536.8</ele><time>2026-04-18T08:08:39.999Z</time></trkpt><trkpt lat="43.58653569490939" lon="12.460011502777085"><ele>533.4</ele><time>2026-04-18T08:08:40.999Z</time></trkpt><trkpt lat="43.58644603519516" lon="12.459941408724417"><ele>530.0</ele><time>2026-04-18T08:08:41.999Z</time></trkpt><trkpt lat="43.58636777292184" lon="12.459880577867827"><ele>530.0</ele><time>2026-04-18T08:08:42.999Z</time></trkpt><trkpt lat="43.58629397193862" lon="12.45980752062778"><ele>530.0</ele><time>2026-04-18T08:08:43.999Z</time></trkpt><trkpt lat="43.586218746476305" lon="12.459730492672369"><ele>530.0</ele><time>2026-04-18T08:08:44.999Z</time></trkpt><trkpt lat="43.586151684278356" lon="12.45966401148325"><ele>530.0</ele><time>2026-04-18T08:08:45.999Z</time></trkpt><trkpt lat="43.58608826347454" lon="12.45960684045241"><ele>530.0</ele><time>2026-04-18T08:08:46.999Z</time></trkpt><trkpt lat="43.58602275301939" lon="12.459570758023544"><ele>530.0</ele><time>2026-04-18T08:08:47.999Z</time></trkpt><trkpt lat="43.58593797988499" lon="12.45955993606706"><ele>528.0</ele><time>2026-04-18T08:08:48.999Z</time></trkpt><trkpt lat="43.58585033921317" lon="12.45957006551363"><ele>526.0</ele><time>2026-04-18T08:08:49.999Z</time></trkpt><trkpt lat="43.58574869046795" lon="12.45956009532211"><ele>524.0</ele><time>2026-04-18T08:08:50.999Z</time></trkpt><trkpt lat="43.58564805403144" lon="12.45957708958919"><ele>522.0</ele><time>2026-04-18T08:08:51.999Z</time></trkpt><trkpt lat="43.58555604997716" lon="12.45959228203791"><ele>520.0</ele><time>2026-04-18T08:08:52.999Z</time></trkpt><trkpt lat="43.58547466559449" lon="12.459605720911194"><ele>521.5</ele><time>2026-04-18T08:08:53.999Z</time></trkpt><trkpt lat="43.58539864344413" lon="12.459636773499971"><ele>523.0</ele><time>2026-04-18T08:08:54.999Z</time></trkpt><trkpt lat="43.58533422201659" lon="12.459651538803577"><ele>524.5</ele><time>2026-04-18T08:08:55.999Z</time></trkpt><trkpt lat="43.58523893465942" lon="12.459746614370545"><ele>526.0</ele><time>2026-04-18T08:08:57.999Z</time></trkpt><trkpt lat="43.585208514766585" lon="12.459822784174511"><ele>527.5</ele><time>2026-04-18T08:08:58.999Z</time></trkpt><trkpt lat="43.585164108674256" lon="12.459912798646148"><ele>529.0</ele><time>2026-04-18T08:08:59.999Z</time></trkpt><trkpt lat="43.5851188841744" lon="12.460024007001712"><ele>525.4</ele><time>2026-04-18T08:09:00.999Z</time></trkpt><trkpt lat="43.58505492838008" lon="12.460131557018578"><ele>521.8</ele><time>2026-04-18T08:09:01.999Z</time></trkpt><trkpt lat="43.584971061471705" lon="12.460206200937886"><ele>518.2</ele><time>2026-04-18T08:09:02.999Z</time></trkpt><trkpt lat="43.58487829857551" lon="12.460249884022174"><ele>514.6</ele><time>2026-04-18T08:09:03.999Z</time></trkpt><trkpt lat="43.58478595939044" lon="12.460274178020175"><ele>511.0</ele><time>2026-04-18T08:09:04.999Z</time></trkpt><trkpt lat="43.58469476891598" lon="12.460282220710502"><ele>511.0</ele><time>2026-04-18T08:09:05.999Z</time></trkpt><trkpt lat="43.584607141503035" lon="12.46027139954195"><ele>511.0</ele><time>2026-04-18T08:09:06.999Z</time></trkpt><trkpt lat="43.58450759584605" lon="12.460253571156723"><ele>511.0</ele><time>2026-04-18T08:09:07.999Z</time></trkpt><trkpt lat="43.58440921550878" lon="12.460189615207902"><ele>511.0</ele><time>2026-04-18T08:09:08.999Z</time></trkpt><trkpt lat="43.58431297008978" lon="12.460121776988455"><ele>511.0</ele><time>2026-04-18T08:09:09.999Z</time></trkpt><trkpt lat="43.584211732239204" lon="12.460073256284169"><ele>508.5</ele><time>2026-04-18T08:09:10.999Z</time></trkpt><trkpt lat="43.58409349057811" lon="12.460039906897972"><ele>506.0</ele><time>2026-04-18T08:09:11.999Z</time></trkpt><trkpt lat="43.58396247117802" lon="12.460004377010145"><ele>503.5</ele><time>2026-04-18T08:09:12.999Z</time></trkpt><trkpt lat="43.58382712057772" lon="12.459965200631677"><ele>501.0</ele><time>2026-04-18T08:09:13.999Z</time></trkpt><trkpt lat="43.58369935356635" lon="12.459924903928183"><ele>501.25</ele><time>2026-04-18T08:09:14.999Z</time></trkpt><trkpt lat="43.58357207268256" lon="12.45988195633058"><ele>501.5</ele><time>2026-04-18T08:09:15.999Z</time></trkpt><trkpt lat="43.5834517020584" lon="12.459837100335722"><ele>501.75</ele><time>2026-04-18T08:09:16.999Z</time></trkpt><trkpt lat="43.58333109801021" lon="12.459786625265956"><ele>502.0</ele><time>2026-04-18T08:09:18Z</time></trkpt><trkpt lat="43.58320742435221" lon="12.459738635867188"><ele>502.0</ele><time>2026-04-18T08:09:19Z</time></trkpt><trkpt lat="43.58309193477428" lon="12.459695912464397"><ele>502.00000000000006</ele><time>2026-04-18T08:09:20Z</time></trkpt><trkpt lat="43.58300228244911" lon="12.459656051486514"><ele>502.00000000000006</ele><time>2026-04-18T08:09:21Z</time></trkpt><trkpt lat="43.582937569358734" lon="12.459612746376143"><ele>502.0</ele><time>2026-04-18T08:09:22Z</time></trkpt><trkpt lat="43.58287272171158" lon="12.459494919903518"><ele>502.0</ele><time>2026-04-18T08:09:24Z</time></trkpt><trkpt lat="43.58286373562527" lon="12.459406118190309"><ele>499.20000000000005</ele><time>2026-04-18T08:09:25Z</time></trkpt><trkpt lat="43.58293001822396" lon="12.459264568372857"><ele>496.40000000000003</ele><time>2026-04-18T08:09:27Z</time></trkpt><trkpt lat="43.582993274396706" lon="12.459201478614936"><ele>493.59999999999997</ele><time>2026-04-18T08:09:28Z</time></trkpt><trkpt lat="43.58307376047817" lon="12.459149656418676"><ele>490.79999999999995</ele><time>2026-04-18T08:09:29Z</time></trkpt><trkpt lat="43.58317416107149" lon="12.459089180990725"><ele>488.0</ele><time>2026-04-18T08:09:30Z</time></trkpt><trkpt lat="43.58329675102998" lon="12.459015421937806"><ele>488.0</ele><time>2026-04-18T08:09:31Z</time></trkpt><trkpt lat="43.58339714081837" lon="12.458966143599637"><ele>487.99999999999994</ele><time>2026-04-18T08:09:32Z</time></trkpt><trkpt lat="43.583487374017466" lon="12.458921546755498"><ele>487.99999999999994</ele><time>2026-04-18T08:09:33Z</time></trkpt><trkpt lat="43.58356570348599" lon="12.45888331846135"><ele>488.0</ele><time>2026-04-18T08:09:34Z</time></trkpt><trkpt lat="43.58360001939916" lon="12.458789433787862"><ele>488.0</ele><time>2026-04-18T08:09:35Z</time></trkpt><trkpt lat="43.583590211741004" lon="12.458668192378012"><ele>485.99999999999994</ele><time>2026-04-18T08:09:36Z</time></trkpt><trkpt lat="43.583612364626234" lon="12.458566886975"><ele>484.0</ele><time>2026-04-18T08:09:37Z</time></trkpt><trkpt lat="43.58357105466147" lon="12.458494660422149"><ele>481.99999999999994</ele><time>2026-04-18T08:09:38Z</time></trkpt><trkpt lat="43.58352176805713" lon="12.458418309477615"><ele>479.99999999999994</ele><time>2026-04-18T08:09:39Z</time></trkpt><trkpt lat="43.58345842001407" lon="12.458375640329534"><ele>478.0</ele><time>2026-04-18T08:09:40Z</time></trkpt><trkpt lat="43.58337985262927" lon="12.458364566140391"><ele>475.99999999999994</ele><time>2026-04-18T08:09:41Z</time></trkpt><trkpt lat="43.583304008395984" lon="12.458393610344338"><ele>473.99999999999994</ele><time>2026-04-18T08:09:42Z</time></trkpt><trkpt lat="43.58322573879006" lon="12.458410812533552"><ele>474.0</ele><time>2026-04-18T08:09:43Z</time></trkpt><trkpt lat="43.58314585639292" lon="12.458459073366475"><ele>474.0</ele><time>2026-04-18T08:09:44Z</time></trkpt><trkpt lat="43.58305913905988" lon="12.458516705394858"><ele>474.0</ele><time>2026-04-18T08:09:45Z</time></trkpt><trkpt lat="43.58297773989791" lon="12.458566196046403"><ele>474.0</ele><time>2026-04-18T08:09:46Z</time></trkpt><trkpt lat="43.58289416279002" lon="12.45861978271382"><ele>474.0</ele><time>2026-04-18T08:09:47Z</time></trkpt><trkpt lat="43.582805276042926" lon="12.45863420524399"><ele>473.2</ele><time>2026-04-18T08:09:48Z</time></trkpt><trkpt lat="43.58273061488773" lon="12.45861910838324"><ele>472.4</ele><time>2026-04-18T08:09:49Z</time></trkpt><trkpt lat="43.58267271409687" lon="12.458527884641823"><ele>471.6</ele><time>2026-04-18T08:09:51Z</time></trkpt><trkpt lat="43.58268056094183" lon="12.458373158599601"><ele>470.8</ele><time>2026-04-18T08:09:53Z</time></trkpt><trkpt lat="43.582755759683316" lon="12.458231691945429"><ele>470.0</ele><time>2026-04-18T08:09:55Z</time></trkpt><trkpt lat="43.58282285174605" lon="12.45816030813008"><ele>471.0</ele><time>2026-04-18T08:09:56Z</time></trkpt><trkpt lat="43.58291096270212" lon="12.458074415668728"><ele>472.0</ele><time>2026-04-18T08:09:57Z</time></trkpt><trkpt lat="43.583004745454986" lon="12.457972353668087"><ele>473.0</ele><time>2026-04-18T08:09:58Z</time></trkpt><trkpt lat="43.583109749380355" lon="12.457841350758484"><ele>474.0</ele><time>2026-04-18T08:09:59Z</time></trkpt><trkpt lat="43.583218273562096" lon="12.457706738069723"><ele>471.2</ele><time>2026-04-18T08:10:00Z</time></trkpt><trkpt lat="43.58329681342065" lon="12.457591572831731"><ele>468.4</ele><time>2026-04-18T08:10:01Z</time></trkpt><trkpt lat="43.58336183183327" lon="12.457503912463798"><ele>465.6</ele><time>2026-04-18T08:10:02Z</time></trkpt><trkpt lat="43.58342989732287" lon="12.457425995905375"><ele>462.8</ele><time>2026-04-18T08:10:03Z</time></trkpt><trkpt lat="43.58349852659599" lon="12.457367976093863"><ele>460.0</ele><time>2026-04-18T08:10:04Z</time></trkpt><trkpt lat="43.583574486625565" lon="12.457338824191874"><ele>460.0</ele><time>2026-04-18T08:10:05Z</time></trkpt><trkpt lat="43.583664590146924" lon="12.457323069823943"><ele>460.0</ele><time>2026-04-18T08:10:06Z</time></trkpt><trkpt lat="43.58376686861893" lon="12.457306514735114"><ele>460.0</ele><time>2026-04-18T08:10:07Z</time></trkpt><trkpt lat="43.58386541601377" lon="12.45728036373567"><ele>460.0</ele><time>2026-04-18T08:10:08Z</time></trkpt><trkpt lat="43.583939706837164" lon="12.457240422141439"><ele>460.0</ele><time>2026-04-18T08:10:09Z</time></trkpt><trkpt lat="43.58403187419262" lon="12.457145763872852"><ele>456.75</ele><time>2026-04-18T08:10:11Z</time></trkpt><trkpt lat="43.58400777733617" lon="12.45701063469513"><ele>453.5</ele><time>2026-04-18T08:10:14Z</time></trkpt><trkpt lat="43.58385213345791" lon="12.456878137716886"><ele>450.25</ele><time>2026-04-18T08:10:16Z</time></trkpt><trkpt lat="43.58369507298502" lon="12.456878551827806"><ele>447.0</ele><time>2026-04-18T08:10:18Z</time></trkpt><trkpt lat="43.58359795736612" lon="12.456913076991938"><ele>447.0</ele><time>2026-04-18T08:10:19Z</time></trkpt><trkpt lat="43.58350104627905" lon="12.45694601729314"><ele>447.00000000000006</ele><time>2026-04-18T08:10:20Z</time></trkpt><trkpt lat="43.583409724934334" lon="12.456970858062299"><ele>447.00000000000006</ele><time>2026-04-18T08:10:21Z</time></trkpt><trkpt lat="43.58334642767747" lon="12.456968391832781"><ele>447.0</ele><time>2026-04-18T08:10:22Z</time></trkpt><trkpt lat="43.58326117262852" lon="12.45690019528865"><ele>447.0</ele><time>2026-04-18T08:10:24Z</time></trkpt><trkpt lat="43.58327504810748" lon="12.456750692225635"><ele>447.0</ele><time>2026-04-18T08:10:26Z</time></trkpt><trkpt lat="43.58336697012598" lon="12.456653281681714"><ele>447.00000000000006</ele><time>2026-04-18T08:10:28Z</time></trkpt><trkpt lat="43.58343208586292" lon="12.456644116788423"><ele>447.00000000000006</ele><time>2026-04-18T08:10:29Z</time></trkpt><trkpt lat="43.58352656134603" lon="12.456646353256213"><ele>447.0</ele><time>2026-04-18T08:10:30Z</time></trkpt><trkpt lat="43.58366045161508" lon="12.456645898422273"><ele>447.0</ele><time>2026-04-18T08:10:30.999Z</time></trkpt><trkpt lat="43.5837295174017" lon="12.456630548639547"><ele>446.6666666666667</ele><time>2026-04-18T08:10:31.999Z</time></trkpt><trkpt lat="43.58380740191533" lon="12.45662134967199"><ele>446.33333333333337</ele><time>2026-04-18T08:10:32.999Z</time></trkpt><trkpt lat="43.58387872931336" lon="12.456595869927602"><ele>446.0</ele><time>2026-04-18T08:10:33.999Z</time></trkpt><trkpt lat="43.583925746553255" lon="12.456538076216644"><ele>445.6666666666667</ele><time>2026-04-18T08:10:34.999Z</time></trkpt><trkpt lat="43.583945212090086" lon="12.456370097172025"><ele>445.33333333333337</ele><time>2026-04-18T08:10:36.999Z</time></trkpt><trkpt lat="43.58392058652989" lon="12.456275961252295"><ele>445.0</ele><time>2026-04-18T08:10:37.999Z</time></trkpt><trkpt lat="43.58387397384658" lon="12.456190620898433"><ele>443.6666666666667</ele><time>2026-04-18T08:10:38.999Z</time></trkpt><trkpt lat="43.583819400918216" lon="12.456136986109927"><ele>442.33333333333337</ele><time>2026-04-18T08:10:39.999Z</time></trkpt><trkpt lat="43.58375070432216" lon="12.456110006219527"><ele>441.0</ele><time>2026-04-18T08:10:40.999Z</time></trkpt><trkpt lat="43.5836743563531" lon="12.456098527173156"><ele>439.66666666666663</ele><time>2026-04-18T08:10:41.999Z</time></trkpt><trkpt lat="43.58358105511272" lon="12.456097437678553"><ele>438.3333333333333</ele><time>2026-04-18T08:10:42.999Z</time></trkpt><trkpt lat="43.583472805261344" lon="12.456103270219606"><ele>437.0</ele><time>2026-04-18T08:10:43.999Z</time></trkpt><trkpt lat="43.583351546018754" lon="12.456091615807713"><ele>436.0</ele><time>2026-04-18T08:10:44.999Z</time></trkpt><trkpt lat="43.58322385207278" lon="12.456084587206847"><ele>435.0</ele><time>2026-04-18T08:10:45.999Z</time></trkpt><trkpt lat="43.58309486582853" lon="12.456068390740857"><ele>434.0</ele><time>2026-04-18T08:10:46.999Z</time></trkpt><trkpt lat="43.58296933906159" lon="12.456048610302396"><ele>433.0</ele><time>2026-04-18T08:10:47.999Z</time></trkpt><trkpt lat="43.58285138065246" lon="12.456025980293406"><ele>431.59999999999997</ele><time>2026-04-18T08:10:48.999Z</time></trkpt><trkpt lat="43.582738050154894" lon="12.455999721460788"><ele>430.19999999999993</ele><time>2026-04-18T08:10:49.999Z</time></trkpt><trkpt lat="43.58262431861527" lon="12.455976619182195"><ele>428.8</ele><time>2026-04-18T08:10:50.999Z</time></trkpt><trkpt lat="43.58251589758674" lon="12.455959765586021"><ele>427.4</ele><time>2026-04-18T08:10:51.999Z</time></trkpt><trkpt lat="43.58241364605508" lon="12.455950846900452"><ele>426.0</ele><time>2026-04-18T08:10:52.999Z</time></trkpt><trkpt lat="43.582315424580585" lon="12.455942598546702"><ele>426.0</ele><time>2026-04-18T08:10:53.999Z</time></trkpt><trkpt lat="43.58221857251372" lon="12.45591936255938"><ele>426.0</ele><time>2026-04-18T08:10:54.999Z</time></trkpt><trkpt lat="43.58211619746878" lon="12.455917738183116"><ele>426.0</ele><time>2026-04-18T08:10:55.999Z</time></trkpt><trkpt lat="43.58201050423564" lon="12.455916031230464"><ele>426.0</ele><time>2026-04-18T08:10:56.999Z</time></trkpt><trkpt lat="43.581912561645986" lon="12.455914404065872"><ele>426.0</ele><time>2026-04-18T08:10:57.999Z</time></trkpt><trkpt lat="43.581811525262815" lon="12.45592338972055"><ele>424.8</ele><time>2026-04-18T08:10:58.999Z</time></trkpt><trkpt lat="43.58171868194323" lon="12.455922881360271"><ele>423.6</ele><time>2026-04-18T08:10:59.999Z</time></trkpt><trkpt lat="43.58162271039369" lon="12.45591569044024"><ele>422.4</ele><time>2026-04-18T08:11:00.999Z</time></trkpt><trkpt lat="43.58152977091984" lon="12.455912913520075"><ele>421.2</ele><time>2026-04-18T08:11:01.999Z</time></trkpt><trkpt lat="43.58143533175965" lon="12.455914521076554"><ele>420.0</ele><time>2026-04-18T08:11:02.999Z</time></trkpt><trkpt lat="43.581335571119524" lon="12.455918177474263"><ele>420.0</ele><time>2026-04-18T08:11:03.999Z</time></trkpt><trkpt lat="43.58121314905488" lon="12.455914258392081"><ele>420.0</ele><time>2026-04-18T08:11:04.999Z</time></trkpt><trkpt lat="43.581091867242" lon="12.455905511588902"><ele>420.0</ele><time>2026-04-18T08:11:05.999Z</time></trkpt><trkpt lat="43.580979627972724" lon="12.455893898066138"><ele>420.0</ele><time>2026-04-18T08:11:06.999Z</time></trkpt><trkpt lat="43.580878343801174" lon="12.455884929939229"><ele>419.0</ele><time>2026-04-18T08:11:07.999Z</time></trkpt><trkpt lat="43.5807848584184" lon="12.45587817835959"><ele>418.0</ele><time>2026-04-18T08:11:08.999Z</time></trkpt><trkpt lat="43.58071080362258" lon="12.455874236474205"><ele>417.0</ele><time>2026-04-18T08:11:09.999Z</time></trkpt><trkpt lat="43.58061903931246" lon="12.45583569671464"><ele>416.0</ele><time>2026-04-18T08:11:11.999Z</time></trkpt><trkpt lat="43.58058664205131" lon="12.45567994192185"><ele>415.0</ele><time>2026-04-18T08:11:14.999Z</time></trkpt><trkpt lat="43.58059305174707" lon="12.455579513457385"><ele>415.0</ele><time>2026-04-18T08:11:15.999Z</time></trkpt><trkpt lat="43.58060770226564" lon="12.455458899101943"><ele>415.0</ele><time>2026-04-18T08:11:16.999Z</time></trkpt><trkpt lat="43.580620473026144" lon="12.455308535095922"><ele>415.0</ele><time>2026-04-18T08:11:17.999Z</time></trkpt><trkpt lat="43.5806295689076" lon="12.455144240000672"><ele>415.0</ele><time>2026-04-18T08:11:18.999Z</time></trkpt><trkpt lat="43.580641016614415" lon="12.45495735409134"><ele>416.6666666666667</ele><time>2026-04-18T08:11:19.999Z</time></trkpt><trkpt lat="43.58065401938902" lon="12.454749434465137"><ele>418.33333333333337</ele><time>2026-04-18T08:11:20.999Z</time></trkpt><trkpt lat="43.580671322636654" lon="12.454532279834787"><ele>420.0</ele><time>2026-04-18T08:11:21.999Z</time></trkpt><trkpt lat="43.58068868564988" lon="12.454300492689354"><ele>420.66666666666663</ele><time>2026-04-18T08:11:22.999Z</time></trkpt><trkpt lat="43.58070657088337" lon="12.454049819862231"><ele>421.3333333333333</ele><time>2026-04-18T08:11:24Z</time></trkpt><trkpt lat="43.580721170174584" lon="12.4538133177219"><ele>422.0</ele><time>2026-04-18T08:11:25Z</time></trkpt><trkpt lat="43.58072710115147" lon="12.453567731872983"><ele>424.66666666666663</ele><time>2026-04-18T08:11:26Z</time></trkpt><trkpt lat="43.58070455888883" lon="12.453308625043304"><ele>427.33333333333337</ele><time>2026-04-18T08:11:27Z</time></trkpt><trkpt lat="43.58064214054839" lon="12.453058939741146"><ele>430.0</ele><time>2026-04-18T08:11:28Z</time></trkpt><trkpt lat="43.58053444481373" lon="12.452832455113647"><ele>428.33333333333337</ele><time>2026-04-18T08:11:29Z</time></trkpt><trkpt lat="43.58039745344164" lon="12.452634878341328"><ele>426.66666666666663</ele><time>2026-04-18T08:11:30Z</time></trkpt><trkpt lat="43.58025492038588" lon="12.452449990445183"><ele>425.0</ele><time>2026-04-18T08:11:31Z</time></trkpt><trkpt lat="43.5801355738717" lon="12.452255220443828"><ele>428.3333333333333</ele><time>2026-04-18T08:11:32Z</time></trkpt><trkpt lat="43.580044394141915" lon="12.452031401367337"><ele>431.66666666666663</ele><time>2026-04-18T08:11:33Z</time></trkpt><trkpt lat="43.5800179059333" lon="12.451773944535367"><ele>435.0</ele><time>2026-04-18T08:11:34Z</time></trkpt><trkpt lat="43.58001646760439" lon="12.451510837008643"><ele>434.66666666666663</ele><time>2026-04-18T08:11:35Z</time></trkpt><trkpt lat="43.58003467443989" lon="12.45124483846704"><ele>434.3333333333333</ele><time>2026-04-18T08:11:36Z</time></trkpt><trkpt lat="43.58009960169798" lon="12.450995257768433"><ele>434.0</ele><time>2026-04-18T08:11:37Z</time></trkpt><trkpt lat="43.5801447891145" lon="12.45075666010385"><ele>434.0</ele><time>2026-04-18T08:11:38Z</time></trkpt><trkpt lat="43.58015555029502" lon="12.450516424827514"><ele>434.0</ele><time>2026-04-18T08:11:39Z</time></trkpt><trkpt lat="43.58012865601241" lon="12.450276692272906"><ele>434.0</ele><time>2026-04-18T08:11:40Z</time></trkpt><trkpt lat="43.58006910236417" lon="12.450047934643429"><ele>433.3333333333333</ele><time>2026-04-18T08:11:41Z</time></trkpt><trkpt lat="43.57998159818174" lon="12.449837768276012"><ele>432.66666666666663</ele><time>2026-04-18T08:11:42Z</time></trkpt><trkpt lat="43.57987289236067" lon="12.449651438070996"><ele>432.0</ele><time>2026-04-18T08:11:43Z</time></trkpt><trkpt lat="43.57974302173611" lon="12.44948041371766"><ele>433.66666666666663</ele><time>2026-04-18T08:11:44Z</time></trkpt><trkpt lat="43.57961736119744" lon="12.449303924501544"><ele>435.3333333333333</ele><time>2026-04-18T08:11:45Z</time></trkpt><trkpt lat="43.579486100380564" lon="12.449112966535328"><ele>437.0</ele><time>2026-04-18T08:11:46Z</time></trkpt><trkpt lat="43.57935534607483" lon="12.448924518991037"><ele>439.3333333333333</ele><time>2026-04-18T08:11:47Z</time></trkpt><trkpt lat="43.57922015804526" lon="12.448728376000743"><ele>441.66666666666663</ele><time>2026-04-18T08:11:48Z</time></trkpt><trkpt lat="43.579082385216424" lon="12.44852899580732"><ele>444.0</ele><time>2026-04-18T08:11:49Z</time></trkpt><trkpt lat="43.57894216752984" lon="12.448323617110056"><ele>444.0</ele><time>2026-04-18T08:11:50Z</time></trkpt><trkpt lat="43.57880551758457" lon="12.448122525527328"><ele>444.0</ele><time>2026-04-18T08:11:51Z</time></trkpt><trkpt lat="43.578671003942006" lon="12.447921185339668"><ele>444.0</ele><time>2026-04-18T08:11:52Z</time></trkpt><trkpt lat="43.57854344610237" lon="12.44770788671688"><ele>445.0</ele><time>2026-04-18T08:11:53Z</time></trkpt><trkpt lat="43.57843756541281" lon="12.447481177776668"><ele>446.0</ele><time>2026-04-18T08:11:54Z</time></trkpt><trkpt lat="43.57835963915931" lon="12.447226000588149"><ele>447.0</ele><time>2026-04-18T08:11:55Z</time></trkpt><trkpt lat="43.57830219930577" lon="12.446970049913627"><ele>447.0</ele><time>2026-04-18T08:11:56Z</time></trkpt><trkpt lat="43.578236474273716" lon="12.446722087120994"><ele>447.0</ele><time>2026-04-18T08:11:57Z</time></trkpt><trkpt lat="43.57814736504832" lon="12.446496054415674"><ele>447.0</ele><time>2026-04-18T08:11:58Z</time></trkpt><trkpt lat="43.578028849417485" lon="12.446299276846226"><ele>447.0</ele><time>2026-04-18T08:11:59Z</time></trkpt><trkpt lat="43.57791111427993" lon="12.4460887994125"><ele>447.0</ele><time>2026-04-18T08:12:00Z</time></trkpt><trkpt lat="43.57772271055666" lon="12.445991335844786"><ele>447.0</ele><time>2026-04-18T08:12:01Z</time></trkpt><trkpt lat="43.57757393307736" lon="12.445836105248018"><ele>447.0</ele><time>2026-04-18T08:12:02Z</time></trkpt><trkpt lat="43.577427687627996" lon="12.44567569161963"><ele>447.0</ele><time>2026-04-18T08:12:03Z</time></trkpt><trkpt lat="43.57727738108503" lon="12.44550692805367"><ele>447.0</ele><time>2026-04-18T08:12:04Z</time></trkpt><trkpt lat="43.577136306350816" lon="12.44533499258037"><ele>446.66666666666663</ele><time>2026-04-18T08:12:05Z</time></trkpt><trkpt lat="43.577012565442246" lon="12.445145517931063"><ele>446.3333333333333</ele><time>2026-04-18T08:12:06Z</time></trkpt><trkpt lat="43.57692827364597" lon="12.44494473941314"><ele>446.0</ele><time>2026-04-18T08:12:07Z</time></trkpt><trkpt lat="43.57686645702873" lon="12.444710699505315"><ele>450.0</ele><time>2026-04-18T08:12:08Z</time></trkpt><trkpt lat="43.57679833294907" lon="12.444457250519251"><ele>454.0</ele><time>2026-04-18T08:12:09Z</time></trkpt><trkpt lat="43.57669827148822" lon="12.444217548155153"><ele>458.0</ele><time>2026-04-18T08:12:10Z</time></trkpt><trkpt lat="43.57655168081007" lon="12.44401929721214"><ele>458.0</ele><time>2026-04-18T08:12:11Z</time></trkpt><trkpt lat="43.576367187363694" lon="12.443868618157364"><ele>458.0</ele><time>2026-04-18T08:12:12Z</time></trkpt><trkpt lat="43.576158610939224" lon="12.443765361891153"><ele>458.0</ele><time>2026-04-18T08:12:13Z</time></trkpt><trkpt lat="43.575945482131125" lon="12.443696920069975"><ele>457.3333333333333</ele><time>2026-04-18T08:12:14Z</time></trkpt><trkpt lat="43.575733851450856" lon="12.443638241506564"><ele>456.66666666666663</ele><time>2026-04-18T08:12:15Z</time></trkpt><trkpt lat="43.57552608187402" lon="12.443574410318734"><ele>456.0</ele><time>2026-04-18T08:12:16Z</time></trkpt><trkpt lat="43.5753243133667" lon="12.443507410098823"><ele>456.0</ele><time>2026-04-18T08:12:17Z</time></trkpt><trkpt lat="43.57512859055896" lon="12.44344193144435"><ele>456.0</ele><time>2026-04-18T08:12:18Z</time></trkpt><trkpt lat="43.57493858467713" lon="12.44336493773604"><ele>456.0</ele><time>2026-04-18T08:12:19Z</time></trkpt><trkpt lat="43.574746930335984" lon="12.443266811971935"><ele>456.0</ele><time>2026-04-18T08:12:20Z</time></trkpt><trkpt lat="43.57456722760258" lon="12.44314010916942"><ele>456.0</ele><time>2026-04-18T08:12:21Z</time></trkpt><trkpt lat="43.57438479533372" lon="12.443002844801244"><ele>456.0</ele><time>2026-04-18T08:12:22Z</time></trkpt><trkpt lat="43.57419912475458" lon="12.442861236490613"><ele>455.0</ele><time>2026-04-18T08:12:23Z</time></trkpt><trkpt lat="43.57400513374812" lon="12.442721749417746"><ele>454.0</ele><time>2026-04-18T08:12:24Z</time></trkpt><trkpt lat="43.5738038702447" lon="12.442583418558902"><ele>453.0</ele><time>2026-04-18T08:12:25Z</time></trkpt><trkpt lat="43.573601230811455" lon="12.442451347691247"><ele>453.0</ele><time>2026-04-18T08:12:26Z</time></trkpt><trkpt lat="43.573397697293366" lon="12.442321935918654"><ele>453.0</ele><time>2026-04-18T08:12:27Z</time></trkpt><trkpt lat="43.573192379387066" lon="12.44219328045434"><ele>456.0</ele><time>2026-04-18T08:12:28Z</time></trkpt><trkpt lat="43.57298936507167" lon="12.44206709516677"><ele>459.0</ele><time>2026-04-18T08:12:29Z</time></trkpt><trkpt lat="43.57278350143236" lon="12.441922416928513"><ele>459.0</ele><time>2026-04-18T08:12:30Z</time></trkpt><trkpt lat="43.572595709562535" lon="12.441757859331897"><ele>459.0</ele><time>2026-04-18T08:12:31Z</time></trkpt><trkpt lat="43.57240842472557" lon="12.441567283135736"><ele>459.0</ele><time>2026-04-18T08:12:32Z</time></trkpt><trkpt lat="43.57223079641289" lon="12.441380662570564"><ele>459.0</ele><time>2026-04-18T08:12:33Z</time></trkpt><trkpt lat="43.572043155644145" lon="12.441199578703216"><ele>460.66666666666663</ele><time>2026-04-18T08:12:34Z</time></trkpt><trkpt lat="43.571857489679495" lon="12.441031049448789"><ele>462.3333333333333</ele><time>2026-04-18T08:12:35Z</time></trkpt><trkpt lat="43.571677471167845" lon="12.44087587092649"><ele>464.0</ele><time>2026-04-18T08:12:36Z</time></trkpt><trkpt lat="43.57148833971999" lon="12.440723144476477"><ele>464.0</ele><time>2026-04-18T08:12:37Z</time></trkpt><trkpt lat="43.57130197717426" lon="12.440581112206514"><ele>464.0</ele><time>2026-04-18T08:12:38Z</time></trkpt><trkpt lat="43.571115568844036" lon="12.440442982751733"><ele>464.0</ele><time>2026-04-18T08:12:39Z</time></trkpt><trkpt lat="43.57093391401738" lon="12.440292326162005"><ele>463.66666666666663</ele><time>2026-04-18T08:12:40Z</time></trkpt><trkpt lat="43.57076881906458" lon="12.440113727315325"><ele>463.33333333333337</ele><time>2026-04-18T08:12:41Z</time></trkpt><trkpt lat="43.5706181489169" lon="12.439903295207397"><ele>463.0</ele><time>2026-04-18T08:12:42Z</time></trkpt><trkpt lat="43.570482600710115" lon="12.439669914791947"><ele>461.33333333333337</ele><time>2026-04-18T08:12:43Z</time></trkpt><trkpt lat="43.57036776701156" lon="12.439412545879648"><ele>459.66666666666663</ele><time>2026-04-18T08:12:44Z</time></trkpt><trkpt lat="43.570264535214726" lon="12.439137971000608"><ele>458.0</ele><time>2026-04-18T08:12:45Z</time></trkpt><trkpt lat="43.570166173348134" lon="12.438858642247867"><ele>458.3333333333333</ele><time>2026-04-18T08:12:46Z</time></trkpt><trkpt lat="43.57006549184852" lon="12.43857759478571"><ele>458.66666666666663</ele><time>2026-04-18T08:12:47Z</time></trkpt><trkpt lat="43.56996383599648" lon="12.438305483746026"><ele>459.0</ele><time>2026-04-18T08:12:48Z</time></trkpt><trkpt lat="43.56986052276017" lon="12.438025620741449"><ele>458.5</ele><time>2026-04-18T08:12:49Z</time></trkpt><trkpt lat="43.569756256071344" lon="12.437744959393557"><ele>458.0</ele><time>2026-04-18T08:12:50Z</time></trkpt><trkpt lat="43.569653633694514" lon="12.437469762976749"><ele>458.0</ele><time>2026-04-18T08:12:51Z</time></trkpt><trkpt lat="43.56955704051569" lon="12.437182259754014"><ele>458.0</ele><time>2026-04-18T08:12:52Z</time></trkpt><trkpt lat="43.569478386046335" lon="12.436889250358483"><ele>458.0</ele><time>2026-04-18T08:12:52.999Z</time></trkpt><trkpt lat="43.56940922602847" lon="12.43659076783373"><ele>458.0</ele><time>2026-04-18T08:12:53.999Z</time></trkpt><trkpt lat="43.569340309902024" lon="12.436303205034656"><ele>458.0</ele><time>2026-04-18T08:12:54.999Z</time></trkpt><trkpt lat="43.569256824907576" lon="12.436017785057018"><ele>459.0</ele><time>2026-04-18T08:12:55.999Z</time></trkpt><trkpt lat="43.56915444519633" lon="12.435752399245285"><ele>460.0</ele><time>2026-04-18T08:12:56.999Z</time></trkpt><trkpt lat="43.569029434744124" lon="12.435505321543078"><ele>461.0</ele><time>2026-04-18T08:12:57.999Z</time></trkpt><trkpt lat="43.568867287436476" lon="12.43530678579602"><ele>460.3333333333333</ele><time>2026-04-18T08:12:58.999Z</time></trkpt><trkpt lat="43.56866350872138" lon="12.435190675605542"><ele>459.66666666666663</ele><time>2026-04-18T08:12:59.999Z</time></trkpt><trkpt lat="43.568462558045596" lon="12.43509697888845"><ele>459.0</ele><time>2026-04-18T08:13:00.999Z</time></trkpt><trkpt lat="43.568269960547255" lon="12.434974447553142"><ele>459.0</ele><time>2026-04-18T08:13:01.999Z</time></trkpt><trkpt lat="43.56807690185679" lon="12.434844142315981"><ele>459.0</ele><time>2026-04-18T08:13:02.999Z</time></trkpt><trkpt lat="43.56788446742161" lon="12.434715153516517"><ele>459.0</ele><time>2026-04-18T08:13:03.999Z</time></trkpt><trkpt lat="43.56769107367924" lon="12.43459176755144"><ele>458.66666666666663</ele><time>2026-04-18T08:13:04.999Z</time></trkpt><trkpt lat="43.567497873057306" lon="12.434466959082098"><ele>458.3333333333333</ele><time>2026-04-18T08:13:05.999Z</time></trkpt><trkpt lat="43.567301999344735" lon="12.434338950406637"><ele>458.0</ele><time>2026-04-18T08:13:06.999Z</time></trkpt><trkpt lat="43.56711084772939" lon="12.434203144183972"><ele>459.0</ele><time>2026-04-18T08:13:07.999Z</time></trkpt><trkpt lat="43.566927363934916" lon="12.43405097907164"><ele>460.0</ele><time>2026-04-18T08:13:08.999Z</time></trkpt><trkpt lat="43.56675321969506" lon="12.43387954556163"><ele>461.0</ele><time>2026-04-18T08:13:09.999Z</time></trkpt><trkpt lat="43.56658964259246" lon="12.433691200485896"><ele>461.0</ele><time>2026-04-18T08:13:10.999Z</time></trkpt><trkpt lat="43.56643739464018" lon="12.433490712838442"><ele>461.0</ele><time>2026-04-18T08:13:11.999Z</time></trkpt><trkpt lat="43.566300850323366" lon="12.433292627342949"><ele>461.0</ele><time>2026-04-18T08:13:12.999Z</time></trkpt><trkpt lat="43.56617280575643" lon="12.433101989434642"><ele>462.5</ele><time>2026-04-18T08:13:13.999Z</time></trkpt><trkpt lat="43.56597540627323" lon="12.432843778742997"><ele>464.0</ele><time>2026-04-18T08:13:14.999Z</time></trkpt><trkpt lat="43.56582788523213" lon="12.432617853390912"><ele>464.0</ele><time>2026-04-18T08:13:15.999Z</time></trkpt><trkpt lat="43.5656792102335" lon="12.432394991201436"><ele>464.0</ele><time>2026-04-18T08:13:16.999Z</time></trkpt><trkpt lat="43.56553106502724" lon="12.432169012150874"><ele>464.0</ele><time>2026-04-18T08:13:17.999Z</time></trkpt><trkpt lat="43.565385705319" lon="12.431943300862985"><ele>464.3333333333333</ele><time>2026-04-18T08:13:18.999Z</time></trkpt><trkpt lat="43.5652406932551" lon="12.431718919700335"><ele>464.66666666666663</ele><time>2026-04-18T08:13:19.999Z</time></trkpt><trkpt lat="43.56509676169558" lon="12.431496491743513"><ele>465.0</ele><time>2026-04-18T08:13:20.999Z</time></trkpt><trkpt lat="43.564961027824005" lon="12.431280934816794"><ele>467.66666666666663</ele><time>2026-04-18T08:13:21.999Z</time></trkpt><trkpt lat="43.564837773934315" lon="12.431066069586706"><ele>470.3333333333333</ele><time>2026-04-18T08:13:22.999Z</time></trkpt><trkpt lat="43.56473948876718" lon="12.430826460524424"><ele>473.0</ele><time>2026-04-18T08:13:23.999Z</time></trkpt><trkpt lat="43.56469079901919" lon="12.430557119739735"><ele>472.0</ele><time>2026-04-18T08:13:24.999Z</time></trkpt><trkpt lat="43.564669654368956" lon="12.430276231346014"><ele>471.0</ele><time>2026-04-18T08:13:25.999Z</time></trkpt><trkpt lat="43.56461688899931" lon="12.430002545932235"><ele>470.0</ele><time>2026-04-18T08:13:26.999Z</time></trkpt><trkpt lat="43.56451220972952" lon="12.429753486159992"><ele>473.66666666666663</ele><time>2026-04-18T08:13:27.999Z</time></trkpt><trkpt lat="43.564386751405024" lon="12.429517796265609"><ele>477.33333333333337</ele><time>2026-04-18T08:13:28.999Z</time></trkpt><trkpt lat="43.56424915855531" lon="12.42928594545049"><ele>481.0</ele><time>2026-04-18T08:13:30Z</time></trkpt><trkpt lat="43.564100697690975" lon="12.42906493879695"><ele>481.0</ele><time>2026-04-18T08:13:31Z</time></trkpt><trkpt lat="43.56394814856631" lon="12.428858415604369"><ele>481.0</ele><time>2026-04-18T08:13:32Z</time></trkpt><trkpt lat="43.563766715841176" lon="12.428689429167532"><ele>481.0</ele><time>2026-04-18T08:13:33Z</time></trkpt><trkpt lat="43.56356436934963" lon="12.42855630534432"><ele>484.33333333333337</ele><time>2026-04-18T08:13:34Z</time></trkpt><trkpt lat="43.563346438180005" lon="12.42846535253141"><ele>487.66666666666663</ele><time>2026-04-18T08:13:35Z</time></trkpt><trkpt lat="43.56313086822752" lon="12.428403870597313"><ele>491.0</ele><time>2026-04-18T08:13:36Z</time></trkpt><trkpt lat="43.562914215029885" lon="12.428346493185018"><ele>486.0</ele><time>2026-04-18T08:13:37Z</time></trkpt><trkpt lat="43.562688346998186" lon="12.428297005505481"><ele>481.0</ele><time>2026-04-18T08:13:38Z</time></trkpt><trkpt lat="43.56247564784691" lon="12.428227395552533"><ele>476.0</ele><time>2026-04-18T08:13:39Z</time></trkpt><trkpt lat="43.56226542937091" lon="12.428160411707179"><ele>476.0</ele><time>2026-04-18T08:13:40Z</time></trkpt><trkpt lat="43.56205414911174" lon="12.428103450114914"><ele>476.0</ele><time>2026-04-18T08:13:41Z</time></trkpt><trkpt lat="43.56183920746577" lon="12.428052434813283"><ele>476.0</ele><time>2026-04-18T08:13:42Z</time></trkpt><trkpt lat="43.56163559618681" lon="12.428008203432922"><ele>478.3333333333333</ele><time>2026-04-18T08:13:43Z</time></trkpt><trkpt lat="43.56144504941272" lon="12.427965095874772"><ele>480.66666666666663</ele><time>2026-04-18T08:13:44Z</time></trkpt><trkpt lat="43.56126614863281" lon="12.427922155796473"><ele>483.0</ele><time>2026-04-18T08:13:45Z</time></trkpt><trkpt lat="43.5610953056963" lon="12.427880763110663"><ele>483.0</ele><time>2026-04-18T08:13:46Z</time></trkpt><trkpt lat="43.560929733983194" lon="12.427843371691408"><ele>483.0</ele><time>2026-04-18T08:13:47Z</time></trkpt><trkpt lat="43.56075847903045" lon="12.427793141978231"><ele>483.0</ele><time>2026-04-18T08:13:48Z</time></trkpt><trkpt lat="43.56059622351054" lon="12.42772519323967"><ele>483.0</ele><time>2026-04-18T08:13:49Z</time></trkpt><trkpt lat="43.560432750700976" lon="12.427618355394335"><ele>483.0</ele><time>2026-04-18T08:13:50Z</time></trkpt><trkpt lat="43.560282688652975" lon="12.42748358733719"><ele>483.0</ele><time>2026-04-18T08:13:51Z</time></trkpt><trkpt lat="43.560136967065326" lon="12.427325840780174"><ele>484.33333333333337</ele><time>2026-04-18T08:13:52Z</time></trkpt><trkpt lat="43.55999341603761" lon="12.42716680302535"><ele>485.6666666666667</ele><time>2026-04-18T08:13:53Z</time></trkpt><trkpt lat="43.55985579525708" lon="12.427000775153662"><ele>487.0</ele><time>2026-04-18T08:13:54Z</time></trkpt><trkpt lat="43.559734563623394" lon="12.426818244627862"><ele>487.0</ele><time>2026-04-18T08:13:55Z</time></trkpt><trkpt lat="43.55964019857859" lon="12.42661853153098"><ele>487.0</ele><time>2026-04-18T08:13:56Z</time></trkpt><trkpt lat="43.5595731724925" lon="12.426396070597875"><ele>487.0</ele><time>2026-04-18T08:13:57Z</time></trkpt><trkpt lat="43.559540398321104" lon="12.42615045217826"><ele>483.33333333333337</ele><time>2026-04-18T08:13:58Z</time></trkpt><trkpt lat="43.55948789497219" lon="12.425908332680647"><ele>479.66666666666663</ele><time>2026-04-18T08:13:59Z</time></trkpt><trkpt lat="43.55945538151791" lon="12.42565834237724"><ele>476.0</ele><time>2026-04-18T08:14:00Z</time></trkpt><trkpt lat="43.55941573292452" lon="12.425398351167058"><ele>476.0</ele><time>2026-04-18T08:14:01Z</time></trkpt><trkpt lat="43.55937488140067" lon="12.425145050235779"><ele>476.0</ele><time>2026-04-18T08:14:02Z</time></trkpt><trkpt lat="43.55933002805084" lon="12.42488235234671"><ele>476.0</ele><time>2026-04-18T08:14:03Z</time></trkpt><trkpt lat="43.55928452636746" lon="12.424626488418596"><ele>478.3333333333333</ele><time>2026-04-18T08:14:04Z</time></trkpt><trkpt lat="43.55924266576938" lon="12.424376701230813"><ele>480.66666666666663</ele><time>2026-04-18T08:14:05Z</time></trkpt><trkpt lat="43.559206185610314" lon="12.424146043831552"><ele>483.0</ele><time>2026-04-18T08:14:06Z</time></trkpt><trkpt lat="43.559181192900546" lon="12.423925271925098"><ele>483.33333333333337</ele><time>2026-04-18T08:14:07Z</time></trkpt><trkpt lat="43.55917945261157" lon="12.423711985882013"><ele>483.6666666666667</ele><time>2026-04-18T08:14:08Z</time></trkpt><trkpt lat="43.55920902989583" lon="12.423491819744417"><ele>484.0</ele><time>2026-04-18T08:14:09Z</time></trkpt><trkpt lat="43.559211635715585" lon="12.423268836739938"><ele>484.0</ele><time>2026-04-18T08:14:10Z</time></trkpt><trkpt lat="43.559236952030474" lon="12.423048298849432"><ele>484.0</ele><time>2026-04-18T08:14:11Z</time></trkpt><trkpt lat="43.55926183781995" lon="12.422825655501107"><ele>484.0</ele><time>2026-04-18T08:14:12Z</time></trkpt><trkpt lat="43.559280375046896" lon="12.422601206375303"><ele>483.0</ele><time>2026-04-18T08:14:13Z</time></trkpt><trkpt lat="43.55929577857445" lon="12.422375838185108"><ele>482.0</ele><time>2026-04-18T08:14:14Z</time></trkpt><trkpt lat="43.559296803092394" lon="12.422151200585722"><ele>481.0</ele><time>2026-04-18T08:14:15Z</time></trkpt><trkpt lat="43.559280649602734" lon="12.421930839431889"><ele>480.25</ele><time>2026-04-18T08:14:16Z</time></trkpt><trkpt lat="43.5592579138494" lon="12.421731198210963"><ele>479.5</ele><time>2026-04-18T08:14:17Z</time></trkpt><trkpt lat="43.5592355161624" lon="12.421548241280487"><ele>478.75</ele><time>2026-04-18T08:14:18Z</time></trkpt><trkpt lat="43.55921891210887" lon="12.421368086494537"><ele>478.0</ele><time>2026-04-18T08:14:19Z</time></trkpt><trkpt lat="43.55920270013041" lon="12.421200117298836"><ele>477.25</ele><time>2026-04-18T08:14:20Z</time></trkpt><trkpt lat="43.559186157952254" lon="12.421032572779641"><ele>476.5</ele><time>2026-04-18T08:14:21Z</time></trkpt><trkpt lat="43.55916888457852" lon="12.420866288617848"><ele>475.75</ele><time>2026-04-18T08:14:22Z</time></trkpt><trkpt lat="43.55915155783197" lon="12.42070405569341"><ele>475.0</ele><time>2026-04-18T08:14:23Z</time></trkpt><trkpt lat="43.55913418732478" lon="12.420548273027695"><ele>475.75</ele><time>2026-04-18T08:14:24Z</time></trkpt><trkpt lat="43.55911787580076" lon="12.420388114449556"><ele>476.5</ele><time>2026-04-18T08:14:25Z</time></trkpt><trkpt lat="43.55910027598708" lon="12.420236576870371"><ele>477.25</ele><time>2026-04-18T08:14:26Z</time></trkpt><trkpt lat="43.559083288106585" lon="12.420081678255501"><ele>478.0</ele><time>2026-04-18T08:14:27Z</time></trkpt><trkpt lat="43.559058511363766" lon="12.419926892805705"><ele>478.00000000000006</ele><time>2026-04-18T08:14:28Z</time></trkpt><trkpt lat="43.55903976237623" lon="12.41978337248516"><ele>478.0</ele><time>2026-04-18T08:14:29Z</time></trkpt><trkpt lat="43.5590292536356" lon="12.419655041829213"><ele>478.0</ele><time>2026-04-18T08:14:30Z</time></trkpt><trkpt lat="43.55901953756995" lon="12.419546594378733"><ele>478.0</ele><time>2026-04-18T08:14:31Z</time></trkpt><trkpt lat="43.55901156768778" lon="12.419437687752316"><ele>478.00000000000006</ele><time>2026-04-18T08:14:32Z</time></trkpt><trkpt lat="43.55901329114693" lon="12.419330658174452"><ele>478.0</ele><time>2026-04-18T08:14:33Z</time></trkpt><trkpt lat="43.55901721157398" lon="12.419228131640407"><ele>478.33333333333337</ele><time>2026-04-18T08:14:34Z</time></trkpt><trkpt lat="43.55902339887643" lon="12.419117043409717"><ele>478.6666666666667</ele><time>2026-04-18T08:14:35Z</time></trkpt><trkpt lat="43.55902418784928" lon="12.41900230902882"><ele>479.0</ele><time>2026-04-18T08:14:36Z</time></trkpt><trkpt lat="43.559028716027605" lon="12.418894340027707"><ele>479.33333333333337</ele><time>2026-04-18T08:14:37Z</time></trkpt><trkpt lat="43.559029597262594" lon="12.418784488131982"><ele>479.6666666666667</ele><time>2026-04-18T08:14:38Z</time></trkpt><trkpt lat="43.55903021021079" lon="12.418681250662262"><ele>480.0</ele><time>2026-04-18T08:14:39Z</time></trkpt><trkpt lat="43.559037235507304" lon="12.418580604811874"><ele>480.3333333333333</ele><time>2026-04-18T08:14:40Z</time></trkpt><trkpt lat="43.559044144457374" lon="12.418477552970405"><ele>480.66666666666663</ele><time>2026-04-18T08:14:41Z</time></trkpt><trkpt lat="43.559054450483316" lon="12.418375014258345"><ele>481.0</ele><time>2026-04-18T08:14:42Z</time></trkpt><trkpt lat="43.55907883019735" lon="12.41827602204395"><ele>481.3333333333333</ele><time>2026-04-18T08:14:43Z</time></trkpt><trkpt lat="43.55908150873164" lon="12.418163981223723"><ele>481.66666666666663</ele><time>2026-04-18T08:14:44Z</time></trkpt><trkpt lat="43.55910030864341" lon="12.418072069659008"><ele>482.0</ele><time>2026-04-18T08:14:45Z</time></trkpt><trkpt lat="43.55912271686801" lon="12.417975197663928"><ele>482.16666666666663</ele><time>2026-04-18T08:14:46Z</time></trkpt><trkpt lat="43.55915616871941" lon="12.417873032071517"><ele>482.3333333333333</ele><time>2026-04-18T08:14:47Z</time></trkpt><trkpt lat="43.55920119139637" lon="12.417771252853912"><ele>482.5</ele><time>2026-04-18T08:14:48Z</time></trkpt><trkpt lat="43.55926799759906" lon="12.417707320913348"><ele>482.66666666666663</ele><time>2026-04-18T08:14:49Z</time></trkpt><trkpt lat="43.55933880895828" lon="12.417615717386496"><ele>482.8333333333333</ele><time>2026-04-18T08:14:50Z</time></trkpt><trkpt lat="43.55940148523504" lon="12.417515970549745"><ele>483.0</ele><time>2026-04-18T08:14:51Z</time></trkpt><trkpt lat="43.559469066850184" lon="12.417437777744352"><ele>483.0</ele><time>2026-04-18T08:14:52Z</time></trkpt><trkpt lat="43.55953758223116" lon="12.417357700373667"><ele>483.0</ele><time>2026-04-18T08:14:53Z</time></trkpt><trkpt lat="43.55960107668742" lon="12.417283492106755"><ele>483.0</ele><time>2026-04-18T08:14:54Z</time></trkpt><trkpt lat="43.55966865108901" lon="12.417205881723602"><ele>483.0</ele><time>2026-04-18T08:14:55Z</time></trkpt><trkpt lat="43.55973081340653" lon="12.41712316940775"><ele>483.0</ele><time>2026-04-18T08:14:56Z</time></trkpt><trkpt lat="43.5597984702668" lon="12.417029790201068"><ele>483.0</ele><time>2026-04-18T08:14:57Z</time></trkpt><trkpt lat="43.559852686805655" lon="12.416930859298525"><ele>484.4</ele><time>2026-04-18T08:14:58Z</time></trkpt><trkpt lat="43.55990472163596" lon="12.416823442511443"><ele>485.79999999999995</ele><time>2026-04-18T08:14:59Z</time></trkpt><trkpt lat="43.5599415241433" lon="12.416712154939502"><ele>487.2</ele><time>2026-04-18T08:15:00Z</time></trkpt><trkpt lat="43.55996576331914" lon="12.416588066570265"><ele>488.6</ele><time>2026-04-18T08:15:01Z</time></trkpt><trkpt lat="43.55996752014519" lon="12.41645606689448"><ele>490.0</ele><time>2026-04-18T08:15:02Z</time></trkpt><trkpt lat="43.559945830499835" lon="12.416325034062702"><ele>491.0</ele><time>2026-04-18T08:15:03Z</time></trkpt><trkpt lat="43.55990393900652" lon="12.416195994927284"><ele>492.0</ele><time>2026-04-18T08:15:04Z</time></trkpt><trkpt lat="43.559860372215425" lon="12.41607898103892"><ele>493.0</ele><time>2026-04-18T08:15:04.999Z</time></trkpt><trkpt lat="43.55981304665181" lon="12.415957028921511"><ele>494.0</ele><time>2026-04-18T08:15:05.999Z</time></trkpt><trkpt lat="43.55976880814086" lon="12.41584617155096"><ele>495.0</ele><time>2026-04-18T08:15:06.999Z</time></trkpt><trkpt lat="43.5597246160113" lon="12.415732241839438"><ele>495.0</ele><time>2026-04-18T08:15:07.999Z</time></trkpt><trkpt lat="43.559681007491626" lon="12.41562262741872"><ele>495.0</ele><time>2026-04-18T08:15:08.999Z</time></trkpt><trkpt lat="43.559638343245396" lon="12.415519038809476"><ele>495.0</ele><time>2026-04-18T08:15:09.999Z</time></trkpt><trkpt lat="43.559602782380736" lon="12.415425039584493"><ele>495.0</ele><time>2026-04-18T08:15:10.999Z</time></trkpt><trkpt lat="43.559576011339345" lon="12.415326566018042"><ele>495.0</ele><time>2026-04-18T08:15:11.999Z</time></trkpt><trkpt lat="43.55956493957685" lon="12.415235091513486"><ele>495.0</ele><time>2026-04-18T08:15:12.999Z</time></trkpt><trkpt lat="43.55955975563938" lon="12.415132487299116"><ele>495.5</ele><time>2026-04-18T08:15:13.999Z</time></trkpt><trkpt lat="43.55955806371793" lon="12.415025066555954"><ele>496.0</ele><time>2026-04-18T08:15:14.999Z</time></trkpt><trkpt lat="43.559559556631044" lon="12.41490765405279"><ele>496.5</ele><time>2026-04-18T08:15:15.999Z</time></trkpt><trkpt lat="43.55956690500587" lon="12.41477991289812"><ele>497.0</ele><time>2026-04-18T08:15:16.999Z</time></trkpt><trkpt lat="43.55957633999655" lon="12.414655102529315"><ele>497.5</ele><time>2026-04-18T08:15:17.999Z</time></trkpt><trkpt lat="43.55958691997518" lon="12.414543940945858"><ele>498.0</ele><time>2026-04-18T08:15:18.999Z</time></trkpt><trkpt lat="43.559596058706795" lon="12.41443911717958"><ele>499.3333333333333</ele><time>2026-04-18T08:15:19.999Z</time></trkpt><trkpt lat="43.55960103443684" lon="12.414350293567086"><ele>500.66666666666663</ele><time>2026-04-18T08:15:20.999Z</time></trkpt><trkpt lat="43.55959975134043" lon="12.414195214050585"><ele>502.0</ele><time>2026-04-18T08:15:22.999Z</time></trkpt><trkpt lat="43.55958473577701" lon="12.414049923190277"><ele>503.3333333333333</ele><time>2026-04-18T08:15:24.999Z</time></trkpt><trkpt lat="43.55956999767983" lon="12.413953440170845"><ele>504.66666666666663</ele><time>2026-04-18T08:15:26.999Z</time></trkpt><trkpt lat="43.55955396638327" lon="12.413869336885966"><ele>506.0</ele><time>2026-04-18T08:15:30.999Z</time></trkpt><trkpt lat="43.55953327718716" lon="12.413783592162268"><ele>502.0</ele><time>2026-04-18T08:15:33.999Z</time></trkpt><trkpt lat="43.55949567440795" lon="12.413657221375324"><ele>498.0</ele><time>2026-04-18T08:15:36Z</time></trkpt><trkpt lat="43.559443539344485" lon="12.413480090788454"><ele>494.0</ele><time>2026-04-18T08:15:38Z</time></trkpt><trkpt lat="43.559409214919526" lon="12.413355235701406"><ele>490.0</ele><time>2026-04-18T08:15:39Z</time></trkpt><trkpt lat="43.559368622536034" lon="12.413208131367591"><ele>486.0</ele><time>2026-04-18T08:15:40Z</time></trkpt><trkpt lat="43.5593252589498" lon="12.413061066214135"><ele>488.33333333333337</ele><time>2026-04-18T08:15:41Z</time></trkpt><trkpt lat="43.559274271741764" lon="12.41287212111062"><ele>490.6666666666667</ele><time>2026-04-18T08:15:42Z</time></trkpt><trkpt lat="43.559221474884204" lon="12.412679357488544"><ele>493.0</ele><time>2026-04-18T08:15:43Z</time></trkpt><trkpt lat="43.5591630294736" lon="12.412462036430902"><ele>493.0</ele><time>2026-04-18T08:15:44Z</time></trkpt><trkpt lat="43.55910487316334" lon="12.41223329402837"><ele>493.0</ele><time>2026-04-18T08:15:45Z</time></trkpt><trkpt lat="43.55904906325585" lon="12.411995792533043"><ele>493.0</ele><time>2026-04-18T08:15:46Z</time></trkpt><trkpt lat="43.55898371545824" lon="12.411759228793633"><ele>496.6666666666667</ele><time>2026-04-18T08:15:47Z</time></trkpt><trkpt lat="43.55892227123616" lon="12.411531650549353"><ele>500.33333333333337</ele><time>2026-04-18T08:15:48Z</time></trkpt><trkpt lat="43.558854143168695" lon="12.411291692827795"><ele>504.0</ele><time>2026-04-18T08:15:49Z</time></trkpt><trkpt lat="43.55878751690861" lon="12.411079065888844"><ele>498.66666666666663</ele><time>2026-04-18T08:15:50Z</time></trkpt><trkpt lat="43.55868893283214" lon="12.41087048824592"><ele>493.3333333333333</ele><time>2026-04-18T08:15:51Z</time></trkpt><trkpt lat="43.558576617331056" lon="12.41069983362351"><ele>488.0</ele><time>2026-04-18T08:15:52Z</time></trkpt><trkpt lat="43.55844564301128" lon="12.410526851813307"><ele>488.3333333333333</ele><time>2026-04-18T08:15:53Z</time></trkpt><trkpt lat="43.55829603943404" lon="12.410373452807276"><ele>488.66666666666663</ele><time>2026-04-18T08:15:54Z</time></trkpt><trkpt lat="43.55813436638901" lon="12.41018662253065"><ele>489.0</ele><time>2026-04-18T08:15:55Z</time></trkpt><trkpt lat="43.55797766086508" lon="12.410027351286761"><ele>488.5</ele><time>2026-04-18T08:15:56Z</time></trkpt><trkpt lat="43.55779469594919" lon="12.409849630238606"><ele>488.0</ele><time>2026-04-18T08:15:57Z</time></trkpt><trkpt lat="43.557599551929755" lon="12.409690615818386"><ele>489.66666666666663</ele><time>2026-04-18T08:15:58Z</time></trkpt><trkpt lat="43.5574255073894" lon="12.409508963474577"><ele>491.33333333333337</ele><time>2026-04-18T08:15:59Z</time></trkpt><trkpt lat="43.557253128209936" lon="12.409337327710542"><ele>493.0</ele><time>2026-04-18T08:16:00Z</time></trkpt><trkpt lat="43.55708777556528" lon="12.40917995676728"><ele>493.0</ele><time>2026-04-18T08:16:01Z</time></trkpt><trkpt lat="43.556934540451074" lon="12.40903548456152"><ele>493.0</ele><time>2026-04-18T08:16:02Z</time></trkpt><trkpt lat="43.55678550746584" lon="12.408896660422059"><ele>493.0</ele><time>2026-04-18T08:16:03Z</time></trkpt><trkpt lat="43.556632867067336" lon="12.40874851689516"><ele>493.0</ele><time>2026-04-18T08:16:04Z</time></trkpt><trkpt lat="43.55647795799969" lon="12.408582595405223"><ele>493.0</ele><time>2026-04-18T08:16:05Z</time></trkpt><trkpt lat="43.556328258454776" lon="12.40840568526494"><ele>493.0</ele><time>2026-04-18T08:16:06Z</time></trkpt><trkpt lat="43.5561672423838" lon="12.408218755518769"><ele>491.6666666666667</ele><time>2026-04-18T08:16:07Z</time></trkpt><trkpt lat="43.55601739475894" lon="12.408022880890803"><ele>490.33333333333337</ele><time>2026-04-18T08:16:08Z</time></trkpt><trkpt lat="43.55586881202634" lon="12.40782146738773"><ele>489.0</ele><time>2026-04-18T08:16:09Z</time></trkpt><trkpt lat="43.55572363640432" lon="12.407609054454106"><ele>491.33333333333337</ele><time>2026-04-18T08:16:10Z</time></trkpt><trkpt lat="43.55557860859246" lon="12.40738270873497"><ele>493.6666666666667</ele><time>2026-04-18T08:16:11Z</time></trkpt><trkpt lat="43.55543353429629" lon="12.407157275441971"><ele>496.0</ele><time>2026-04-18T08:16:12Z</time></trkpt><trkpt lat="43.55529106291018" lon="12.406929340778067"><ele>496.0</ele><time>2026-04-18T08:16:13Z</time></trkpt><trkpt lat="43.555155501938025" lon="12.406710617724789"><ele>496.0</ele><time>2026-04-18T08:16:14Z</time></trkpt><trkpt lat="43.555074675332975" lon="12.406455063173969"><ele>496.0</ele><time>2026-04-18T08:16:15Z</time></trkpt><trkpt lat="43.554990008758324" lon="12.406185535403088"><ele>499.0</ele><time>2026-04-18T08:16:16Z</time></trkpt><trkpt lat="43.55486962584135" lon="12.405945699928141"><ele>502.0</ele><time>2026-04-18T08:16:17Z</time></trkpt><trkpt lat="43.55474919324607" lon="12.405718097634646"><ele>505.0</ele><time>2026-04-18T08:16:18Z</time></trkpt><trkpt lat="43.554599568130875" lon="12.40551163636478"><ele>503.6666666666667</ele><time>2026-04-18T08:16:19Z</time></trkpt><trkpt lat="43.55443205583631" lon="12.405322222459148"><ele>502.33333333333337</ele><time>2026-04-18T08:16:20Z</time></trkpt><trkpt lat="43.55428408896558" lon="12.405139125427533"><ele>501.0</ele><time>2026-04-18T08:16:21Z</time></trkpt><trkpt lat="43.55414791521524" lon="12.404962235344746"><ele>501.0</ele><time>2026-04-18T08:16:22Z</time></trkpt><trkpt lat="43.55401424440096" lon="12.404795361847187"><ele>501.0</ele><time>2026-04-18T08:16:23Z</time></trkpt><trkpt lat="43.55388946388645" lon="12.404613633981798"><ele>501.0</ele><time>2026-04-18T08:16:24Z</time></trkpt><trkpt lat="43.5537882300423" lon="12.40442356329706"><ele>501.66666666666663</ele><time>2026-04-18T08:16:25Z</time></trkpt><trkpt lat="43.55372753885665" lon="12.404218785697946"><ele>502.3333333333333</ele><time>2026-04-18T08:16:26Z</time></trkpt><trkpt lat="43.55366809611369" lon="12.403994839231462"><ele>503.0</ele><time>2026-04-18T08:16:27Z</time></trkpt><trkpt lat="43.55360775934365" lon="12.403743981362918"><ele>503.0</ele><time>2026-04-18T08:16:28Z</time></trkpt><trkpt lat="43.55354412882798" lon="12.403477068848376"><ele>503.0</ele><time>2026-04-18T08:16:29Z</time></trkpt><trkpt lat="43.55348041079505" lon="12.40321392968858"><ele>503.0</ele><time>2026-04-18T08:16:30Z</time></trkpt><trkpt lat="43.55341497440936" lon="12.402956931764061"><ele>507.3333333333333</ele><time>2026-04-18T08:16:31Z</time></trkpt><trkpt lat="43.553327046715616" lon="12.40271401285403"><ele>511.66666666666663</ele><time>2026-04-18T08:16:32Z</time></trkpt><trkpt lat="43.55322660588312" lon="12.402477078322063"><ele>516.0</ele><time>2026-04-18T08:16:33Z</time></trkpt><trkpt lat="43.55308433370833" lon="12.40228084140738"><ele>516.0</ele><time>2026-04-18T08:16:34Z</time></trkpt><trkpt lat="43.552913978009634" lon="12.402143272661714"><ele>516.0</ele><time>2026-04-18T08:16:35Z</time></trkpt><trkpt lat="43.55273223691903" lon="12.402024772185383"><ele>516.0</ele><time>2026-04-18T08:16:36Z</time></trkpt><trkpt lat="43.55255772893794" lon="12.401912049181595"><ele>516.0</ele><time>2026-04-18T08:16:37Z</time></trkpt><trkpt lat="43.55239785217094" lon="12.401794855223265"><ele>516.0</ele><time>2026-04-18T08:16:38Z</time></trkpt><trkpt lat="43.5522434831007" lon="12.401677153374065"><ele>516.0</ele><time>2026-04-18T08:16:39Z</time></trkpt><trkpt lat="43.552102662668304" lon="12.40152147825215"><ele>513.3333333333334</ele><time>2026-04-18T08:16:40Z</time></trkpt><trkpt lat="43.55198800945115" lon="12.401351997029803"><ele>510.6666666666667</ele><time>2026-04-18T08:16:41Z</time></trkpt><trkpt lat="43.55188037841666" lon="12.401180812233182"><ele>508.0</ele><time>2026-04-18T08:16:42Z</time></trkpt><trkpt lat="43.55178004923891" lon="12.401026366956515"><ele>508.0</ele><time>2026-04-18T08:16:43Z</time></trkpt><trkpt lat="43.55168695321325" lon="12.400853606695136"><ele>508.0</ele><time>2026-04-18T08:16:44Z</time></trkpt><trkpt lat="43.55159226944404" lon="12.400679312031732"><ele>508.0</ele><time>2026-04-18T08:16:45Z</time></trkpt><trkpt lat="43.551512949569535" lon="12.400483954584274"><ele>511.33333333333337</ele><time>2026-04-18T08:16:46Z</time></trkpt><trkpt lat="43.55142496981678" lon="12.4002867594525"><ele>514.6666666666666</ele><time>2026-04-18T08:16:47Z</time></trkpt><trkpt lat="43.55134474432021" lon="12.40008711398205"><ele>518.0</ele><time>2026-04-18T08:16:48Z</time></trkpt><trkpt lat="43.551283227822275" lon="12.399874554262457"><ele>517.3333333333333</ele><time>2026-04-18T08:16:49Z</time></trkpt><trkpt lat="43.55124352169994" lon="12.399659238629106"><ele>516.6666666666666</ele><time>2026-04-18T08:16:50Z</time></trkpt><trkpt lat="43.551219684267785" lon="12.399432270699261"><ele>516.0</ele><time>2026-04-18T08:16:51Z</time></trkpt><trkpt lat="43.55119225649171" lon="12.399197389749638"><ele>511.66666666666663</ele><time>2026-04-18T08:16:52Z</time></trkpt><trkpt lat="43.55118480044082" lon="12.398952200135932"><ele>507.3333333333333</ele><time>2026-04-18T08:16:53Z</time></trkpt><trkpt lat="43.55117713947105" lon="12.398707141923403"><ele>503.0</ele><time>2026-04-18T08:16:54Z</time></trkpt><trkpt lat="43.55116830951741" lon="12.398452225475605"><ele>503.0</ele><time>2026-04-18T08:16:55Z</time></trkpt><trkpt lat="43.55115085854128" lon="12.398190407916562"><ele>503.0</ele><time>2026-04-18T08:16:56Z</time></trkpt><trkpt lat="43.55111768762396" lon="12.397933350739107"><ele>503.0</ele><time>2026-04-18T08:16:57Z</time></trkpt><trkpt lat="43.551056801633436" lon="12.397673007943576"><ele>506.0</ele><time>2026-04-18T08:16:58Z</time></trkpt><trkpt lat="43.5509803437437" lon="12.397416450858628"><ele>509.0</ele><time>2026-04-18T08:16:59Z</time></trkpt><trkpt lat="43.55090773270797" lon="12.397162423759717"><ele>512.0</ele><time>2026-04-18T08:17:00Z</time></trkpt><trkpt lat="43.55083616377692" lon="12.396910709809879"><ele>516.0</ele><time>2026-04-18T08:17:01Z</time></trkpt><trkpt lat="43.55076880523854" lon="12.396652380430739"><ele>520.0</ele><time>2026-04-18T08:17:02Z</time></trkpt><trkpt lat="43.55071217796967" lon="12.396399214955832"><ele>524.0</ele><time>2026-04-18T08:17:03Z</time></trkpt><trkpt lat="43.550667418152514" lon="12.396140064439972"><ele>527.3333333333333</ele><time>2026-04-18T08:17:04Z</time></trkpt><trkpt lat="43.55063454004377" lon="12.395882550931212"><ele>530.6666666666666</ele><time>2026-04-18T08:17:05Z</time></trkpt><trkpt lat="43.55060249501164" lon="12.39561878915363"><ele>534.0</ele><time>2026-04-18T08:17:06Z</time></trkpt><trkpt lat="43.550550309563064" lon="12.395356618189723"><ele>531.6666666666666</ele><time>2026-04-18T08:17:07Z</time></trkpt><trkpt lat="43.55047286744138" lon="12.395095430286766"><ele>529.3333333333333</ele><time>2026-04-18T08:17:08Z</time></trkpt><trkpt lat="43.550383969808166" lon="12.39484460635972"><ele>527.0</ele><time>2026-04-18T08:17:09Z</time></trkpt><trkpt lat="43.55029866965265" lon="12.394584975620647"><ele>527.0</ele><time>2026-04-18T08:17:10Z</time></trkpt><trkpt lat="43.550221081201904" lon="12.394330284197544"><ele>527.0</ele><time>2026-04-18T08:17:11Z</time></trkpt><trkpt lat="43.55015646374261" lon="12.394074676639162"><ele>527.0</ele><time>2026-04-18T08:17:12Z</time></trkpt><trkpt lat="43.55013475085862" lon="12.393806119073421"><ele>526.0</ele><time>2026-04-18T08:17:12.999Z</time></trkpt><trkpt lat="43.55013859001219" lon="12.39353666255248"><ele>525.0</ele><time>2026-04-18T08:17:13.999Z</time></trkpt><trkpt lat="43.55016942886273" lon="12.393267977577658"><ele>524.0</ele><time>2026-04-18T08:17:14.999Z</time></trkpt><trkpt lat="43.550237974089754" lon="12.393008783189732"><ele>522.0</ele><time>2026-04-18T08:17:15.999Z</time></trkpt><trkpt lat="43.55034065867156" lon="12.39276973313632"><ele>520.0</ele><time>2026-04-18T08:17:16.999Z</time></trkpt><trkpt lat="43.55045596320837" lon="12.392524877557547"><ele>518.0</ele><time>2026-04-18T08:17:17.999Z</time></trkpt><trkpt lat="43.550612193794244" lon="12.392314524772338"><ele>520.6666666666666</ele><time>2026-04-18T08:17:18.999Z</time></trkpt><trkpt lat="43.55075996519026" lon="12.392099650897723"><ele>523.3333333333334</ele><time>2026-04-18T08:17:19.999Z</time></trkpt><trkpt lat="43.550897782898566" lon="12.39187033395846"><ele>526.0</ele><time>2026-04-18T08:17:20.999Z</time></trkpt><trkpt lat="43.55104595807579" lon="12.391660784850083"><ele>526.0</ele><time>2026-04-18T08:17:21.999Z</time></trkpt><trkpt lat="43.55119041970336" lon="12.39145121230413"><ele>526.0</ele><time>2026-04-18T08:17:22.999Z</time></trkpt><trkpt lat="43.5513461532257" lon="12.391276324278241"><ele>526.0</ele><time>2026-04-18T08:17:23.999Z</time></trkpt><trkpt lat="43.55151433701082" lon="12.391109575409793"><ele>528.0</ele><time>2026-04-18T08:17:24.999Z</time></trkpt><trkpt lat="43.55167292911705" lon="12.390910768683003"><ele>530.0</ele><time>2026-04-18T08:17:25.999Z</time></trkpt><trkpt lat="43.551829834031984" lon="12.39071956774515"><ele>532.0</ele><time>2026-04-18T08:17:26.999Z</time></trkpt><trkpt lat="43.55195620406159" lon="12.390477101616215"><ele>541.0</ele><time>2026-04-18T08:17:27.999Z</time></trkpt><trkpt lat="43.552075597114865" lon="12.390227015102928"><ele>550.0</ele><time>2026-04-18T08:17:28.999Z</time></trkpt><trkpt lat="43.55219300095676" lon="12.389974120525189"><ele>559.0</ele><time>2026-04-18T08:17:29.999Z</time></trkpt><trkpt lat="43.55229452677398" lon="12.389712708115296"><ele>556.6666666666667</ele><time>2026-04-18T08:17:30.999Z</time></trkpt><trkpt lat="43.552372656074006" lon="12.38943411015503"><ele>554.3333333333334</ele><time>2026-04-18T08:17:31.999Z</time></trkpt><trkpt lat="43.55242017527787" lon="12.389145025363636"><ele>552.0</ele><time>2026-04-18T08:17:32.999Z</time></trkpt><trkpt lat="43.55242097788952" lon="12.388845163228105"><ele>552.0</ele><time>2026-04-18T08:17:33.999Z</time></trkpt><trkpt lat="43.552381322249865" lon="12.388549840305473"><ele>552.0</ele><time>2026-04-18T08:17:34.999Z</time></trkpt><trkpt lat="43.552353966996584" lon="12.388270452159924"><ele>552.0</ele><time>2026-04-18T08:17:35.999Z</time></trkpt><trkpt lat="43.55239112257997" lon="12.388008708382586"><ele>549.6666666666666</ele><time>2026-04-18T08:17:36.999Z</time></trkpt><trkpt lat="43.55247612199565" lon="12.38777426041172"><ele>547.3333333333333</ele><time>2026-04-18T08:17:37.999Z</time></trkpt><trkpt lat="43.552585914407004" lon="12.387516719570552"><ele>545.0</ele><time>2026-04-18T08:17:38.999Z</time></trkpt><trkpt lat="43.55267445658777" lon="12.38724639114383"><ele>541.3333333333333</ele><time>2026-04-18T08:17:39.999Z</time></trkpt><trkpt lat="43.552741598680825" lon="12.386955749791714"><ele>537.6666666666666</ele><time>2026-04-18T08:17:40.999Z</time></trkpt><trkpt lat="43.5527908102012" lon="12.386654673359683"><ele>534.0</ele><time>2026-04-18T08:17:42Z</time></trkpt><trkpt lat="43.552841233795625" lon="12.38636145859689"><ele>545.3333333333334</ele><time>2026-04-18T08:17:43Z</time></trkpt><trkpt lat="43.55288645707179" lon="12.3860632675262"><ele>556.6666666666667</ele><time>2026-04-18T08:17:44Z</time></trkpt><trkpt lat="43.55290849815108" lon="12.385757853109661"><ele>568.0</ele><time>2026-04-18T08:17:45Z</time></trkpt><trkpt lat="43.552911209496735" lon="12.38545134066622"><ele>568.0</ele><time>2026-04-18T08:17:46Z</time></trkpt><trkpt lat="43.55290304485245" lon="12.385130761573768"><ele>568.0</ele><time>2026-04-18T08:17:47Z</time></trkpt><trkpt lat="43.552890227146385" lon="12.384825247494387"><ele>566.3333333333334</ele><time>2026-04-18T08:17:48Z</time></trkpt><trkpt lat="43.55287528539515" lon="12.384515328134842"><ele>564.6666666666666</ele><time>2026-04-18T08:17:49Z</time></trkpt><trkpt lat="43.552864058999695" lon="12.38421114486834"><ele>563.0</ele><time>2026-04-18T08:17:50Z</time></trkpt><trkpt lat="43.55285563815354" lon="12.383922138458875"><ele>558.6666666666666</ele><time>2026-04-18T08:17:51Z</time></trkpt><trkpt lat="43.55285343349807" lon="12.383652551886291"><ele>554.3333333333334</ele><time>2026-04-18T08:17:52Z</time></trkpt><trkpt lat="43.55286337151234" lon="12.383400105295674"><ele>550.0</ele><time>2026-04-18T08:17:53Z</time></trkpt><trkpt lat="43.55291088178904" lon="12.383166088420317"><ele>546.3333333333334</ele><time>2026-04-18T08:17:54Z</time></trkpt><trkpt lat="43.55299514270235" lon="12.382954994156615"><ele>542.6666666666666</ele><time>2026-04-18T08:17:55Z</time></trkpt><trkpt lat="43.55311635340334" lon="12.382760678280771"><ele>539.0</ele><time>2026-04-18T08:17:56Z</time></trkpt><trkpt lat="43.55324238730861" lon="12.382561949124858"><ele>539.0</ele><time>2026-04-18T08:17:57Z</time></trkpt><trkpt lat="43.55335526422429" lon="12.382349340853866"><ele>539.0</ele><time>2026-04-18T08:17:58Z</time></trkpt><trkpt lat="43.553442587017166" lon="12.382108219069707"><ele>539.0</ele><time>2026-04-18T08:17:59Z</time></trkpt><trkpt lat="43.553488819981695" lon="12.381848894388337"><ele>536.6666666666666</ele><time>2026-04-18T08:18:00Z</time></trkpt><trkpt lat="43.55348410924022" lon="12.381596460964532"><ele>534.3333333333334</ele><time>2026-04-18T08:18:01Z</time></trkpt><trkpt lat="43.55341988926392" lon="12.381355286343137"><ele>532.0</ele><time>2026-04-18T08:18:02Z</time></trkpt><trkpt lat="43.55333161026527" lon="12.381128867837786"><ele>532.0</ele><time>2026-04-18T08:18:03Z</time></trkpt><trkpt lat="43.55324941688011" lon="12.380893883917341"><ele>532.0</ele><time>2026-04-18T08:18:04Z</time></trkpt><trkpt lat="43.553171871308045" lon="12.380656663460893"><ele>532.0</ele><time>2026-04-18T08:18:05Z</time></trkpt><trkpt lat="43.55308274405646" lon="12.380415509762"><ele>534.0</ele><time>2026-04-18T08:18:06Z</time></trkpt><trkpt lat="43.55296187305314" lon="12.380197781080414"><ele>536.0</ele><time>2026-04-18T08:18:07Z</time></trkpt><trkpt lat="43.55280642346685" lon="12.380007567192306"><ele>538.0</ele><time>2026-04-18T08:18:08Z</time></trkpt><trkpt lat="43.552648969004224" lon="12.379835719913366"><ele>542.3333333333334</ele><time>2026-04-18T08:18:09Z</time></trkpt><trkpt lat="43.55248513793716" lon="12.379663053667702"><ele>546.6666666666666</ele><time>2026-04-18T08:18:10Z</time></trkpt><trkpt lat="43.55232546833147" lon="12.379484885492722"><ele>551.0</ele><time>2026-04-18T08:18:11Z</time></trkpt><trkpt lat="43.55216626435137" lon="12.379294949583173"><ele>550.0</ele><time>2026-04-18T08:18:12Z</time></trkpt><trkpt lat="43.5520122009387" lon="12.37910050888897"><ele>549.0</ele><time>2026-04-18T08:18:13Z</time></trkpt><trkpt lat="43.551859015797795" lon="12.378898006307113"><ele>548.0</ele><time>2026-04-18T08:18:14Z</time></trkpt><trkpt lat="43.551708560983485" lon="12.378696730063432"><ele>548.0</ele><time>2026-04-18T08:18:15Z</time></trkpt><trkpt lat="43.55155693129133" lon="12.378495980959354"><ele>548.0</ele><time>2026-04-18T08:18:16Z</time></trkpt><trkpt lat="43.55140445346683" lon="12.378291674431178"><ele>548.0</ele><time>2026-04-18T08:18:17Z</time></trkpt><trkpt lat="43.55125154267542" lon="12.378084262162567"><ele>548.3333333333333</ele><time>2026-04-18T08:18:18Z</time></trkpt><trkpt lat="43.55109850086872" lon="12.377880656669053"><ele>548.6666666666666</ele><time>2026-04-18T08:18:19Z</time></trkpt><trkpt lat="43.55094800845772" lon="12.377681020331481"><ele>549.0</ele><time>2026-04-18T08:18:20Z</time></trkpt><trkpt lat="43.55079442627585" lon="12.37747802214105"><ele>549.0</ele><time>2026-04-18T08:18:21Z</time></trkpt><trkpt lat="43.550647115286644" lon="12.377278160856614"><ele>549.0</ele><time>2026-04-18T08:18:22Z</time></trkpt><trkpt lat="43.55049732152113" lon="12.377079267764335"><ele>549.0</ele><time>2026-04-18T08:18:23Z</time></trkpt><trkpt lat="43.55034808716209" lon="12.376888624194795"><ele>548.0</ele><time>2026-04-18T08:18:24Z</time></trkpt><trkpt lat="43.55019335553145" lon="12.376690577019275"><ele>547.0</ele><time>2026-04-18T08:18:25Z</time></trkpt><trkpt lat="43.550044095599084" lon="12.376485202782678"><ele>546.0</ele><time>2026-04-18T08:18:26Z</time></trkpt><trkpt lat="43.54989479861404" lon="12.376267565139006"><ele>546.6666666666666</ele><time>2026-04-18T08:18:27Z</time></trkpt><trkpt lat="43.54974383892546" lon="12.376048551945983"><ele>547.3333333333333</ele><time>2026-04-18T08:18:28Z</time></trkpt><trkpt lat="43.54959198103101" lon="12.375829563337028"><ele>548.0</ele><time>2026-04-18T08:18:29Z</time></trkpt><trkpt lat="43.549441147617955" lon="12.375611383545726"><ele>550.6666666666666</ele><time>2026-04-18T08:18:30Z</time></trkpt><trkpt lat="43.54928915321315" lon="12.375392398146282"><ele>553.3333333333334</ele><time>2026-04-18T08:18:31Z</time></trkpt><trkpt lat="43.54913297795931" lon="12.37516847520872"><ele>556.0</ele><time>2026-04-18T08:18:32Z</time></trkpt><trkpt lat="43.54897886326651" lon="12.37494697711341"><ele>556.0</ele><time>2026-04-18T08:18:33Z</time></trkpt><trkpt lat="43.54882559355062" lon="12.374723839081938"><ele>556.0</ele><time>2026-04-18T08:18:34Z</time></trkpt><trkpt lat="43.548674869310716" lon="12.374500263621496"><ele>556.0</ele><time>2026-04-18T08:18:35Z</time></trkpt><trkpt lat="43.548523197203096" lon="12.37427796073718"><ele>554.3333333333334</ele><time>2026-04-18T08:18:36Z</time></trkpt><trkpt lat="43.548370020906916" lon="12.374062168840345"><ele>552.6666666666666</ele><time>2026-04-18T08:18:37Z</time></trkpt><trkpt lat="43.548212119835796" lon="12.373839206572697"><ele>551.0</ele><time>2026-04-18T08:18:38Z</time></trkpt><trkpt lat="43.54806223839569" lon="12.37361978831626"><ele>550.3333333333333</ele><time>2026-04-18T08:18:39Z</time></trkpt><trkpt lat="43.547913747292625" lon="12.373403469941193"><ele>549.6666666666666</ele><time>2026-04-18T08:18:40Z</time></trkpt><trkpt lat="43.54776728089691" lon="12.373187907836014"><ele>549.0</ele><time>2026-04-18T08:18:41Z</time></trkpt><trkpt lat="43.547622480203955" lon="12.372974768695684"><ele>552.0</ele><time>2026-04-18T08:18:42Z</time></trkpt><trkpt lat="43.54748297237248" lon="12.372763789411133"><ele>555.0</ele><time>2026-04-18T08:18:43Z</time></trkpt><trkpt lat="43.547327312115996" lon="12.372537290627307"><ele>558.0</ele><time>2026-04-18T08:18:44Z</time></trkpt><trkpt lat="43.54717277068418" lon="12.37231480614015"><ele>556.0</ele><time>2026-04-18T08:18:45Z</time></trkpt><trkpt lat="43.5470162815969" lon="12.37209171923984"><ele>554.0</ele><time>2026-04-18T08:18:46Z</time></trkpt><trkpt lat="43.54686519675758" lon="12.37187414165886"><ele>552.0</ele><time>2026-04-18T08:18:47Z</time></trkpt><trkpt lat="43.5467039463514" lon="12.371636396154168"><ele>552.0</ele><time>2026-04-18T08:18:48Z</time></trkpt><trkpt lat="43.54655268420912" lon="12.371416448446078"><ele>552.0</ele><time>2026-04-18T08:18:49Z</time></trkpt><trkpt lat="43.54639703389232" lon="12.371201673357865"><ele>552.0</ele><time>2026-04-18T08:18:50Z</time></trkpt><trkpt lat="43.54621633341734" lon="12.371012657634736"><ele>553.6666666666666</ele><time>2026-04-18T08:18:51Z</time></trkpt><trkpt lat="43.54601735752838" lon="12.370903961734719"><ele>555.3333333333333</ele><time>2026-04-18T08:18:52Z</time></trkpt><trkpt lat="43.54580824446409" lon="12.370805446390158"><ele>557.0</ele><time>2026-04-18T08:18:53Z</time></trkpt><trkpt lat="43.5456078907855" lon="12.370715918876472"><ele>557.0</ele><time>2026-04-18T08:18:54Z</time></trkpt><trkpt lat="43.54539754730156" lon="12.370625469089259"><ele>557.0</ele><time>2026-04-18T08:18:55Z</time></trkpt><trkpt lat="43.5451923720927" lon="12.370533619911185"><ele>557.0</ele><time>2026-04-18T08:18:56Z</time></trkpt><trkpt lat="43.54498506544133" lon="12.370438795512097"><ele>563.3333333333333</ele><time>2026-04-18T08:18:57Z</time></trkpt><trkpt lat="43.54477468568891" lon="12.370340569936722"><ele>569.6666666666666</ele><time>2026-04-18T08:18:58Z</time></trkpt><trkpt lat="43.544568826018015" lon="12.370247273329687"><ele>576.0</ele><time>2026-04-18T08:18:59Z</time></trkpt><trkpt lat="43.544363093018994" lon="12.370159049286723"><ele>576.0</ele><time>2026-04-18T08:19:00Z</time></trkpt><trkpt lat="43.544156324687" lon="12.370071378420084"><ele>576.0</ele><time>2026-04-18T08:19:01Z</time></trkpt><trkpt lat="43.54395266472066" lon="12.369983114803064"><ele>576.0</ele><time>2026-04-18T08:19:02Z</time></trkpt><trkpt lat="43.54375994382765" lon="12.369896921573833"><ele>575.0</ele><time>2026-04-18T08:19:03Z</time></trkpt><trkpt lat="43.54356658232811" lon="12.369774822546768"><ele>574.0</ele><time>2026-04-18T08:19:04Z</time></trkpt><trkpt lat="43.54338043132698" lon="12.3696304762966"><ele>573.0</ele><time>2026-04-18T08:19:05Z</time></trkpt><trkpt lat="43.543202605352114" lon="12.369464469592115"><ele>573.3333333333334</ele><time>2026-04-18T08:19:06Z</time></trkpt><trkpt lat="43.543032471713445" lon="12.369279050010974"><ele>573.6666666666667</ele><time>2026-04-18T08:19:07Z</time></trkpt><trkpt lat="43.54287875609955" lon="12.369071803517732"><ele>574.0</ele><time>2026-04-18T08:19:08Z</time></trkpt><trkpt lat="43.542732670849794" lon="12.368850369894869"><ele>578.0</ele><time>2026-04-18T08:19:09Z</time></trkpt><trkpt lat="43.54259553179129" lon="12.368639647915504"><ele>582.0</ele><time>2026-04-18T08:19:10Z</time></trkpt><trkpt lat="43.54246714658349" lon="12.368454460987905"><ele>586.0</ele><time>2026-04-18T08:19:11Z</time></trkpt><trkpt lat="43.5423328701391" lon="12.36831234736979"><ele>586.0</ele><time>2026-04-18T08:19:12Z</time></trkpt><trkpt lat="43.54217929963592" lon="12.368242167562236"><ele>586.0</ele><time>2026-04-18T08:19:13Z</time></trkpt><trkpt lat="43.54202790128321" lon="12.368260750698658"><ele>586.0</ele><time>2026-04-18T08:19:14Z</time></trkpt><trkpt lat="43.54189552628567" lon="12.3683606559212"><ele>584.6666666666667</ele><time>2026-04-18T08:19:15Z</time></trkpt><trkpt lat="43.541807631246094" lon="12.368530026103695"><ele>583.3333333333334</ele><time>2026-04-18T08:19:16Z</time></trkpt><trkpt lat="43.54176387518357" lon="12.368745896685306"><ele>582.0</ele><time>2026-04-18T08:19:17Z</time></trkpt><trkpt lat="43.541732134677176" lon="12.368976016408208"><ele>582.0</ele><time>2026-04-18T08:19:18Z</time></trkpt><trkpt lat="43.541654871159935" lon="12.369204544057798"><ele>582.0</ele><time>2026-04-18T08:19:19Z</time></trkpt><trkpt lat="43.54151651271159" lon="12.36937207034385"><ele>582.0</ele><time>2026-04-18T08:19:20Z</time></trkpt><trkpt lat="43.541342697462106" lon="12.369495692006431"><ele>588.6666666666666</ele><time>2026-04-18T08:19:21Z</time></trkpt><trkpt lat="43.541169898334" lon="12.369636308090815"><ele>595.3333333333333</ele><time>2026-04-18T08:19:22Z</time></trkpt><trkpt lat="43.54102703079401" lon="12.36981758149862"><ele>602.0</ele><time>2026-04-18T08:19:23Z</time></trkpt><trkpt lat="43.54094046383051" lon="12.37004478213813"><ele>602.0</ele><time>2026-04-18T08:19:24Z</time></trkpt><trkpt lat="43.54091526653412" lon="12.370312867154663"><ele>602.0</ele><time>2026-04-18T08:19:25Z</time></trkpt><trkpt lat="43.540911856428856" lon="12.370577901515041"><ele>602.0</ele><time>2026-04-18T08:19:26Z</time></trkpt><trkpt lat="43.54090691164075" lon="12.370819592400714"><ele>600.0</ele><time>2026-04-18T08:19:27Z</time></trkpt><trkpt lat="43.54088508149591" lon="12.37102336117755"><ele>598.0</ele><time>2026-04-18T08:19:27.999Z</time></trkpt><trkpt lat="43.54081744440831" lon="12.371186457862946"><ele>596.0</ele><time>2026-04-18T08:19:28.999Z</time></trkpt><trkpt lat="43.540699047867335" lon="12.37128348813523"><ele>594.0</ele><time>2026-04-18T08:19:29.999Z</time></trkpt><trkpt lat="43.540542046889215" lon="12.37131326886277"><ele>597.3333333333334</ele><time>2026-04-18T08:19:30.999Z</time></trkpt><trkpt lat="43.54035948979025" lon="12.37130339931156"><ele>600.6666666666667</ele><time>2026-04-18T08:19:31.999Z</time></trkpt><trkpt lat="43.54017554439592" lon="12.371311798589627"><ele>604.0</ele><time>2026-04-18T08:19:32.999Z</time></trkpt><trkpt lat="43.53997522165084" lon="12.371320124653227"><ele>604.0</ele><time>2026-04-18T08:19:33.999Z</time></trkpt><trkpt lat="43.53978148204701" lon="12.371331602093601"><ele>604.0</ele><time>2026-04-18T08:19:34.999Z</time></trkpt><trkpt lat="43.53957918450336" lon="12.371343084918609"><ele>604.0</ele><time>2026-04-18T08:19:35.999Z</time></trkpt><trkpt lat="43.539374190215916" lon="12.371359232328926"><ele>603.6666666666667</ele><time>2026-04-18T08:19:36.999Z</time></trkpt><trkpt lat="43.53915345003091" lon="12.371372614103185"><ele>603.3333333333334</ele><time>2026-04-18T08:19:37.999Z</time></trkpt><trkpt lat="43.538938675269165" lon="12.371381886217359"><ele>603.0</ele><time>2026-04-18T08:19:38.999Z</time></trkpt><trkpt lat="43.53871239424981" lon="12.371381323162495"><ele>603.0</ele><time>2026-04-18T08:19:39.999Z</time></trkpt><trkpt lat="43.538475801047866" lon="12.371369655320134"><ele>603.0</ele><time>2026-04-18T08:19:40.999Z</time></trkpt><trkpt lat="43.538236088581264" lon="12.371355068066073"><ele>606.3333333333334</ele><time>2026-04-18T08:19:41.999Z</time></trkpt><trkpt lat="43.5380586475344" lon="12.371326120372933"><ele>609.6666666666667</ele><time>2026-04-18T08:19:42.999Z</time></trkpt><trkpt lat="43.53783529740204" lon="12.371294778399765"><ele>613.0</ele><time>2026-04-18T08:19:43.999Z</time></trkpt><trkpt lat="43.537607685677884" lon="12.371264893145325"><ele>616.5</ele><time>2026-04-18T08:19:44.999Z</time></trkpt><trkpt lat="43.53737291547531" lon="12.37124144782681"><ele>620.0</ele><time>2026-04-18T08:19:45.999Z</time></trkpt><trkpt lat="43.537141711016744" lon="12.37121385392267"><ele>622.5</ele><time>2026-04-18T08:19:46.999Z</time></trkpt><trkpt lat="43.536913144644636" lon="12.371191828240297"><ele>625.0</ele><time>2026-04-18T08:19:48Z</time></trkpt><trkpt lat="43.53669346872014" lon="12.371158133266388"><ele>625.0</ele><time>2026-04-18T08:19:49Z</time></trkpt><trkpt lat="43.536481369310856" lon="12.371099169726508"><ele>625.0</ele><time>2026-04-18T08:19:50Z</time></trkpt><trkpt lat="43.53627823455873" lon="12.370990967692732"><ele>625.0</ele><time>2026-04-18T08:19:51Z</time></trkpt><trkpt lat="43.53609297850503" lon="12.370836366027659"><ele>622.3333333333334</ele><time>2026-04-18T08:19:52Z</time></trkpt><trkpt lat="43.53592213838774" lon="12.370640494188287"><ele>619.6666666666666</ele><time>2026-04-18T08:19:53Z</time></trkpt><trkpt lat="43.53575670299629" lon="12.37045048469083"><ele>617.0</ele><time>2026-04-18T08:19:54Z</time></trkpt><trkpt lat="43.53556151370201" lon="12.370331377919019"><ele>624.0</ele><time>2026-04-18T08:19:55Z</time></trkpt><trkpt lat="43.53534621153004" lon="12.370236828217077"><ele>631.0</ele><time>2026-04-18T08:19:56Z</time></trkpt><trkpt lat="43.535131496972355" lon="12.370153156776809"><ele>638.0</ele><time>2026-04-18T08:19:57Z</time></trkpt><trkpt lat="43.53491104487518" lon="12.37008341605984"><ele>638.0</ele><time>2026-04-18T08:19:58Z</time></trkpt><trkpt lat="43.5346836613813" lon="12.37006944391309"><ele>638.0</ele><time>2026-04-18T08:19:59Z</time></trkpt><trkpt lat="43.534456606551124" lon="12.370082331892176"><ele>638.6666666666666</ele><time>2026-04-18T08:20:00Z</time></trkpt><trkpt lat="43.53423185285006" lon="12.370087174177831"><ele>639.3333333333334</ele><time>2026-04-18T08:20:01Z</time></trkpt><trkpt lat="43.534019112158056" lon="12.37007650492529"><ele>640.0</ele><time>2026-04-18T08:20:02Z</time></trkpt><trkpt lat="43.53381196922942" lon="12.370028957886271"><ele>637.6666666666667</ele><time>2026-04-18T08:20:03Z</time></trkpt><trkpt lat="43.53360883872642" lon="12.369923381957841"><ele>635.3333333333334</ele><time>2026-04-18T08:20:04Z</time></trkpt><trkpt lat="43.53343018673609" lon="12.36972167500679"><ele>633.0</ele><time>2026-04-18T08:20:05Z</time></trkpt><trkpt lat="43.53326125828182" lon="12.36954938669377"><ele>639.3333333333334</ele><time>2026-04-18T08:20:06Z</time></trkpt><trkpt lat="43.533070882569874" lon="12.369436710561024"><ele>645.6666666666667</ele><time>2026-04-18T08:20:07Z</time></trkpt><trkpt lat="43.5328537299028" lon="12.369425184284967"><ele>652.0</ele><time>2026-04-18T08:20:08Z</time></trkpt><trkpt lat="43.53262696367834" lon="12.369459707539272"><ele>652.0</ele><time>2026-04-18T08:20:09Z</time></trkpt><trkpt lat="43.532419569319394" lon="12.36945557358364"><ele>652.0</ele><time>2026-04-18T08:20:10Z</time></trkpt><trkpt lat="43.532240994746026" lon="12.369426454570375"><ele>652.0</ele><time>2026-04-18T08:20:11Z</time></trkpt><trkpt lat="43.532099623311936" lon="12.36935221728327"><ele>654.75</ele><time>2026-04-18T08:20:12Z</time></trkpt><trkpt lat="43.53202623546539" lon="12.369194152662931"><ele>657.5</ele><time>2026-04-18T08:20:13Z</time></trkpt><trkpt lat="43.5320179158835" lon="12.369014816938313"><ele>660.25</ele><time>2026-04-18T08:20:14Z</time></trkpt><trkpt lat="43.53207489340488" lon="12.368854069772452"><ele>663.0</ele><time>2026-04-18T08:20:15Z</time></trkpt><trkpt lat="43.532153254219025" lon="12.368693653480202"><ele>663.0</ele><time>2026-04-18T08:20:16Z</time></trkpt><trkpt lat="43.53218664943209" lon="12.36851739559264"><ele>663.0</ele><time>2026-04-18T08:20:17Z</time></trkpt><trkpt lat="43.53213949108702" lon="12.368364500045383"><ele>663.0</ele><time>2026-04-18T08:20:18Z</time></trkpt><trkpt lat="43.532016144314184" lon="12.368292468889198"><ele>663.0</ele><time>2026-04-18T08:20:19Z</time></trkpt><trkpt lat="43.53187604737055" lon="12.368310163647001"><ele>660.25</ele><time>2026-04-18T08:20:20Z</time></trkpt><trkpt lat="43.53175125689356" lon="12.368416725470826"><ele>657.5</ele><time>2026-04-18T08:20:21Z</time></trkpt><trkpt lat="43.531635968526196" lon="12.368544410031381"><ele>654.75</ele><time>2026-04-18T08:20:22Z</time></trkpt><trkpt lat="43.53150199840727" lon="12.368582123704572"><ele>652.0</ele><time>2026-04-18T08:20:23Z</time></trkpt><trkpt lat="43.531358336259075" lon="12.36851122174445"><ele>652.6666666666667</ele><time>2026-04-18T08:20:24Z</time></trkpt><trkpt lat="43.53121000861273" lon="12.368354355338958"><ele>653.3333333333334</ele><time>2026-04-18T08:20:25Z</time></trkpt><trkpt lat="43.531056618394096" lon="12.368178959131274"><ele>654.0</ele><time>2026-04-18T08:20:26Z</time></trkpt><trkpt lat="43.530901985492676" lon="12.36800079262964"><ele>654.0</ele><time>2026-04-18T08:20:27Z</time></trkpt><trkpt lat="43.530761109610175" lon="12.367796932757404"><ele>654.0</ele><time>2026-04-18T08:20:28Z</time></trkpt><trkpt lat="43.530658316779956" lon="12.367570359915977"><ele>654.0</ele><time>2026-04-18T08:20:29Z</time></trkpt><trkpt lat="43.53059986654883" lon="12.367333382386922"><ele>654.6666666666666</ele><time>2026-04-18T08:20:30Z</time></trkpt><trkpt lat="43.530533061858314" lon="12.36712106994929"><ele>655.3333333333333</ele><time>2026-04-18T08:20:31Z</time></trkpt><trkpt lat="43.530420492331956" lon="12.366951186126458"><ele>656.0</ele><time>2026-04-18T08:20:32Z</time></trkpt><trkpt lat="43.53025811240499" lon="12.36686983837815"><ele>656.0</ele><time>2026-04-18T08:20:33Z</time></trkpt><trkpt lat="43.53006808179041" lon="12.366876441014652"><ele>656.0</ele><time>2026-04-18T08:20:34Z</time></trkpt><trkpt lat="43.529876023918064" lon="12.366887545218406"><ele>656.0</ele><time>2026-04-18T08:20:35Z</time></trkpt><trkpt lat="43.52968769113718" lon="12.366861300928907"><ele>653.0</ele><time>2026-04-18T08:20:36Z</time></trkpt><trkpt lat="43.529500597699645" lon="12.366813464355348"><ele>650.0</ele><time>2026-04-18T08:20:37Z</time></trkpt><trkpt lat="43.52934280517741" lon="12.366764441079203"><ele>647.0</ele><time>2026-04-18T08:20:38Z</time></trkpt><trkpt lat="43.52921849837816" lon="12.366685259582843"><ele>647.0</ele><time>2026-04-18T08:20:39Z</time></trkpt><trkpt lat="43.529136372604235" lon="12.36655323110292"><ele>647.0</ele><time>2026-04-18T08:20:40Z</time></trkpt><trkpt lat="43.52911049615303" lon="12.366349839279543"><ele>647.0</ele><time>2026-04-18T08:20:41Z</time></trkpt><trkpt lat="43.52909787140293" lon="12.366132351753182"><ele>647.0</ele><time>2026-04-18T08:20:42Z</time></trkpt><trkpt lat="43.52903460926463" lon="12.36594261398392"><ele>649.0</ele><time>2026-04-18T08:20:43Z</time></trkpt><trkpt lat="43.528888335645725" lon="12.365807206178074"><ele>651.0</ele><time>2026-04-18T08:20:44Z</time></trkpt><trkpt lat="43.52869918307241" lon="12.365747191710431"><ele>653.0</ele><time>2026-04-18T08:20:45Z</time></trkpt><trkpt lat="43.52849663873428" lon="12.365726936163878"><ele>653.0</ele><time>2026-04-18T08:20:46Z</time></trkpt><trkpt lat="43.528285735259544" lon="12.365704309553308"><ele>653.0</ele><time>2026-04-18T08:20:47Z</time></trkpt><trkpt lat="43.528086356178825" lon="12.365669266883446"><ele>653.0</ele><time>2026-04-18T08:20:48Z</time></trkpt><trkpt lat="43.52790842631241" lon="12.365611110294356"><ele>655.6666666666666</ele><time>2026-04-18T08:20:49Z</time></trkpt><trkpt lat="43.527743187321086" lon="12.365511427831358"><ele>658.3333333333334</ele><time>2026-04-18T08:20:50Z</time></trkpt><trkpt lat="43.52758752419758" lon="12.365348597481029"><ele>661.0</ele><time>2026-04-18T08:20:51Z</time></trkpt><trkpt lat="43.5274303561966" lon="12.365189412659591"><ele>661.0</ele><time>2026-04-18T08:20:52Z</time></trkpt><trkpt lat="43.52725300485102" lon="12.365078450479427"><ele>661.0</ele><time>2026-04-18T08:20:53Z</time></trkpt><trkpt lat="43.5270627919149" lon="12.364978764850692"><ele>661.0</ele><time>2026-04-18T08:20:54Z</time></trkpt><trkpt lat="43.526875336819764" lon="12.36487676387809"><ele>661.0</ele><time>2026-04-18T08:20:55Z</time></trkpt><trkpt lat="43.52667469228363" lon="12.364778541410988"><ele>661.0</ele><time>2026-04-18T08:20:56Z</time></trkpt><trkpt lat="43.52647728043997" lon="12.364712504530248"><ele>661.0</ele><time>2026-04-18T08:20:57Z</time></trkpt><trkpt lat="43.526269939536576" lon="12.364665484443053"><ele>665.3333333333334</ele><time>2026-04-18T08:20:58Z</time></trkpt><trkpt lat="43.5260678454583" lon="12.364630162858338"><ele>669.6666666666666</ele><time>2026-04-18T08:20:59Z</time></trkpt><trkpt lat="43.52588812626987" lon="12.364560639928692"><ele>674.0</ele><time>2026-04-18T08:21:00Z</time></trkpt><trkpt lat="43.52573632170374" lon="12.364418481837255"><ele>674.0</ele><time>2026-04-18T08:21:01Z</time></trkpt><trkpt lat="43.5256034308115" lon="12.36423113319847"><ele>674.0</ele><time>2026-04-18T08:21:02Z</time></trkpt><trkpt lat="43.52546519730306" lon="12.364024670681548"><ele>674.0</ele><time>2026-04-18T08:21:03Z</time></trkpt><trkpt lat="43.52532822284836" lon="12.363812379206603"><ele>675.0</ele><time>2026-04-18T08:21:04Z</time></trkpt><trkpt lat="43.52517434199708" lon="12.36361484667104"><ele>676.0</ele><time>2026-04-18T08:21:05Z</time></trkpt><trkpt lat="43.524994783063434" lon="12.363461024920213"><ele>677.0</ele><time>2026-04-18T08:21:06Z</time></trkpt><trkpt lat="43.52479051682001" lon="12.363345421247073"><ele>677.0</ele><time>2026-04-18T08:21:07Z</time></trkpt><trkpt lat="43.524579647362025" lon="12.363290836862934"><ele>677.0</ele><time>2026-04-18T08:21:08Z</time></trkpt><trkpt lat="43.52436745821326" lon="12.363302193685861"><ele>677.0</ele><time>2026-04-18T08:21:09Z</time></trkpt><trkpt lat="43.52418256006981" lon="12.363301033858244"><ele>676.6666666666666</ele><time>2026-04-18T08:21:10Z</time></trkpt><trkpt lat="43.5239968962215" lon="12.363235670391235"><ele>676.3333333333334</ele><time>2026-04-18T08:21:11Z</time></trkpt><trkpt lat="43.52381956771565" lon="12.36309645362348"><ele>676.0</ele><time>2026-04-18T08:21:12Z</time></trkpt><trkpt lat="43.52365103627252" lon="12.362933625453445"><ele>676.0</ele><time>2026-04-18T08:21:13Z</time></trkpt><trkpt lat="43.523502502313185" lon="12.362732331183832"><ele>676.0</ele><time>2026-04-18T08:21:14Z</time></trkpt><trkpt lat="43.52338633116911" lon="12.362491826521541"><ele>676.0</ele><time>2026-04-18T08:21:15Z</time></trkpt><trkpt lat="43.52326689146096" lon="12.362262120836055"><ele>678.0</ele><time>2026-04-18T08:21:16Z</time></trkpt><trkpt lat="43.52311487130684" lon="12.362062505724843"><ele>680.0</ele><time>2026-04-18T08:21:17Z</time></trkpt><trkpt lat="43.52292776223254" lon="12.361922402216932"><ele>682.0</ele><time>2026-04-18T08:21:18Z</time></trkpt><trkpt lat="43.52274129113504" lon="12.361829286150634"><ele>682.0</ele><time>2026-04-18T08:21:19Z</time></trkpt><trkpt lat="43.522606189695686" lon="12.361691848670299"><ele>682.0</ele><time>2026-04-18T08:21:20Z</time></trkpt><trkpt lat="43.52253744459381" lon="12.36149602933508"><ele>682.0</ele><time>2026-04-18T08:21:21Z</time></trkpt><trkpt lat="43.522500978940734" lon="12.361264043419816"><ele>684.6666666666667</ele><time>2026-04-18T08:21:22Z</time></trkpt><trkpt lat="43.522434014794165" lon="12.361042775330947"><ele>687.3333333333334</ele><time>2026-04-18T08:21:23Z</time></trkpt><trkpt lat="43.52229212494975" lon="12.360885016114166"><ele>690.0</ele><time>2026-04-18T08:21:24Z</time></trkpt><trkpt lat="43.52210002226754" lon="12.360800069452035"><ele>689.6666666666666</ele><time>2026-04-18T08:21:25Z</time></trkpt><trkpt lat="43.52192242228126" lon="12.360714411597469"><ele>689.3333333333333</ele><time>2026-04-18T08:21:26Z</time></trkpt><trkpt lat="43.52177070441232" lon="12.360554512795662"><ele>689.0</ele><time>2026-04-18T08:21:27Z</time></trkpt><trkpt lat="43.52163797505236" lon="12.36034187378575"><ele>693.0</ele><time>2026-04-18T08:21:28Z</time></trkpt><trkpt lat="43.521503924983534" lon="12.360117589147718"><ele>697.0</ele><time>2026-04-18T08:21:29Z</time></trkpt><trkpt lat="43.52135866006058" lon="12.359893591257089"><ele>701.0</ele><time>2026-04-18T08:21:30Z</time></trkpt><trkpt lat="43.52120865177748" lon="12.359688059262474"><ele>703.3333333333333</ele><time>2026-04-18T08:21:31Z</time></trkpt><trkpt lat="43.521030345468155" lon="12.359531552129626"><ele>705.6666666666666</ele><time>2026-04-18T08:21:32Z</time></trkpt><trkpt lat="43.52082280208883" lon="12.359414360139649"><ele>708.0</ele><time>2026-04-18T08:21:33Z</time></trkpt><trkpt lat="43.52062043929752" lon="12.359291581253961"><ele>708.0</ele><time>2026-04-18T08:21:34Z</time></trkpt><trkpt lat="43.520421071063886" lon="12.35915793758344"><ele>708.0</ele><time>2026-04-18T08:21:35Z</time></trkpt><trkpt lat="43.52022837571298" lon="12.359040970188708"><ele>708.0</ele><time>2026-04-18T08:21:36Z</time></trkpt><trkpt lat="43.52002651718542" lon="12.35893136788174"><ele>709.3333333333334</ele><time>2026-04-18T08:21:37Z</time></trkpt><trkpt lat="43.51983573483033" lon="12.358831989375298"><ele>710.6666666666667</ele><time>2026-04-18T08:21:38Z</time></trkpt><trkpt lat="43.51966902905008" lon="12.358710600702612"><ele>712.0</ele><time>2026-04-18T08:21:39Z</time></trkpt><trkpt lat="43.51954317436339" lon="12.358529017645171"><ele>712.0</ele><time>2026-04-18T08:21:40Z</time></trkpt><trkpt lat="43.5194579836286" lon="12.358282758276134"><ele>712.0</ele><time>2026-04-18T08:21:40.999Z</time></trkpt><trkpt lat="43.51945703294885" lon="12.358040068227025"><ele>712.0</ele><time>2026-04-18T08:21:41.999Z</time></trkpt><trkpt lat="43.519518587437034" lon="12.357854058344897"><ele>714.0</ele><time>2026-04-18T08:21:42.999Z</time></trkpt><trkpt lat="43.519575167893066" lon="12.35769912724852"><ele>716.0</ele><time>2026-04-18T08:21:43.999Z</time></trkpt><trkpt lat="43.5195601831129" lon="12.357540727812"><ele>718.0</ele><time>2026-04-18T08:21:44.999Z</time></trkpt><trkpt lat="43.51946742695138" lon="12.3574075850571"><ele>720.0</ele><time>2026-04-18T08:21:45.999Z</time></trkpt><trkpt lat="43.5193297424708" lon="12.357362735809374"><ele>720.0</ele><time>2026-04-18T08:21:46.999Z</time></trkpt><trkpt lat="43.519198167175375" lon="12.35742344466952"><ele>720.0</ele><time>2026-04-18T08:21:47.999Z</time></trkpt><trkpt lat="43.51909261617789" lon="12.357570966022282"><ele>720.0</ele><time>2026-04-18T08:21:48.999Z</time></trkpt><trkpt lat="43.51903389963811" lon="12.357773100793803"><ele>720.0</ele><time>2026-04-18T08:21:49.999Z</time></trkpt><trkpt lat="43.51901658806984" lon="12.357979285369648"><ele>720.5</ele><time>2026-04-18T08:21:50.999Z</time></trkpt><trkpt lat="43.518998744271855" lon="12.358173955108292"><ele>721.0</ele><time>2026-04-18T08:21:51.999Z</time></trkpt><trkpt lat="43.518929538836524" lon="12.358321453425539"><ele>721.5</ele><time>2026-04-18T08:21:52.999Z</time></trkpt><trkpt lat="43.518818279042506" lon="12.358405108431386"><ele>722.0</ele><time>2026-04-18T08:21:54Z</time></trkpt><trkpt lat="43.51868676551147" lon="12.358416431583354"><ele>722.0</ele><time>2026-04-18T08:21:55Z</time></trkpt><trkpt lat="43.51852536978296" lon="12.358397332100873"><ele>722.0</ele><time>2026-04-18T08:21:56Z</time></trkpt><trkpt lat="43.518348140706976" lon="12.358347469514007"><ele>722.0</ele><time>2026-04-18T08:21:57Z</time></trkpt><trkpt lat="43.51816468141266" lon="12.358259688706438"><ele>722.0</ele><time>2026-04-18T08:21:58Z</time></trkpt><trkpt lat="43.517975582669095" lon="12.35812818273265"><ele>722.0</ele><time>2026-04-18T08:21:59Z</time></trkpt><trkpt lat="43.51778795896868" lon="12.357974015672616"><ele>722.0</ele><time>2026-04-18T08:22:00Z</time></trkpt><trkpt lat="43.51760355488845" lon="12.357865416842168"><ele>725.6666666666666</ele><time>2026-04-18T08:22:01Z</time></trkpt><trkpt lat="43.51742619752248" lon="12.357806804975787"><ele>729.3333333333334</ele><time>2026-04-18T08:22:02Z</time></trkpt><trkpt lat="43.51728176846507" lon="12.357733955107417"><ele>733.0</ele><time>2026-04-18T08:22:03Z</time></trkpt><trkpt lat="43.51717391000446" lon="12.357579705093391"><ele>733.0</ele><time>2026-04-18T08:22:04Z</time></trkpt><trkpt lat="43.51710995438232" lon="12.357344249072183"><ele>733.0</ele><time>2026-04-18T08:22:05Z</time></trkpt><trkpt lat="43.51704760112576" lon="12.35709256170208"><ele>733.0</ele><time>2026-04-18T08:22:06Z</time></trkpt><trkpt lat="43.516970476116114" lon="12.356856908511963"><ele>734.75</ele><time>2026-04-18T08:22:07Z</time></trkpt><trkpt lat="43.516889801154754" lon="12.356644115181291"><ele>736.5</ele><time>2026-04-18T08:22:08Z</time></trkpt><trkpt lat="43.51680387863763" lon="12.356512868138568"><ele>738.25</ele><time>2026-04-18T08:22:09Z</time></trkpt><trkpt lat="43.516692272717506" lon="12.356458811235022"><ele>740.0</ele><time>2026-04-18T08:22:10Z</time></trkpt><trkpt lat="43.51656529238959" lon="12.356517735412625"><ele>740.0</ele><time>2026-04-18T08:22:11Z</time></trkpt><trkpt lat="43.51645536883835" lon="12.356652932860113"><ele>740.0</ele><time>2026-04-18T08:22:12Z</time></trkpt><trkpt lat="43.516363054443566" lon="12.356845877433441"><ele>740.0</ele><time>2026-04-18T08:22:13Z</time></trkpt><trkpt lat="43.5162539015634" lon="12.35701588789327"><ele>738.5</ele><time>2026-04-18T08:22:14Z</time></trkpt><trkpt lat="43.51613643838982" lon="12.3571219458267"><ele>737.0</ele><time>2026-04-18T08:22:15Z</time></trkpt><trkpt lat="43.516014532721556" lon="12.357172086448976"><ele>735.5</ele><time>2026-04-18T08:22:16Z</time></trkpt><trkpt lat="43.51588703712533" lon="12.357186923990344"><ele>734.0</ele><time>2026-04-18T08:22:17Z</time></trkpt><trkpt lat="43.51577878338247" lon="12.357131348365282"><ele>734.0</ele><time>2026-04-18T08:22:18Z</time></trkpt><trkpt lat="43.51571214478517" lon="12.357010921463717"><ele>734.0</ele><time>2026-04-18T08:22:19Z</time></trkpt><trkpt lat="43.515667196619496" lon="12.356841015942466"><ele>734.0</ele><time>2026-04-18T08:22:20Z</time></trkpt><trkpt lat="43.515648660437506" lon="12.356660304520348"><ele>734.0</ele><time>2026-04-18T08:22:21Z</time></trkpt><trkpt lat="43.51562678204511" lon="12.356494108659536"><ele>733.3333333333333</ele><time>2026-04-18T08:22:22Z</time></trkpt><trkpt lat="43.51562284827102" lon="12.35634355946474"><ele>732.6666666666666</ele><time>2026-04-18T08:22:23Z</time></trkpt><trkpt lat="43.51563429305695" lon="12.356221365479538"><ele>732.0</ele><time>2026-04-18T08:22:24Z</time></trkpt><trkpt lat="43.51565968472364" lon="12.356130339380053"><ele>731.3333333333334</ele><time>2026-04-18T08:22:25Z</time></trkpt><trkpt lat="43.51569381290454" lon="12.356049847301527"><ele>730.6666666666667</ele><time>2026-04-18T08:22:26Z</time></trkpt><trkpt lat="43.515727344160545" lon="12.35597569199311"><ele>730.0</ele><time>2026-04-18T08:22:27Z</time></trkpt><trkpt lat="43.51579414544777" lon="12.3558589591446"><ele>730.0000000000001</ele><time>2026-04-18T08:22:29Z</time></trkpt><trkpt lat="43.51584544286888" lon="12.355767617226798"><ele>730.0</ele><time>2026-04-18T08:22:31Z</time></trkpt><trkpt lat="43.51588471834807" lon="12.355683435441582"><ele>730.0</ele><time>2026-04-18T08:22:33Z</time></trkpt><trkpt lat="43.51592536943" lon="12.355597241989788"><ele>730.0</ele><time>2026-04-18T08:22:35Z</time></trkpt><trkpt lat="43.5159709933731" lon="12.355515719158408"><ele>730.0</ele><time>2026-04-18T08:22:37Z</time></trkpt><trkpt lat="43.51599768841722" lon="12.355427724334664"><ele>730.0000000000001</ele><time>2026-04-18T08:22:39Z</time></trkpt><trkpt lat="43.51595393569594" lon="12.355357319529451"><ele>730.0</ele><time>2026-04-18T08:22:42Z</time></trkpt><trkpt lat="43.51590608950262" lon="12.355425174378878"><ele>730.0</ele><time>2026-04-18T08:22:44Z</time></trkpt><trkpt lat="43.5158850993443" lon="12.355555889177968"><ele>730.0</ele><time>2026-04-18T08:22:46Z</time></trkpt><trkpt lat="43.515841938090425" lon="12.355627546910423"><ele>730.0</ele><time>2026-04-18T08:22:48Z</time></trkpt><trkpt lat="43.51577640988968" lon="12.355749575960251"><ele>730.0</ele><time>2026-04-18T08:22:51Z</time></trkpt><trkpt lat="43.51573580740515" lon="12.355855372951089"><ele>730.0</ele><time>2026-04-18T08:22:53Z</time></trkpt><trkpt lat="43.515684687008644" lon="12.35592195290533"><ele>730.0</ele><time>2026-04-18T08:22:55Z</time></trkpt><trkpt lat="43.51563362033007" lon="12.355836510100842"><ele>730.0</ele><time>2026-04-18T08:22:58Z</time></trkpt><trkpt lat="43.51576499907938" lon="12.355907515158044"><ele>730.0</ele><time>2026-04-18T08:24:46Z</time></trkpt><trkpt lat="43.51594422570999" lon="12.355945183835164"><ele>730.0</ele><time>2026-04-18T08:25:32Z</time></trkpt><trkpt lat="43.51622123558988" lon="12.356044718110255"><ele>730.0</ele><time>2026-04-18T08:25:33.049Z</time></trkpt><trkpt lat="43.51582023183023" lon="12.356120284051972"><ele>730.0</ele><time>2026-04-18T08:26:16.999Z</time></trkpt><trkpt lat="43.51576084838857" lon="12.356151682573042"><ele>730.0</ele><time>2026-04-18T08:26:25Z</time></trkpt><trkpt lat="43.51570289240759" lon="12.356037135632555"><ele>730.0</ele><time>2026-04-18T08:26:27Z</time></trkpt><trkpt lat="43.51587965270828" lon="12.355872193200378"><ele>730.0</ele><time>2026-04-18T08:27:25.013Z</time></trkpt><trkpt lat="43.51582073387925" lon="12.355838764974767"><ele>730.0</ele><time>2026-04-18T08:27:38Z</time></trkpt><trkpt lat="43.51577234390115" lon="12.35577011911754"><ele>730.0</ele><time>2026-04-18T08:27:50Z</time></trkpt><trkpt lat="43.51569707785729" lon="12.355790898910717"><ele>730.0000000000001</ele><time>2026-04-18T08:29:19Z</time></trkpt><trkpt lat="43.51566371789893" lon="12.355865037095622"><ele>730.0</ele><time>2026-04-18T08:29:30Z</time></trkpt><trkpt lat="43.51562149866218" lon="12.355937355688567"><ele>730.0</ele><time>2026-04-18T08:29:49Z</time></trkpt><trkpt lat="43.51567102233484" lon="12.355868768422967"><ele>730.0</ele><time>2026-04-18T08:35:24Z</time></trkpt><trkpt lat="43.51572917737286" lon="12.355930622586582"><ele>730.0</ele><time>2026-04-18T08:37:52.999Z</time></trkpt><trkpt lat="43.51579144720753" lon="12.355903965937658"><ele>730.0000000000001</ele><time>2026-04-18T08:37:59.999Z</time></trkpt><trkpt lat="43.51582925518852" lon="12.355830348082128"><ele>730.0</ele><time>2026-04-18T08:38:05.999Z</time></trkpt><trkpt lat="43.51589314320449" lon="12.355809072233965"><ele>730.0</ele><time>2026-04-18T08:38:12.999Z</time></trkpt><trkpt lat="43.51594260738868" lon="12.355866651810056"><ele>730.0</ele><time>2026-04-18T08:38:23.999Z</time></trkpt><trkpt lat="43.51602958993954" lon="12.35579409676579"><ele>730.0</ele><time>2026-04-18T08:39:47.014Z</time></trkpt><trkpt lat="43.516188628456966" lon="12.355745763602219"><ele>730.0</ele><time>2026-04-18T08:39:49.015Z</time></trkpt><trkpt lat="43.516057377312514" lon="12.355685538725128"><ele>730.0</ele><time>2026-04-18T08:39:54.999Z</time></trkpt><trkpt lat="43.51598584886922" lon="12.355697214861033"><ele>730.0</ele><time>2026-04-18T08:39:56.999Z</time></trkpt><trkpt lat="43.515885218951276" lon="12.35577388281324"><ele>730.0</ele><time>2026-04-18T08:39:59Z</time></trkpt><trkpt lat="43.515826351221634" lon="12.355821980129448"><ele>730.0</ele><time>2026-04-18T08:40:05Z</time></trkpt><trkpt lat="43.515756218563965" lon="12.35582369226524"><ele>730.0</ele><time>2026-04-18T08:40:28Z</time></trkpt><trkpt lat="43.51569197086089" lon="12.355858316743626"><ele>730.0</ele><time>2026-04-18T08:40:35Z</time></trkpt><trkpt lat="43.51575316741394" lon="12.355925041723172"><ele>730.0</ele><time>2026-04-18T08:43:52.999Z</time></trkpt><trkpt lat="43.51580725537777" lon="12.355840656428082"><ele>730.0</ele><time>2026-04-18T08:43:54.999Z</time></trkpt><trkpt lat="43.5158319314547" lon="12.355724919273879"><ele>730.0</ele><time>2026-04-18T08:43:57.999Z</time></trkpt><trkpt lat="43.51591690150415" lon="12.355604705317443"><ele>730.0</ele><time>2026-04-18T08:43:59.999Z</time></trkpt><trkpt lat="43.5159661385948" lon="12.355512685948552"><ele>730.0</ele><time>2026-04-18T08:44:00.999Z</time></trkpt><trkpt lat="43.51601255369055" lon="12.355390139139748"><ele>730.25</ele><time>2026-04-18T08:44:01.999Z</time></trkpt><trkpt lat="43.51605133613652" lon="12.355232732280406"><ele>730.5</ele><time>2026-04-18T08:44:02.999Z</time></trkpt><trkpt lat="43.516070316123404" lon="12.355052550215873"><ele>730.75</ele><time>2026-04-18T08:44:03.999Z</time></trkpt><trkpt lat="43.51605895116861" lon="12.354840977685162"><ele>731.0</ele><time>2026-04-18T08:44:04.999Z</time></trkpt><trkpt lat="43.516038325483684" lon="12.354625796690756"><ele>731.0</ele><time>2026-04-18T08:44:05.999Z</time></trkpt><trkpt lat="43.51602882595582" lon="12.354419068859983"><ele>731.0</ele><time>2026-04-18T08:44:06.999Z</time></trkpt><trkpt lat="43.51606478196021" lon="12.354209067466597"><ele>731.0</ele><time>2026-04-18T08:44:07.999Z</time></trkpt><trkpt lat="43.51611214457219" lon="12.353995036991083"><ele>735.6666666666666</ele><time>2026-04-18T08:44:09Z</time></trkpt><trkpt lat="43.51613910615446" lon="12.353778815797977"><ele>740.3333333333334</ele><time>2026-04-18T08:44:10Z</time></trkpt><trkpt lat="43.51611993269573" lon="12.353550684276515"><ele>745.0</ele><time>2026-04-18T08:44:11Z</time></trkpt><trkpt lat="43.51604716313753" lon="12.353347086029734"><ele>745.0</ele><time>2026-04-18T08:44:12Z</time></trkpt><trkpt lat="43.51593262055821" lon="12.353193170587215"><ele>745.0</ele><time>2026-04-18T08:44:13Z</time></trkpt><trkpt lat="43.51579571456935" lon="12.353102799076428"><ele>745.0</ele><time>2026-04-18T08:44:14Z</time></trkpt><trkpt lat="43.51564411899562" lon="12.353082661556751"><ele>745.0</ele><time>2026-04-18T08:44:15Z</time></trkpt><trkpt lat="43.515479118659066" lon="12.353125390091739"><ele>745.0</ele><time>2026-04-18T08:44:16Z</time></trkpt><trkpt lat="43.51531422366879" lon="12.353208900251634"><ele>745.0</ele><time>2026-04-18T08:44:17Z</time></trkpt><trkpt lat="43.515151519022595" lon="12.353304904185235"><ele>745.3333333333334</ele><time>2026-04-18T08:44:18Z</time></trkpt><trkpt lat="43.51498732015365" lon="12.35341042305664"><ele>745.6666666666666</ele><time>2026-04-18T08:44:19Z</time></trkpt><trkpt lat="43.51482561443155" lon="12.353514541613116"><ele>746.0</ele><time>2026-04-18T08:44:20Z</time></trkpt><trkpt lat="43.51466209171308" lon="12.353587697422077"><ele>747.3333333333333</ele><time>2026-04-18T08:44:21Z</time></trkpt><trkpt lat="43.51449439332234" lon="12.353602774678404"><ele>748.6666666666666</ele><time>2026-04-18T08:44:22Z</time></trkpt><trkpt lat="43.514319292227384" lon="12.353590403943015"><ele>750.0</ele><time>2026-04-18T08:44:23Z</time></trkpt><trkpt lat="43.51414510497001" lon="12.353575463912374"><ele>750.0</ele><time>2026-04-18T08:44:24Z</time></trkpt><trkpt lat="43.513974488198336" lon="12.35356147894155"><ele>750.0</ele><time>2026-04-18T08:44:25Z</time></trkpt><trkpt lat="43.51380322546615" lon="12.353537683894432"><ele>750.0</ele><time>2026-04-18T08:44:26Z</time></trkpt><trkpt lat="43.513633133931265" lon="12.35351521837381"><ele>745.0</ele><time>2026-04-18T08:44:27Z</time></trkpt><trkpt lat="43.51346398280808" lon="12.353452711550704"><ele>740.0</ele><time>2026-04-18T08:44:28Z</time></trkpt><trkpt lat="43.51329707805394" lon="12.353367651129973"><ele>735.0</ele><time>2026-04-18T08:44:29Z</time></trkpt><trkpt lat="43.513149930924484" lon="12.353271975967202"><ele>735.0</ele><time>2026-04-18T08:44:30Z</time></trkpt><trkpt lat="43.51302822148612" lon="12.353112032885056"><ele>735.0</ele><time>2026-04-18T08:44:31Z</time></trkpt><trkpt lat="43.512934404255944" lon="12.352925314218783"><ele>735.0</ele><time>2026-04-18T08:44:32Z</time></trkpt><trkpt lat="43.512876297526766" lon="12.35269389389728"><ele>735.6666666666666</ele><time>2026-04-18T08:44:33Z</time></trkpt><trkpt lat="43.5127973149297" lon="12.352471621066087"><ele>736.3333333333333</ele><time>2026-04-18T08:44:34Z</time></trkpt><trkpt lat="43.51270573586061" lon="12.352263020972462"><ele>737.0</ele><time>2026-04-18T08:44:35Z</time></trkpt><trkpt lat="43.51257622843288" lon="12.352068652582208"><ele>737.0</ele><time>2026-04-18T08:44:36Z</time></trkpt><trkpt lat="43.51242333268643" lon="12.351901868036114"><ele>737.0</ele><time>2026-04-18T08:44:37Z</time></trkpt><trkpt lat="43.5122849091881" lon="12.351759188934892"><ele>737.0</ele><time>2026-04-18T08:44:38Z</time></trkpt><trkpt lat="43.51217973677331" lon="12.351595035495734"><ele>737.0</ele><time>2026-04-18T08:44:39Z</time></trkpt><trkpt lat="43.512167009391064" lon="12.351379880277605"><ele>737.0</ele><time>2026-04-18T08:44:40Z</time></trkpt><trkpt lat="43.51217784371606" lon="12.351153060562828"><ele>737.0</ele><time>2026-04-18T08:44:41Z</time></trkpt><trkpt lat="43.512191568894636" lon="12.350908496714354"><ele>737.6666666666666</ele><time>2026-04-18T08:44:42Z</time></trkpt><trkpt lat="43.512190741703705" lon="12.350644275235"><ele>738.3333333333334</ele><time>2026-04-18T08:44:43Z</time></trkpt><trkpt lat="43.512186570602424" lon="12.35037697420377"><ele>739.0</ele><time>2026-04-18T08:44:44Z</time></trkpt><trkpt lat="43.51212811399977" lon="12.35011465507011"><ele>732.6666666666667</ele><time>2026-04-18T08:44:45Z</time></trkpt><trkpt lat="43.51202032578569" lon="12.34990227614242"><ele>726.3333333333334</ele><time>2026-04-18T08:44:46Z</time></trkpt><trkpt lat="43.5118843882059" lon="12.349721771225331"><ele>720.0</ele><time>2026-04-18T08:44:47Z</time></trkpt><trkpt lat="43.511764839591336" lon="12.349539825893347"><ele>720.0</ele><time>2026-04-18T08:44:48Z</time></trkpt><trkpt lat="43.51166588643382" lon="12.349343360882221"><ele>720.0</ele><time>2026-04-18T08:44:49Z</time></trkpt><trkpt lat="43.51159985728886" lon="12.349143126462813"><ele>720.0</ele><time>2026-04-18T08:44:50Z</time></trkpt><trkpt lat="43.51160333281183" lon="12.348958272452334"><ele>720.0</ele><time>2026-04-18T08:44:51Z</time></trkpt><trkpt lat="43.51164412213624" lon="12.348827226932924"><ele>720.0</ele><time>2026-04-18T08:44:52Z</time></trkpt><trkpt lat="43.51171844605133" lon="12.34878768270499"><ele>720.0</ele><time>2026-04-18T08:44:53Z</time></trkpt><trkpt lat="43.51180026789176" lon="12.34883428115338"><ele>720.0</ele><time>2026-04-18T08:44:54Z</time></trkpt><trkpt lat="43.5118804343632" lon="12.348907956151185"><ele>720.0</ele><time>2026-04-18T08:44:55Z</time></trkpt><trkpt lat="43.511979105204674" lon="12.34903494661668"><ele>717.0</ele><time>2026-04-18T08:44:56Z</time></trkpt><trkpt lat="43.512105358768096" lon="12.349158621798201"><ele>714.0</ele><time>2026-04-18T08:44:57Z</time></trkpt><trkpt lat="43.512234283954385" lon="12.349284024902063"><ele>711.0</ele><time>2026-04-18T08:44:58Z</time></trkpt><trkpt lat="43.51235299431286" lon="12.349413750382295"><ele>711.0</ele><time>2026-04-18T08:44:59Z</time></trkpt><trkpt lat="43.51245396946571" lon="12.349567928061838"><ele>711.0</ele><time>2026-04-18T08:45:00Z</time></trkpt><trkpt lat="43.51256391890237" lon="12.349730057371644"><ele>711.0</ele><time>2026-04-18T08:45:01Z</time></trkpt><trkpt lat="43.512681010333914" lon="12.349889754687602"><ele>715.0</ele><time>2026-04-18T08:45:02Z</time></trkpt><trkpt lat="43.51282551098527" lon="12.350006911093194"><ele>719.0</ele><time>2026-04-18T08:45:03Z</time></trkpt><trkpt lat="43.51297430917181" lon="12.35010682327837"><ele>723.0</ele><time>2026-04-18T08:45:04Z</time></trkpt><trkpt lat="43.51313356477705" lon="12.350172215216276"><ele>723.0</ele><time>2026-04-18T08:45:05Z</time></trkpt><trkpt lat="43.51330835782461" lon="12.350201140744623"><ele>723.0</ele><time>2026-04-18T08:45:06Z</time></trkpt><trkpt lat="43.51347357473128" lon="12.35020133177454"><ele>723.0</ele><time>2026-04-18T08:45:07Z</time></trkpt><trkpt lat="43.513631483111034" lon="12.350202550177482"><ele>726.25</ele><time>2026-04-18T08:45:08Z</time></trkpt><trkpt lat="43.51376763252769" lon="12.350205024536157"><ele>729.5</ele><time>2026-04-18T08:45:09Z</time></trkpt><trkpt lat="43.51388775872827" lon="12.350178860929569"><ele>732.75</ele><time>2026-04-18T08:45:10Z</time></trkpt><trkpt lat="43.5140049422243" lon="12.350124516664264"><ele>736.0</ele><time>2026-04-18T08:45:11Z</time></trkpt><trkpt lat="43.514105923602486" lon="12.350004752698089"><ele>736.0</ele><time>2026-04-18T08:45:12Z</time></trkpt><trkpt lat="43.514172354209194" lon="12.349833974475013"><ele>736.0</ele><time>2026-04-18T08:45:13Z</time></trkpt><trkpt lat="43.51417777301261" lon="12.349623589710212"><ele>736.0</ele><time>2026-04-18T08:45:14Z</time></trkpt><trkpt lat="43.5141458807459" lon="12.349405188588015"><ele>732.3333333333334</ele><time>2026-04-18T08:45:15Z</time></trkpt><trkpt lat="43.5141156892919" lon="12.349180567231906"><ele>728.6666666666666</ele><time>2026-04-18T08:45:16Z</time></trkpt><trkpt lat="43.51411178977601" lon="12.348951297373887"><ele>725.0</ele><time>2026-04-18T08:45:17Z</time></trkpt><trkpt lat="43.514142491282165" lon="12.348735495298165"><ele>724.5</ele><time>2026-04-18T08:45:18Z</time></trkpt><trkpt lat="43.514165599697684" lon="12.348534837240615"><ele>724.0</ele><time>2026-04-18T08:45:19Z</time></trkpt><trkpt lat="43.514159699491444" lon="12.348324115797492"><ele>723.5</ele><time>2026-04-18T08:45:20Z</time></trkpt><trkpt lat="43.51412646049628" lon="12.348143237151259"><ele>723.0</ele><time>2026-04-18T08:45:21Z</time></trkpt><trkpt lat="43.514082261968206" lon="12.347992996894714"><ele>722.0</ele><time>2026-04-18T08:45:22Z</time></trkpt><trkpt lat="43.514059459005445" lon="12.347850773633041"><ele>721.0</ele><time>2026-04-18T08:45:23Z</time></trkpt><trkpt lat="43.51407631658734" lon="12.347723934081358"><ele>720.0</ele><time>2026-04-18T08:45:24Z</time></trkpt><trkpt lat="43.51415849969717" lon="12.347647296983508"><ele>719.0</ele><time>2026-04-18T08:45:25Z</time></trkpt><trkpt lat="43.51425247346322" lon="12.347586958502095"><ele>718.0</ele><time>2026-04-18T08:45:26Z</time></trkpt><trkpt lat="43.51437451533894" lon="12.347587950075415"><ele>718.0</ele><time>2026-04-18T08:45:27Z</time></trkpt><trkpt lat="43.51450277323216" lon="12.347567486997209"><ele>718.0</ele><time>2026-04-18T08:45:28Z</time></trkpt><trkpt lat="43.514622999971195" lon="12.347533190948731"><ele>718.0</ele><time>2026-04-18T08:45:29Z</time></trkpt><trkpt lat="43.51474487311425" lon="12.3475242443158"><ele>718.0</ele><time>2026-04-18T08:45:30Z</time></trkpt><trkpt lat="43.514869166461" lon="12.347505636578264"><ele>719.0</ele><time>2026-04-18T08:45:31Z</time></trkpt><trkpt lat="43.515004269217485" lon="12.347492426362958"><ele>720.0</ele><time>2026-04-18T08:45:32Z</time></trkpt><trkpt lat="43.51515456245429" lon="12.347546177884837"><ele>721.0</ele><time>2026-04-18T08:45:33Z</time></trkpt><trkpt lat="43.515338383285695" lon="12.347629782072746"><ele>718.5</ele><time>2026-04-18T08:45:34Z</time></trkpt><trkpt lat="43.515560911725345" lon="12.347684521795326"><ele>716.0</ele><time>2026-04-18T08:45:35Z</time></trkpt><trkpt lat="43.51581284748618" lon="12.347710705503177"><ele>716.0</ele><time>2026-04-18T08:45:36Z</time></trkpt><trkpt lat="43.51603245476622" lon="12.347708784971479"><ele>716.0</ele><time>2026-04-18T08:45:37Z</time></trkpt><trkpt lat="43.51620735277348" lon="12.347730273141394"><ele>716.0</ele><time>2026-04-18T08:45:38Z</time></trkpt><trkpt lat="43.51634708783407" lon="12.34776787441252"><ele>713.25</ele><time>2026-04-18T08:45:39Z</time></trkpt><trkpt lat="43.51645901999908" lon="12.347804994450133"><ele>710.5</ele><time>2026-04-18T08:45:40Z</time></trkpt><trkpt lat="43.516557408875784" lon="12.347867215078125"><ele>707.75</ele><time>2026-04-18T08:45:41Z</time></trkpt><trkpt lat="43.516622984121454" lon="12.348010888171"><ele>705.0</ele><time>2026-04-18T08:45:42Z</time></trkpt><trkpt lat="43.516699175894416" lon="12.348206484922557"><ele>712.3333333333334</ele><time>2026-04-18T08:45:43Z</time></trkpt><trkpt lat="43.516802885376705" lon="12.34838895592701"><ele>719.6666666666667</ele><time>2026-04-18T08:45:44Z</time></trkpt><trkpt lat="43.51690887921454" lon="12.348566811222728"><ele>727.0</ele><time>2026-04-18T08:45:45Z</time></trkpt><trkpt lat="43.517045376362084" lon="12.348680780450813"><ele>723.6666666666667</ele><time>2026-04-18T08:45:46Z</time></trkpt><trkpt lat="43.517195939195425" lon="12.348714604086588"><ele>720.3333333333334</ele><time>2026-04-18T08:45:47Z</time></trkpt><trkpt lat="43.517357133052606" lon="12.348660283669794"><ele>717.0</ele><time>2026-04-18T08:45:48Z</time></trkpt><trkpt lat="43.51750588301738" lon="12.34853491659081"><ele>717.0</ele><time>2026-04-18T08:45:49Z</time></trkpt><trkpt lat="43.51763916421326" lon="12.348386655967362"><ele>717.0</ele><time>2026-04-18T08:45:50Z</time></trkpt><trkpt lat="43.51775627959587" lon="12.348210973355508"><ele>717.0</ele><time>2026-04-18T08:45:51Z</time></trkpt><trkpt lat="43.517836621455615" lon="12.34799563516377"><ele>718.3333333333334</ele><time>2026-04-18T08:45:52Z</time></trkpt><trkpt lat="43.517880175592" lon="12.3477464941227"><ele>719.6666666666667</ele><time>2026-04-18T08:45:53Z</time></trkpt><trkpt lat="43.517892274284044" lon="12.347504046702747"><ele>721.0</ele><time>2026-04-18T08:45:54Z</time></trkpt><trkpt lat="43.51791265323159" lon="12.347304194654109"><ele>715.0</ele><time>2026-04-18T08:45:55Z</time></trkpt><trkpt lat="43.51801550779175" lon="12.34718397033429"><ele>709.0</ele><time>2026-04-18T08:45:56Z</time></trkpt><trkpt lat="43.51815921253674" lon="12.347082041374719"><ele>703.0</ele><time>2026-04-18T08:45:57Z</time></trkpt><trkpt lat="43.518303104300074" lon="12.34693399271138"><ele>703.0</ele><time>2026-04-18T08:45:58Z</time></trkpt><trkpt lat="43.51846564284233" lon="12.346807769676857"><ele>703.0</ele><time>2026-04-18T08:45:59Z</time></trkpt><trkpt lat="43.518625938178275" lon="12.346672387395037"><ele>703.0</ele><time>2026-04-18T08:46:00Z</time></trkpt><trkpt lat="43.51878556902175" lon="12.346542868749372"><ele>710.3333333333334</ele><time>2026-04-18T08:46:00.999Z</time></trkpt><trkpt lat="43.518935778772885" lon="12.346420765793889"><ele>717.6666666666666</ele><time>2026-04-18T08:46:01.999Z</time></trkpt><trkpt lat="43.51905610268918" lon="12.346281915912844"><ele>725.0</ele><time>2026-04-18T08:46:02.999Z</time></trkpt><trkpt lat="43.51911189919496" lon="12.346102361438199"><ele>725.0</ele><time>2026-04-18T08:46:03.999Z</time></trkpt><trkpt lat="43.51911414538771" lon="12.345888212969065"><ele>725.0</ele><time>2026-04-18T08:46:04.999Z</time></trkpt><trkpt lat="43.519006721808914" lon="12.345686469626559"><ele>725.0</ele><time>2026-04-18T08:46:05.999Z</time></trkpt><trkpt lat="43.518896090004624" lon="12.345481104267755"><ele>728.0</ele><time>2026-04-18T08:46:06.999Z</time></trkpt><trkpt lat="43.51879427153778" lon="12.345261928575864"><ele>731.0</ele><time>2026-04-18T08:46:07.999Z</time></trkpt><trkpt lat="43.51870840826488" lon="12.345014335798659"><ele>734.0</ele><time>2026-04-18T08:46:08.999Z</time></trkpt><trkpt lat="43.518637060588205" lon="12.344733892775567"><ele>720.3333333333333</ele><time>2026-04-18T08:46:09.999Z</time></trkpt><trkpt lat="43.518579413632324" lon="12.34445627183187"><ele>706.6666666666666</ele><time>2026-04-18T08:46:10.999Z</time></trkpt><trkpt lat="43.518582370590146" lon="12.344285877819622"><ele>693.0</ele><time>2026-04-18T08:46:11.999Z</time></trkpt><trkpt lat="43.5186012631832" lon="12.344053935315655"><ele>693.6666666666666</ele><time>2026-04-18T08:46:12.999Z</time></trkpt><trkpt lat="43.5186750399049" lon="12.34381285434913"><ele>694.3333333333333</ele><time>2026-04-18T08:46:13.999Z</time></trkpt><trkpt lat="43.518739508037264" lon="12.34358146585464"><ele>695.0</ele><time>2026-04-18T08:46:15Z</time></trkpt><trkpt lat="43.518771131817125" lon="12.343360412945456"><ele>694.3333333333333</ele><time>2026-04-18T08:46:16Z</time></trkpt><trkpt lat="43.51874010173566" lon="12.343146142931827"><ele>693.6666666666666</ele><time>2026-04-18T08:46:17Z</time></trkpt><trkpt lat="43.51863973024245" lon="12.342947080584631"><ele>693.0</ele><time>2026-04-18T08:46:18Z</time></trkpt><trkpt lat="43.51855126643746" lon="12.342752728567685"><ele>693.0</ele><time>2026-04-18T08:46:19Z</time></trkpt><trkpt lat="43.51852583841413" lon="12.342533019579593"><ele>693.0</ele><time>2026-04-18T08:46:20Z</time></trkpt><trkpt lat="43.518559791898355" lon="12.342321793146265"><ele>693.0</ele><time>2026-04-18T08:46:21Z</time></trkpt><trkpt lat="43.51862286854793" lon="12.342129998445618"><ele>700.0</ele><time>2026-04-18T08:46:22Z</time></trkpt><trkpt lat="43.51874005239335" lon="12.341995484096092"><ele>707.0</ele><time>2026-04-18T08:46:23Z</time></trkpt><trkpt lat="43.5188490226368" lon="12.341832415727959"><ele>714.0</ele><time>2026-04-18T08:46:24Z</time></trkpt><trkpt lat="43.5189458149363" lon="12.34165190618383"><ele>714.0</ele><time>2026-04-18T08:46:25Z</time></trkpt><trkpt lat="43.519050384226915" lon="12.341479409723298"><ele>714.0</ele><time>2026-04-18T08:46:26Z</time></trkpt><trkpt lat="43.519097092009794" lon="12.341263647662851"><ele>714.0</ele><time>2026-04-18T08:46:27Z</time></trkpt><trkpt lat="43.51906552141657" lon="12.341019993330088"><ele>715.3333333333334</ele><time>2026-04-18T08:46:28Z</time></trkpt><trkpt lat="43.518974821416414" lon="12.340804280678844"><ele>716.6666666666667</ele><time>2026-04-18T08:46:29Z</time></trkpt><trkpt lat="43.51881604847749" lon="12.340655802197848"><ele>718.0</ele><time>2026-04-18T08:46:30Z</time></trkpt><trkpt lat="43.518652925157724" lon="12.340504012765246"><ele>722.3333333333334</ele><time>2026-04-18T08:46:31Z</time></trkpt><trkpt lat="43.51846852300518" lon="12.340392869142741"><ele>726.6666666666666</ele><time>2026-04-18T08:46:32Z</time></trkpt><trkpt lat="43.51826390711572" lon="12.340296495000294"><ele>731.0</ele><time>2026-04-18T08:46:33Z</time></trkpt><trkpt lat="43.51805430722321" lon="12.340228412461949"><ele>726.5</ele><time>2026-04-18T08:46:34Z</time></trkpt><trkpt lat="43.51780734039379" lon="12.340226527809453"><ele>722.0</ele><time>2026-04-18T08:46:35Z</time></trkpt><trkpt lat="43.51760404847937" lon="12.340241115341229"><ele>722.0</ele><time>2026-04-18T08:46:36Z</time></trkpt><trkpt lat="43.51741235924786" lon="12.340280791095772"><ele>722.0</ele><time>2026-04-18T08:46:37Z</time></trkpt><trkpt lat="43.51722921975234" lon="12.340288851407434"><ele>722.0</ele><time>2026-04-18T08:46:38Z</time></trkpt><trkpt lat="43.51705070970162" lon="12.34024788353547"><ele>717.0</ele><time>2026-04-18T08:46:39Z</time></trkpt><trkpt lat="43.516870161135905" lon="12.340136886178561"><ele>712.0</ele><time>2026-04-18T08:46:40Z</time></trkpt><trkpt lat="43.51668386860029" lon="12.340054669633439"><ele>707.0</ele><time>2026-04-18T08:46:41Z</time></trkpt><trkpt lat="43.5164999346258" lon="12.33993936168739"><ele>707.0</ele><time>2026-04-18T08:46:42Z</time></trkpt><trkpt lat="43.516314916658956" lon="12.339834484842568"><ele>707.0</ele><time>2026-04-18T08:46:43Z</time></trkpt><trkpt lat="43.51613242124384" lon="12.339733153401196"><ele>707.0</ele><time>2026-04-18T08:46:44Z</time></trkpt><trkpt lat="43.51597383077816" lon="12.33964034432502"><ele>705.0</ele><time>2026-04-18T08:46:45Z</time></trkpt><trkpt lat="43.515827607288244" lon="12.339544265973565"><ele>703.0</ele><time>2026-04-18T08:46:46Z</time></trkpt><trkpt lat="43.515704766820555" lon="12.33941786768902"><ele>701.0</ele><time>2026-04-18T08:46:47Z</time></trkpt><trkpt lat="43.51563497941715" lon="12.339241420607651"><ele>701.0</ele><time>2026-04-18T08:46:48Z</time></trkpt><trkpt lat="43.51560897649384" lon="12.339029835690912"><ele>701.0</ele><time>2026-04-18T08:46:49Z</time></trkpt><trkpt lat="43.5156449528592" lon="12.33881699729112"><ele>701.0</ele><time>2026-04-18T08:46:50Z</time></trkpt><trkpt lat="43.51573910583922" lon="12.338646723533653"><ele>698.6666666666666</ele><time>2026-04-18T08:46:51Z</time></trkpt><trkpt lat="43.51587753072917" lon="12.338508179868564"><ele>696.3333333333334</ele><time>2026-04-18T08:46:52Z</time></trkpt><trkpt lat="43.51603722733538" lon="12.338371378450494"><ele>694.0</ele><time>2026-04-18T08:46:53Z</time></trkpt><trkpt lat="43.516208961105875" lon="12.338263947078431"><ele>692.3333333333334</ele><time>2026-04-18T08:46:54Z</time></trkpt><trkpt lat="43.516389448212614" lon="12.338141786353733"><ele>690.6666666666666</ele><time>2026-04-18T08:46:55Z</time></trkpt><trkpt lat="43.516572827342074" lon="12.338012363728007"><ele>689.0</ele><time>2026-04-18T08:46:56Z</time></trkpt><trkpt lat="43.51676350066881" lon="12.33787569956762"><ele>689.0</ele><time>2026-04-18T08:46:57Z</time></trkpt><trkpt lat="43.51695423324912" lon="12.337739679476362"><ele>689.0</ele><time>2026-04-18T08:46:58Z</time></trkpt><trkpt lat="43.517139489264714" lon="12.337585821306295"><ele>689.0</ele><time>2026-04-18T08:46:59Z</time></trkpt><trkpt lat="43.5173115224198" lon="12.337403095597013"><ele>688.6666666666666</ele><time>2026-04-18T08:47:00Z</time></trkpt><trkpt lat="43.51747416201303" lon="12.33720422838272"><ele>688.3333333333334</ele><time>2026-04-18T08:47:01Z</time></trkpt><trkpt lat="43.51763746000389" lon="12.337011799151105"><ele>688.0</ele><time>2026-04-18T08:47:02Z</time></trkpt><trkpt lat="43.517792017846446" lon="12.336826428325551"><ele>693.0</ele><time>2026-04-18T08:47:03Z</time></trkpt><trkpt lat="43.51792650076888" lon="12.336616028762068"><ele>698.0</ele><time>2026-04-18T08:47:04Z</time></trkpt><trkpt lat="43.518013401416745" lon="12.336368078574592"><ele>703.0</ele><time>2026-04-18T08:47:05Z</time></trkpt><trkpt lat="43.518055741476886" lon="12.336091358616335"><ele>703.0</ele><time>2026-04-18T08:47:06Z</time></trkpt><trkpt lat="43.51805513784081" lon="12.335804320505774"><ele>703.0</ele><time>2026-04-18T08:47:07Z</time></trkpt><trkpt lat="43.518019383149415" lon="12.335537739379271"><ele>703.0</ele><time>2026-04-18T08:47:08Z</time></trkpt><trkpt lat="43.517927976231235" lon="12.335300706334023"><ele>699.6666666666667</ele><time>2026-04-18T08:47:09Z</time></trkpt><trkpt lat="43.51777956056732" lon="12.335114264805345"><ele>696.3333333333334</ele><time>2026-04-18T08:47:10Z</time></trkpt><trkpt lat="43.517573717281984" lon="12.33500987626964"><ele>693.0</ele><time>2026-04-18T08:47:11Z</time></trkpt><trkpt lat="43.51735801380735" lon="12.334938773539065"><ele>693.0</ele><time>2026-04-18T08:47:12Z</time></trkpt><trkpt lat="43.517144633741175" lon="12.334856087600418"><ele>693.0</ele><time>2026-04-18T08:47:13Z</time></trkpt><trkpt lat="43.516934704871474" lon="12.334767279887002"><ele>693.0</ele><time>2026-04-18T08:47:14Z</time></trkpt><trkpt lat="43.516723143827186" lon="12.334688727455745"><ele>692.0</ele><time>2026-04-18T08:47:15Z</time></trkpt><trkpt lat="43.51651549479561" lon="12.334625987788415"><ele>691.0</ele><time>2026-04-18T08:47:16Z</time></trkpt><trkpt lat="43.51633788580885" lon="12.334580561138822"><ele>690.0</ele><time>2026-04-18T08:47:17Z</time></trkpt><trkpt lat="43.51619274342335" lon="12.3345383878304"><ele>690.0</ele><time>2026-04-18T08:47:18Z</time></trkpt><trkpt lat="43.51605656103846" lon="12.334500998672436"><ele>690.0</ele><time>2026-04-18T08:47:19Z</time></trkpt><trkpt lat="43.51592060771121" lon="12.334466309160238"><ele>690.0</ele><time>2026-04-18T08:47:20Z</time></trkpt><trkpt lat="43.515774480862376" lon="12.334429817143509"><ele>690.0</ele><time>2026-04-18T08:47:21Z</time></trkpt><trkpt lat="43.51563022940839" lon="12.334380452411843"><ele>690.0</ele><time>2026-04-18T08:47:22Z</time></trkpt><trkpt lat="43.515503307950006" lon="12.334314604677642"><ele>690.0</ele><time>2026-04-18T08:47:23Z</time></trkpt><trkpt lat="43.51539978290437" lon="12.3342053151753"><ele>690.0</ele><time>2026-04-18T08:47:24Z</time></trkpt><trkpt lat="43.51533281732914" lon="12.334054905853593"><ele>690.0</ele><time>2026-04-18T08:47:25Z</time></trkpt><trkpt lat="43.51532900922208" lon="12.333873488874739"><ele>690.3333333333334</ele><time>2026-04-18T08:47:26Z</time></trkpt><trkpt lat="43.51539470328255" lon="12.333693607790549"><ele>690.6666666666667</ele><time>2026-04-18T08:47:27Z</time></trkpt><trkpt lat="43.51552939984423" lon="12.333558551785467"><ele>691.0</ele><time>2026-04-18T08:47:28Z</time></trkpt><trkpt lat="43.515661034211824" lon="12.333423821873446"><ele>691.0</ele><time>2026-04-18T08:47:29Z</time></trkpt><trkpt lat="43.515791833104345" lon="12.333331158610182"><ele>691.0</ele><time>2026-04-18T08:47:30Z</time></trkpt><trkpt lat="43.51588294663802" lon="12.33318141103262"><ele>691.0</ele><time>2026-04-18T08:47:31Z</time></trkpt><trkpt lat="43.51588483603682" lon="12.33296527254938"><ele>691.0</ele><time>2026-04-18T08:47:32Z</time></trkpt><trkpt lat="43.515813554751126" lon="12.332749598408233"><ele>694.6666666666667</ele><time>2026-04-18T08:47:33Z</time></trkpt><trkpt lat="43.51568599265811" lon="12.332575859274733"><ele>698.3333333333334</ele><time>2026-04-18T08:47:34Z</time></trkpt><trkpt lat="43.51554368021435" lon="12.33241013671744"><ele>702.0</ele><time>2026-04-18T08:47:35Z</time></trkpt><trkpt lat="43.51541938803352" lon="12.332219185020486"><ele>697.6666666666666</ele><time>2026-04-18T08:47:36Z</time></trkpt><trkpt lat="43.51531681052708" lon="12.332013167614765"><ele>693.3333333333333</ele><time>2026-04-18T08:47:37Z</time></trkpt><trkpt lat="43.51521685100767" lon="12.331796787213698"><ele>689.0</ele><time>2026-04-18T08:47:38Z</time></trkpt><trkpt lat="43.51512052643308" lon="12.331595569972514"><ele>689.0</ele><time>2026-04-18T08:47:39Z</time></trkpt><trkpt lat="43.51501438658924" lon="12.331420721379642"><ele>689.0</ele><time>2026-04-18T08:47:40Z</time></trkpt><trkpt lat="43.514861649423096" lon="12.331305850967693"><ele>689.0</ele><time>2026-04-18T08:47:41Z</time></trkpt><trkpt lat="43.514676058618136" lon="12.331277626189483"><ele>692.0</ele><time>2026-04-18T08:47:42Z</time></trkpt><trkpt lat="43.51449497772121" lon="12.33136645680076"><ele>695.0</ele><time>2026-04-18T08:47:43Z</time></trkpt><trkpt lat="43.514337448059315" lon="12.331529794680748"><ele>698.0</ele><time>2026-04-18T08:47:44Z</time></trkpt><trkpt lat="43.51417495508761" lon="12.331625319557993"><ele>692.25</ele><time>2026-04-18T08:47:45Z</time></trkpt><trkpt lat="43.51401387027624" lon="12.331646299202935"><ele>686.5</ele><time>2026-04-18T08:47:46Z</time></trkpt><trkpt lat="43.51388136975265" lon="12.331624564020418"><ele>680.75</ele><time>2026-04-18T08:47:47Z</time></trkpt><trkpt lat="43.51378148551317" lon="12.331545119811734"><ele>675.0</ele><time>2026-04-18T08:47:48Z</time></trkpt><trkpt lat="43.51372688289635" lon="12.331390340063512"><ele>673.5</ele><time>2026-04-18T08:47:49Z</time></trkpt><trkpt lat="43.51372269515164" lon="12.331200836710321"><ele>672.0</ele><time>2026-04-18T08:47:50Z</time></trkpt><trkpt lat="43.51374411430225" lon="12.331001572028407"><ele>670.5</ele><time>2026-04-18T08:47:51Z</time></trkpt><trkpt lat="43.51372347150218" lon="12.330775656490742"><ele>669.0</ele><time>2026-04-18T08:47:52Z</time></trkpt><trkpt lat="43.51363051717402" lon="12.33058320583706"><ele>674.0</ele><time>2026-04-18T08:47:53Z</time></trkpt><trkpt lat="43.51346495423739" lon="12.330455667108911"><ele>679.0</ele><time>2026-04-18T08:47:54Z</time></trkpt><trkpt lat="43.51326561403508" lon="12.330421505055847"><ele>684.0</ele><time>2026-04-18T08:47:55Z</time></trkpt><trkpt lat="43.513070720387105" lon="12.33042780522163"><ele>678.5</ele><time>2026-04-18T08:47:56Z</time></trkpt><trkpt lat="43.51290270427633" lon="12.330419119130218"><ele>673.0</ele><time>2026-04-18T08:47:57Z</time></trkpt><trkpt lat="43.512767639994394" lon="12.330376192568819"><ele>667.5</ele><time>2026-04-18T08:47:58Z</time></trkpt><trkpt lat="43.51266451201814" lon="12.330278208804534"><ele>662.0</ele><time>2026-04-18T08:47:59Z</time></trkpt><trkpt lat="43.51260768123741" lon="12.330121173599167"><ele>662.0</ele><time>2026-04-18T08:48:00Z</time></trkpt><trkpt lat="43.51262440451017" lon="12.329927904081922"><ele>662.0</ele><time>2026-04-18T08:48:01Z</time></trkpt><trkpt lat="43.512649189688666" lon="12.32969370178375"><ele>662.0</ele><time>2026-04-18T08:48:02Z</time></trkpt><trkpt lat="43.51266882292473" lon="12.32946730316453"><ele>664.3333333333333</ele><time>2026-04-18T08:48:03Z</time></trkpt><trkpt lat="43.51262878828627" lon="12.32923523128524"><ele>666.6666666666666</ele><time>2026-04-18T08:48:04Z</time></trkpt><trkpt lat="43.51252070057515" lon="12.32902144406576"><ele>669.0</ele><time>2026-04-18T08:48:05Z</time></trkpt><trkpt lat="43.51235792089326" lon="12.328860997239293"><ele>669.0</ele><time>2026-04-18T08:48:06Z</time></trkpt><trkpt lat="43.512147765373555" lon="12.328791819772572"><ele>669.0</ele><time>2026-04-18T08:48:07Z</time></trkpt><trkpt lat="43.5119382310895" lon="12.328765065475473"><ele>669.0</ele><time>2026-04-18T08:48:08Z</time></trkpt><trkpt lat="43.511743024910935" lon="12.328724509510096"><ele>667.3333333333334</ele><time>2026-04-18T08:48:09Z</time></trkpt><trkpt lat="43.51155104376958" lon="12.328671642564538"><ele>665.6666666666667</ele><time>2026-04-18T08:48:10Z</time></trkpt><trkpt lat="43.51136073880297" lon="12.328616752160245"><ele>664.0</ele><time>2026-04-18T08:48:10.999Z</time></trkpt><trkpt lat="43.511174393565305" lon="12.328560815261557"><ele>664.0</ele><time>2026-04-18T08:48:11.999Z</time></trkpt><trkpt lat="43.51099221082248" lon="12.328501758239442"><ele>664.0</ele><time>2026-04-18T08:48:12.999Z</time></trkpt><trkpt lat="43.51081407739328" lon="12.328446252100063"><ele>664.0</ele><time>2026-04-18T08:48:13.999Z</time></trkpt><trkpt lat="43.510633940473596" lon="12.328402593168555"><ele>664.0</ele><time>2026-04-18T08:48:14.999Z</time></trkpt><trkpt lat="43.510463383242914" lon="12.328358736027962"><ele>664.0</ele><time>2026-04-18T08:48:15.999Z</time></trkpt><trkpt lat="43.51031366610316" lon="12.328314278241145"><ele>664.0</ele><time>2026-04-18T08:48:16.999Z</time></trkpt><trkpt lat="43.5101311858284" lon="12.328644827568821"><ele>663.6666666666667</ele><time>2026-04-18T08:48:17.999Z</time></trkpt><trkpt lat="43.50998342312749" lon="12.32879224676129"><ele>663.3333333333334</ele><time>2026-04-18T08:48:18.999Z</time></trkpt><trkpt lat="43.509824585539775" lon="12.32893112865459"><ele>663.0</ele><time>2026-04-18T08:48:19.999Z</time></trkpt><trkpt lat="43.50967291327573" lon="12.329059200591049"><ele>664.0</ele><time>2026-04-18T08:48:21Z</time></trkpt><trkpt lat="43.50952088198836" lon="12.329183619470905"><ele>665.0</ele><time>2026-04-18T08:48:22Z</time></trkpt><trkpt lat="43.50937700732901" lon="12.3292677179748"><ele>666.0</ele><time>2026-04-18T08:48:23Z</time></trkpt><trkpt lat="43.50922099183146" lon="12.329298908588042"><ele>666.0</ele><time>2026-04-18T08:48:24Z</time></trkpt><trkpt lat="43.50905656163237" lon="12.32925010489069"><ele>666.0</ele><time>2026-04-18T08:48:25Z</time></trkpt><trkpt lat="43.508901967562046" lon="12.329128410772304"><ele>666.0</ele><time>2026-04-18T08:48:26Z</time></trkpt><trkpt lat="43.50878805232744" lon="12.32894537178947"><ele>662.3333333333334</ele><time>2026-04-18T08:48:27Z</time></trkpt><trkpt lat="43.50872234387014" lon="12.328696569953795"><ele>658.6666666666667</ele><time>2026-04-18T08:48:28Z</time></trkpt><trkpt lat="43.5086799672289" lon="12.328444944909636"><ele>655.0</ele><time>2026-04-18T08:48:29Z</time></trkpt><trkpt lat="43.50867502801589" lon="12.328221133768917"><ele>654.3333333333334</ele><time>2026-04-18T08:48:30Z</time></trkpt><trkpt lat="43.50872161933938" lon="12.328003701792703"><ele>653.6666666666666</ele><time>2026-04-18T08:48:31Z</time></trkpt><trkpt lat="43.50882222814703" lon="12.327811923593279"><ele>653.0</ele><time>2026-04-18T08:48:32Z</time></trkpt><trkpt lat="43.508963614076414" lon="12.327676491697552"><ele>653.0</ele><time>2026-04-18T08:48:33Z</time></trkpt><trkpt lat="43.50913625713538" lon="12.327616474658166"><ele>653.0</ele><time>2026-04-18T08:48:34Z</time></trkpt><trkpt lat="43.50932574169188" lon="12.327602318293678"><ele>653.0</ele><time>2026-04-18T08:48:35Z</time></trkpt><trkpt lat="43.50952273966852" lon="12.32759707372496"><ele>655.0</ele><time>2026-04-18T08:48:36Z</time></trkpt><trkpt lat="43.509718301938896" lon="12.327580060976262"><ele>657.0</ele><time>2026-04-18T08:48:37Z</time></trkpt><trkpt lat="43.50989714318975" lon="12.327548223351132"><ele>659.0</ele><time>2026-04-18T08:48:38Z</time></trkpt><trkpt lat="43.51005943363018" lon="12.327463977839036"><ele>659.0</ele><time>2026-04-18T08:48:39Z</time></trkpt><trkpt lat="43.510201918504485" lon="12.327294475859455"><ele>659.0</ele><time>2026-04-18T08:48:40Z</time></trkpt><trkpt lat="43.51031318424305" lon="12.327064926558094"><ele>659.0</ele><time>2026-04-18T08:48:41Z</time></trkpt><trkpt lat="43.510421085500354" lon="12.326832041222387"><ele>658.6666666666666</ele><time>2026-04-18T08:48:42Z</time></trkpt><trkpt lat="43.51053164345678" lon="12.326621264473458"><ele>658.3333333333334</ele><time>2026-04-18T08:48:43Z</time></trkpt><trkpt lat="43.510632879824534" lon="12.326432357041513"><ele>658.0</ele><time>2026-04-18T08:48:44Z</time></trkpt><trkpt lat="43.51068477478235" lon="12.326218095618634"><ele>656.6666666666667</ele><time>2026-04-18T08:48:45Z</time></trkpt><trkpt lat="43.510645307904255" lon="12.32601731903064"><ele>655.3333333333334</ele><time>2026-04-18T08:48:46Z</time></trkpt><trkpt lat="43.51054798567244" lon="12.325860612368164"><ele>654.0</ele><time>2026-04-18T08:48:47Z</time></trkpt><trkpt lat="43.51040028502975" lon="12.325774513983294"><ele>652.6666666666666</ele><time>2026-04-18T08:48:48Z</time></trkpt><trkpt lat="43.510218258900856" lon="12.325755142742626"><ele>651.3333333333333</ele><time>2026-04-18T08:48:49Z</time></trkpt><trkpt lat="43.510035290029556" lon="12.325762263633866"><ele>650.0</ele><time>2026-04-18T08:48:50Z</time></trkpt><trkpt lat="43.509843168916746" lon="12.32577119319376"><ele>650.0</ele><time>2026-04-18T08:48:51Z</time></trkpt><trkpt lat="43.509649103078274" lon="12.32574710592752"><ele>650.0</ele><time>2026-04-18T08:48:52Z</time></trkpt><trkpt lat="43.509454773631184" lon="12.325676600909805"><ele>650.0</ele><time>2026-04-18T08:48:53Z</time></trkpt><trkpt lat="43.50928245886632" lon="12.325542842949826"><ele>649.3333333333333</ele><time>2026-04-18T08:48:54Z</time></trkpt><trkpt lat="43.509147049891745" lon="12.325347753437539"><ele>648.6666666666666</ele><time>2026-04-18T08:48:55Z</time></trkpt><trkpt lat="43.509029023755936" lon="12.325126583264348"><ele>648.0</ele><time>2026-04-18T08:48:56Z</time></trkpt><trkpt lat="43.50889039772294" lon="12.32492851602904"><ele>647.3333333333334</ele><time>2026-04-18T08:48:57Z</time></trkpt><trkpt lat="43.50872487622567" lon="12.324757955955096"><ele>646.6666666666667</ele><time>2026-04-18T08:48:58Z</time></trkpt><trkpt lat="43.5085449519854" lon="12.324623476964456"><ele>646.0</ele><time>2026-04-18T08:48:59Z</time></trkpt><trkpt lat="43.50834899294617" lon="12.324503811130118"><ele>646.0</ele><time>2026-04-18T08:49:00Z</time></trkpt><trkpt lat="43.508149649396934" lon="12.324373765763324"><ele>646.0</ele><time>2026-04-18T08:49:01Z</time></trkpt><trkpt lat="43.50794900594577" lon="12.324232577577522"><ele>646.0</ele><time>2026-04-18T08:49:02Z</time></trkpt><trkpt lat="43.5077970242857" lon="12.324104306146845"><ele>642.6666666666667</ele><time>2026-04-18T08:49:03Z</time></trkpt><trkpt lat="43.50765882791915" lon="12.323910263655643"><ele>639.3333333333334</ele><time>2026-04-18T08:49:04Z</time></trkpt><trkpt lat="43.50753396654394" lon="12.323683002754379"><ele>636.0</ele><time>2026-04-18T08:49:05Z</time></trkpt><trkpt lat="43.50740693779122" lon="12.32346188622694"><ele>636.0</ele><time>2026-04-18T08:49:06Z</time></trkpt><trkpt lat="43.507273732531935" lon="12.323244657712186"><ele>636.0</ele><time>2026-04-18T08:49:07Z</time></trkpt><trkpt lat="43.50713670929382" lon="12.323023229982688"><ele>636.0</ele><time>2026-04-18T08:49:08Z</time></trkpt><trkpt lat="43.506991563069455" lon="12.322801780179205"><ele>633.3333333333334</ele><time>2026-04-18T08:49:09Z</time></trkpt><trkpt lat="43.506827889732506" lon="12.322599953915905"><ele>630.6666666666667</ele><time>2026-04-18T08:49:10Z</time></trkpt><trkpt lat="43.50664289316594" lon="12.322441426572718"><ele>628.0</ele><time>2026-04-18T08:49:11Z</time></trkpt><trkpt lat="43.50644825562338" lon="12.32231838377616"><ele>627.6666666666667</ele><time>2026-04-18T08:49:12Z</time></trkpt><trkpt lat="43.506253320688344" lon="12.322195641380407"><ele>627.3333333333334</ele><time>2026-04-18T08:49:13Z</time></trkpt><trkpt lat="43.50605552763055" lon="12.322063591088865"><ele>627.0</ele><time>2026-04-18T08:49:14Z</time></trkpt><trkpt lat="43.505859963810344" lon="12.321927645509803"><ele>627.0</ele><time>2026-04-18T08:49:15Z</time></trkpt><trkpt lat="43.505667473407925" lon="12.321788038072906"><ele>627.0</ele><time>2026-04-18T08:49:16Z</time></trkpt><trkpt lat="43.50549070259372" lon="12.321633367425347"><ele>627.0</ele><time>2026-04-18T08:49:17Z</time></trkpt><trkpt lat="43.50533769141146" lon="12.32144749038251"><ele>623.3333333333334</ele><time>2026-04-18T08:49:18Z</time></trkpt><trkpt lat="43.50522960820641" lon="12.321254795122718"><ele>619.6666666666667</ele><time>2026-04-18T08:49:19Z</time></trkpt><trkpt lat="43.50516121466475" lon="12.321043644815523"><ele>616.0</ele><time>2026-04-18T08:49:20Z</time></trkpt><trkpt lat="43.505143920336245" lon="12.320800290580053"><ele>615.6666666666667</ele><time>2026-04-18T08:49:21Z</time></trkpt><trkpt lat="43.505148068822585" lon="12.320536591670225"><ele>615.3333333333334</ele><time>2026-04-18T08:49:22Z</time></trkpt><trkpt lat="43.50511945480528" lon="12.320275332043146"><ele>615.0</ele><time>2026-04-18T08:49:23Z</time></trkpt><trkpt lat="43.505028825957524" lon="12.320038776506575"><ele>615.0</ele><time>2026-04-18T08:49:24Z</time></trkpt><trkpt lat="43.504904221321326" lon="12.319836951235624"><ele>615.0</ele><time>2026-04-18T08:49:25Z</time></trkpt><trkpt lat="43.504815182301094" lon="12.319617571186665"><ele>615.0</ele><time>2026-04-18T08:49:26Z</time></trkpt><trkpt lat="43.50479054271976" lon="12.319356537208252"><ele>614.6666666666666</ele><time>2026-04-18T08:49:27Z</time></trkpt><trkpt lat="43.50481197830067" lon="12.319080533773125"><ele>614.3333333333333</ele><time>2026-04-18T08:49:28Z</time></trkpt><trkpt lat="43.50483109941624" lon="12.31881763038384"><ele>614.0</ele><time>2026-04-18T08:49:29Z</time></trkpt><trkpt lat="43.50485805936624" lon="12.318593354303257"><ele>612.0</ele><time>2026-04-18T08:49:30Z</time></trkpt><trkpt lat="43.50492629511956" lon="12.318422335271796"><ele>610.0</ele><time>2026-04-18T08:49:31Z</time></trkpt><trkpt lat="43.505047050350264" lon="12.318293206810493"><ele>608.0</ele><time>2026-04-18T08:49:32Z</time></trkpt><trkpt lat="43.505192668517864" lon="12.318233770536699"><ele>606.0</ele><time>2026-04-18T08:49:33Z</time></trkpt><trkpt lat="43.50536602101358" lon="12.318269303680514"><ele>606.3333333333334</ele><time>2026-04-18T08:49:34Z</time></trkpt><trkpt lat="43.50554256828886" lon="12.318329785953363"><ele>606.6666666666667</ele><time>2026-04-18T08:49:35Z</time></trkpt><trkpt lat="43.50571038429873" lon="12.31838515256292"><ele>607.0</ele><time>2026-04-18T08:49:36Z</time></trkpt><trkpt lat="43.505863009776085" lon="12.31836971697495"><ele>607.0</ele><time>2026-04-18T08:49:37Z</time></trkpt><trkpt lat="43.50598922440768" lon="12.318231981463573"><ele>607.0</ele><time>2026-04-18T08:49:38Z</time></trkpt><trkpt lat="43.5060503811321" lon="12.318026357909053"><ele>607.0</ele><time>2026-04-18T08:49:39Z</time></trkpt><trkpt lat="43.5060846387144" lon="12.317808130218797"><ele>602.0</ele><time>2026-04-18T08:49:40Z</time></trkpt><trkpt lat="43.5061793724815" lon="12.317615706010134"><ele>597.0</ele><time>2026-04-18T08:49:41Z</time></trkpt><trkpt lat="43.506334467593526" lon="12.317499127526446"><ele>592.0</ele><time>2026-04-18T08:49:42Z</time></trkpt><trkpt lat="43.50649594691257" lon="12.31745227743856"><ele>592.0</ele><time>2026-04-18T08:49:43Z</time></trkpt><trkpt lat="43.50664233318152" lon="12.317462347078546"><ele>592.0</ele><time>2026-04-18T08:49:44Z</time></trkpt><trkpt lat="43.50676797846332" lon="12.317523692845027"><ele>592.0</ele><time>2026-04-18T08:49:45Z</time></trkpt><trkpt lat="43.5068719875928" lon="12.317609495160681"><ele>592.0</ele><time>2026-04-18T08:49:46Z</time></trkpt><trkpt lat="43.506967351098176" lon="12.317687356761642"><ele>592.0</ele><time>2026-04-18T08:49:47Z</time></trkpt><trkpt lat="43.50707181287966" lon="12.317746234669691"><ele>592.0</ele><time>2026-04-18T08:49:48Z</time></trkpt><trkpt lat="43.507174920699704" lon="12.31777710321659"><ele>592.0</ele><time>2026-04-18T08:49:49Z</time></trkpt><trkpt lat="43.507271967942735" lon="12.317736613041644"><ele>592.0</ele><time>2026-04-18T08:49:50Z</time></trkpt><trkpt lat="43.507367768576714" lon="12.317692476520865"><ele>592.0</ele><time>2026-04-18T08:49:51Z</time></trkpt><trkpt lat="43.50745529264957" lon="12.317619014765553"><ele>592.0</ele><time>2026-04-18T08:49:52Z</time></trkpt><trkpt lat="43.507540031744604" lon="12.31751420198797"><ele>592.0</ele><time>2026-04-18T08:49:53Z</time></trkpt><trkpt lat="43.507590279360734" lon="12.31736572104688"><ele>592.0</ele><time>2026-04-18T08:49:54Z</time></trkpt><trkpt lat="43.507603487704436" lon="12.3171895910063"><ele>592.0</ele><time>2026-04-18T08:49:55Z</time></trkpt><trkpt lat="43.50758234685692" lon="12.317008533173395"><ele>592.0</ele><time>2026-04-18T08:49:56Z</time></trkpt><trkpt lat="43.50754395268787" lon="12.316839647562464"><ele>592.0</ele><time>2026-04-18T08:49:57Z</time></trkpt><trkpt lat="43.50747314759612" lon="12.316660023655587"><ele>592.0</ele><time>2026-04-18T08:49:58Z</time></trkpt><trkpt lat="43.50735348455262" lon="12.31643395402319"><ele>591.3333333333334</ele><time>2026-04-18T08:49:59Z</time></trkpt><trkpt lat="43.507230292889986" lon="12.316223887028283"><ele>590.6666666666666</ele><time>2026-04-18T08:50:00Z</time></trkpt><trkpt lat="43.50715171368006" lon="12.316021292564166"><ele>590.0</ele><time>2026-04-18T08:50:01Z</time></trkpt><trkpt lat="43.50713686357717" lon="12.315817329483693"><ele>590.0</ele><time>2026-04-18T08:50:02Z</time></trkpt><trkpt lat="43.5071592654326" lon="12.315604727570811"><ele>590.0</ele><time>2026-04-18T08:50:03Z</time></trkpt><trkpt lat="43.507197220602414" lon="12.31538440990402"><ele>590.0</ele><time>2026-04-18T08:50:04Z</time></trkpt><trkpt lat="43.5072189710606" lon="12.315162520463367"><ele>589.3333333333333</ele><time>2026-04-18T08:50:05Z</time></trkpt><trkpt lat="43.507202064014876" lon="12.314954921271033"><ele>588.6666666666666</ele><time>2026-04-18T08:50:06Z</time></trkpt><trkpt lat="43.507175664658845" lon="12.314751258867085"><ele>588.0</ele><time>2026-04-18T08:50:07Z</time></trkpt><trkpt lat="43.507166383547435" lon="12.314517849436916"><ele>586.3333333333334</ele><time>2026-04-18T08:50:08Z</time></trkpt><trkpt lat="43.507162791450945" lon="12.31425388034913"><ele>584.6666666666667</ele><time>2026-04-18T08:50:09Z</time></trkpt><trkpt lat="43.50715972373334" lon="12.31396641379929"><ele>583.0</ele><time>2026-04-18T08:50:10Z</time></trkpt><trkpt lat="43.5071507597273" lon="12.313682145026885"><ele>580.3333333333334</ele><time>2026-04-18T08:50:11Z</time></trkpt><trkpt lat="43.50709420555474" lon="12.313401577554345"><ele>577.6666666666666</ele><time>2026-04-18T08:50:12Z</time></trkpt><trkpt lat="43.50698419458302" lon="12.313142902609075"><ele>575.0</ele><time>2026-04-18T08:50:13Z</time></trkpt><trkpt lat="43.50684314595778" lon="12.31292461385538"><ele>575.0</ele><time>2026-04-18T08:50:14Z</time></trkpt><trkpt lat="43.50670983034745" lon="12.312718405012067"><ele>575.0</ele><time>2026-04-18T08:50:15Z</time></trkpt><trkpt lat="43.5065910201554" lon="12.312518709867867"><ele>575.0</ele><time>2026-04-18T08:50:16Z</time></trkpt><trkpt lat="43.50648211857431" lon="12.312327524309989"><ele>576.3333333333333</ele><time>2026-04-18T08:50:17Z</time></trkpt><trkpt lat="43.50638614862343" lon="12.312131757167753"><ele>577.6666666666666</ele><time>2026-04-18T08:50:18Z</time></trkpt><trkpt lat="43.50631967892494" lon="12.311918726424263"><ele>579.0</ele><time>2026-04-18T08:50:19Z</time></trkpt><trkpt lat="43.50628128512127" lon="12.31168586775815"><ele>579.0</ele><time>2026-04-18T08:50:20Z</time></trkpt><trkpt lat="43.50625261210706" lon="12.31145314848076"><ele>579.0</ele><time>2026-04-18T08:50:21Z</time></trkpt><trkpt lat="43.50619934045385" lon="12.311237449697684"><ele>579.0</ele><time>2026-04-18T08:50:22Z</time></trkpt><trkpt lat="43.50610489707383" lon="12.311047436082314"><ele>576.0</ele><time>2026-04-18T08:50:23Z</time></trkpt><trkpt lat="43.5059951242636" lon="12.310872055813453"><ele>573.0</ele><time>2026-04-18T08:50:24Z</time></trkpt><trkpt lat="43.50588448863593" lon="12.31069766195333"><ele>570.0</ele><time>2026-04-18T08:50:25Z</time></trkpt><trkpt lat="43.50578539773677" lon="12.310527871209194"><ele>570.0</ele><time>2026-04-18T08:50:26Z</time></trkpt><trkpt lat="43.50569852188582" lon="12.310355541021076"><ele>570.0</ele><time>2026-04-18T08:50:27Z</time></trkpt><trkpt lat="43.50563914617498" lon="12.310157910093059"><ele>570.0</ele><time>2026-04-18T08:50:28Z</time></trkpt><trkpt lat="43.50562370381885" lon="12.309940348825418"><ele>567.0</ele><time>2026-04-18T08:50:29Z</time></trkpt><trkpt lat="43.505644225557" lon="12.309709275298939"><ele>564.0</ele><time>2026-04-18T08:50:30Z</time></trkpt><trkpt lat="43.5056578432789" lon="12.309491160116892"><ele>561.0</ele><time>2026-04-18T08:50:31Z</time></trkpt><trkpt lat="43.50562088856377" lon="12.30926500418589"><ele>561.0</ele><time>2026-04-18T08:50:32Z</time></trkpt><trkpt lat="43.50552866201698" lon="12.309065392730485"><ele>561.0</ele><time>2026-04-18T08:50:33Z</time></trkpt><trkpt lat="43.50539790567662" lon="12.308899655002001"><ele>561.0</ele><time>2026-04-18T08:50:34Z</time></trkpt><trkpt lat="43.50526464019771" lon="12.308759658666526"><ele>560.5</ele><time>2026-04-18T08:50:35Z</time></trkpt><trkpt lat="43.505142815285744" lon="12.308618755507535"><ele>560.0</ele><time>2026-04-18T08:50:36Z</time></trkpt><trkpt lat="43.50503364299056" lon="12.30848814215924"><ele>559.5</ele><time>2026-04-18T08:50:37Z</time></trkpt><trkpt lat="43.5049292025856" lon="12.308359366907268"><ele>559.0</ele><time>2026-04-18T08:50:38Z</time></trkpt><trkpt lat="43.50482689633548" lon="12.308239498405348"><ele>559.0</ele><time>2026-04-18T08:50:39Z</time></trkpt><trkpt lat="43.50472147171759" lon="12.308115453944206"><ele>559.0</ele><time>2026-04-18T08:50:40Z</time></trkpt><trkpt lat="43.50461778247294" lon="12.30799174511468"><ele>559.0</ele><time>2026-04-18T08:50:41Z</time></trkpt><trkpt lat="43.50451847976666" lon="12.307875709927693"><ele>559.0</ele><time>2026-04-18T08:50:42Z</time></trkpt><trkpt lat="43.50442652168882" lon="12.307761565234095"><ele>557.25</ele><time>2026-04-18T08:50:43Z</time></trkpt><trkpt lat="43.50433843651192" lon="12.307651666525905"><ele>555.5</ele><time>2026-04-18T08:50:44Z</time></trkpt><trkpt lat="43.50425474763041" lon="12.30754005696404"><ele>553.75</ele><time>2026-04-18T08:50:45Z</time></trkpt><trkpt lat="43.50417746934397" lon="12.3074157061976"><ele>552.0</ele><time>2026-04-18T08:50:46Z</time></trkpt><trkpt lat="43.504116183908465" lon="12.307278093593341"><ele>550.75</ele><time>2026-04-18T08:50:47Z</time></trkpt><trkpt lat="43.50407665285112" lon="12.307113415937776"><ele>549.5</ele><time>2026-04-18T08:50:48Z</time></trkpt><trkpt lat="43.50405755975354" lon="12.306923676400814"><ele>548.25</ele><time>2026-04-18T08:50:49Z</time></trkpt><trkpt lat="43.50404949235547" lon="12.306717494921452"><ele>547.0</ele><time>2026-04-18T08:50:50Z</time></trkpt><trkpt lat="43.504040423258154" lon="12.306499300546703"><ele>545.75</ele><time>2026-04-18T08:50:51Z</time></trkpt><trkpt lat="43.50402720392786" lon="12.306290814513366"><ele>544.5</ele><time>2026-04-18T08:50:52Z</time></trkpt><trkpt lat="43.504010759334705" lon="12.306089926650001"><ele>543.25</ele><time>2026-04-18T08:50:53Z</time></trkpt><trkpt lat="43.50399179432131" lon="12.305900811940921"><ele>542.0</ele><time>2026-04-18T08:50:54Z</time></trkpt><trkpt lat="43.503969415763834" lon="12.305726059208828"><ele>542.0</ele><time>2026-04-18T08:50:55Z</time></trkpt><trkpt lat="43.503944588889375" lon="12.305541644358204"><ele>542.0</ele><time>2026-04-18T08:50:56Z</time></trkpt><trkpt lat="43.50392119056678" lon="12.305352737972253"><ele>542.0</ele><time>2026-04-18T08:50:57Z</time></trkpt><trkpt lat="43.503893944430864" lon="12.305158242105712"><ele>542.0</ele><time>2026-04-18T08:50:58Z</time></trkpt><trkpt lat="43.50385642588738" lon="12.304961844063456"><ele>542.0</ele><time>2026-04-18T08:50:59Z</time></trkpt><trkpt lat="43.50379222814064" lon="12.304757071782154"><ele>542.0</ele><time>2026-04-18T08:51:00Z</time></trkpt><trkpt lat="43.50369396442209" lon="12.304563439220098"><ele>542.0</ele><time>2026-04-18T08:51:01Z</time></trkpt><trkpt lat="43.503567802094025" lon="12.304394623438709"><ele>541.0</ele><time>2026-04-18T08:51:02Z</time></trkpt><trkpt lat="43.50340976493293" lon="12.304256742883654"><ele>540.0</ele><time>2026-04-18T08:51:03Z</time></trkpt><trkpt lat="43.503232487241405" lon="12.304158498348094"><ele>539.0</ele><time>2026-04-18T08:51:04Z</time></trkpt><trkpt lat="43.50304369994217" lon="12.30406727306915"><ele>537.3333333333333</ele><time>2026-04-18T08:51:05Z</time></trkpt><trkpt lat="43.50285804083181" lon="12.303965889095625"><ele>535.6666666666666</ele><time>2026-04-18T08:51:06Z</time></trkpt><trkpt lat="43.5026807558569" lon="12.303845684057464"><ele>534.0</ele><time>2026-04-18T08:51:07Z</time></trkpt><trkpt lat="43.50250339816862" lon="12.303713001605233"><ele>535.6666666666666</ele><time>2026-04-18T08:51:08Z</time></trkpt><trkpt lat="43.502320926691986" lon="12.303568745074692"><ele>537.3333333333333</ele><time>2026-04-18T08:51:09Z</time></trkpt><trkpt lat="43.50213645112546" lon="12.303418697264986"><ele>539.0</ele><time>2026-04-18T08:51:10Z</time></trkpt><trkpt lat="43.501953597878384" lon="12.303262393806996"><ele>539.0</ele><time>2026-04-18T08:51:11Z</time></trkpt><trkpt lat="43.501768725751454" lon="12.30309052353102"><ele>539.0</ele><time>2026-04-18T08:51:12Z</time></trkpt><trkpt lat="43.50158778712687" lon="12.30291225193434"><ele>539.0</ele><time>2026-04-18T08:51:13Z</time></trkpt><trkpt lat="43.50141346582129" lon="12.302727818255802"><ele>539.3333333333333</ele><time>2026-04-18T08:51:14Z</time></trkpt><trkpt lat="43.50124987920674" lon="12.302545404823851"><ele>539.6666666666666</ele><time>2026-04-18T08:51:15Z</time></trkpt><trkpt lat="43.501085599885656" lon="12.302404098141517"><ele>540.0</ele><time>2026-04-18T08:51:16Z</time></trkpt><trkpt lat="43.50089314399876" lon="12.302342532420441"><ele>540.0</ele><time>2026-04-18T08:51:17Z</time></trkpt><trkpt lat="43.500682036710174" lon="12.302385226917565"><ele>540.0</ele><time>2026-04-18T08:51:18Z</time></trkpt><trkpt lat="43.50050155438125" lon="12.302502626503852"><ele>540.0</ele><time>2026-04-18T08:51:19Z</time></trkpt><trkpt lat="43.500343080132296" lon="12.302625518573157"><ele>538.3333333333334</ele><time>2026-04-18T08:51:20Z</time></trkpt><trkpt lat="43.50018109463611" lon="12.302602655421614"><ele>536.6666666666667</ele><time>2026-04-18T08:51:21Z</time></trkpt><trkpt lat="43.5000300747721" lon="12.302485604525069"><ele>535.0</ele><time>2026-04-18T08:51:22Z</time></trkpt><trkpt lat="43.499851394786056" lon="12.302346329208692"><ele>532.6666666666667</ele><time>2026-04-18T08:51:23Z</time></trkpt><trkpt lat="43.49969635119287" lon="12.30216866345368"><ele>530.3333333333334</ele><time>2026-04-18T08:51:24Z</time></trkpt><trkpt lat="43.49955553506245" lon="12.30197643790926"><ele>528.0</ele><time>2026-04-18T08:51:25Z</time></trkpt><trkpt lat="43.49944520539138" lon="12.301741595039196"><ele>528.0</ele><time>2026-04-18T08:51:26Z</time></trkpt><trkpt lat="43.499388096155485" lon="12.301475970016357"><ele>528.0</ele><time>2026-04-18T08:51:27Z</time></trkpt><trkpt lat="43.49932855946613" lon="12.301199801970654"><ele>528.0</ele><time>2026-04-18T08:51:28Z</time></trkpt><trkpt lat="43.49928361862972" lon="12.300921014546475"><ele>530.0</ele><time>2026-04-18T08:51:29Z</time></trkpt><trkpt lat="43.49920858744011" lon="12.300645617023218"><ele>532.0</ele><time>2026-04-18T08:51:30Z</time></trkpt><trkpt lat="43.49912630116124" lon="12.300376658144447"><ele>534.0</ele><time>2026-04-18T08:51:31Z</time></trkpt><trkpt lat="43.49906594971408" lon="12.300102501903527"><ele>536.6666666666666</ele><time>2026-04-18T08:51:32Z</time></trkpt><trkpt lat="43.499023160580784" lon="12.299818127699112"><ele>539.3333333333333</ele><time>2026-04-18T08:51:33Z</time></trkpt><trkpt lat="43.49895723811042" lon="12.299558095056646"><ele>542.0</ele><time>2026-04-18T08:51:34Z</time></trkpt><trkpt lat="43.49882273353738" lon="12.299336284601708"><ele>539.0</ele><time>2026-04-18T08:51:35Z</time></trkpt><trkpt lat="43.498656129954824" lon="12.299148113056278"><ele>536.0</ele><time>2026-04-18T08:51:36Z</time></trkpt><trkpt lat="43.498516624415736" lon="12.29893591946762"><ele>533.0</ele><time>2026-04-18T08:51:37Z</time></trkpt><trkpt lat="43.49841291953222" lon="12.298703020491331"><ele>533.0</ele><time>2026-04-18T08:51:38Z</time></trkpt><trkpt lat="43.498316086476486" lon="12.298472101237932"><ele>533.0</ele><time>2026-04-18T08:51:39Z</time></trkpt><trkpt lat="43.49822696701963" lon="12.298281232620477"><ele>533.0</ele><time>2026-04-18T08:51:40Z</time></trkpt><trkpt lat="43.49816271351781" lon="12.298129318399043"><ele>532.5</ele><time>2026-04-18T08:51:41Z</time></trkpt><trkpt lat="43.498151741042165" lon="12.297979157776526"><ele>532.0</ele><time>2026-04-18T08:51:42Z</time></trkpt><trkpt lat="43.498203448498586" lon="12.297836163623076"><ele>531.5</ele><time>2026-04-18T08:51:43Z</time></trkpt><trkpt lat="43.49834434022293" lon="12.29777896312543"><ele>531.0</ele><time>2026-04-18T08:51:44Z</time></trkpt><trkpt lat="43.49848226939594" lon="12.297657652582705"><ele>531.0</ele><time>2026-04-18T08:51:45Z</time></trkpt><trkpt lat="43.49860428388175" lon="12.297527979614198"><ele>531.0</ele><time>2026-04-18T08:51:46Z</time></trkpt><trkpt lat="43.498648953034056" lon="12.297320027532878"><ele>531.0</ele><time>2026-04-18T08:51:47Z</time></trkpt><trkpt lat="43.49858765154917" lon="12.297089196381789"><ele>534.3333333333334</ele><time>2026-04-18T08:51:48Z</time></trkpt><trkpt lat="43.4984596014895" lon="12.29689836855637"><ele>537.6666666666667</ele><time>2026-04-18T08:51:49Z</time></trkpt><trkpt lat="43.498285447556476" lon="12.29676675503735"><ele>541.0</ele><time>2026-04-18T08:51:50Z</time></trkpt><trkpt lat="43.49808415660211" lon="12.296720321460665"><ele>537.6666666666667</ele><time>2026-04-18T08:51:51Z</time></trkpt><trkpt lat="43.497877357301846" lon="12.296744856429763"><ele>534.3333333333334</ele><time>2026-04-18T08:51:52Z</time></trkpt><trkpt lat="43.49766262745121" lon="12.296756182268005"><ele>531.0</ele><time>2026-04-18T08:51:53Z</time></trkpt><trkpt lat="43.4974577986843" lon="12.29667288715648"><ele>531.0</ele><time>2026-04-18T08:51:54Z</time></trkpt><trkpt lat="43.49724575341057" lon="12.296594347937436"><ele>531.0</ele><time>2026-04-18T08:51:55Z</time></trkpt><trkpt lat="43.49705168709546" lon="12.296468396525826"><ele>531.0</ele><time>2026-04-18T08:51:56Z</time></trkpt><trkpt lat="43.49685348374952" lon="12.2963062987521"><ele>532.0</ele><time>2026-04-18T08:51:57Z</time></trkpt><trkpt lat="43.496660368505324" lon="12.29612367746795"><ele>533.0</ele><time>2026-04-18T08:51:58Z</time></trkpt><trkpt lat="43.49646960577378" lon="12.295943405903348"><ele>533.0</ele><time>2026-04-18T08:51:59Z</time></trkpt><trkpt lat="43.49629130583121" lon="12.295777884475063"><ele>533.0</ele><time>2026-04-18T08:52:00Z</time></trkpt><trkpt lat="43.496129100491956" lon="12.295638750396062"><ele>533.0</ele><time>2026-04-18T08:52:01Z</time></trkpt><trkpt lat="43.49600019587584" lon="12.295526390283728"><ele>530.25</ele><time>2026-04-18T08:52:02Z</time></trkpt><trkpt lat="43.495924689487296" lon="12.295404307511816"><ele>527.5</ele><time>2026-04-18T08:52:03Z</time></trkpt><trkpt lat="43.4959090510336" lon="12.29523165315486"><ele>524.75</ele><time>2026-04-18T08:52:04Z</time></trkpt><trkpt lat="43.49588782563947" lon="12.295084208557723"><ele>522.0</ele><time>2026-04-18T08:52:05Z</time></trkpt><trkpt lat="43.49621171597867" lon="12.294754922356711"><ele>525.0</ele><time>2026-04-18T08:52:07Z</time></trkpt><trkpt lat="43.496374801497865" lon="12.294662887394528"><ele>528.0</ele><time>2026-04-18T08:52:08Z</time></trkpt><trkpt lat="43.496505237301015" lon="12.294490994534991"><ele>531.0</ele><time>2026-04-18T08:52:09Z</time></trkpt><trkpt lat="43.496553678040684" lon="12.294239432596422"><ele>531.0</ele><time>2026-04-18T08:52:10Z</time></trkpt><trkpt lat="43.496473419554476" lon="12.293946585572202"><ele>531.0</ele><time>2026-04-18T08:52:11Z</time></trkpt><trkpt lat="43.496353412170606" lon="12.293697059416525"><ele>531.0</ele><time>2026-04-18T08:52:12Z</time></trkpt><trkpt lat="43.49618794506298" lon="12.293569472669171"><ele>526.3333333333334</ele><time>2026-04-18T08:52:13Z</time></trkpt><trkpt lat="43.49606446439089" lon="12.293376407851396"><ele>521.6666666666667</ele><time>2026-04-18T08:52:14Z</time></trkpt><trkpt lat="43.495871649861165" lon="12.293253659537573"><ele>517.0</ele><time>2026-04-18T08:52:15Z</time></trkpt><trkpt lat="43.49568223114651" lon="12.293147789121502"><ele>518.5</ele><time>2026-04-18T08:52:16Z</time></trkpt><trkpt lat="43.495451531773135" lon="12.29292272867994"><ele>520.0</ele><time>2026-04-18T08:52:17Z</time></trkpt><trkpt lat="43.49523435668193" lon="12.292811716346897"><ele>520.0</ele><time>2026-04-18T08:52:18Z</time></trkpt><trkpt lat="43.49502177598198" lon="12.292702211180922"><ele>520.0</ele><time>2026-04-18T08:52:19Z</time></trkpt><trkpt lat="43.49482665450784" lon="12.292582895697377"><ele>520.0</ele><time>2026-04-18T08:52:20Z</time></trkpt><trkpt lat="43.494649640420846" lon="12.292411799097323"><ele>519.0</ele><time>2026-04-18T08:52:21Z</time></trkpt><trkpt lat="43.49449310032316" lon="12.292217079810316"><ele>518.0</ele><time>2026-04-18T08:52:22Z</time></trkpt><trkpt lat="43.49434725805596" lon="12.292018255454485"><ele>517.0</ele><time>2026-04-18T08:52:23Z</time></trkpt><trkpt lat="43.49421076794659" lon="12.291822126320268"><ele>517.0</ele><time>2026-04-18T08:52:24Z</time></trkpt><trkpt lat="43.494102376864454" lon="12.291603660303648"><ele>517.0</ele><time>2026-04-18T08:52:25Z</time></trkpt><trkpt lat="43.49403732871394" lon="12.291344972527252"><ele>517.0</ele><time>2026-04-18T08:52:26Z</time></trkpt><trkpt lat="43.49400596802697" lon="12.291075281730148"><ele>516.3333333333334</ele><time>2026-04-18T08:52:27Z</time></trkpt><trkpt lat="43.49392901808725" lon="12.29082935076163"><ele>515.6666666666666</ele><time>2026-04-18T08:52:28Z</time></trkpt><trkpt lat="43.4937897214968" lon="12.290638912088143"><ele>515.0</ele><time>2026-04-18T08:52:29Z</time></trkpt><trkpt lat="43.49362923346216" lon="12.290488041320252"><ele>515.0</ele><time>2026-04-18T08:52:30Z</time></trkpt><trkpt lat="43.49346526648243" lon="12.290337850981068"><ele>515.0</ele><time>2026-04-18T08:52:31Z</time></trkpt><trkpt lat="43.493335795932694" lon="12.290117108730767"><ele>515.0</ele><time>2026-04-18T08:52:32Z</time></trkpt><trkpt lat="43.49321757434835" lon="12.289872540577528"><ele>516.6666666666666</ele><time>2026-04-18T08:52:33.001Z</time></trkpt><trkpt lat="43.493095781731135" lon="12.289624146523577"><ele>518.3333333333334</ele><time>2026-04-18T08:52:34.001Z</time></trkpt><trkpt lat="43.492971109577226" lon="12.28936905230773"><ele>520.0</ele><time>2026-04-18T08:52:35.001Z</time></trkpt><trkpt lat="43.492839818113644" lon="12.289133278555667"><ele>518.6666666666667</ele><time>2026-04-18T08:52:36.001Z</time></trkpt><trkpt lat="43.49270045098555" lon="12.288898010914608"><ele>517.3333333333334</ele><time>2026-04-18T08:52:37.001Z</time></trkpt><trkpt lat="43.49254296457331" lon="12.288680196021232"><ele>516.0</ele><time>2026-04-18T08:52:38.001Z</time></trkpt><trkpt lat="43.49235949487931" lon="12.288495598209568"><ele>516.0</ele><time>2026-04-18T08:52:39.001Z</time></trkpt><trkpt lat="43.492163122271656" lon="12.288336238633509"><ele>516.0</ele><time>2026-04-18T08:52:40.001Z</time></trkpt><trkpt lat="43.491968366735044" lon="12.288180466756502"><ele>516.5</ele><time>2026-04-18T08:52:41.001Z</time></trkpt><trkpt lat="43.491769603871255" lon="12.288009073283492"><ele>517.0</ele><time>2026-04-18T08:52:42.001Z</time></trkpt><trkpt lat="43.49156859758995" lon="12.287835892290689"><ele>517.0</ele><time>2026-04-18T08:52:43.001Z</time></trkpt><trkpt lat="43.491372728419336" lon="12.287669386387199"><ele>517.0</ele><time>2026-04-18T08:52:44.001Z</time></trkpt><trkpt lat="43.491169296320244" lon="12.287497472006104"><ele>515.5</ele><time>2026-04-18T08:52:45.001Z</time></trkpt><trkpt lat="43.490965245261734" lon="12.287322260490065"><ele>514.0</ele><time>2026-04-18T08:52:46.001Z</time></trkpt><trkpt lat="43.490765671968894" lon="12.287160867299233"><ele>514.0</ele><time>2026-04-18T08:52:47.001Z</time></trkpt><trkpt lat="43.49056860300703" lon="12.287005412760092"><ele>514.0</ele><time>2026-04-18T08:52:48.001Z</time></trkpt><trkpt lat="43.49039370337152" lon="12.286860374894584"><ele>514.0</ele><time>2026-04-18T08:52:49.001Z</time></trkpt><trkpt lat="43.49025229090981" lon="12.286719067372616"><ele>510.0</ele><time>2026-04-18T08:52:50Z</time></trkpt><trkpt lat="43.49014539187802" lon="12.286534928600235"><ele>506.0</ele><time>2026-04-18T08:52:51Z</time></trkpt><trkpt lat="43.490098362793645" lon="12.286273810118498"><ele>502.0</ele><time>2026-04-18T08:52:52Z</time></trkpt><trkpt lat="43.490065711489734" lon="12.285986358099986"><ele>502.0</ele><time>2026-04-18T08:52:53Z</time></trkpt><trkpt lat="43.49007852286126" lon="12.285697516215729"><ele>502.0</ele><time>2026-04-18T08:52:54Z</time></trkpt><trkpt lat="43.4900959219696" lon="12.285435228925442"><ele>502.0</ele><time>2026-04-18T08:52:55Z</time></trkpt><trkpt lat="43.49006058225148" lon="12.285192478194336"><ele>503.6666666666667</ele><time>2026-04-18T08:52:56Z</time></trkpt><trkpt lat="43.4899407157448" lon="12.28498530617646"><ele>505.33333333333337</ele><time>2026-04-18T08:52:57Z</time></trkpt><trkpt lat="43.489744234157655" lon="12.284860260374675"><ele>507.0</ele><time>2026-04-18T08:52:58Z</time></trkpt><trkpt lat="43.48952942400047" lon="12.284744877944767"><ele>510.0</ele><time>2026-04-18T08:52:59Z</time></trkpt><trkpt lat="43.48932463488428" lon="12.284613584386518"><ele>513.0</ele><time>2026-04-18T08:53:00Z</time></trkpt><trkpt lat="43.48912126002609" lon="12.284468821403696"><ele>513.0</ele><time>2026-04-18T08:53:01Z</time></trkpt><trkpt lat="43.488920741452326" lon="12.284341345455694"><ele>513.0</ele><time>2026-04-18T08:53:02Z</time></trkpt><trkpt lat="43.4887234485735" lon="12.2842993439308"><ele>513.0</ele><time>2026-04-18T08:53:03Z</time></trkpt><trkpt lat="43.4885239283197" lon="12.284352466199422"><ele>510.0</ele><time>2026-04-18T08:53:04Z</time></trkpt><trkpt lat="43.4883301510082" lon="12.284401250666797"><ele>507.0</ele><time>2026-04-18T08:53:05Z</time></trkpt><trkpt lat="43.488141965573384" lon="12.284336143591647"><ele>504.0</ele><time>2026-04-18T08:53:06Z</time></trkpt><trkpt lat="43.48795268522129" lon="12.284233485927857"><ele>504.0</ele><time>2026-04-18T08:53:07Z</time></trkpt><trkpt lat="43.48777860934777" lon="12.284077852346192"><ele>504.0</ele><time>2026-04-18T08:53:08Z</time></trkpt><trkpt lat="43.48760414544626" lon="12.283891895185214"><ele>504.0</ele><time>2026-04-18T08:53:09Z</time></trkpt><trkpt lat="43.48744069478977" lon="12.28368910270961"><ele>504.0</ele><time>2026-04-18T08:53:10Z</time></trkpt><trkpt lat="43.4872419698988" lon="12.283530930808434"><ele>504.0</ele><time>2026-04-18T08:53:11Z</time></trkpt><trkpt lat="43.487028265050554" lon="12.28340495989327"><ele>495.0</ele><time>2026-04-18T08:53:12Z</time></trkpt><trkpt lat="43.4868106277355" lon="12.283279278334016"><ele>486.0</ele><time>2026-04-18T08:53:13Z</time></trkpt><trkpt lat="43.486606045140725" lon="12.28314391991161"><ele>488.33333333333337</ele><time>2026-04-18T08:53:14Z</time></trkpt><trkpt lat="43.48640924694693" lon="12.283011660733798"><ele>490.6666666666667</ele><time>2026-04-18T08:53:15Z</time></trkpt><trkpt lat="43.48623113647082" lon="12.282894737488805"><ele>493.0</ele><time>2026-04-18T08:53:16Z</time></trkpt><trkpt lat="43.4860708588957" lon="12.282795382130393"><ele>493.33333333333337</ele><time>2026-04-18T08:53:17Z</time></trkpt><trkpt lat="43.48593093898002" lon="12.282705750975179"><ele>493.66666666666663</ele><time>2026-04-18T08:53:18Z</time></trkpt><trkpt lat="43.48579776304682" lon="12.282619521777132"><ele>494.0</ele><time>2026-04-18T08:53:19Z</time></trkpt><trkpt lat="43.48563208395527" lon="12.282521842537294"><ele>494.0</ele><time>2026-04-18T08:53:20Z</time></trkpt><trkpt lat="43.48544472455927" lon="12.28236414318715"><ele>494.0</ele><time>2026-04-18T08:53:21Z</time></trkpt><trkpt lat="43.48523624923786" lon="12.282208567197003"><ele>493.0</ele><time>2026-04-18T08:53:22Z</time></trkpt><trkpt lat="43.48504771160216" lon="12.282067427345988"><ele>492.0</ele><time>2026-04-18T08:53:23Z</time></trkpt><trkpt lat="43.484907270565884" lon="12.28193244944668"><ele>491.0</ele><time>2026-04-18T08:53:24Z</time></trkpt><trkpt lat="43.48482562001551" lon="12.281816944395567"><ele>491.0</ele><time>2026-04-18T08:53:25Z</time></trkpt><trkpt lat="43.48479802520918" lon="12.281670720960427"><ele>491.0</ele><time>2026-04-18T08:53:26Z</time></trkpt><trkpt lat="43.48485775874538" lon="12.281495781080615"><ele>491.0</ele><time>2026-04-18T08:53:27Z</time></trkpt><trkpt lat="43.48493095551887" lon="12.281286540350711"><ele>491.0</ele><time>2026-04-18T08:53:28Z</time></trkpt><trkpt lat="43.48500998438594" lon="12.28105986643698"><ele>489.3333333333333</ele><time>2026-04-18T08:53:29Z</time></trkpt><trkpt lat="43.48500230030994" lon="12.28078809883744"><ele>487.66666666666663</ele><time>2026-04-18T08:53:30Z</time></trkpt><trkpt lat="43.48491531139082" lon="12.280521308962644"><ele>486.0</ele><time>2026-04-18T08:53:31Z</time></trkpt><trkpt lat="43.48479132483387" lon="12.280277290167746"><ele>485.0</ele><time>2026-04-18T08:53:32Z</time></trkpt><trkpt lat="43.48466683014722" lon="12.280025259598686"><ele>484.0</ele><time>2026-04-18T08:53:33Z</time></trkpt><trkpt lat="43.4845514978437" lon="12.279765959075876"><ele>483.0</ele><time>2026-04-18T08:53:34Z</time></trkpt><trkpt lat="43.48443422054394" lon="12.27948962328676"><ele>480.33333333333337</ele><time>2026-04-18T08:53:35Z</time></trkpt><trkpt lat="43.484318686969516" lon="12.279223045179682"><ele>477.6666666666667</ele><time>2026-04-18T08:53:36Z</time></trkpt><trkpt lat="43.48418696901332" lon="12.27898004211827"><ele>475.0</ele><time>2026-04-18T08:53:37Z</time></trkpt><trkpt lat="43.484016045849536" lon="12.278778190765522"><ele>473.0</ele><time>2026-04-18T08:53:38Z</time></trkpt><trkpt lat="43.48381838013316" lon="12.278615872323776"><ele>471.0</ele><time>2026-04-18T08:53:39Z</time></trkpt><trkpt lat="43.48361549262426" lon="12.27845596367309"><ele>471.0</ele><time>2026-04-18T08:53:40Z</time></trkpt><trkpt lat="43.483417166465216" lon="12.278285465691257"><ele>471.0</ele><time>2026-04-18T08:53:41Z</time></trkpt><trkpt lat="43.48322981897957" lon="12.2781032411106"><ele>470.66666666666663</ele><time>2026-04-18T08:53:42Z</time></trkpt><trkpt lat="43.48303862614663" lon="12.277926566164627"><ele>470.3333333333333</ele><time>2026-04-18T08:53:43Z</time></trkpt><trkpt lat="43.482851387392394" lon="12.27777050109085"><ele>470.0</ele><time>2026-04-18T08:53:44Z</time></trkpt><trkpt lat="43.48265285718977" lon="12.277648393758877"><ele>471.3333333333333</ele><time>2026-04-18T08:53:45Z</time></trkpt><trkpt lat="43.482451867333495" lon="12.2776247842974"><ele>472.66666666666663</ele><time>2026-04-18T08:53:46Z</time></trkpt><trkpt lat="43.48227013477778" lon="12.2775964508609"><ele>474.0</ele><time>2026-04-18T08:53:47Z</time></trkpt><trkpt lat="43.482131556750076" lon="12.277441196621242"><ele>469.33333333333337</ele><time>2026-04-18T08:53:48Z</time></trkpt><trkpt lat="43.48199190000619" lon="12.277249599451622"><ele>464.6666666666667</ele><time>2026-04-18T08:53:49Z</time></trkpt><trkpt lat="43.48188289842789" lon="12.277069385889215"><ele>460.0</ele><time>2026-04-18T08:53:50Z</time></trkpt><trkpt lat="43.48185009853647" lon="12.276876868588285"><ele>460.0</ele><time>2026-04-18T08:53:51Z</time></trkpt><trkpt lat="43.48188889461041" lon="12.276680747698656"><ele>460.0</ele><time>2026-04-18T08:53:52Z</time></trkpt><trkpt lat="43.48201779024631" lon="12.276574841590442"><ele>460.0</ele><time>2026-04-18T08:53:53Z</time></trkpt><trkpt lat="43.482154563582895" lon="12.276517853599199"><ele>460.0</ele><time>2026-04-18T08:53:54Z</time></trkpt><trkpt lat="43.48233830942918" lon="12.276504473867718"><ele>464.0</ele><time>2026-04-18T08:53:55Z</time></trkpt><trkpt lat="43.48256686710891" lon="12.276477183448254"><ele>468.0</ele><time>2026-04-18T08:53:56Z</time></trkpt><trkpt lat="43.482738899264184" lon="12.27648351211805"><ele>472.0</ele><time>2026-04-18T08:53:57Z</time></trkpt><trkpt lat="43.48291706579902" lon="12.276463992676604"><ele>470.33333333333337</ele><time>2026-04-18T08:53:58Z</time></trkpt><trkpt lat="43.48306289247787" lon="12.276389063583883"><ele>468.66666666666663</ele><time>2026-04-18T08:53:59Z</time></trkpt><trkpt lat="43.48317300817119" lon="12.27623792518963"><ele>467.0</ele><time>2026-04-18T08:54:00Z</time></trkpt><trkpt lat="43.48321315884741" lon="12.276037597152607"><ele>467.0</ele><time>2026-04-18T08:54:01Z</time></trkpt><trkpt lat="43.48319382862533" lon="12.275825652546954"><ele>467.0</ele><time>2026-04-18T08:54:02Z</time></trkpt><trkpt lat="43.48309765981258" lon="12.275606828872016"><ele>467.0</ele><time>2026-04-18T08:54:03Z</time></trkpt><trkpt lat="43.482962084964804" lon="12.275394666885985"><ele>467.3333333333333</ele><time>2026-04-18T08:54:04Z</time></trkpt><trkpt lat="43.482827461568526" lon="12.275172676200171"><ele>467.66666666666663</ele><time>2026-04-18T08:54:05Z</time></trkpt><trkpt lat="43.482687607413425" lon="12.27494489613571"><ele>468.0</ele><time>2026-04-18T08:54:06Z</time></trkpt><trkpt lat="43.48254407971603" lon="12.274737864359656"><ele>468.0</ele><time>2026-04-18T08:54:07Z</time></trkpt><trkpt lat="43.482366267668816" lon="12.274616607983054"><ele>468.0</ele><time>2026-04-18T08:54:08Z</time></trkpt><trkpt lat="43.48215688382379" lon="12.27457355730469"><ele>468.0</ele><time>2026-04-18T08:54:09Z</time></trkpt><trkpt lat="43.4819324711217" lon="12.2745338593993"><ele>466.0</ele><time>2026-04-18T08:54:10Z</time></trkpt><trkpt lat="43.48172005783326" lon="12.274460782954863"><ele>464.0</ele><time>2026-04-18T08:54:11Z</time></trkpt><trkpt lat="43.48150661865872" lon="12.274372911741228"><ele>462.0</ele><time>2026-04-18T08:54:12Z</time></trkpt><trkpt lat="43.48128869147717" lon="12.274301612972689"><ele>460.5</ele><time>2026-04-18T08:54:13Z</time></trkpt><trkpt lat="43.48106696993694" lon="12.274280204814444"><ele>459.0</ele><time>2026-04-18T08:54:14Z</time></trkpt><trkpt lat="43.48083872140751" lon="12.274309960568274"><ele>459.0</ele><time>2026-04-18T08:54:15Z</time></trkpt><trkpt lat="43.480630691625365" lon="12.274346401874213"><ele>459.0</ele><time>2026-04-18T08:54:16Z</time></trkpt><trkpt lat="43.48043338115834" lon="12.27430501039854"><ele>459.0</ele><time>2026-04-18T08:54:17Z</time></trkpt><trkpt lat="43.480241451895026" lon="12.274205417144188"><ele>459.0</ele><time>2026-04-18T08:54:18Z</time></trkpt><trkpt lat="43.48005163388884" lon="12.274069372609269"><ele>459.0</ele><time>2026-04-18T08:54:19Z</time></trkpt><trkpt lat="43.479860680329814" lon="12.273944927575238"><ele>459.0</ele><time>2026-04-18T08:54:20Z</time></trkpt><trkpt lat="43.479711677600896" lon="12.273809440806243"><ele>457.0</ele><time>2026-04-18T08:54:21Z</time></trkpt><trkpt lat="43.479591986875825" lon="12.273648585952142"><ele>455.0</ele><time>2026-04-18T08:54:22Z</time></trkpt><trkpt lat="43.47955420195842" lon="12.273451313424848"><ele>453.0</ele><time>2026-04-18T08:54:23Z</time></trkpt><trkpt lat="43.47957223442306" lon="12.273265356383732"><ele>454.5</ele><time>2026-04-18T08:54:24Z</time></trkpt><trkpt lat="43.47964768025691" lon="12.273113119151375"><ele>456.0</ele><time>2026-04-18T08:54:25Z</time></trkpt><trkpt lat="43.47977413178314" lon="12.273002583616439"><ele>457.5</ele><time>2026-04-18T08:54:26Z</time></trkpt><trkpt lat="43.47992824958882" lon="12.272971346242926"><ele>459.0</ele><time>2026-04-18T08:54:27Z</time></trkpt><trkpt lat="43.48006532693544" lon="12.273015664327279"><ele>459.0</ele><time>2026-04-18T08:54:28Z</time></trkpt><trkpt lat="43.480216338785134" lon="12.273113485380222"><ele>459.0</ele><time>2026-04-18T08:54:29Z</time></trkpt><trkpt lat="43.48038069514405" lon="12.273241487639407"><ele>459.0</ele><time>2026-04-18T08:54:30Z</time></trkpt><trkpt lat="43.48055379545261" lon="12.273335010292408"><ele>458.66666666666663</ele><time>2026-04-18T08:54:31Z</time></trkpt><trkpt lat="43.480734248121394" lon="12.273350330190521"><ele>458.3333333333333</ele><time>2026-04-18T08:54:32Z</time></trkpt><trkpt lat="43.48088779700875" lon="12.273269173245817"><ele>458.0</ele><time>2026-04-18T08:54:33Z</time></trkpt><trkpt lat="43.48098444538693" lon="12.273103961087248"><ele>455.0</ele><time>2026-04-18T08:54:34Z</time></trkpt><trkpt lat="43.48101279671407" lon="12.27289918959886"><ele>452.0</ele><time>2026-04-18T08:54:35Z</time></trkpt><trkpt lat="43.48098010704125" lon="12.272656023453614"><ele>449.0</ele><time>2026-04-18T08:54:36Z</time></trkpt><trkpt lat="43.48092252585808" lon="12.272413838362233"><ele>448.3333333333333</ele><time>2026-04-18T08:54:37Z</time></trkpt><trkpt lat="43.48086447418223" lon="12.272174659372617"><ele>447.66666666666663</ele><time>2026-04-18T08:54:38Z</time></trkpt><trkpt lat="43.48080153632613" lon="12.271924091122512"><ele>447.0</ele><time>2026-04-18T08:54:39.001Z</time></trkpt><trkpt lat="43.48072476212446" lon="12.27167308203394"><ele>449.0</ele><time>2026-04-18T08:54:40.001Z</time></trkpt><trkpt lat="43.48063808357028" lon="12.271420633845901"><ele>451.0</ele><time>2026-04-18T08:54:41.001Z</time></trkpt><trkpt lat="43.48054658021631" lon="12.2711726634766"><ele>453.0</ele><time>2026-04-18T08:54:42.001Z</time></trkpt><trkpt lat="43.480449306089646" lon="12.270921663906229"><ele>448.33333333333337</ele><time>2026-04-18T08:54:43.001Z</time></trkpt><trkpt lat="43.480346516684506" lon="12.270683825665621"><ele>443.6666666666667</ele><time>2026-04-18T08:54:44.001Z</time></trkpt><trkpt lat="43.48022137353988" lon="12.270464167718558"><ele>439.0</ele><time>2026-04-18T08:54:45.001Z</time></trkpt><trkpt lat="43.48007042950254" lon="12.270269834133925"><ele>439.0</ele><time>2026-04-18T08:54:46.001Z</time></trkpt><trkpt lat="43.47990768692869" lon="12.270091381538236"><ele>439.0</ele><time>2026-04-18T08:54:47.001Z</time></trkpt><trkpt lat="43.47974418740564" lon="12.269903465639878"><ele>439.0</ele><time>2026-04-18T08:54:48.001Z</time></trkpt><trkpt lat="43.479581422954105" lon="12.26970013479358"><ele>434.0</ele><time>2026-04-18T08:54:49.001Z</time></trkpt><trkpt lat="43.47941124866161" lon="12.269492130091907"><ele>429.0</ele><time>2026-04-18T08:54:50.001Z</time></trkpt><trkpt lat="43.47922714313486" lon="12.269305783558604"><ele>429.0</ele><time>2026-04-18T08:54:51.001Z</time></trkpt><trkpt lat="43.47903010849861" lon="12.269149096883002"><ele>429.0</ele><time>2026-04-18T08:54:52.001Z</time></trkpt><trkpt lat="43.47886959256834" lon="12.269002811428248"><ele>429.0</ele><time>2026-04-18T08:54:53.001Z</time></trkpt><trkpt lat="43.47868472566257" lon="12.26884328203524"><ele>428.0</ele><time>2026-04-18T08:54:54.001Z</time></trkpt><trkpt lat="43.4785079093597" lon="12.268677134430492"><ele>427.0</ele><time>2026-04-18T08:54:55.001Z</time></trkpt><trkpt lat="43.47835687944829" lon="12.268472531379572"><ele>426.0</ele><time>2026-04-18T08:54:56.001Z</time></trkpt><trkpt lat="43.478206092236945" lon="12.268264355576356"><ele>427.33333333333337</ele><time>2026-04-18T08:54:57.001Z</time></trkpt><trkpt lat="43.47804651292101" lon="12.26807100940869"><ele>428.6666666666667</ele><time>2026-04-18T08:54:58.001Z</time></trkpt><trkpt lat="43.47789965399922" lon="12.267854098567046"><ele>430.0</ele><time>2026-04-18T08:54:59.001Z</time></trkpt><trkpt lat="43.4777487357153" lon="12.267643859716962"><ele>428.0</ele><time>2026-04-18T08:55:00.001Z</time></trkpt><trkpt lat="43.47760025183318" lon="12.267441199785965"><ele>426.0</ele><time>2026-04-18T08:55:01.001Z</time></trkpt><trkpt lat="43.47745415278873" lon="12.267252819161316"><ele>424.0</ele><time>2026-04-18T08:55:02.001Z</time></trkpt><trkpt lat="43.477328101973306" lon="12.267060356869804"><ele>424.0</ele><time>2026-04-18T08:55:03.001Z</time></trkpt><trkpt lat="43.47723043056529" lon="12.266815749039134"><ele>424.0</ele><time>2026-04-18T08:55:04.001Z</time></trkpt><trkpt lat="43.47714756479623" lon="12.266561932095943"><ele>424.0</ele><time>2026-04-18T08:55:05Z</time></trkpt><trkpt lat="43.477081024881805" lon="12.266290600419968"><ele>416.33333333333337</ele><time>2026-04-18T08:55:06Z</time></trkpt><trkpt lat="43.47701405877148" lon="12.266021273947437"><ele>408.66666666666663</ele><time>2026-04-18T08:55:07Z</time></trkpt><trkpt lat="43.47697371545667" lon="12.265753451400316"><ele>401.0</ele><time>2026-04-18T08:55:08Z</time></trkpt><trkpt lat="43.476939460925465" lon="12.265498964712673"><ele>401.0</ele><time>2026-04-18T08:55:09Z</time></trkpt><trkpt lat="43.4769251133275" lon="12.265270979636487"><ele>401.0</ele><time>2026-04-18T08:55:10Z</time></trkpt><trkpt lat="43.476964859478564" lon="12.265052217049494"><ele>401.0</ele><time>2026-04-18T08:55:11Z</time></trkpt><trkpt lat="43.47704715473061" lon="12.264875222850332"><ele>398.5</ele><time>2026-04-18T08:55:12Z</time></trkpt><trkpt lat="43.47715684452345" lon="12.264763940057257"><ele>396.0</ele><time>2026-04-18T08:55:13Z</time></trkpt><trkpt lat="43.477283542559825" lon="12.264741960849522"><ele>393.5</ele><time>2026-04-18T08:55:14Z</time></trkpt><trkpt lat="43.47743481173771" lon="12.264778803193975"><ele>391.0</ele><time>2026-04-18T08:55:15Z</time></trkpt><trkpt lat="43.477604336284074" lon="12.264807953041638"><ele>396.33333333333337</ele><time>2026-04-18T08:55:16Z</time></trkpt><trkpt lat="43.47776657073751" lon="12.264844031679617"><ele>401.66666666666663</ele><time>2026-04-18T08:55:17Z</time></trkpt><trkpt lat="43.47793650332859" lon="12.264890044548439"><ele>407.0</ele><time>2026-04-18T08:55:18Z</time></trkpt><trkpt lat="43.47811271808419" lon="12.264977097579695"><ele>407.0</ele><time>2026-04-18T08:55:19Z</time></trkpt><trkpt lat="43.47829406053022" lon="12.265030099467365"><ele>407.0</ele><time>2026-04-18T08:55:20Z</time></trkpt><trkpt lat="43.47846949934576" lon="12.265101717852513"><ele>407.0</ele><time>2026-04-18T08:55:21Z</time></trkpt><trkpt lat="43.478638351464035" lon="12.265175296335682"><ele>403.25</ele><time>2026-04-18T08:55:22Z</time></trkpt><trkpt lat="43.47878630854385" lon="12.26523673346699"><ele>399.5</ele><time>2026-04-18T08:55:23Z</time></trkpt><trkpt lat="43.47890533627608" lon="12.265272817461584"><ele>395.75</ele><time>2026-04-18T08:55:24Z</time></trkpt><trkpt lat="43.478988735756836" lon="12.265244283531441"><ele>392.0</ele><time>2026-04-18T08:55:25Z</time></trkpt><trkpt lat="43.479051196510646" lon="12.265137648476992"><ele>392.0</ele><time>2026-04-18T08:55:26Z</time></trkpt><trkpt lat="43.479055470209545" lon="12.264985535199711"><ele>392.0</ele><time>2026-04-18T08:55:27Z</time></trkpt><trkpt lat="43.47899046130137" lon="12.264833345012367"><ele>392.0</ele><time>2026-04-18T08:55:28Z</time></trkpt><trkpt lat="43.47885898175173" lon="12.264721374234414"><ele>392.0</ele><time>2026-04-18T08:55:29Z</time></trkpt><trkpt lat="43.47869684782073" lon="12.264647878977307"><ele>391.0</ele><time>2026-04-18T08:55:30Z</time></trkpt><trkpt lat="43.47852476831648" lon="12.264571360389706"><ele>390.0</ele><time>2026-04-18T08:55:31Z</time></trkpt><trkpt lat="43.47834627147726" lon="12.264476845559775"><ele>389.0</ele><time>2026-04-18T08:55:32Z</time></trkpt><trkpt lat="43.478162744126976" lon="12.264388063988935"><ele>389.0</ele><time>2026-04-18T08:55:33Z</time></trkpt><trkpt lat="43.477973582187786" lon="12.264321396953516"><ele>389.0</ele><time>2026-04-18T08:55:34Z</time></trkpt><trkpt lat="43.477776049648774" lon="12.26427516081304"><ele>389.0</ele><time>2026-04-18T08:55:35Z</time></trkpt><trkpt lat="43.47757721654014" lon="12.264229411991403"><ele>389.0</ele><time>2026-04-18T08:55:36Z</time></trkpt><trkpt lat="43.477381062387884" lon="12.264184049197048"><ele>389.0</ele><time>2026-04-18T08:55:37Z</time></trkpt><trkpt lat="43.47718141629118" lon="12.264132658475122"><ele>389.0</ele><time>2026-04-18T08:55:38Z</time></trkpt><trkpt lat="43.47698579327697" lon="12.264091404053637"><ele>389.0</ele><time>2026-04-18T08:55:39Z</time></trkpt><trkpt lat="43.47678686975396" lon="12.264065029497107"><ele>389.0</ele><time>2026-04-18T08:55:40Z</time></trkpt><trkpt lat="43.476590190841016" lon="12.264067945327497"><ele>389.0</ele><time>2026-04-18T08:55:41Z</time></trkpt><trkpt lat="43.47639584500943" lon="12.26409475130014"><ele>383.3333333333333</ele><time>2026-04-18T08:55:42Z</time></trkpt><trkpt lat="43.47621620804104" lon="12.264136140332967"><ele>377.66666666666663</ele><time>2026-04-18T08:55:43Z</time></trkpt><trkpt lat="43.4760508853587" lon="12.264211278985897"><ele>372.0</ele><time>2026-04-18T08:55:44Z</time></trkpt><trkpt lat="43.47593138606447" lon="12.264384455362945"><ele>372.0</ele><time>2026-04-18T08:55:45Z</time></trkpt><trkpt lat="43.47586992855297" lon="12.264634178001504"><ele>372.0</ele><time>2026-04-18T08:55:46Z</time></trkpt><trkpt lat="43.47588886769139" lon="12.264903824458601"><ele>372.0</ele><time>2026-04-18T08:55:47Z</time></trkpt><trkpt lat="43.475964955084734" lon="12.26516279895493"><ele>372.0</ele><time>2026-04-18T08:55:48Z</time></trkpt><trkpt lat="43.47605044466127" lon="12.26541072130842"><ele>372.0</ele><time>2026-04-18T08:55:49Z</time></trkpt><trkpt lat="43.47607215265462" lon="12.26567860780717"><ele>372.0</ele><time>2026-04-18T08:55:50Z</time></trkpt><trkpt lat="43.476081232839476" lon="12.26595255946958"><ele>372.0</ele><time>2026-04-18T08:55:51Z</time></trkpt><trkpt lat="43.47605944406677" lon="12.266216711365054"><ele>372.0</ele><time>2026-04-18T08:55:52Z</time></trkpt><trkpt lat="43.47601079740071" lon="12.266476465651698"><ele>372.0</ele><time>2026-04-18T08:55:53Z</time></trkpt><trkpt lat="43.47594119003481" lon="12.266721164916044"><ele>374.0</ele><time>2026-04-18T08:55:54Z</time></trkpt><trkpt lat="43.475876153825595" lon="12.266977268506027"><ele>376.0</ele><time>2026-04-18T08:55:55Z</time></trkpt><trkpt lat="43.47578720122218" lon="12.267217159098406"><ele>378.0</ele><time>2026-04-18T08:55:56Z</time></trkpt><trkpt lat="43.47569796395239" lon="12.267439965976562"><ele>379.3333333333333</ele><time>2026-04-18T08:55:57Z</time></trkpt><trkpt lat="43.475608124259864" lon="12.267646539342387"><ele>380.66666666666663</ele><time>2026-04-18T08:55:58Z</time></trkpt><trkpt lat="43.475542361966056" lon="12.267868343972827"><ele>382.0</ele><time>2026-04-18T08:55:59Z</time></trkpt><trkpt lat="43.475547561988286" lon="12.26811112379481"><ele>382.0</ele><time>2026-04-18T08:56:00Z</time></trkpt><trkpt lat="43.47561368355381" lon="12.268360141699894"><ele>382.0</ele><time>2026-04-18T08:56:01Z</time></trkpt><trkpt lat="43.47569365402491" lon="12.268598951414486"><ele>382.0</ele><time>2026-04-18T08:56:02Z</time></trkpt><trkpt lat="43.47579164142892" lon="12.26881941096752"><ele>380.66666666666663</ele><time>2026-04-18T08:56:03Z</time></trkpt><trkpt lat="43.475930037163124" lon="12.268988083175213"><ele>379.3333333333333</ele><time>2026-04-18T08:56:04Z</time></trkpt><trkpt lat="43.47612204882068" lon="12.269086057532453"><ele>378.0</ele><time>2026-04-18T08:56:05Z</time></trkpt><trkpt lat="43.47631683702129" lon="12.26912358868992"><ele>378.0</ele><time>2026-04-18T08:56:06Z</time></trkpt><trkpt lat="43.476496574073515" lon="12.269111265431548"><ele>378.0</ele><time>2026-04-18T08:56:07Z</time></trkpt><trkpt lat="43.476637054624376" lon="12.26917306935892"><ele>378.0</ele><time>2026-04-18T08:56:08Z</time></trkpt><trkpt lat="43.47672886901789" lon="12.26924658337746"><ele>378.0</ele><time>2026-04-18T08:56:09Z</time></trkpt><trkpt lat="43.476762205559666" lon="12.269363383383931"><ele>378.0</ele><time>2026-04-18T08:56:10Z</time></trkpt><trkpt lat="43.476709790546415" lon="12.269518280324094"><ele>378.0</ele><time>2026-04-18T08:56:11Z</time></trkpt><trkpt lat="43.47657881415747" lon="12.26958647554292"><ele>378.0</ele><time>2026-04-18T08:56:12Z</time></trkpt><trkpt lat="43.47640765284492" lon="12.269553815227706"><ele>378.0</ele><time>2026-04-18T08:56:13Z</time></trkpt><trkpt lat="43.47624290464329" lon="12.269513930322594"><ele>376.6666666666667</ele><time>2026-04-18T08:56:14Z</time></trkpt><trkpt lat="43.4760582754825" lon="12.269471893673924"><ele>375.33333333333337</ele><time>2026-04-18T08:56:15Z</time></trkpt><trkpt lat="43.47587488115616" lon="12.269413665553843"><ele>374.0</ele><time>2026-04-18T08:56:16Z</time></trkpt><trkpt lat="43.47571486118066" lon="12.269287331023527"><ele>374.0</ele><time>2026-04-18T08:56:17Z</time></trkpt><trkpt lat="43.475584335799965" lon="12.269098622582268"><ele>374.0</ele><time>2026-04-18T08:56:18Z</time></trkpt><trkpt lat="43.47547813373495" lon="12.268870578139506"><ele>374.0</ele><time>2026-04-18T08:56:19Z</time></trkpt><trkpt lat="43.475377239019046" lon="12.268626773374343"><ele>368.33333333333337</ele><time>2026-04-18T08:56:20Z</time></trkpt><trkpt lat="43.475281585239074" lon="12.268376949879274"><ele>362.6666666666667</ele><time>2026-04-18T08:56:21Z</time></trkpt><trkpt lat="43.475192822732026" lon="12.268128692456141"><ele>357.0</ele><time>2026-04-18T08:56:22Z</time></trkpt><trkpt lat="43.47511499472641" lon="12.267875668420182"><ele>356.6666666666667</ele><time>2026-04-18T08:56:23Z</time></trkpt><trkpt lat="43.475062759865224" lon="12.26762621344863"><ele>356.33333333333337</ele><time>2026-04-18T08:56:24Z</time></trkpt><trkpt lat="43.4750432057051" lon="12.267367865673254"><ele>356.0</ele><time>2026-04-18T08:56:25Z</time></trkpt><trkpt lat="43.47506303389638" lon="12.26710518691873"><ele>356.0</ele><time>2026-04-18T08:56:26Z</time></trkpt><trkpt lat="43.47510798353905" lon="12.266841820360584"><ele>356.0</ele><time>2026-04-18T08:56:27Z</time></trkpt><trkpt lat="43.475130572216784" lon="12.266566756391908"><ele>356.0</ele><time>2026-04-18T08:56:28Z</time></trkpt><trkpt lat="43.47510863019052" lon="12.266289883277109"><ele>355.6666666666667</ele><time>2026-04-18T08:56:29Z</time></trkpt><trkpt lat="43.47504211194711" lon="12.266015386025437"><ele>355.3333333333333</ele><time>2026-04-18T08:56:30Z</time></trkpt><trkpt lat="43.47493323368885" lon="12.26576997362017"><ele>355.0</ele><time>2026-04-18T08:56:31Z</time></trkpt><trkpt lat="43.47480526406053" lon="12.26554568136226"><ele>355.0</ele><time>2026-04-18T08:56:32Z</time></trkpt><trkpt lat="43.47470306077815" lon="12.265303974319846"><ele>355.0</ele><time>2026-04-18T08:56:33Z</time></trkpt><trkpt lat="43.474633432521635" lon="12.265033879843342"><ele>355.0</ele><time>2026-04-18T08:56:34Z</time></trkpt><trkpt lat="43.474592146565605" lon="12.26478644068648"><ele>354.3333333333333</ele><time>2026-04-18T08:56:35Z</time></trkpt><trkpt lat="43.47457132117282" lon="12.26451599079107"><ele>353.6666666666667</ele><time>2026-04-18T08:56:36Z</time></trkpt><trkpt lat="43.474572682646055" lon="12.264237721908243"><ele>353.0</ele><time>2026-04-18T08:56:37Z</time></trkpt><trkpt lat="43.4746084798489" lon="12.263969458679387"><ele>350.33333333333337</ele><time>2026-04-18T08:56:38Z</time></trkpt><trkpt lat="43.47468823356183" lon="12.263723039948497"><ele>347.6666666666667</ele><time>2026-04-18T08:56:39Z</time></trkpt><trkpt lat="43.474782748531574" lon="12.26350079437094"><ele>345.0</ele><time>2026-04-18T08:56:40Z</time></trkpt><trkpt lat="43.47482832578621" lon="12.263271458980146"><ele>341.3333333333333</ele><time>2026-04-18T08:56:41Z</time></trkpt><trkpt lat="43.474785845752486" lon="12.263044368849858"><ele>337.66666666666663</ele><time>2026-04-18T08:56:42Z</time></trkpt><trkpt lat="43.47467147337311" lon="12.262832512133645"><ele>334.0</ele><time>2026-04-18T08:56:43Z</time></trkpt><trkpt lat="43.47452081952168" lon="12.262629316714152"><ele>333.66666666666663</ele><time>2026-04-18T08:56:44.001Z</time></trkpt><trkpt lat="43.47436952116885" lon="12.262434937293007"><ele>333.3333333333333</ele><time>2026-04-18T08:56:45.001Z</time></trkpt><trkpt lat="43.474215661009154" lon="12.262233283236457"><ele>333.0</ele><time>2026-04-18T08:56:46.001Z</time></trkpt><trkpt lat="43.47407235747438" lon="12.262040535300507"><ele>331.6666666666667</ele><time>2026-04-18T08:56:47.001Z</time></trkpt><trkpt lat="43.473929600792495" lon="12.26184851123058"><ele>330.33333333333337</ele><time>2026-04-18T08:56:48.001Z</time></trkpt><trkpt lat="43.47379364923538" lon="12.261663702475536"><ele>329.0</ele><time>2026-04-18T08:56:49.001Z</time></trkpt><trkpt lat="43.473662898023306" lon="12.26148122140544"><ele>327.0</ele><time>2026-04-18T08:56:50.001Z</time></trkpt><trkpt lat="43.473533382501365" lon="12.26129940401801"><ele>325.0</ele><time>2026-04-18T08:56:51.001Z</time></trkpt><trkpt lat="43.47340019959609" lon="12.261117013163298"><ele>323.0</ele><time>2026-04-18T08:56:52.001Z</time></trkpt><trkpt lat="43.4732656432462" lon="12.260937586745547"><ele>323.0</ele><time>2026-04-18T08:56:53.001Z</time></trkpt><trkpt lat="43.473139019778195" lon="12.2607680575135"><ele>323.0</ele><time>2026-04-18T08:56:54.001Z</time></trkpt><trkpt lat="43.47300877237057" lon="12.260590195131353"><ele>323.0</ele><time>2026-04-18T08:56:55.001Z</time></trkpt><trkpt lat="43.472881873895965" lon="12.26041356966396"><ele>322.0</ele><time>2026-04-18T08:56:56.001Z</time></trkpt><trkpt lat="43.47275496384495" lon="12.260243452503294"><ele>321.0</ele><time>2026-04-18T08:56:57.001Z</time></trkpt><trkpt lat="43.472628930782555" lon="12.260070123989232"><ele>320.0</ele><time>2026-04-18T08:56:58.001Z</time></trkpt><trkpt lat="43.47251009333777" lon="12.259909232280036"><ele>320.33333333333337</ele><time>2026-04-18T08:56:59.001Z</time></trkpt><trkpt lat="43.47239352541492" lon="12.259753176856764"><ele>320.6666666666667</ele><time>2026-04-18T08:57:00.001Z</time></trkpt><trkpt lat="43.47228735710824" lon="12.259609226582821"><ele>321.0</ele><time>2026-04-18T08:57:01.001Z</time></trkpt><trkpt lat="43.4721777269" lon="12.25946180867082"><ele>319.0</ele><time>2026-04-18T08:57:02.001Z</time></trkpt><trkpt lat="43.47207175990885" lon="12.259303405895027"><ele>317.0</ele><time>2026-04-18T08:57:03.001Z</time></trkpt><trkpt lat="43.471970767141705" lon="12.259130670448892"><ele>315.0</ele><time>2026-04-18T08:57:04.001Z</time></trkpt><trkpt lat="43.47187540622187" lon="12.258935212765444"><ele>314.0</ele><time>2026-04-18T08:57:05.001Z</time></trkpt><trkpt lat="43.47178631111075" lon="12.258732602916188"><ele>313.0</ele><time>2026-04-18T08:57:06.001Z</time></trkpt><trkpt lat="43.47171086090165" lon="12.258523902231314"><ele>312.0</ele><time>2026-04-18T08:57:07.001Z</time></trkpt><trkpt lat="43.47164522343448" lon="12.258301231380594"><ele>311.0</ele><time>2026-04-18T08:57:08Z</time></trkpt><trkpt lat="43.47159460570294" lon="12.258076701986678"><ele>310.0</ele><time>2026-04-18T08:57:09Z</time></trkpt><trkpt lat="43.47154921894938" lon="12.25783657854684"><ele>309.0</ele><time>2026-04-18T08:57:10Z</time></trkpt><trkpt lat="43.4715112299287" lon="12.257605198628902"><ele>309.0</ele><time>2026-04-18T08:57:11Z</time></trkpt><trkpt lat="43.47147137182526" lon="12.257364451846412"><ele>309.0</ele><time>2026-04-18T08:57:12Z</time></trkpt><trkpt lat="43.471429715496" lon="12.257121420761552"><ele>309.0</ele><time>2026-04-18T08:57:13Z</time></trkpt><trkpt lat="43.47138883087356" lon="12.25690133872845"><ele>308.6666666666667</ele><time>2026-04-18T08:57:14Z</time></trkpt><trkpt lat="43.47135112069869" lon="12.256680218209478"><ele>308.33333333333337</ele><time>2026-04-18T08:57:15Z</time></trkpt><trkpt lat="43.471315662027614" lon="12.256468655453094"><ele>308.0</ele><time>2026-04-18T08:57:16Z</time></trkpt><trkpt lat="43.47127909131232" lon="12.25627022396101"><ele>307.75</ele><time>2026-04-18T08:57:17Z</time></trkpt><trkpt lat="43.4712433816713" lon="12.256071348715043"><ele>307.5</ele><time>2026-04-18T08:57:17.999Z</time></trkpt><trkpt lat="43.47121697030887" lon="12.255898235850403"><ele>307.25</ele><time>2026-04-18T08:57:18.999Z</time></trkpt><trkpt lat="43.471216516452444" lon="12.255751853153964"><ele>307.0</ele><time>2026-04-18T08:57:19.999Z</time></trkpt><trkpt lat="43.47124353617313" lon="12.255608916646178"><ele>306.6</ele><time>2026-04-18T08:57:20.999Z</time></trkpt><trkpt lat="43.47126073255467" lon="12.255472718343539"><ele>306.2</ele><time>2026-04-18T08:57:21.999Z</time></trkpt><trkpt lat="43.471220057766736" lon="12.255331637570043"><ele>305.8</ele><time>2026-04-18T08:57:22.999Z</time></trkpt><trkpt lat="43.471141044875495" lon="12.255229836127917"><ele>305.4</ele><time>2026-04-18T08:57:23.999Z</time></trkpt><trkpt lat="43.47102819311937" lon="12.255189601577515"><ele>305.0</ele><time>2026-04-18T08:57:24.999Z</time></trkpt><trkpt lat="43.47099513054335" lon="12.25495526691219"><ele>304.25</ele><time>2026-04-18T08:57:25.999Z</time></trkpt><trkpt lat="43.47096860650573" lon="12.254770712608106"><ele>303.5</ele><time>2026-04-18T08:57:26.999Z</time></trkpt><trkpt lat="43.47093698742239" lon="12.254574013602278"><ele>302.75</ele><time>2026-04-18T08:57:27.999Z</time></trkpt><trkpt lat="43.4708978650578" lon="12.254367106138346"><ele>302.0</ele><time>2026-04-18T08:57:28.999Z</time></trkpt><trkpt lat="43.47085641603686" lon="12.25414627903333"><ele>301.6666666666667</ele><time>2026-04-18T08:57:29.999Z</time></trkpt><trkpt lat="43.470815924031406" lon="12.253929164303283"><ele>301.3333333333333</ele><time>2026-04-18T08:57:30.999Z</time></trkpt><trkpt lat="43.470778656762214" lon="12.253726945477522"><ele>301.0</ele><time>2026-04-18T08:57:31.999Z</time></trkpt><trkpt lat="43.47074644999587" lon="12.253540045904511"><ele>301.0</ele><time>2026-04-18T08:57:32.999Z</time></trkpt><trkpt lat="43.470718066841016" lon="12.253360914898755"><ele>301.0</ele><time>2026-04-18T08:57:33.999Z</time></trkpt><trkpt lat="43.470703009939825" lon="12.253185235904922"><ele>301.0</ele><time>2026-04-18T08:57:34.999Z</time></trkpt><trkpt lat="43.4706978408956" lon="12.253013746145772"><ele>301.0</ele><time>2026-04-18T08:57:35.999Z</time></trkpt><trkpt lat="43.47069546740707" lon="12.252845587257907"><ele>300.40000000000003</ele><time>2026-04-18T08:57:36.999Z</time></trkpt><trkpt lat="43.47069233668108" lon="12.252684932312238"><ele>299.8</ele><time>2026-04-18T08:57:37.999Z</time></trkpt><trkpt lat="43.47069053204255" lon="12.252532183244703"><ele>299.20000000000005</ele><time>2026-04-18T08:57:38.999Z</time></trkpt><trkpt lat="43.47068891674758" lon="12.25238681354255"><ele>298.6</ele><time>2026-04-18T08:57:39.999Z</time></trkpt><trkpt lat="43.47068561773824" lon="12.252241643845585"><ele>298.0</ele><time>2026-04-18T08:57:40.999Z</time></trkpt><trkpt lat="43.47068325788241" lon="12.252103693702185"><ele>297.8</ele><time>2026-04-18T08:57:41.999Z</time></trkpt><trkpt lat="43.470680997363694" lon="12.251961539341833"><ele>297.6</ele><time>2026-04-18T08:57:42.999Z</time></trkpt><trkpt lat="43.4706780611486" lon="12.25182005873093"><ele>297.4</ele><time>2026-04-18T08:57:43.999Z</time></trkpt><trkpt lat="43.47067668019978" lon="12.25168020615783"><ele>297.2</ele><time>2026-04-18T08:57:44.999Z</time></trkpt><trkpt lat="43.47067331723763" lon="12.251548407357072"><ele>297.0</ele><time>2026-04-18T08:57:45.999Z</time></trkpt><trkpt lat="43.470666804947385" lon="12.251403473269473"><ele>296.8</ele><time>2026-04-18T08:57:46.999Z</time></trkpt><trkpt lat="43.470662186840656" lon="12.251270474637847"><ele>296.6</ele><time>2026-04-18T08:57:47.999Z</time></trkpt><trkpt lat="43.47065961001272" lon="12.251145340497084"><ele>296.40000000000003</ele><time>2026-04-18T08:57:48.999Z</time></trkpt><trkpt lat="43.4706591747471" lon="12.250996605226822"><ele>296.2</ele><time>2026-04-18T08:57:49.999Z</time></trkpt><trkpt lat="43.47065900431141" lon="12.250864994502098"><ele>296.0</ele><time>2026-04-18T08:57:50.999Z</time></trkpt><trkpt lat="43.470655887875424" lon="12.250736002978355"><ele>296.2</ele><time>2026-04-18T08:57:51.999Z</time></trkpt><trkpt lat="43.47065220573035" lon="12.250614227736094"><ele>296.40000000000003</ele><time>2026-04-18T08:57:52.999Z</time></trkpt><trkpt lat="43.470648264871905" lon="12.250487862357932"><ele>296.6</ele><time>2026-04-18T08:57:53.999Z</time></trkpt><trkpt lat="43.47064919787448" lon="12.250357902071082"><ele>296.8</ele><time>2026-04-18T08:57:54.999Z</time></trkpt><trkpt lat="43.47065240935955" lon="12.250236439604436"><ele>297.0</ele><time>2026-04-18T08:57:55.999Z</time></trkpt><trkpt lat="43.47066193301754" lon="12.250091936212572"><ele>297.0</ele><time>2026-04-18T08:57:56.999Z</time></trkpt><trkpt lat="43.47067050043397" lon="12.249958625143442"><ele>297.0</ele><time>2026-04-18T08:57:57.999Z</time></trkpt><trkpt lat="43.470674892819744" lon="12.24982255188797"><ele>297.0</ele><time>2026-04-18T08:57:58.999Z</time></trkpt><trkpt lat="43.47068026630729" lon="12.249685471882922"><ele>297.0</ele><time>2026-04-18T08:57:59.999Z</time></trkpt><trkpt lat="43.47068928811378" lon="12.249555253060503"><ele>297.0</ele><time>2026-04-18T08:58:00.999Z</time></trkpt><trkpt lat="43.47069912361642" lon="12.249432413381639"><ele>296.4</ele><time>2026-04-18T08:58:01.999Z</time></trkpt><trkpt lat="43.47070944009404" lon="12.24929411277023"><ele>295.79999999999995</ele><time>2026-04-18T08:58:02.999Z</time></trkpt><trkpt lat="43.47072236182985" lon="12.249173274167351"><ele>295.2</ele><time>2026-04-18T08:58:03.999Z</time></trkpt><trkpt lat="43.47074122493809" lon="12.249043110021637"><ele>294.59999999999997</ele><time>2026-04-18T08:58:04.999Z</time></trkpt><trkpt lat="43.47076173695537" lon="12.24891359986061"><ele>294.0</ele><time>2026-04-18T08:58:05.999Z</time></trkpt><trkpt lat="43.47077852288327" lon="12.248786710670378"><ele>293.8</ele><time>2026-04-18T08:58:06.999Z</time></trkpt><trkpt lat="43.47079751037782" lon="12.248659405331034"><ele>293.59999999999997</ele><time>2026-04-18T08:58:07.999Z</time></trkpt><trkpt lat="43.47081910791415" lon="12.248535568560191"><ele>293.4</ele><time>2026-04-18T08:58:08.999Z</time></trkpt><trkpt lat="43.470842264539186" lon="12.248401785414767"><ele>293.2</ele><time>2026-04-18T08:58:09.999Z</time></trkpt><trkpt lat="43.47086490496405" lon="12.248280980608016"><ele>293.0</ele><time>2026-04-18T08:58:10.999Z</time></trkpt><trkpt lat="43.470890075632425" lon="12.248165658189631"><ele>293.33333333333337</ele><time>2026-04-18T08:58:11.999Z</time></trkpt><trkpt lat="43.470915358098765" lon="12.248058307554205"><ele>293.6666666666667</ele><time>2026-04-18T08:58:12.999Z</time></trkpt><trkpt lat="43.470941504898235" lon="12.247945204694853"><ele>294.0</ele><time>2026-04-18T08:58:13.999Z</time></trkpt><trkpt lat="43.47096414486458" lon="12.247847299881231"><ele>294.3333333333333</ele><time>2026-04-18T08:58:14.999Z</time></trkpt><trkpt lat="43.470988160215676" lon="12.247746347384796"><ele>294.66666666666663</ele><time>2026-04-18T08:58:15.999Z</time></trkpt><trkpt lat="43.471011459083925" lon="12.247650074237406"><ele>295.0</ele><time>2026-04-18T08:58:16.999Z</time></trkpt><trkpt lat="43.47104198583463" lon="12.247543298354685"><ele>295.0</ele><time>2026-04-18T08:58:17.999Z</time></trkpt><trkpt lat="43.471073467276234" lon="12.247436142275463"><ele>295.0</ele><time>2026-04-18T08:58:18.999Z</time></trkpt><trkpt lat="43.47110311692934" lon="12.24733381968431"><ele>295.0</ele><time>2026-04-18T08:58:19.999Z</time></trkpt><trkpt lat="43.47113688485558" lon="12.247229625139958"><ele>295.0</ele><time>2026-04-18T08:58:20.999Z</time></trkpt><trkpt lat="43.47117267873191" lon="12.24711760402847"><ele>295.0</ele><time>2026-04-18T08:58:21.999Z</time></trkpt><trkpt lat="43.47121090939806" lon="12.246985100049198"><ele>295.0</ele><time>2026-04-18T08:58:22.999Z</time></trkpt><trkpt lat="43.471257191803495" lon="12.246845256891682"><ele>294.6</ele><time>2026-04-18T08:58:23.999Z</time></trkpt><trkpt lat="43.47131850968127" lon="12.24673663802859"><ele>294.2</ele><time>2026-04-18T08:58:24.999Z</time></trkpt><trkpt lat="43.471403716990295" lon="12.246661094212032"><ele>293.8</ele><time>2026-04-18T08:58:25.999Z</time></trkpt><trkpt lat="43.471513316872276" lon="12.246620823972426"><ele>293.4</ele><time>2026-04-18T08:58:26.999Z</time></trkpt><trkpt lat="43.471632186804385" lon="12.246592019271985"><ele>293.0</ele><time>2026-04-18T08:58:27.999Z</time></trkpt><trkpt lat="43.4717378831861" lon="12.246511127004998"><ele>293.25</ele><time>2026-04-18T08:58:28.999Z</time></trkpt><trkpt lat="43.47180842162973" lon="12.24636248459352"><ele>293.5</ele><time>2026-04-18T08:58:29.999Z</time></trkpt><trkpt lat="43.47183722656216" lon="12.246179546997903"><ele>293.75</ele><time>2026-04-18T08:58:30.999Z</time></trkpt><trkpt lat="43.47182320029439" lon="12.245996828135091"><ele>294.0</ele><time>2026-04-18T08:58:31.999Z</time></trkpt><trkpt lat="43.47175828104983" lon="12.245816887523707"><ele>294.0</ele><time>2026-04-18T08:58:32.999Z</time></trkpt><trkpt lat="43.471680178885556" lon="12.245649845645449"><ele>294.0</ele><time>2026-04-18T08:58:33.999Z</time></trkpt><trkpt lat="43.471628843689096" lon="12.245461894138035"><ele>294.0</ele><time>2026-04-18T08:58:34.999Z</time></trkpt><trkpt lat="43.47163918800812" lon="12.245254373723732"><ele>294.0</ele><time>2026-04-18T08:58:35.999Z</time></trkpt><trkpt lat="43.47170290977146" lon="12.245048938736495"><ele>293.4</ele><time>2026-04-18T08:58:36.999Z</time></trkpt><trkpt lat="43.471747120186826" lon="12.244897344645128"><ele>292.79999999999995</ele><time>2026-04-18T08:58:37.999Z</time></trkpt><trkpt lat="43.47178370884784" lon="12.244787492887863"><ele>292.20000000000005</ele><time>2026-04-18T08:58:38.999Z</time></trkpt><trkpt lat="43.47181446496502" lon="12.244698965743426"><ele>291.6</ele><time>2026-04-18T08:58:39.999Z</time></trkpt><trkpt lat="43.47185295371923" lon="12.244579936698909"><ele>291.0</ele><time>2026-04-18T08:58:40.999Z</time></trkpt><trkpt lat="43.4718927574821" lon="12.244441838331623"><ele>291.0</ele><time>2026-04-18T08:58:41.999Z</time></trkpt><trkpt lat="43.471935056951764" lon="12.24426730187562"><ele>291.0</ele><time>2026-04-18T08:58:42.999Z</time></trkpt><trkpt lat="43.47197542445469" lon="12.244086881385657"><ele>291.0</ele><time>2026-04-18T08:58:43.999Z</time></trkpt><trkpt lat="43.47201781565205" lon="12.243897841568844"><ele>291.0</ele><time>2026-04-18T08:58:44.999Z</time></trkpt><trkpt lat="43.47206445183225" lon="12.243690172708533"><ele>291.0</ele><time>2026-04-18T08:58:45.999Z</time></trkpt><trkpt lat="43.47211332800367" lon="12.243476351101092"><ele>291.0</ele><time>2026-04-18T08:58:46.999Z</time></trkpt><trkpt lat="43.472161396452776" lon="12.243252124198696"><ele>291.0</ele><time>2026-04-18T08:58:47.999Z</time></trkpt><trkpt lat="43.47221467112486" lon="12.243017015313283"><ele>290.6666666666667</ele><time>2026-04-18T08:58:48.999Z</time></trkpt><trkpt lat="43.47227170040896" lon="12.2427777578009"><ele>290.33333333333337</ele><time>2026-04-18T08:58:50Z</time></trkpt><trkpt lat="43.47233072475335" lon="12.242529080386735"><ele>290.0</ele><time>2026-04-18T08:58:51Z</time></trkpt><trkpt lat="43.47239022075236" lon="12.242279829148783"><ele>289.6666666666667</ele><time>2026-04-18T08:58:52Z</time></trkpt><trkpt lat="43.472448210005766" lon="12.242049200722995"><ele>289.3333333333333</ele><time>2026-04-18T08:58:53Z</time></trkpt><trkpt lat="43.472503111836915" lon="12.241835771759913"><ele>289.0</ele><time>2026-04-18T08:58:54Z</time></trkpt><trkpt lat="43.47255802254261" lon="12.24162030504162"><ele>289.3333333333333</ele><time>2026-04-18T08:58:55Z</time></trkpt><trkpt lat="43.472610634246315" lon="12.241393916659964"><ele>289.6666666666667</ele><time>2026-04-18T08:58:56Z</time></trkpt><trkpt lat="43.472654733435" lon="12.241171763263571"><ele>290.0</ele><time>2026-04-18T08:58:57Z</time></trkpt><trkpt lat="43.4727205801054" lon="12.240964408616794"><ele>290.0</ele><time>2026-04-18T08:58:58Z</time></trkpt><trkpt lat="43.472760507357556" lon="12.240803001970312"><ele>290.0</ele><time>2026-04-18T08:58:59Z</time></trkpt><trkpt lat="43.47278965294496" lon="12.240685339458103"><ele>290.0</ele><time>2026-04-18T08:59:00Z</time></trkpt><trkpt lat="43.47281519846833" lon="12.240582347980913"><ele>290.0</ele><time>2026-04-18T08:59:01Z</time></trkpt><trkpt lat="43.47283705970805" lon="12.240494209329928"><ele>290.0</ele><time>2026-04-18T08:59:02Z</time></trkpt><trkpt lat="43.47286028153336" lon="12.240400585658653"><ele>290.0</ele><time>2026-04-18T08:59:03Z</time></trkpt><trkpt lat="43.472887556708784" lon="12.240290620200435"><ele>289.6</ele><time>2026-04-18T08:59:04Z</time></trkpt><trkpt lat="43.47291725717025" lon="12.240170876750064"><ele>289.2</ele><time>2026-04-18T08:59:05Z</time></trkpt><trkpt lat="43.472951426314715" lon="12.240033500293297"><ele>288.8</ele><time>2026-04-18T08:59:06Z</time></trkpt><trkpt lat="43.472984289667906" lon="12.239901675737725"><ele>288.4</ele><time>2026-04-18T08:59:07Z</time></trkpt><trkpt lat="43.473020176871934" lon="12.239810288246497"><ele>288.0</ele><time>2026-04-18T08:59:08Z</time></trkpt><trkpt lat="43.473088510928115" lon="12.23974798771272"><ele>288.0</ele><time>2026-04-18T08:59:09Z</time></trkpt><trkpt lat="43.47314994266545" lon="12.239687357299962"><ele>288.0</ele><time>2026-04-18T08:59:10Z</time></trkpt><trkpt lat="43.47318528474166" lon="12.239612567631552"><ele>288.0</ele><time>2026-04-18T08:59:11Z</time></trkpt><trkpt lat="43.47321385756435" lon="12.239530564001365"><ele>288.0</ele><time>2026-04-18T08:59:12Z</time></trkpt><trkpt lat="43.47323285825137" lon="12.239444506157808"><ele>288.0</ele><time>2026-04-18T08:59:13Z</time></trkpt><trkpt lat="43.47316775316228" lon="12.239324961611155"><ele>288.0</ele><time>2026-04-18T08:59:14Z</time></trkpt><trkpt lat="43.4731499747641" lon="12.23921951051388"><ele>288.0</ele><time>2026-04-18T08:59:15Z</time></trkpt><trkpt lat="43.4731760938917" lon="12.23911114386341"><ele>288.0</ele><time>2026-04-18T08:59:16Z</time></trkpt><trkpt lat="43.4732035763247" lon="12.238976965464438"><ele>288.0</ele><time>2026-04-18T08:59:17Z</time></trkpt><trkpt lat="43.47322384282134" lon="12.238820064743555"><ele>288.0</ele><time>2026-04-18T08:59:18Z</time></trkpt><trkpt lat="43.4732223370523" lon="12.238667430823892"><ele>288.0</ele><time>2026-04-18T08:59:19Z</time></trkpt><trkpt lat="43.473237538767286" lon="12.23852113338588"><ele>288.0</ele><time>2026-04-18T08:59:20Z</time></trkpt><trkpt lat="43.47324895440581" lon="12.23837023647539"><ele>288.0</ele><time>2026-04-18T08:59:21Z</time></trkpt><trkpt lat="43.47325326407961" lon="12.238212136757461"><ele>288.0</ele><time>2026-04-18T08:59:22Z</time></trkpt><trkpt lat="43.473248028840736" lon="12.23805216341486"><ele>288.0</ele><time>2026-04-18T08:59:23Z</time></trkpt><trkpt lat="43.47323125890068" lon="12.237886301887572"><ele>287.3333333333333</ele><time>2026-04-18T08:59:24Z</time></trkpt><trkpt lat="43.47320230670855" lon="12.237711540825774"><ele>286.66666666666663</ele><time>2026-04-18T08:59:25Z</time></trkpt><trkpt lat="43.47317486847423" lon="12.237504557095184"><ele>286.0</ele><time>2026-04-18T08:59:26Z</time></trkpt><trkpt lat="43.47311757567029" lon="12.237284384082399"><ele>286.0</ele><time>2026-04-18T08:59:27Z</time></trkpt><trkpt lat="43.4730435333379" lon="12.23706009090265"><ele>286.0</ele><time>2026-04-18T08:59:28Z</time></trkpt><trkpt lat="43.47296628442189" lon="12.236888383608937"><ele>286.0</ele><time>2026-04-18T08:59:29Z</time></trkpt><trkpt lat="43.472910259643086" lon="12.236745614067143"><ele>286.0</ele><time>2026-04-18T08:59:30Z</time></trkpt><trkpt lat="43.472860812015774" lon="12.236630459598619"><ele>286.0</ele><time>2026-04-18T08:59:30.999Z</time></trkpt><trkpt lat="43.472816897789386" lon="12.236528220038483"><ele>286.0</ele><time>2026-04-18T08:59:31.999Z</time></trkpt><trkpt lat="43.4727797902111" lon="12.236436170976377"><ele>286.0</ele><time>2026-04-18T08:59:32.999Z</time></trkpt><trkpt lat="43.47274537646352" lon="12.23634481419009"><ele>286.0</ele><time>2026-04-18T08:59:33.999Z</time></trkpt><trkpt lat="43.47271624810161" lon="12.236204251178755"><ele>286.0</ele><time>2026-04-18T08:59:35.999Z</time></trkpt><trkpt lat="43.47270891723852" lon="12.236089734470875"><ele>286.0</ele><time>2026-04-18T08:59:37.999Z</time></trkpt><trkpt lat="43.472736485903205" lon="12.235942710832129"><ele>286.0</ele><time>2026-04-18T08:59:39.999Z</time></trkpt><trkpt lat="43.472755876150295" lon="12.235854757501878"><ele>286.0</ele><time>2026-04-18T08:59:40.999Z</time></trkpt><trkpt lat="43.472776260902855" lon="12.23575409262091"><ele>286.0</ele><time>2026-04-18T08:59:41.999Z</time></trkpt><trkpt lat="43.47277877666303" lon="12.235644554016778"><ele>286.0</ele><time>2026-04-18T08:59:42.999Z</time></trkpt><trkpt lat="43.47275734368638" lon="12.23552208437945"><ele>286.0</ele><time>2026-04-18T08:59:43.999Z</time></trkpt><trkpt lat="43.47270977823243" lon="12.235396167066652"><ele>286.0</ele><time>2026-04-18T08:59:44.999Z</time></trkpt><trkpt lat="43.47263420932964" lon="12.23529039558826"><ele>286.0</ele><time>2026-04-18T08:59:45.999Z</time></trkpt><trkpt lat="43.472541388321375" lon="12.235206908130822"><ele>286.0</ele><time>2026-04-18T08:59:46.999Z</time></trkpt><trkpt lat="43.472417330628" lon="12.235168459204512"><ele>286.0</ele><time>2026-04-18T08:59:47.999Z</time></trkpt><trkpt lat="43.47229572161182" lon="12.235117658635462"><ele>286.0</ele><time>2026-04-18T08:59:48.999Z</time></trkpt><trkpt lat="43.47218405804347" lon="12.235019701247111"><ele>286.5</ele><time>2026-04-18T08:59:49.999Z</time></trkpt><trkpt lat="43.47209918303874" lon="12.234873339067764"><ele>287.0</ele><time>2026-04-18T08:59:50.999Z</time></trkpt><trkpt lat="43.472035459151385" lon="12.234704318113831"><ele>287.5</ele><time>2026-04-18T08:59:51.999Z</time></trkpt><trkpt lat="43.47196728663281" lon="12.234528330472399"><ele>288.0</ele><time>2026-04-18T08:59:52.999Z</time></trkpt><trkpt lat="43.47189680688427" lon="12.234356091110948"><ele>288.0</ele><time>2026-04-18T08:59:53.999Z</time></trkpt><trkpt lat="43.47182326087523" lon="12.234185119734649"><ele>288.0</ele><time>2026-04-18T08:59:54.999Z</time></trkpt><trkpt lat="43.471747531469035" lon="12.234012364909521"><ele>288.0</ele><time>2026-04-18T08:59:55.999Z</time></trkpt><trkpt lat="43.471674554010654" lon="12.23383753728589"><ele>288.0</ele><time>2026-04-18T08:59:56.999Z</time></trkpt><trkpt lat="43.47160124234816" lon="12.233659533298098"><ele>286.75</ele><time>2026-04-18T08:59:57.999Z</time></trkpt><trkpt lat="43.47152930212145" lon="12.23348479884463"><ele>285.5</ele><time>2026-04-18T08:59:58.999Z</time></trkpt><trkpt lat="43.471458878585075" lon="12.23331445386243"><ele>284.25</ele><time>2026-04-18T08:59:59.999Z</time></trkpt><trkpt lat="43.471394451698586" lon="12.2331577647178"><ele>283.0</ele><time>2026-04-18T09:00:00.999Z</time></trkpt><trkpt lat="43.471332493235984" lon="12.233014320973734"><ele>283.75</ele><time>2026-04-18T09:00:01.999Z</time></trkpt><trkpt lat="43.47126914058932" lon="12.23287407624195"><ele>284.5</ele><time>2026-04-18T09:00:02.999Z</time></trkpt><trkpt lat="43.47120557943938" lon="12.232733942933306"><ele>285.25</ele><time>2026-04-18T09:00:03.999Z</time></trkpt><trkpt lat="43.47113832094353" lon="12.232594902749861"><ele>286.0</ele><time>2026-04-18T09:00:04.999Z</time></trkpt><trkpt lat="43.471065282709105" lon="12.232456225225372"><ele>286.0</ele><time>2026-04-18T09:00:05.999Z</time></trkpt><trkpt lat="43.47099158988203" lon="12.232318421912218"><ele>286.0</ele><time>2026-04-18T09:00:06.999Z</time></trkpt><trkpt lat="43.47091566427676" lon="12.232184674917088"><ele>286.0</ele><time>2026-04-18T09:00:07.999Z</time></trkpt><trkpt lat="43.470835123493885" lon="12.232052565303924"><ele>286.0</ele><time>2026-04-18T09:00:08.999Z</time></trkpt><trkpt lat="43.47074982318494" lon="12.23192422622961"><ele>285.75</ele><time>2026-04-18T09:00:09.999Z</time></trkpt><trkpt lat="43.47066100979455" lon="12.231798034920477"><ele>285.5</ele><time>2026-04-18T09:00:10.999Z</time></trkpt><trkpt lat="43.470575390298904" lon="12.231678523105762"><ele>285.25</ele><time>2026-04-18T09:00:11.999Z</time></trkpt><trkpt lat="43.47049014494375" lon="12.231566093305346"><ele>285.0</ele><time>2026-04-18T09:00:12.999Z</time></trkpt><trkpt lat="43.47039954170477" lon="12.23145219023178"><ele>284.5</ele><time>2026-04-18T09:00:13.999Z</time></trkpt><trkpt lat="43.47030329294551" lon="12.23133630072565"><ele>284.0</ele><time>2026-04-18T09:00:14.999Z</time></trkpt><trkpt lat="43.47020186622632" lon="12.231220983908631"><ele>283.5</ele><time>2026-04-18T09:00:15.999Z</time></trkpt><trkpt lat="43.470102015987834" lon="12.231114254366082"><ele>283.0</ele><time>2026-04-18T09:00:16.999Z</time></trkpt><trkpt lat="43.46999708397055" lon="12.231007811891258"><ele>283.0</ele><time>2026-04-18T09:00:17.999Z</time></trkpt><trkpt lat="43.469894345969585" lon="12.230905190577317"><ele>283.0</ele><time>2026-04-18T09:00:18.999Z</time></trkpt><trkpt lat="43.469797449917586" lon="12.230811604828302"><ele>283.0</ele><time>2026-04-18T09:00:19.999Z</time></trkpt><trkpt lat="43.46970939608097" lon="12.230721231580336"><ele>283.0</ele><time>2026-04-18T09:00:20.999Z</time></trkpt><trkpt lat="43.46962758035248" lon="12.230639233346098"><ele>283.0</ele><time>2026-04-18T09:00:21.999Z</time></trkpt><trkpt lat="43.46955522121986" lon="12.230563186850755"><ele>283.0</ele><time>2026-04-18T09:00:22.999Z</time></trkpt><trkpt lat="43.469488810334816" lon="12.230496588838855"><ele>283.0</ele><time>2026-04-18T09:00:23.999Z</time></trkpt><trkpt lat="43.46942466944858" lon="12.230426278209098"><ele>283.0</ele><time>2026-04-18T09:00:24.999Z</time></trkpt><trkpt lat="43.469376194916514" lon="12.230369580836637"><ele>283.0</ele><time>2026-04-18T09:00:25.999Z</time></trkpt><trkpt lat="43.469324990057395" lon="12.230290830001602"><ele>283.0</ele><time>2026-04-18T09:00:27.999Z</time></trkpt><trkpt lat="43.46928899167705" lon="12.230184194723508"><ele>283.0</ele><time>2026-04-18T09:00:32.999Z</time></trkpt><trkpt lat="43.469254105985655" lon="12.230078944958203"><ele>283.0</ele><time>2026-04-18T09:00:34.999Z</time></trkpt><trkpt lat="43.469222633172976" lon="12.229909553582205"><ele>283.0</ele><time>2026-04-18T09:00:36.999Z</time></trkpt><trkpt lat="43.46919108738252" lon="12.22982195710044"><ele>283.0</ele><time>2026-04-18T09:00:37.999Z</time></trkpt><trkpt lat="43.46913805959834" lon="12.229739636472628"><ele>283.0</ele><time>2026-04-18T09:00:38.999Z</time></trkpt><trkpt lat="43.46904829405926" lon="12.22965500202056"><ele>282.75</ele><time>2026-04-18T09:00:39.999Z</time></trkpt><trkpt lat="43.4689457261317" lon="12.229608052382183"><ele>282.5</ele><time>2026-04-18T09:00:40.999Z</time></trkpt><trkpt lat="43.468833914818944" lon="12.229587139507606"><ele>282.25</ele><time>2026-04-18T09:00:41.999Z</time></trkpt><trkpt lat="43.468713961967616" lon="12.229569449346325"><ele>282.0</ele><time>2026-04-18T09:00:42.999Z</time></trkpt><trkpt lat="43.46859189812612" lon="12.229528090623866"><ele>281.4</ele><time>2026-04-18T09:00:43.999Z</time></trkpt><trkpt lat="43.46850481164372" lon="12.229447669982363"><ele>280.79999999999995</ele><time>2026-04-18T09:00:44.999Z</time></trkpt><trkpt lat="43.468426016223404" lon="12.22938026757998"><ele>280.2</ele><time>2026-04-18T09:00:45.999Z</time></trkpt><trkpt lat="43.46837776735816" lon="12.229246974102445"><ele>279.59999999999997</ele><time>2026-04-18T09:00:46.999Z</time></trkpt><trkpt lat="43.46832008889208" lon="12.22916251450429"><ele>279.0</ele><time>2026-04-18T09:00:47.999Z</time></trkpt><trkpt lat="43.468265469059425" lon="12.229061993477814"><ele>279.0</ele><time>2026-04-18T09:00:48.999Z</time></trkpt><trkpt lat="43.468202016178424" lon="12.228958913138047"><ele>279.0</ele><time>2026-04-18T09:00:49.999Z</time></trkpt><trkpt lat="43.468137635483174" lon="12.22885210497786"><ele>279.0</ele><time>2026-04-18T09:00:50.999Z</time></trkpt><trkpt lat="43.468075144388" lon="12.228745191874323"><ele>279.0</ele><time>2026-04-18T09:00:51.999Z</time></trkpt><trkpt lat="43.46802037002749" lon="12.228650675105241"><ele>279.0</ele><time>2026-04-18T09:00:52.999Z</time></trkpt><trkpt lat="43.4679805454484" lon="12.228579176329948"><ele>279.0</ele><time>2026-04-18T09:00:53.999Z</time></trkpt><trkpt lat="43.467926825298896" lon="12.228482730105114"><ele>279.0</ele><time>2026-04-18T09:01:01Z</time></trkpt><trkpt lat="43.46788714993039" lon="12.228410693054611"><ele>279.0</ele><time>2026-04-18T09:01:04Z</time></trkpt><trkpt lat="43.467708866328906" lon="12.22847766178091"><ele>279.0</ele><time>2026-04-18T09:01:07Z</time></trkpt><trkpt lat="43.46764365533341" lon="12.228567564045989"><ele>279.0</ele><time>2026-04-18T09:01:08Z</time></trkpt><trkpt lat="43.467564124683406" lon="12.228655849686644"><ele>279.0</ele><time>2026-04-18T09:01:09Z</time></trkpt><trkpt lat="43.46745225645783" lon="12.228712606798588"><ele>279.0</ele><time>2026-04-18T09:01:10Z</time></trkpt><trkpt lat="43.46732006026709" lon="12.228717896523863"><ele>279.0</ele><time>2026-04-18T09:01:11Z</time></trkpt><trkpt lat="43.46717780005726" lon="12.228648042301085"><ele>279.0</ele><time>2026-04-18T09:01:12Z</time></trkpt><trkpt lat="43.467033854415995" lon="12.228560202905552"><ele>280.0</ele><time>2026-04-18T09:01:13Z</time></trkpt><trkpt lat="43.46688949429095" lon="12.22847800451017"><ele>281.0</ele><time>2026-04-18T09:01:14Z</time></trkpt><trkpt lat="43.46679987437016" lon="12.228345930326498"><ele>282.0</ele><time>2026-04-18T09:01:15Z</time></trkpt><trkpt lat="43.46674525751936" lon="12.228203975012041"><ele>283.0</ele><time>2026-04-18T09:01:16Z</time></trkpt><trkpt lat="43.46675418294266" lon="12.228044347319244"><ele>283.0</ele><time>2026-04-18T09:01:17Z</time></trkpt><trkpt lat="43.46677586019767" lon="12.22788600718611"><ele>283.0</ele><time>2026-04-18T09:01:18Z</time></trkpt><trkpt lat="43.466848774998745" lon="12.227741908571227"><ele>283.0</ele><time>2026-04-18T09:01:19Z</time></trkpt><trkpt lat="43.466960018021425" lon="12.227614339629827"><ele>283.0</ele><time>2026-04-18T09:01:20Z</time></trkpt><trkpt lat="43.46711726401765" lon="12.227537422521802"><ele>282.66666666666663</ele><time>2026-04-18T09:01:21Z</time></trkpt><trkpt lat="43.46729944971751" lon="12.22747772397772"><ele>282.3333333333333</ele><time>2026-04-18T09:01:22Z</time></trkpt><trkpt lat="43.46749513382892" lon="12.227411652405875"><ele>282.0</ele><time>2026-04-18T09:01:23Z</time></trkpt><trkpt lat="43.46771005271801" lon="12.227347506840818"><ele>281.5</ele><time>2026-04-18T09:01:24Z</time></trkpt><trkpt lat="43.467936662594596" lon="12.227251772444646"><ele>281.0</ele><time>2026-04-18T09:01:25Z</time></trkpt><trkpt lat="43.468163765959595" lon="12.227138276137573"><ele>282.5</ele><time>2026-04-18T09:01:26Z</time></trkpt><trkpt lat="43.468403022726115" lon="12.227010420370116"><ele>284.0</ele><time>2026-04-18T09:01:27Z</time></trkpt><trkpt lat="43.46863893916882" lon="12.22687431826255"><ele>283.5</ele><time>2026-04-18T09:01:27.999Z</time></trkpt><trkpt lat="43.46886497162368" lon="12.226730161971348"><ele>283.0</ele><time>2026-04-18T09:01:28.999Z</time></trkpt><trkpt lat="43.46908918047617" lon="12.22657381050609"><ele>282.5</ele><time>2026-04-18T09:01:29.999Z</time></trkpt><trkpt lat="43.46931158844198" lon="12.226410127680976"><ele>282.0</ele><time>2026-04-18T09:01:30.999Z</time></trkpt><trkpt lat="43.46952094547927" lon="12.226244739572495"><ele>281.5</ele><time>2026-04-18T09:01:31.999Z</time></trkpt><trkpt lat="43.469736373812125" lon="12.22606939867651"><ele>281.0</ele><time>2026-04-18T09:01:32.999Z</time></trkpt><trkpt lat="43.469944843893465" lon="12.225891783008445"><ele>281.0</ele><time>2026-04-18T09:01:33.999Z</time></trkpt><trkpt lat="43.47015626833343" lon="12.225708588114225"><ele>281.0</ele><time>2026-04-18T09:01:34.999Z</time></trkpt><trkpt lat="43.47035807207369" lon="12.22552143295447"><ele>280.0</ele><time>2026-04-18T09:01:35.999Z</time></trkpt><trkpt lat="43.470561728480455" lon="12.225331938755806"><ele>279.0</ele><time>2026-04-18T09:01:36.999Z</time></trkpt><trkpt lat="43.470760662090825" lon="12.225150304561971"><ele>279.0</ele><time>2026-04-18T09:01:37.999Z</time></trkpt><trkpt lat="43.470966088285174" lon="12.224969855660712"><ele>279.0</ele><time>2026-04-18T09:01:38.999Z</time></trkpt><trkpt lat="43.471171663989026" lon="12.224790879618807"><ele>279.5</ele><time>2026-04-18T09:01:39.999Z</time></trkpt><trkpt lat="43.4713710238377" lon="12.224609479137337"><ele>280.0</ele><time>2026-04-18T09:01:40.999Z</time></trkpt><trkpt lat="43.47156959489836" lon="12.224430838243308"><ele>280.0</ele><time>2026-04-18T09:01:41.999Z</time></trkpt><trkpt lat="43.47176558424765" lon="12.224249933116058"><ele>280.0</ele><time>2026-04-18T09:01:42.999Z</time></trkpt><trkpt lat="43.47196119669504" lon="12.22406716583475"><ele>280.5</ele><time>2026-04-18T09:01:43.999Z</time></trkpt><trkpt lat="43.47215974676338" lon="12.223888399997803"><ele>281.0</ele><time>2026-04-18T09:01:44.999Z</time></trkpt><trkpt lat="43.47235771791027" lon="12.223710300540983"><ele>281.0</ele><time>2026-04-18T09:01:45.999Z</time></trkpt><trkpt lat="43.47255516584959" lon="12.22353342035438"><ele>281.0</ele><time>2026-04-18T09:01:46.999Z</time></trkpt><trkpt lat="43.47275282964147" lon="12.223356402004713"><ele>281.5</ele><time>2026-04-18T09:01:47.999Z</time></trkpt><trkpt lat="43.472946633138875" lon="12.223180599470766"><ele>282.0</ele><time>2026-04-18T09:01:48.999Z</time></trkpt><trkpt lat="43.473144978128275" lon="12.223001965572927"><ele>282.0</ele><time>2026-04-18T09:01:49.999Z</time></trkpt><trkpt lat="43.47334105019714" lon="12.22282043981542"><ele>282.0</ele><time>2026-04-18T09:01:50.999Z</time></trkpt><trkpt lat="43.473537855484146" lon="12.222637226112964"><ele>282.0</ele><time>2026-04-18T09:01:51.999Z</time></trkpt><trkpt lat="43.47373951445447" lon="12.222456737881275"><ele>282.0</ele><time>2026-04-18T09:01:52.999Z</time></trkpt><trkpt lat="43.47393587034974" lon="12.222277357260674"><ele>281.0</ele><time>2026-04-18T09:01:53.999Z</time></trkpt><trkpt lat="43.47413657762858" lon="12.22209985868563"><ele>280.0</ele><time>2026-04-18T09:01:54.999Z</time></trkpt><trkpt lat="43.474332414822044" lon="12.221922291104645"><ele>280.0</ele><time>2026-04-18T09:01:55.999Z</time></trkpt><trkpt lat="43.47453063099553" lon="12.221742131409107"><ele>280.0</ele><time>2026-04-18T09:01:56.999Z</time></trkpt><trkpt lat="43.47472789586152" lon="12.221563633379793"><ele>281.0</ele><time>2026-04-18T09:01:57.999Z</time></trkpt><trkpt lat="43.47492731004243" lon="12.221387158875974"><ele>282.0</ele><time>2026-04-18T09:01:58.999Z</time></trkpt><trkpt lat="43.47512083193842" lon="12.221210025709572"><ele>282.0</ele><time>2026-04-18T09:01:59.999Z</time></trkpt><trkpt lat="43.475318979967504" lon="12.22103277921066"><ele>282.0</ele><time>2026-04-18T09:02:00.999Z</time></trkpt><trkpt lat="43.475519444421685" lon="12.220857333132697"><ele>281.5</ele><time>2026-04-18T09:02:01.999Z</time></trkpt><trkpt lat="43.47571622204378" lon="12.220682956813429"><ele>281.0</ele><time>2026-04-18T09:02:02.999Z</time></trkpt><trkpt lat="43.47591349880983" lon="12.220507027456495"><ele>281.0</ele><time>2026-04-18T09:02:03.999Z</time></trkpt><trkpt lat="43.47611422950425" lon="12.220328289188084"><ele>281.0</ele><time>2026-04-18T09:02:04.999Z</time></trkpt><trkpt lat="43.47630631139952" lon="12.220149098093788"><ele>280.5</ele><time>2026-04-18T09:02:05.999Z</time></trkpt><trkpt lat="43.47650594963872" lon="12.219971407155576"><ele>280.0</ele><time>2026-04-18T09:02:06.999Z</time></trkpt><trkpt lat="43.47670655306283" lon="12.219795536462993"><ele>280.0</ele><time>2026-04-18T09:02:07.999Z</time></trkpt><trkpt lat="43.47690680505151" lon="12.219623166742936"><ele>280.0</ele><time>2026-04-18T09:02:08.999Z</time></trkpt><trkpt lat="43.477107343992415" lon="12.219451662361799"><ele>282.0</ele><time>2026-04-18T09:02:09.999Z</time></trkpt><trkpt lat="43.477305965688714" lon="12.219279415865158"><ele>284.0</ele><time>2026-04-18T09:02:10.999Z</time></trkpt><trkpt lat="43.477504480764715" lon="12.219107984474872"><ele>281.5</ele><time>2026-04-18T09:02:11.999Z</time></trkpt><trkpt lat="43.47770679363799" lon="12.218939116125663"><ele>279.0</ele><time>2026-04-18T09:02:12.999Z</time></trkpt><trkpt lat="43.47791071232917" lon="12.218770195253994"><ele>280.0</ele><time>2026-04-18T09:02:13.999Z</time></trkpt><trkpt lat="43.47811133913084" lon="12.218601320651006"><ele>281.0</ele><time>2026-04-18T09:02:14.999Z</time></trkpt><trkpt lat="43.47831294246202" lon="12.218431015657146"><ele>281.0</ele><time>2026-04-18T09:02:15.999Z</time></trkpt><trkpt lat="43.47851464377994" lon="12.218259703703394"><ele>281.0</ele><time>2026-04-18T09:02:16.999Z</time></trkpt><trkpt lat="43.47871286319946" lon="12.218087228732337"><ele>281.5</ele><time>2026-04-18T09:02:17.999Z</time></trkpt><trkpt lat="43.47891425402789" lon="12.217919494980698"><ele>282.0</ele><time>2026-04-18T09:02:18.999Z</time></trkpt><trkpt lat="43.4791213666952" lon="12.217752574848664"><ele>282.0</ele><time>2026-04-18T09:02:19.999Z</time></trkpt><trkpt lat="43.47932096395226" lon="12.217584401877039"><ele>282.0</ele><time>2026-04-18T09:02:20.999Z</time></trkpt><trkpt lat="43.47952178948342" lon="12.217414428151331"><ele>282.0</ele><time>2026-04-18T09:02:21.999Z</time></trkpt><trkpt lat="43.47972214977146" lon="12.217245675863849"><ele>282.0</ele><time>2026-04-18T09:02:22.999Z</time></trkpt><trkpt lat="43.47992487342804" lon="12.217080300631766"><ele>282.0</ele><time>2026-04-18T09:02:23.999Z</time></trkpt><trkpt lat="43.48012979543689" lon="12.21691319059797"><ele>282.0</ele><time>2026-04-18T09:02:24.999Z</time></trkpt><trkpt lat="43.480329206051415" lon="12.216742753471678"><ele>282.5</ele><time>2026-04-18T09:02:25.999Z</time></trkpt><trkpt lat="43.48053152303616" lon="12.216571382675825"><ele>283.0</ele><time>2026-04-18T09:02:26.999Z</time></trkpt><trkpt lat="43.48073001190418" lon="12.21640118773609"><ele>282.0</ele><time>2026-04-18T09:02:27.999Z</time></trkpt><trkpt lat="43.480933621305844" lon="12.216231770714177"><ele>281.0</ele><time>2026-04-18T09:02:28.999Z</time></trkpt><trkpt lat="43.481132890752505" lon="12.216063928230405"><ele>283.5</ele><time>2026-04-18T09:02:29.999Z</time></trkpt><trkpt lat="43.48133187825251" lon="12.215898684942532"><ele>286.0</ele><time>2026-04-18T09:02:30.999Z</time></trkpt><trkpt lat="43.481530376944" lon="12.215731088141556"><ele>284.5</ele><time>2026-04-18T09:02:31.999Z</time></trkpt><trkpt lat="43.48173040151956" lon="12.21555810672186"><ele>283.0</ele><time>2026-04-18T09:02:32.999Z</time></trkpt><trkpt lat="43.48192463229358" lon="12.215379196410305"><ele>285.5</ele><time>2026-04-18T09:02:33.999Z</time></trkpt><trkpt lat="43.482121070850894" lon="12.215197251662888"><ele>288.0</ele><time>2026-04-18T09:02:34.999Z</time></trkpt><trkpt lat="43.482319156144264" lon="12.215011296718881"><ele>285.0</ele><time>2026-04-18T09:02:35.999Z</time></trkpt><trkpt lat="43.48250997689687" lon="12.214818547231852"><ele>282.0</ele><time>2026-04-18T09:02:36.999Z</time></trkpt><trkpt lat="43.482702589020285" lon="12.214629342652492"><ele>282.0</ele><time>2026-04-18T09:02:37.999Z</time></trkpt><trkpt lat="43.4828936903127" lon="12.214436714201277"><ele>282.0</ele><time>2026-04-18T09:02:38.999Z</time></trkpt><trkpt lat="43.48308256294298" lon="12.214242896620245"><ele>283.0</ele><time>2026-04-18T09:02:39.999Z</time></trkpt><trkpt lat="43.483268391936285" lon="12.214043879960734"><ele>284.0</ele><time>2026-04-18T09:02:40.999Z</time></trkpt><trkpt lat="43.483452460469195" lon="12.213840129010347"><ele>284.0</ele><time>2026-04-18T09:02:41.999Z</time></trkpt><trkpt lat="43.483631650703835" lon="12.213637460372095"><ele>284.0</ele><time>2026-04-18T09:02:42.999Z</time></trkpt><trkpt lat="43.48381885960746" lon="12.213429241107276"><ele>284.0</ele><time>2026-04-18T09:02:43.999Z</time></trkpt><trkpt lat="43.483998250199626" lon="12.213224239327994"><ele>284.0</ele><time>2026-04-18T09:02:44.999Z</time></trkpt><trkpt lat="43.48418006422381" lon="12.21301680749762"><ele>284.0</ele><time>2026-04-18T09:02:45.999Z</time></trkpt><trkpt lat="43.48436304627763" lon="12.212811122881966"><ele>284.0</ele><time>2026-04-18T09:02:46.999Z</time></trkpt><trkpt lat="43.484546872561445" lon="12.212606287080927"><ele>284.5</ele><time>2026-04-18T09:02:47.999Z</time></trkpt><trkpt lat="43.484730549252035" lon="12.21240225249622"><ele>285.0</ele><time>2026-04-18T09:02:48.999Z</time></trkpt><trkpt lat="43.48490991872102" lon="12.212196074691233"><ele>285.0</ele><time>2026-04-18T09:02:49.999Z</time></trkpt><trkpt lat="43.48509041016747" lon="12.211986464034151"><ele>285.0</ele><time>2026-04-18T09:02:50.999Z</time></trkpt><trkpt lat="43.485272921259465" lon="12.211775515517886"><ele>284.5</ele><time>2026-04-18T09:02:51.999Z</time></trkpt><trkpt lat="43.48545353776884" lon="12.211567200215843"><ele>284.0</ele><time>2026-04-18T09:02:52.999Z</time></trkpt><trkpt lat="43.48563585660995" lon="12.211359768406163"><ele>284.0</ele><time>2026-04-18T09:02:53.999Z</time></trkpt><trkpt lat="43.48581658710252" lon="12.211156422087459"><ele>284.0</ele><time>2026-04-18T09:02:54.999Z</time></trkpt><trkpt lat="43.48599708876487" lon="12.210952984997649"><ele>284.0</ele><time>2026-04-18T09:02:55.999Z</time></trkpt><trkpt lat="43.48617994144908" lon="12.210749191830125"><ele>284.0</ele><time>2026-04-18T09:02:56.999Z</time></trkpt><trkpt lat="43.486363074893255" lon="12.210542997352409"><ele>285.5</ele><time>2026-04-18T09:02:57.999Z</time></trkpt><trkpt lat="43.48654553159276" lon="12.2103337749077"><ele>287.0</ele><time>2026-04-18T09:02:58.999Z</time></trkpt><trkpt lat="43.48672657763644" lon="12.210129674876217"><ele>287.0</ele><time>2026-04-18T09:02:59.999Z</time></trkpt><trkpt lat="43.48691061995416" lon="12.209921879689311"><ele>287.0</ele><time>2026-04-18T09:03:00.999Z</time></trkpt><trkpt lat="43.4870934907839" lon="12.209718660623881"><ele>286.5</ele><time>2026-04-18T09:03:02Z</time></trkpt><trkpt lat="43.487277932768414" lon="12.20951520922086"><ele>286.0</ele><time>2026-04-18T09:03:03Z</time></trkpt><trkpt lat="43.48745984554078" lon="12.209311947346093"><ele>286.0</ele><time>2026-04-18T09:03:04Z</time></trkpt><trkpt lat="43.48764146623482" lon="12.209106383193047"><ele>286.0</ele><time>2026-04-18T09:03:05Z</time></trkpt><trkpt lat="43.48782410108172" lon="12.208900231663192"><ele>285.5</ele><time>2026-04-18T09:03:06Z</time></trkpt><trkpt lat="43.487999593044016" lon="12.208686306325797"><ele>285.0</ele><time>2026-04-18T09:03:07Z</time></trkpt><trkpt lat="43.48818603315401" lon="12.208484619372776"><ele>285.0</ele><time>2026-04-18T09:03:08Z</time></trkpt><trkpt lat="43.48836767230768" lon="12.208276646962474"><ele>285.0</ele><time>2026-04-18T09:03:09Z</time></trkpt><trkpt lat="43.48855578081503" lon="12.208077491949929"><ele>286.0</ele><time>2026-04-18T09:03:10Z</time></trkpt><trkpt lat="43.48874523013524" lon="12.207879851395054"><ele>287.0</ele><time>2026-04-18T09:03:11Z</time></trkpt><trkpt lat="43.488929652085474" lon="12.207682189461146"><ele>287.0</ele><time>2026-04-18T09:03:12Z</time></trkpt><trkpt lat="43.489117450814945" lon="12.20748309425281"><ele>287.0</ele><time>2026-04-18T09:03:13Z</time></trkpt><trkpt lat="43.48930735504789" lon="12.207287395622807"><ele>287.0</ele><time>2026-04-18T09:03:14Z</time></trkpt><trkpt lat="43.48949803270685" lon="12.207096052478636"><ele>287.0</ele><time>2026-04-18T09:03:15Z</time></trkpt><trkpt lat="43.48968914212725" lon="12.206907119105022"><ele>288.0</ele><time>2026-04-18T09:03:16Z</time></trkpt><trkpt lat="43.489881791067724" lon="12.206716239435378"><ele>289.0</ele><time>2026-04-18T09:03:17Z</time></trkpt><trkpt lat="43.49007110378307" lon="12.206527306853499"><ele>288.5</ele><time>2026-04-18T09:03:18Z</time></trkpt><trkpt lat="43.4902649938835" lon="12.206340472778571"><ele>288.0</ele><time>2026-04-18T09:03:19Z</time></trkpt><trkpt lat="43.490460113472615" lon="12.206155556410273"><ele>289.0</ele><time>2026-04-18T09:03:20Z</time></trkpt><trkpt lat="43.49065518784773" lon="12.205972122128609"><ele>290.0</ele><time>2026-04-18T09:03:21Z</time></trkpt><trkpt lat="43.4908501312853" lon="12.205790027953883"><ele>289.0</ele><time>2026-04-18T09:03:22Z</time></trkpt><trkpt lat="43.491044246749716" lon="12.20560645786438"><ele>288.0</ele><time>2026-04-18T09:03:23Z</time></trkpt><trkpt lat="43.49123764972877" lon="12.205422039917595"><ele>289.5</ele><time>2026-04-18T09:03:24Z</time></trkpt><trkpt lat="43.491431323705086" lon="12.205236788071158"><ele>291.0</ele><time>2026-04-18T09:03:25Z</time></trkpt><trkpt lat="43.49162504393378" lon="12.205052224728417"><ele>291.0</ele><time>2026-04-18T09:03:26Z</time></trkpt><trkpt lat="43.49181395336721" lon="12.204864908430855"><ele>291.0</ele><time>2026-04-18T09:03:27Z</time></trkpt><trkpt lat="43.49201446149607" lon="12.204680813619788"><ele>290.5</ele><time>2026-04-18T09:03:28Z</time></trkpt><trkpt lat="43.49221103418864" lon="12.204497362332061"><ele>290.0</ele><time>2026-04-18T09:03:29Z</time></trkpt><trkpt lat="43.49240503805011" lon="12.204313037726413"><ele>290.0</ele><time>2026-04-18T09:03:30Z</time></trkpt><trkpt lat="43.49260157131396" lon="12.204128943041026"><ele>290.0</ele><time>2026-04-18T09:03:31Z</time></trkpt><trkpt lat="43.49279150527958" lon="12.203945008843467"><ele>290.0</ele><time>2026-04-18T09:03:32Z</time></trkpt><trkpt lat="43.492986284152735" lon="12.203760082520922"><ele>290.0</ele><time>2026-04-18T09:03:33Z</time></trkpt><trkpt lat="43.49318359719989" lon="12.20357338001081"><ele>290.0</ele><time>2026-04-18T09:03:34Z</time></trkpt><trkpt lat="43.4933811672893" lon="12.203387236798259"><ele>290.0</ele><time>2026-04-18T09:03:35Z</time></trkpt><trkpt lat="43.49357224233907" lon="12.20320212067531"><ele>290.0</ele><time>2026-04-18T09:03:36Z</time></trkpt><trkpt lat="43.493764296244464" lon="12.203017572976737"><ele>290.0</ele><time>2026-04-18T09:03:36.999Z</time></trkpt><trkpt lat="43.49396194587224" lon="12.202836476709354"><ele>290.0</ele><time>2026-04-18T09:03:37.999Z</time></trkpt><trkpt lat="43.49415744436201" lon="12.202651984419223"><ele>290.0</ele><time>2026-04-18T09:03:38.999Z</time></trkpt><trkpt lat="43.4943514386165" lon="12.202467967092442"><ele>290.0</ele><time>2026-04-18T09:03:39.999Z</time></trkpt><trkpt lat="43.49454835187683" lon="12.202284012812434"><ele>290.0</ele><time>2026-04-18T09:03:40.999Z</time></trkpt><trkpt lat="43.49474254418691" lon="12.202100128715763"><ele>290.0</ele><time>2026-04-18T09:03:41.999Z</time></trkpt><trkpt lat="43.49493485966741" lon="12.201915915528325"><ele>290.0</ele><time>2026-04-18T09:03:42.999Z</time></trkpt><trkpt lat="43.495126927109055" lon="12.20173106471078"><ele>290.0</ele><time>2026-04-18T09:03:43.999Z</time></trkpt><trkpt lat="43.495317478276455" lon="12.201547302161831"><ele>290.0</ele><time>2026-04-18T09:03:44.999Z</time></trkpt><trkpt lat="43.495510457111585" lon="12.201357935613238"><ele>290.0</ele><time>2026-04-18T09:03:45.999Z</time></trkpt><trkpt lat="43.49570338958669" lon="12.2011701958433"><ele>290.0</ele><time>2026-04-18T09:03:46.999Z</time></trkpt><trkpt lat="43.495895535946076" lon="12.20097760231808"><ele>290.0</ele><time>2026-04-18T09:03:47.999Z</time></trkpt><trkpt lat="43.49608706070767" lon="12.200781123636274"><ele>290.0</ele><time>2026-04-18T09:03:48.999Z</time></trkpt><trkpt lat="43.49627493972265" lon="12.20058452849996"><ele>290.0</ele><time>2026-04-18T09:03:49.999Z</time></trkpt><trkpt lat="43.49646258504681" lon="12.200386547664964"><ele>290.0</ele><time>2026-04-18T09:03:50.999Z</time></trkpt><trkpt lat="43.49665092282518" lon="12.200186256867932"><ele>290.0</ele><time>2026-04-18T09:03:51.999Z</time></trkpt><trkpt lat="43.49683588723617" lon="12.199989112059818"><ele>290.0</ele><time>2026-04-18T09:03:52.999Z</time></trkpt><trkpt lat="43.49702236858403" lon="12.199790119407231"><ele>290.5</ele><time>2026-04-18T09:03:53.999Z</time></trkpt><trkpt lat="43.497206886653544" lon="12.199590807217835"><ele>291.0</ele><time>2026-04-18T09:03:54.999Z</time></trkpt><trkpt lat="43.49739329257295" lon="12.199391424648777"><ele>291.0</ele><time>2026-04-18T09:03:55.999Z</time></trkpt><trkpt lat="43.49757921400728" lon="12.199193357492145"><ele>291.0</ele><time>2026-04-18T09:03:56.999Z</time></trkpt><trkpt lat="43.49776642710157" lon="12.198991243999211"><ele>292.0</ele><time>2026-04-18T09:03:57.999Z</time></trkpt><trkpt lat="43.49794863003065" lon="12.198791771417481"><ele>293.0</ele><time>2026-04-18T09:03:58.999Z</time></trkpt><trkpt lat="43.49813624365956" lon="12.198584342699032"><ele>293.0</ele><time>2026-04-18T09:03:59.999Z</time></trkpt><trkpt lat="43.49831962970197" lon="12.198384419416655"><ele>293.0</ele><time>2026-04-18T09:04:00.999Z</time></trkpt><trkpt lat="43.498504825726364" lon="12.198184324119103"><ele>292.0</ele><time>2026-04-18T09:04:01.999Z</time></trkpt><trkpt lat="43.498687588896416" lon="12.197985982960702"><ele>291.0</ele><time>2026-04-18T09:04:02.999Z</time></trkpt><trkpt lat="43.49886610819922" lon="12.197790992768846"><ele>291.0</ele><time>2026-04-18T09:04:03.999Z</time></trkpt><trkpt lat="43.49904392333522" lon="12.197594433198322"><ele>291.0</ele><time>2026-04-18T09:04:04.999Z</time></trkpt><trkpt lat="43.49921955076691" lon="12.197402070621708"><ele>291.0</ele><time>2026-04-18T09:04:05.999Z</time></trkpt><trkpt lat="43.49939162734812" lon="12.197214430541857"><ele>291.0</ele><time>2026-04-18T09:04:06.999Z</time></trkpt><trkpt lat="43.4995616098788" lon="12.197029052794239"><ele>291.0</ele><time>2026-04-18T09:04:07.999Z</time></trkpt><trkpt lat="43.49972980684757" lon="12.196847575834125"><ele>291.5</ele><time>2026-04-18T09:04:08.999Z</time></trkpt><trkpt lat="43.499972293967446" lon="12.19657219166327"><ele>292.0</ele><time>2026-04-18T09:04:09.999Z</time></trkpt><trkpt lat="43.50016288151161" lon="12.196371673940162"><ele>292.0</ele><time>2026-04-18T09:04:10.999Z</time></trkpt><trkpt lat="43.50035120094795" lon="12.196171561038776"><ele>292.0</ele><time>2026-04-18T09:04:11.999Z</time></trkpt><trkpt lat="43.50053820118311" lon="12.195978612894788"><ele>292.0</ele><time>2026-04-18T09:04:12.999Z</time></trkpt><trkpt lat="43.500729177441876" lon="12.195779225922779"><ele>292.0</ele><time>2026-04-18T09:04:13.999Z</time></trkpt><trkpt lat="43.500922763662956" lon="12.19558241620828"><ele>292.0</ele><time>2026-04-18T09:04:14.999Z</time></trkpt><trkpt lat="43.50110792774586" lon="12.19538989727245"><ele>292.0</ele><time>2026-04-18T09:04:15.999Z</time></trkpt><trkpt lat="43.50129886163619" lon="12.195198133389688"><ele>292.5</ele><time>2026-04-18T09:04:16.999Z</time></trkpt><trkpt lat="43.50149187095769" lon="12.195010547845145"><ele>293.0</ele><time>2026-04-18T09:04:17.999Z</time></trkpt><trkpt lat="43.50168349342736" lon="12.194821233532792"><ele>293.5</ele><time>2026-04-18T09:04:18.999Z</time></trkpt><trkpt lat="43.501868651130344" lon="12.19463578889865"><ele>294.0</ele><time>2026-04-18T09:04:19.999Z</time></trkpt><trkpt lat="43.50205962583294" lon="12.194451552776703"><ele>294.5</ele><time>2026-04-18T09:04:20.999Z</time></trkpt><trkpt lat="43.50225655316879" lon="12.194262200525069"><ele>295.0</ele><time>2026-04-18T09:04:21.999Z</time></trkpt><trkpt lat="43.50245270605986" lon="12.194085070765341"><ele>294.0</ele><time>2026-04-18T09:04:22.999Z</time></trkpt><trkpt lat="43.502651711555195" lon="12.193906356859937"><ele>293.0</ele><time>2026-04-18T09:04:23.999Z</time></trkpt><trkpt lat="43.502849888160476" lon="12.193734744690886"><ele>293.5</ele><time>2026-04-18T09:04:24.999Z</time></trkpt><trkpt lat="43.503050380158335" lon="12.193562258791426"><ele>294.0</ele><time>2026-04-18T09:04:25.999Z</time></trkpt><trkpt lat="43.503249029158255" lon="12.193386528616541"><ele>294.0</ele><time>2026-04-18T09:04:26.999Z</time></trkpt><trkpt lat="43.503448733907575" lon="12.19321216655362"><ele>294.0</ele><time>2026-04-18T09:04:27.999Z</time></trkpt><trkpt lat="43.503644467446684" lon="12.193034773653267"><ele>294.0</ele><time>2026-04-18T09:04:28.999Z</time></trkpt><trkpt lat="43.503843240667216" lon="12.192862538967383"><ele>294.0</ele><time>2026-04-18T09:04:29.999Z</time></trkpt><trkpt lat="43.50404219030737" lon="12.192693670243461"><ele>294.0</ele><time>2026-04-18T09:04:30.999Z</time></trkpt><trkpt lat="43.50424672699786" lon="12.19252428038857"><ele>294.0</ele><time>2026-04-18T09:04:31.999Z</time></trkpt><trkpt lat="43.50446081602812" lon="12.192338875215587"><ele>294.5</ele><time>2026-04-18T09:04:32.999Z</time></trkpt><trkpt lat="43.504667163698926" lon="12.192158921936153"><ele>295.0</ele><time>2026-04-18T09:04:33.999Z</time></trkpt><trkpt lat="43.50487381203737" lon="12.191985278749211"><ele>295.0</ele><time>2026-04-18T09:04:34.999Z</time></trkpt><trkpt lat="43.50508844042412" lon="12.191805455753068"><ele>295.0</ele><time>2026-04-18T09:04:35.999Z</time></trkpt><trkpt lat="43.505302307376745" lon="12.191620010981868"><ele>295.5</ele><time>2026-04-18T09:04:36.999Z</time></trkpt><trkpt lat="43.505514337747684" lon="12.19143244606849"><ele>296.0</ele><time>2026-04-18T09:04:37.999Z</time></trkpt><trkpt lat="43.50573411168796" lon="12.191238716359303"><ele>296.0</ele><time>2026-04-18T09:04:38.999Z</time></trkpt><trkpt lat="43.505952620331904" lon="12.19105016805981"><ele>296.0</ele><time>2026-04-18T09:04:39.999Z</time></trkpt><trkpt lat="43.50617726477238" lon="12.190857570090023"><ele>295.0</ele><time>2026-04-18T09:04:40.999Z</time></trkpt><trkpt lat="43.506398951519685" lon="12.190665934467232"><ele>294.0</ele><time>2026-04-18T09:04:41.999Z</time></trkpt><trkpt lat="43.50661967435221" lon="12.19047704912567"><ele>294.0</ele><time>2026-04-18T09:04:42.999Z</time></trkpt><trkpt lat="43.506837836256494" lon="12.190289016925162"><ele>294.0</ele><time>2026-04-18T09:04:43.999Z</time></trkpt><trkpt lat="43.50705781031246" lon="12.190094772517197"><ele>294.0</ele><time>2026-04-18T09:04:44.999Z</time></trkpt><trkpt lat="43.507273218423556" lon="12.189907127429226"><ele>294.0</ele><time>2026-04-18T09:04:45.999Z</time></trkpt><trkpt lat="43.50749477289826" lon="12.189716932395017"><ele>294.0</ele><time>2026-04-18T09:04:46.999Z</time></trkpt><trkpt lat="43.507711513819075" lon="12.189531517930742"><ele>294.0</ele><time>2026-04-18T09:04:47.999Z</time></trkpt><trkpt lat="43.50793230310405" lon="12.189344567840205"><ele>294.0</ele><time>2026-04-18T09:04:48.999Z</time></trkpt><trkpt lat="43.50814926505981" lon="12.189155468191908"><ele>294.0</ele><time>2026-04-18T09:04:49.999Z</time></trkpt><trkpt lat="43.50836763920716" lon="12.1889667856617"><ele>294.0</ele><time>2026-04-18T09:04:50.999Z</time></trkpt><trkpt lat="43.508588389867874" lon="12.18877750141549"><ele>294.0</ele><time>2026-04-18T09:04:51.999Z</time></trkpt><trkpt lat="43.50880500681059" lon="12.188590851388485"><ele>294.0</ele><time>2026-04-18T09:04:52.999Z</time></trkpt><trkpt lat="43.509025494620516" lon="12.18840167048584"><ele>294.0</ele><time>2026-04-18T09:04:53.999Z</time></trkpt><trkpt lat="43.50924383625727" lon="12.188211678851648"><ele>294.0</ele><time>2026-04-18T09:04:54.999Z</time></trkpt><trkpt lat="43.5094627350698" lon="12.188021709595903"><ele>294.0</ele><time>2026-04-18T09:04:55.999Z</time></trkpt><trkpt lat="43.509684992611774" lon="12.187834422595806"><ele>295.0</ele><time>2026-04-18T09:04:56.999Z</time></trkpt><trkpt lat="43.509908227116654" lon="12.18765270158301"><ele>296.0</ele><time>2026-04-18T09:04:57.999Z</time></trkpt><trkpt lat="43.51012190257198" lon="12.187457677086273"><ele>295.0</ele><time>2026-04-18T09:04:58.999Z</time></trkpt><trkpt lat="43.51034301208033" lon="12.187267917939044"><ele>294.0</ele><time>2026-04-18T09:04:59.999Z</time></trkpt><trkpt lat="43.510561220233626" lon="12.187082126045295"><ele>293.0</ele><time>2026-04-18T09:05:00.999Z</time></trkpt><trkpt lat="43.5107807849001" lon="12.186893074462056"><ele>292.0</ele><time>2026-04-18T09:05:01.999Z</time></trkpt><trkpt lat="43.51099671303085" lon="12.18669931388691"><ele>293.0</ele><time>2026-04-18T09:05:02.999Z</time></trkpt><trkpt lat="43.511213764470185" lon="12.186507261491393"><ele>294.0</ele><time>2026-04-18T09:05:03.999Z</time></trkpt><trkpt lat="43.51143350806694" lon="12.186317996427013"><ele>294.5</ele><time>2026-04-18T09:05:04.999Z</time></trkpt><trkpt lat="43.51165106703399" lon="12.186134851842615"><ele>295.0</ele><time>2026-04-18T09:05:05.999Z</time></trkpt><trkpt lat="43.51186825572168" lon="12.185937322338358"><ele>295.0</ele><time>2026-04-18T09:05:06.999Z</time></trkpt><trkpt lat="43.512086339907654" lon="12.185745843703065"><ele>295.0</ele><time>2026-04-18T09:05:08Z</time></trkpt><trkpt lat="43.51230386411654" lon="12.185562301206055"><ele>295.0</ele><time>2026-04-18T09:05:09Z</time></trkpt><trkpt lat="43.51252748805606" lon="12.185358684477906"><ele>295.0</ele><time>2026-04-18T09:05:10Z</time></trkpt><trkpt lat="43.51273764522127" lon="12.185174079014116"><ele>295.5</ele><time>2026-04-18T09:05:11Z</time></trkpt><trkpt lat="43.51295702333104" lon="12.18499571292454"><ele>296.0</ele><time>2026-04-18T09:05:12Z</time></trkpt><trkpt lat="43.513178465682316" lon="12.18479958985793"><ele>296.0</ele><time>2026-04-18T09:05:13Z</time></trkpt><trkpt lat="43.51339127887299" lon="12.184610334610625"><ele>296.0</ele><time>2026-04-18T09:05:14Z</time></trkpt><trkpt lat="43.513609985641246" lon="12.184412390654549"><ele>296.5</ele><time>2026-04-18T09:05:15Z</time></trkpt><trkpt lat="43.51382729536727" lon="12.184212590499529"><ele>297.0</ele><time>2026-04-18T09:05:16Z</time></trkpt><trkpt lat="43.51403653109225" lon="12.18401215195948"><ele>296.0</ele><time>2026-04-18T09:05:17Z</time></trkpt><trkpt lat="43.514249969670026" lon="12.183810483784608"><ele>295.0</ele><time>2026-04-18T09:05:18Z</time></trkpt><trkpt lat="43.514462608294174" lon="12.183611352475783"><ele>295.0</ele><time>2026-04-18T09:05:19Z</time></trkpt><trkpt lat="43.51467869297194" lon="12.183409100134119"><ele>295.0</ele><time>2026-04-18T09:05:20Z</time></trkpt><trkpt lat="43.51489573573455" lon="12.183213005350874"><ele>294.0</ele><time>2026-04-18T09:05:21Z</time></trkpt><trkpt lat="43.515111125593826" lon="12.183010687639758"><ele>293.0</ele><time>2026-04-18T09:05:22Z</time></trkpt><trkpt lat="43.51532237892393" lon="12.182808145469595"><ele>293.5</ele><time>2026-04-18T09:05:23Z</time></trkpt><trkpt lat="43.515534716224366" lon="12.182604984649556"><ele>294.0</ele><time>2026-04-18T09:05:24Z</time></trkpt><trkpt lat="43.515750607661644" lon="12.182402526080919"><ele>293.0</ele><time>2026-04-18T09:05:25Z</time></trkpt><trkpt lat="43.51596517149745" lon="12.182205852500736"><ele>292.0</ele><time>2026-04-18T09:05:26Z</time></trkpt><trkpt lat="43.51617470868894" lon="12.182006750187494"><ele>293.0</ele><time>2026-04-18T09:05:27Z</time></trkpt><trkpt lat="43.51638817979729" lon="12.181806663926988"><ele>294.0</ele><time>2026-04-18T09:05:28Z</time></trkpt><trkpt lat="43.51660297221461" lon="12.181604526278083"><ele>293.0</ele><time>2026-04-18T09:05:29Z</time></trkpt><trkpt lat="43.51681000442908" lon="12.181407052876994"><ele>292.0</ele><time>2026-04-18T09:05:30Z</time></trkpt><trkpt lat="43.51702289058628" lon="12.181204534088547"><ele>293.0</ele><time>2026-04-18T09:05:31Z</time></trkpt><trkpt lat="43.51723264267369" lon="12.181000217120054"><ele>294.0</ele><time>2026-04-18T09:05:32Z</time></trkpt><trkpt lat="43.51744716668488" lon="12.180798774282136"><ele>294.0</ele><time>2026-04-18T09:05:33Z</time></trkpt><trkpt lat="43.51766245552763" lon="12.180599521998207"><ele>294.0</ele><time>2026-04-18T09:05:34Z</time></trkpt><trkpt lat="43.51787874699759" lon="12.180400482973518"><ele>293.0</ele><time>2026-04-18T09:05:35Z</time></trkpt><trkpt lat="43.51808787858009" lon="12.180191935684592"><ele>292.0</ele><time>2026-04-18T09:05:36Z</time></trkpt><trkpt lat="43.51830002100577" lon="12.179986614860335"><ele>291.5</ele><time>2026-04-18T09:05:37Z</time></trkpt><trkpt lat="43.51851104172106" lon="12.179781801885953"><ele>291.0</ele><time>2026-04-18T09:05:38Z</time></trkpt><trkpt lat="43.51872231122106" lon="12.17958134268123"><ele>291.0</ele><time>2026-04-18T09:05:39Z</time></trkpt><trkpt lat="43.51893634242493" lon="12.179383627621855"><ele>291.0</ele><time>2026-04-18T09:05:40Z</time></trkpt><trkpt lat="43.519149351077075" lon="12.179185294151715"><ele>291.0</ele><time>2026-04-18T09:05:41Z</time></trkpt><trkpt lat="43.51936281195676" lon="12.178985113118513"><ele>291.0</ele><time>2026-04-18T09:05:42Z</time></trkpt><trkpt lat="43.519576327348496" lon="12.1787850924768"><ele>292.5</ele><time>2026-04-18T09:05:43Z</time></trkpt><trkpt lat="43.519790456086" lon="12.178587315839973"><ele>294.0</ele><time>2026-04-18T09:05:44Z</time></trkpt><trkpt lat="43.52000331346439" lon="12.178387465197908"><ele>293.0</ele><time>2026-04-18T09:05:45Z</time></trkpt><trkpt lat="43.52021636650543" lon="12.178178173221326"><ele>292.0</ele><time>2026-04-18T09:05:46Z</time></trkpt><trkpt lat="43.520423170739846" lon="12.177975464375889"><ele>292.0</ele><time>2026-04-18T09:05:47Z</time></trkpt><trkpt lat="43.52063602760254" lon="12.1777748185194"><ele>292.0</ele><time>2026-04-18T09:05:48Z</time></trkpt><trkpt lat="43.520848499770906" lon="12.177578257090575"><ele>292.0</ele><time>2026-04-18T09:05:49Z</time></trkpt><trkpt lat="43.52106619572571" lon="12.177381868715432"><ele>292.0</ele><time>2026-04-18T09:05:50Z</time></trkpt><trkpt lat="43.5212817362111" lon="12.177183151661804"><ele>291.5</ele><time>2026-04-18T09:05:51Z</time></trkpt><trkpt lat="43.52149299888595" lon="12.176987989279906"><ele>291.0</ele><time>2026-04-18T09:05:52Z</time></trkpt><trkpt lat="43.52170886767561" lon="12.17678770657277"><ele>291.0</ele><time>2026-04-18T09:05:53Z</time></trkpt><trkpt lat="43.52192117333439" lon="12.176587200424695"><ele>291.0</ele><time>2026-04-18T09:05:54Z</time></trkpt><trkpt lat="43.52213642444396" lon="12.176387279520268"><ele>292.0</ele><time>2026-04-18T09:05:55Z</time></trkpt><trkpt lat="43.52234660426242" lon="12.176179620132661"><ele>293.0</ele><time>2026-04-18T09:05:56Z</time></trkpt><trkpt lat="43.522559892683496" lon="12.175974631562333"><ele>293.0</ele><time>2026-04-18T09:05:57Z</time></trkpt><trkpt lat="43.522775010645624" lon="12.175777939758369"><ele>293.0</ele><time>2026-04-18T09:05:58Z</time></trkpt><trkpt lat="43.52299421675284" lon="12.17558313986888"><ele>293.0</ele><time>2026-04-18T09:05:59Z</time></trkpt><trkpt lat="43.523206737881104" lon="12.175380380651788"><ele>293.0</ele><time>2026-04-18T09:06:00Z</time></trkpt><trkpt lat="43.52341586399701" lon="12.17517786150418"><ele>293.0</ele><time>2026-04-18T09:06:01Z</time></trkpt><trkpt lat="43.523628206523355" lon="12.174975636351034"><ele>293.0</ele><time>2026-04-18T09:06:02Z</time></trkpt><trkpt lat="43.52384109724905" lon="12.174777532946305"><ele>292.5</ele><time>2026-04-18T09:06:03Z</time></trkpt><trkpt lat="43.5240503483382" lon="12.174581909386095"><ele>292.0</ele><time>2026-04-18T09:06:04Z</time></trkpt><trkpt lat="43.52426644372664" lon="12.174381916657033"><ele>292.0</ele><time>2026-04-18T09:06:05Z</time></trkpt><trkpt lat="43.524480335244405" lon="12.174178754320586"><ele>292.0</ele><time>2026-04-18T09:06:06Z</time></trkpt><trkpt lat="43.52469380114676" lon="12.173979417435275"><ele>292.0</ele><time>2026-04-18T09:06:07Z</time></trkpt><trkpt lat="43.524907010344" lon="12.173780117034033"><ele>292.0</ele><time>2026-04-18T09:06:08Z</time></trkpt><trkpt lat="43.525121286705165" lon="12.173579012713144"><ele>292.0</ele><time>2026-04-18T09:06:09Z</time></trkpt><trkpt lat="43.52533598236476" lon="12.173377644880144"><ele>292.0</ele><time>2026-04-18T09:06:10Z</time></trkpt><trkpt lat="43.52554584895444" lon="12.173168511581506"><ele>291.5</ele><time>2026-04-18T09:06:11Z</time></trkpt><trkpt lat="43.525753016716514" lon="12.17295452170674"><ele>291.0</ele><time>2026-04-18T09:06:12Z</time></trkpt><trkpt lat="43.52595926977625" lon="12.172738805178954"><ele>291.0</ele><time>2026-04-18T09:06:13Z</time></trkpt><trkpt lat="43.52616779856813" lon="12.172525435908371"><ele>291.0</ele><time>2026-04-18T09:06:14Z</time></trkpt><trkpt lat="43.52637380951273" lon="12.172313768179158"><ele>292.0</ele><time>2026-04-18T09:06:15Z</time></trkpt><trkpt lat="43.52658226632937" lon="12.17210243319144"><ele>293.0</ele><time>2026-04-18T09:06:16Z</time></trkpt><trkpt lat="43.52678510499212" lon="12.171886072892622"><ele>293.0</ele><time>2026-04-18T09:06:17Z</time></trkpt><trkpt lat="43.52698561937929" lon="12.17166142416656"><ele>293.0</ele><time>2026-04-18T09:06:18Z</time></trkpt><trkpt lat="43.52719090349371" lon="12.171441122258768"><ele>292.5</ele><time>2026-04-18T09:06:18.999Z</time></trkpt><trkpt lat="43.52739298666754" lon="12.171223485159041"><ele>292.0</ele><time>2026-04-18T09:06:19.999Z</time></trkpt><trkpt lat="43.52759692083472" lon="12.171005543723291"><ele>292.0</ele><time>2026-04-18T09:06:20.999Z</time></trkpt><trkpt lat="43.52779399503218" lon="12.170783069639645"><ele>292.0</ele><time>2026-04-18T09:06:21.999Z</time></trkpt><trkpt lat="43.52799491256462" lon="12.170558422710332"><ele>292.0</ele><time>2026-04-18T09:06:22.999Z</time></trkpt><trkpt lat="43.528197857108935" lon="12.17033976175383"><ele>292.0</ele><time>2026-04-18T09:06:23.999Z</time></trkpt><trkpt lat="43.52840032670755" lon="12.170124319925598"><ele>292.0</ele><time>2026-04-18T09:06:24.999Z</time></trkpt><trkpt lat="43.528606012745996" lon="12.169900401015811"><ele>292.0</ele><time>2026-04-18T09:06:25.999Z</time></trkpt><trkpt lat="43.528807377891205" lon="12.1696926920204"><ele>293.5</ele><time>2026-04-18T09:06:26.999Z</time></trkpt><trkpt lat="43.529010652880416" lon="12.169473672117716"><ele>295.0</ele><time>2026-04-18T09:06:27.999Z</time></trkpt><trkpt lat="43.5292081953418" lon="12.169244327935397"><ele>295.0</ele><time>2026-04-18T09:06:28.999Z</time></trkpt><trkpt lat="43.529413140291" lon="12.169024905208735"><ele>295.0</ele><time>2026-04-18T09:06:29.999Z</time></trkpt><trkpt lat="43.5296175031762" lon="12.168801820203456"><ele>296.0</ele><time>2026-04-18T09:06:30.999Z</time></trkpt><trkpt lat="43.52982368967687" lon="12.168587146946244"><ele>297.0</ele><time>2026-04-18T09:06:31.999Z</time></trkpt><trkpt lat="43.53002443870242" lon="12.168364318861029"><ele>297.0</ele><time>2026-04-18T09:06:32.999Z</time></trkpt><trkpt lat="43.530221976474955" lon="12.168143429727227"><ele>297.0</ele><time>2026-04-18T09:06:33.999Z</time></trkpt><trkpt lat="43.5304197322902" lon="12.167920550007963"><ele>296.5</ele><time>2026-04-18T09:06:34.999Z</time></trkpt><trkpt lat="43.53062268428396" lon="12.167701478728775"><ele>296.0</ele><time>2026-04-18T09:06:35.999Z</time></trkpt><trkpt lat="43.5308254796289" lon="12.167475100515716"><ele>295.5</ele><time>2026-04-18T09:06:36.999Z</time></trkpt><trkpt lat="43.531026774444854" lon="12.167258805708215"><ele>295.0</ele><time>2026-04-18T09:06:37.999Z</time></trkpt><trkpt lat="43.53122937494934" lon="12.167037468018695"><ele>295.0</ele><time>2026-04-18T09:06:38.999Z</time></trkpt><trkpt lat="43.53143173013909" lon="12.166818323766645"><ele>295.0</ele><time>2026-04-18T09:06:39.999Z</time></trkpt><trkpt lat="43.531635094208845" lon="12.166600311768143"><ele>295.0</ele><time>2026-04-18T09:06:40.999Z</time></trkpt><trkpt lat="43.53183796279722" lon="12.16637947707074"><ele>295.0</ele><time>2026-04-18T09:06:41.999Z</time></trkpt><trkpt lat="43.53204083313606" lon="12.166160075230005"><ele>296.0</ele><time>2026-04-18T09:06:42.999Z</time></trkpt><trkpt lat="43.53224614774777" lon="12.165941300485468"><ele>297.0</ele><time>2026-04-18T09:06:43.999Z</time></trkpt><trkpt lat="43.53245258282511" lon="12.165725006905035"><ele>295.5</ele><time>2026-04-18T09:06:44.999Z</time></trkpt><trkpt lat="43.532658896821474" lon="12.165504330455134"><ele>294.0</ele><time>2026-04-18T09:06:45.999Z</time></trkpt><trkpt lat="43.53286391220546" lon="12.165289561252848"><ele>294.0</ele><time>2026-04-18T09:06:46.999Z</time></trkpt><trkpt lat="43.53306567441689" lon="12.165067064887113"><ele>294.0</ele><time>2026-04-18T09:06:47.999Z</time></trkpt><trkpt lat="43.53326530009711" lon="12.164843490721577"><ele>294.0</ele><time>2026-04-18T09:06:48.999Z</time></trkpt><trkpt lat="43.533467511532464" lon="12.16461891449838"><ele>294.0</ele><time>2026-04-18T09:06:49.999Z</time></trkpt><trkpt lat="43.53367157807027" lon="12.164402153324579"><ele>294.5</ele><time>2026-04-18T09:06:50.999Z</time></trkpt><trkpt lat="43.53387381070787" lon="12.164184674722271"><ele>295.0</ele><time>2026-04-18T09:06:51.999Z</time></trkpt><trkpt lat="43.53407475632896" lon="12.163964789364336"><ele>295.0</ele><time>2026-04-18T09:06:52.999Z</time></trkpt><trkpt lat="43.53427568760245" lon="12.163738783791787"><ele>295.0</ele><time>2026-04-18T09:06:53.999Z</time></trkpt><trkpt lat="43.53448157864381" lon="12.163520450325274"><ele>295.0</ele><time>2026-04-18T09:06:54.999Z</time></trkpt><trkpt lat="43.5346807677201" lon="12.16329307981441"><ele>295.0</ele><time>2026-04-18T09:06:55.999Z</time></trkpt><trkpt lat="43.53488484586017" lon="12.163072909432765"><ele>296.5</ele><time>2026-04-18T09:06:56.999Z</time></trkpt><trkpt lat="43.5350878043249" lon="12.162852886949292"><ele>298.0</ele><time>2026-04-18T09:06:57.999Z</time></trkpt><trkpt lat="43.53529126346462" lon="12.162632719199243"><ele>297.0</ele><time>2026-04-18T09:06:58.999Z</time></trkpt><trkpt lat="43.53549258504431" lon="12.16241141835688"><ele>296.0</ele><time>2026-04-18T09:06:59.999Z</time></trkpt><trkpt lat="43.535695462630045" lon="12.162192515588995"><ele>296.0</ele><time>2026-04-18T09:07:00.999Z</time></trkpt><trkpt lat="43.53590125175895" lon="12.16197634210971"><ele>296.0</ele><time>2026-04-18T09:07:01.999Z</time></trkpt><trkpt lat="43.536105055153186" lon="12.161757861310704"><ele>295.5</ele><time>2026-04-18T09:07:02.999Z</time></trkpt><trkpt lat="43.536307442718915" lon="12.161537560585911"><ele>295.0</ele><time>2026-04-18T09:07:03.999Z</time></trkpt><trkpt lat="43.53651200350723" lon="12.161319841994914"><ele>296.0</ele><time>2026-04-18T09:07:04.999Z</time></trkpt><trkpt lat="43.53671708294135" lon="12.16110220489528"><ele>297.0</ele><time>2026-04-18T09:07:05.999Z</time></trkpt><trkpt lat="43.53691884509658" lon="12.16088008427814"><ele>297.5</ele><time>2026-04-18T09:07:06.999Z</time></trkpt><trkpt lat="43.537121561137276" lon="12.160661182434252"><ele>298.0</ele><time>2026-04-18T09:07:07.999Z</time></trkpt><trkpt lat="43.53733057989872" lon="12.160447999848651"><ele>298.0</ele><time>2026-04-18T09:07:08.999Z</time></trkpt><trkpt lat="43.53753466264418" lon="12.160234248290834"><ele>298.0</ele><time>2026-04-18T09:07:09.999Z</time></trkpt><trkpt lat="43.53774355608169" lon="12.160026834565922"><ele>297.5</ele><time>2026-04-18T09:07:10.999Z</time></trkpt><trkpt lat="43.5379571848389" lon="12.159825100578113"><ele>297.0</ele><time>2026-04-18T09:07:11.999Z</time></trkpt><trkpt lat="43.538165697077865" lon="12.159620688924564"><ele>297.0</ele><time>2026-04-18T09:07:12.999Z</time></trkpt><trkpt lat="43.538380173623594" lon="12.159423187182085"><ele>297.0</ele><time>2026-04-18T09:07:14Z</time></trkpt><trkpt lat="43.53858778188867" lon="12.15921734481387"><ele>297.0</ele><time>2026-04-18T09:07:15Z</time></trkpt><trkpt lat="43.53880000436983" lon="12.159016534544897"><ele>297.0</ele><time>2026-04-18T09:07:16Z</time></trkpt><trkpt lat="43.53900883645156" lon="12.158807806753977"><ele>297.0</ele><time>2026-04-18T09:07:17Z</time></trkpt><trkpt lat="43.53922079921696" lon="12.158602345713605"><ele>297.0</ele><time>2026-04-18T09:07:18Z</time></trkpt><trkpt lat="43.53943378285815" lon="12.158400176060269"><ele>298.5</ele><time>2026-04-18T09:07:19Z</time></trkpt><trkpt lat="43.539645825932084" lon="12.158195599705557"><ele>300.0</ele><time>2026-04-18T09:07:20Z</time></trkpt><trkpt lat="43.53985553479613" lon="12.15798820782211"><ele>300.0</ele><time>2026-04-18T09:07:21Z</time></trkpt><trkpt lat="43.54006554918565" lon="12.15778280629213"><ele>300.0</ele><time>2026-04-18T09:07:22Z</time></trkpt><trkpt lat="43.54027553751208" lon="12.157576920061963"><ele>301.0</ele><time>2026-04-18T09:07:23Z</time></trkpt><trkpt lat="43.54048734906845" lon="12.157374035578464"><ele>302.0</ele><time>2026-04-18T09:07:24Z</time></trkpt><trkpt lat="43.54069815075648" lon="12.157168126612204"><ele>302.5</ele><time>2026-04-18T09:07:25Z</time></trkpt><trkpt lat="43.54091132783091" lon="12.15696564732209"><ele>303.0</ele><time>2026-04-18T09:07:26Z</time></trkpt><trkpt lat="43.54112610215226" lon="12.156768335989065"><ele>303.0</ele><time>2026-04-18T09:07:27Z</time></trkpt><trkpt lat="43.54134032650292" lon="12.15656808903588"><ele>303.0</ele><time>2026-04-18T09:07:28Z</time></trkpt><trkpt lat="43.541551625487145" lon="12.156361956962407"><ele>302.0</ele><time>2026-04-18T09:07:29Z</time></trkpt><trkpt lat="43.54176212820832" lon="12.156157744876019"><ele>301.0</ele><time>2026-04-18T09:07:30Z</time></trkpt><trkpt lat="43.54197478960634" lon="12.155955458857655"><ele>301.5</ele><time>2026-04-18T09:07:31Z</time></trkpt><trkpt lat="43.5421863888884" lon="12.155753425438728"><ele>302.0</ele><time>2026-04-18T09:07:32Z</time></trkpt><trkpt lat="43.542399123390624" lon="12.155549947772819"><ele>302.0</ele><time>2026-04-18T09:07:33Z</time></trkpt><trkpt lat="43.542613578695274" lon="12.155350928045705"><ele>302.0</ele><time>2026-04-18T09:07:34Z</time></trkpt><trkpt lat="43.54282699148821" lon="12.155150529603326"><ele>302.0</ele><time>2026-04-18T09:07:35Z</time></trkpt><trkpt lat="43.54304149603462" lon="12.154950517966164"><ele>302.0</ele><time>2026-04-18T09:07:36Z</time></trkpt><trkpt lat="43.543254542033225" lon="12.154747191877002"><ele>302.0</ele><time>2026-04-18T09:07:37Z</time></trkpt><trkpt lat="43.543467670115454" lon="12.154547555392249"><ele>302.0</ele><time>2026-04-18T09:07:38Z</time></trkpt><trkpt lat="43.54367812884855" lon="12.15433895012463"><ele>302.0</ele><time>2026-04-18T09:07:39Z</time></trkpt><trkpt lat="43.54389062837348" lon="12.154133481973519"><ele>302.0</ele><time>2026-04-18T09:07:40Z</time></trkpt><trkpt lat="43.544100674813116" lon="12.153929780183763"><ele>302.0</ele><time>2026-04-18T09:07:41Z</time></trkpt><trkpt lat="43.544312025110884" lon="12.15372462039239"><ele>302.0</ele><time>2026-04-18T09:07:42Z</time></trkpt><trkpt lat="43.544523495148766" lon="12.153511392281253"><ele>302.0</ele><time>2026-04-18T09:07:43Z</time></trkpt><trkpt lat="43.54473658591892" lon="12.153312432750232"><ele>302.0</ele><time>2026-04-18T09:07:44Z</time></trkpt><trkpt lat="43.54495195181349" lon="12.153112837552762"><ele>302.0</ele><time>2026-04-18T09:07:45Z</time></trkpt><trkpt lat="43.545165272269465" lon="12.152913364614017"><ele>302.0</ele><time>2026-04-18T09:07:46Z</time></trkpt><trkpt lat="43.54537921979049" lon="12.152712291600997"><ele>302.5</ele><time>2026-04-18T09:07:47Z</time></trkpt><trkpt lat="43.545590729545076" lon="12.152507786932537"><ele>303.0</ele><time>2026-04-18T09:07:48Z</time></trkpt><trkpt lat="43.545801590827374" lon="12.152305986305118"><ele>303.5</ele><time>2026-04-18T09:07:49Z</time></trkpt><trkpt lat="43.5460119344033" lon="12.152101832132258"><ele>304.0</ele><time>2026-04-18T09:07:50Z</time></trkpt><trkpt lat="43.5462235362833" lon="12.151897839368996"><ele>304.0</ele><time>2026-04-18T09:07:51Z</time></trkpt><trkpt lat="43.54643650182702" lon="12.151691356992359"><ele>304.0</ele><time>2026-04-18T09:07:52Z</time></trkpt><trkpt lat="43.54664988661648" lon="12.151493396264256"><ele>304.0</ele><time>2026-04-18T09:07:53Z</time></trkpt><trkpt lat="43.546858563687465" lon="12.15128224297129"><ele>304.0</ele><time>2026-04-18T09:07:54Z</time></trkpt><trkpt lat="43.5470657604457" lon="12.15107551305384"><ele>304.0</ele><time>2026-04-18T09:07:55Z</time></trkpt><trkpt lat="43.54727512914402" lon="12.150863530397812"><ele>304.0</ele><time>2026-04-18T09:07:56Z</time></trkpt><trkpt lat="43.547479510469145" lon="12.150645141509706"><ele>305.0</ele><time>2026-04-18T09:07:57Z</time></trkpt><trkpt lat="43.54768026702869" lon="12.150416823320912"><ele>306.0</ele><time>2026-04-18T09:07:58Z</time></trkpt><trkpt lat="43.54788098634746" lon="12.150190926845658"><ele>306.0</ele><time>2026-04-18T09:07:59Z</time></trkpt><trkpt lat="43.548082453753615" lon="12.149967877371125"><ele>306.0</ele><time>2026-04-18T09:08:00Z</time></trkpt><trkpt lat="43.54827610899751" lon="12.149736422035899"><ele>306.0</ele><time>2026-04-18T09:08:01Z</time></trkpt><trkpt lat="43.54846772099565" lon="12.149501601019466"><ele>306.0</ele><time>2026-04-18T09:08:02Z</time></trkpt><trkpt lat="43.54865995830745" lon="12.149267362987693"><ele>307.5</ele><time>2026-04-18T09:08:03Z</time></trkpt><trkpt lat="43.548850226025166" lon="12.149026778782057"><ele>309.0</ele><time>2026-04-18T09:08:04Z</time></trkpt><trkpt lat="43.549037027793226" lon="12.148780843792965"><ele>309.0</ele><time>2026-04-18T09:08:05Z</time></trkpt><trkpt lat="43.54922571115753" lon="12.148534416567612"><ele>309.0</ele><time>2026-04-18T09:08:06Z</time></trkpt><trkpt lat="43.54941247188367" lon="12.148291678658843"><ele>308.0</ele><time>2026-04-18T09:08:07Z</time></trkpt><trkpt lat="43.54959406558966" lon="12.148040567278615"><ele>307.0</ele><time>2026-04-18T09:08:08Z</time></trkpt><trkpt lat="43.5497767598907" lon="12.14777939335769"><ele>307.0</ele><time>2026-04-18T09:08:09Z</time></trkpt><trkpt lat="43.54995445865909" lon="12.147523265023644"><ele>307.0</ele><time>2026-04-18T09:08:10Z</time></trkpt><trkpt lat="43.55013578151284" lon="12.147269580451683"><ele>307.0</ele><time>2026-04-18T09:08:11Z</time></trkpt><trkpt lat="43.550317782021395" lon="12.147017841901313"><ele>307.0</ele><time>2026-04-18T09:08:12Z</time></trkpt><trkpt lat="43.55050194611936" lon="12.146763813646853"><ele>308.5</ele><time>2026-04-18T09:08:13Z</time></trkpt><trkpt lat="43.55068566981741" lon="12.14651633514974"><ele>310.0</ele><time>2026-04-18T09:08:14Z</time></trkpt><trkpt lat="43.55086860405245" lon="12.146265011962255"><ele>310.0</ele><time>2026-04-18T09:08:15Z</time></trkpt><trkpt lat="43.55105249133194" lon="12.146010394052066"><ele>310.0</ele><time>2026-04-18T09:08:16Z</time></trkpt><trkpt lat="43.551231429969306" lon="12.145754983451729"><ele>309.0</ele><time>2026-04-18T09:08:17Z</time></trkpt><trkpt lat="43.55141108711312" lon="12.145492123306655"><ele>308.0</ele><time>2026-04-18T09:08:18Z</time></trkpt><trkpt lat="43.55159040097716" lon="12.145237530403517"><ele>308.0</ele><time>2026-04-18T09:08:19Z</time></trkpt><trkpt lat="43.551772089864" lon="12.14498339962999"><ele>308.0</ele><time>2026-04-18T09:08:20Z</time></trkpt><trkpt lat="43.551959060630885" lon="12.144733715568103"><ele>308.0</ele><time>2026-04-18T09:08:21Z</time></trkpt><trkpt lat="43.5521372762499" lon="12.144489810583654"><ele>308.0</ele><time>2026-04-18T09:08:22Z</time></trkpt><trkpt lat="43.552317081015666" lon="12.144236988654663"><ele>308.0</ele><time>2026-04-18T09:08:23Z</time></trkpt><trkpt lat="43.55250397698641" lon="12.143983735895022"><ele>308.0</ele><time>2026-04-18T09:08:24Z</time></trkpt><trkpt lat="43.55267992117114" lon="12.143732013285023"><ele>308.0</ele><time>2026-04-18T09:08:25Z</time></trkpt><trkpt lat="43.552865235213815" lon="12.143479852857475"><ele>308.0</ele><time>2026-04-18T09:08:26Z</time></trkpt><trkpt lat="43.55304590380016" lon="12.143223193895327"><ele>308.0</ele><time>2026-04-18T09:08:27Z</time></trkpt><trkpt lat="43.55323092871668" lon="12.142973749063396"><ele>308.0</ele><time>2026-04-18T09:08:28Z</time></trkpt><trkpt lat="43.55340989781448" lon="12.142722328774715"><ele>308.0</ele><time>2026-04-18T09:08:29Z</time></trkpt><trkpt lat="43.55358996597329" lon="12.142469045305265"><ele>308.0</ele><time>2026-04-18T09:08:29.999Z</time></trkpt><trkpt lat="43.5537723388629" lon="12.142215656105959"><ele>309.0</ele><time>2026-04-18T09:08:30.999Z</time></trkpt><trkpt lat="43.55394825708189" lon="12.141958069348918"><ele>310.0</ele><time>2026-04-18T09:08:31.999Z</time></trkpt><trkpt lat="43.554134976069825" lon="12.141708840735244"><ele>309.5</ele><time>2026-04-18T09:08:32.999Z</time></trkpt><trkpt lat="43.554317526205985" lon="12.141454834795734"><ele>309.0</ele><time>2026-04-18T09:08:33.999Z</time></trkpt><trkpt lat="43.554502483711424" lon="12.141202452774424"><ele>308.5</ele><time>2026-04-18T09:08:34.999Z</time></trkpt><trkpt lat="43.5546877273267" lon="12.140955202316494"><ele>308.0</ele><time>2026-04-18T09:08:35.999Z</time></trkpt><trkpt lat="43.554869402846464" lon="12.140703730652012"><ele>307.5</ele><time>2026-04-18T09:08:36.999Z</time></trkpt><trkpt lat="43.555050885952326" lon="12.140450199940759"><ele>307.0</ele><time>2026-04-18T09:08:37.999Z</time></trkpt><trkpt lat="43.555230381630295" lon="12.140193709851856"><ele>308.5</ele><time>2026-04-18T09:08:38.999Z</time></trkpt><trkpt lat="43.55540826241017" lon="12.1399360998664"><ele>310.0</ele><time>2026-04-18T09:08:39.999Z</time></trkpt><trkpt lat="43.55559274457758" lon="12.139687049672958"><ele>310.0</ele><time>2026-04-18T09:08:40.999Z</time></trkpt><trkpt lat="43.55577194206831" lon="12.139431092826094"><ele>310.0</ele><time>2026-04-18T09:08:41.999Z</time></trkpt><trkpt lat="43.55595584076342" lon="12.139182885295966"><ele>309.5</ele><time>2026-04-18T09:08:42.999Z</time></trkpt><trkpt lat="43.5561330955736" lon="12.138925418574146"><ele>309.0</ele><time>2026-04-18T09:08:43.999Z</time></trkpt><trkpt lat="43.55631661476796" lon="12.138676548534583"><ele>309.0</ele><time>2026-04-18T09:08:44.999Z</time></trkpt><trkpt lat="43.55649538942648" lon="12.138419134787851"><ele>309.0</ele><time>2026-04-18T09:08:45.999Z</time></trkpt><trkpt lat="43.556680552159825" lon="12.138172572899316"><ele>309.0</ele><time>2026-04-18T09:08:46.999Z</time></trkpt><trkpt lat="43.55686153677724" lon="12.137918907993676"><ele>309.0</ele><time>2026-04-18T09:08:47.999Z</time></trkpt><trkpt lat="43.55704579785368" lon="12.137668717642102"><ele>309.0</ele><time>2026-04-18T09:08:48.999Z</time></trkpt><trkpt lat="43.55722944840671" lon="12.137418006321187"><ele>309.0</ele><time>2026-04-18T09:08:49.999Z</time></trkpt><trkpt lat="43.55740987505505" lon="12.137162263432641"><ele>309.0</ele><time>2026-04-18T09:08:50.999Z</time></trkpt><trkpt lat="43.55759185857481" lon="12.136909984768813"><ele>309.0</ele><time>2026-04-18T09:08:51.999Z</time></trkpt><trkpt lat="43.557775472708705" lon="12.136659756099535"><ele>309.0</ele><time>2026-04-18T09:08:52.999Z</time></trkpt><trkpt lat="43.557960905799916" lon="12.136409889151995"><ele>309.0</ele><time>2026-04-18T09:08:53.999Z</time></trkpt><trkpt lat="43.558141694830084" lon="12.136154395835964"><ele>309.0</ele><time>2026-04-18T09:08:54.999Z</time></trkpt><trkpt lat="43.55832252235105" lon="12.135895882534264"><ele>309.0</ele><time>2026-04-18T09:08:55.999Z</time></trkpt><trkpt lat="43.55850719343543" lon="12.135650891638802"><ele>308.0</ele><time>2026-04-18T09:08:56.999Z</time></trkpt><trkpt lat="43.55869631316148" lon="12.135405227996738"><ele>307.0</ele><time>2026-04-18T09:08:57.999Z</time></trkpt><trkpt lat="43.55886668673484" lon="12.135144385771222"><ele>307.5</ele><time>2026-04-18T09:08:58.999Z</time></trkpt><trkpt lat="43.55904630945116" lon="12.134885315346247"><ele>308.0</ele><time>2026-04-18T09:08:59.999Z</time></trkpt><trkpt lat="43.55922780477206" lon="12.134635933402821"><ele>308.0</ele><time>2026-04-18T09:09:00.999Z</time></trkpt><trkpt lat="43.55940916751263" lon="12.134383881841469"><ele>308.0</ele><time>2026-04-18T09:09:01.999Z</time></trkpt><trkpt lat="43.55959115555056" lon="12.134128293371063"><ele>307.5</ele><time>2026-04-18T09:09:02.999Z</time></trkpt><trkpt lat="43.55977025894281" lon="12.133872702591548"><ele>307.0</ele><time>2026-04-18T09:09:03.999Z</time></trkpt><trkpt lat="43.55995206917458" lon="12.133632444250312"><ele>307.0</ele><time>2026-04-18T09:09:04.999Z</time></trkpt><trkpt lat="43.560132487991545" lon="12.133375910262693"><ele>307.0</ele><time>2026-04-18T09:09:05.999Z</time></trkpt><trkpt lat="43.56031402503744" lon="12.133117603980837"><ele>306.0</ele><time>2026-04-18T09:09:06.999Z</time></trkpt><trkpt lat="43.5604979646246" lon="12.132865863928304"><ele>305.0</ele><time>2026-04-18T09:09:07.999Z</time></trkpt><trkpt lat="43.56067719658203" lon="12.132615169815196"><ele>306.0</ele><time>2026-04-18T09:09:08.999Z</time></trkpt><trkpt lat="43.56086177346731" lon="12.132366290382327"><ele>307.0</ele><time>2026-04-18T09:09:09.999Z</time></trkpt><trkpt lat="43.561041950611525" lon="12.132117430057377"><ele>307.5</ele><time>2026-04-18T09:09:10.999Z</time></trkpt><trkpt lat="43.56122248357646" lon="12.131867792671718"><ele>308.0</ele><time>2026-04-18T09:09:11.999Z</time></trkpt><trkpt lat="43.56140584846347" lon="12.131611984943119"><ele>308.0</ele><time>2026-04-18T09:09:12.999Z</time></trkpt><trkpt lat="43.561585892991566" lon="12.131357439235204"><ele>308.0</ele><time>2026-04-18T09:09:13.999Z</time></trkpt><trkpt lat="43.561766282225" lon="12.131096301243105"><ele>308.0</ele><time>2026-04-18T09:09:14.999Z</time></trkpt><trkpt lat="43.5619487857751" lon="12.130835255227064"><ele>308.0</ele><time>2026-04-18T09:09:15.999Z</time></trkpt><trkpt lat="43.56213419739701" lon="12.130578539341958"><ele>307.5</ele><time>2026-04-18T09:09:16.999Z</time></trkpt><trkpt lat="43.562315683279344" lon="12.130332263512692"><ele>307.0</ele><time>2026-04-18T09:09:17.999Z</time></trkpt><trkpt lat="43.562491779853175" lon="12.13008675975718"><ele>306.5</ele><time>2026-04-18T09:09:18.999Z</time></trkpt><trkpt lat="43.56266158621263" lon="12.129852967191512"><ele>306.0</ele><time>2026-04-18T09:09:20Z</time></trkpt><trkpt lat="43.5628251286104" lon="12.12963370166204"><ele>306.6666666666667</ele><time>2026-04-18T09:09:21Z</time></trkpt><trkpt lat="43.562975732118815" lon="12.129418427653444"><ele>307.33333333333337</ele><time>2026-04-18T09:09:22Z</time></trkpt><trkpt lat="43.563124782617805" lon="12.129204926398911"><ele>308.0</ele><time>2026-04-18T09:09:23Z</time></trkpt><trkpt lat="43.56327752810067" lon="12.128996467361327"><ele>308.6666666666667</ele><time>2026-04-18T09:09:24Z</time></trkpt><trkpt lat="43.56343129957366" lon="12.128788236402361"><ele>309.3333333333333</ele><time>2026-04-18T09:09:25Z</time></trkpt><trkpt lat="43.563582683886125" lon="12.128581514333789"><ele>310.0</ele><time>2026-04-18T09:09:26Z</time></trkpt><trkpt lat="43.56372865611071" lon="12.12836946342929"><ele>310.66666666666663</ele><time>2026-04-18T09:09:27Z</time></trkpt><trkpt lat="43.56387605757386" lon="12.128160499566132"><ele>311.3333333333333</ele><time>2026-04-18T09:09:28Z</time></trkpt><trkpt lat="43.56402670218207" lon="12.127952412391956"><ele>312.0</ele><time>2026-04-18T09:09:29Z</time></trkpt><trkpt lat="43.564174288645376" lon="12.127750144813469"><ele>312.0</ele><time>2026-04-18T09:09:30Z</time></trkpt><trkpt lat="43.56432490774459" lon="12.127550202690596"><ele>312.0</ele><time>2026-04-18T09:09:31Z</time></trkpt><trkpt lat="43.564469664129355" lon="12.127352854559367"><ele>312.0</ele><time>2026-04-18T09:09:32Z</time></trkpt><trkpt lat="43.564610334220646" lon="12.127155818006685"><ele>312.0</ele><time>2026-04-18T09:09:33Z</time></trkpt><trkpt lat="43.56475207161359" lon="12.1269549378237"><ele>312.0</ele><time>2026-04-18T09:09:34Z</time></trkpt><trkpt lat="43.56489361508174" lon="12.126758322848044"><ele>312.0</ele><time>2026-04-18T09:09:35Z</time></trkpt><trkpt lat="43.565043120175176" lon="12.126564816830461"><ele>311.3333333333333</ele><time>2026-04-18T09:09:36Z</time></trkpt><trkpt lat="43.5651915685265" lon="12.126378568018316"><ele>310.66666666666663</ele><time>2026-04-18T09:09:37Z</time></trkpt><trkpt lat="43.56534319121593" lon="12.126196625049573"><ele>310.0</ele><time>2026-04-18T09:09:38Z</time></trkpt><trkpt lat="43.56549198664904" lon="12.12601952953358"><ele>309.66666666666663</ele><time>2026-04-18T09:09:39Z</time></trkpt><trkpt lat="43.565638035552496" lon="12.125845364015378"><ele>309.3333333333333</ele><time>2026-04-18T09:09:40Z</time></trkpt><trkpt lat="43.56578837756209" lon="12.125673345724556"><ele>309.0</ele><time>2026-04-18T09:09:41Z</time></trkpt><trkpt lat="43.565935906460226" lon="12.125501113590463"><ele>309.3333333333333</ele><time>2026-04-18T09:09:42Z</time></trkpt><trkpt lat="43.56608236098418" lon="12.125325705822485"><ele>309.66666666666663</ele><time>2026-04-18T09:09:43Z</time></trkpt><trkpt lat="43.566231898191454" lon="12.125150938962344"><ele>310.0</ele><time>2026-04-18T09:09:44Z</time></trkpt><trkpt lat="43.56638477759109" lon="12.124983118122067"><ele>309.66666666666663</ele><time>2026-04-18T09:09:45Z</time></trkpt><trkpt lat="43.566548361969424" lon="12.124818945807725"><ele>309.3333333333333</ele><time>2026-04-18T09:09:46Z</time></trkpt><trkpt lat="43.566709397977085" lon="12.124657733602293"><ele>309.0</ele><time>2026-04-18T09:09:47Z</time></trkpt><trkpt lat="43.56687015024931" lon="12.1244946837085"><ele>309.3333333333333</ele><time>2026-04-18T09:09:48Z</time></trkpt><trkpt lat="43.5670312549775" lon="12.124332650645787"><ele>309.66666666666663</ele><time>2026-04-18T09:09:49Z</time></trkpt><trkpt lat="43.56719676221533" lon="12.124173605291407"><ele>310.0</ele><time>2026-04-18T09:09:50Z</time></trkpt><trkpt lat="43.56736544570244" lon="12.124019548788407"><ele>310.0</ele><time>2026-04-18T09:09:51Z</time></trkpt><trkpt lat="43.56753529159881" lon="12.123869292984672"><ele>310.0</ele><time>2026-04-18T09:09:52Z</time></trkpt><trkpt lat="43.56770411416274" lon="12.123720432572947"><ele>310.0</ele><time>2026-04-18T09:09:53Z</time></trkpt><trkpt lat="43.56787777753388" lon="12.123575590620506"><ele>310.3333333333333</ele><time>2026-04-18T09:09:54Z</time></trkpt><trkpt lat="43.56805023777826" lon="12.123434953124201"><ele>310.6666666666667</ele><time>2026-04-18T09:09:55Z</time></trkpt><trkpt lat="43.5682239999901" lon="12.123298084669305"><ele>311.0</ele><time>2026-04-18T09:09:56Z</time></trkpt><trkpt lat="43.56839409443986" lon="12.123159985783836"><ele>311.0</ele><time>2026-04-18T09:09:57Z</time></trkpt><trkpt lat="43.56856336170003" lon="12.123018863750259"><ele>311.0</ele><time>2026-04-18T09:09:58Z</time></trkpt><trkpt lat="43.56874014726758" lon="12.122881835818651"><ele>311.0</ele><time>2026-04-18T09:09:59Z</time></trkpt><trkpt lat="43.56891513772805" lon="12.122744841081605"><ele>311.0</ele><time>2026-04-18T09:10:00Z</time></trkpt><trkpt lat="43.56909194728154" lon="12.122610368048052"><ele>311.0</ele><time>2026-04-18T09:10:01Z</time></trkpt><trkpt lat="43.56927228447403" lon="12.122482136047502"><ele>311.0</ele><time>2026-04-18T09:10:02Z</time></trkpt><trkpt lat="43.56945212234109" lon="12.122359673328017"><ele>312.33333333333337</ele><time>2026-04-18T09:10:03Z</time></trkpt><trkpt lat="43.56964071510831" lon="12.12224698278644"><ele>313.6666666666667</ele><time>2026-04-18T09:10:04Z</time></trkpt><trkpt lat="43.569823553225646" lon="12.122130232313408"><ele>315.0</ele><time>2026-04-18T09:10:05Z</time></trkpt><trkpt lat="43.57000936292881" lon="12.122015786081116"><ele>315.0</ele><time>2026-04-18T09:10:06Z</time></trkpt><trkpt lat="43.57019404202457" lon="12.12189943787386"><ele>315.0</ele><time>2026-04-18T09:10:07Z</time></trkpt><trkpt lat="43.57037728134749" lon="12.121784183912046"><ele>315.0</ele><time>2026-04-18T09:10:08Z</time></trkpt><trkpt lat="43.57056391096099" lon="12.121672563926706"><ele>315.0</ele><time>2026-04-18T09:10:09Z</time></trkpt><trkpt lat="43.57075220866127" lon="12.121562830389632"><ele>315.0</ele><time>2026-04-18T09:10:10Z</time></trkpt><trkpt lat="43.57093778719347" lon="12.121453291932072"><ele>315.0</ele><time>2026-04-18T09:10:11Z</time></trkpt><trkpt lat="43.5711235532714" lon="12.121343719909644"><ele>315.0</ele><time>2026-04-18T09:10:12Z</time></trkpt><trkpt lat="43.57130918196893" lon="12.121233738069538"><ele>315.0</ele><time>2026-04-18T09:10:13Z</time></trkpt><trkpt lat="43.57149564447636" lon="12.121124427785114"><ele>315.0</ele><time>2026-04-18T09:10:14Z</time></trkpt><trkpt lat="43.5716810445406" lon="12.12101660319343"><ele>315.0</ele><time>2026-04-18T09:10:15Z</time></trkpt><trkpt lat="43.57186356907495" lon="12.120907697552816"><ele>315.0</ele><time>2026-04-18T09:10:16Z</time></trkpt><trkpt lat="43.57204515119588" lon="12.120795295191085"><ele>315.0</ele><time>2026-04-18T09:10:17Z</time></trkpt><trkpt lat="43.57222759998277" lon="12.120687211056008"><ele>315.3333333333333</ele><time>2026-04-18T09:10:18Z</time></trkpt><trkpt lat="43.572409637745594" lon="12.12058190350372"><ele>315.66666666666663</ele><time>2026-04-18T09:10:19Z</time></trkpt><trkpt lat="43.57258623455843" lon="12.120475575398794"><ele>316.0</ele><time>2026-04-18T09:10:20Z</time></trkpt><trkpt lat="43.572766561596225" lon="12.120377321408416"><ele>316.3333333333333</ele><time>2026-04-18T09:10:21Z</time></trkpt><trkpt lat="43.572937653459086" lon="12.120276267448906"><ele>316.6666666666667</ele><time>2026-04-18T09:10:22Z</time></trkpt><trkpt lat="43.57310978639008" lon="12.120176618767358"><ele>317.0</ele><time>2026-04-18T09:10:23Z</time></trkpt><trkpt lat="43.57327828197308" lon="12.120076741170315"><ele>317.0</ele><time>2026-04-18T09:10:24Z</time></trkpt><trkpt lat="43.573447939034395" lon="12.119971262245144"><ele>317.0</ele><time>2026-04-18T09:10:25Z</time></trkpt><trkpt lat="43.57362431399366" lon="12.119864730546697"><ele>317.0</ele><time>2026-04-18T09:10:26Z</time></trkpt><trkpt lat="43.573801636352854" lon="12.119756496707344"><ele>316.6666666666667</ele><time>2026-04-18T09:10:27Z</time></trkpt><trkpt lat="43.57398179647109" lon="12.119650944788459"><ele>316.3333333333333</ele><time>2026-04-18T09:10:28Z</time></trkpt><trkpt lat="43.57416243130708" lon="12.119542978239268"><ele>316.0</ele><time>2026-04-18T09:10:29Z</time></trkpt><trkpt lat="43.574344765603975" lon="12.119432516019641"><ele>316.66666666666663</ele><time>2026-04-18T09:10:30Z</time></trkpt><trkpt lat="43.574528006256145" lon="12.119324641492407"><ele>317.3333333333333</ele><time>2026-04-18T09:10:31Z</time></trkpt><trkpt lat="43.57471510424229" lon="12.119217330709464"><ele>318.0</ele><time>2026-04-18T09:10:32Z</time></trkpt><trkpt lat="43.57489685185656" lon="12.119107246884763"><ele>317.6666666666667</ele><time>2026-04-18T09:10:33Z</time></trkpt><trkpt lat="43.57508488641005" lon="12.118997663628427"><ele>317.33333333333337</ele><time>2026-04-18T09:10:34Z</time></trkpt><trkpt lat="43.57527062713161" lon="12.11888548000785"><ele>317.0</ele><time>2026-04-18T09:10:35Z</time></trkpt><trkpt lat="43.57546006498938" lon="12.118773346782373"><ele>317.6666666666667</ele><time>2026-04-18T09:10:36Z</time></trkpt><trkpt lat="43.575646846678566" lon="12.11865928979267"><ele>318.3333333333333</ele><time>2026-04-18T09:10:37Z</time></trkpt><trkpt lat="43.57583860056635" lon="12.118547166592116"><ele>319.0</ele><time>2026-04-18T09:10:38Z</time></trkpt><trkpt lat="43.57602106002932" lon="12.118432663251857"><ele>319.0</ele><time>2026-04-18T09:10:39Z</time></trkpt><trkpt lat="43.576211928313285" lon="12.118319470404831"><ele>319.0</ele><time>2026-04-18T09:10:40Z</time></trkpt><trkpt lat="43.57640178646114" lon="12.118208468259613"><ele>319.0</ele><time>2026-04-18T09:10:41Z</time></trkpt><trkpt lat="43.576586100276316" lon="12.118094280024254"><ele>319.0</ele><time>2026-04-18T09:10:42Z</time></trkpt><trkpt lat="43.57677583899939" lon="12.117981460357912"><ele>319.0</ele><time>2026-04-18T09:10:43Z</time></trkpt><trkpt lat="43.57696458854391" lon="12.117869212288106"><ele>319.0</ele><time>2026-04-18T09:10:44Z</time></trkpt><trkpt lat="43.57715174820171" lon="12.117756008444909"><ele>319.3333333333333</ele><time>2026-04-18T09:10:45Z</time></trkpt><trkpt lat="43.57733915503152" lon="12.117642143111112"><ele>319.6666666666667</ele><time>2026-04-18T09:10:46Z</time></trkpt><trkpt lat="43.57753247550534" lon="12.117530614766675"><ele>320.0</ele><time>2026-04-18T09:10:47Z</time></trkpt><trkpt lat="43.5777263830498" lon="12.117420562614384"><ele>320.6666666666667</ele><time>2026-04-18T09:10:48Z</time></trkpt><trkpt lat="43.57791701262694" lon="12.117307777633963"><ele>321.3333333333333</ele><time>2026-04-18T09:10:49Z</time></trkpt><trkpt lat="43.57811213288149" lon="12.11719613054246"><ele>322.0</ele><time>2026-04-18T09:10:50Z</time></trkpt><trkpt lat="43.57830743141439" lon="12.11708449883658"><ele>322.0</ele><time>2026-04-18T09:10:51Z</time></trkpt><trkpt lat="43.578494047816676" lon="12.116968185297956"><ele>322.0</ele><time>2026-04-18T09:10:51.999Z</time></trkpt><trkpt lat="43.578685438899925" lon="12.116854166524318"><ele>322.0</ele><time>2026-04-18T09:10:52.999Z</time></trkpt><trkpt lat="43.578876907158154" lon="12.116741589962308"><ele>322.66666666666663</ele><time>2026-04-18T09:10:53.999Z</time></trkpt><trkpt lat="43.57907085838665" lon="12.11663167246757"><ele>323.3333333333333</ele><time>2026-04-18T09:10:54.999Z</time></trkpt><trkpt lat="43.57926481478574" lon="12.116520695286681"><ele>324.0</ele><time>2026-04-18T09:10:55.999Z</time></trkpt><trkpt lat="43.579463109805" lon="12.116400858992417"><ele>323.3333333333333</ele><time>2026-04-18T09:10:56.999Z</time></trkpt><trkpt lat="43.57964664560121" lon="12.11628123991101"><ele>322.66666666666663</ele><time>2026-04-18T09:10:57.999Z</time></trkpt><trkpt lat="43.57982795411969" lon="12.116173415211293"><ele>322.0</ele><time>2026-04-18T09:10:58.999Z</time></trkpt><trkpt lat="43.58001035232104" lon="12.116055888968802"><ele>322.0</ele><time>2026-04-18T09:10:59.999Z</time></trkpt><trkpt lat="43.580196663811016" lon="12.115938634834034"><ele>322.0</ele><time>2026-04-18T09:11:00.999Z</time></trkpt><trkpt lat="43.580381892117956" lon="12.115820613013323"><ele>322.0</ele><time>2026-04-18T09:11:01.999Z</time></trkpt><trkpt lat="43.58056474446461" lon="12.115694339019116"><ele>321.66666666666663</ele><time>2026-04-18T09:11:02.999Z</time></trkpt><trkpt lat="43.580736429240446" lon="12.115548688941438"><ele>321.3333333333333</ele><time>2026-04-18T09:11:03.999Z</time></trkpt><trkpt lat="43.58090793108912" lon="12.115397124669059"><ele>321.0</ele><time>2026-04-18T09:11:04.999Z</time></trkpt><trkpt lat="43.58107465225112" lon="12.115236059150183"><ele>322.3333333333333</ele><time>2026-04-18T09:11:05.999Z</time></trkpt><trkpt lat="43.581237070792945" lon="12.1150667354845"><ele>323.66666666666663</ele><time>2026-04-18T09:11:06.999Z</time></trkpt><trkpt lat="43.58139994647217" lon="12.114891732390493"><ele>325.0</ele><time>2026-04-18T09:11:07.999Z</time></trkpt><trkpt lat="43.581560131955406" lon="12.114711417546905"><ele>325.0</ele><time>2026-04-18T09:11:08.999Z</time></trkpt><trkpt lat="43.581715647429" lon="12.114523157881639"><ele>325.0</ele><time>2026-04-18T09:11:09.999Z</time></trkpt><trkpt lat="43.5818609684101" lon="12.114331407406354"><ele>325.0</ele><time>2026-04-18T09:11:10.999Z</time></trkpt><trkpt lat="43.582009121835576" lon="12.114140582357354"><ele>324.66666666666663</ele><time>2026-04-18T09:11:11.999Z</time></trkpt><trkpt lat="43.58216083843987" lon="12.113950231623786"><ele>324.3333333333333</ele><time>2026-04-18T09:11:12.999Z</time></trkpt><trkpt lat="43.58230902770119" lon="12.113753112152024"><ele>324.0</ele><time>2026-04-18T09:11:13.999Z</time></trkpt><trkpt lat="43.58245492777896" lon="12.113557125924217"><ele>324.0</ele><time>2026-04-18T09:11:14.999Z</time></trkpt><trkpt lat="43.58260134202121" lon="12.113362073929851"><ele>324.0</ele><time>2026-04-18T09:11:15.999Z</time></trkpt><trkpt lat="43.58274244679444" lon="12.113163374786817"><ele>324.0</ele><time>2026-04-18T09:11:16.999Z</time></trkpt><trkpt lat="43.58289124555763" lon="12.112968941225086"><ele>324.0</ele><time>2026-04-18T09:11:17.999Z</time></trkpt><trkpt lat="43.58303535120312" lon="12.11276741469363"><ele>324.0</ele><time>2026-04-18T09:11:18.999Z</time></trkpt><trkpt lat="43.58318593747506" lon="12.112574647969165"><ele>324.0</ele><time>2026-04-18T09:11:19.999Z</time></trkpt><trkpt lat="43.58333332973512" lon="12.112381435973202"><ele>323.6666666666667</ele><time>2026-04-18T09:11:20.999Z</time></trkpt><trkpt lat="43.58347785191794" lon="12.112187533079506"><ele>323.33333333333337</ele><time>2026-04-18T09:11:21.999Z</time></trkpt><trkpt lat="43.583622989999796" lon="12.111994711729308"><ele>323.0</ele><time>2026-04-18T09:11:22.999Z</time></trkpt><trkpt lat="43.58376620847868" lon="12.111805848486865"><ele>325.33333333333337</ele><time>2026-04-18T09:11:23.999Z</time></trkpt><trkpt lat="43.583903803853154" lon="12.111637522976006"><ele>327.6666666666667</ele><time>2026-04-18T09:11:24.999Z</time></trkpt><trkpt lat="43.584038773125265" lon="12.11146116027732"><ele>330.0</ele><time>2026-04-18T09:11:26Z</time></trkpt><trkpt lat="43.584167245378005" lon="12.11129095511657"><ele>330.0</ele><time>2026-04-18T09:11:27Z</time></trkpt><trkpt lat="43.58429860838441" lon="12.111125828176748"><ele>330.0</ele><time>2026-04-18T09:11:28Z</time></trkpt><trkpt lat="43.584428826970054" lon="12.110969785512836"><ele>330.0</ele><time>2026-04-18T09:11:29Z</time></trkpt><trkpt lat="43.58455274652622" lon="12.110815477012597"><ele>331.6666666666667</ele><time>2026-04-18T09:11:30Z</time></trkpt><trkpt lat="43.58467736398687" lon="12.110655963980616"><ele>333.33333333333337</ele><time>2026-04-18T09:11:31Z</time></trkpt><trkpt lat="43.5847926127838" lon="12.110502771857966"><ele>335.0</ele><time>2026-04-18T09:11:32Z</time></trkpt><trkpt lat="43.58489892636149" lon="12.110359963054979"><ele>335.0</ele><time>2026-04-18T09:11:33Z</time></trkpt><trkpt lat="43.58499642293182" lon="12.110250662990111"><ele>335.0</ele><time>2026-04-18T09:11:34Z</time></trkpt><trkpt lat="43.58509135986152" lon="12.110165518126559"><ele>335.0</ele><time>2026-04-18T09:11:35Z</time></trkpt><trkpt lat="43.58522907036295" lon="12.110216719903839"><ele>335.0</ele><time>2026-04-18T09:11:36Z</time></trkpt><trkpt lat="43.585346930212594" lon="12.110273802344109"><ele>335.5</ele><time>2026-04-18T09:11:37Z</time></trkpt><trkpt lat="43.58544651679477" lon="12.110377091974984"><ele>336.0</ele><time>2026-04-18T09:11:38Z</time></trkpt><trkpt lat="43.58554389998335" lon="12.110466034475595"><ele>336.5</ele><time>2026-04-18T09:11:39Z</time></trkpt><trkpt lat="43.585637456196125" lon="12.110542768730891"><ele>337.0</ele><time>2026-04-18T09:11:40Z</time></trkpt><trkpt lat="43.58572462616543" lon="12.110619920980557"><ele>337.0</ele><time>2026-04-18T09:11:41Z</time></trkpt><trkpt lat="43.585811304159535" lon="12.110699636493713"><ele>337.0</ele><time>2026-04-18T09:11:42Z</time></trkpt><trkpt lat="43.58589661561485" lon="12.110785160489147"><ele>337.0</ele><time>2026-04-18T09:11:43Z</time></trkpt><trkpt lat="43.58597829480312" lon="12.110872953345877"><ele>337.0</ele><time>2026-04-18T09:11:44Z</time></trkpt><trkpt lat="43.586063448409774" lon="12.110972035013988"><ele>337.0</ele><time>2026-04-18T09:11:45Z</time></trkpt><trkpt lat="43.58614128997891" lon="12.111072204699694"><ele>339.20000000000005</ele><time>2026-04-18T09:11:46Z</time></trkpt><trkpt lat="43.586214618323815" lon="12.111153743960703"><ele>341.4</ele><time>2026-04-18T09:11:47Z</time></trkpt><trkpt lat="43.586263898172554" lon="12.111241326852843"><ele>343.6</ele><time>2026-04-18T09:11:48Z</time></trkpt><trkpt lat="43.58633690918784" lon="12.11135710436332"><ele>345.79999999999995</ele><time>2026-04-18T09:11:50Z</time></trkpt><trkpt lat="43.58642713339487" lon="12.111396837951343"><ele>348.0</ele><time>2026-04-18T09:11:53Z</time></trkpt><trkpt lat="43.586540738288925" lon="12.1112981181146"><ele>348.0</ele><time>2026-04-18T09:11:55Z</time></trkpt><trkpt lat="43.58659848301479" lon="12.1112240758057"><ele>348.0</ele><time>2026-04-18T09:11:56Z</time></trkpt><trkpt lat="43.58666338223793" lon="12.111134844413026"><ele>348.0</ele><time>2026-04-18T09:11:57Z</time></trkpt><trkpt lat="43.58672108810876" lon="12.111059817841596"><ele>348.0</ele><time>2026-04-18T09:11:58Z</time></trkpt><trkpt lat="43.58679430634547" lon="12.110946990025552"><ele>348.0</ele><time>2026-04-18T09:11:59Z</time></trkpt><trkpt lat="43.58687807137165" lon="12.110821152175857"><ele>347.25</ele><time>2026-04-18T09:12:00Z</time></trkpt><trkpt lat="43.586965668465744" lon="12.110692419730965"><ele>346.5</ele><time>2026-04-18T09:12:01Z</time></trkpt><trkpt lat="43.58705675652546" lon="12.110553164853913"><ele>345.75</ele><time>2026-04-18T09:12:02Z</time></trkpt><trkpt lat="43.587141514207204" lon="12.110389604387123"><ele>345.0</ele><time>2026-04-18T09:12:03Z</time></trkpt><trkpt lat="43.58722095394597" lon="12.110214835199724"><ele>347.6666666666667</ele><time>2026-04-18T09:12:04Z</time></trkpt><trkpt lat="43.587293885833134" lon="12.110028651042947"><ele>350.33333333333337</ele><time>2026-04-18T09:12:05Z</time></trkpt><trkpt lat="43.58735270579599" lon="12.109827791596722"><ele>353.0</ele><time>2026-04-18T09:12:06Z</time></trkpt><trkpt lat="43.58740607614575" lon="12.10962217685469"><ele>353.0</ele><time>2026-04-18T09:12:07Z</time></trkpt><trkpt lat="43.58745078060404" lon="12.109412132111196"><ele>353.0</ele><time>2026-04-18T09:12:08Z</time></trkpt><trkpt lat="43.58750029405875" lon="12.109203994275228"><ele>353.0</ele><time>2026-04-18T09:12:09Z</time></trkpt><trkpt lat="43.587555343017996" lon="12.108982414038858"><ele>353.0</ele><time>2026-04-18T09:12:10Z</time></trkpt><trkpt lat="43.58761062717465" lon="12.108765498100437"><ele>353.0</ele><time>2026-04-18T09:12:11Z</time></trkpt><trkpt lat="43.58766792635046" lon="12.10854658763802"><ele>353.0</ele><time>2026-04-18T09:12:12Z</time></trkpt><trkpt lat="43.587722281956545" lon="12.108325425964777"><ele>353.6666666666667</ele><time>2026-04-18T09:12:13Z</time></trkpt><trkpt lat="43.5877827654612" lon="12.108106627148484"><ele>354.3333333333333</ele><time>2026-04-18T09:12:14Z</time></trkpt><trkpt lat="43.58784105544949" lon="12.107885154437215"><ele>355.0</ele><time>2026-04-18T09:12:15Z</time></trkpt><trkpt lat="43.58789693475752" lon="12.10766890210159"><ele>357.3333333333333</ele><time>2026-04-18T09:12:16Z</time></trkpt><trkpt lat="43.58795667505662" lon="12.107456255536677"><ele>359.6666666666667</ele><time>2026-04-18T09:12:17Z</time></trkpt><trkpt lat="43.58802307331218" lon="12.10724473829965"><ele>362.0</ele><time>2026-04-18T09:12:18Z</time></trkpt><trkpt lat="43.58812469221849" lon="12.107066839649823"><ele>362.0</ele><time>2026-04-18T09:12:19Z</time></trkpt><trkpt lat="43.58823051770285" lon="12.106896983917101"><ele>362.0</ele><time>2026-04-18T09:12:20Z</time></trkpt><trkpt lat="43.58835608995594" lon="12.106740410892966"><ele>362.0</ele><time>2026-04-18T09:12:21Z</time></trkpt><trkpt lat="43.58848749939841" lon="12.106609380022334"><ele>363.0</ele><time>2026-04-18T09:12:22Z</time></trkpt><trkpt lat="43.588618922903144" lon="12.10648743906664"><ele>364.0</ele><time>2026-04-18T09:12:23Z</time></trkpt><trkpt lat="43.58875561885803" lon="12.106364031108903"><ele>365.0</ele><time>2026-04-18T09:12:24Z</time></trkpt><trkpt lat="43.58889057110526" lon="12.106242197379903"><ele>365.0</ele><time>2026-04-18T09:12:25Z</time></trkpt><trkpt lat="43.589025493570205" lon="12.106120152740282"><ele>365.0</ele><time>2026-04-18T09:12:26Z</time></trkpt><trkpt lat="43.589163486767546" lon="12.105995202727314"><ele>365.0</ele><time>2026-04-18T09:12:27Z</time></trkpt><trkpt lat="43.58928912869727" lon="12.105860469377518"><ele>364.0</ele><time>2026-04-18T09:12:28Z</time></trkpt><trkpt lat="43.58943094223205" lon="12.105738881540244"><ele>363.0</ele><time>2026-04-18T09:12:29Z</time></trkpt><trkpt lat="43.589570427640965" lon="12.105616476156737"><ele>362.0</ele><time>2026-04-18T09:12:30Z</time></trkpt><trkpt lat="43.589712594479494" lon="12.10548686330515"><ele>362.0</ele><time>2026-04-18T09:12:31Z</time></trkpt><trkpt lat="43.58985552750195" lon="12.105356010984508"><ele>362.0</ele><time>2026-04-18T09:12:32Z</time></trkpt><trkpt lat="43.59000304522832" lon="12.105215191321138"><ele>362.0</ele><time>2026-04-18T09:12:33Z</time></trkpt><trkpt lat="43.59014969144404" lon="12.105083707023375"><ele>362.0</ele><time>2026-04-18T09:12:34Z</time></trkpt><trkpt lat="43.590298983841464" lon="12.104949257337873"><ele>362.0</ele><time>2026-04-18T09:12:35Z</time></trkpt><trkpt lat="43.59044784355385" lon="12.10481569351877"><ele>362.0</ele><time>2026-04-18T09:12:36Z</time></trkpt><trkpt lat="43.59060077998135" lon="12.10468047408476"><ele>364.33333333333337</ele><time>2026-04-18T09:12:37Z</time></trkpt><trkpt lat="43.59075471891404" lon="12.104542201321781"><ele>366.6666666666667</ele><time>2026-04-18T09:12:38Z</time></trkpt><trkpt lat="43.590901854385" lon="12.104402149466507"><ele>369.0</ele><time>2026-04-18T09:12:39Z</time></trkpt><trkpt lat="43.591045470297836" lon="12.104266403587102"><ele>369.0</ele><time>2026-04-18T09:12:40Z</time></trkpt><trkpt lat="43.59119253290299" lon="12.10416836671809"><ele>369.0</ele><time>2026-04-18T09:12:41Z</time></trkpt><trkpt lat="43.591331252513605" lon="12.104087829748812"><ele>369.0</ele><time>2026-04-18T09:12:42Z</time></trkpt><trkpt lat="43.591477661248014" lon="12.104045047135186"><ele>369.0</ele><time>2026-04-18T09:12:43Z</time></trkpt><trkpt lat="43.59162327335921" lon="12.104029461930013"><ele>369.0</ele><time>2026-04-18T09:12:44Z</time></trkpt><trkpt lat="43.5917636692564" lon="12.104039682312754"><ele>369.0</ele><time>2026-04-18T09:12:45Z</time></trkpt><trkpt lat="43.59190841616926" lon="12.104078554202506"><ele>369.0</ele><time>2026-04-18T09:12:46Z</time></trkpt><trkpt lat="43.59205306740554" lon="12.104125989896957"><ele>370.6666666666667</ele><time>2026-04-18T09:12:47Z</time></trkpt><trkpt lat="43.592200768492944" lon="12.10417799822788"><ele>372.33333333333337</ele><time>2026-04-18T09:12:48Z</time></trkpt><trkpt lat="43.59235405452219" lon="12.104213323340089"><ele>374.0</ele><time>2026-04-18T09:12:49Z</time></trkpt><trkpt lat="43.592509437911524" lon="12.104259471371922"><ele>374.0</ele><time>2026-04-18T09:12:50Z</time></trkpt><trkpt lat="43.59267067834553" lon="12.104283216841408"><ele>374.0</ele><time>2026-04-18T09:12:51Z</time></trkpt><trkpt lat="43.59283602862899" lon="12.104254215011846"><ele>374.0</ele><time>2026-04-18T09:12:52Z</time></trkpt><trkpt lat="43.59298872202634" lon="12.104163180385621"><ele>378.0</ele><time>2026-04-18T09:12:53Z</time></trkpt><trkpt lat="43.593119846886104" lon="12.104017096325606"><ele>382.0</ele><time>2026-04-18T09:12:54Z</time></trkpt><trkpt lat="43.59321477821695" lon="12.103826899409091"><ele>386.0</ele><time>2026-04-18T09:12:55Z</time></trkpt><trkpt lat="43.593278808008904" lon="12.103608747869528"><ele>386.0</ele><time>2026-04-18T09:12:56Z</time></trkpt><trkpt lat="43.59334778062665" lon="12.103386134198718"><ele>386.0</ele><time>2026-04-18T09:12:57Z</time></trkpt><trkpt lat="43.593356950037226" lon="12.103142609796986"><ele>386.0</ele><time>2026-04-18T09:12:58Z</time></trkpt><trkpt lat="43.593226125559816" lon="12.102918199036614"><ele>388.0</ele><time>2026-04-18T09:12:59Z</time></trkpt><trkpt lat="43.593129506880544" lon="12.102705136096741"><ele>390.0</ele><time>2026-04-18T09:13:00Z</time></trkpt><trkpt lat="43.59301423746223" lon="12.102514879467057"><ele>392.0</ele><time>2026-04-18T09:13:01Z</time></trkpt><trkpt lat="43.59289210351149" lon="12.102334440669495"><ele>387.66666666666663</ele><time>2026-04-18T09:13:02Z</time></trkpt><trkpt lat="43.59276323695436" lon="12.102158264667358"><ele>383.3333333333333</ele><time>2026-04-18T09:13:03Z</time></trkpt><trkpt lat="43.59263500092618" lon="12.101987998651621"><ele>379.0</ele><time>2026-04-18T09:13:04Z</time></trkpt><trkpt lat="43.59251762331456" lon="12.101825940412123"><ele>379.0</ele><time>2026-04-18T09:13:04.999Z</time></trkpt><trkpt lat="43.59241256011735" lon="12.101653591086489"><ele>379.0</ele><time>2026-04-18T09:13:05.999Z</time></trkpt><trkpt lat="43.592324558097395" lon="12.101451063825328"><ele>379.0</ele><time>2026-04-18T09:13:06.999Z</time></trkpt><trkpt lat="43.59223895706081" lon="12.101231389664454"><ele>381.66666666666663</ele><time>2026-04-18T09:13:07.999Z</time></trkpt><trkpt lat="43.59214829544612" lon="12.101003760362131"><ele>384.3333333333333</ele><time>2026-04-18T09:13:08.999Z</time></trkpt><trkpt lat="43.59205668508426" lon="12.100774788656521"><ele>387.0</ele><time>2026-04-18T09:13:09.999Z</time></trkpt><trkpt lat="43.59196414063996" lon="12.100550919135813"><ele>381.0</ele><time>2026-04-18T09:13:10.999Z</time></trkpt><trkpt lat="43.59188105947929" lon="12.100341469650001"><ele>375.0</ele><time>2026-04-18T09:13:11.999Z</time></trkpt><trkpt lat="43.59182565039383" lon="12.100143367757713"><ele>369.0</ele><time>2026-04-18T09:13:12.999Z</time></trkpt><trkpt lat="43.5918435927916" lon="12.099971261181523"><ele>368.0</ele><time>2026-04-18T09:13:13.999Z</time></trkpt><trkpt lat="43.59190573396026" lon="12.099796601710642"><ele>367.0</ele><time>2026-04-18T09:13:14.999Z</time></trkpt><trkpt lat="43.59201859548383" lon="12.099668068264464"><ele>366.0</ele><time>2026-04-18T09:13:15.999Z</time></trkpt><trkpt lat="43.59214784320807" lon="12.09954697394966"><ele>365.0</ele><time>2026-04-18T09:13:16.999Z</time></trkpt><trkpt lat="43.59228279769899" lon="12.099450732208222"><ele>370.0</ele><time>2026-04-18T09:13:17.999Z</time></trkpt><trkpt lat="43.592420391977896" lon="12.099366692435584"><ele>375.0</ele><time>2026-04-18T09:13:18.999Z</time></trkpt><trkpt lat="43.592557865770615" lon="12.099279812381468"><ele>380.0</ele><time>2026-04-18T09:13:19.999Z</time></trkpt><trkpt lat="43.59269044013106" lon="12.099171224426637"><ele>379.0</ele><time>2026-04-18T09:13:20.999Z</time></trkpt><trkpt lat="43.59283257274926" lon="12.099082293006395"><ele>378.0</ele><time>2026-04-18T09:13:21.999Z</time></trkpt><trkpt lat="43.592981063582926" lon="12.098991983084662"><ele>377.0</ele><time>2026-04-18T09:13:22.999Z</time></trkpt><trkpt lat="43.593081546187136" lon="12.098824370590538"><ele>382.6666666666667</ele><time>2026-04-18T09:13:23.999Z</time></trkpt><trkpt lat="43.59315010870817" lon="12.098628255969606"><ele>388.33333333333337</ele><time>2026-04-18T09:13:24.999Z</time></trkpt><trkpt lat="43.59316730195406" lon="12.09840515412036"><ele>394.0</ele><time>2026-04-18T09:13:25.999Z</time></trkpt><trkpt lat="43.59316375907811" lon="12.098172419307563"><ele>394.33333333333337</ele><time>2026-04-18T09:13:26.999Z</time></trkpt><trkpt lat="43.593145569973245" lon="12.09794957140089"><ele>394.66666666666663</ele><time>2026-04-18T09:13:27.999Z</time></trkpt><trkpt lat="43.59311613795052" lon="12.097729872416764"><ele>395.0</ele><time>2026-04-18T09:13:28.999Z</time></trkpt><trkpt lat="43.59308835161493" lon="12.097514174399674"><ele>394.75</ele><time>2026-04-18T09:13:29.999Z</time></trkpt><trkpt lat="43.593100345174065" lon="12.097331838761557"><ele>394.5</ele><time>2026-04-18T09:13:30.999Z</time></trkpt><trkpt lat="43.59313029824" lon="12.097165257852906"><ele>394.25</ele><time>2026-04-18T09:13:32Z</time></trkpt><trkpt lat="43.59319207673205" lon="12.097039508608033"><ele>394.0</ele><time>2026-04-18T09:13:33Z</time></trkpt><trkpt lat="43.593284535561246" lon="12.09700818905521"><ele>394.0</ele><time>2026-04-18T09:13:34Z</time></trkpt><trkpt lat="43.593379099906095" lon="12.097034929021897"><ele>394.0</ele><time>2026-04-18T09:13:35Z</time></trkpt><trkpt lat="43.593486585466756" lon="12.097070509356861"><ele>394.0</ele><time>2026-04-18T09:13:36Z</time></trkpt><trkpt lat="43.593582857715155" lon="12.097165430656878"><ele>394.0</ele><time>2026-04-18T09:13:37Z</time></trkpt><trkpt lat="43.59366623696435" lon="12.097295898229595"><ele>394.75</ele><time>2026-04-18T09:13:38Z</time></trkpt><trkpt lat="43.593718968751034" lon="12.09745477108493"><ele>395.5</ele><time>2026-04-18T09:13:39Z</time></trkpt><trkpt lat="43.59376056522927" lon="12.097629157825388"><ele>396.25</ele><time>2026-04-18T09:13:40Z</time></trkpt><trkpt lat="43.593803346594036" lon="12.097809822531039"><ele>397.0</ele><time>2026-04-18T09:13:41Z</time></trkpt><trkpt lat="43.59381604106776" lon="12.098000393754457"><ele>397.0</ele><time>2026-04-18T09:13:42Z</time></trkpt><trkpt lat="43.593827540169436" lon="12.098192352727384"><ele>397.0</ele><time>2026-04-18T09:13:43Z</time></trkpt><trkpt lat="43.593857106705045" lon="12.0983823371924"><ele>397.0</ele><time>2026-04-18T09:13:44Z</time></trkpt><trkpt lat="43.593903504548464" lon="12.09857444452733"><ele>397.0</ele><time>2026-04-18T09:13:45Z</time></trkpt><trkpt lat="43.59395333870282" lon="12.098764394732354"><ele>397.75</ele><time>2026-04-18T09:13:46Z</time></trkpt><trkpt lat="43.59399055352335" lon="12.098959834503749"><ele>398.5</ele><time>2026-04-18T09:13:47Z</time></trkpt><trkpt lat="43.594087331781616" lon="12.099107080574067"><ele>399.25</ele><time>2026-04-18T09:13:48Z</time></trkpt><trkpt lat="43.594218957292114" lon="12.099205257513804"><ele>400.0</ele><time>2026-04-18T09:13:49Z</time></trkpt><trkpt lat="43.594364220565545" lon="12.099272050664421"><ele>401.0</ele><time>2026-04-18T09:13:50Z</time></trkpt><trkpt lat="43.594511864781246" lon="12.099380572088894"><ele>402.0</ele><time>2026-04-18T09:13:51Z</time></trkpt><trkpt lat="43.59466210240213" lon="12.099471815266543"><ele>403.0</ele><time>2026-04-18T09:13:52Z</time></trkpt><trkpt lat="43.5948075884321" lon="12.099560661895739"><ele>403.0</ele><time>2026-04-18T09:13:53Z</time></trkpt><trkpt lat="43.59495361993144" lon="12.099651271895038"><ele>403.0</ele><time>2026-04-18T09:13:54Z</time></trkpt><trkpt lat="43.59510159949904" lon="12.099743738170487"><ele>403.0</ele><time>2026-04-18T09:13:55Z</time></trkpt><trkpt lat="43.59524798077648" lon="12.099835205629976"><ele>403.33333333333337</ele><time>2026-04-18T09:13:56Z</time></trkpt><trkpt lat="43.595395251335155" lon="12.099927535916223"><ele>403.66666666666663</ele><time>2026-04-18T09:13:57Z</time></trkpt><trkpt lat="43.59554541838654" lon="12.100020341071815"><ele>404.0</ele><time>2026-04-18T09:13:58Z</time></trkpt><trkpt lat="43.595694159429556" lon="12.100111039928827"><ele>404.0</ele><time>2026-04-18T09:13:59Z</time></trkpt><trkpt lat="43.595848698729164" lon="12.100205504990157"><ele>404.0</ele><time>2026-04-18T09:14:00Z</time></trkpt><trkpt lat="43.59599865432882" lon="12.100297172349958"><ele>404.0</ele><time>2026-04-18T09:14:01Z</time></trkpt><trkpt lat="43.59615611555122" lon="12.100393557769424"><ele>404.0</ele><time>2026-04-18T09:14:02Z</time></trkpt><trkpt lat="43.59631643704014" lon="12.100493500437912"><ele>404.0</ele><time>2026-04-18T09:14:03Z</time></trkpt><trkpt lat="43.596478603829645" lon="12.100592550546908"><ele>404.0</ele><time>2026-04-18T09:14:04Z</time></trkpt><trkpt lat="43.59663462590945" lon="12.100685798427959"><ele>406.0</ele><time>2026-04-18T09:14:05Z</time></trkpt><trkpt lat="43.59679627151702" lon="12.100777054773806"><ele>408.0</ele><time>2026-04-18T09:14:06Z</time></trkpt><trkpt lat="43.59695765513111" lon="12.100855024683565"><ele>410.0</ele><time>2026-04-18T09:14:07Z</time></trkpt><trkpt lat="43.59712759010934" lon="12.100926313030985"><ele>410.0</ele><time>2026-04-18T09:14:08Z</time></trkpt><trkpt lat="43.597296600032074" lon="12.10099176822856"><ele>410.0</ele><time>2026-04-18T09:14:09Z</time></trkpt><trkpt lat="43.59746729526883" lon="12.101057150557107"><ele>410.0</ele><time>2026-04-18T09:14:10Z</time></trkpt><trkpt lat="43.59763627010063" lon="12.10111937153679"><ele>410.0</ele><time>2026-04-18T09:14:11Z</time></trkpt><trkpt lat="43.59780698370993" lon="12.101181939311175"><ele>410.0</ele><time>2026-04-18T09:14:12Z</time></trkpt><trkpt lat="43.59798009576303" lon="12.101246285045644"><ele>410.0</ele><time>2026-04-18T09:14:13Z</time></trkpt><trkpt lat="43.59815180451788" lon="12.101310160606134"><ele>408.0</ele><time>2026-04-18T09:14:14Z</time></trkpt><trkpt lat="43.598324047825045" lon="12.101372037829861"><ele>406.0</ele><time>2026-04-18T09:14:15Z</time></trkpt><trkpt lat="43.598501478168764" lon="12.10142796192268"><ele>404.0</ele><time>2026-04-18T09:14:16Z</time></trkpt><trkpt lat="43.59867173414256" lon="12.101469285292515"><ele>403.66666666666663</ele><time>2026-04-18T09:14:17Z</time></trkpt><trkpt lat="43.598839276203016" lon="12.101480110383697"><ele>403.33333333333337</ele><time>2026-04-18T09:14:18Z</time></trkpt><trkpt lat="43.59899096406342" lon="12.10142037037878"><ele>403.0</ele><time>2026-04-18T09:14:19Z</time></trkpt><trkpt lat="43.599135406387866" lon="12.101387159414084"><ele>403.0</ele><time>2026-04-18T09:14:20Z</time></trkpt><trkpt lat="43.59927160305151" lon="12.101315274599823"><ele>403.0</ele><time>2026-04-18T09:14:21Z</time></trkpt><trkpt lat="43.59939827585795" lon="12.101209659194257"><ele>403.0</ele><time>2026-04-18T09:14:22Z</time></trkpt><trkpt lat="43.59950399282575" lon="12.101072843277052"><ele>403.0</ele><time>2026-04-18T09:14:23Z</time></trkpt><trkpt lat="43.59959096342757" lon="12.100904893601346"><ele>402.5</ele><time>2026-04-18T09:14:24Z</time></trkpt><trkpt lat="43.599664794835206" lon="12.10072653929511"><ele>402.0</ele><time>2026-04-18T09:14:25Z</time></trkpt><trkpt lat="43.59973198241514" lon="12.10054522632391"><ele>401.5</ele><time>2026-04-18T09:14:26Z</time></trkpt><trkpt lat="43.59978454995774" lon="12.100358303452136"><ele>401.0</ele><time>2026-04-18T09:14:27Z</time></trkpt><trkpt lat="43.599837955005086" lon="12.100170820941571"><ele>401.0</ele><time>2026-04-18T09:14:28Z</time></trkpt><trkpt lat="43.59988642184066" lon="12.099982901106099"><ele>401.0</ele><time>2026-04-18T09:14:29Z</time></trkpt><trkpt lat="43.599941050637" lon="12.099795992006383"><ele>401.0</ele><time>2026-04-18T09:14:30Z</time></trkpt><trkpt lat="43.59999268609677" lon="12.099611763728767"><ele>401.0</ele><time>2026-04-18T09:14:31Z</time></trkpt><trkpt lat="43.60004776803968" lon="12.099426935335778"><ele>400.0</ele><time>2026-04-18T09:14:32Z</time></trkpt><trkpt lat="43.6001028616115" lon="12.099243212598093"><ele>399.0</ele><time>2026-04-18T09:14:33Z</time></trkpt><trkpt lat="43.60015481630932" lon="12.099062524101162"><ele>398.0</ele><time>2026-04-18T09:14:34Z</time></trkpt><trkpt lat="43.600211293308135" lon="12.098880482522"><ele>397.0</ele><time>2026-04-18T09:14:35Z</time></trkpt><trkpt lat="43.60026632452527" lon="12.098697422851716"><ele>396.75</ele><time>2026-04-18T09:14:36Z</time></trkpt><trkpt lat="43.60032118015345" lon="12.098511502721298"><ele>396.5</ele><time>2026-04-18T09:14:37Z</time></trkpt><trkpt lat="43.600380544507644" lon="12.09832677893544"><ele>396.25</ele><time>2026-04-18T09:14:38Z</time></trkpt><trkpt lat="43.60043537754486" lon="12.098134183241541"><ele>396.0</ele><time>2026-04-18T09:14:39Z</time></trkpt><trkpt lat="43.600485793989556" lon="12.097947055415199"><ele>396.0</ele><time>2026-04-18T09:14:40Z</time></trkpt><trkpt lat="43.60053979729523" lon="12.097757750216685"><ele>396.0</ele><time>2026-04-18T09:14:41Z</time></trkpt><trkpt lat="43.60059570499941" lon="12.097566943745209"><ele>396.0</ele><time>2026-04-18T09:14:42Z</time></trkpt><trkpt lat="43.600651666925245" lon="12.097374336757946"><ele>396.0</ele><time>2026-04-18T09:14:43Z</time></trkpt><trkpt lat="43.60070592588429" lon="12.09718104405338"><ele>396.66666666666663</ele><time>2026-04-18T09:14:44Z</time></trkpt><trkpt lat="43.60076305813479" lon="12.096987373697644"><ele>397.3333333333333</ele><time>2026-04-18T09:14:45Z</time></trkpt><trkpt lat="43.60081981496674" lon="12.096790487959646"><ele>398.0</ele><time>2026-04-18T09:14:46Z</time></trkpt><trkpt lat="43.600876485109254" lon="12.096588777032716"><ele>398.66666666666663</ele><time>2026-04-18T09:14:47Z</time></trkpt><trkpt lat="43.60093382309716" lon="12.096387850257866"><ele>399.33333333333337</ele><time>2026-04-18T09:14:48Z</time></trkpt><trkpt lat="43.6009935048396" lon="12.096186581970084"><ele>400.0</ele><time>2026-04-18T09:14:49Z</time></trkpt><trkpt lat="43.60105460050942" lon="12.095986071961976"><ele>400.0</ele><time>2026-04-18T09:14:50Z</time></trkpt><trkpt lat="43.60111501536558" lon="12.095785392386379"><ele>400.0</ele><time>2026-04-18T09:14:51Z</time></trkpt><trkpt lat="43.60116032820965" lon="12.095582674461145"><ele>400.0</ele><time>2026-04-18T09:14:52Z</time></trkpt><trkpt lat="43.60117999053685" lon="12.095367758213369"><ele>400.33333333333337</ele><time>2026-04-18T09:14:53Z</time></trkpt><trkpt lat="43.60117538016086" lon="12.095156997200707"><ele>400.66666666666663</ele><time>2026-04-18T09:14:54Z</time></trkpt><trkpt lat="43.60114403777893" lon="12.094947022951073"><ele>401.0</ele><time>2026-04-18T09:14:55Z</time></trkpt><trkpt lat="43.60110146502181" lon="12.094745859310342"><ele>404.3333333333333</ele><time>2026-04-18T09:14:56Z</time></trkpt><trkpt lat="43.60103910180776" lon="12.094549372315551"><ele>407.66666666666663</ele><time>2026-04-18T09:14:57Z</time></trkpt><trkpt lat="43.60096609266157" lon="12.094364385635307"><ele>411.0</ele><time>2026-04-18T09:14:58Z</time></trkpt><trkpt lat="43.600881660319594" lon="12.094182752677687"><ele>414.66666666666663</ele><time>2026-04-18T09:14:59Z</time></trkpt><trkpt lat="43.60079707501577" lon="12.094002752111537"><ele>418.3333333333333</ele><time>2026-04-18T09:15:00Z</time></trkpt><trkpt lat="43.6007112836739" lon="12.093824054025115"><ele>422.0</ele><time>2026-04-18T09:15:01Z</time></trkpt><trkpt lat="43.60062757810323" lon="12.093646673129108"><ele>422.0</ele><time>2026-04-18T09:15:02Z</time></trkpt><trkpt lat="43.60054671888847" lon="12.093478389376157"><ele>422.0</ele><time>2026-04-18T09:15:03Z</time></trkpt><trkpt lat="43.60046875744768" lon="12.093299871082205"><ele>422.0</ele><time>2026-04-18T09:15:04Z</time></trkpt><trkpt lat="43.60038992368057" lon="12.093122084865612"><ele>422.0</ele><time>2026-04-18T09:15:05Z</time></trkpt><trkpt lat="43.600306527838576" lon="12.092945764551102"><ele>421.0</ele><time>2026-04-18T09:15:06Z</time></trkpt><trkpt lat="43.60022302455321" lon="12.092772322733987"><ele>420.0</ele><time>2026-04-18T09:15:07Z</time></trkpt><trkpt lat="43.600140623560385" lon="12.09259582498727"><ele>419.0</ele><time>2026-04-18T09:15:08Z</time></trkpt><trkpt lat="43.600071077154375" lon="12.09242603146268"><ele>418.0</ele><time>2026-04-18T09:15:09Z</time></trkpt><trkpt lat="43.59998365990726" lon="12.092238830818538"><ele>423.0</ele><time>2026-04-18T09:15:10Z</time></trkpt><trkpt lat="43.599896782573296" lon="12.092033475356441"><ele>428.0</ele><time>2026-04-18T09:15:11Z</time></trkpt><trkpt lat="43.59979808724903" lon="12.091826582536035"><ele>433.0</ele><time>2026-04-18T09:15:12Z</time></trkpt><trkpt lat="43.599690779960625" lon="12.09161119424176"><ele>431.33333333333337</ele><time>2026-04-18T09:15:13Z</time></trkpt><trkpt lat="43.59958003547927" lon="12.091389948045245"><ele>429.66666666666663</ele><time>2026-04-18T09:15:14Z</time></trkpt><trkpt lat="43.59946273580093" lon="12.091165215184413"><ele>428.0</ele><time>2026-04-18T09:15:15Z</time></trkpt><trkpt lat="43.59933409275252" lon="12.09093814040026"><ele>433.0</ele><time>2026-04-18T09:15:16Z</time></trkpt><trkpt lat="43.59919880417628" lon="12.090714499265236"><ele>438.0</ele><time>2026-04-18T09:15:17Z</time></trkpt><trkpt lat="43.59906156988321" lon="12.09049147017452"><ele>443.0</ele><time>2026-04-18T09:15:18Z</time></trkpt><trkpt lat="43.59893331269673" lon="12.090268815061929"><ele>443.0</ele><time>2026-04-18T09:15:19Z</time></trkpt><trkpt lat="43.59880842451928" lon="12.090050146324932"><ele>443.0</ele><time>2026-04-18T09:15:20Z</time></trkpt><trkpt lat="43.598684698450306" lon="12.089827377381477"><ele>443.0</ele><time>2026-04-18T09:15:21Z</time></trkpt><trkpt lat="43.59856596873294" lon="12.089600486979867"><ele>441.66666666666663</ele><time>2026-04-18T09:15:22Z</time></trkpt><trkpt lat="43.59845421231196" lon="12.089381096734519"><ele>440.33333333333337</ele><time>2026-04-18T09:15:23Z</time></trkpt><trkpt lat="43.59834468994165" lon="12.089171762695848"><ele>439.0</ele><time>2026-04-18T09:15:24Z</time></trkpt><trkpt lat="43.59827960042452" lon="12.088957630520527"><ele>439.0</ele><time>2026-04-18T09:15:25Z</time></trkpt><trkpt lat="43.598230578494295" lon="12.0887262225027"><ele>439.0</ele><time>2026-04-18T09:15:26Z</time></trkpt><trkpt lat="43.59819982483217" lon="12.088471228263014"><ele>439.0</ele><time>2026-04-18T09:15:27Z</time></trkpt><trkpt lat="43.59816767168019" lon="12.088201110073335"><ele>439.0</ele><time>2026-04-18T09:15:28Z</time></trkpt><trkpt lat="43.598133537372924" lon="12.087927698524615"><ele>439.0</ele><time>2026-04-18T09:15:29Z</time></trkpt><trkpt lat="43.598098693598146" lon="12.087648603753056"><ele>439.0</ele><time>2026-04-18T09:15:30Z</time></trkpt><trkpt lat="43.59806403305113" lon="12.087370976666891"><ele>439.0</ele><time>2026-04-18T09:15:31Z</time></trkpt><trkpt lat="43.5980294400833" lon="12.087090012879589"><ele>439.0</ele><time>2026-04-18T09:15:32Z</time></trkpt><trkpt lat="43.59799366626919" lon="12.086798473024814"><ele>439.0</ele><time>2026-04-18T09:15:33Z</time></trkpt><trkpt lat="43.59795789309372" lon="12.086506941318582"><ele>439.33333333333337</ele><time>2026-04-18T09:15:34Z</time></trkpt><trkpt lat="43.59791876209785" lon="12.086218563652379"><ele>439.66666666666663</ele><time>2026-04-18T09:15:35Z</time></trkpt><trkpt lat="43.59788177730038" lon="12.085945227977836"><ele>440.0</ele><time>2026-04-18T09:15:36Z</time></trkpt><trkpt lat="43.59785449954265" lon="12.085685773370772"><ele>436.66666666666663</ele><time>2026-04-18T09:15:37Z</time></trkpt><trkpt lat="43.597842726609336" lon="12.085430321946026"><ele>433.33333333333337</ele><time>2026-04-18T09:15:38Z</time></trkpt><trkpt lat="43.59786892418418" lon="12.08518722253732"><ele>430.0</ele><time>2026-04-18T09:15:39Z</time></trkpt><trkpt lat="43.597911077419894" lon="12.084936536866264"><ele>425.0</ele><time>2026-04-18T09:15:40Z</time></trkpt><trkpt lat="43.59796141382416" lon="12.084707021945535"><ele>420.0</ele><time>2026-04-18T09:15:41Z</time></trkpt><trkpt lat="43.59799301615288" lon="12.084516744886189"><ele>415.0</ele><time>2026-04-18T09:15:42Z</time></trkpt><trkpt lat="43.59803974342831" lon="12.084333149235434"><ele>415.0</ele><time>2026-04-18T09:15:43Z</time></trkpt><trkpt lat="43.59808057893802" lon="12.084142939832212"><ele>415.0</ele><time>2026-04-18T09:15:44Z</time></trkpt><trkpt lat="43.598119616220856" lon="12.08394956342955"><ele>415.0</ele><time>2026-04-18T09:15:45Z</time></trkpt><trkpt lat="43.5981655570028" lon="12.083750771327619"><ele>415.0</ele><time>2026-04-18T09:15:46Z</time></trkpt><trkpt lat="43.59821745902661" lon="12.083545576835547"><ele>409.6666666666667</ele><time>2026-04-18T09:15:47Z</time></trkpt><trkpt lat="43.59826235832514" lon="12.083340611177444"><ele>404.33333333333337</ele><time>2026-04-18T09:15:48Z</time></trkpt><trkpt lat="43.598301911939814" lon="12.083134883066233"><ele>399.0</ele><time>2026-04-18T09:15:49Z</time></trkpt><trkpt lat="43.598349618077776" lon="12.082934932787515"><ele>397.0</ele><time>2026-04-18T09:15:50Z</time></trkpt><trkpt lat="43.59839071955716" lon="12.082748732399857"><ele>395.0</ele><time>2026-04-18T09:15:51Z</time></trkpt><trkpt lat="43.598430130690176" lon="12.082572388735288"><ele>393.0</ele><time>2026-04-18T09:15:52Z</time></trkpt><trkpt lat="43.59847044468612" lon="12.082392005211021"><ele>391.0</ele><time>2026-04-18T09:15:53Z</time></trkpt><trkpt lat="43.59849801888155" lon="12.082191527936459"><ele>391.0</ele><time>2026-04-18T09:15:54Z</time></trkpt><trkpt lat="43.59854956505412" lon="12.081996994979187"><ele>391.0</ele><time>2026-04-18T09:15:55Z</time></trkpt><trkpt lat="43.5985972280804" lon="12.081796103853486"><ele>391.0</ele><time>2026-04-18T09:15:56Z</time></trkpt><trkpt lat="43.598645042059864" lon="12.08158521418307"><ele>400.6666666666667</ele><time>2026-04-18T09:15:57Z</time></trkpt><trkpt lat="43.59869311524378" lon="12.081375318601452"><ele>410.33333333333337</ele><time>2026-04-18T09:15:58Z</time></trkpt><trkpt lat="43.59874196671842" lon="12.081156640906821"><ele>420.0</ele><time>2026-04-18T09:15:59Z</time></trkpt><trkpt lat="43.59878839599703" lon="12.08093542659639"><ele>421.0</ele><time>2026-04-18T09:16:00Z</time></trkpt><trkpt lat="43.59883587397807" lon="12.080711604402499"><ele>422.0</ele><time>2026-04-18T09:16:01Z</time></trkpt><trkpt lat="43.59888387433102" lon="12.080486646848126"><ele>423.0</ele><time>2026-04-18T09:16:02Z</time></trkpt><trkpt lat="43.5989321359358" lon="12.080259506519642"><ele>423.0</ele><time>2026-04-18T09:16:03Z</time></trkpt><trkpt lat="43.59898166664226" lon="12.080036854294915"><ele>423.0</ele><time>2026-04-18T09:16:04Z</time></trkpt><trkpt lat="43.59902404974235" lon="12.07981226296139"><ele>423.0</ele><time>2026-04-18T09:16:05Z</time></trkpt><trkpt lat="43.59905963382989" lon="12.079580989173953"><ele>423.0</ele><time>2026-04-18T09:16:06Z</time></trkpt><trkpt lat="43.599082757110004" lon="12.079345421891803"><ele>423.0</ele><time>2026-04-18T09:16:07Z</time></trkpt><trkpt lat="43.599089301730885" lon="12.079108308300995"><ele>423.0</ele><time>2026-04-18T09:16:08Z</time></trkpt><trkpt lat="43.59907664388713" lon="12.078873484355434"><ele>423.0</ele><time>2026-04-18T09:16:09Z</time></trkpt><trkpt lat="43.59905396280991" lon="12.078637980744427"><ele>423.0</ele><time>2026-04-18T09:16:10Z</time></trkpt><trkpt lat="43.599026212572824" lon="12.07840118461356"><ele>423.0</ele><time>2026-04-18T09:16:11Z</time></trkpt><trkpt lat="43.59899776120082" lon="12.078163077017736"><ele>424.0</ele><time>2026-04-18T09:16:12Z</time></trkpt><trkpt lat="43.59897428037203" lon="12.077923043668713"><ele>425.0</ele><time>2026-04-18T09:16:13Z</time></trkpt><trkpt lat="43.59895157435119" lon="12.077687977838151"><ele>426.0</ele><time>2026-04-18T09:16:14Z</time></trkpt><trkpt lat="43.598925927410704" lon="12.077448851888724"><ele>425.66666666666663</ele><time>2026-04-18T09:16:15Z</time></trkpt><trkpt lat="43.598896571761664" lon="12.077212922395352"><ele>425.3333333333333</ele><time>2026-04-18T09:16:16Z</time></trkpt><trkpt lat="43.598871819518884" lon="12.07697251700285"><ele>425.0</ele><time>2026-04-18T09:16:17Z</time></trkpt><trkpt lat="43.598848118063444" lon="12.076742307175769"><ele>424.66666666666663</ele><time>2026-04-18T09:16:18Z</time></trkpt><trkpt lat="43.59881734816903" lon="12.076514350648749"><ele>424.33333333333337</ele><time>2026-04-18T09:16:19Z</time></trkpt><trkpt lat="43.59878411589093" lon="12.076288566595046"><ele>424.0</ele><time>2026-04-18T09:16:20Z</time></trkpt><trkpt lat="43.59874074338245" lon="12.076063979012085"><ele>424.0</ele><time>2026-04-18T09:16:21Z</time></trkpt><trkpt lat="43.5986847121073" lon="12.075848339357401"><ele>424.0</ele><time>2026-04-18T09:16:22Z</time></trkpt><trkpt lat="43.59864231144939" lon="12.075623487740883"><ele>424.0</ele><time>2026-04-18T09:16:23Z</time></trkpt><trkpt lat="43.59861281491814" lon="12.075411007540993"><ele>423.0</ele><time>2026-04-18T09:16:24Z</time></trkpt><trkpt lat="43.59861058684227" lon="12.075213616538019"><ele>422.0</ele><time>2026-04-18T09:16:25Z</time></trkpt><trkpt lat="43.59866404487384" lon="12.075063866013549"><ele>421.0</ele><time>2026-04-18T09:16:26Z</time></trkpt><trkpt lat="43.59872579407767" lon="12.074957244406095"><ele>420.0</ele><time>2026-04-18T09:16:27Z</time></trkpt><trkpt lat="43.59879651318276" lon="12.07484548798651"><ele>418.0</ele><time>2026-04-18T09:16:28Z</time></trkpt><trkpt lat="43.59890519380611" lon="12.074785850105833"><ele>416.0</ele><time>2026-04-18T09:16:29Z</time></trkpt><trkpt lat="43.59900265709428" lon="12.074755457916176"><ele>414.0</ele><time>2026-04-18T09:16:30Z</time></trkpt><trkpt lat="43.59910015135963" lon="12.074740855956504"><ele>412.0</ele><time>2026-04-18T09:16:31Z</time></trkpt><trkpt lat="43.599201650490706" lon="12.07472391122814"><ele>410.0</ele><time>2026-04-18T09:16:32Z</time></trkpt><trkpt lat="43.59930111362609" lon="12.074807418146403"><ele>410.0</ele><time>2026-04-18T09:16:33Z</time></trkpt><trkpt lat="43.59940461281293" lon="12.074855066469118"><ele>410.0</ele><time>2026-04-18T09:16:34Z</time></trkpt><trkpt lat="43.59951120562955" lon="12.074909725797037"><ele>410.0</ele><time>2026-04-18T09:16:35Z</time></trkpt><trkpt lat="43.599620401195786" lon="12.074968304301061"><ele>410.0</ele><time>2026-04-18T09:16:36Z</time></trkpt><trkpt lat="43.59973420620181" lon="12.075029532463528"><ele>411.5</ele><time>2026-04-18T09:16:37Z</time></trkpt><trkpt lat="43.59985344487199" lon="12.075092722280754"><ele>413.0</ele><time>2026-04-18T09:16:38Z</time></trkpt><trkpt lat="43.59997528154489" lon="12.075157452691593"><ele>414.5</ele><time>2026-04-18T09:16:39Z</time></trkpt><trkpt lat="43.60009559187987" lon="12.07522137223077"><ele>416.0</ele><time>2026-04-18T09:16:40Z</time></trkpt><trkpt lat="43.60021441090344" lon="12.07528449943348"><ele>414.75</ele><time>2026-04-18T09:16:41Z</time></trkpt><trkpt lat="43.600339062972594" lon="12.075350725592452"><ele>413.5</ele><time>2026-04-18T09:16:42Z</time></trkpt><trkpt lat="43.600468670828796" lon="12.07542290007926"><ele>412.25</ele><time>2026-04-18T09:16:43Z</time></trkpt><trkpt lat="43.600598759327085" lon="12.075507356218157"><ele>411.0</ele><time>2026-04-18T09:16:44Z</time></trkpt><trkpt lat="43.600728628035604" lon="12.07560591377397"><ele>411.0</ele><time>2026-04-18T09:16:45Z</time></trkpt><trkpt lat="43.60085082747944" lon="12.075717907527517"><ele>411.0</ele><time>2026-04-18T09:16:46Z</time></trkpt><trkpt lat="43.60096163190838" lon="12.075852453991466"><ele>411.0</ele><time>2026-04-18T09:16:47Z</time></trkpt><trkpt lat="43.601067979293084" lon="12.075994774647654"><ele>411.0</ele><time>2026-04-18T09:16:48Z</time></trkpt><trkpt lat="43.60117525945074" lon="12.076141899940332"><ele>413.66666666666663</ele><time>2026-04-18T09:16:49Z</time></trkpt><trkpt lat="43.6012795510738" lon="12.07628709206553"><ele>416.3333333333333</ele><time>2026-04-18T09:16:50Z</time></trkpt><trkpt lat="43.60138650974586" lon="12.076435518496227"><ele>419.0</ele><time>2026-04-18T09:16:51Z</time></trkpt><trkpt lat="43.601494524159655" lon="12.076584702450772"><ele>422.66666666666663</ele><time>2026-04-18T09:16:52Z</time></trkpt><trkpt lat="43.601601380478456" lon="12.076731425416481"><ele>426.33333333333337</ele><time>2026-04-18T09:16:53Z</time></trkpt><trkpt lat="43.6017230969229" lon="12.076865925633706"><ele>430.0</ele><time>2026-04-18T09:16:54Z</time></trkpt><trkpt lat="43.60182226531239" lon="12.07703480907555"><ele>430.0</ele><time>2026-04-18T09:16:55Z</time></trkpt><trkpt lat="43.60192821143416" lon="12.077181325259126"><ele>430.0</ele><time>2026-04-18T09:16:56Z</time></trkpt><trkpt lat="43.6020374777022" lon="12.077332432872446"><ele>430.0</ele><time>2026-04-18T09:16:57Z</time></trkpt><trkpt lat="43.602145770494865" lon="12.077482194467699"><ele>431.6666666666667</ele><time>2026-04-18T09:16:58Z</time></trkpt><trkpt lat="43.60225693423217" lon="12.077635926487611"><ele>433.33333333333337</ele><time>2026-04-18T09:16:59Z</time></trkpt><trkpt lat="43.602366345238394" lon="12.077787234073526"><ele>435.0</ele><time>2026-04-18T09:17:00Z</time></trkpt><trkpt lat="43.60247694654672" lon="12.077940833839161"><ele>435.0</ele><time>2026-04-18T09:17:01Z</time></trkpt><trkpt lat="43.60258897247951" lon="12.07809641434257"><ele>435.0</ele><time>2026-04-18T09:17:02Z</time></trkpt><trkpt lat="43.602701762986676" lon="12.078253056630302"><ele>435.0</ele><time>2026-04-18T09:17:03Z</time></trkpt><trkpt lat="43.60281188403219" lon="12.078411065457122"><ele>435.66666666666663</ele><time>2026-04-18T09:17:04Z</time></trkpt><trkpt lat="43.602922143611764" lon="12.078573306680516"><ele>436.3333333333333</ele><time>2026-04-18T09:17:05Z</time></trkpt><trkpt lat="43.60302275203541" lon="12.078738543659545"><ele>437.0</ele><time>2026-04-18T09:17:06Z</time></trkpt><trkpt lat="43.603116550625174" lon="12.078912708951457"><ele>437.0</ele><time>2026-04-18T09:17:07Z</time></trkpt><trkpt lat="43.603212415792214" lon="12.079093583837446"><ele>437.0</ele><time>2026-04-18T09:17:08Z</time></trkpt><trkpt lat="43.60331786541589" lon="12.07926060809031"><ele>437.0</ele><time>2026-04-18T09:17:09Z</time></trkpt><trkpt lat="43.603415745116884" lon="12.079451105981914"><ele>438.66666666666663</ele><time>2026-04-18T09:17:10Z</time></trkpt><trkpt lat="43.603511365972324" lon="12.079629537097759"><ele>440.33333333333337</ele><time>2026-04-18T09:17:11Z</time></trkpt><trkpt lat="43.60360767494365" lon="12.079814960315934"><ele>442.0</ele><time>2026-04-18T09:17:12Z</time></trkpt><trkpt lat="43.60370211903613" lon="12.079993904096561"><ele>442.0</ele><time>2026-04-18T09:17:13Z</time></trkpt><trkpt lat="43.60380096558014" lon="12.080176665885777"><ele>442.0</ele><time>2026-04-18T09:17:14Z</time></trkpt><trkpt lat="43.60389488092372" lon="12.080351959339524"><ele>442.0</ele><time>2026-04-18T09:17:15Z</time></trkpt><trkpt lat="43.603990807490106" lon="12.080524735678798"><ele>442.0</ele><time>2026-04-18T09:17:16Z</time></trkpt><trkpt lat="43.604085278849674" lon="12.080699455539339"><ele>442.0</ele><time>2026-04-18T09:17:17Z</time></trkpt><trkpt lat="43.60416553249376" lon="12.080890569338472"><ele>442.0</ele><time>2026-04-18T09:17:18Z</time></trkpt><trkpt lat="43.60426080324975" lon="12.081073428645377"><ele>443.0</ele><time>2026-04-18T09:17:19Z</time></trkpt><trkpt lat="43.604356680538686" lon="12.081255997859602"><ele>444.0</ele><time>2026-04-18T09:17:20Z</time></trkpt><trkpt lat="43.60445403394381" lon="12.081441378022918"><ele>445.0</ele><time>2026-04-18T09:17:21Z</time></trkpt><trkpt lat="43.60455243857752" lon="12.081628759886126"><ele>445.33333333333337</ele><time>2026-04-18T09:17:22Z</time></trkpt><trkpt lat="43.6046535699583" lon="12.081821333980683"><ele>445.66666666666663</ele><time>2026-04-18T09:17:23Z</time></trkpt><trkpt lat="43.60477133853999" lon="12.081993991245199"><ele>446.0</ele><time>2026-04-18T09:17:24Z</time></trkpt><trkpt lat="43.604868477184496" lon="12.082173551297862"><ele>446.0</ele><time>2026-04-18T09:17:25Z</time></trkpt><trkpt lat="43.60499323021099" lon="12.082327163635805"><ele>446.0</ele><time>2026-04-18T09:17:26Z</time></trkpt><trkpt lat="43.60514425550696" lon="12.082432273168422"><ele>446.0</ele><time>2026-04-18T09:17:27Z</time></trkpt><trkpt lat="43.6052929142654" lon="12.08253430975882"><ele>447.3333333333333</ele><time>2026-04-18T09:17:28Z</time></trkpt><trkpt lat="43.60545054550781" lon="12.08261791551671"><ele>448.66666666666663</ele><time>2026-04-18T09:17:29Z</time></trkpt><trkpt lat="43.605595172997226" lon="12.082720388951318"><ele>450.0</ele><time>2026-04-18T09:17:30Z</time></trkpt><trkpt lat="43.60573472076953" lon="12.082781600266795"><ele>450.0</ele><time>2026-04-18T09:17:31Z</time></trkpt><trkpt lat="43.60586817955155" lon="12.08281366302604"><ele>450.0</ele><time>2026-04-18T09:17:32Z</time></trkpt><trkpt lat="43.60598942148464" lon="12.082800212742377"><ele>450.0</ele><time>2026-04-18T09:17:33Z</time></trkpt><trkpt lat="43.60610197447831" lon="12.082787741220406"><ele>450.0</ele><time>2026-04-18T09:17:34Z</time></trkpt><trkpt lat="43.60620237979966" lon="12.082782917003929"><ele>449.6</ele><time>2026-04-18T09:17:35Z</time></trkpt><trkpt lat="43.60630364518166" lon="12.082793885246627"><ele>449.2</ele><time>2026-04-18T09:17:36Z</time></trkpt><trkpt lat="43.60640490179857" lon="12.082815845472563"><ele>448.79999999999995</ele><time>2026-04-18T09:17:37Z</time></trkpt><trkpt lat="43.60650103064857" lon="12.082878212886508"><ele>448.4</ele><time>2026-04-18T09:17:38Z</time></trkpt><trkpt lat="43.60659718021083" lon="12.082921457728695"><ele>448.0</ele><time>2026-04-18T09:17:39Z</time></trkpt><trkpt lat="43.606708722777476" lon="12.082977027300576"><ele>448.0</ele><time>2026-04-18T09:17:40Z</time></trkpt><trkpt lat="43.60682576378381" lon="12.083050761363692"><ele>448.0</ele><time>2026-04-18T09:17:41Z</time></trkpt><trkpt lat="43.60694671642546" lon="12.083132109177278"><ele>448.0</ele><time>2026-04-18T09:17:42Z</time></trkpt><trkpt lat="43.60706222887116" lon="12.083209930873666"><ele>448.0</ele><time>2026-04-18T09:17:43Z</time></trkpt><trkpt lat="43.60718270915837" lon="12.08329097407732"><ele>450.5</ele><time>2026-04-18T09:17:44Z</time></trkpt><trkpt lat="43.6072994360273" lon="12.083369297001505"><ele>453.0</ele><time>2026-04-18T09:17:45Z</time></trkpt><trkpt lat="43.60741800153277" lon="12.083445718359968"><ele>455.5</ele><time>2026-04-18T09:17:46Z</time></trkpt><trkpt lat="43.607529132954056" lon="12.083521723276618"><ele>458.0</ele><time>2026-04-18T09:17:47Z</time></trkpt><trkpt lat="43.60763421274778" lon="12.0836101790874"><ele>458.0</ele><time>2026-04-18T09:17:48Z</time></trkpt><trkpt lat="43.60773555128704" lon="12.08370420352582"><ele>457.99999999999994</ele><time>2026-04-18T09:17:49Z</time></trkpt><trkpt lat="43.60783185734382" lon="12.083798515550237"><ele>457.99999999999994</ele><time>2026-04-18T09:17:50Z</time></trkpt><trkpt lat="43.60791890341572" lon="12.08389234013272"><ele>458.0</ele><time>2026-04-18T09:17:51Z</time></trkpt><trkpt lat="43.607984704234" lon="12.083969884891177"><ele>458.0</ele><time>2026-04-18T09:17:52Z</time></trkpt><trkpt lat="43.60804421118036" lon="12.08404472049344"><ele>461.79999999999995</ele><time>2026-04-18T09:17:53Z</time></trkpt><trkpt lat="43.60809267111442" lon="12.084111376784582"><ele>465.59999999999997</ele><time>2026-04-18T09:17:54Z</time></trkpt><trkpt lat="43.6081764021309" lon="12.084210740943705"><ele>469.40000000000003</ele><time>2026-04-18T09:17:56Z</time></trkpt><trkpt lat="43.60820155786071" lon="12.084312961079752"><ele>473.20000000000005</ele><time>2026-04-18T09:17:59Z</time></trkpt><trkpt lat="43.608337878242665" lon="12.084209275993942"><ele>477.0</ele><time>2026-04-18T09:18:00Z</time></trkpt><trkpt lat="43.608397517419995" lon="12.084148841503406"><ele>477.0</ele><time>2026-04-18T09:18:01Z</time></trkpt><trkpt lat="43.60845320657223" lon="12.084091295483333"><ele>477.0</ele><time>2026-04-18T09:18:02Z</time></trkpt><trkpt lat="43.60851960012334" lon="12.084022908181277"><ele>477.0</ele><time>2026-04-18T09:18:03Z</time></trkpt><trkpt lat="43.60859626218084" lon="12.083946928415669"><ele>477.0</ele><time>2026-04-18T09:18:04Z</time></trkpt><trkpt lat="43.60868307451481" lon="12.083872389032548"><ele>477.0</ele><time>2026-04-18T09:18:05Z</time></trkpt><trkpt lat="43.608769546564766" lon="12.083810306607687"><ele>477.0</ele><time>2026-04-18T09:18:06Z</time></trkpt><trkpt lat="43.60886029172161" lon="12.083746989251905"><ele>477.0</ele><time>2026-04-18T09:18:07Z</time></trkpt><trkpt lat="43.60895675443987" lon="12.083679098544785"><ele>477.0</ele><time>2026-04-18T09:18:08Z</time></trkpt><trkpt lat="43.60905518044743" lon="12.083608369326823"><ele>477.0</ele><time>2026-04-18T09:18:09Z</time></trkpt><trkpt lat="43.60916005135033" lon="12.083535644489611"><ele>477.0</ele><time>2026-04-18T09:18:10Z</time></trkpt><trkpt lat="43.60926766612224" lon="12.083459203487708"><ele>477.0</ele><time>2026-04-18T09:18:11Z</time></trkpt><trkpt lat="43.60937738706973" lon="12.08338558799225"><ele>477.0</ele><time>2026-04-18T09:18:12Z</time></trkpt><trkpt lat="43.60949355758485" lon="12.08331482149788"><ele>477.0</ele><time>2026-04-18T09:18:13Z</time></trkpt><trkpt lat="43.609611404174906" lon="12.08324385864555"><ele>477.0</ele><time>2026-04-18T09:18:14Z</time></trkpt><trkpt lat="43.60973395769177" lon="12.083177667589363"><ele>474.5</ele><time>2026-04-18T09:18:15Z</time></trkpt><trkpt lat="43.60986309104915" lon="12.083124430571951"><ele>472.0</ele><time>2026-04-18T09:18:16Z</time></trkpt><trkpt lat="43.60999558667325" lon="12.083090838608546"><ele>469.5</ele><time>2026-04-18T09:18:17Z</time></trkpt><trkpt lat="43.61013443032114" lon="12.08307843711434"><ele>467.0</ele><time>2026-04-18T09:18:18Z</time></trkpt><trkpt lat="43.61027680584422" lon="12.083085239696922"><ele>467.0</ele><time>2026-04-18T09:18:19Z</time></trkpt><trkpt lat="43.6104181558302" lon="12.083103628068184"><ele>467.0</ele><time>2026-04-18T09:18:20Z</time></trkpt><trkpt lat="43.61055677169845" lon="12.08313353020289"><ele>467.0</ele><time>2026-04-18T09:18:21Z</time></trkpt><trkpt lat="43.610693691820224" lon="12.083168531282068"><ele>467.0</ele><time>2026-04-18T09:18:22Z</time></trkpt><trkpt lat="43.61082787633564" lon="12.083227484590353"><ele>470.25</ele><time>2026-04-18T09:18:23Z</time></trkpt><trkpt lat="43.61096556609214" lon="12.083269345917097"><ele>473.5</ele><time>2026-04-18T09:18:24Z</time></trkpt><trkpt lat="43.61110506429982" lon="12.083311756912815"><ele>476.75</ele><time>2026-04-18T09:18:25Z</time></trkpt><trkpt lat="43.61124763578013" lon="12.083354632242006"><ele>480.0</ele><time>2026-04-18T09:18:26Z</time></trkpt><trkpt lat="43.611393263285784" lon="12.083400715416138"><ele>480.0</ele><time>2026-04-18T09:18:27Z</time></trkpt><trkpt lat="43.61154601609877" lon="12.083448255332152"><ele>480.0</ele><time>2026-04-18T09:18:28Z</time></trkpt><trkpt lat="43.61170216848593" lon="12.08347184544609"><ele>480.0</ele><time>2026-04-18T09:18:29Z</time></trkpt><trkpt lat="43.611861753260754" lon="12.083505589213535"><ele>477.66666666666663</ele><time>2026-04-18T09:18:30Z</time></trkpt><trkpt lat="43.61202064541949" lon="12.08352209701217"><ele>475.3333333333333</ele><time>2026-04-18T09:18:31Z</time></trkpt><trkpt lat="43.61217754645381" lon="12.083510637264105"><ele>473.0</ele><time>2026-04-18T09:18:32Z</time></trkpt><trkpt lat="43.61232388021857" lon="12.083476733800493"><ele>473.0</ele><time>2026-04-18T09:18:33Z</time></trkpt><trkpt lat="43.61245966163551" lon="12.083437984468464"><ele>473.0</ele><time>2026-04-18T09:18:34Z</time></trkpt><trkpt lat="43.61259228206802" lon="12.083399202712407"><ele>473.0</ele><time>2026-04-18T09:18:35Z</time></trkpt><trkpt lat="43.612709113329046" lon="12.083377065454986"><ele>473.0</ele><time>2026-04-18T09:18:36Z</time></trkpt><trkpt lat="43.61282824722634" lon="12.083374342323138"><ele>471.25</ele><time>2026-04-18T09:18:37Z</time></trkpt><trkpt lat="43.612945437151595" lon="12.083442392049854"><ele>469.5</ele><time>2026-04-18T09:18:38Z</time></trkpt><trkpt lat="43.613072963848076" lon="12.083518048891792"><ele>467.75</ele><time>2026-04-18T09:18:39Z</time></trkpt><trkpt lat="43.6132075608744" lon="12.08360824193647"><ele>466.0</ele><time>2026-04-18T09:18:40Z</time></trkpt><trkpt lat="43.613348406874344" lon="12.083703820376087"><ele>466.0</ele><time>2026-04-18T09:18:41Z</time></trkpt><trkpt lat="43.613492565691196" lon="12.08380174780073"><ele>466.0</ele><time>2026-04-18T09:18:42Z</time></trkpt><trkpt lat="43.61364112269958" lon="12.083902987638174"><ele>466.0</ele><time>2026-04-18T09:18:43Z</time></trkpt><trkpt lat="43.613784927199944" lon="12.084003460378945"><ele>465.0</ele><time>2026-04-18T09:18:44Z</time></trkpt><trkpt lat="43.61393317762775" lon="12.084107923734907"><ele>464.0</ele><time>2026-04-18T09:18:45Z</time></trkpt><trkpt lat="43.614080633134215" lon="12.084211713816114"><ele>463.0</ele><time>2026-04-18T09:18:46Z</time></trkpt><trkpt lat="43.61422478517753" lon="12.084313633916413"><ele>463.0</ele><time>2026-04-18T09:18:47Z</time></trkpt><trkpt lat="43.61437116204604" lon="12.084415728485384"><ele>463.0</ele><time>2026-04-18T09:18:48Z</time></trkpt><trkpt lat="43.61451213158955" lon="12.084510339384543"><ele>463.0</ele><time>2026-04-18T09:18:49Z</time></trkpt><trkpt lat="43.61466448884915" lon="12.084595975991578"><ele>464.0</ele><time>2026-04-18T09:18:50Z</time></trkpt><trkpt lat="43.614833119653056" lon="12.084616841459683"><ele>465.0</ele><time>2026-04-18T09:18:51Z</time></trkpt><trkpt lat="43.61499949244558" lon="12.084623834673407"><ele>466.0</ele><time>2026-04-18T09:18:52Z</time></trkpt><trkpt lat="43.61516738333378" lon="12.084604303140688"><ele>468.33333333333337</ele><time>2026-04-18T09:18:53Z</time></trkpt><trkpt lat="43.61533282238724" lon="12.084575550826475"><ele>470.66666666666663</ele><time>2026-04-18T09:18:54Z</time></trkpt><trkpt lat="43.61549609888388" lon="12.084569676246943"><ele>473.0</ele><time>2026-04-18T09:18:55Z</time></trkpt><trkpt lat="43.615654693473466" lon="12.084546603175998"><ele>473.0</ele><time>2026-04-18T09:18:56Z</time></trkpt><trkpt lat="43.61581178448272" lon="12.084526780764788"><ele>473.0</ele><time>2026-04-18T09:18:57Z</time></trkpt><trkpt lat="43.615966849940186" lon="12.08452806066395"><ele>473.0</ele><time>2026-04-18T09:18:58Z</time></trkpt><trkpt lat="43.61609923951788" lon="12.084575590088717"><ele>473.5</ele><time>2026-04-18T09:18:59Z</time></trkpt><trkpt lat="43.61621741603453" lon="12.084670350471255"><ele>474.0</ele><time>2026-04-18T09:19:00Z</time></trkpt><trkpt lat="43.61632959500531" lon="12.08479919366061"><ele>474.5</ele><time>2026-04-18T09:19:01Z</time></trkpt><trkpt lat="43.6164358160662" lon="12.084958077007173"><ele>475.0</ele><time>2026-04-18T09:19:02Z</time></trkpt><trkpt lat="43.6165385219979" lon="12.085124745904661"><ele>475.0</ele><time>2026-04-18T09:19:03Z</time></trkpt><trkpt lat="43.61664622651353" lon="12.085301474587524"><ele>475.0</ele><time>2026-04-18T09:19:04Z</time></trkpt><trkpt lat="43.61675088213963" lon="12.085473200447781"><ele>475.0</ele><time>2026-04-18T09:19:05Z</time></trkpt><trkpt lat="43.61685809573112" lon="12.085647929821922"><ele>472.6666666666667</ele><time>2026-04-18T09:19:06Z</time></trkpt><trkpt lat="43.616963862964944" lon="12.085820284701406"><ele>470.33333333333337</ele><time>2026-04-18T09:19:07Z</time></trkpt><trkpt lat="43.61707165778065" lon="12.085998102156259"><ele>468.0</ele><time>2026-04-18T09:19:08Z</time></trkpt><trkpt lat="43.617177659500236" lon="12.086173069435869"><ele>468.0</ele><time>2026-04-18T09:19:09Z</time></trkpt><trkpt lat="43.61728834287018" lon="12.08635576404748"><ele>468.0</ele><time>2026-04-18T09:19:10Z</time></trkpt><trkpt lat="43.61739563453401" lon="12.086529633981614"><ele>468.0</ele><time>2026-04-18T09:19:11Z</time></trkpt><trkpt lat="43.61750807255072" lon="12.08669379361266"><ele>468.5</ele><time>2026-04-18T09:19:12Z</time></trkpt><trkpt lat="43.617614413030346" lon="12.08684321918939"><ele>469.0</ele><time>2026-04-18T09:19:13Z</time></trkpt><trkpt lat="43.6177190068743" lon="12.086993645890034"><ele>469.5</ele><time>2026-04-18T09:19:14Z</time></trkpt><trkpt lat="43.61781868638199" lon="12.0871324258626"><ele>470.0</ele><time>2026-04-18T09:19:15Z</time></trkpt><trkpt lat="43.617915056701904" lon="12.08725562553791"><ele>470.0</ele><time>2026-04-18T09:19:16Z</time></trkpt><trkpt lat="43.61801232555563" lon="12.087353395752015"><ele>470.0</ele><time>2026-04-18T09:19:17Z</time></trkpt><trkpt lat="43.618131112202526" lon="12.087390645663666"><ele>470.0</ele><time>2026-04-18T09:19:18Z</time></trkpt><trkpt lat="43.61826068537272" lon="12.087401431564908"><ele>470.0</ele><time>2026-04-18T09:19:19Z</time></trkpt><trkpt lat="43.618397648133396" lon="12.087358251830228"><ele>470.0</ele><time>2026-04-18T09:19:20Z</time></trkpt><trkpt lat="43.61852761298969" lon="12.0872398513177"><ele>470.0</ele><time>2026-04-18T09:19:21Z</time></trkpt><trkpt lat="43.61864115047294" lon="12.087087869000106"><ele>470.0</ele><time>2026-04-18T09:19:22Z</time></trkpt><trkpt lat="43.618727706651214" lon="12.086877029094431"><ele>469.3333333333333</ele><time>2026-04-18T09:19:23Z</time></trkpt><trkpt lat="43.61882479154683" lon="12.086682034032902"><ele>468.66666666666663</ele><time>2026-04-18T09:19:24Z</time></trkpt><trkpt lat="43.61892341043888" lon="12.08649121089796"><ele>468.0</ele><time>2026-04-18T09:19:25Z</time></trkpt><trkpt lat="43.619026304987024" lon="12.086289900198707"><ele>468.0</ele><time>2026-04-18T09:19:26Z</time></trkpt><trkpt lat="43.619130265407655" lon="12.08608346436733"><ele>468.0</ele><time>2026-04-18T09:19:27Z</time></trkpt><trkpt lat="43.619239009880005" lon="12.085874891101046"><ele>468.0</ele><time>2026-04-18T09:19:28Z</time></trkpt><trkpt lat="43.619345503526205" lon="12.085667840563271"><ele>466.0</ele><time>2026-04-18T09:19:29Z</time></trkpt><trkpt lat="43.619457705609754" lon="12.085453266983281"><ele>464.0</ele><time>2026-04-18T09:19:30Z</time></trkpt><trkpt lat="43.61956625492387" lon="12.085243131735034"><ele>462.0</ele><time>2026-04-18T09:19:31Z</time></trkpt><trkpt lat="43.61968142874335" lon="12.085029261136421"><ele>463.0</ele><time>2026-04-18T09:19:32Z</time></trkpt><trkpt lat="43.619802218454375" lon="12.084872688770766"><ele>464.0</ele><time>2026-04-18T09:19:33Z</time></trkpt><trkpt lat="43.619937787156225" lon="12.084713191963218"><ele>465.0</ele><time>2026-04-18T09:19:34Z</time></trkpt><trkpt lat="43.62007980699114" lon="12.084568464099183"><ele>465.0</ele><time>2026-04-18T09:19:35Z</time></trkpt><trkpt lat="43.620227737237904" lon="12.084451240065134"><ele>465.0</ele><time>2026-04-18T09:19:36Z</time></trkpt><trkpt lat="43.620370669677385" lon="12.08436907580372"><ele>465.0</ele><time>2026-04-18T09:19:37Z</time></trkpt><trkpt lat="43.62051701452372" lon="12.084303667066141"><ele>466.0</ele><time>2026-04-18T09:19:38Z</time></trkpt><trkpt lat="43.620669073419876" lon="12.084255191003633"><ele>467.0</ele><time>2026-04-18T09:19:39Z</time></trkpt><trkpt lat="43.62082146151002" lon="12.084212947911983"><ele>468.0</ele><time>2026-04-18T09:19:40Z</time></trkpt><trkpt lat="43.621061813300685" lon="12.084123384906864"><ele>463.66666666666663</ele><time>2026-04-18T09:19:41Z</time></trkpt><trkpt lat="43.621242082276524" lon="12.084065355905247"><ele>459.3333333333333</ele><time>2026-04-18T09:19:42Z</time></trkpt><trkpt lat="43.62141865284658" lon="12.083999076911248"><ele>455.0</ele><time>2026-04-18T09:19:43Z</time></trkpt><trkpt lat="43.62159770742732" lon="12.083949102724405"><ele>455.0</ele><time>2026-04-18T09:19:44Z</time></trkpt><trkpt lat="43.621779096192135" lon="12.083890547707385"><ele>455.0</ele><time>2026-04-18T09:19:45Z</time></trkpt><trkpt lat="43.62196203347757" lon="12.083830535535396"><ele>455.0</ele><time>2026-04-18T09:19:46Z</time></trkpt><trkpt lat="43.62213895562011" lon="12.083757611005774"><ele>455.0</ele><time>2026-04-18T09:19:47Z</time></trkpt><trkpt lat="43.62231395525637" lon="12.08365281854011"><ele>455.0</ele><time>2026-04-18T09:19:48Z</time></trkpt><trkpt lat="43.62247923751551" lon="12.083513400417697"><ele>455.0</ele><time>2026-04-18T09:19:49Z</time></trkpt><trkpt lat="43.62262793235588" lon="12.083334951465064"><ele>452.0</ele><time>2026-04-18T09:19:50.001Z</time></trkpt><trkpt lat="43.62274506976097" lon="12.083115603977669"><ele>449.0</ele><time>2026-04-18T09:19:51.001Z</time></trkpt><trkpt lat="43.62284081851618" lon="12.082875852295706"><ele>446.0</ele><time>2026-04-18T09:19:52.001Z</time></trkpt><trkpt lat="43.6228961567742" lon="12.082609981466147"><ele>448.3333333333333</ele><time>2026-04-18T09:19:53.001Z</time></trkpt><trkpt lat="43.62296440138893" lon="12.08233243045601"><ele>450.66666666666663</ele><time>2026-04-18T09:19:54.001Z</time></trkpt><trkpt lat="43.62304581364914" lon="12.082054247146557"><ele>453.0</ele><time>2026-04-18T09:19:55.001Z</time></trkpt><trkpt lat="43.62311444791312" lon="12.081764834395232"><ele>449.66666666666663</ele><time>2026-04-18T09:19:56.001Z</time></trkpt><trkpt lat="43.62317906095175" lon="12.081466922601974"><ele>446.3333333333333</ele><time>2026-04-18T09:19:57.001Z</time></trkpt><trkpt lat="43.623245209967344" lon="12.08118449882523"><ele>443.0</ele><time>2026-04-18T09:19:58.001Z</time></trkpt><trkpt lat="43.623306001850345" lon="12.080916191767589"><ele>438.66666666666663</ele><time>2026-04-18T09:19:59.001Z</time></trkpt><trkpt lat="43.623362634524526" lon="12.080663002172153"><ele>434.33333333333337</ele><time>2026-04-18T09:20:00.001Z</time></trkpt><trkpt lat="43.62341552344351" lon="12.080430020294592"><ele>430.0</ele><time>2026-04-18T09:20:01.001Z</time></trkpt><trkpt lat="43.62346625644838" lon="12.080218387803711"><ele>430.0</ele><time>2026-04-18T09:20:02.001Z</time></trkpt><trkpt lat="43.62351923936985" lon="12.080030072568347"><ele>430.0</ele><time>2026-04-18T09:20:03.001Z</time></trkpt><trkpt lat="43.62357664570796" lon="12.079858453386242"><ele>430.0</ele><time>2026-04-18T09:20:04.001Z</time></trkpt><trkpt lat="43.62368042721806" lon="12.07974167795056"><ele>430.0</ele><time>2026-04-18T09:20:05.001Z</time></trkpt><trkpt lat="43.62380346092976" lon="12.079646783512775"><ele>428.6666666666667</ele><time>2026-04-18T09:20:06.001Z</time></trkpt><trkpt lat="43.62392557317713" lon="12.079521291362871"><ele>427.33333333333337</ele><time>2026-04-18T09:20:07.001Z</time></trkpt><trkpt lat="43.624061520203824" lon="12.079422156924831"><ele>426.0</ele><time>2026-04-18T09:20:08Z</time></trkpt><trkpt lat="43.624204874887454" lon="12.079314839268598"><ele>426.0</ele><time>2026-04-18T09:20:09Z</time></trkpt><trkpt lat="43.62434176570565" lon="12.079203834238829"><ele>426.0</ele><time>2026-04-18T09:20:10Z</time></trkpt><trkpt lat="43.62448806412054" lon="12.079105989195513"><ele>426.0</ele><time>2026-04-18T09:20:11Z</time></trkpt><trkpt lat="43.624648070500996" lon="12.079065330010376"><ele>426.5</ele><time>2026-04-18T09:20:12Z</time></trkpt><trkpt lat="43.624802032569306" lon="12.079043170683981"><ele>427.0</ele><time>2026-04-18T09:20:13Z</time></trkpt><trkpt lat="43.62494241614353" lon="12.079061918199855"><ele>427.5</ele><time>2026-04-18T09:20:14Z</time></trkpt><trkpt lat="43.625065220390404" lon="12.07912862839903"><ele>428.0</ele><time>2026-04-18T09:20:15Z</time></trkpt><trkpt lat="43.62520129676839" lon="12.079224552677847"><ele>423.3333333333333</ele><time>2026-04-18T09:20:16Z</time></trkpt><trkpt lat="43.625355095073424" lon="12.079344110736088"><ele>418.66666666666663</ele><time>2026-04-18T09:20:17Z</time></trkpt><trkpt lat="43.62551035033438" lon="12.079464889248168"><ele>414.0</ele><time>2026-04-18T09:20:18Z</time></trkpt><trkpt lat="43.625655696024474" lon="12.079578395943004"><ele>414.0</ele><time>2026-04-18T09:20:19Z</time></trkpt><trkpt lat="43.6258109134753" lon="12.079702220515186"><ele>414.0</ele><time>2026-04-18T09:20:20Z</time></trkpt><trkpt lat="43.62597049874375" lon="12.079829529414411"><ele>414.0</ele><time>2026-04-18T09:20:21Z</time></trkpt><trkpt lat="43.62613156129248" lon="12.079958016799482"><ele>415.0</ele><time>2026-04-18T09:20:22Z</time></trkpt><trkpt lat="43.626295395072106" lon="12.080085530055886"><ele>416.0</ele><time>2026-04-18T09:20:23Z</time></trkpt><trkpt lat="43.62645493497039" lon="12.080208856133753"><ele>417.0</ele><time>2026-04-18T09:20:24Z</time></trkpt><trkpt lat="43.6266198752075" lon="12.08033635671788"><ele>417.0</ele><time>2026-04-18T09:20:25Z</time></trkpt><trkpt lat="43.62678481424936" lon="12.08046527909438"><ele>417.0</ele><time>2026-04-18T09:20:26Z</time></trkpt><trkpt lat="43.626950275225056" lon="12.080596259686033"><ele>417.0</ele><time>2026-04-18T09:20:27Z</time></trkpt><trkpt lat="43.62711434008294" lon="12.08073048599647"><ele>419.0</ele><time>2026-04-18T09:20:28Z</time></trkpt><trkpt lat="43.62727349226547" lon="12.080873974194171"><ele>421.0</ele><time>2026-04-18T09:20:29Z</time></trkpt><trkpt lat="43.627420157296996" lon="12.081032114297843"><ele>423.0</ele><time>2026-04-18T09:20:30Z</time></trkpt><trkpt lat="43.62756238645359" lon="12.081198514507427"><ele>423.0</ele><time>2026-04-18T09:20:31Z</time></trkpt><trkpt lat="43.62769273608449" lon="12.081372438152695"><ele>423.0</ele><time>2026-04-18T09:20:32Z</time></trkpt><trkpt lat="43.6278104925559" lon="12.081536958647984"><ele>423.0</ele><time>2026-04-18T09:20:33Z</time></trkpt><trkpt lat="43.62792458266676" lon="12.08169867363058"><ele>417.66666666666663</ele><time>2026-04-18T09:20:34Z</time></trkpt><trkpt lat="43.62803459149992" lon="12.081858016262554"><ele>412.3333333333333</ele><time>2026-04-18T09:20:35Z</time></trkpt><trkpt lat="43.628143123749275" lon="12.082019449972664"><ele>407.0</ele><time>2026-04-18T09:20:36Z</time></trkpt><trkpt lat="43.62824825387219" lon="12.082175549218267"><ele>407.0</ele><time>2026-04-18T09:20:37Z</time></trkpt><trkpt lat="43.62834978619666" lon="12.082326652727106"><ele>407.0</ele><time>2026-04-18T09:20:38Z</time></trkpt><trkpt lat="43.628449075872986" lon="12.082474417426429"><ele>407.0</ele><time>2026-04-18T09:20:39Z</time></trkpt><trkpt lat="43.62854786314791" lon="12.082621434654898"><ele>407.0</ele><time>2026-04-18T09:20:40Z</time></trkpt><trkpt lat="43.628644547911215" lon="12.08276365973117"><ele>405.66666666666663</ele><time>2026-04-18T09:20:41Z</time></trkpt><trkpt lat="43.628747428422976" lon="12.082905699473013"><ele>404.33333333333337</ele><time>2026-04-18T09:20:42Z</time></trkpt><trkpt lat="43.628876132069564" lon="12.08302917408903"><ele>403.0</ele><time>2026-04-18T09:20:43Z</time></trkpt><trkpt lat="43.629029330866935" lon="12.083078232329019"><ele>403.0</ele><time>2026-04-18T09:20:44Z</time></trkpt><trkpt lat="43.62918942311665" lon="12.083060826193075"><ele>403.0</ele><time>2026-04-18T09:20:45Z</time></trkpt><trkpt lat="43.629302969441426" lon="12.082862017678584"><ele>403.0</ele><time>2026-04-18T09:20:46Z</time></trkpt><trkpt lat="43.62942122710195" lon="12.082691876909722"><ele>403.6666666666667</ele><time>2026-04-18T09:20:47Z</time></trkpt><trkpt lat="43.629531662510054" lon="12.082538622133088"><ele>404.33333333333337</ele><time>2026-04-18T09:20:48Z</time></trkpt><trkpt lat="43.629648875120694" lon="12.08237574845156"><ele>405.0</ele><time>2026-04-18T09:20:49Z</time></trkpt><trkpt lat="43.629764158710536" lon="12.082215555352601"><ele>405.33333333333337</ele><time>2026-04-18T09:20:50Z</time></trkpt><trkpt lat="43.629872098560675" lon="12.08204418943379"><ele>405.6666666666667</ele><time>2026-04-18T09:20:51Z</time></trkpt><trkpt lat="43.629994974766205" lon="12.081886171622855"><ele>406.0</ele><time>2026-04-18T09:20:52Z</time></trkpt><trkpt lat="43.63010476376541" lon="12.081703621780028"><ele>407.33333333333337</ele><time>2026-04-18T09:20:53Z</time></trkpt><trkpt lat="43.63018729617532" lon="12.081503047667622"><ele>408.66666666666663</ele><time>2026-04-18T09:20:54Z</time></trkpt><trkpt lat="43.630245178070965" lon="12.081254578025813"><ele>410.0</ele><time>2026-04-18T09:20:55Z</time></trkpt><trkpt lat="43.63021770517005" lon="12.081013644882114"><ele>410.0</ele><time>2026-04-18T09:20:56Z</time></trkpt><trkpt lat="43.6301421427643" lon="12.080776570739715"><ele>410.0</ele><time>2026-04-18T09:20:57Z</time></trkpt><trkpt lat="43.63004102462246" lon="12.080559264700224"><ele>410.0</ele><time>2026-04-18T09:20:58Z</time></trkpt><trkpt lat="43.629936887294825" lon="12.08035082189995"><ele>411.3333333333333</ele><time>2026-04-18T09:20:59Z</time></trkpt><trkpt lat="43.62983246774258" lon="12.080141903179081"><ele>412.66666666666663</ele><time>2026-04-18T09:21:00Z</time></trkpt><trkpt lat="43.62972280763542" lon="12.07992100525962"><ele>414.0</ele><time>2026-04-18T09:21:01Z</time></trkpt><trkpt lat="43.629613326346934" lon="12.079696239475034"><ele>414.0</ele><time>2026-04-18T09:21:02Z</time></trkpt><trkpt lat="43.62950611663465" lon="12.079477424527308"><ele>414.0</ele><time>2026-04-18T09:21:03Z</time></trkpt><trkpt lat="43.62939507818782" lon="12.07925084579311"><ele>414.0</ele><time>2026-04-18T09:21:04Z</time></trkpt><trkpt lat="43.62928619107167" lon="12.079023703419145"><ele>414.0</ele><time>2026-04-18T09:21:05Z</time></trkpt><trkpt lat="43.629180555780415" lon="12.078796443779"><ele>414.0</ele><time>2026-04-18T09:21:06Z</time></trkpt><trkpt lat="43.62907236151318" lon="12.078566686730378"><ele>414.0</ele><time>2026-04-18T09:21:07Z</time></trkpt><trkpt lat="43.62896028108769" lon="12.078341342721796"><ele>416.33333333333337</ele><time>2026-04-18T09:21:08Z</time></trkpt><trkpt lat="43.62885128462527" lon="12.078124218411347"><ele>418.6666666666667</ele><time>2026-04-18T09:21:09Z</time></trkpt><trkpt lat="43.62874413465217" lon="12.077903917627273"><ele>421.0</ele><time>2026-04-18T09:21:10Z</time></trkpt><trkpt lat="43.628637543530544" lon="12.077684506604099"><ele>416.0</ele><time>2026-04-18T09:21:11Z</time></trkpt><trkpt lat="43.62853266224729" lon="12.077461386545904"><ele>411.0</ele><time>2026-04-18T09:21:12Z</time></trkpt><trkpt lat="43.62844474025154" lon="12.07722981238435"><ele>406.0</ele><time>2026-04-18T09:21:13Z</time></trkpt><trkpt lat="43.628425286017254" lon="12.07699681392088"><ele>406.0</ele><time>2026-04-18T09:21:14Z</time></trkpt><trkpt lat="43.628437883267004" lon="12.076762540870428"><ele>406.0</ele><time>2026-04-18T09:21:15Z</time></trkpt><trkpt lat="43.62849123598676" lon="12.076546251427663"><ele>406.0</ele><time>2026-04-18T09:21:16Z</time></trkpt><trkpt lat="43.62858280703977" lon="12.076338684456367"><ele>405.6666666666667</ele><time>2026-04-18T09:21:17Z</time></trkpt><trkpt lat="43.62869799781255" lon="12.076133704878297"><ele>405.33333333333337</ele><time>2026-04-18T09:21:18Z</time></trkpt><trkpt lat="43.628812936438166" lon="12.075928303853786"><ele>405.0</ele><time>2026-04-18T09:21:19Z</time></trkpt><trkpt lat="43.62893375051941" lon="12.075710464122535"><ele>405.0</ele><time>2026-04-18T09:21:20Z</time></trkpt><trkpt lat="43.62904897003609" lon="12.075467177936007"><ele>405.0</ele><time>2026-04-18T09:21:21Z</time></trkpt><trkpt lat="43.629187213173054" lon="12.075255359338922"><ele>405.0</ele><time>2026-04-18T09:21:22Z</time></trkpt><trkpt lat="43.629313025347464" lon="12.07502950923031"><ele>403.66666666666663</ele><time>2026-04-18T09:21:23Z</time></trkpt><trkpt lat="43.62943101107141" lon="12.07481668590604"><ele>402.3333333333333</ele><time>2026-04-18T09:21:24Z</time></trkpt><trkpt lat="43.62954387892316" lon="12.074582749746252"><ele>401.0</ele><time>2026-04-18T09:21:25Z</time></trkpt><trkpt lat="43.62967089773883" lon="12.074373164347026"><ele>402.0</ele><time>2026-04-18T09:21:26Z</time></trkpt><trkpt lat="43.62981598597267" lon="12.074188971025437"><ele>403.0</ele><time>2026-04-18T09:21:27Z</time></trkpt><trkpt lat="43.62996515569672" lon="12.073998174546045"><ele>404.0</ele><time>2026-04-18T09:21:28Z</time></trkpt><trkpt lat="43.630112191679125" lon="12.073816138725386"><ele>404.0</ele><time>2026-04-18T09:21:29Z</time></trkpt><trkpt lat="43.6302491411139" lon="12.07359992105241"><ele>404.0</ele><time>2026-04-18T09:21:30Z</time></trkpt><trkpt lat="43.63038681821396" lon="12.073396468292824"><ele>404.0</ele><time>2026-04-18T09:21:31Z</time></trkpt><trkpt lat="43.6305112259818" lon="12.073156639551522"><ele>404.66666666666663</ele><time>2026-04-18T09:21:32Z</time></trkpt><trkpt lat="43.63062172927536" lon="12.072919332250637"><ele>405.33333333333337</ele><time>2026-04-18T09:21:33Z</time></trkpt><trkpt lat="43.63072874975014" lon="12.072681698720404"><ele>406.0</ele><time>2026-04-18T09:21:34Z</time></trkpt><trkpt lat="43.63084419207112" lon="12.072454278803123"><ele>407.33333333333337</ele><time>2026-04-18T09:21:35Z</time></trkpt><trkpt lat="43.63097394557597" lon="12.07223432877744"><ele>408.66666666666663</ele><time>2026-04-18T09:21:36Z</time></trkpt><trkpt lat="43.63111842730953" lon="12.072029144095202"><ele>410.0</ele><time>2026-04-18T09:21:37Z</time></trkpt><trkpt lat="43.63128650004813" lon="12.071868315984341"><ele>410.0</ele><time>2026-04-18T09:21:38Z</time></trkpt><trkpt lat="43.631440881313196" lon="12.071675965609613"><ele>410.0</ele><time>2026-04-18T09:21:39Z</time></trkpt><trkpt lat="43.631606626784766" lon="12.071507096506824"><ele>410.0</ele><time>2026-04-18T09:21:40Z</time></trkpt><trkpt lat="43.63177201184782" lon="12.071333012797242"><ele>410.66666666666663</ele><time>2026-04-18T09:21:41Z</time></trkpt><trkpt lat="43.6319401209259" lon="12.071156639370693"><ele>411.33333333333337</ele><time>2026-04-18T09:21:42Z</time></trkpt><trkpt lat="43.63210397205547" lon="12.07097696023489"><ele>412.0</ele><time>2026-04-18T09:21:43Z</time></trkpt><trkpt lat="43.63227122074991" lon="12.070795756209947"><ele>408.6666666666667</ele><time>2026-04-18T09:21:44Z</time></trkpt><trkpt lat="43.632436758447234" lon="12.070615018623975"><ele>405.33333333333337</ele><time>2026-04-18T09:21:45Z</time></trkpt><trkpt lat="43.632605820738455" lon="12.070432329313176"><ele>402.0</ele><time>2026-04-18T09:21:46Z</time></trkpt><trkpt lat="43.63277051944508" lon="12.070265009937614"><ele>400.66666666666663</ele><time>2026-04-18T09:21:47Z</time></trkpt><trkpt lat="43.632940625307256" lon="12.070123574116558"><ele>399.3333333333333</ele><time>2026-04-18T09:21:48Z</time></trkpt><trkpt lat="43.6331250929073" lon="12.069998983405176"><ele>398.0</ele><time>2026-04-18T09:21:49Z</time></trkpt><trkpt lat="43.6333171133871" lon="12.069873468394428"><ele>398.0</ele><time>2026-04-18T09:21:50Z</time></trkpt><trkpt lat="43.63350982282992" lon="12.069752327892934"><ele>398.0</ele><time>2026-04-18T09:21:51Z</time></trkpt><trkpt lat="43.63370199722411" lon="12.069626262590418"><ele>398.0</ele><time>2026-04-18T09:21:52Z</time></trkpt><trkpt lat="43.633898640898224" lon="12.069500763593009"><ele>400.66666666666663</ele><time>2026-04-18T09:21:53Z</time></trkpt><trkpt lat="43.63408880244421" lon="12.069376054212944"><ele>403.33333333333337</ele><time>2026-04-18T09:21:54Z</time></trkpt><trkpt lat="43.634284062884745" lon="12.069252876318215"><ele>406.0</ele><time>2026-04-18T09:21:55Z</time></trkpt><trkpt lat="43.634478405722156" lon="12.06913477954969"><ele>405.6666666666667</ele><time>2026-04-18T09:21:56.001Z</time></trkpt><trkpt lat="43.63466315502192" lon="12.069016538870308"><ele>405.33333333333337</ele><time>2026-04-18T09:21:57.001Z</time></trkpt><trkpt lat="43.634844406592485" lon="12.0688967672933"><ele>405.0</ele><time>2026-04-18T09:21:58.001Z</time></trkpt><trkpt lat="43.63501859189896" lon="12.068782764566182"><ele>405.0</ele><time>2026-04-18T09:21:59.001Z</time></trkpt><trkpt lat="43.63519807022037" lon="12.068663850166743"><ele>405.0</ele><time>2026-04-18T09:22:00.001Z</time></trkpt><trkpt lat="43.635366633409795" lon="12.06855334830182"><ele>405.0</ele><time>2026-04-18T09:22:01.001Z</time></trkpt><trkpt lat="43.635539163105925" lon="12.068461377281405"><ele>406.0</ele><time>2026-04-18T09:22:02.001Z</time></trkpt><trkpt lat="43.63571263198654" lon="12.068333919418842"><ele>407.0</ele><time>2026-04-18T09:22:03.001Z</time></trkpt><trkpt lat="43.63590400590243" lon="12.068262921510293"><ele>408.0</ele><time>2026-04-18T09:22:04.001Z</time></trkpt><trkpt lat="43.63609835530491" lon="12.068192781651984"><ele>406.0</ele><time>2026-04-18T09:22:05.001Z</time></trkpt><trkpt lat="43.636300377875294" lon="12.068131833996105"><ele>404.0</ele><time>2026-04-18T09:22:06.001Z</time></trkpt><trkpt lat="43.63650339091293" lon="12.068070587562735"><ele>402.0</ele><time>2026-04-18T09:22:07.001Z</time></trkpt><trkpt lat="43.63671024774367" lon="12.067989783602076"><ele>402.0</ele><time>2026-04-18T09:22:08.001Z</time></trkpt><trkpt lat="43.63691415448479" lon="12.067936134109775"><ele>402.0</ele><time>2026-04-18T09:22:09.001Z</time></trkpt><trkpt lat="43.63711124640719" lon="12.067870038478103"><ele>402.0</ele><time>2026-04-18T09:22:10.001Z</time></trkpt><trkpt lat="43.63731624773183" lon="12.067828087602503"><ele>403.0</ele><time>2026-04-18T09:22:11.001Z</time></trkpt><trkpt lat="43.637517166689065" lon="12.067766542596825"><ele>404.0</ele><time>2026-04-18T09:22:12.001Z</time></trkpt><trkpt lat="43.63771362239134" lon="12.067706364875983"><ele>405.0</ele><time>2026-04-18T09:22:13.001Z</time></trkpt><trkpt lat="43.63790729214613" lon="12.067647042121699"><ele>405.0</ele><time>2026-04-18T09:22:14.001Z</time></trkpt><trkpt lat="43.63809763718101" lon="12.067588194325744"><ele>405.0</ele><time>2026-04-18T09:22:15.001Z</time></trkpt><trkpt lat="43.6382701716413" lon="12.06753421835362"><ele>405.0</ele><time>2026-04-18T09:22:16.001Z</time></trkpt><trkpt lat="43.638431366324134" lon="12.067466288694373"><ele>404.0</ele><time>2026-04-18T09:22:17.001Z</time></trkpt><trkpt lat="43.638583167434525" lon="12.067418023414833"><ele>403.0</ele><time>2026-04-18T09:22:18.001Z</time></trkpt><trkpt lat="43.638738644809045" lon="12.067364680665436"><ele>402.0</ele><time>2026-04-18T09:22:19.001Z</time></trkpt><trkpt lat="43.63890705519283" lon="12.067335241768431"><ele>402.0</ele><time>2026-04-18T09:22:20.001Z</time></trkpt><trkpt lat="43.63906811881218" lon="12.06726307748229"><ele>402.0</ele><time>2026-04-18T09:22:21Z</time></trkpt><trkpt lat="43.639228045674066" lon="12.067215751194162"><ele>402.0</ele><time>2026-04-18T09:22:22Z</time></trkpt><trkpt lat="43.639397788338314" lon="12.06716616585262"><ele>403.33333333333337</ele><time>2026-04-18T09:22:23Z</time></trkpt><trkpt lat="43.63956730718058" lon="12.067111209648756"><ele>404.6666666666667</ele><time>2026-04-18T09:22:24Z</time></trkpt><trkpt lat="43.639736267332175" lon="12.067083340428313"><ele>406.0</ele><time>2026-04-18T09:22:25Z</time></trkpt><trkpt lat="43.63991092493858" lon="12.067028231232738"><ele>406.0</ele><time>2026-04-18T09:22:26Z</time></trkpt><trkpt lat="43.64007853993237" lon="12.066970958219786"><ele>406.0</ele><time>2026-04-18T09:22:27Z</time></trkpt><trkpt lat="43.64024477194181" lon="12.066876047050483"><ele>406.0</ele><time>2026-04-18T09:22:28Z</time></trkpt><trkpt lat="43.64040522813883" lon="12.06679343676713"><ele>407.0</ele><time>2026-04-18T09:22:29Z</time></trkpt><trkpt lat="43.64056506423468" lon="12.066689662035836"><ele>408.0</ele><time>2026-04-18T09:22:30Z</time></trkpt><trkpt lat="43.6407210936954" lon="12.066580438626533"><ele>409.0</ele><time>2026-04-18T09:22:31Z</time></trkpt><trkpt lat="43.640886412894204" lon="12.066473777775363"><ele>407.33333333333337</ele><time>2026-04-18T09:22:32Z</time></trkpt><trkpt lat="43.641043653283305" lon="12.06635386423743"><ele>405.66666666666663</ele><time>2026-04-18T09:22:33Z</time></trkpt><trkpt lat="43.64119653292096" lon="12.066231176279455"><ele>404.0</ele><time>2026-04-18T09:22:34Z</time></trkpt><trkpt lat="43.64129570686581" lon="12.065965880462032"><ele>404.0</ele><time>2026-04-18T09:22:35Z</time></trkpt><trkpt lat="43.641418103446156" lon="12.06578696397337"><ele>404.0</ele><time>2026-04-18T09:22:36Z</time></trkpt><trkpt lat="43.64154161614671" lon="12.065594779463277"><ele>404.0</ele><time>2026-04-18T09:22:37Z</time></trkpt><trkpt lat="43.64166137144394" lon="12.065402950219136"><ele>404.3333333333333</ele><time>2026-04-18T09:22:38Z</time></trkpt><trkpt lat="43.641775744847024" lon="12.065215562308785"><ele>404.66666666666663</ele><time>2026-04-18T09:22:39Z</time></trkpt><trkpt lat="43.64188267293348" lon="12.065037003936524"><ele>405.0</ele><time>2026-04-18T09:22:40Z</time></trkpt><trkpt lat="43.641989796082235" lon="12.064870187887413"><ele>408.0</ele><time>2026-04-18T09:22:41Z</time></trkpt><trkpt lat="43.64209934876341" lon="12.06470037821198"><ele>411.0</ele><time>2026-04-18T09:22:42Z</time></trkpt><trkpt lat="43.642210932709794" lon="12.064526366897056"><ele>414.0</ele><time>2026-04-18T09:22:43Z</time></trkpt><trkpt lat="43.642324519592464" lon="12.064344421453713"><ele>414.0</ele><time>2026-04-18T09:22:44Z</time></trkpt><trkpt lat="43.642435047472524" lon="12.064165755071787"><ele>414.0</ele><time>2026-04-18T09:22:45Z</time></trkpt><trkpt lat="43.642542124026136" lon="12.063991645129608"><ele>414.0</ele><time>2026-04-18T09:22:46Z</time></trkpt><trkpt lat="43.6426466075547" lon="12.0638178044344"><ele>413.0</ele><time>2026-04-18T09:22:47Z</time></trkpt><trkpt lat="43.64275405248703" lon="12.06365397643842"><ele>412.0</ele><time>2026-04-18T09:22:48Z</time></trkpt><trkpt lat="43.64285864159298" lon="12.063519209198656"><ele>411.0</ele><time>2026-04-18T09:22:49Z</time></trkpt><trkpt lat="43.642976842222495" lon="12.063400630866829"><ele>410.0</ele><time>2026-04-18T09:22:50Z</time></trkpt><trkpt lat="43.64310821609917" lon="12.06330964212689"><ele>410.0</ele><time>2026-04-18T09:22:51Z</time></trkpt><trkpt lat="43.64324346140198" lon="12.063262395260402"><ele>410.0</ele><time>2026-04-18T09:22:52Z</time></trkpt><trkpt lat="43.643387666891506" lon="12.063270303490048"><ele>410.0</ele><time>2026-04-18T09:22:53Z</time></trkpt><trkpt lat="43.64352712739605" lon="12.063322613240775"><ele>410.0</ele><time>2026-04-18T09:22:54Z</time></trkpt><trkpt lat="43.64366039228259" lon="12.06339915834106"><ele>409.0</ele><time>2026-04-18T09:22:55Z</time></trkpt><trkpt lat="43.643795362674716" lon="12.063475897593257"><ele>408.0</ele><time>2026-04-18T09:22:56Z</time></trkpt><trkpt lat="43.643924793016396" lon="12.06355147178392"><ele>407.0</ele><time>2026-04-18T09:22:57Z</time></trkpt><trkpt lat="43.6440498080457" lon="12.063617877025816"><ele>406.0</ele><time>2026-04-18T09:22:58Z</time></trkpt><trkpt lat="43.64416686200139" lon="12.063682572606579"><ele>406.0</ele><time>2026-04-18T09:22:59Z</time></trkpt><trkpt lat="43.64428176166338" lon="12.063743783509002"><ele>406.0</ele><time>2026-04-18T09:23:00Z</time></trkpt><trkpt lat="43.644397802717044" lon="12.063803053485174"><ele>406.0</ele><time>2026-04-18T09:23:01Z</time></trkpt><trkpt lat="43.64451362851569" lon="12.063851035203525"><ele>406.0</ele><time>2026-04-18T09:23:02Z</time></trkpt><trkpt lat="43.64463124415535" lon="12.063899456800812"><ele>406.0</ele><time>2026-04-18T09:23:03Z</time></trkpt><trkpt lat="43.644741821251294" lon="12.063943831036697"><ele>406.0</ele><time>2026-04-18T09:23:04Z</time></trkpt><trkpt lat="43.64483351015497" lon="12.063961443268758"><ele>406.0</ele><time>2026-04-18T09:23:05Z</time></trkpt><trkpt lat="43.64494312621309" lon="12.063943382317118"><ele>406.0</ele><time>2026-04-18T09:23:06Z</time></trkpt><trkpt lat="43.645057225682365" lon="12.063896690593747"><ele>406.0</ele><time>2026-04-18T09:23:07Z</time></trkpt><trkpt lat="43.64516208060407" lon="12.06382773241937"><ele>406.0</ele><time>2026-04-18T09:23:08Z</time></trkpt><trkpt lat="43.64526141474156" lon="12.063737272668826"><ele>406.0</ele><time>2026-04-18T09:23:09Z</time></trkpt><trkpt lat="43.645340172685785" lon="12.063606768240277"><ele>406.0</ele><time>2026-04-18T09:23:10Z</time></trkpt><trkpt lat="43.6454007994273" lon="12.06344365375257"><ele>406.0</ele><time>2026-04-18T09:23:11Z</time></trkpt><trkpt lat="43.64544330168789" lon="12.063260054644681"><ele>407.75</ele><time>2026-04-18T09:23:12Z</time></trkpt><trkpt lat="43.64547030985852" lon="12.063071287173084"><ele>409.5</ele><time>2026-04-18T09:23:13Z</time></trkpt><trkpt lat="43.64549438882959" lon="12.062870448020355"><ele>411.25</ele><time>2026-04-18T09:23:14Z</time></trkpt><trkpt lat="43.64551871271094" lon="12.062658292348843"><ele>413.0</ele><time>2026-04-18T09:23:15Z</time></trkpt><trkpt lat="43.645542545088695" lon="12.062445902688275"><ele>413.0</ele><time>2026-04-18T09:23:16Z</time></trkpt><trkpt lat="43.6455671682345" lon="12.062236775156338"><ele>413.0</ele><time>2026-04-18T09:23:17Z</time></trkpt><trkpt lat="43.64559045587709" lon="12.062026981763973"><ele>413.0</ele><time>2026-04-18T09:23:18Z</time></trkpt><trkpt lat="43.645611350927474" lon="12.061816691235821"><ele>412.0</ele><time>2026-04-18T09:23:19Z</time></trkpt><trkpt lat="43.64563517607898" lon="12.061614693396587"><ele>411.0</ele><time>2026-04-18T09:23:20Z</time></trkpt><trkpt lat="43.645660663677994" lon="12.061416176931532"><ele>410.0</ele><time>2026-04-18T09:23:21Z</time></trkpt><trkpt lat="43.64568659584287" lon="12.061217932313832"><ele>409.0</ele><time>2026-04-18T09:23:22Z</time></trkpt><trkpt lat="43.64571111127703" lon="12.061021448305018"><ele>409.0</ele><time>2026-04-18T09:23:23Z</time></trkpt><trkpt lat="43.645731243919805" lon="12.060828697095298"><ele>409.0</ele><time>2026-04-18T09:23:24Z</time></trkpt><trkpt lat="43.64575191710079" lon="12.060636599555707"><ele>409.0</ele><time>2026-04-18T09:23:25Z</time></trkpt><trkpt lat="43.64577491404509" lon="12.060447220639283"><ele>409.0</ele><time>2026-04-18T09:23:26Z</time></trkpt><trkpt lat="43.645799293086085" lon="12.060263228634446"><ele>409.0</ele><time>2026-04-18T09:23:27Z</time></trkpt><trkpt lat="43.645823088013806" lon="12.060075640308698"><ele>409.0</ele><time>2026-04-18T09:23:28Z</time></trkpt><trkpt lat="43.64584345080785" lon="12.059895828173339"><ele>409.0</ele><time>2026-04-18T09:23:29Z</time></trkpt><trkpt lat="43.64586122189634" lon="12.059718785857765"><ele>409.0</ele><time>2026-04-18T09:23:30Z</time></trkpt><trkpt lat="43.645881636718876" lon="12.059542459402271"><ele>408.5</ele><time>2026-04-18T09:23:31Z</time></trkpt><trkpt lat="43.645907574940985" lon="12.059362170600233"><ele>408.0</ele><time>2026-04-18T09:23:32Z</time></trkpt><trkpt lat="43.645932006162624" lon="12.059175742700443"><ele>407.5</ele><time>2026-04-18T09:23:33Z</time></trkpt><trkpt lat="43.64595459801631" lon="12.058983759667106"><ele>407.0</ele><time>2026-04-18T09:23:34Z</time></trkpt><trkpt lat="43.645975319040474" lon="12.058785447353939"><ele>407.0</ele><time>2026-04-18T09:23:35Z</time></trkpt><trkpt lat="43.646000913047125" lon="12.058583782118035"><ele>407.0</ele><time>2026-04-18T09:23:36Z</time></trkpt><trkpt lat="43.646038112749515" lon="12.058381686611265"><ele>407.0</ele><time>2026-04-18T09:23:37Z</time></trkpt><trkpt lat="43.64608539872577" lon="12.058185334824547"><ele>407.0</ele><time>2026-04-18T09:23:38Z</time></trkpt><trkpt lat="43.64613905095846" lon="12.057987348616528"><ele>409.0</ele><time>2026-04-18T09:23:39Z</time></trkpt><trkpt lat="43.64619619324743" lon="12.057787463050913"><ele>411.0</ele><time>2026-04-18T09:23:40Z</time></trkpt><trkpt lat="43.64625633059516" lon="12.057583332735003"><ele>413.0</ele><time>2026-04-18T09:23:41Z</time></trkpt><trkpt lat="43.6463158551899" lon="12.057386180900812"><ele>413.0</ele><time>2026-04-18T09:23:42Z</time></trkpt><trkpt lat="43.646372780343945" lon="12.057187739426425"><ele>413.0</ele><time>2026-04-18T09:23:43Z</time></trkpt><trkpt lat="43.6464319097012" lon="12.05699820822438"><ele>413.0</ele><time>2026-04-18T09:23:44Z</time></trkpt><trkpt lat="43.6464906855616" lon="12.056803334583089"><ele>412.75</ele><time>2026-04-18T09:23:45Z</time></trkpt><trkpt lat="43.64654825516948" lon="12.056611151398139"><ele>412.5</ele><time>2026-04-18T09:23:46Z</time></trkpt><trkpt lat="43.64660170223944" lon="12.05641570286662"><ele>412.25</ele><time>2026-04-18T09:23:47Z</time></trkpt><trkpt lat="43.64665475707016" lon="12.056229605881484"><ele>412.0</ele><time>2026-04-18T09:23:48Z</time></trkpt><trkpt lat="43.64670740840268" lon="12.056060678280568"><ele>412.0</ele><time>2026-04-18T09:23:49Z</time></trkpt><trkpt lat="43.64675801438438" lon="12.055903363238528"><ele>412.0</ele><time>2026-04-18T09:23:50Z</time></trkpt><trkpt lat="43.646808508388006" lon="12.055750635622523"><ele>412.0</ele><time>2026-04-18T09:23:51Z</time></trkpt><trkpt lat="43.64686490972308" lon="12.0556021980261"><ele>412.0</ele><time>2026-04-18T09:23:52Z</time></trkpt><trkpt lat="43.646935589088166" lon="12.055461437717474"><ele>412.0</ele><time>2026-04-18T09:23:53Z</time></trkpt><trkpt lat="43.64701925866937" lon="12.055325725373661"><ele>412.0</ele><time>2026-04-18T09:23:54Z</time></trkpt><trkpt lat="43.64711689723068" lon="12.055203159125503"><ele>412.0</ele><time>2026-04-18T09:23:55Z</time></trkpt><trkpt lat="43.647226904270546" lon="12.055091374925055"><ele>412.0</ele><time>2026-04-18T09:23:56Z</time></trkpt><trkpt lat="43.64734636204744" lon="12.054998214350945"><ele>411.0</ele><time>2026-04-18T09:23:57Z</time></trkpt><trkpt lat="43.64746470746504" lon="12.054930740899293"><ele>410.0</ele><time>2026-04-18T09:23:58Z</time></trkpt><trkpt lat="43.647566222455474" lon="12.054877332035346"><ele>409.0</ele><time>2026-04-18T09:23:59Z</time></trkpt><trkpt lat="43.64764739136124" lon="12.054844249698705"><ele>408.0</ele><time>2026-04-18T09:24:00Z</time></trkpt><trkpt lat="43.647741916203856" lon="12.054813211731277"><ele>407.0</ele><time>2026-04-18T09:24:02.001Z</time></trkpt><trkpt lat="43.64784549123023" lon="12.054768256528568"><ele>407.0</ele><time>2026-04-18T09:24:04.001Z</time></trkpt><trkpt lat="43.64798232846608" lon="12.054706887224109"><ele>407.0</ele><time>2026-04-18T09:24:06.001Z</time></trkpt><trkpt lat="43.64807458861274" lon="12.054681046137905"><ele>407.0</ele><time>2026-04-18T09:24:07.001Z</time></trkpt><trkpt lat="43.64817933756119" lon="12.054661989869752"><ele>407.0</ele><time>2026-04-18T09:24:08.001Z</time></trkpt><trkpt lat="43.648291960104295" lon="12.05464815243792"><ele>407.0</ele><time>2026-04-18T09:24:09.001Z</time></trkpt><trkpt lat="43.64842427862296" lon="12.05464349242714"><ele>407.0</ele><time>2026-04-18T09:24:10.001Z</time></trkpt><trkpt lat="43.64856739901708" lon="12.054640389817697"><ele>407.0</ele><time>2026-04-18T09:24:11Z</time></trkpt><trkpt lat="43.64871139385921" lon="12.05463726825309"><ele>407.0</ele><time>2026-04-18T09:24:12Z</time></trkpt><trkpt lat="43.6488396424653" lon="12.05462090027177"><ele>407.5</ele><time>2026-04-18T09:24:13Z</time></trkpt><trkpt lat="43.648955170389584" lon="12.054618786014318"><ele>408.0</ele><time>2026-04-18T09:24:14Z</time></trkpt><trkpt lat="43.64906739207792" lon="12.054613349898077"><ele>408.5</ele><time>2026-04-18T09:24:15Z</time></trkpt><trkpt lat="43.64918009887848" lon="12.054614699667436"><ele>409.0</ele><time>2026-04-18T09:24:16Z</time></trkpt><trkpt lat="43.64930596625024" lon="12.054614403764292"><ele>409.0</ele><time>2026-04-18T09:24:17Z</time></trkpt><trkpt lat="43.649431763631135" lon="12.054611646152752"><ele>409.0</ele><time>2026-04-18T09:24:18Z</time></trkpt><trkpt lat="43.64956892544422" lon="12.054609814666728"><ele>409.0</ele><time>2026-04-18T09:24:19Z</time></trkpt><trkpt lat="43.64970580659976" lon="12.054601210398038"><ele>409.0</ele><time>2026-04-18T09:24:20Z</time></trkpt><trkpt lat="43.64983512661426" lon="12.054617773445994"><ele>409.6666666666667</ele><time>2026-04-18T09:24:21Z</time></trkpt><trkpt lat="43.649981141123405" lon="12.054615444875912"><ele>410.33333333333337</ele><time>2026-04-18T09:24:22Z</time></trkpt><trkpt lat="43.65013342339917" lon="12.05461301634697"><ele>411.0</ele><time>2026-04-18T09:24:23Z</time></trkpt><trkpt lat="43.650291589300664" lon="12.054610495838054"><ele>411.66666666666663</ele><time>2026-04-18T09:24:24Z</time></trkpt><trkpt lat="43.65045564871523" lon="12.054607879497064"><ele>412.3333333333333</ele><time>2026-04-18T09:24:25Z</time></trkpt><trkpt lat="43.6506139011554" lon="12.054605355761932"><ele>413.0</ele><time>2026-04-18T09:24:26Z</time></trkpt><trkpt lat="43.65077681045488" lon="12.054602757761291"><ele>413.0</ele><time>2026-04-18T09:24:27Z</time></trkpt><trkpt lat="43.65094382847809" lon="12.054600094236195"><ele>413.0</ele><time>2026-04-18T09:24:28Z</time></trkpt><trkpt lat="43.651123672190614" lon="12.054597083353167"><ele>413.0</ele><time>2026-04-18T09:24:29Z</time></trkpt><trkpt lat="43.65128859793419" lon="12.054592585377728"><ele>412.66666666666663</ele><time>2026-04-18T09:24:30Z</time></trkpt><trkpt lat="43.65145067746778" lon="12.054584532852227"><ele>412.33333333333337</ele><time>2026-04-18T09:24:31Z</time></trkpt><trkpt lat="43.651620297800534" lon="12.05456919838322"><ele>412.0</ele><time>2026-04-18T09:24:32Z</time></trkpt><trkpt lat="43.65178982404308" lon="12.054545200773918"><ele>412.0</ele><time>2026-04-18T09:24:32.999Z</time></trkpt><trkpt lat="43.65195198222303" lon="12.054519507463777"><ele>412.0</ele><time>2026-04-18T09:24:33.999Z</time></trkpt><trkpt lat="43.652118259131456" lon="12.054490672451625"><ele>412.0</ele><time>2026-04-18T09:24:34.999Z</time></trkpt><trkpt lat="43.652285106413565" lon="12.054460235752051"><ele>412.33333333333337</ele><time>2026-04-18T09:24:35.999Z</time></trkpt><trkpt lat="43.65245267399591" lon="12.054429221548316"><ele>412.66666666666663</ele><time>2026-04-18T09:24:36.999Z</time></trkpt><trkpt lat="43.65261827828956" lon="12.054398580045678"><ele>413.0</ele><time>2026-04-18T09:24:37.999Z</time></trkpt><trkpt lat="43.6527831945184" lon="12.054368252068809"><ele>413.0</ele><time>2026-04-18T09:24:38.999Z</time></trkpt><trkpt lat="43.65295422243751" lon="12.054335014912159"><ele>413.0</ele><time>2026-04-18T09:24:39.999Z</time></trkpt><trkpt lat="43.653126895746844" lon="12.054299482210187"><ele>413.0</ele><time>2026-04-18T09:24:40.999Z</time></trkpt><trkpt lat="43.65328360404401" lon="12.054249884494686"><ele>413.0</ele><time>2026-04-18T09:24:41.999Z</time></trkpt><trkpt lat="43.6534546036646" lon="12.054236917483378"><ele>413.0</ele><time>2026-04-18T09:24:42.999Z</time></trkpt><trkpt lat="43.65362636071759" lon="12.054204411853561"><ele>413.0</ele><time>2026-04-18T09:24:43.999Z</time></trkpt><trkpt lat="43.65377773977071" lon="12.054175762803272"><ele>413.66666666666663</ele><time>2026-04-18T09:24:44.999Z</time></trkpt><trkpt lat="43.65393386042878" lon="12.05414514932368"><ele>414.33333333333337</ele><time>2026-04-18T09:24:45.999Z</time></trkpt><trkpt lat="43.65409314799223" lon="12.054113814474421"><ele>415.0</ele><time>2026-04-18T09:24:46.999Z</time></trkpt><trkpt lat="43.654253843919896" lon="12.054060070706784"><ele>415.0</ele><time>2026-04-18T09:24:47.999Z</time></trkpt><trkpt lat="43.654428010231534" lon="12.054048422217452"><ele>415.0</ele><time>2026-04-18T09:24:48.999Z</time></trkpt><trkpt lat="43.654593777983884" lon="12.053993252351066"><ele>415.0</ele><time>2026-04-18T09:24:49.999Z</time></trkpt><trkpt lat="43.654764772704844" lon="12.053982889147504"><ele>416.0</ele><time>2026-04-18T09:24:50.999Z</time></trkpt><trkpt lat="43.65492131265391" lon="12.053937819488706"><ele>417.0</ele><time>2026-04-18T09:24:51.999Z</time></trkpt><trkpt lat="43.65509430545506" lon="12.053901040331802"><ele>418.0</ele><time>2026-04-18T09:24:52.999Z</time></trkpt><trkpt lat="43.65526263412942" lon="12.053887374941494"><ele>418.0</ele><time>2026-04-18T09:24:53.999Z</time></trkpt><trkpt lat="43.65543245500639" lon="12.053832745215765"><ele>418.0</ele><time>2026-04-18T09:24:54.999Z</time></trkpt><trkpt lat="43.65559452787519" lon="12.053804835940948"><ele>418.0</ele><time>2026-04-18T09:24:55.999Z</time></trkpt><trkpt lat="43.65575766148911" lon="12.053795091364394"><ele>418.0</ele><time>2026-04-18T09:24:56.999Z</time></trkpt><trkpt lat="43.655917520971016" lon="12.05376646387239"><ele>418.0</ele><time>2026-04-18T09:24:57.999Z</time></trkpt><trkpt lat="43.6560728924724" lon="12.053732938451978"><ele>418.0</ele><time>2026-04-18T09:24:58.999Z</time></trkpt><trkpt lat="43.656229266613686" lon="12.053702899674196"><ele>418.0</ele><time>2026-04-18T09:24:59.999Z</time></trkpt><trkpt lat="43.656387828038206" lon="12.053656284575714"><ele>418.0</ele><time>2026-04-18T09:25:00.999Z</time></trkpt><trkpt lat="43.6565553152315" lon="12.053643493621802"><ele>418.0</ele><time>2026-04-18T09:25:01.999Z</time></trkpt><trkpt lat="43.65671715238964" lon="12.053638374774387"><ele>418.0</ele><time>2026-04-18T09:25:02.999Z</time></trkpt><trkpt lat="43.65688588631233" lon="12.053642359832578"><ele>418.0</ele><time>2026-04-18T09:25:03.999Z</time></trkpt><trkpt lat="43.65705543968557" lon="12.053645432940053"><ele>418.0</ele><time>2026-04-18T09:25:04.999Z</time></trkpt><trkpt lat="43.657229864837575" lon="12.053647688516035"><ele>418.0</ele><time>2026-04-18T09:25:05.999Z</time></trkpt><trkpt lat="43.65739745512094" lon="12.053654757524923"><ele>418.0</ele><time>2026-04-18T09:25:06.999Z</time></trkpt><trkpt lat="43.65756765796263" lon="12.053654898359227"><ele>418.0</ele><time>2026-04-18T09:25:07.999Z</time></trkpt><trkpt lat="43.65772052984066" lon="12.05366187402528"><ele>418.75</ele><time>2026-04-18T09:25:08.999Z</time></trkpt><trkpt lat="43.657863541081355" lon="12.053675631625987"><ele>419.5</ele><time>2026-04-18T09:25:09.999Z</time></trkpt><trkpt lat="43.658003460235726" lon="12.053721551192707"><ele>420.25</ele><time>2026-04-18T09:25:10.999Z</time></trkpt><trkpt lat="43.65814834187005" lon="12.053769064694116"><ele>421.0</ele><time>2026-04-18T09:25:11.999Z</time></trkpt><trkpt lat="43.658303683859955" lon="12.053815843558581"><ele>421.0</ele><time>2026-04-18T09:25:12.999Z</time></trkpt><trkpt lat="43.65846758654505" lon="12.053853222250675"><ele>421.0</ele><time>2026-04-18T09:25:13.999Z</time></trkpt><trkpt lat="43.658631626493715" lon="12.053865293009656"><ele>421.0</ele><time>2026-04-18T09:25:14.999Z</time></trkpt><trkpt lat="43.658804517499725" lon="12.053822713446985"><ele>420.33333333333337</ele><time>2026-04-18T09:25:15.999Z</time></trkpt><trkpt lat="43.65896590976113" lon="12.053724805897263"><ele>419.66666666666663</ele><time>2026-04-18T09:25:16.999Z</time></trkpt><trkpt lat="43.659123928061604" lon="12.053600938457084"><ele>419.0</ele><time>2026-04-18T09:25:17.999Z</time></trkpt><trkpt lat="43.65927214923612" lon="12.053473431009618"><ele>419.0</ele><time>2026-04-18T09:25:18.999Z</time></trkpt><trkpt lat="43.65941117701912" lon="12.053344619725607"><ele>419.0</ele><time>2026-04-18T09:25:19.999Z</time></trkpt><trkpt lat="43.65954705368027" lon="12.053200402085979"><ele>419.0</ele><time>2026-04-18T09:25:20.999Z</time></trkpt><trkpt lat="43.659674718952154" lon="12.053042341987856"><ele>419.0</ele><time>2026-04-18T09:25:21.999Z</time></trkpt><trkpt lat="43.65981137318226" lon="12.052870086497279"><ele>419.0</ele><time>2026-04-18T09:25:22.999Z</time></trkpt><trkpt lat="43.659951393336065" lon="12.052698642094523"><ele>419.0</ele><time>2026-04-18T09:25:23.999Z</time></trkpt><trkpt lat="43.66009256909236" lon="12.052527868659762"><ele>419.0</ele><time>2026-04-18T09:25:24.999Z</time></trkpt><trkpt lat="43.660233319002174" lon="12.05236841606135"><ele>419.0</ele><time>2026-04-18T09:25:25.999Z</time></trkpt><trkpt lat="43.66037355758311" lon="12.052194974582713"><ele>419.0</ele><time>2026-04-18T09:25:26.999Z</time></trkpt><trkpt lat="43.66051050270178" lon="12.052037074346844"><ele>419.0</ele><time>2026-04-18T09:25:27.999Z</time></trkpt><trkpt lat="43.66065408225839" lon="12.051883126328635"><ele>419.0</ele><time>2026-04-18T09:25:28.999Z</time></trkpt><trkpt lat="43.66080151820204" lon="12.051733172598256"><ele>419.0</ele><time>2026-04-18T09:25:29.999Z</time></trkpt><trkpt lat="43.660968829879664" lon="12.051602154970512"><ele>420.0</ele><time>2026-04-18T09:25:30.999Z</time></trkpt><trkpt lat="43.661136623419125" lon="12.051540053867349"><ele>421.0</ele><time>2026-04-18T09:25:31.999Z</time></trkpt><trkpt lat="43.6613104539127" lon="12.051474085142434"><ele>422.0</ele><time>2026-04-18T09:25:32.999Z</time></trkpt><trkpt lat="43.6614850518118" lon="12.051421697490497"><ele>422.0</ele><time>2026-04-18T09:25:33.999Z</time></trkpt><trkpt lat="43.661652971130415" lon="12.051352826213526"><ele>422.0</ele><time>2026-04-18T09:25:34.999Z</time></trkpt><trkpt lat="43.661817401615984" lon="12.051288103651355"><ele>422.0</ele><time>2026-04-18T09:25:35.999Z</time></trkpt><trkpt lat="43.66196307909727" lon="12.051188173314747"><ele>424.3333333333333</ele><time>2026-04-18T09:25:36.999Z</time></trkpt><trkpt lat="43.6620975792119" lon="12.051059068988357"><ele>426.66666666666663</ele><time>2026-04-18T09:25:37.999Z</time></trkpt><trkpt lat="43.66221266728082" lon="12.0509026687205"><ele>429.0</ele><time>2026-04-18T09:25:38.999Z</time></trkpt><trkpt lat="43.66229899331257" lon="12.05074038070172"><ele>429.4</ele><time>2026-04-18T09:25:39.999Z</time></trkpt><trkpt lat="43.66236649526682" lon="12.05057844934297"><ele>429.79999999999995</ele><time>2026-04-18T09:25:40.999Z</time></trkpt><trkpt lat="43.66241952989454" lon="12.050435466809379"><ele>430.20000000000005</ele><time>2026-04-18T09:25:41.999Z</time></trkpt><trkpt lat="43.66246283138724" lon="12.050316034729228"><ele>430.6</ele><time>2026-04-18T09:25:42.999Z</time></trkpt><trkpt lat="43.66249852036811" lon="12.050218140388708"><ele>431.0</ele><time>2026-04-18T09:25:43.999Z</time></trkpt><trkpt lat="43.662534786691616" lon="12.050146318081106"><ele>431.0</ele><time>2026-04-18T09:25:44.999Z</time></trkpt><trkpt lat="43.66259772126349" lon="12.050130480106759"><ele>431.0</ele><time>2026-04-18T09:25:46.999Z</time></trkpt><trkpt lat="43.662633231831336" lon="12.050226071405655"><ele>431.0</ele><time>2026-04-18T09:25:47.999Z</time></trkpt><trkpt lat="43.66264628986451" lon="12.050402161768737"><ele>431.0</ele><time>2026-04-18T09:25:49.999Z</time></trkpt><trkpt lat="43.662590867367115" lon="12.05053388751964"><ele>431.0</ele><time>2026-04-18T09:25:50.999Z</time></trkpt><trkpt lat="43.66256327828465" lon="12.050666396445594"><ele>431.0</ele><time>2026-04-18T09:25:51.999Z</time></trkpt><trkpt lat="43.662530580539354" lon="12.05078155623892"><ele>431.0</ele><time>2026-04-18T09:25:52.999Z</time></trkpt><trkpt lat="43.66249196536461" lon="12.050873056961416"><ele>431.0</ele><time>2026-04-18T09:25:53.999Z</time></trkpt><trkpt lat="43.6624315949658" lon="12.050978984248005"><ele>431.0</ele><time>2026-04-18T09:25:54.999Z</time></trkpt><trkpt lat="43.6623455245721" lon="12.051063093216671"><ele>431.0</ele><time>2026-04-18T09:25:55.999Z</time></trkpt><trkpt lat="43.662281361856515" lon="12.051156548782183"><ele>430.6</ele><time>2026-04-18T09:25:56.999Z</time></trkpt><trkpt lat="43.66225836310457" lon="12.051263524657811"><ele>430.20000000000005</ele><time>2026-04-18T09:25:57.999Z</time></trkpt><trkpt lat="43.662222837132276" lon="12.051389153538569"><ele>429.79999999999995</ele><time>2026-04-18T09:25:58.999Z</time></trkpt><trkpt lat="43.66220337161014" lon="12.051531551256614"><ele>429.4</ele><time>2026-04-18T09:25:59.999Z</time></trkpt><trkpt lat="43.662176019227346" lon="12.051691834953168"><ele>429.0</ele><time>2026-04-18T09:26:00.999Z</time></trkpt><trkpt lat="43.66214568462832" lon="12.051857281037089"><ele>429.0</ele><time>2026-04-18T09:26:01.999Z</time></trkpt><trkpt lat="43.66211108894135" lon="12.05203213882729"><ele>429.0</ele><time>2026-04-18T09:26:02.999Z</time></trkpt><trkpt lat="43.662074514601066" lon="12.052204411136524"><ele>429.0</ele><time>2026-04-18T09:26:03.999Z</time></trkpt><trkpt lat="43.662036594874486" lon="12.052380998085148"><ele>429.0</ele><time>2026-04-18T09:26:04.999Z</time></trkpt><trkpt lat="43.66199582609808" lon="12.052555692868205"><ele>428.0</ele><time>2026-04-18T09:26:05.999Z</time></trkpt><trkpt lat="43.661947394019506" lon="12.052721178878306"><ele>427.0</ele><time>2026-04-18T09:26:06.999Z</time></trkpt><trkpt lat="43.661889670001244" lon="12.05288206806678"><ele>426.0</ele><time>2026-04-18T09:26:08Z</time></trkpt><trkpt lat="43.66182723652844" lon="12.05302793193506"><ele>425.0</ele><time>2026-04-18T09:26:09Z</time></trkpt><trkpt lat="43.66176288283677" lon="12.053165956877823"><ele>427.8</ele><time>2026-04-18T09:26:10Z</time></trkpt><trkpt lat="43.66170010272885" lon="12.053290397296466"><ele>430.6</ele><time>2026-04-18T09:26:11Z</time></trkpt><trkpt lat="43.66163252862403" lon="12.053413135429544"><ele>433.4</ele><time>2026-04-18T09:26:12Z</time></trkpt><trkpt lat="43.661568894082215" lon="12.053517784914249"><ele>436.2</ele><time>2026-04-18T09:26:13Z</time></trkpt><trkpt lat="43.66150390376747" lon="12.05363863983745"><ele>439.0</ele><time>2026-04-18T09:26:14Z</time></trkpt><trkpt lat="43.66142505130535" lon="12.053725426519655"><ele>439.0</ele><time>2026-04-18T09:26:15Z</time></trkpt><trkpt lat="43.66135332975327" lon="12.053822035918627"><ele>439.0</ele><time>2026-04-18T09:26:16Z</time></trkpt><trkpt lat="43.66129086872523" lon="12.053926778408607"><ele>439.0</ele><time>2026-04-18T09:26:17Z</time></trkpt><trkpt lat="43.66125941825642" lon="12.054041992279508"><ele>439.0</ele><time>2026-04-18T09:26:18Z</time></trkpt><trkpt lat="43.66123338077291" lon="12.054135214155314"><ele>439.0</ele><time>2026-04-18T09:26:19Z</time></trkpt><trkpt lat="43.661273090109034" lon="12.054252979810292"><ele>441.79999999999995</ele><time>2026-04-18T09:26:20Z</time></trkpt><trkpt lat="43.6613496141845" lon="12.054349885655343"><ele>444.59999999999997</ele><time>2026-04-18T09:26:21Z</time></trkpt><trkpt lat="43.661380272802994" lon="12.054470957632672"><ele>447.4</ele><time>2026-04-18T09:26:22Z</time></trkpt><trkpt lat="43.661394091997245" lon="12.054570316141014"><ele>450.2</ele><time>2026-04-18T09:26:23Z</time></trkpt><trkpt lat="43.66137001834162" lon="12.054765492060428"><ele>453.0</ele><time>2026-04-18T09:26:25Z</time></trkpt><trkpt lat="43.66135196993471" lon="12.054909284078715"><ele>455.0</ele><time>2026-04-18T09:26:26Z</time></trkpt><trkpt lat="43.661332096622544" lon="12.055058589847393"><ele>456.99999999999994</ele><time>2026-04-18T09:26:27Z</time></trkpt><trkpt lat="43.66133028039808" lon="12.055189001340336"><ele>458.99999999999994</ele><time>2026-04-18T09:26:28Z</time></trkpt><trkpt lat="43.661318822770966" lon="12.055280459779615"><ele>461.0</ele><time>2026-04-18T09:26:29Z</time></trkpt><trkpt lat="43.66128996079496" lon="12.055395395540172"><ele>463.0</ele><time>2026-04-18T09:26:30Z</time></trkpt><trkpt lat="43.66127186841905" lon="12.055544155084648"><ele>463.00000000000006</ele><time>2026-04-18T09:26:31Z</time></trkpt><trkpt lat="43.661252688751446" lon="12.055679564241304"><ele>463.0</ele><time>2026-04-18T09:26:32Z</time></trkpt><trkpt lat="43.6612330652325" lon="12.055791342878825"><ele>463.0</ele><time>2026-04-18T09:26:33Z</time></trkpt><trkpt lat="43.66121615373707" lon="12.05592321645877"><ele>463.0</ele><time>2026-04-18T09:26:34Z</time></trkpt><trkpt lat="43.66118667796659" lon="12.056024605085687"><ele>463.00000000000006</ele><time>2026-04-18T09:26:35Z</time></trkpt><trkpt lat="43.66119581461833" lon="12.056122668104965"><ele>463.0</ele><time>2026-04-18T09:26:36Z</time></trkpt><trkpt lat="43.661206132286985" lon="12.056232356080027"><ele>464.59999999999997</ele><time>2026-04-18T09:26:37Z</time></trkpt><trkpt lat="43.661188097454335" lon="12.056365127720046"><ele>466.19999999999993</ele><time>2026-04-18T09:26:38Z</time></trkpt><trkpt lat="43.66119704197153" lon="12.056521843030128"><ele>467.8</ele><time>2026-04-18T09:26:39Z</time></trkpt><trkpt lat="43.66121020910243" lon="12.05664396175847"><ele>469.4</ele><time>2026-04-18T09:26:40Z</time></trkpt><trkpt lat="43.661222125701" lon="12.05675448257524"><ele>471.0</ele><time>2026-04-18T09:26:41Z</time></trkpt><trkpt lat="43.661242662199385" lon="12.056861400531282"><ele>470.3333333333333</ele><time>2026-04-18T09:26:42Z</time></trkpt><trkpt lat="43.66124069639058" lon="12.056951470821003"><ele>469.66666666666663</ele><time>2026-04-18T09:26:43Z</time></trkpt><trkpt lat="43.66118279465322" lon="12.057091156387846"><ele>469.0</ele><time>2026-04-18T09:26:45Z</time></trkpt><trkpt lat="43.66109665841039" lon="12.057119463768263"><ele>468.3333333333333</ele><time>2026-04-18T09:26:46Z</time></trkpt><trkpt lat="43.66102054713466" lon="12.057161987627738"><ele>467.66666666666663</ele><time>2026-04-18T09:26:47Z</time></trkpt><trkpt lat="43.66095292106358" lon="12.057181026844757"><ele>467.0</ele><time>2026-04-18T09:26:48Z</time></trkpt><trkpt lat="43.66088464027232" lon="12.057235152745188"><ele>467.0</ele><time>2026-04-18T09:26:49Z</time></trkpt><trkpt lat="43.660823037721144" lon="12.057302569602117"><ele>467.00000000000006</ele><time>2026-04-18T09:26:49.999Z</time></trkpt><trkpt lat="43.66082193739633" lon="12.057453894220957"><ele>467.00000000000006</ele><time>2026-04-18T09:26:50.999Z</time></trkpt><trkpt lat="43.66085056644555" lon="12.057595288616428"><ele>467.0</ele><time>2026-04-18T09:26:51.999Z</time></trkpt><trkpt lat="43.6608796780926" lon="12.05774740280493"><ele>467.0</ele><time>2026-04-18T09:26:52.999Z</time></trkpt><trkpt lat="43.66091305209476" lon="12.057895228397975"><ele>469.0</ele><time>2026-04-18T09:26:53.999Z</time></trkpt><trkpt lat="43.660948744859965" lon="12.058047158671549"><ele>471.0</ele><time>2026-04-18T09:26:54.999Z</time></trkpt><trkpt lat="43.660992435720566" lon="12.058226269972462"><ele>473.0</ele><time>2026-04-18T09:26:55.999Z</time></trkpt><trkpt lat="43.66103665035779" lon="12.058336064823573"><ele>475.0</ele><time>2026-04-18T09:26:56.999Z</time></trkpt><trkpt lat="43.66115308154344" lon="12.05839338980802"><ele>476.2</ele><time>2026-04-18T09:26:58.999Z</time></trkpt><trkpt lat="43.66122532558828" lon="12.058288079106573"><ele>477.4</ele><time>2026-04-18T09:26:59.999Z</time></trkpt><trkpt lat="43.66129029924929" lon="12.058246916068997"><ele>478.6</ele><time>2026-04-18T09:27:00.999Z</time></trkpt><trkpt lat="43.66136385576597" lon="12.05819919805104"><ele>479.8</ele><time>2026-04-18T09:27:01.999Z</time></trkpt><trkpt lat="43.66145561007747" lon="12.058221352610186"><ele>481.0</ele><time>2026-04-18T09:27:03.999Z</time></trkpt><trkpt lat="43.661567059719076" lon="12.058323026887395"><ele>482.25</ele><time>2026-04-18T09:27:05.999Z</time></trkpt><trkpt lat="43.66166031235952" lon="12.05844494570188"><ele>483.5</ele><time>2026-04-18T09:27:06.999Z</time></trkpt><trkpt lat="43.66174625504056" lon="12.058548479064715"><ele>484.75</ele><time>2026-04-18T09:27:07.999Z</time></trkpt><trkpt lat="43.661849583277416" lon="12.058658865628876"><ele>486.0</ele><time>2026-04-18T09:27:08.999Z</time></trkpt><trkpt lat="43.66193328718614" lon="12.05871515971139"><ele>489.1666666666667</ele><time>2026-04-18T09:27:09.999Z</time></trkpt><trkpt lat="43.66199230781917" lon="12.058760082764714"><ele>492.33333333333337</ele><time>2026-04-18T09:27:10.999Z</time></trkpt><trkpt lat="43.66206483596039" lon="12.058780606525218"><ele>495.5</ele><time>2026-04-18T09:27:11.999Z</time></trkpt><trkpt lat="43.66213588503105" lon="12.058737980465253"><ele>498.6666666666667</ele><time>2026-04-18T09:27:12.999Z</time></trkpt><trkpt lat="43.662179998726515" lon="12.058622825718498"><ele>501.83333333333337</ele><time>2026-04-18T09:27:13.999Z</time></trkpt><trkpt lat="43.662187910306905" lon="12.05847606705985"><ele>505.0</ele><time>2026-04-18T09:27:14.999Z</time></trkpt><trkpt lat="43.66217090535751" lon="12.058315366517679"><ele>506.0</ele><time>2026-04-18T09:27:15.999Z</time></trkpt><trkpt lat="43.66218504953658" lon="12.058187224394626"><ele>507.0</ele><time>2026-04-18T09:27:16.999Z</time></trkpt><trkpt lat="43.66218252120902" lon="12.05804792041944"><ele>508.0</ele><time>2026-04-18T09:27:17.999Z</time></trkpt><trkpt lat="43.66217751507058" lon="12.057934647116882"><ele>509.0</ele><time>2026-04-18T09:27:18.999Z</time></trkpt><trkpt lat="43.6621576088795" lon="12.05781336383"><ele>510.0</ele><time>2026-04-18T09:27:19.999Z</time></trkpt><trkpt lat="43.662156612808445" lon="12.057692912144187"><ele>510.0</ele><time>2026-04-18T09:27:20.999Z</time></trkpt><trkpt lat="43.662158156452065" lon="12.057576017410273"><ele>510.0</ele><time>2026-04-18T09:27:21.999Z</time></trkpt><trkpt lat="43.66215065610488" lon="12.057434700119593"><ele>510.0</ele><time>2026-04-18T09:27:23.999Z</time></trkpt><trkpt lat="43.662218175447805" lon="12.057419612945669"><ele>510.0</ele><time>2026-04-18T09:27:25.999Z</time></trkpt><trkpt lat="43.66226753368005" lon="12.057504304243963"><ele>510.0</ele><time>2026-04-18T09:27:27.999Z</time></trkpt><trkpt lat="43.66223494100611" lon="12.05769447907924"><ele>510.0</ele><time>2026-04-18T09:27:29.999Z</time></trkpt><trkpt lat="43.66224965479259" lon="12.057810938003351"><ele>510.0</ele><time>2026-04-18T09:27:30.999Z</time></trkpt><trkpt lat="43.66226839249956" lon="12.05793086114136"><ele>510.0</ele><time>2026-04-18T09:27:31.999Z</time></trkpt><trkpt lat="43.66230538995269" lon="12.058048833830638"><ele>510.0</ele><time>2026-04-18T09:27:32.999Z</time></trkpt><trkpt lat="43.66234336184777" lon="12.058188013170946"><ele>510.0</ele><time>2026-04-18T09:27:33.999Z</time></trkpt><trkpt lat="43.662415360837954" lon="12.058334120600595"><ele>509.0</ele><time>2026-04-18T09:27:34.999Z</time></trkpt><trkpt lat="43.66248121486988" lon="12.058473606880336"><ele>508.0</ele><time>2026-04-18T09:27:35.999Z</time></trkpt><trkpt lat="43.66253258379111" lon="12.058606773247694"><ele>507.0</ele><time>2026-04-18T09:27:36.999Z</time></trkpt><trkpt lat="43.66257258464169" lon="12.058744805311603"><ele>506.0</ele><time>2026-04-18T09:27:37.999Z</time></trkpt><trkpt lat="43.66261402858496" lon="12.05888597934011"><ele>505.0</ele><time>2026-04-18T09:27:38.999Z</time></trkpt><trkpt lat="43.66266057577813" lon="12.059052771751801"><ele>505.6</ele><time>2026-04-18T09:27:39.999Z</time></trkpt><trkpt lat="43.66270734224066" lon="12.059222217067209"><ele>506.2</ele><time>2026-04-18T09:27:40.999Z</time></trkpt><trkpt lat="43.66274815337703" lon="12.059363456292024"><ele>506.79999999999995</ele><time>2026-04-18T09:27:41.999Z</time></trkpt><trkpt lat="43.662797161628426" lon="12.059480927947506"><ele>507.4</ele><time>2026-04-18T09:27:42.999Z</time></trkpt><trkpt lat="43.66281988802869" lon="12.059582603445547"><ele>508.0</ele><time>2026-04-18T09:27:43.999Z</time></trkpt><trkpt lat="43.66279587129592" lon="12.059723364883311"><ele>508.0</ele><time>2026-04-18T09:27:45.999Z</time></trkpt><trkpt lat="43.66269902951321" lon="12.0597709873373"><ele>507.99999999999994</ele><time>2026-04-18T09:27:47.999Z</time></trkpt><trkpt lat="43.662625340401824" lon="12.05974626669992"><ele>507.99999999999994</ele><time>2026-04-18T09:27:48.999Z</time></trkpt><trkpt lat="43.662538643213416" lon="12.05973577784733"><ele>508.0</ele><time>2026-04-18T09:27:49.999Z</time></trkpt><trkpt lat="43.66244345846059" lon="12.05971383059018"><ele>508.0</ele><time>2026-04-18T09:27:50.999Z</time></trkpt><trkpt lat="43.66234758024511" lon="12.059663966358185"><ele>508.0</ele><time>2026-04-18T09:27:51.999Z</time></trkpt><trkpt lat="43.66225908560089" lon="12.059619843264686"><ele>507.99999999999994</ele><time>2026-04-18T09:27:52.999Z</time></trkpt><trkpt lat="43.662178456394166" lon="12.059611677372342"><ele>507.99999999999994</ele><time>2026-04-18T09:27:53.999Z</time></trkpt><trkpt lat="43.662074689291195" lon="12.059637454387353"><ele>508.0</ele><time>2026-04-18T09:27:55.999Z</time></trkpt><trkpt lat="43.66201755278917" lon="12.059767405112297"><ele>508.0</ele><time>2026-04-18T09:27:57.999Z</time></trkpt><trkpt lat="43.662016715728356" lon="12.0598588668916"><ele>509.6666666666667</ele><time>2026-04-18T09:27:58.999Z</time></trkpt><trkpt lat="43.662011175873225" lon="12.05996335002924"><ele>511.33333333333337</ele><time>2026-04-18T09:27:59.999Z</time></trkpt><trkpt lat="43.662091469946354" lon="12.060044753870875"><ele>513.0</ele><time>2026-04-18T09:28:00.999Z</time></trkpt><trkpt lat="43.66215599078999" lon="12.060128218503307"><ele>514.6666666666666</ele><time>2026-04-18T09:28:01.999Z</time></trkpt><trkpt lat="43.662219419052796" lon="12.060203973778144"><ele>516.3333333333333</ele><time>2026-04-18T09:28:02.999Z</time></trkpt><trkpt lat="43.66228911905648" lon="12.060299429735336"><ele>518.0</ele><time>2026-04-18T09:28:03.999Z</time></trkpt><trkpt lat="43.662401225594294" lon="12.06035950369454"><ele>518.0</ele><time>2026-04-18T09:28:04.999Z</time></trkpt><trkpt lat="43.662478144209096" lon="12.060387950930332"><ele>518.0</ele><time>2026-04-18T09:28:05.999Z</time></trkpt><trkpt lat="43.66258139512717" lon="12.060392246229346"><ele>518.0</ele><time>2026-04-18T09:28:06.999Z</time></trkpt><trkpt lat="43.662691661187274" lon="12.060408660604857"><ele>518.0</ele><time>2026-04-18T09:28:07.999Z</time></trkpt><trkpt lat="43.66279365618928" lon="12.060446599482173"><ele>518.0</ele><time>2026-04-18T09:28:08.999Z</time></trkpt><trkpt lat="43.66287125197585" lon="12.060533299247242"><ele>521.5</ele><time>2026-04-18T09:28:09.999Z</time></trkpt><trkpt lat="43.66297062681656" lon="12.060587232801625"><ele>525.0</ele><time>2026-04-18T09:28:10.999Z</time></trkpt><trkpt lat="43.663094226085526" lon="12.060688397623982"><ele>528.5</ele><time>2026-04-18T09:28:11.999Z</time></trkpt><trkpt lat="43.66319684619611" lon="12.060820476147347"><ele>532.0</ele><time>2026-04-18T09:28:12.999Z</time></trkpt><trkpt lat="43.6632540849961" lon="12.060910461428966"><ele>533.0</ele><time>2026-04-18T09:28:14Z</time></trkpt><trkpt lat="43.663285477097695" lon="12.0610035431896"><ele>534.0</ele><time>2026-04-18T09:28:16Z</time></trkpt><trkpt lat="43.66323850869472" lon="12.061104332144687"><ele>535.0</ele><time>2026-04-18T09:28:18Z</time></trkpt><trkpt lat="43.6631672546283" lon="12.061197585107182"><ele>536.0</ele><time>2026-04-18T09:28:19Z</time></trkpt><trkpt lat="43.66307658550857" lon="12.061325346371964"><ele>537.0</ele><time>2026-04-18T09:28:20Z</time></trkpt><trkpt lat="43.66296429044613" lon="12.06144664161811"><ele>537.0</ele><time>2026-04-18T09:28:21Z</time></trkpt><trkpt lat="43.66290618695825" lon="12.061559111014043"><ele>537.0</ele><time>2026-04-18T09:28:22Z</time></trkpt><trkpt lat="43.66288607994813" lon="12.061650862968866"><ele>537.0</ele><time>2026-04-18T09:28:23Z</time></trkpt><trkpt lat="43.66289595059084" lon="12.06176757824077"><ele>537.0</ele><time>2026-04-18T09:28:24Z</time></trkpt><trkpt lat="43.662923645754105" lon="12.061873676367536"><ele>537.0</ele><time>2026-04-18T09:28:25Z</time></trkpt><trkpt lat="43.662961141182315" lon="12.061992459647819"><ele>537.0</ele><time>2026-04-18T09:28:26Z</time></trkpt><trkpt lat="43.66299879842261" lon="12.062108184820925"><ele>540.25</ele><time>2026-04-18T09:28:27Z</time></trkpt><trkpt lat="43.66304455655057" lon="12.062248805041643"><ele>543.5</ele><time>2026-04-18T09:28:28Z</time></trkpt><trkpt lat="43.663093832068604" lon="12.062398864988614"><ele>546.75</ele><time>2026-04-18T09:28:29Z</time></trkpt><trkpt lat="43.66314418566236" lon="12.062547849345908"><ele>550.0</ele><time>2026-04-18T09:28:30Z</time></trkpt><trkpt lat="43.66319004755997" lon="12.062686031358844"><ele>551.3333333333334</ele><time>2026-04-18T09:28:31Z</time></trkpt><trkpt lat="43.66322501159021" lon="12.062797222110758"><ele>552.6666666666667</ele><time>2026-04-18T09:28:32Z</time></trkpt><trkpt lat="43.66325620627192" lon="12.062886985007724"><ele>554.0</ele><time>2026-04-18T09:28:33Z</time></trkpt><trkpt lat="43.66332294153323" lon="12.062981546238237"><ele>555.3333333333334</ele><time>2026-04-18T09:28:35Z</time></trkpt><trkpt lat="43.66338663431077" lon="12.062966833709268"><ele>556.6666666666666</ele><time>2026-04-18T09:28:36Z</time></trkpt><trkpt lat="43.663435243498256" lon="12.062909856233201"><ele>558.0</ele><time>2026-04-18T09:28:37Z</time></trkpt><trkpt lat="43.663448163370596" lon="12.062814978250879"><ele>558.0</ele><time>2026-04-18T09:28:38Z</time></trkpt><trkpt lat="43.663454311532746" lon="12.0627201991917"><ele>558.0</ele><time>2026-04-18T09:28:39Z</time></trkpt><trkpt lat="43.66346100993791" lon="12.062599052569531"><ele>558.0</ele><time>2026-04-18T09:28:40Z</time></trkpt><trkpt lat="43.66350071160971" lon="12.062499862061173"><ele>558.0</ele><time>2026-04-18T09:28:41Z</time></trkpt><trkpt lat="43.66355781259214" lon="12.062445746840718"><ele>558.0</ele><time>2026-04-18T09:28:42Z</time></trkpt><trkpt lat="43.66370852264808" lon="12.062443657085224"><ele>558.1999999999999</ele><time>2026-04-18T09:28:44Z</time></trkpt><trkpt lat="43.66380034761204" lon="12.062461384156293"><ele>558.4</ele><time>2026-04-18T09:28:45Z</time></trkpt><trkpt lat="43.6639053914877" lon="12.062480992066543"><ele>558.5999999999999</ele><time>2026-04-18T09:28:46Z</time></trkpt><trkpt lat="43.66399052486312" lon="12.062508799174024"><ele>558.8</ele><time>2026-04-18T09:28:47Z</time></trkpt><trkpt lat="43.66408710909194" lon="12.062553102724223"><ele>559.0</ele><time>2026-04-18T09:28:48Z</time></trkpt><trkpt lat="43.66417045038885" lon="12.062596640789458"><ele>559.0</ele><time>2026-04-18T09:28:49Z</time></trkpt><trkpt lat="43.664244216284786" lon="12.06261386672983"><ele>559.0</ele><time>2026-04-18T09:28:50Z</time></trkpt><trkpt lat="43.6643186273148" lon="12.062601960194984"><ele>559.0</ele><time>2026-04-18T09:28:51Z</time></trkpt><trkpt lat="43.664387712238096" lon="12.062581566853392"><ele>559.0</ele><time>2026-04-18T09:28:52Z</time></trkpt><trkpt lat="43.66445623790428" lon="12.062574982357425"><ele>559.0</ele><time>2026-04-18T09:28:53Z</time></trkpt><trkpt lat="43.66451321467131" lon="12.06267749234674"><ele>559.0</ele><time>2026-04-18T09:28:57Z</time></trkpt><trkpt lat="43.66444652064173" lon="12.062777711092757"><ele>559.0</ele><time>2026-04-18T09:28:59Z</time></trkpt><trkpt lat="43.66431390520351" lon="12.062891095179447"><ele>559.0</ele><time>2026-04-18T09:29:01Z</time></trkpt><trkpt lat="43.6642688536258" lon="12.06295252944658"><ele>559.0</ele><time>2026-04-18T09:29:02Z</time></trkpt><trkpt lat="43.664252527359984" lon="12.063086288298338"><ele>559.0</ele><time>2026-04-18T09:29:03Z</time></trkpt><trkpt lat="43.66422681365951" lon="12.063234076284203"><ele>559.0</ele><time>2026-04-18T09:29:03.999Z</time></trkpt><trkpt lat="43.664169919340154" lon="12.063352747604872"><ele>561.4</ele><time>2026-04-18T09:29:04.999Z</time></trkpt><trkpt lat="43.66409135312825" lon="12.063397691538109"><ele>563.8</ele><time>2026-04-18T09:29:05.999Z</time></trkpt><trkpt lat="43.664013300933256" lon="12.06346018696429"><ele>566.2</ele><time>2026-04-18T09:29:06.999Z</time></trkpt><trkpt lat="43.663948849845625" lon="12.063548358661025"><ele>568.6</ele><time>2026-04-18T09:29:07.999Z</time></trkpt><trkpt lat="43.66394412121687" lon="12.063685965920959"><ele>571.0</ele><time>2026-04-18T09:29:08.999Z</time></trkpt><trkpt lat="43.66393469584414" lon="12.063809273853678"><ele>571.0</ele><time>2026-04-18T09:29:09.999Z</time></trkpt><trkpt lat="43.66392402307352" lon="12.063968616794613"><ele>571.0</ele><time>2026-04-18T09:29:10.999Z</time></trkpt><trkpt lat="43.663910578694306" lon="12.064132559447932"><ele>571.0</ele><time>2026-04-18T09:29:11.999Z</time></trkpt><trkpt lat="43.663904150684324" lon="12.064256815692264"><ele>571.0</ele><time>2026-04-18T09:29:12.999Z</time></trkpt><trkpt lat="43.6639093368063" lon="12.064356451760021"><ele>571.0</ele><time>2026-04-18T09:29:13.999Z</time></trkpt><trkpt lat="43.66395736743176" lon="12.064473271880713"><ele>572.5</ele><time>2026-04-18T09:29:15.999Z</time></trkpt><trkpt lat="43.66402550412752" lon="12.064501071682981"><ele>574.0</ele><time>2026-04-18T09:29:16.999Z</time></trkpt><trkpt lat="43.66409477086758" lon="12.064431070962529"><ele>575.5</ele><time>2026-04-18T09:29:17.999Z</time></trkpt><trkpt lat="43.66414725111386" lon="12.064368317774953"><ele>577.0</ele><time>2026-04-18T09:29:18.999Z</time></trkpt><trkpt lat="43.66421942437667" lon="12.064287770191578"><ele>578.5</ele><time>2026-04-18T09:29:19.999Z</time></trkpt><trkpt lat="43.66430117209886" lon="12.06422881695866"><ele>580.0</ele><time>2026-04-18T09:29:20.999Z</time></trkpt><trkpt lat="43.6643774531845" lon="12.064211794441638"><ele>580.8</ele><time>2026-04-18T09:29:21.999Z</time></trkpt><trkpt lat="43.66446852314754" lon="12.06423946238992"><ele>581.6</ele><time>2026-04-18T09:29:22.999Z</time></trkpt><trkpt lat="43.66457900007566" lon="12.06421387139908"><ele>582.4</ele><time>2026-04-18T09:29:23.999Z</time></trkpt><trkpt lat="43.664671533953154" lon="12.064177203097104"><ele>583.2</ele><time>2026-04-18T09:29:24.999Z</time></trkpt><trkpt lat="43.66475647970933" lon="12.064111986709891"><ele>584.0</ele><time>2026-04-18T09:29:25.999Z</time></trkpt><trkpt lat="43.6648402492557" lon="12.064020315915501"><ele>584.0</ele><time>2026-04-18T09:29:26.999Z</time></trkpt><trkpt lat="43.66494030270483" lon="12.063909989384666"><ele>584.0</ele><time>2026-04-18T09:29:27.999Z</time></trkpt><trkpt lat="43.66504255719445" lon="12.063819878461372"><ele>584.0</ele><time>2026-04-18T09:29:28.999Z</time></trkpt><trkpt lat="43.66514871257191" lon="12.063786243224497"><ele>584.0</ele><time>2026-04-18T09:29:29.999Z</time></trkpt><trkpt lat="43.66524797881811" lon="12.063725040572281"><ele>585.6666666666666</ele><time>2026-04-18T09:29:30.999Z</time></trkpt><trkpt lat="43.66534544554927" lon="12.06369436372529"><ele>587.3333333333333</ele><time>2026-04-18T09:29:31.999Z</time></trkpt><trkpt lat="43.66545633967649" lon="12.063647110392155"><ele>589.0</ele><time>2026-04-18T09:29:32.999Z</time></trkpt><trkpt lat="43.665533132640185" lon="12.063620034868222"><ele>590.6666666666666</ele><time>2026-04-18T09:29:33.999Z</time></trkpt><trkpt lat="43.66559899452113" lon="12.063617967820155"><ele>592.3333333333334</ele><time>2026-04-18T09:29:34.999Z</time></trkpt><trkpt lat="43.665656231886885" lon="12.063702921376382"><ele>594.0</ele><time>2026-04-18T09:29:36.999Z</time></trkpt><trkpt lat="43.665595352566484" lon="12.063785590173103"><ele>594.0</ele><time>2026-04-18T09:29:38.999Z</time></trkpt><trkpt lat="43.66549320042024" lon="12.0638881869729"><ele>594.0</ele><time>2026-04-18T09:29:40.999Z</time></trkpt><trkpt lat="43.66542925399618" lon="12.063971799836843"><ele>594.0</ele><time>2026-04-18T09:29:41.999Z</time></trkpt><trkpt lat="43.66535599619615" lon="12.064104841720523"><ele>594.0</ele><time>2026-04-18T09:29:42.999Z</time></trkpt><trkpt lat="43.66528887434089" lon="12.064241065853153"><ele>594.0</ele><time>2026-04-18T09:29:43.999Z</time></trkpt><trkpt lat="43.66524890332606" lon="12.064372549388333"><ele>594.0</ele><time>2026-04-18T09:29:44.999Z</time></trkpt><trkpt lat="43.665185854835414" lon="12.06450992000165"><ele>594.0</ele><time>2026-04-18T09:29:45.999Z</time></trkpt><trkpt lat="43.66515057517712" lon="12.064598786456251"><ele>594.0</ele><time>2026-04-18T09:29:46.999Z</time></trkpt><trkpt lat="43.66512675837913" lon="12.064737782230987"><ele>594.0</ele><time>2026-04-18T09:29:48.999Z</time></trkpt><trkpt lat="43.665153487346444" lon="12.064830061188555"><ele>594.0</ele><time>2026-04-18T09:29:49.999Z</time></trkpt><trkpt lat="43.66522373392069" lon="12.064922387953162"><ele>594.0</ele><time>2026-04-18T09:29:50.999Z</time></trkpt><trkpt lat="43.66529053917178" lon="12.064999136526795"><ele>594.0</ele><time>2026-04-18T09:29:51.999Z</time></trkpt><trkpt lat="43.66536044469075" lon="12.065087375068629"><ele>594.0</ele><time>2026-04-18T09:29:52.999Z</time></trkpt><trkpt lat="43.66545025093731" lon="12.065211317476448"><ele>594.0</ele><time>2026-04-18T09:29:53.999Z</time></trkpt><trkpt lat="43.66552696811648" lon="12.065296376287067"><ele>598.6666666666666</ele><time>2026-04-18T09:29:54.999Z</time></trkpt><trkpt lat="43.66556866753865" lon="12.06538080952808"><ele>603.3333333333334</ele><time>2026-04-18T09:29:55.999Z</time></trkpt><trkpt lat="43.66558257869417" lon="12.06546732435926"><ele>608.0</ele><time>2026-04-18T09:29:56.999Z</time></trkpt><trkpt lat="43.66558742982527" lon="12.06555482818953"><ele>612.6666666666667</ele><time>2026-04-18T09:29:57.999Z</time></trkpt><trkpt lat="43.66552038562036" lon="12.06562185954888"><ele>617.3333333333334</ele><time>2026-04-18T09:29:59.999Z</time></trkpt><trkpt lat="43.66540746805934" lon="12.065666360155731"><ele>622.0</ele><time>2026-04-18T09:30:01.999Z</time></trkpt><trkpt lat="43.66531757453248" lon="12.065697955882946"><ele>621.0</ele><time>2026-04-18T09:30:02.999Z</time></trkpt><trkpt lat="43.66519742912895" lon="12.06572459466124"><ele>620.0</ele><time>2026-04-18T09:30:03.999Z</time></trkpt><trkpt lat="43.66507632840329" lon="12.06579648912732"><ele>619.0</ele><time>2026-04-18T09:30:04.999Z</time></trkpt><trkpt lat="43.664964763063786" lon="12.065871172211356"><ele>618.0</ele><time>2026-04-18T09:30:05.999Z</time></trkpt><trkpt lat="43.664846047992334" lon="12.065951080692457"><ele>618.0</ele><time>2026-04-18T09:30:06.999Z</time></trkpt><trkpt lat="43.66472408061106" lon="12.066017889933073"><ele>618.0</ele><time>2026-04-18T09:30:07.999Z</time></trkpt><trkpt lat="43.6646467509593" lon="12.066094193755353"><ele>618.0</ele><time>2026-04-18T09:30:08.999Z</time></trkpt><trkpt lat="43.66456751790036" lon="12.066140904632183"><ele>618.0</ele><time>2026-04-18T09:30:09.999Z</time></trkpt><trkpt lat="43.66449482536365" lon="12.066227901044163"><ele>618.0</ele><time>2026-04-18T09:30:10.999Z</time></trkpt><trkpt lat="43.66442473586544" lon="12.066378155112549"><ele>617.25</ele><time>2026-04-18T09:30:11.999Z</time></trkpt><trkpt lat="43.6643555730675" lon="12.066530334048366"><ele>616.5</ele><time>2026-04-18T09:30:12.999Z</time></trkpt><trkpt lat="43.664278904959424" lon="12.066704226215384"><ele>615.75</ele><time>2026-04-18T09:30:13.999Z</time></trkpt><trkpt lat="43.66421350997963" lon="12.066858425639339"><ele>615.0</ele><time>2026-04-18T09:30:14.999Z</time></trkpt><trkpt lat="43.6641654202379" lon="12.066982698588546"><ele>615.0</ele><time>2026-04-18T09:30:15.999Z</time></trkpt><trkpt lat="43.664120675771464" lon="12.067108246344922"><ele>615.0</ele><time>2026-04-18T09:30:16.999Z</time></trkpt><trkpt lat="43.664082470482725" lon="12.067235997028062"><ele>615.0</ele><time>2026-04-18T09:30:17.999Z</time></trkpt><trkpt lat="43.66406840346386" lon="12.067373721528524"><ele>615.0</ele><time>2026-04-18T09:30:18.999Z</time></trkpt><trkpt lat="43.66408837407148" lon="12.067497949655579"><ele>615.0</ele><time>2026-04-18T09:30:20Z</time></trkpt><trkpt lat="43.66412601126251" lon="12.067620673284004"><ele>618.0</ele><time>2026-04-18T09:30:21Z</time></trkpt><trkpt lat="43.66416572777019" lon="12.067769381976765"><ele>621.0</ele><time>2026-04-18T09:30:22Z</time></trkpt><trkpt lat="43.664196302311474" lon="12.067928996561323"><ele>624.0</ele><time>2026-04-18T09:30:23Z</time></trkpt><trkpt lat="43.664202383950695" lon="12.068072191531677"><ele>627.0</ele><time>2026-04-18T09:30:24Z</time></trkpt><trkpt lat="43.664204616034276" lon="12.068237504561994"><ele>628.5</ele><time>2026-04-18T09:30:25Z</time></trkpt><trkpt lat="43.66419087331378" lon="12.068422171371537"><ele>630.0</ele><time>2026-04-18T09:30:26Z</time></trkpt><trkpt lat="43.66415588799428" lon="12.068610404329814"><ele>631.5</ele><time>2026-04-18T09:30:27Z</time></trkpt><trkpt lat="43.66411379338724" lon="12.068824833369426"><ele>633.0</ele><time>2026-04-18T09:30:28Z</time></trkpt><trkpt lat="43.664073213266185" lon="12.069025937910183"><ele>634.3333333333334</ele><time>2026-04-18T09:30:29Z</time></trkpt><trkpt lat="43.66403273968195" lon="12.069241210239252"><ele>635.6666666666667</ele><time>2026-04-18T09:30:30Z</time></trkpt><trkpt lat="43.66401080975201" lon="12.069456483269699"><ele>637.0</ele><time>2026-04-18T09:30:31Z</time></trkpt><trkpt lat="43.663995493978945" lon="12.069647782099272"><ele>637.0</ele><time>2026-04-18T09:30:32Z</time></trkpt><trkpt lat="43.66398738463491" lon="12.069884261167772"><ele>637.0</ele><time>2026-04-18T09:30:33Z</time></trkpt><trkpt lat="43.66398218350037" lon="12.070120449877873"><ele>637.0</ele><time>2026-04-18T09:30:34Z</time></trkpt><trkpt lat="43.663972455467146" lon="12.070383134922942"><ele>638.25</ele><time>2026-04-18T09:30:35Z</time></trkpt><trkpt lat="43.66395666981314" lon="12.070593621494243"><ele>639.5</ele><time>2026-04-18T09:30:36Z</time></trkpt><trkpt lat="43.66394604761114" lon="12.070782433675019"><ele>640.75</ele><time>2026-04-18T09:30:37Z</time></trkpt><trkpt lat="43.66394195087525" lon="12.070962216648827"><ele>642.0</ele><time>2026-04-18T09:30:38Z</time></trkpt><trkpt lat="43.66394465511089" lon="12.07113784140348"><ele>643.25</ele><time>2026-04-18T09:30:39Z</time></trkpt><trkpt lat="43.66395058889041" lon="12.071318718136954"><ele>644.5</ele><time>2026-04-18T09:30:40Z</time></trkpt><trkpt lat="43.663961166791594" lon="12.071501962035786"><ele>645.75</ele><time>2026-04-18T09:30:41Z</time></trkpt><trkpt lat="43.66396643834659" lon="12.071667723843833"><ele>647.0</ele><time>2026-04-18T09:30:42Z</time></trkpt><trkpt lat="43.66396565257233" lon="12.071817450853018"><ele>648.8</ele><time>2026-04-18T09:30:43Z</time></trkpt><trkpt lat="43.66395029234702" lon="12.071935092094215"><ele>650.6</ele><time>2026-04-18T09:30:44Z</time></trkpt><trkpt lat="43.663932184509335" lon="12.072067056943176"><ele>652.4</ele><time>2026-04-18T09:30:45Z</time></trkpt><trkpt lat="43.66391851679267" lon="12.072206090630772"><ele>654.1999999999999</ele><time>2026-04-18T09:30:46Z</time></trkpt><trkpt lat="43.663914012058534" lon="12.072323152181122"><ele>656.0</ele><time>2026-04-18T09:30:47Z</time></trkpt><trkpt lat="43.66394184325788" lon="12.072447805299538"><ele>656.5999999999999</ele><time>2026-04-18T09:30:48Z</time></trkpt><trkpt lat="43.663979870944026" lon="12.072546599888458"><ele>657.2</ele><time>2026-04-18T09:30:49Z</time></trkpt><trkpt lat="43.664046860864126" lon="12.07265305883964"><ele>657.8</ele><time>2026-04-18T09:30:50Z</time></trkpt><trkpt lat="43.66411305994181" lon="12.072737297597978"><ele>658.4000000000001</ele><time>2026-04-18T09:30:51Z</time></trkpt><trkpt lat="43.66417337784939" lon="12.072843411168051"><ele>659.0</ele><time>2026-04-18T09:30:52Z</time></trkpt><trkpt lat="43.66420514518308" lon="12.072966793564397"><ele>659.0</ele><time>2026-04-18T09:30:53Z</time></trkpt><trkpt lat="43.66422200171209" lon="12.073117287694467"><ele>659.0</ele><time>2026-04-18T09:30:54Z</time></trkpt><trkpt lat="43.66422838342287" lon="12.073288610302377"><ele>659.0</ele><time>2026-04-18T09:30:55Z</time></trkpt><trkpt lat="43.66422450435917" lon="12.073484442156474"><ele>659.0</ele><time>2026-04-18T09:30:56Z</time></trkpt><trkpt lat="43.66422312544385" lon="12.07368944988803"><ele>659.4000000000001</ele><time>2026-04-18T09:30:57Z</time></trkpt><trkpt lat="43.6642481144659" lon="12.073844164339674"><ele>659.8</ele><time>2026-04-18T09:30:58Z</time></trkpt><trkpt lat="43.6642767568105" lon="12.073943310408412"><ele>660.2</ele><time>2026-04-18T09:30:59Z</time></trkpt><trkpt lat="43.66433889081818" lon="12.074038486889132"><ele>660.5999999999999</ele><time>2026-04-18T09:31:00Z</time></trkpt><trkpt lat="43.66439852848566" lon="12.07413053676163"><ele>661.0</ele><time>2026-04-18T09:31:01Z</time></trkpt><trkpt lat="43.66446330934921" lon="12.07421146294237"><ele>667.6666666666667</ele><time>2026-04-18T09:31:02Z</time></trkpt><trkpt lat="43.66458311454035" lon="12.07434431623017"><ele>674.3333333333334</ele><time>2026-04-18T09:31:03Z</time></trkpt><trkpt lat="43.66470554519782" lon="12.074488772047633"><ele>681.0</ele><time>2026-04-18T09:31:04Z</time></trkpt><trkpt lat="43.66481547493121" lon="12.074644804469262"><ele>681.0</ele><time>2026-04-18T09:31:05Z</time></trkpt><trkpt lat="43.664899041093285" lon="12.074776769361494"><ele>681.0</ele><time>2026-04-18T09:31:06Z</time></trkpt><trkpt lat="43.66495865706952" lon="12.07489170719704"><ele>681.0</ele><time>2026-04-18T09:31:07Z</time></trkpt><trkpt lat="43.66499486544722" lon="12.075008555243201"><ele>681.0</ele><time>2026-04-18T09:31:08Z</time></trkpt><trkpt lat="43.66503994965193" lon="12.07514193829103"><ele>681.0</ele><time>2026-04-18T09:31:09Z</time></trkpt><trkpt lat="43.66509921157972" lon="12.07524771901618"><ele>679.8</ele><time>2026-04-18T09:31:09.999Z</time></trkpt><trkpt lat="43.66514651833226" lon="12.075344218715928"><ele>678.5999999999999</ele><time>2026-04-18T09:31:10.999Z</time></trkpt><trkpt lat="43.66520513565176" lon="12.075432635497986"><ele>677.4</ele><time>2026-04-18T09:31:11.999Z</time></trkpt><trkpt lat="43.665262014125624" lon="12.075554657581927"><ele>676.2</ele><time>2026-04-18T09:31:12.999Z</time></trkpt><trkpt lat="43.665325722452366" lon="12.075652846514885"><ele>675.0</ele><time>2026-04-18T09:31:13.999Z</time></trkpt><trkpt lat="43.66540078901316" lon="12.075750896126573"><ele>676.5</ele><time>2026-04-18T09:31:14.999Z</time></trkpt><trkpt lat="43.66548675572366" lon="12.075842349264281"><ele>678.0</ele><time>2026-04-18T09:31:15.999Z</time></trkpt><trkpt lat="43.66557227127229" lon="12.075924013622432"><ele>679.5</ele><time>2026-04-18T09:31:16.999Z</time></trkpt><trkpt lat="43.665632848928674" lon="12.07599097625964"><ele>681.0</ele><time>2026-04-18T09:31:17.999Z</time></trkpt><trkpt lat="43.6656798313851" lon="12.076065909117915"><ele>682.5</ele><time>2026-04-18T09:31:18.999Z</time></trkpt><trkpt lat="43.66570018197693" lon="12.076159567077696"><ele>684.0</ele><time>2026-04-18T09:31:19.999Z</time></trkpt><trkpt lat="43.665704774623784" lon="12.076264623893959"><ele>684.0</ele><time>2026-04-18T09:31:20.999Z</time></trkpt><trkpt lat="43.665722905483115" lon="12.076365281431924"><ele>684.0</ele><time>2026-04-18T09:31:21.999Z</time></trkpt><trkpt lat="43.66574953353315" lon="12.076482140546098"><ele>684.0</ele><time>2026-04-18T09:31:23.999Z</time></trkpt><trkpt lat="43.665792336135766" lon="12.076619346717708"><ele>684.0</ele><time>2026-04-18T09:31:25.999Z</time></trkpt><trkpt lat="43.66582243212526" lon="12.076717068481031"><ele>684.0</ele><time>2026-04-18T09:31:26.999Z</time></trkpt><trkpt lat="43.66585998113087" lon="12.076841060366348"><ele>684.0</ele><time>2026-04-18T09:31:27.999Z</time></trkpt><trkpt lat="43.665896075623344" lon="12.076968826325775"><ele>682.25</ele><time>2026-04-18T09:31:28.999Z</time></trkpt><trkpt lat="43.66595251254746" lon="12.07709545829785"><ele>680.5</ele><time>2026-04-18T09:31:29.999Z</time></trkpt><trkpt lat="43.6659835947953" lon="12.077233911295616"><ele>678.75</ele><time>2026-04-18T09:31:30.999Z</time></trkpt><trkpt lat="43.666044089033235" lon="12.077392745608194"><ele>677.0</ele><time>2026-04-18T09:31:31.999Z</time></trkpt><trkpt lat="43.666110646060446" lon="12.077544269448621"><ele>682.25</ele><time>2026-04-18T09:31:32.999Z</time></trkpt><trkpt lat="43.666172620386696" lon="12.07770382226321"><ele>687.5</ele><time>2026-04-18T09:31:33.999Z</time></trkpt><trkpt lat="43.66624433150139" lon="12.07786746132161"><ele>692.75</ele><time>2026-04-18T09:31:34.999Z</time></trkpt><trkpt lat="43.66631538000485" lon="12.07802462220383"><ele>698.0</ele><time>2026-04-18T09:31:35.999Z</time></trkpt><trkpt lat="43.66638810806289" lon="12.078184387975718"><ele>695.0</ele><time>2026-04-18T09:31:36.999Z</time></trkpt><trkpt lat="43.66645838798289" lon="12.078338775785767"><ele>692.0</ele><time>2026-04-18T09:31:37.999Z</time></trkpt><trkpt lat="43.66654436793168" lon="12.078476963292504"><ele>689.0</ele><time>2026-04-18T09:31:38.999Z</time></trkpt><trkpt lat="43.666611586922606" lon="12.078634422355691"><ele>686.0</ele><time>2026-04-18T09:31:39.999Z</time></trkpt><trkpt lat="43.66668316537474" lon="12.078785142573098"><ele>686.0</ele><time>2026-04-18T09:31:40.999Z</time></trkpt><trkpt lat="43.66674792026561" lon="12.078936989685266"><ele>686.0</ele><time>2026-04-18T09:31:41.999Z</time></trkpt><trkpt lat="43.66680550767193" lon="12.079087680441965"><ele>686.0</ele><time>2026-04-18T09:31:42.999Z</time></trkpt><trkpt lat="43.66686885472962" lon="12.079225876386817"><ele>686.0</ele><time>2026-04-18T09:31:43.999Z</time></trkpt><trkpt lat="43.66691903111915" lon="12.079344526279153"><ele>688.8571428571429</ele><time>2026-04-18T09:31:44.999Z</time></trkpt><trkpt lat="43.66696890265419" lon="12.079443042185202"><ele>691.7142857142858</ele><time>2026-04-18T09:31:45.999Z</time></trkpt><trkpt lat="43.667016678023465" lon="12.079518780947028"><ele>694.5714285714286</ele><time>2026-04-18T09:31:46.999Z</time></trkpt><trkpt lat="43.66706815327225" lon="12.079584629763266"><ele>697.4285714285714</ele><time>2026-04-18T09:31:47.999Z</time></trkpt><trkpt lat="43.6671181935535" lon="12.079649021265602"><ele>700.2857142857143</ele><time>2026-04-18T09:31:48.999Z</time></trkpt><trkpt lat="43.66715736962907" lon="12.079724973614988"><ele>703.1428571428571</ele><time>2026-04-18T09:31:49.999Z</time></trkpt><trkpt lat="43.66720273556139" lon="12.079790693315786"><ele>706.0</ele><time>2026-04-18T09:31:50.999Z</time></trkpt><trkpt lat="43.66726678430631" lon="12.079924030908403"><ele>703.6666666666667</ele><time>2026-04-18T09:31:52.999Z</time></trkpt><trkpt lat="43.667267728007936" lon="12.08002278063344"><ele>701.3333333333334</ele><time>2026-04-18T09:31:53.999Z</time></trkpt><trkpt lat="43.66724533460556" lon="12.080132010318819"><ele>699.0</ele><time>2026-04-18T09:31:54.999Z</time></trkpt><trkpt lat="43.66720647393107" lon="12.080231610212712"><ele>696.6666666666666</ele><time>2026-04-18T09:31:55.999Z</time></trkpt><trkpt lat="43.66715156813126" lon="12.080334248020792"><ele>694.3333333333333</ele><time>2026-04-18T09:31:56.999Z</time></trkpt><trkpt lat="43.66711750197893" lon="12.080420878522846"><ele>692.0</ele><time>2026-04-18T09:31:57.999Z</time></trkpt><trkpt lat="43.66710798034109" lon="12.08060282482778"><ele>690.2</ele><time>2026-04-18T09:31:59.999Z</time></trkpt><trkpt lat="43.66714481693871" lon="12.080773610366311"><ele>688.4000000000001</ele><time>2026-04-18T09:32:01.999Z</time></trkpt><trkpt lat="43.667134802592514" lon="12.080951693680909"><ele>686.5999999999999</ele><time>2026-04-18T09:32:03.999Z</time></trkpt><trkpt lat="43.667107579625835" lon="12.081031018752947"><ele>684.8</ele><time>2026-04-18T09:32:04.999Z</time></trkpt><trkpt lat="43.667067390488405" lon="12.08110918057269"><ele>683.0</ele><time>2026-04-18T09:32:05.999Z</time></trkpt><trkpt lat="43.66702447603142" lon="12.08118664965514"><ele>683.0</ele><time>2026-04-18T09:32:06.999Z</time></trkpt><trkpt lat="43.66699431634612" lon="12.081278344090192"><ele>683.0</ele><time>2026-04-18T09:32:07.999Z</time></trkpt><trkpt lat="43.66695867713001" lon="12.081370475057778"><ele>683.0</ele><time>2026-04-18T09:32:08.999Z</time></trkpt><trkpt lat="43.666932979286436" lon="12.081468382641933"><ele>683.0</ele><time>2026-04-18T09:32:09.999Z</time></trkpt><trkpt lat="43.66690708001006" lon="12.081569727793765"><ele>683.0</ele><time>2026-04-18T09:32:10.999Z</time></trkpt><trkpt lat="43.66689346908924" lon="12.081735755069774"><ele>683.0</ele><time>2026-04-18T09:32:12.999Z</time></trkpt><trkpt lat="43.66694378560862" lon="12.081909801924626"><ele>681.6666666666666</ele><time>2026-04-18T09:32:14.999Z</time></trkpt><trkpt lat="43.66699290589189" lon="12.081991678652479"><ele>680.3333333333333</ele><time>2026-04-18T09:32:15.999Z</time></trkpt><trkpt lat="43.66705626650285" lon="12.082061052443724"><ele>679.0</ele><time>2026-04-18T09:32:16.999Z</time></trkpt><trkpt lat="43.667126782956906" lon="12.08213474908123"><ele>677.6666666666666</ele><time>2026-04-18T09:32:17.999Z</time></trkpt><trkpt lat="43.66719050624786" lon="12.082235344284221"><ele>676.3333333333334</ele><time>2026-04-18T09:32:18.999Z</time></trkpt><trkpt lat="43.66725680186281" lon="12.08231082902388"><ele>675.0</ele><time>2026-04-18T09:32:19.999Z</time></trkpt><trkpt lat="43.66732589510086" lon="12.08238708577405"><ele>673.0</ele><time>2026-04-18T09:32:20.999Z</time></trkpt><trkpt lat="43.66740338535287" lon="12.082472131674246"><ele>671.0</ele><time>2026-04-18T09:32:21.999Z</time></trkpt><trkpt lat="43.66748844394398" lon="12.082562775204407"><ele>669.0</ele><time>2026-04-18T09:32:22.999Z</time></trkpt><trkpt lat="43.66757074690092" lon="12.082649821687408"><ele>667.0</ele><time>2026-04-18T09:32:23.999Z</time></trkpt><trkpt lat="43.66765177473277" lon="12.082734220996675"><ele>665.0</ele><time>2026-04-18T09:32:24.999Z</time></trkpt><trkpt lat="43.66773300101572" lon="12.082818827012135"><ele>665.8</ele><time>2026-04-18T09:32:26Z</time></trkpt><trkpt lat="43.66782012333806" lon="12.082889799595891"><ele>666.6</ele><time>2026-04-18T09:32:27Z</time></trkpt><trkpt lat="43.667889074315745" lon="12.082972254269732"><ele>667.4000000000001</ele><time>2026-04-18T09:32:28Z</time></trkpt><trkpt lat="43.66795142743" lon="12.083114430382283"><ele>668.2</ele><time>2026-04-18T09:32:30Z</time></trkpt><trkpt lat="43.66790778161153" lon="12.083227120169473"><ele>669.0</ele><time>2026-04-18T09:32:32Z</time></trkpt><trkpt lat="43.667845818807294" lon="12.08326684151324"><ele>667.5</ele><time>2026-04-18T09:32:33Z</time></trkpt><trkpt lat="43.66777242396855" lon="12.0833043250006"><ele>666.0</ele><time>2026-04-18T09:32:34Z</time></trkpt><trkpt lat="43.6676945496939" lon="12.083344017416053"><ele>664.5</ele><time>2026-04-18T09:32:35Z</time></trkpt><trkpt lat="43.66761510608646" lon="12.083395038142145"><ele>663.0</ele><time>2026-04-18T09:32:36Z</time></trkpt><trkpt lat="43.667536289682744" lon="12.08347118893228"><ele>661.5</ele><time>2026-04-18T09:32:37Z</time></trkpt><trkpt lat="43.66748085637934" lon="12.083559014515455"><ele>660.0</ele><time>2026-04-18T09:32:38Z</time></trkpt><trkpt lat="43.6674481393404" lon="12.083665544106596"><ele>660.0</ele><time>2026-04-18T09:32:39Z</time></trkpt><trkpt lat="43.66742447448386" lon="12.083797140052193"><ele>660.0</ele><time>2026-04-18T09:32:40Z</time></trkpt><trkpt lat="43.66739967019474" lon="12.083949788644265"><ele>660.0</ele><time>2026-04-18T09:32:41Z</time></trkpt><trkpt lat="43.667365621923295" lon="12.08414774791686"><ele>660.0</ele><time>2026-04-18T09:32:42Z</time></trkpt><trkpt lat="43.6673264276472" lon="12.084344178857977"><ele>660.0</ele><time>2026-04-18T09:32:43Z</time></trkpt><trkpt lat="43.66728847126125" lon="12.084509286353624"><ele>660.0</ele><time>2026-04-18T09:32:44Z</time></trkpt><trkpt lat="43.66726247325397" lon="12.08464271130572"><ele>660.0</ele><time>2026-04-18T09:32:45Z</time></trkpt><trkpt lat="43.6672522623792" lon="12.084760891298608"><ele>660.0</ele><time>2026-04-18T09:32:46Z</time></trkpt><trkpt lat="43.66726571532881" lon="12.084865488637348"><ele>660.0</ele><time>2026-04-18T09:32:47Z</time></trkpt><trkpt lat="43.66729983839886" lon="12.084982206700868"><ele>659.5</ele><time>2026-04-18T09:32:48Z</time></trkpt><trkpt lat="43.66734521023099" lon="12.085119649963714"><ele>659.0</ele><time>2026-04-18T09:32:49Z</time></trkpt><trkpt lat="43.66739330573657" lon="12.085294714542849"><ele>658.5</ele><time>2026-04-18T09:32:50Z</time></trkpt><trkpt lat="43.66741947854911" lon="12.08547087922043"><ele>658.0</ele><time>2026-04-18T09:32:51Z</time></trkpt><trkpt lat="43.66743487070073" lon="12.085668249597154"><ele>657.5</ele><time>2026-04-18T09:32:52Z</time></trkpt><trkpt lat="43.66744960644167" lon="12.085884731914355"><ele>657.0</ele><time>2026-04-18T09:32:53Z</time></trkpt><trkpt lat="43.66746906046809" lon="12.086062235013618"><ele>656.5</ele><time>2026-04-18T09:32:54Z</time></trkpt><trkpt lat="43.66749549097789" lon="12.086246704353291"><ele>656.0</ele><time>2026-04-18T09:32:55Z</time></trkpt><trkpt lat="43.66753961799277" lon="12.086463618221675"><ele>655.5</ele><time>2026-04-18T09:32:56Z</time></trkpt><trkpt lat="43.66757592498251" lon="12.086673154194838"><ele>655.0</ele><time>2026-04-18T09:32:57Z</time></trkpt><trkpt lat="43.66760396789291" lon="12.086859178464035"><ele>654.5</ele><time>2026-04-18T09:32:58Z</time></trkpt><trkpt lat="43.667628610837866" lon="12.087036897801243"><ele>654.0</ele><time>2026-04-18T09:32:59Z</time></trkpt><trkpt lat="43.667643292246524" lon="12.08718389744718"><ele>654.0</ele><time>2026-04-18T09:33:00Z</time></trkpt><trkpt lat="43.66764518840801" lon="12.087326648407023"><ele>654.0</ele><time>2026-04-18T09:33:01Z</time></trkpt><trkpt lat="43.667633316763286" lon="12.087469264696281"><ele>654.0</ele><time>2026-04-18T09:33:02Z</time></trkpt><trkpt lat="43.66760683655423" lon="12.087608110810192"><ele>654.0</ele><time>2026-04-18T09:33:03Z</time></trkpt><trkpt lat="43.667587033335856" lon="12.08772822040713"><ele>654.0</ele><time>2026-04-18T09:33:04Z</time></trkpt><trkpt lat="43.667588604923885" lon="12.087861791275925"><ele>653.0</ele><time>2026-04-18T09:33:05Z</time></trkpt><trkpt lat="43.667614605351176" lon="12.088000625494532"><ele>652.0</ele><time>2026-04-18T09:33:06Z</time></trkpt><trkpt lat="43.66765020212235" lon="12.088164569792976"><ele>651.0</ele><time>2026-04-18T09:33:07Z</time></trkpt><trkpt lat="43.66767487125725" lon="12.088331927937574"><ele>650.0</ele><time>2026-04-18T09:33:08Z</time></trkpt><trkpt lat="43.667684012483164" lon="12.088485538800137"><ele>649.5</ele><time>2026-04-18T09:33:09Z</time></trkpt><trkpt lat="43.667680777513915" lon="12.088612060562324"><ele>649.0</ele><time>2026-04-18T09:33:10Z</time></trkpt><trkpt lat="43.66767372150029" lon="12.0887330650642"><ele>648.5</ele><time>2026-04-18T09:33:11Z</time></trkpt><trkpt lat="43.66765952338335" lon="12.088841330438965"><ele>648.0</ele><time>2026-04-18T09:33:12Z</time></trkpt><trkpt lat="43.66763424325928" lon="12.088923574129394"><ele>647.5</ele><time>2026-04-18T09:33:13Z</time></trkpt><trkpt lat="43.667587807614844" lon="12.08899017234689"><ele>647.0</ele><time>2026-04-18T09:33:14Z</time></trkpt><trkpt lat="43.66752452351885" lon="12.089040688480681"><ele>647.0</ele><time>2026-04-18T09:33:15Z</time></trkpt><trkpt lat="43.6674505908489" lon="12.08907793447668"><ele>647.0</ele><time>2026-04-18T09:33:16Z</time></trkpt><trkpt lat="43.66735478105515" lon="12.089119187933953"><ele>647.0</ele><time>2026-04-18T09:33:17Z</time></trkpt><trkpt lat="43.66725854935949" lon="12.089177364732901"><ele>647.0</ele><time>2026-04-18T09:33:18Z</time></trkpt><trkpt lat="43.667163852208056" lon="12.08925109011978"><ele>647.0</ele><time>2026-04-18T09:33:19Z</time></trkpt><trkpt lat="43.66707018591378" lon="12.089336029058481"><ele>646.3333333333333</ele><time>2026-04-18T09:33:20Z</time></trkpt><trkpt lat="43.666991631882446" lon="12.089428108274696"><ele>645.6666666666666</ele><time>2026-04-18T09:33:21Z</time></trkpt><trkpt lat="43.666935748235936" lon="12.089529998684908"><ele>645.0</ele><time>2026-04-18T09:33:22Z</time></trkpt><trkpt lat="43.66690340455511" lon="12.089643783764403"><ele>644.3333333333334</ele><time>2026-04-18T09:33:23Z</time></trkpt><trkpt lat="43.66688988257511" lon="12.089753185901344"><ele>643.6666666666667</ele><time>2026-04-18T09:33:24Z</time></trkpt><trkpt lat="43.66690623898309" lon="12.089842824864544"><ele>643.0</ele><time>2026-04-18T09:33:25Z</time></trkpt><trkpt lat="43.66694432040317" lon="12.089927168416512"><ele>645.8</ele><time>2026-04-18T09:33:26Z</time></trkpt><trkpt lat="43.667005396915975" lon="12.090004700070725"><ele>648.5999999999999</ele><time>2026-04-18T09:33:27Z</time></trkpt><trkpt lat="43.66707406649001" lon="12.09007675018074"><ele>651.4000000000001</ele><time>2026-04-18T09:33:28Z</time></trkpt><trkpt lat="43.66716305216745" lon="12.090157116158823"><ele>654.2</ele><time>2026-04-18T09:33:29Z</time></trkpt><trkpt lat="43.66726602234862" lon="12.09024010887656"><ele>657.0</ele><time>2026-04-18T09:33:30Z</time></trkpt><trkpt lat="43.66738937239151" lon="12.090319007013642"><ele>657.0</ele><time>2026-04-18T09:33:31Z</time></trkpt><trkpt lat="43.667526184385004" lon="12.090394408185276"><ele>657.0</ele><time>2026-04-18T09:33:32Z</time></trkpt><trkpt lat="43.66768962862276" lon="12.090475023125377"><ele>657.0</ele><time>2026-04-18T09:33:32.999Z</time></trkpt><trkpt lat="43.66784477374156" lon="12.090579638476207"><ele>658.5</ele><time>2026-04-18T09:33:33.999Z</time></trkpt><trkpt lat="43.66800240569758" lon="12.090651896092126"><ele>660.0</ele><time>2026-04-18T09:33:34.999Z</time></trkpt><trkpt lat="43.66814208719249" lon="12.090724708990402"><ele>661.5</ele><time>2026-04-18T09:33:35.999Z</time></trkpt><trkpt lat="43.66824263185475" lon="12.090796221180305"><ele>663.0</ele><time>2026-04-18T09:33:36.999Z</time></trkpt><trkpt lat="43.66831369599585" lon="12.090870711663252"><ele>664.2</ele><time>2026-04-18T09:33:37.999Z</time></trkpt><trkpt lat="43.66835537649332" lon="12.090958120660746"><ele>665.4</ele><time>2026-04-18T09:33:38.999Z</time></trkpt><trkpt lat="43.668375614166116" lon="12.091092463483951"><ele>666.6</ele><time>2026-04-18T09:33:39.999Z</time></trkpt><trkpt lat="43.668419330860964" lon="12.091245209145136"><ele>667.8000000000001</ele><time>2026-04-18T09:33:40.999Z</time></trkpt><trkpt lat="43.66845660361001" lon="12.091444638591724"><ele>669.0</ele><time>2026-04-18T09:33:41.999Z</time></trkpt><trkpt lat="43.66850161200864" lon="12.091648840064718"><ele>669.5</ele><time>2026-04-18T09:33:42.999Z</time></trkpt><trkpt lat="43.66855472653623" lon="12.091826866681698"><ele>670.0</ele><time>2026-04-18T09:33:43.999Z</time></trkpt><trkpt lat="43.66861308498473" lon="12.091955617331658"><ele>670.5</ele><time>2026-04-18T09:33:44.999Z</time></trkpt><trkpt lat="43.66868023484017" lon="12.092054771916123"><ele>671.0</ele><time>2026-04-18T09:33:45.999Z</time></trkpt><trkpt lat="43.668769057607186" lon="12.092153131611832"><ele>673.5</ele><time>2026-04-18T09:33:46.999Z</time></trkpt><trkpt lat="43.66887059584635" lon="12.092246234201065"><ele>676.0</ele><time>2026-04-18T09:33:47.999Z</time></trkpt><trkpt lat="43.66899940714366" lon="12.092352498444775"><ele>678.5</ele><time>2026-04-18T09:33:48.999Z</time></trkpt><trkpt lat="43.66912249669206" lon="12.09243779230884"><ele>681.0</ele><time>2026-04-18T09:33:49.999Z</time></trkpt><trkpt lat="43.669257076928496" lon="12.092509308418657"><ele>681.4</ele><time>2026-04-18T09:33:50.999Z</time></trkpt><trkpt lat="43.66938735845698" lon="12.092572733749456"><ele>681.8</ele><time>2026-04-18T09:33:51.999Z</time></trkpt><trkpt lat="43.66947556326364" lon="12.09266123645518"><ele>682.1999999999999</ele><time>2026-04-18T09:33:52.999Z</time></trkpt><trkpt lat="43.66954891992245" lon="12.092699904906112"><ele>682.5999999999999</ele><time>2026-04-18T09:33:53.999Z</time></trkpt><trkpt lat="43.66958187492583" lon="12.092796906754728"><ele>683.0</ele><time>2026-04-18T09:33:54.999Z</time></trkpt><trkpt lat="43.66959012885026" lon="12.092917564524887"><ele>684.4</ele><time>2026-04-18T09:33:55.999Z</time></trkpt><trkpt lat="43.66957658476008" lon="12.093029696243775"><ele>685.8</ele><time>2026-04-18T09:33:56.999Z</time></trkpt><trkpt lat="43.66955541595568" lon="12.093198573567369"><ele>687.2</ele><time>2026-04-18T09:33:57.999Z</time></trkpt><trkpt lat="43.66954135921113" lon="12.093336677027708"><ele>688.6</ele><time>2026-04-18T09:33:58.999Z</time></trkpt><trkpt lat="43.66955716648651" lon="12.093436383741796"><ele>690.0</ele><time>2026-04-18T09:33:59.999Z</time></trkpt><trkpt lat="43.66959233611184" lon="12.093527668049065"><ele>690.6</ele><time>2026-04-18T09:34:00.999Z</time></trkpt><trkpt lat="43.66965882384548" lon="12.093604399536868"><ele>691.2</ele><time>2026-04-18T09:34:01.999Z</time></trkpt><trkpt lat="43.669734141697454" lon="12.093655867337995"><ele>691.8</ele><time>2026-04-18T09:34:02.999Z</time></trkpt><trkpt lat="43.66984612558002" lon="12.093704270675092"><ele>692.4</ele><time>2026-04-18T09:34:03.999Z</time></trkpt><trkpt lat="43.66993668861898" lon="12.09375251400781"><ele>693.0</ele><time>2026-04-18T09:34:04.999Z</time></trkpt><trkpt lat="43.66998319856383" lon="12.093876072782034"><ele>693.0</ele><time>2026-04-18T09:34:06.999Z</time></trkpt><trkpt lat="43.66991558702547" lon="12.094012020598845"><ele>693.0</ele><time>2026-04-18T09:34:08.999Z</time></trkpt><trkpt lat="43.669774932055745" lon="12.094026536691292"><ele>693.0</ele><time>2026-04-18T09:34:10.999Z</time></trkpt><trkpt lat="43.66968999618347" lon="12.094045125595361"><ele>693.0</ele><time>2026-04-18T09:34:11.999Z</time></trkpt><trkpt lat="43.669631643337766" lon="12.094105364159844"><ele>693.0</ele><time>2026-04-18T09:34:12.999Z</time></trkpt><trkpt lat="43.66962464101214" lon="12.09419753079068"><ele>694.0</ele><time>2026-04-18T09:34:13.999Z</time></trkpt><trkpt lat="43.66964320088666" lon="12.094345502472972"><ele>695.0</ele><time>2026-04-18T09:34:15.999Z</time></trkpt><trkpt lat="43.669750464364675" lon="12.094472352273527"><ele>696.0</ele><time>2026-04-18T09:34:17.999Z</time></trkpt><trkpt lat="43.66984393726245" lon="12.094462535543547"><ele>697.0</ele><time>2026-04-18T09:34:18.999Z</time></trkpt><trkpt lat="43.66994862017826" lon="12.09445511552933"><ele>698.0</ele><time>2026-04-18T09:34:19.999Z</time></trkpt><trkpt lat="43.67007412485812" lon="12.094431446952855"><ele>698.0</ele><time>2026-04-18T09:34:20.999Z</time></trkpt><trkpt lat="43.67018775569172" lon="12.094434955992114"><ele>698.0</ele><time>2026-04-18T09:34:21.999Z</time></trkpt><trkpt lat="43.67025944096113" lon="12.094469572879996"><ele>698.0</ele><time>2026-04-18T09:34:22.999Z</time></trkpt><trkpt lat="43.67031765353425" lon="12.094512551955372"><ele>698.0</ele><time>2026-04-18T09:34:23.999Z</time></trkpt><trkpt lat="43.67038912301061" lon="12.094617438889912"><ele>698.0</ele><time>2026-04-18T09:34:25.999Z</time></trkpt><trkpt lat="43.67038719936157" lon="12.094721061730606"><ele>698.0</ele><time>2026-04-18T09:34:26.999Z</time></trkpt><trkpt lat="43.67038477790218" lon="12.094865231133744"><ele>702.3333333333333</ele><time>2026-04-18T09:34:27.999Z</time></trkpt><trkpt lat="43.67037822413169" lon="12.095059351080701"><ele>706.6666666666666</ele><time>2026-04-18T09:34:28.999Z</time></trkpt><trkpt lat="43.67037470645595" lon="12.0952678875477"><ele>711.0</ele><time>2026-04-18T09:34:29.999Z</time></trkpt><trkpt lat="43.670360844910746" lon="12.095527770728335"><ele>713.6666666666666</ele><time>2026-04-18T09:34:30.999Z</time></trkpt><trkpt lat="43.6703537225432" lon="12.095794863824286"><ele>716.3333333333333</ele><time>2026-04-18T09:34:32Z</time></trkpt><trkpt lat="43.670350326869574" lon="12.096044215639266"><ele>719.0</ele><time>2026-04-18T09:34:33Z</time></trkpt><trkpt lat="43.670344899210725" lon="12.096261804522381"><ele>719.0</ele><time>2026-04-18T09:34:34Z</time></trkpt><trkpt lat="43.670336528476916" lon="12.096444410983615"><ele>719.0</ele><time>2026-04-18T09:34:35Z</time></trkpt><trkpt lat="43.67032687175924" lon="12.096610618920346"><ele>719.0</ele><time>2026-04-18T09:34:36Z</time></trkpt><trkpt lat="43.67031770663758" lon="12.096742261578527"><ele>719.0</ele><time>2026-04-18T09:34:37Z</time></trkpt><trkpt lat="43.6703172590857" lon="12.096886656042344"><ele>720.8000000000001</ele><time>2026-04-18T09:34:38Z</time></trkpt><trkpt lat="43.670339455100944" lon="12.09700577017315"><ele>722.6</ele><time>2026-04-18T09:34:39Z</time></trkpt><trkpt lat="43.670372029377916" lon="12.097151491837135"><ele>724.4</ele><time>2026-04-18T09:34:40Z</time></trkpt><trkpt lat="43.67041874573855" lon="12.09728618900401"><ele>726.2</ele><time>2026-04-18T09:34:41Z</time></trkpt><trkpt lat="43.67044533118937" lon="12.097379801135974"><ele>728.0</ele><time>2026-04-18T09:34:42Z</time></trkpt><trkpt lat="43.670553384540796" lon="12.097485580711217"><ele>728.0</ele><time>2026-04-18T09:34:44Z</time></trkpt><trkpt lat="43.67062081458241" lon="12.097529605060972"><ele>728.0</ele><time>2026-04-18T09:34:45Z</time></trkpt><trkpt lat="43.67070753885347" lon="12.097575709925495"><ele>728.0</ele><time>2026-04-18T09:34:46Z</time></trkpt><trkpt lat="43.67081217307499" lon="12.097630026590082"><ele>728.0</ele><time>2026-04-18T09:34:47Z</time></trkpt><trkpt lat="43.6709262214791" lon="12.097686759858147"><ele>728.0</ele><time>2026-04-18T09:34:48Z</time></trkpt><trkpt lat="43.67105059162641" lon="12.09772050516135"><ele>730.25</ele><time>2026-04-18T09:34:49Z</time></trkpt><trkpt lat="43.671164860572254" lon="12.097774350699874"><ele>732.5</ele><time>2026-04-18T09:34:50Z</time></trkpt><trkpt lat="43.671279807388665" lon="12.097808286850604"><ele>734.75</ele><time>2026-04-18T09:34:51Z</time></trkpt><trkpt lat="43.67139837483935" lon="12.097816027645823"><ele>737.0</ele><time>2026-04-18T09:34:52Z</time></trkpt><trkpt lat="43.671506015331886" lon="12.09785826263536"><ele>737.0</ele><time>2026-04-18T09:34:53Z</time></trkpt><trkpt lat="43.671606471268085" lon="12.097889372506362"><ele>737.0</ele><time>2026-04-18T09:34:54Z</time></trkpt><trkpt lat="43.67169355206261" lon="12.097937243854926"><ele>737.0</ele><time>2026-04-18T09:34:55Z</time></trkpt><trkpt lat="43.671772983458354" lon="12.098013394655267"><ele>737.0</ele><time>2026-04-18T09:34:56Z</time></trkpt><trkpt lat="43.671859789434016" lon="12.098113738250706"><ele>737.0</ele><time>2026-04-18T09:34:57Z</time></trkpt><trkpt lat="43.67194948618988" lon="12.098204029494612"><ele>739.25</ele><time>2026-04-18T09:34:58Z</time></trkpt><trkpt lat="43.672037963568776" lon="12.098322805586106"><ele>741.5</ele><time>2026-04-18T09:34:59Z</time></trkpt><trkpt lat="43.672129143674795" lon="12.098438695438208"><ele>743.75</ele><time>2026-04-18T09:35:00Z</time></trkpt><trkpt lat="43.67221226756512" lon="12.098573506284868"><ele>746.0</ele><time>2026-04-18T09:35:01Z</time></trkpt><trkpt lat="43.67230391817978" lon="12.09869173900798"><ele>746.0</ele><time>2026-04-18T09:35:02Z</time></trkpt><trkpt lat="43.67240554069616" lon="12.098822289448057"><ele>746.0</ele><time>2026-04-18T09:35:03Z</time></trkpt><trkpt lat="43.6725060081836" lon="12.09892008551975"><ele>746.0</ele><time>2026-04-18T09:35:04Z</time></trkpt><trkpt lat="43.67259868543127" lon="12.099044885609414"><ele>746.0</ele><time>2026-04-18T09:35:05Z</time></trkpt><trkpt lat="43.67269676336436" lon="12.099164046384498"><ele>748.25</ele><time>2026-04-18T09:35:06Z</time></trkpt><trkpt lat="43.67279640504134" lon="12.099278694458352"><ele>750.5</ele><time>2026-04-18T09:35:07Z</time></trkpt><trkpt lat="43.67289013110855" lon="12.099384180732883"><ele>752.75</ele><time>2026-04-18T09:35:08Z</time></trkpt><trkpt lat="43.67298908480603" lon="12.099485399519606"><ele>755.0</ele><time>2026-04-18T09:35:09Z</time></trkpt><trkpt lat="43.67308399600024" lon="12.099585189700928"><ele>755.0</ele><time>2026-04-18T09:35:10Z</time></trkpt><trkpt lat="43.67317480671657" lon="12.099695523404792"><ele>755.0</ele><time>2026-04-18T09:35:11Z</time></trkpt><trkpt lat="43.67327402374079" lon="12.099789320327472"><ele>755.0</ele><time>2026-04-18T09:35:12Z</time></trkpt><trkpt lat="43.67336535489006" lon="12.099874047081741"><ele>755.0</ele><time>2026-04-18T09:35:13Z</time></trkpt><trkpt lat="43.67345509662591" lon="12.09995729952481"><ele>755.1666666666666</ele><time>2026-04-18T09:35:14Z</time></trkpt><trkpt lat="43.6735425700979" lon="12.100038449334438"><ele>755.3333333333333</ele><time>2026-04-18T09:35:15Z</time></trkpt><trkpt lat="43.67362668140287" lon="12.100114361261555"><ele>755.5</ele><time>2026-04-18T09:35:16Z</time></trkpt><trkpt lat="43.67370063834589" lon="12.1001782768517"><ele>755.6666666666666</ele><time>2026-04-18T09:35:17Z</time></trkpt><trkpt lat="43.673767545974464" lon="12.100226260971745"><ele>755.8333333333334</ele><time>2026-04-18T09:35:18Z</time></trkpt><trkpt lat="43.67383361747171" lon="12.100265781990277"><ele>756.0</ele><time>2026-04-18T09:35:19Z</time></trkpt><trkpt lat="43.67392136990303" lon="12.100297339502545"><ele>757.4</ele><time>2026-04-18T09:35:20Z</time></trkpt><trkpt lat="43.67401212754863" lon="12.100304019311402"><ele>758.8</ele><time>2026-04-18T09:35:21Z</time></trkpt><trkpt lat="43.67411131711285" lon="12.100284103553056"><ele>760.1999999999999</ele><time>2026-04-18T09:35:22Z</time></trkpt><trkpt lat="43.67420261018308" lon="12.100264225690553"><ele>761.5999999999999</ele><time>2026-04-18T09:35:23Z</time></trkpt><trkpt lat="43.67429523286621" lon="12.10026659747921"><ele>763.0</ele><time>2026-04-18T09:35:24Z</time></trkpt><trkpt lat="43.67438567835406" lon="12.100300221412512"><ele>764.5999999999999</ele><time>2026-04-18T09:35:25Z</time></trkpt><trkpt lat="43.674468434443014" lon="12.100356749890038"><ele>766.1999999999999</ele><time>2026-04-18T09:35:26Z</time></trkpt><trkpt lat="43.674551934831854" lon="12.1004196286666"><ele>767.8</ele><time>2026-04-18T09:35:27Z</time></trkpt><trkpt lat="43.67463269588735" lon="12.100493620607075"><ele>769.4</ele><time>2026-04-18T09:35:28Z</time></trkpt><trkpt lat="43.67471791301663" lon="12.100574879963318"><ele>771.0</ele><time>2026-04-18T09:35:29Z</time></trkpt><trkpt lat="43.6748147600151" lon="12.100663301790325"><ele>771.0</ele><time>2026-04-18T09:35:30Z</time></trkpt><trkpt lat="43.67490588435335" lon="12.10074106611493"><ele>771.0</ele><time>2026-04-18T09:35:31Z</time></trkpt><trkpt lat="43.674986539485225" lon="12.100797505065017"><ele>771.0</ele><time>2026-04-18T09:35:32Z</time></trkpt><trkpt lat="43.67504864471713" lon="12.100850249256277"><ele>771.0</ele><time>2026-04-18T09:35:33Z</time></trkpt><trkpt lat="43.67512039725528" lon="12.10089023744311"><ele>771.0</ele><time>2026-04-18T09:35:34Z</time></trkpt><trkpt lat="43.67521485631725" lon="12.100897550487078"><ele>771.0</ele><time>2026-04-18T09:35:35Z</time></trkpt><trkpt lat="43.67531011584462" lon="12.100915572832253"><ele>773.4</ele><time>2026-04-18T09:35:36Z</time></trkpt><trkpt lat="43.67540358549862" lon="12.100893364552618"><ele>775.8</ele><time>2026-04-18T09:35:37Z</time></trkpt><trkpt lat="43.675491435728674" lon="12.10085238545356"><ele>778.1999999999999</ele><time>2026-04-18T09:35:38Z</time></trkpt><trkpt lat="43.67558545522396" lon="12.100786998816428"><ele>780.5999999999999</ele><time>2026-04-18T09:35:39Z</time></trkpt><trkpt lat="43.67566046829209" lon="12.100711175114384"><ele>783.0</ele><time>2026-04-18T09:35:40Z</time></trkpt><trkpt lat="43.67572117355945" lon="12.100614511720194"><ele>783.0</ele><time>2026-04-18T09:35:41Z</time></trkpt><trkpt lat="43.6757825713562" lon="12.100497037017156"><ele>783.0</ele><time>2026-04-18T09:35:41.999Z</time></trkpt><trkpt lat="43.67583184664885" lon="12.100386527288377"><ele>783.0</ele><time>2026-04-18T09:35:42.999Z</time></trkpt><trkpt lat="43.675874517052804" lon="12.100277660218685"><ele>783.0</ele><time>2026-04-18T09:35:43.999Z</time></trkpt><trkpt lat="43.67591074722689" lon="12.100148786120457"><ele>783.0</ele><time>2026-04-18T09:35:44.999Z</time></trkpt><trkpt lat="43.675952086752105" lon="12.099995107555097"><ele>783.1666666666666</ele><time>2026-04-18T09:35:45.999Z</time></trkpt><trkpt lat="43.67599034060387" lon="12.099859152604136"><ele>783.3333333333333</ele><time>2026-04-18T09:35:46.999Z</time></trkpt><trkpt lat="43.676019907453" lon="12.099768848202666"><ele>783.5</ele><time>2026-04-18T09:35:47.999Z</time></trkpt><trkpt lat="43.676072833786286" lon="12.099639626428468"><ele>783.6666666666666</ele><time>2026-04-18T09:35:48.999Z</time></trkpt><trkpt lat="43.6761269210928" lon="12.099544210087949"><ele>783.8333333333333</ele><time>2026-04-18T09:35:49.999Z</time></trkpt><trkpt lat="43.676185412637544" lon="12.099490737754765"><ele>784.0</ele><time>2026-04-18T09:35:50.999Z</time></trkpt><trkpt lat="43.676264119311" lon="12.099494610254371"><ele>785.4999999999999</ele><time>2026-04-18T09:35:52.999Z</time></trkpt><trkpt lat="43.67634853066047" lon="12.099590984573975"><ele>787.0</ele><time>2026-04-18T09:35:54.999Z</time></trkpt><trkpt lat="43.67637042028013" lon="12.099679080280437"><ele>788.5</ele><time>2026-04-18T09:35:55.999Z</time></trkpt><trkpt lat="43.67638913932707" lon="12.099764890530553"><ele>790.0</ele><time>2026-04-18T09:35:56.999Z</time></trkpt><trkpt lat="43.6764220189703" lon="12.099889916094622"><ele>791.4999999999999</ele><time>2026-04-18T09:35:57.999Z</time></trkpt><trkpt lat="43.676444934757505" lon="12.100020378314408"><ele>793.0</ele><time>2026-04-18T09:35:58.999Z</time></trkpt><trkpt lat="43.67645612427251" lon="12.100173783727282"><ele>794.25</ele><time>2026-04-18T09:35:59.999Z</time></trkpt><trkpt lat="43.676458016263936" lon="12.10038702570035"><ele>795.5</ele><time>2026-04-18T09:36:00.999Z</time></trkpt><trkpt lat="43.67645902661425" lon="12.100555035043582"><ele>796.75</ele><time>2026-04-18T09:36:01.999Z</time></trkpt><trkpt lat="43.67646199680944" lon="12.10069261459145"><ele>798.0</ele><time>2026-04-18T09:36:02.999Z</time></trkpt><trkpt lat="43.676461692790475" lon="12.100829287290164"><ele>799.1666666666666</ele><time>2026-04-18T09:36:03.999Z</time></trkpt><trkpt lat="43.676456254465826" lon="12.100958332312496"><ele>800.3333333333333</ele><time>2026-04-18T09:36:04.999Z</time></trkpt><trkpt lat="43.67642991379863" lon="12.10106775395885"><ele>801.5</ele><time>2026-04-18T09:36:05.999Z</time></trkpt><trkpt lat="43.67636475599008" lon="12.10112163589712"><ele>802.6666666666666</ele><time>2026-04-18T09:36:06.999Z</time></trkpt><trkpt lat="43.67632744870834" lon="12.101219794750705"><ele>803.8333333333333</ele><time>2026-04-18T09:36:07.999Z</time></trkpt><trkpt lat="43.67627832634839" lon="12.101281959070755"><ele>805.0</ele><time>2026-04-18T09:36:08.999Z</time></trkpt><trkpt lat="43.67627616979414" lon="12.101418433146264"><ele>805.0</ele><time>2026-04-18T09:36:10.999Z</time></trkpt><trkpt lat="43.676357755291676" lon="12.101517339883882"><ele>805.0</ele><time>2026-04-18T09:36:12.999Z</time></trkpt><trkpt lat="43.676457662140706" lon="12.101591409313967"><ele>805.0</ele><time>2026-04-18T09:36:14.999Z</time></trkpt><trkpt lat="43.67652074976394" lon="12.10165714508212"><ele>805.0</ele><time>2026-04-18T09:36:15.999Z</time></trkpt><trkpt lat="43.67662094552619" lon="12.101748085015995"><ele>805.0</ele><time>2026-04-18T09:36:17.999Z</time></trkpt><trkpt lat="43.67672250999153" lon="12.101871516516265"><ele>806.1666666666666</ele><time>2026-04-18T09:36:19.999Z</time></trkpt><trkpt lat="43.676777506365376" lon="12.101969880094394"><ele>807.3333333333333</ele><time>2026-04-18T09:36:20.999Z</time></trkpt><trkpt lat="43.6768160758928" lon="12.10205783169959"><ele>808.5</ele><time>2026-04-18T09:36:21.999Z</time></trkpt><trkpt lat="43.67685647223252" lon="12.102173349173494"><ele>809.6666666666667</ele><time>2026-04-18T09:36:22.999Z</time></trkpt><trkpt lat="43.676890849505156" lon="12.102299255467244"><ele>810.8333333333334</ele><time>2026-04-18T09:36:23.999Z</time></trkpt><trkpt lat="43.676917570795275" lon="12.102417783334964"><ele>812.0</ele><time>2026-04-18T09:36:24.999Z</time></trkpt><trkpt lat="43.676939108585415" lon="12.102541600290602"><ele>812.6666666666667</ele><time>2026-04-18T09:36:25.999Z</time></trkpt><trkpt lat="43.676951542815736" lon="12.102650646464953"><ele>813.3333333333334</ele><time>2026-04-18T09:36:26.999Z</time></trkpt><trkpt lat="43.67696968059721" lon="12.102747240120804"><ele>814.0</ele><time>2026-04-18T09:36:27.999Z</time></trkpt><trkpt lat="43.67694613784198" lon="12.10285254163436"><ele>814.6666666666667</ele><time>2026-04-18T09:36:28.999Z</time></trkpt><trkpt lat="43.676902521394304" lon="12.102933554486356"><ele>815.3333333333334</ele><time>2026-04-18T09:36:29.999Z</time></trkpt><trkpt lat="43.676817497751706" lon="12.102947614921721"><ele>816.0</ele><time>2026-04-18T09:36:30.999Z</time></trkpt><trkpt lat="43.67675126851317" lon="12.103004927554066"><ele>816.0</ele><time>2026-04-18T09:36:31.999Z</time></trkpt><trkpt lat="43.676678015637364" lon="12.103070118896127"><ele>816.0</ele><time>2026-04-18T09:36:32.999Z</time></trkpt><trkpt lat="43.67659692162561" lon="12.103095274325058"><ele>816.0</ele><time>2026-04-18T09:36:33.999Z</time></trkpt><trkpt lat="43.67653589020933" lon="12.103166145238214"><ele>816.0</ele><time>2026-04-18T09:36:35.999Z</time></trkpt><trkpt lat="43.67658236384683" lon="12.103281362459825"><ele>816.0</ele><time>2026-04-18T09:36:38Z</time></trkpt><trkpt lat="43.676713516130185" lon="12.103286306781749"><ele>818.1999999999999</ele><time>2026-04-18T09:36:40Z</time></trkpt><trkpt lat="43.676805155250136" lon="12.103312898669687"><ele>820.4</ele><time>2026-04-18T09:36:41Z</time></trkpt><trkpt lat="43.67689558993495" lon="12.10331148790871"><ele>822.6</ele><time>2026-04-18T09:36:42Z</time></trkpt><trkpt lat="43.677002420126044" lon="12.103302145433803"><ele>824.8</ele><time>2026-04-18T09:36:43Z</time></trkpt><trkpt lat="43.67710700284275" lon="12.103268643337872"><ele>827.0</ele><time>2026-04-18T09:36:44Z</time></trkpt><trkpt lat="43.677178607237906" lon="12.103259889794577"><ele>827.5000000000001</ele><time>2026-04-18T09:36:45Z</time></trkpt><trkpt lat="43.67726074183462" lon="12.103211534432555"><ele>828.0</ele><time>2026-04-18T09:36:46Z</time></trkpt><trkpt lat="43.677331854262725" lon="12.103128165849034"><ele>828.5</ele><time>2026-04-18T09:36:47Z</time></trkpt><trkpt lat="43.677373867666404" lon="12.103031569743852"><ele>829.0</ele><time>2026-04-18T09:36:48Z</time></trkpt><trkpt lat="43.6774316224718" lon="12.10293781718066"><ele>829.5000000000001</ele><time>2026-04-18T09:36:49Z</time></trkpt><trkpt lat="43.677492452265334" lon="12.102899945990329"><ele>830.0</ele><time>2026-04-18T09:36:50Z</time></trkpt><trkpt lat="43.67758038429614" lon="12.10288198721384"><ele>830.0</ele><time>2026-04-18T09:36:52Z</time></trkpt><trkpt lat="43.677692748525885" lon="12.102929751983938"><ele>830.0</ele><time>2026-04-18T09:36:54Z</time></trkpt><trkpt lat="43.67775116729279" lon="12.102977040082877"><ele>830.0</ele><time>2026-04-18T09:36:55Z</time></trkpt><trkpt lat="43.677816607862376" lon="12.103036911183146"><ele>830.0</ele><time>2026-04-18T09:36:56Z</time></trkpt><trkpt lat="43.67789954396321" lon="12.103117580931888"><ele>830.0</ele><time>2026-04-18T09:36:57Z</time></trkpt><trkpt lat="43.67798021132213" lon="12.103205655654905"><ele>833.4</ele><time>2026-04-18T09:36:58Z</time></trkpt><trkpt lat="43.678064827010104" lon="12.103302178639035"><ele>836.8</ele><time>2026-04-18T09:36:59Z</time></trkpt><trkpt lat="43.67815770456303" lon="12.103408126005943"><ele>840.2</ele><time>2026-04-18T09:37:00Z</time></trkpt><trkpt lat="43.67823763741897" lon="12.103500156859292"><ele>843.6</ele><time>2026-04-18T09:37:01Z</time></trkpt><trkpt lat="43.67832586913496" lon="12.10360186081381"><ele>847.0</ele><time>2026-04-18T09:37:02Z</time></trkpt><trkpt lat="43.67840846345966" lon="12.10369706632055"><ele>847.0</ele><time>2026-04-18T09:37:03Z</time></trkpt><trkpt lat="43.6784862473998" lon="12.103787247496886"><ele>847.0</ele><time>2026-04-18T09:37:04Z</time></trkpt><trkpt lat="43.678561524314375" lon="12.103875185297442"><ele>847.0</ele><time>2026-04-18T09:37:05Z</time></trkpt><trkpt lat="43.67864358529072" lon="12.103971048553468"><ele>847.0</ele><time>2026-04-18T09:37:06Z</time></trkpt><trkpt lat="43.678729361095584" lon="12.104068836645636"><ele>847.0</ele><time>2026-04-18T09:37:07Z</time></trkpt><trkpt lat="43.678828377461905" lon="12.104173837523145"><ele>849.5</ele><time>2026-04-18T09:37:08Z</time></trkpt><trkpt lat="43.67892631340497" lon="12.104270052937707"><ele>852.0</ele><time>2026-04-18T09:37:09Z</time></trkpt><trkpt lat="43.67902815957769" lon="12.104367128716952"><ele>854.5</ele><time>2026-04-18T09:37:10Z</time></trkpt><trkpt lat="43.67911643256852" lon="12.10445278711569"><ele>857.0</ele><time>2026-04-18T09:37:11Z</time></trkpt><trkpt lat="43.679207888869456" lon="12.104529660067842"><ele>857.0000000000001</ele><time>2026-04-18T09:37:12Z</time></trkpt><trkpt lat="43.67928738904961" lon="12.104580261279704"><ele>857.0</ele><time>2026-04-18T09:37:13Z</time></trkpt><trkpt lat="43.67935857923581" lon="12.104616792691509"><ele>857.0</ele><time>2026-04-18T09:37:14Z</time></trkpt><trkpt lat="43.67943713776288" lon="12.104653603875333"><ele>857.0</ele><time>2026-04-18T09:37:15Z</time></trkpt><trkpt lat="43.67950916620681" lon="12.10469014340298"><ele>857.0000000000001</ele><time>2026-04-18T09:37:16Z</time></trkpt><trkpt lat="43.67956029229677" lon="12.104741872627557"><ele>857.0</ele><time>2026-04-18T09:37:17Z</time></trkpt><trkpt lat="43.679564687119566" lon="12.104845518831564"><ele>856.6666666666667</ele><time>2026-04-18T09:37:19Z</time></trkpt><trkpt lat="43.67948023915587" lon="12.104956241423396"><ele>856.3333333333334</ele><time>2026-04-18T09:37:22Z</time></trkpt><trkpt lat="43.67942045341931" lon="12.105003460595967"><ele>856.0</ele><time>2026-04-18T09:37:23Z</time></trkpt><trkpt lat="43.67935695139659" lon="12.105034632201566"><ele>855.6666666666667</ele><time>2026-04-18T09:37:24Z</time></trkpt><trkpt lat="43.6792975761811" lon="12.105065838285672"><ele>855.3333333333334</ele><time>2026-04-18T09:37:25Z</time></trkpt><trkpt lat="43.67924470889079" lon="12.10511949925521"><ele>855.0</ele><time>2026-04-18T09:37:26Z</time></trkpt><trkpt lat="43.679200124936386" lon="12.10525114200672"><ele>855.0</ele><time>2026-04-18T09:37:28Z</time></trkpt><trkpt lat="43.6792293872785" lon="12.10539966152034"><ele>855.0</ele><time>2026-04-18T09:37:30Z</time></trkpt><trkpt lat="43.67926987410452" lon="12.105473113873732"><ele>855.0</ele><time>2026-04-18T09:37:31Z</time></trkpt><trkpt lat="43.67932358279478" lon="12.105534693301138"><ele>855.0</ele><time>2026-04-18T09:37:32Z</time></trkpt><trkpt lat="43.67938605580669" lon="12.105595991596275"><ele>855.0</ele><time>2026-04-18T09:37:33Z</time></trkpt><trkpt lat="43.67944023941987" lon="12.105666606747215"><ele>855.0</ele><time>2026-04-18T09:37:34Z</time></trkpt><trkpt lat="43.67950049815259" lon="12.105750637422144"><ele>857.4</ele><time>2026-04-18T09:37:35Z</time></trkpt><trkpt lat="43.67957212463486" lon="12.105867585821553"><ele>859.8</ele><time>2026-04-18T09:37:36Z</time></trkpt><trkpt lat="43.679637721349216" lon="12.105988936180953"><ele>862.2</ele><time>2026-04-18T09:37:37Z</time></trkpt><trkpt lat="43.679676026733326" lon="12.106095025128605"><ele>864.6</ele><time>2026-04-18T09:37:38Z</time></trkpt><trkpt lat="43.67970142427662" lon="12.106212155455129"><ele>867.0</ele><time>2026-04-18T09:37:39Z</time></trkpt><trkpt lat="43.679716029469866" lon="12.106347409225696"><ele>867.0</ele><time>2026-04-18T09:37:40Z</time></trkpt><trkpt lat="43.67973250143116" lon="12.106483493901944"><ele>867.0</ele><time>2026-04-18T09:37:41Z</time></trkpt><trkpt lat="43.679764179460506" lon="12.106633337093273"><ele>867.0</ele><time>2026-04-18T09:37:42Z</time></trkpt><trkpt lat="43.679805808031325" lon="12.106772194509528"><ele>867.0</ele><time>2026-04-18T09:37:43Z</time></trkpt><trkpt lat="43.679852045244644" lon="12.106893997676844"><ele>867.0</ele><time>2026-04-18T09:37:44Z</time></trkpt><trkpt lat="43.67991663875536" lon="12.106986782722876"><ele>868.0</ele><time>2026-04-18T09:37:45Z</time></trkpt><trkpt lat="43.6799828288322" lon="12.107060066306408"><ele>869.0</ele><time>2026-04-18T09:37:46Z</time></trkpt><trkpt lat="43.68005745966448" lon="12.107162579903793"><ele>870.0</ele><time>2026-04-18T09:37:47Z</time></trkpt><trkpt lat="43.68014174876186" lon="12.107218089632845"><ele>871.0</ele><time>2026-04-18T09:37:48Z</time></trkpt><trkpt lat="43.68024046656537" lon="12.107226008413646"><ele>872.0</ele><time>2026-04-18T09:37:49Z</time></trkpt><trkpt lat="43.68031778861214" lon="12.107229488000149"><ele>873.6666666666667</ele><time>2026-04-18T09:37:50Z</time></trkpt><trkpt lat="43.680459260951146" lon="12.107227942719604"><ele>875.3333333333334</ele><time>2026-04-18T09:37:52Z</time></trkpt><trkpt lat="43.68053469037618" lon="12.107198356775514"><ele>877.0</ele><time>2026-04-18T09:37:53Z</time></trkpt><trkpt lat="43.680614706550315" lon="12.10718591388582"><ele>878.6666666666667</ele><time>2026-04-18T09:37:54Z</time></trkpt><trkpt lat="43.68067624123684" lon="12.107226024179662"><ele>880.3333333333334</ele><time>2026-04-18T09:37:55Z</time></trkpt><trkpt lat="43.680742562232524" lon="12.107284844253687"><ele>882.0</ele><time>2026-04-18T09:37:55.999Z</time></trkpt><trkpt lat="43.68081606525422" lon="12.107394235437152"><ele>883.0</ele><time>2026-04-18T09:37:56.999Z</time></trkpt><trkpt lat="43.680896250863974" lon="12.107500702122982"><ele>884.0</ele><time>2026-04-18T09:37:57.999Z</time></trkpt><trkpt lat="43.6809716136286" lon="12.10755362370776"><ele>885.0</ele><time>2026-04-18T09:37:58.999Z</time></trkpt><trkpt lat="43.68104171471624" lon="12.107563877021366"><ele>886.0</ele><time>2026-04-18T09:37:59.999Z</time></trkpt><trkpt lat="43.681130197341496" lon="12.10756566086408"><ele>887.0</ele><time>2026-04-18T09:38:00.999Z</time></trkpt><trkpt lat="43.68124343707155" lon="12.107574287988562"><ele>889.0</ele><time>2026-04-18T09:38:01.999Z</time></trkpt><trkpt lat="43.68132810150682" lon="12.10761547554765"><ele>891.0</ele><time>2026-04-18T09:38:02.999Z</time></trkpt><trkpt lat="43.68135641939389" lon="12.107760499879726"><ele>893.0</ele><time>2026-04-18T09:38:04.999Z</time></trkpt><trkpt lat="43.681336528582214" lon="12.107857856568742"><ele>895.0</ele><time>2026-04-18T09:38:05.999Z</time></trkpt><trkpt lat="43.6813171843443" lon="12.107969216880269"><ele>897.0</ele><time>2026-04-18T09:38:06.999Z</time></trkpt><trkpt lat="43.68129958557512" lon="12.10811444806219"><ele>898.5</ele><time>2026-04-18T09:38:07.999Z</time></trkpt><trkpt lat="43.68129023200518" lon="12.108294910994708"><ele>900.0</ele><time>2026-04-18T09:38:08.999Z</time></trkpt><trkpt lat="43.68128610499688" lon="12.108478930892154"><ele>901.5</ele><time>2026-04-18T09:38:09.999Z</time></trkpt><trkpt lat="43.68128971199324" lon="12.108647202157313"><ele>903.0</ele><time>2026-04-18T09:38:10.999Z</time></trkpt><trkpt lat="43.68130103577032" lon="12.10876260015793"><ele>903.0</ele><time>2026-04-18T09:38:11.999Z</time></trkpt><trkpt lat="43.68132364436458" lon="12.108878059313634"><ele>903.0</ele><time>2026-04-18T09:38:12.999Z</time></trkpt><trkpt lat="43.68136013755585" lon="12.108964996056708"><ele>903.0</ele><time>2026-04-18T09:38:13.999Z</time></trkpt><trkpt lat="43.68141124026493" lon="12.109040221606596"><ele>903.0</ele><time>2026-04-18T09:38:14.999Z</time></trkpt><trkpt lat="43.68147890784791" lon="12.109108200916962"><ele>903.0</ele><time>2026-04-18T09:38:15.999Z</time></trkpt><trkpt lat="43.68153730443269" lon="12.109202526789744"><ele>903.0</ele><time>2026-04-18T09:38:16.999Z</time></trkpt><trkpt lat="43.6816068342424" lon="12.109295279430754"><ele>904.8</ele><time>2026-04-18T09:38:17.999Z</time></trkpt><trkpt lat="43.681676352400416" lon="12.109397907172028"><ele>906.5999999999999</ele><time>2026-04-18T09:38:18.999Z</time></trkpt><trkpt lat="43.68169253117453" lon="12.1095619658604"><ele>908.4000000000001</ele><time>2026-04-18T09:38:20.999Z</time></trkpt><trkpt lat="43.68167198800562" lon="12.109655058550384"><ele>910.2</ele><time>2026-04-18T09:38:21.999Z</time></trkpt><trkpt lat="43.68161323299894" lon="12.109726675476054"><ele>912.0</ele><time>2026-04-18T09:38:22.999Z</time></trkpt><trkpt lat="43.681533055631576" lon="12.10983097661686"><ele>913.0</ele><time>2026-04-18T09:38:23.999Z</time></trkpt><trkpt lat="43.681466940407795" lon="12.10994009143757"><ele>914.0</ele><time>2026-04-18T09:38:24.999Z</time></trkpt><trkpt lat="43.68140867643319" lon="12.11003334304981"><ele>915.0</ele><time>2026-04-18T09:38:25.999Z</time></trkpt><trkpt lat="43.68139490752759" lon="12.110120835479348"><ele>916.0</ele><time>2026-04-18T09:38:26.999Z</time></trkpt><trkpt lat="43.68140600684316" lon="12.110218335320129"><ele>917.0</ele><time>2026-04-18T09:38:27.999Z</time></trkpt><trkpt lat="43.68141650993646" lon="12.110350614567537"><ele>918.0</ele><time>2026-04-18T09:38:28.999Z</time></trkpt><trkpt lat="43.68143966373418" lon="12.110480336785203"><ele>918.0</ele><time>2026-04-18T09:38:29.999Z</time></trkpt><trkpt lat="43.68147420201778" lon="12.11062169067454"><ele>918.0</ele><time>2026-04-18T09:38:30.999Z</time></trkpt><trkpt lat="43.681495843920715" lon="12.110780450917638"><ele>918.0</ele><time>2026-04-18T09:38:31.999Z</time></trkpt><trkpt lat="43.68154977607156" lon="12.110874647567666"><ele>918.0</ele><time>2026-04-18T09:38:32.999Z</time></trkpt><trkpt lat="43.68158006419331" lon="12.110956980391888"><ele>918.0</ele><time>2026-04-18T09:38:33.999Z</time></trkpt><trkpt lat="43.68165649888446" lon="12.110990957144487"><ele>919.4</ele><time>2026-04-18T09:38:34.999Z</time></trkpt><trkpt lat="43.68172412429301" lon="12.110975303086683"><ele>920.8</ele><time>2026-04-18T09:38:35.999Z</time></trkpt><trkpt lat="43.68183195343672" lon="12.110988999378902"><ele>922.2</ele><time>2026-04-18T09:38:37.999Z</time></trkpt><trkpt lat="43.68191761153912" lon="12.11103632884483"><ele>923.6</ele><time>2026-04-18T09:38:39.999Z</time></trkpt><trkpt lat="43.681933822446126" lon="12.111144433496952"><ele>925.0</ele><time>2026-04-18T09:38:41.999Z</time></trkpt><trkpt lat="43.68189091326449" lon="12.111287935436865"><ele>924.9999999999999</ele><time>2026-04-18T09:38:44Z</time></trkpt><trkpt lat="43.68185409214387" lon="12.111389230914238"><ele>925.0</ele><time>2026-04-18T09:38:45Z</time></trkpt><trkpt lat="43.681822159832954" lon="12.111504153687356"><ele>925.0</ele><time>2026-04-18T09:38:46Z</time></trkpt><trkpt lat="43.68181671007663" lon="12.111620756317876"><ele>925.0</ele><time>2026-04-18T09:38:48Z</time></trkpt><trkpt lat="43.68187593394324" lon="12.111732591162369"><ele>924.9999999999999</ele><time>2026-04-18T09:38:50Z</time></trkpt><trkpt lat="43.681942225940915" lon="12.11172183133861"><ele>925.0</ele><time>2026-04-18T09:38:51Z</time></trkpt><trkpt lat="43.682004603071704" lon="12.111641822169917"><ele>926.9999999999999</ele><time>2026-04-18T09:38:52Z</time></trkpt><trkpt lat="43.68206336595582" lon="12.111569655671733"><ele>929.0</ele><time>2026-04-18T09:38:53Z</time></trkpt><trkpt lat="43.68213426963006" lon="12.111537693592377"><ele>931.0</ele><time>2026-04-18T09:38:54Z</time></trkpt><trkpt lat="43.682205137219846" lon="12.111490065677668"><ele>933.0</ele><time>2026-04-18T09:38:55Z</time></trkpt><trkpt lat="43.682297368628305" lon="12.111436054396318"><ele>934.9999999999999</ele><time>2026-04-18T09:38:56Z</time></trkpt><trkpt lat="43.68238852384802" lon="12.11139757847371"><ele>937.0</ele><time>2026-04-18T09:38:57Z</time></trkpt><trkpt lat="43.68246067648251" lon="12.11138783319922"><ele>937.0</ele><time>2026-04-18T09:38:58Z</time></trkpt><trkpt lat="43.682525487326025" lon="12.111390738711334"><ele>937.0</ele><time>2026-04-18T09:38:59Z</time></trkpt><trkpt lat="43.68258663767995" lon="12.111412698294906"><ele>937.0</ele><time>2026-04-18T09:39:00Z</time></trkpt><trkpt lat="43.68265085493066" lon="12.111438551184003"><ele>937.0</ele><time>2026-04-18T09:39:01Z</time></trkpt><trkpt lat="43.68271712429644" lon="12.111488324837499"><ele>937.0</ele><time>2026-04-18T09:39:02Z</time></trkpt><trkpt lat="43.68277436644499" lon="12.111543978478231"><ele>937.0</ele><time>2026-04-18T09:39:03Z</time></trkpt><trkpt lat="43.682823763480876" lon="12.11159949864051"><ele>937.0</ele><time>2026-04-18T09:39:04Z</time></trkpt><trkpt lat="43.68287047716375" lon="12.111667257457228"><ele>939.8333333333333</ele><time>2026-04-18T09:39:05Z</time></trkpt><trkpt lat="43.68291273183564" lon="12.111733489434474"><ele>942.6666666666666</ele><time>2026-04-18T09:39:06Z</time></trkpt><trkpt lat="43.682963165945985" lon="12.11186524291417"><ele>945.5</ele><time>2026-04-18T09:39:08Z</time></trkpt><trkpt lat="43.68295919831977" lon="12.112007160927346"><ele>948.3333333333333</ele><time>2026-04-18T09:39:10Z</time></trkpt><trkpt lat="43.682907864224575" lon="12.112126287566474"><ele>951.1666666666666</ele><time>2026-04-18T09:39:12Z</time></trkpt><trkpt lat="43.68284143855844" lon="12.112167474116129"><ele>954.0</ele><time>2026-04-18T09:39:13Z</time></trkpt><trkpt lat="43.6827946542669" lon="12.112228292308979"><ele>954.2</ele><time>2026-04-18T09:39:14Z</time></trkpt><trkpt lat="43.68274723447836" lon="12.112308555598274"><ele>954.4000000000001</ele><time>2026-04-18T09:39:15Z</time></trkpt><trkpt lat="43.68271861248609" lon="12.112421299253487"><ele>954.6</ele><time>2026-04-18T09:39:16Z</time></trkpt><trkpt lat="43.6826984568019" lon="12.112537453531367"><ele>954.8</ele><time>2026-04-18T09:39:17Z</time></trkpt><trkpt lat="43.682679394145694" lon="12.11267319667602"><ele>955.0</ele><time>2026-04-18T09:39:18Z</time></trkpt><trkpt lat="43.68266121122493" lon="12.112818744003583"><ele>954.9999999999999</ele><time>2026-04-18T09:39:19Z</time></trkpt><trkpt lat="43.68265002020834" lon="12.112953362072385"><ele>955.0</ele><time>2026-04-18T09:39:20Z</time></trkpt><trkpt lat="43.68264059733044" lon="12.113072644849439"><ele>955.0</ele><time>2026-04-18T09:39:21Z</time></trkpt><trkpt lat="43.682640696424414" lon="12.113211159068149"><ele>955.0</ele><time>2026-04-18T09:39:22Z</time></trkpt><trkpt lat="43.682626377280336" lon="12.113319565034766"><ele>954.9999999999999</ele><time>2026-04-18T09:39:23Z</time></trkpt><trkpt lat="43.682593818664024" lon="12.113415909924525"><ele>955.0</ele><time>2026-04-18T09:39:24Z</time></trkpt><trkpt lat="43.6825701266559" lon="12.113546945068105"><ele>957.5</ele><time>2026-04-18T09:39:25Z</time></trkpt><trkpt lat="43.68254255115136" lon="12.113699458788279"><ele>960.0</ele><time>2026-04-18T09:39:26Z</time></trkpt><trkpt lat="43.682527520598" lon="12.113871321897479"><ele>962.5</ele><time>2026-04-18T09:39:27Z</time></trkpt><trkpt lat="43.682489991982635" lon="12.114033504968273"><ele>965.0</ele><time>2026-04-18T09:39:28Z</time></trkpt><trkpt lat="43.68246564413163" lon="12.114182776358433"><ele>966.0000000000001</ele><time>2026-04-18T09:39:29Z</time></trkpt><trkpt lat="43.68245518758758" lon="12.114297609266297"><ele>967.0</ele><time>2026-04-18T09:39:30Z</time></trkpt><trkpt lat="43.682454018818326" lon="12.114406207998531"><ele>968.0</ele><time>2026-04-18T09:39:31Z</time></trkpt><trkpt lat="43.68245898258889" lon="12.114503488740874"><ele>969.0</ele><time>2026-04-18T09:39:32Z</time></trkpt><trkpt lat="43.68246197549096" lon="12.114634008667716"><ele>970.0000000000001</ele><time>2026-04-18T09:39:33Z</time></trkpt><trkpt lat="43.68246292514373" lon="12.11475764901084"><ele>971.0</ele><time>2026-04-18T09:39:34Z</time></trkpt><trkpt lat="43.682469592586585" lon="12.114891143720689"><ele>971.8333333333334</ele><time>2026-04-18T09:39:35Z</time></trkpt><trkpt lat="43.682476111443755" lon="12.115011742941487"><ele>972.6666666666667</ele><time>2026-04-18T09:39:36Z</time></trkpt><trkpt lat="43.68249102025565" lon="12.115125521151406"><ele>973.5</ele><time>2026-04-18T09:39:37Z</time></trkpt><trkpt lat="43.68251260444967" lon="12.115231592483376"><ele>974.3333333333333</ele><time>2026-04-18T09:39:38Z</time></trkpt><trkpt lat="43.682549132370376" lon="12.115312835517962"><ele>975.1666666666666</ele><time>2026-04-18T09:39:39Z</time></trkpt><trkpt lat="43.68260243843008" lon="12.115388587863656"><ele>976.0</ele><time>2026-04-18T09:39:40Z</time></trkpt><trkpt lat="43.682662854700894" lon="12.11543859291363"><ele>976.0</ele><time>2026-04-18T09:39:41Z</time></trkpt><trkpt lat="43.68274305691347" lon="12.115481641186827"><ele>975.9999999999999</ele><time>2026-04-18T09:39:42Z</time></trkpt><trkpt lat="43.682838120510816" lon="12.115513418497764"><ele>975.9999999999999</ele><time>2026-04-18T09:39:43Z</time></trkpt><trkpt lat="43.68294591527945" lon="12.11558859666931"><ele>976.0</ele><time>2026-04-18T09:39:44Z</time></trkpt><trkpt lat="43.68302546029628" lon="12.115630672120123"><ele>976.0</ele><time>2026-04-18T09:39:45Z</time></trkpt><trkpt lat="43.68307808540199" lon="12.115689055531213"><ele>977.0</ele><time>2026-04-18T09:39:48Z</time></trkpt><trkpt lat="43.68305491898497" lon="12.115802535988276"><ele>977.9999999999999</ele><time>2026-04-18T09:39:49Z</time></trkpt><trkpt lat="43.68297248874321" lon="12.115940567378528"><ele>978.9999999999999</ele><time>2026-04-18T09:39:51Z</time></trkpt><trkpt lat="43.682898219087754" lon="12.116026078377855"><ele>980.0</ele><time>2026-04-18T09:39:52Z</time></trkpt><trkpt lat="43.68282570901303" lon="12.11609514207572"><ele>981.0</ele><time>2026-04-18T09:39:53Z</time></trkpt><trkpt lat="43.68275881442836" lon="12.116153192265738"><ele>981.0</ele><time>2026-04-18T09:39:54Z</time></trkpt><trkpt lat="43.682702644009005" lon="12.116196078497369"><ele>980.9999999999999</ele><time>2026-04-18T09:39:55Z</time></trkpt><trkpt lat="43.68261054002091" lon="12.116254530190343"><ele>980.9999999999999</ele><time>2026-04-18T09:39:57Z</time></trkpt><trkpt lat="43.682544082517644" lon="12.116273370734747"><ele>981.0</ele><time>2026-04-18T09:39:59Z</time></trkpt><trkpt lat="43.68247984554129" lon="12.116306773829885"><ele>981.0</ele><time>2026-04-18T09:40:12Z</time></trkpt><trkpt lat="43.68261362757121" lon="12.116529080180296"><ele>981.6666666666667</ele><time>2026-04-18T09:40:16Z</time></trkpt><trkpt lat="43.68267662199003" lon="12.116682389345293"><ele>982.3333333333334</ele><time>2026-04-18T09:40:17Z</time></trkpt><trkpt lat="43.68272888421211" lon="12.116887149170221"><ele>983.0</ele><time>2026-04-18T09:40:17.999Z</time></trkpt><trkpt lat="43.68279005536728" lon="12.11712558527738"><ele>983.0</ele><time>2026-04-18T09:40:18.999Z</time></trkpt><trkpt lat="43.68286091388009" lon="12.117392978775808"><ele>983.0</ele><time>2026-04-18T09:40:19.999Z</time></trkpt><trkpt lat="43.68295690607506" lon="12.117651044353993"><ele>983.0</ele><time>2026-04-18T09:40:20.999Z</time></trkpt><trkpt lat="43.68308176263122" lon="12.117899257634841"><ele>980.0</ele><time>2026-04-18T09:40:21.999Z</time></trkpt><trkpt lat="43.683229909053104" lon="12.11810723811194"><ele>977.0</ele><time>2026-04-18T09:40:22.999Z</time></trkpt><trkpt lat="43.68335842824795" lon="12.11834594872674"><ele>974.0</ele><time>2026-04-18T09:40:23.999Z</time></trkpt><trkpt lat="43.68347773460312" lon="12.118592765277178"><ele>973.6666666666667</ele><time>2026-04-18T09:40:24.999Z</time></trkpt><trkpt lat="43.6835826347978" lon="12.11882897193583"><ele>973.3333333333333</ele><time>2026-04-18T09:40:25.999Z</time></trkpt><trkpt lat="43.68366834490543" lon="12.119065021393649"><ele>973.0</ele><time>2026-04-18T09:40:26.999Z</time></trkpt><trkpt lat="43.68372360167737" lon="12.119287420894853"><ele>968.0</ele><time>2026-04-18T09:40:27.999Z</time></trkpt><trkpt lat="43.68373960185532" lon="12.119502350182467"><ele>963.0</ele><time>2026-04-18T09:40:28.999Z</time></trkpt><trkpt lat="43.683708982969534" lon="12.1197160671135"><ele>958.0</ele><time>2026-04-18T09:40:29.999Z</time></trkpt><trkpt lat="43.68363841474967" lon="12.119914560663322"><ele>956.75</ele><time>2026-04-18T09:40:30.999Z</time></trkpt><trkpt lat="43.68358984824517" lon="12.120108017447265"><ele>955.5</ele><time>2026-04-18T09:40:31.999Z</time></trkpt><trkpt lat="43.683614633145126" lon="12.120292030312346"><ele>954.25</ele><time>2026-04-18T09:40:32.999Z</time></trkpt><trkpt lat="43.68369434249601" lon="12.12042171776957"><ele>953.0</ele><time>2026-04-18T09:40:33.999Z</time></trkpt><trkpt lat="43.68381711926264" lon="12.12048769128116"><ele>953.0</ele><time>2026-04-18T09:40:34.999Z</time></trkpt><trkpt lat="43.68397603804938" lon="12.120481897518177"><ele>953.0</ele><time>2026-04-18T09:40:35.999Z</time></trkpt><trkpt lat="43.68415209648994" lon="12.120444138346187"><ele>953.0</ele><time>2026-04-18T09:40:36.999Z</time></trkpt><trkpt lat="43.6843437799706" lon="12.120446287992294"><ele>952.3333333333334</ele><time>2026-04-18T09:40:37.999Z</time></trkpt><trkpt lat="43.68452017664828" lon="12.120458316338095"><ele>951.6666666666667</ele><time>2026-04-18T09:40:38.999Z</time></trkpt><trkpt lat="43.684670502174136" lon="12.120512420790652"><ele>951.0</ele><time>2026-04-18T09:40:39.999Z</time></trkpt><trkpt lat="43.6847883508936" lon="12.120651423146354"><ele>948.3333333333333</ele><time>2026-04-18T09:40:40.999Z</time></trkpt><trkpt lat="43.6848594349997" lon="12.12084258018707"><ele>945.6666666666666</ele><time>2026-04-18T09:40:41.999Z</time></trkpt><trkpt lat="43.68488478866455" lon="12.12105700997256"><ele>943.0</ele><time>2026-04-18T09:40:42.999Z</time></trkpt><trkpt lat="43.684843904473354" lon="12.121290089536886"><ele>943.0</ele><time>2026-04-18T09:40:43.999Z</time></trkpt><trkpt lat="43.684780969694856" lon="12.121552965751768"><ele>943.0</ele><time>2026-04-18T09:40:44.999Z</time></trkpt><trkpt lat="43.684738083222" lon="12.121845431838876"><ele>943.0</ele><time>2026-04-18T09:40:45.999Z</time></trkpt><trkpt lat="43.68471420606573" lon="12.122133434345082"><ele>939.3333333333333</ele><time>2026-04-18T09:40:46.999Z</time></trkpt><trkpt lat="43.684734996087215" lon="12.122432820575419"><ele>935.6666666666667</ele><time>2026-04-18T09:40:47.999Z</time></trkpt><trkpt lat="43.68478384894326" lon="12.122730166640324"><ele>932.0</ele><time>2026-04-18T09:40:48.999Z</time></trkpt><trkpt lat="43.684824129514865" lon="12.123007948650278"><ele>931.6666666666667</ele><time>2026-04-18T09:40:50Z</time></trkpt><trkpt lat="43.68485800607608" lon="12.123266963309192"><ele>931.3333333333333</ele><time>2026-04-18T09:40:51Z</time></trkpt><trkpt lat="43.684904232624376" lon="12.123518362107866"><ele>931.0</ele><time>2026-04-18T09:40:52Z</time></trkpt><trkpt lat="43.68499330515791" lon="12.123728315719019"><ele>931.0</ele><time>2026-04-18T09:40:53Z</time></trkpt><trkpt lat="43.68512954242647" lon="12.123893034662911"><ele>931.0</ele><time>2026-04-18T09:40:54Z</time></trkpt><trkpt lat="43.6852874353836" lon="12.124014412428835"><ele>931.0</ele><time>2026-04-18T09:40:55Z</time></trkpt><trkpt lat="43.68540536027176" lon="12.124145059814943"><ele>926.3333333333333</ele><time>2026-04-18T09:40:56Z</time></trkpt><trkpt lat="43.68547976446471" lon="12.124337024291783"><ele>921.6666666666667</ele><time>2026-04-18T09:40:57Z</time></trkpt><trkpt lat="43.685519682724085" lon="12.124575177422143"><ele>917.0</ele><time>2026-04-18T09:40:58Z</time></trkpt><trkpt lat="43.68557822610246" lon="12.12482257661329"><ele>921.6666666666667</ele><time>2026-04-18T09:40:59Z</time></trkpt><trkpt lat="43.6856894904418" lon="12.125044068426003"><ele>926.3333333333333</ele><time>2026-04-18T09:41:00Z</time></trkpt><trkpt lat="43.68582071829918" lon="12.125274883028409"><ele>931.0</ele><time>2026-04-18T09:41:01Z</time></trkpt><trkpt lat="43.68597574409431" lon="12.125494688913363"><ele>918.5</ele><time>2026-04-18T09:41:02Z</time></trkpt><trkpt lat="43.68614415605929" lon="12.125729904201085"><ele>906.0</ele><time>2026-04-18T09:41:03Z</time></trkpt><trkpt lat="43.68627600444012" lon="12.125959884214305"><ele>906.0</ele><time>2026-04-18T09:41:04Z</time></trkpt><trkpt lat="43.686417953299724" lon="12.126173454714014"><ele>906.0</ele><time>2026-04-18T09:41:05Z</time></trkpt><trkpt lat="43.68656720138689" lon="12.12637476662797"><ele>906.0</ele><time>2026-04-18T09:41:06Z</time></trkpt><trkpt lat="43.6867429492223" lon="12.126538771260506"><ele>906.0</ele><time>2026-04-18T09:41:07Z</time></trkpt><trkpt lat="43.68694034894215" lon="12.126664507647723"><ele>906.0</ele><time>2026-04-18T09:41:08Z</time></trkpt><trkpt lat="43.68713951124159" lon="12.126795214229242"><ele>906.0</ele><time>2026-04-18T09:41:09Z</time></trkpt><trkpt lat="43.68733070639838" lon="12.126957980927266"><ele>906.0</ele><time>2026-04-18T09:41:10Z</time></trkpt><trkpt lat="43.68751388249937" lon="12.12713663266977"><ele>906.0</ele><time>2026-04-18T09:41:11Z</time></trkpt><trkpt lat="43.68763636150393" lon="12.127308730218408"><ele>906.0</ele><time>2026-04-18T09:41:12Z</time></trkpt><trkpt lat="43.68776959510302" lon="12.127514423373434"><ele>904.3333333333333</ele><time>2026-04-18T09:41:13Z</time></trkpt><trkpt lat="43.6879074452529" lon="12.127663606775286"><ele>902.6666666666666</ele><time>2026-04-18T09:41:14Z</time></trkpt><trkpt lat="43.68804824792989" lon="12.127790867561698"><ele>901.0</ele><time>2026-04-18T09:41:15Z</time></trkpt><trkpt lat="43.68820598659802" lon="12.127848298015351"><ele>901.0</ele><time>2026-04-18T09:41:16Z</time></trkpt><trkpt lat="43.68839084953676" lon="12.127842940935091"><ele>901.0</ele><time>2026-04-18T09:41:17Z</time></trkpt><trkpt lat="43.688553864253855" lon="12.127866049614042"><ele>901.0</ele><time>2026-04-18T09:41:18Z</time></trkpt><trkpt lat="43.68870391896866" lon="12.12790670553594"><ele>899.5</ele><time>2026-04-18T09:41:19Z</time></trkpt><trkpt lat="43.68877747111678" lon="12.128037417929509"><ele>898.0</ele><time>2026-04-18T09:41:20Z</time></trkpt><trkpt lat="43.688846487968085" lon="12.128187659703826"><ele>896.5</ele><time>2026-04-18T09:41:21Z</time></trkpt><trkpt lat="43.68895366995533" lon="12.128371720561136"><ele>895.0</ele><time>2026-04-18T09:41:22Z</time></trkpt><trkpt lat="43.68909499347626" lon="12.128540043101726"><ele>895.0</ele><time>2026-04-18T09:41:23Z</time></trkpt><trkpt lat="43.6892721538103" lon="12.128651716620944"><ele>895.0</ele><time>2026-04-18T09:41:24Z</time></trkpt><trkpt lat="43.68944271748705" lon="12.128764426687372"><ele>895.0</ele><time>2026-04-18T09:41:25Z</time></trkpt><trkpt lat="43.68963810843337" lon="12.128890307131476"><ele>888.6666666666666</ele><time>2026-04-18T09:41:26Z</time></trkpt><trkpt lat="43.68983951562351" lon="12.128947179123069"><ele>882.3333333333333</ele><time>2026-04-18T09:41:27Z</time></trkpt><trkpt lat="43.69006103901998" lon="12.129010733061802"><ele>876.0</ele><time>2026-04-18T09:41:28Z</time></trkpt><trkpt lat="43.69026382794117" lon="12.129042788670889"><ele>877.3333333333333</ele><time>2026-04-18T09:41:29Z</time></trkpt><trkpt lat="43.69044778556141" lon="12.129093632131246"><ele>878.6666666666666</ele><time>2026-04-18T09:41:30Z</time></trkpt><trkpt lat="43.69062056529278" lon="12.129177375695706"><ele>880.0</ele><time>2026-04-18T09:41:31Z</time></trkpt><trkpt lat="43.69077484301179" lon="12.129274233126015"><ele>880.0</ele><time>2026-04-18T09:41:32Z</time></trkpt><trkpt lat="43.69087133504593" lon="12.129394681267248"><ele>880.0</ele><time>2026-04-18T09:41:33Z</time></trkpt><trkpt lat="43.69090315627987" lon="12.1294737463674"><ele>880.0</ele><time>2026-04-18T09:41:34Z</time></trkpt><trkpt lat="43.690917388752055" lon="12.129578426161437"><ele>880.0</ele><time>2026-04-18T09:41:35Z</time></trkpt><trkpt lat="43.69091224011608" lon="12.129691469704234"><ele>880.0</ele><time>2026-04-18T09:41:36Z</time></trkpt><trkpt lat="43.69089784607209" lon="12.129833184627948"><ele>881.75</ele><time>2026-04-18T09:41:37Z</time></trkpt><trkpt lat="43.690879213434826" lon="12.130003370089755"><ele>883.5</ele><time>2026-04-18T09:41:38Z</time></trkpt><trkpt lat="43.69086173824409" lon="12.130186532652706"><ele>885.25</ele><time>2026-04-18T09:41:39Z</time></trkpt><trkpt lat="43.6908630114591" lon="12.130393158838086"><ele>887.0</ele><time>2026-04-18T09:41:40Z</time></trkpt><trkpt lat="43.69091492568307" lon="12.130613310735521"><ele>888.0</ele><time>2026-04-18T09:41:41Z</time></trkpt><trkpt lat="43.691040349288755" lon="12.130797330634902"><ele>889.0</ele><time>2026-04-18T09:41:42Z</time></trkpt><trkpt lat="43.69115100997235" lon="12.130954360307722"><ele>890.0</ele><time>2026-04-18T09:41:43Z</time></trkpt><trkpt lat="43.691244175564044" lon="12.131134245551765"><ele>882.3333333333334</ele><time>2026-04-18T09:41:44Z</time></trkpt><trkpt lat="43.69130746051797" lon="12.131354844745308"><ele>874.6666666666667</ele><time>2026-04-18T09:41:45Z</time></trkpt><trkpt lat="43.691363351770555" lon="12.131612336193175"><ele>867.0</ele><time>2026-04-18T09:41:46Z</time></trkpt><trkpt lat="43.69142203099192" lon="12.131882778084208"><ele>867.0</ele><time>2026-04-18T09:41:47Z</time></trkpt><trkpt lat="43.691484464000006" lon="12.132159704175999"><ele>867.0</ele><time>2026-04-18T09:41:48Z</time></trkpt><trkpt lat="43.69155026809493" lon="12.132430494557607"><ele>867.0</ele><time>2026-04-18T09:41:49Z</time></trkpt><trkpt lat="43.69161196176344" lon="12.132703798161874"><ele>866.6666666666667</ele><time>2026-04-18T09:41:50Z</time></trkpt><trkpt lat="43.691675379070304" lon="12.132973788053954"><ele>866.3333333333334</ele><time>2026-04-18T09:41:51Z</time></trkpt><trkpt lat="43.69174672764194" lon="12.133238297082027"><ele>866.0</ele><time>2026-04-18T09:41:52Z</time></trkpt><trkpt lat="43.691838008265194" lon="12.133511178420566"><ele>866.0</ele><time>2026-04-18T09:41:53Z</time></trkpt><trkpt lat="43.691945854514955" lon="12.133761390106738"><ele>866.0</ele><time>2026-04-18T09:41:54Z</time></trkpt><trkpt lat="43.69204570980647" lon="12.133987663993759"><ele>866.0</ele><time>2026-04-18T09:41:55Z</time></trkpt><trkpt lat="43.69213790371567" lon="12.134209267880715"><ele>866.0</ele><time>2026-04-18T09:41:56Z</time></trkpt><trkpt lat="43.69219641771561" lon="12.134410696108995"><ele>866.0</ele><time>2026-04-18T09:41:57Z</time></trkpt><trkpt lat="43.69227388165998" lon="12.134611374710241"><ele>866.0</ele><time>2026-04-18T09:41:58Z</time></trkpt><trkpt lat="43.69238590476176" lon="12.134770574010894"><ele>866.0</ele><time>2026-04-18T09:41:59Z</time></trkpt><trkpt lat="43.69258645115121" lon="12.13479434170654"><ele>866.0</ele><time>2026-04-18T09:42:00Z</time></trkpt><trkpt lat="43.692756464086905" lon="12.134878609582477"><ele>866.0</ele><time>2026-04-18T09:42:01Z</time></trkpt><trkpt lat="43.69293152334518" lon="12.134982227892417"><ele>863.3333333333334</ele><time>2026-04-18T09:42:02Z</time></trkpt><trkpt lat="43.69310193978226" lon="12.135104107096678"><ele>860.6666666666667</ele><time>2026-04-18T09:42:03Z</time></trkpt><trkpt lat="43.69326000329641" lon="12.135281808350229"><ele>858.0</ele><time>2026-04-18T09:42:04Z</time></trkpt><trkpt lat="43.693435106209066" lon="12.135343302402276"><ele>858.0</ele><time>2026-04-18T09:42:05Z</time></trkpt><trkpt lat="43.69356944393834" lon="12.135420706557905"><ele>858.0</ele><time>2026-04-18T09:42:06Z</time></trkpt><trkpt lat="43.69365764321263" lon="12.13554209966534"><ele>858.0</ele><time>2026-04-18T09:42:07Z</time></trkpt><trkpt lat="43.69373322117262" lon="12.13571382195954"><ele>858.0</ele><time>2026-04-18T09:42:08Z</time></trkpt><trkpt lat="43.69384840846758" lon="12.135883487954791"><ele>857.6666666666667</ele><time>2026-04-18T09:42:09Z</time></trkpt><trkpt lat="43.69400821650746" lon="12.135963103168544"><ele>857.3333333333334</ele><time>2026-04-18T09:42:10Z</time></trkpt><trkpt lat="43.69420179995533" lon="12.13591744104525"><ele>857.0</ele><time>2026-04-18T09:42:11Z</time></trkpt><trkpt lat="43.69437509250615" lon="12.135938428646487"><ele>853.0</ele><time>2026-04-18T09:42:12Z</time></trkpt><trkpt lat="43.69452138666264" lon="12.136018657882548"><ele>849.0</ele><time>2026-04-18T09:42:13Z</time></trkpt><trkpt lat="43.69466970285406" lon="12.136159968422765"><ele>845.0</ele><time>2026-04-18T09:42:14Z</time></trkpt><trkpt lat="43.69484516374598" lon="12.136310273608302"><ele>845.0</ele><time>2026-04-18T09:42:15Z</time></trkpt><trkpt lat="43.69504052813705" lon="12.136408787557755"><ele>845.0</ele><time>2026-04-18T09:42:16Z</time></trkpt><trkpt lat="43.695244750446875" lon="12.13642258622363"><ele>845.0</ele><time>2026-04-18T09:42:17Z</time></trkpt><trkpt lat="43.69545602763897" lon="12.136480133133954"><ele>843.5</ele><time>2026-04-18T09:42:18Z</time></trkpt><trkpt lat="43.69567848075501" lon="12.136519819185112"><ele>842.0</ele><time>2026-04-18T09:42:19Z</time></trkpt><trkpt lat="43.695904928545446" lon="12.136560528618443"><ele>841.3333333333334</ele><time>2026-04-18T09:42:20Z</time></trkpt><trkpt lat="43.69612358651611" lon="12.136605334135158"><ele>840.6666666666667</ele><time>2026-04-18T09:42:21Z</time></trkpt><trkpt lat="43.696333007554315" lon="12.136651484890542"><ele>840.0</ele><time>2026-04-18T09:42:22Z</time></trkpt><trkpt lat="43.69651610811363" lon="12.136727478268217"><ele>840.0</ele><time>2026-04-18T09:42:22.999Z</time></trkpt><trkpt lat="43.696684620566" lon="12.13684572471422"><ele>840.0</ele><time>2026-04-18T09:42:23.999Z</time></trkpt><trkpt lat="43.6968574682809" lon="12.136954230377702"><ele>840.0</ele><time>2026-04-18T09:42:24.999Z</time></trkpt><trkpt lat="43.69704028170566" lon="12.136990704180436"><ele>837.6666666666667</ele><time>2026-04-18T09:42:25.999Z</time></trkpt><trkpt lat="43.697235781829924" lon="12.137018990710347"><ele>835.3333333333334</ele><time>2026-04-18T09:42:26.999Z</time></trkpt><trkpt lat="43.69745424560029" lon="12.13696778300873"><ele>833.0</ele><time>2026-04-18T09:42:27.999Z</time></trkpt><trkpt lat="43.69767745197223" lon="12.13692769043823"><ele>831.0</ele><time>2026-04-18T09:42:28.999Z</time></trkpt><trkpt lat="43.69788798676521" lon="12.136915146233628"><ele>829.0</ele><time>2026-04-18T09:42:29.999Z</time></trkpt><trkpt lat="43.69809318867047" lon="12.136926334644372"><ele>827.0</ele><time>2026-04-18T09:42:30.999Z</time></trkpt><trkpt lat="43.69826244630604" lon="12.13699305727332"><ele>827.0</ele><time>2026-04-18T09:42:31.999Z</time></trkpt><trkpt lat="43.698414862995385" lon="12.137108856217994"><ele>827.0</ele><time>2026-04-18T09:42:32.999Z</time></trkpt><trkpt lat="43.69853098463498" lon="12.13726108024127"><ele>827.0</ele><time>2026-04-18T09:42:33.999Z</time></trkpt><trkpt lat="43.69863190485349" lon="12.137452950625667"><ele>830.6666666666667</ele><time>2026-04-18T09:42:34.999Z</time></trkpt><trkpt lat="43.69871672147242" lon="12.137683216176962"><ele>834.3333333333333</ele><time>2026-04-18T09:42:35.999Z</time></trkpt><trkpt lat="43.69877614041464" lon="12.137924079003925"><ele>838.0</ele><time>2026-04-18T09:42:36.999Z</time></trkpt><trkpt lat="43.69880709144011" lon="12.138164811396614"><ele>837.6666666666666</ele><time>2026-04-18T09:42:37.999Z</time></trkpt><trkpt lat="43.69883856533102" lon="12.138398894909072"><ele>837.3333333333333</ele><time>2026-04-18T09:42:38.999Z</time></trkpt><trkpt lat="43.69892716460345" lon="12.138609458988578"><ele>837.0</ele><time>2026-04-18T09:42:39.999Z</time></trkpt><trkpt lat="43.69908211748306" lon="12.138753880284005"><ele>837.0</ele><time>2026-04-18T09:42:40.999Z</time></trkpt><trkpt lat="43.69927337009948" lon="12.13878720134235"><ele>837.0</ele><time>2026-04-18T09:42:41.999Z</time></trkpt><trkpt lat="43.69947149139088" lon="12.138770186839038"><ele>837.0</ele><time>2026-04-18T09:42:42.999Z</time></trkpt><trkpt lat="43.69967470354056" lon="12.138712751102734"><ele>836.5</ele><time>2026-04-18T09:42:43.999Z</time></trkpt><trkpt lat="43.699890905389545" lon="12.138726132221944"><ele>836.0</ele><time>2026-04-18T09:42:44.999Z</time></trkpt><trkpt lat="43.70012387734747" lon="12.138757775714675"><ele>834.0</ele><time>2026-04-18T09:42:45.999Z</time></trkpt><trkpt lat="43.70037632444444" lon="12.138775823160676"><ele>832.0</ele><time>2026-04-18T09:42:46.999Z</time></trkpt><trkpt lat="43.70063425559049" lon="12.13875696511119"><ele>832.0</ele><time>2026-04-18T09:42:47.999Z</time></trkpt><trkpt lat="43.70089219957719" lon="12.138731977418736"><ele>832.0</ele><time>2026-04-18T09:42:48.999Z</time></trkpt><trkpt lat="43.701140666035116" lon="12.138708469313025"><ele>834.5</ele><time>2026-04-18T09:42:49.999Z</time></trkpt><trkpt lat="43.7013818715554" lon="12.138686191006936"><ele>837.0</ele><time>2026-04-18T09:42:50.999Z</time></trkpt><trkpt lat="43.70162542675753" lon="12.138663695804434"><ele>837.0</ele><time>2026-04-18T09:42:51.999Z</time></trkpt><trkpt lat="43.70186447268581" lon="12.138641179274725"><ele>837.0</ele><time>2026-04-18T09:42:52.999Z</time></trkpt><trkpt lat="43.702092717254686" lon="12.138630546469903"><ele>838.3333333333333</ele><time>2026-04-18T09:42:53.999Z</time></trkpt><trkpt lat="43.702303235367154" lon="12.138640282435675"><ele>839.6666666666666</ele><time>2026-04-18T09:42:54.999Z</time></trkpt><trkpt lat="43.70249705078742" lon="12.138658384980495"><ele>841.0</ele><time>2026-04-18T09:42:56Z</time></trkpt><trkpt lat="43.70267643196715" lon="12.138674988242483"><ele>839.5</ele><time>2026-04-18T09:42:57Z</time></trkpt><trkpt lat="43.70283399047876" lon="12.138685548364746"><ele>838.0</ele><time>2026-04-18T09:42:58Z</time></trkpt><trkpt lat="43.70298142101631" lon="12.138679208928504"><ele>836.5</ele><time>2026-04-18T09:42:59Z</time></trkpt><trkpt lat="43.70310906373243" lon="12.138634609125068"><ele>835.0</ele><time>2026-04-18T09:43:00Z</time></trkpt><trkpt lat="43.70321588694591" lon="12.138607170105963"><ele>835.0</ele><time>2026-04-18T09:43:01Z</time></trkpt><trkpt lat="43.703312357165764" lon="12.138585412997593"><ele>835.0</ele><time>2026-04-18T09:43:02Z</time></trkpt><trkpt lat="43.703400587857566" lon="12.138577323948477"><ele>835.0</ele><time>2026-04-18T09:43:03Z</time></trkpt><trkpt lat="43.70347394920529" lon="12.138576709078741"><ele>835.0</ele><time>2026-04-18T09:43:04Z</time></trkpt><trkpt lat="43.703572864379815" lon="12.138603166392276"><ele>835.0</ele><time>2026-04-18T09:43:06Z</time></trkpt><trkpt lat="43.703587518157406" lon="12.138455170826854"><ele>834.9999999999999</ele><time>2026-04-18T09:43:08Z</time></trkpt><trkpt lat="43.703523300174815" lon="12.138395137736618"><ele>835.0</ele><time>2026-04-18T09:43:10Z</time></trkpt><trkpt lat="43.70346035035277" lon="12.138464987728725"><ele>835.0</ele><time>2026-04-18T09:43:13Z</time></trkpt><trkpt lat="43.70338737157013" lon="12.138447223181755"><ele>835.0</ele><time>2026-04-18T10:06:54Z</time></trkpt><trkpt lat="43.7034709891777" lon="12.138460598745038"><ele>834.9999999999999</ele><time>2026-04-18T10:09:19Z</time></trkpt><trkpt lat="43.703473581022266" lon="12.138356712814355"><ele>835.0</ele><time>2026-04-18T10:09:47Z</time></trkpt><trkpt lat="43.70346951818174" lon="12.138266322190969"><ele>835.0</ele><time>2026-04-18T10:11:10Z</time></trkpt><trkpt lat="43.70349604873123" lon="12.138184616165582"><ele>835.0</ele><time>2026-04-18T10:11:14Z</time></trkpt><trkpt lat="43.70352140009046" lon="12.13809062693715"><ele>835.0</ele><time>2026-04-18T10:11:17.046Z</time></trkpt><trkpt lat="43.70345045218989" lon="12.138375336341335"><ele>835.0</ele><time>2026-04-18T10:11:36.529Z</time></trkpt><trkpt lat="43.70342330989045" lon="12.13845544861066"><ele>835.0</ele><time>2026-04-18T10:12:05.999Z</time></trkpt><trkpt lat="43.7033241679055" lon="12.138443076966956"><ele>835.0</ele><time>2026-04-18T10:13:14Z</time></trkpt><trkpt lat="43.703331725119384" lon="12.13855337694132"><ele>835.0</ele><time>2026-04-18T10:13:21Z</time></trkpt><trkpt lat="43.70344803152838" lon="12.138603861862329"><ele>835.0</ele><time>2026-04-18T10:13:23Z</time></trkpt><trkpt lat="43.703528647838496" lon="12.138588998458541"><ele>835.0</ele><time>2026-04-18T10:13:24Z</time></trkpt><trkpt lat="43.70362789463453" lon="12.138575598004566"><ele>835.0</ele><time>2026-04-18T10:13:25Z</time></trkpt><trkpt lat="43.70374232858878" lon="12.138575740494533"><ele>834.0</ele><time>2026-04-18T10:13:26Z</time></trkpt><trkpt lat="43.703867100890875" lon="12.138582476657808"><ele>833.0</ele><time>2026-04-18T10:13:27Z</time></trkpt><trkpt lat="43.70400343547527" lon="12.138589881548318"><ele>832.0</ele><time>2026-04-18T10:13:28Z</time></trkpt><trkpt lat="43.7041539281962" lon="12.138596540895463"><ele>831.0</ele><time>2026-04-18T10:13:29Z</time></trkpt><trkpt lat="43.70430215228193" lon="12.138606300590007"><ele>835.25</ele><time>2026-04-18T10:13:30Z</time></trkpt><trkpt lat="43.70443228158304" lon="12.138619542536688"><ele>839.5</ele><time>2026-04-18T10:13:31Z</time></trkpt><trkpt lat="43.704542862680704" lon="12.138639090580169"><ele>843.75</ele><time>2026-04-18T10:13:32Z</time></trkpt><trkpt lat="43.704642798556605" lon="12.138678215595213"><ele>848.0</ele><time>2026-04-18T10:13:33Z</time></trkpt><trkpt lat="43.70474137546979" lon="12.138741818827052"><ele>848.0</ele><time>2026-04-18T10:13:34Z</time></trkpt><trkpt lat="43.704828231802125" lon="12.13883165464098"><ele>848.0</ele><time>2026-04-18T10:13:35Z</time></trkpt><trkpt lat="43.70490243137267" lon="12.138928171472578"><ele>848.0</ele><time>2026-04-18T10:13:36Z</time></trkpt><trkpt lat="43.70497985812559" lon="12.139018546119088"><ele>848.0</ele><time>2026-04-18T10:13:37Z</time></trkpt><trkpt lat="43.705038592859246" lon="12.139130554665806"><ele>848.0</ele><time>2026-04-18T10:13:38Z</time></trkpt><trkpt lat="43.7051121649771" lon="12.139215862026502"><ele>846.5999999999999</ele><time>2026-04-18T10:13:39Z</time></trkpt><trkpt lat="43.70517566191126" lon="12.13929249081242"><ele>845.1999999999999</ele><time>2026-04-18T10:13:40Z</time></trkpt><trkpt lat="43.70521840990911" lon="12.13939481938407"><ele>843.8</ele><time>2026-04-18T10:13:41Z</time></trkpt><trkpt lat="43.70525243824948" lon="12.139513017044115"><ele>842.4</ele><time>2026-04-18T10:13:42Z</time></trkpt><trkpt lat="43.70522815115615" lon="12.13965110843767"><ele>841.0</ele><time>2026-04-18T10:13:43Z</time></trkpt><trkpt lat="43.70515968085966" lon="12.1397611294152"><ele>841.0</ele><time>2026-04-18T10:13:44Z</time></trkpt><trkpt lat="43.70507050145749" lon="12.139847546343633"><ele>841.0</ele><time>2026-04-18T10:13:45Z</time></trkpt><trkpt lat="43.70497571655221" lon="12.139920667595838"><ele>841.0</ele><time>2026-04-18T10:13:46Z</time></trkpt><trkpt lat="43.70487616247272" lon="12.13998641542374"><ele>841.0</ele><time>2026-04-18T10:13:47Z</time></trkpt><trkpt lat="43.70476493080459" lon="12.140028953761947"><ele>841.0</ele><time>2026-04-18T10:13:48Z</time></trkpt><trkpt lat="43.70464448829297" lon="12.140039460589499"><ele>842.5</ele><time>2026-04-18T10:13:49Z</time></trkpt><trkpt lat="43.704519927427114" lon="12.140045048433382"><ele>844.0</ele><time>2026-04-18T10:13:50Z</time></trkpt><trkpt lat="43.704394523330656" lon="12.140069927193094"><ele>845.5</ele><time>2026-04-18T10:13:51Z</time></trkpt><trkpt lat="43.70427524234403" lon="12.140148347632328"><ele>847.0</ele><time>2026-04-18T10:13:52Z</time></trkpt><trkpt lat="43.704163959356976" lon="12.140244281188476"><ele>844.5</ele><time>2026-04-18T10:13:53Z</time></trkpt><trkpt lat="43.704068662802456" lon="12.140340229119262"><ele>842.0</ele><time>2026-04-18T10:13:54Z</time></trkpt><trkpt lat="43.70399715582399" lon="12.140454500887252"><ele>839.5</ele><time>2026-04-18T10:13:55Z</time></trkpt><trkpt lat="43.70396304875583" lon="12.140599434012813"><ele>837.0</ele><time>2026-04-18T10:13:56Z</time></trkpt><trkpt lat="43.7039715800597" lon="12.140757713689581"><ele>837.0</ele><time>2026-04-18T10:13:57Z</time></trkpt><trkpt lat="43.703996452570976" lon="12.140914712224271"><ele>837.0</ele><time>2026-04-18T10:13:58Z</time></trkpt><trkpt lat="43.70405841906888" lon="12.141062832644204"><ele>837.0</ele><time>2026-04-18T10:13:59Z</time></trkpt><trkpt lat="43.70415691310946" lon="12.141161943544402"><ele>837.0</ele><time>2026-04-18T10:14:00Z</time></trkpt><trkpt lat="43.704245519008374" lon="12.141284308889311"><ele>837.0</ele><time>2026-04-18T10:14:01Z</time></trkpt><trkpt lat="43.7043414342108" lon="12.141381118335289"><ele>837.0</ele><time>2026-04-18T10:14:02Z</time></trkpt><trkpt lat="43.7044299854361" lon="12.141485460193463"><ele>837.0</ele><time>2026-04-18T10:14:03Z</time></trkpt><trkpt lat="43.70450952345084" lon="12.141598837572289"><ele>837.0</ele><time>2026-04-18T10:14:04Z</time></trkpt><trkpt lat="43.704585885713946" lon="12.141716526336973"><ele>839.8</ele><time>2026-04-18T10:14:05Z</time></trkpt><trkpt lat="43.70464932221675" lon="12.141829784924399"><ele>842.6</ele><time>2026-04-18T10:14:06Z</time></trkpt><trkpt lat="43.70469652955404" lon="12.141937585620118"><ele>845.4</ele><time>2026-04-18T10:14:07Z</time></trkpt><trkpt lat="43.70471951246698" lon="12.142061126677566"><ele>848.1999999999999</ele><time>2026-04-18T10:14:08Z</time></trkpt><trkpt lat="43.70468677414447" lon="12.142200921069783"><ele>851.0</ele><time>2026-04-18T10:14:09Z</time></trkpt><trkpt lat="43.70461242450803" lon="12.142325629947852"><ele>851.5</ele><time>2026-04-18T10:14:10Z</time></trkpt><trkpt lat="43.70452672660232" lon="12.142429454775318"><ele>852.0</ele><time>2026-04-18T10:14:11Z</time></trkpt><trkpt lat="43.70444047857184" lon="12.142549658116963"><ele>852.5</ele><time>2026-04-18T10:14:12Z</time></trkpt><trkpt lat="43.704367097559135" lon="12.142693425194015"><ele>853.0</ele><time>2026-04-18T10:14:13Z</time></trkpt><trkpt lat="43.7043011674171" lon="12.14284382648518"><ele>846.0</ele><time>2026-04-18T10:14:14Z</time></trkpt><trkpt lat="43.70424328455062" lon="12.14299253913933"><ele>839.0</ele><time>2026-04-18T10:14:15Z</time></trkpt><trkpt lat="43.704201583259525" lon="12.143146866633534"><ele>832.0</ele><time>2026-04-18T10:14:16Z</time></trkpt><trkpt lat="43.70419580988649" lon="12.143304373220381"><ele>825.0</ele><time>2026-04-18T10:14:17Z</time></trkpt><trkpt lat="43.70424214867317" lon="12.143435721522948"><ele>825.0</ele><time>2026-04-18T10:14:18Z</time></trkpt><trkpt lat="43.70430828567316" lon="12.143541228942338"><ele>825.0</ele><time>2026-04-18T10:14:19Z</time></trkpt><trkpt lat="43.70441686859904" lon="12.143626342127003"><ele>825.0</ele><time>2026-04-18T10:14:20Z</time></trkpt><trkpt lat="43.70452594733101" lon="12.143708143337474"><ele>825.0</ele><time>2026-04-18T10:14:21Z</time></trkpt><trkpt lat="43.70463867852691" lon="12.143786131795935"><ele>830.0</ele><time>2026-04-18T10:14:22Z</time></trkpt><trkpt lat="43.704709098646774" lon="12.143877854348307"><ele>835.0</ele><time>2026-04-18T10:14:23Z</time></trkpt><trkpt lat="43.704768015566124" lon="12.14405158079184"><ele>840.0</ele><time>2026-04-18T10:14:24Z</time></trkpt><trkpt lat="43.70477932332171" lon="12.144235750466446"><ele>845.0</ele><time>2026-04-18T10:14:25Z</time></trkpt><trkpt lat="43.70477358905203" lon="12.144432210382309"><ele>845.0</ele><time>2026-04-18T10:14:26Z</time></trkpt><trkpt lat="43.70476666672155" lon="12.144644296393336"><ele>845.0</ele><time>2026-04-18T10:14:27Z</time></trkpt><trkpt lat="43.70476193914477" lon="12.144856066483037"><ele>845.0</ele><time>2026-04-18T10:14:28Z</time></trkpt><trkpt lat="43.70475781100971" lon="12.145073463241605"><ele>844.6666666666667</ele><time>2026-04-18T10:14:29Z</time></trkpt><trkpt lat="43.704753639845464" lon="12.145313413066868"><ele>844.3333333333333</ele><time>2026-04-18T10:14:30Z</time></trkpt><trkpt lat="43.704749425635725" lon="12.145555838233287"><ele>844.0</ele><time>2026-04-18T10:14:31Z</time></trkpt><trkpt lat="43.70474551594686" lon="12.145790547566172"><ele>842.0</ele><time>2026-04-18T10:14:32Z</time></trkpt><trkpt lat="43.7047417439704" lon="12.14601969540738"><ele>840.0</ele><time>2026-04-18T10:14:33Z</time></trkpt><trkpt lat="43.704755210147276" lon="12.146227815447144"><ele>838.0</ele><time>2026-04-18T10:14:34Z</time></trkpt><trkpt lat="43.704812778749194" lon="12.146432135868668"><ele>834.3333333333333</ele><time>2026-04-18T10:14:35Z</time></trkpt><trkpt lat="43.704892024885865" lon="12.14662473313322"><ele>830.6666666666667</ele><time>2026-04-18T10:14:36Z</time></trkpt><trkpt lat="43.70499245747385" lon="12.14680362134843"><ele>827.0</ele><time>2026-04-18T10:14:37Z</time></trkpt><trkpt lat="43.70507818819285" lon="12.146999169126925"><ele>827.0</ele><time>2026-04-18T10:14:38Z</time></trkpt><trkpt lat="43.70514805732776" lon="12.147197101363608"><ele>827.0</ele><time>2026-04-18T10:14:39Z</time></trkpt><trkpt lat="43.70517374241593" lon="12.147395308172275"><ele>827.0</ele><time>2026-04-18T10:14:40Z</time></trkpt><trkpt lat="43.70515594395504" lon="12.14758775263626"><ele>827.0</ele><time>2026-04-18T10:14:41Z</time></trkpt><trkpt lat="43.70515170414969" lon="12.147800090278437"><ele>826.3333333333334</ele><time>2026-04-18T10:14:42Z</time></trkpt><trkpt lat="43.7052037417065" lon="12.147995065546926"><ele>825.6666666666667</ele><time>2026-04-18T10:14:43Z</time></trkpt><trkpt lat="43.70521456967432" lon="12.148189917271708"><ele>825.0</ele><time>2026-04-18T10:14:44Z</time></trkpt><trkpt lat="43.70542827168832" lon="12.148278709666153"><ele>825.0</ele><time>2026-04-18T10:14:45Z</time></trkpt><trkpt lat="43.70554679337165" lon="12.148413021118001"><ele>825.0</ele><time>2026-04-18T10:14:46Z</time></trkpt><trkpt lat="43.70554438272339" lon="12.148617735565011"><ele>825.0</ele><time>2026-04-18T10:14:47Z</time></trkpt><trkpt lat="43.7055263315352" lon="12.148817937527825"><ele>825.0</ele><time>2026-04-18T10:14:48Z</time></trkpt><trkpt lat="43.70543388491106" lon="12.148970360346867"><ele>823.6666666666667</ele><time>2026-04-18T10:14:49Z</time></trkpt><trkpt lat="43.7053092248492" lon="12.149091460317138"><ele>822.3333333333334</ele><time>2026-04-18T10:14:50Z</time></trkpt><trkpt lat="43.705182351394704" lon="12.149222676131181"><ele>821.0</ele><time>2026-04-18T10:14:51Z</time></trkpt><trkpt lat="43.705067186126364" lon="12.14933680803716"><ele>817.0</ele><time>2026-04-18T10:14:52Z</time></trkpt><trkpt lat="43.70498535223269" lon="12.14948896009373"><ele>813.0</ele><time>2026-04-18T10:14:53Z</time></trkpt><trkpt lat="43.7049987708695" lon="12.14965567140176"><ele>809.0</ele><time>2026-04-18T10:14:54Z</time></trkpt><trkpt lat="43.70508194894601" lon="12.149793524018472"><ele>805.0</ele><time>2026-04-18T10:14:55Z</time></trkpt><trkpt lat="43.70521041468532" lon="12.149885306295683"><ele>808.3333333333333</ele><time>2026-04-18T10:14:56Z</time></trkpt><trkpt lat="43.705358823936216" lon="12.149899073818627"><ele>811.6666666666667</ele><time>2026-04-18T10:14:57Z</time></trkpt><trkpt lat="43.70550271825247" lon="12.149942560566005"><ele>815.0</ele><time>2026-04-18T10:14:58Z</time></trkpt><trkpt lat="43.70567090616434" lon="12.150025494705185"><ele>815.0</ele><time>2026-04-18T10:14:59Z</time></trkpt><trkpt lat="43.70580701496752" lon="12.150190216564704"><ele>815.0</ele><time>2026-04-18T10:15:00Z</time></trkpt><trkpt lat="43.70595076706163" lon="12.15032697936246"><ele>815.0</ele><time>2026-04-18T10:15:01Z</time></trkpt><trkpt lat="43.70607883645953" lon="12.150464180108562"><ele>814.25</ele><time>2026-04-18T10:15:02Z</time></trkpt><trkpt lat="43.706225408372454" lon="12.150542241157225"><ele>813.5</ele><time>2026-04-18T10:15:03Z</time></trkpt><trkpt lat="43.70635846149276" lon="12.150506111849916"><ele>812.75</ele><time>2026-04-18T10:15:04Z</time></trkpt><trkpt lat="43.70646240402937" lon="12.150374571236402"><ele>812.0</ele><time>2026-04-18T10:15:05Z</time></trkpt><trkpt lat="43.70656499130353" lon="12.15022449803585"><ele>812.0</ele><time>2026-04-18T10:15:06Z</time></trkpt><trkpt lat="43.706666629361244" lon="12.150064778231966"><ele>812.0</ele><time>2026-04-18T10:15:07Z</time></trkpt><trkpt lat="43.7068066869279" lon="12.149931244554855"><ele>812.0</ele><time>2026-04-18T10:15:08Z</time></trkpt><trkpt lat="43.706970144830294" lon="12.149918748492032"><ele>812.0</ele><time>2026-04-18T10:15:09Z</time></trkpt><trkpt lat="43.70708984794984" lon="12.1500216533212"><ele>812.0</ele><time>2026-04-18T10:15:10Z</time></trkpt><trkpt lat="43.70720221241805" lon="12.150158590160983"><ele>812.0</ele><time>2026-04-18T10:15:11Z</time></trkpt><trkpt lat="43.70726469971788" lon="12.150294743744"><ele>812.0</ele><time>2026-04-18T10:15:12Z</time></trkpt><trkpt lat="43.70730955538977" lon="12.150489663457435"><ele>808.6666666666667</ele><time>2026-04-18T10:15:13Z</time></trkpt><trkpt lat="43.70734820303314" lon="12.150726528525938"><ele>805.3333333333333</ele><time>2026-04-18T10:15:14Z</time></trkpt><trkpt lat="43.70738954179249" lon="12.150957896188245"><ele>802.0</ele><time>2026-04-18T10:15:15Z</time></trkpt><trkpt lat="43.70745994669517" lon="12.151184070947313"><ele>802.0</ele><time>2026-04-18T10:15:16Z</time></trkpt><trkpt lat="43.70756911659408" lon="12.151366800571108"><ele>802.0</ele><time>2026-04-18T10:15:17Z</time></trkpt><trkpt lat="43.70772632171043" lon="12.151454536170853"><ele>802.0</ele><time>2026-04-18T10:15:18Z</time></trkpt><trkpt lat="43.70788473400856" lon="12.151472122309043"><ele>806.0</ele><time>2026-04-18T10:15:19Z</time></trkpt><trkpt lat="43.70804633011828" lon="12.151413606669578"><ele>810.0</ele><time>2026-04-18T10:15:20Z</time></trkpt><trkpt lat="43.708214481896746" lon="12.151375125322526"><ele>814.0</ele><time>2026-04-18T10:15:21Z</time></trkpt><trkpt lat="43.70836552912051" lon="12.151405786997271"><ele>814.0</ele><time>2026-04-18T10:15:22Z</time></trkpt><trkpt lat="43.70851388503862" lon="12.151495227816357"><ele>814.0</ele><time>2026-04-18T10:15:23Z</time></trkpt><trkpt lat="43.70875648397461" lon="12.151716488832317"><ele>814.25</ele><time>2026-04-18T10:15:25Z</time></trkpt><trkpt lat="43.70882443754029" lon="12.151884858751513"><ele>814.5</ele><time>2026-04-18T10:15:26Z</time></trkpt><trkpt lat="43.70884064308721" lon="12.152091607267211"><ele>814.75</ele><time>2026-04-18T10:15:27Z</time></trkpt><trkpt lat="43.70886096398251" lon="12.152270532326773"><ele>815.0</ele><time>2026-04-18T10:15:28Z</time></trkpt><trkpt lat="43.708884031226866" lon="12.152521656928922"><ele>812.3333333333334</ele><time>2026-04-18T10:15:29Z</time></trkpt><trkpt lat="43.70888676208392" lon="12.152780324921832"><ele>809.6666666666667</ele><time>2026-04-18T10:15:30Z</time></trkpt><trkpt lat="43.7088280306463" lon="12.153011582881103"><ele>807.0</ele><time>2026-04-18T10:15:31Z</time></trkpt><trkpt lat="43.708728197439584" lon="12.153180793640974"><ele>807.0</ele><time>2026-04-18T10:15:32Z</time></trkpt><trkpt lat="43.70864364088529" lon="12.153364935236782"><ele>807.0</ele><time>2026-04-18T10:15:33Z</time></trkpt><trkpt lat="43.70861394211041" lon="12.15354948892035"><ele>807.0</ele><time>2026-04-18T10:15:34Z</time></trkpt><trkpt lat="43.70863769040013" lon="12.153716893829964"><ele>807.0</ele><time>2026-04-18T10:15:35Z</time></trkpt><trkpt lat="43.70872048971797" lon="12.153880644663944"><ele>807.0</ele><time>2026-04-18T10:15:36Z</time></trkpt><trkpt lat="43.708834188298" lon="12.154026048322443"><ele>807.0</ele><time>2026-04-18T10:15:37Z</time></trkpt><trkpt lat="43.70896251736506" lon="12.15418453340692"><ele>807.0</ele><time>2026-04-18T10:15:38Z</time></trkpt><trkpt lat="43.70907351158768" lon="12.15437208359843"><ele>804.6666666666667</ele><time>2026-04-18T10:15:39Z</time></trkpt><trkpt lat="43.70911550378327" lon="12.154606730706488"><ele>802.3333333333334</ele><time>2026-04-18T10:15:40Z</time></trkpt><trkpt lat="43.70918058499505" lon="12.154876227249677"><ele>800.0</ele><time>2026-04-18T10:15:41Z</time></trkpt><trkpt lat="43.70922213157549" lon="12.155158555808582"><ele>797.0</ele><time>2026-04-18T10:15:42Z</time></trkpt><trkpt lat="43.709267910701904" lon="12.155435491584674"><ele>794.0</ele><time>2026-04-18T10:15:43Z</time></trkpt><trkpt lat="43.70931804915934" lon="12.155720976304865"><ele>791.0</ele><time>2026-04-18T10:15:44Z</time></trkpt><trkpt lat="43.70936810355402" lon="12.156011585299677"><ele>796.3333333333334</ele><time>2026-04-18T10:15:45Z</time></trkpt><trkpt lat="43.70942366250735" lon="12.156305021484979"><ele>801.6666666666667</ele><time>2026-04-18T10:15:46Z</time></trkpt><trkpt lat="43.70949362867393" lon="12.156581108270968"><ele>807.0</ele><time>2026-04-18T10:15:47Z</time></trkpt><trkpt lat="43.709574182208414" lon="12.156819276493248"><ele>807.0</ele><time>2026-04-18T10:15:48Z</time></trkpt><trkpt lat="43.709635235691394" lon="12.157045938347107"><ele>807.0</ele><time>2026-04-18T10:15:49Z</time></trkpt><trkpt lat="43.70964679251539" lon="12.157303663790623"><ele>807.0</ele><time>2026-04-18T10:15:50Z</time></trkpt><trkpt lat="43.70960738262032" lon="12.157563557304522"><ele>805.6666666666667</ele><time>2026-04-18T10:15:51Z</time></trkpt><trkpt lat="43.70955535718673" lon="12.157820058989431"><ele>804.3333333333334</ele><time>2026-04-18T10:15:52Z</time></trkpt><trkpt lat="43.70951990032206" lon="12.158098744129925"><ele>803.0</ele><time>2026-04-18T10:15:53Z</time></trkpt><trkpt lat="43.709504165065994" lon="12.158374384843201"><ele>800.3333333333334</ele><time>2026-04-18T10:15:54Z</time></trkpt><trkpt lat="43.70949491287379" lon="12.158665906324359"><ele>797.6666666666667</ele><time>2026-04-18T10:15:55Z</time></trkpt><trkpt lat="43.70948140365973" lon="12.158934582356551"><ele>795.0</ele><time>2026-04-18T10:15:56Z</time></trkpt><trkpt lat="43.70946731483579" lon="12.159211511255885"><ele>793.3333333333333</ele><time>2026-04-18T10:15:57Z</time></trkpt><trkpt lat="43.70945681797897" lon="12.159456234131955"><ele>791.6666666666666</ele><time>2026-04-18T10:15:58Z</time></trkpt><trkpt lat="43.70945081032407" lon="12.15967975129836"><ele>790.0</ele><time>2026-04-18T10:15:59Z</time></trkpt><trkpt lat="43.70947064939392" lon="12.15987495708374"><ele>787.6666666666666</ele><time>2026-04-18T10:16:00Z</time></trkpt><trkpt lat="43.70954183029137" lon="12.160034669614282"><ele>785.3333333333333</ele><time>2026-04-18T10:16:01Z</time></trkpt><trkpt lat="43.70966308343928" lon="12.160166290243021"><ele>783.0</ele><time>2026-04-18T10:16:02Z</time></trkpt><trkpt lat="43.709799769393534" lon="12.160303734562564"><ele>783.0</ele><time>2026-04-18T10:16:03Z</time></trkpt><trkpt lat="43.70995519478557" lon="12.160421682554386"><ele>783.0</ele><time>2026-04-18T10:16:04Z</time></trkpt><trkpt lat="43.71012822492685" lon="12.16051260460063"><ele>783.0</ele><time>2026-04-18T10:16:05Z</time></trkpt><trkpt lat="43.71031141947912" lon="12.160555563294539"><ele>781.5</ele><time>2026-04-18T10:16:06Z</time></trkpt><trkpt lat="43.71047503906425" lon="12.160563967571212"><ele>780.0</ele><time>2026-04-18T10:16:07Z</time></trkpt><trkpt lat="43.710609692032776" lon="12.16061670689467"><ele>778.5</ele><time>2026-04-18T10:16:08Z</time></trkpt><trkpt lat="43.71070949178801" lon="12.16071885378733"><ele>777.0</ele><time>2026-04-18T10:16:09Z</time></trkpt><trkpt lat="43.71079714366091" lon="12.16087011621947"><ele>777.0</ele><time>2026-04-18T10:16:10Z</time></trkpt><trkpt lat="43.710872871855926" lon="12.16108535331243"><ele>777.0</ele><time>2026-04-18T10:16:11Z</time></trkpt><trkpt lat="43.71096085278865" lon="12.161300601078185"><ele>777.0</ele><time>2026-04-18T10:16:12Z</time></trkpt><trkpt lat="43.71103163574713" lon="12.161514673931414"><ele>778.3333333333333</ele><time>2026-04-18T10:16:13Z</time></trkpt><trkpt lat="43.711131105679634" lon="12.161686990365512"><ele>779.6666666666666</ele><time>2026-04-18T10:16:14Z</time></trkpt><trkpt lat="43.71124927923969" lon="12.161841293744523"><ele>781.0</ele><time>2026-04-18T10:16:15Z</time></trkpt><trkpt lat="43.71140097726273" lon="12.16192389660299"><ele>781.0</ele><time>2026-04-18T10:16:16Z</time></trkpt><trkpt lat="43.711564907471356" lon="12.16191965191926"><ele>781.0</ele><time>2026-04-18T10:16:17Z</time></trkpt><trkpt lat="43.71171322868646" lon="12.161906741196185"><ele>781.0</ele><time>2026-04-18T10:16:18Z</time></trkpt><trkpt lat="43.711853039249384" lon="12.161896250451914"><ele>784.0</ele><time>2026-04-18T10:16:19Z</time></trkpt><trkpt lat="43.71198938222819" lon="12.161927100094898"><ele>787.0</ele><time>2026-04-18T10:16:20Z</time></trkpt><trkpt lat="43.71211078817239" lon="12.162005474047788"><ele>790.0</ele><time>2026-04-18T10:16:21Z</time></trkpt><trkpt lat="43.71219636742006" lon="12.162141103736785"><ele>793.0</ele><time>2026-04-18T10:16:22Z</time></trkpt><trkpt lat="43.71229099696426" lon="12.162310668767901"><ele>790.0</ele><time>2026-04-18T10:16:23Z</time></trkpt><trkpt lat="43.712369793518555" lon="12.162484914189584"><ele>787.0</ele><time>2026-04-18T10:16:24Z</time></trkpt><trkpt lat="43.71242756616236" lon="12.162669629248526"><ele>784.0</ele><time>2026-04-18T10:16:25Z</time></trkpt><trkpt lat="43.71242168867383" lon="12.162870625526137"><ele>781.0</ele><time>2026-04-18T10:16:26Z</time></trkpt><trkpt lat="43.71237414468538" lon="12.163069047456869"><ele>781.6666666666666</ele><time>2026-04-18T10:16:27Z</time></trkpt><trkpt lat="43.71228883932949" lon="12.16324394299937"><ele>782.3333333333333</ele><time>2026-04-18T10:16:28Z</time></trkpt><trkpt lat="43.71217369343896" lon="12.163378113145999"><ele>783.0</ele><time>2026-04-18T10:16:29Z</time></trkpt><trkpt lat="43.71205000140703" lon="12.163495261418559"><ele>783.0</ele><time>2026-04-18T10:16:30Z</time></trkpt><trkpt lat="43.71193078646946" lon="12.163624065430026"><ele>783.0</ele><time>2026-04-18T10:16:31Z</time></trkpt><trkpt lat="43.71182700143001" lon="12.163778581297098"><ele>783.0</ele><time>2026-04-18T10:16:32Z</time></trkpt><trkpt lat="43.71174031640712" lon="12.163966569893914"><ele>781.6666666666667</ele><time>2026-04-18T10:16:33Z</time></trkpt><trkpt lat="43.71165581021823" lon="12.164171028994037"><ele>780.3333333333334</ele><time>2026-04-18T10:16:34Z</time></trkpt><trkpt lat="43.71156682218358" lon="12.164380429059467"><ele>779.0</ele><time>2026-04-18T10:16:35Z</time></trkpt><trkpt lat="43.71147271420304" lon="12.164592021451028"><ele>779.0</ele><time>2026-04-18T10:16:36Z</time></trkpt><trkpt lat="43.71137752150462" lon="12.16480145160019"><ele>779.0</ele><time>2026-04-18T10:16:37Z</time></trkpt><trkpt lat="43.71127931560875" lon="12.165030737678896"><ele>779.0</ele><time>2026-04-18T10:16:38Z</time></trkpt><trkpt lat="43.71118649315358" lon="12.165276730093671"><ele>777.0</ele><time>2026-04-18T10:16:39Z</time></trkpt><trkpt lat="43.71109517843146" lon="12.16552840315472"><ele>775.0</ele><time>2026-04-18T10:16:40Z</time></trkpt><trkpt lat="43.71099976323139" lon="12.16578333953121"><ele>773.0</ele><time>2026-04-18T10:16:41Z</time></trkpt><trkpt lat="43.710903748588606" lon="12.166033618544946"><ele>773.0</ele><time>2026-04-18T10:16:42Z</time></trkpt><trkpt lat="43.7108048270247" lon="12.166289582158623"><ele>773.0</ele><time>2026-04-18T10:16:43Z</time></trkpt><trkpt lat="43.71070726543304" lon="12.166535783962715"><ele>773.0</ele><time>2026-04-18T10:16:44Z</time></trkpt><trkpt lat="43.710604373923346" lon="12.166779622143963"><ele>777.3333333333334</ele><time>2026-04-18T10:16:45Z</time></trkpt><trkpt lat="43.71050252881041" lon="12.167006357975712"><ele>781.6666666666667</ele><time>2026-04-18T10:16:46Z</time></trkpt><trkpt lat="43.710398400370046" lon="12.1672329477131"><ele>786.0</ele><time>2026-04-18T10:16:47Z</time></trkpt><trkpt lat="43.71030355307906" lon="12.167433436413047"><ele>786.0</ele><time>2026-04-18T10:16:48Z</time></trkpt><trkpt lat="43.71021014871654" lon="12.167632219059099"><ele>786.0</ele><time>2026-04-18T10:16:49Z</time></trkpt><trkpt lat="43.7101341585615" lon="12.167846541254473"><ele>786.0</ele><time>2026-04-18T10:16:50Z</time></trkpt><trkpt lat="43.71008455782965" lon="12.168080194273076"><ele>789.0</ele><time>2026-04-18T10:16:51Z</time></trkpt><trkpt lat="43.71005891722333" lon="12.16833683223683"><ele>792.0</ele><time>2026-04-18T10:16:52Z</time></trkpt><trkpt lat="43.71006184151518" lon="12.168596811705946"><ele>795.0</ele><time>2026-04-18T10:16:53Z</time></trkpt><trkpt lat="43.71009238489476" lon="12.168866150306288"><ele>797.0</ele><time>2026-04-18T10:16:54Z</time></trkpt><trkpt lat="43.71013452812108" lon="12.169132768425138"><ele>799.0</ele><time>2026-04-18T10:16:55Z</time></trkpt><trkpt lat="43.71017226051761" lon="12.169402420712206"><ele>801.0</ele><time>2026-04-18T10:16:56Z</time></trkpt><trkpt lat="43.710203426700524" lon="12.169673636223472"><ele>802.0</ele><time>2026-04-18T10:16:57Z</time></trkpt><trkpt lat="43.710234190609356" lon="12.169934748735937"><ele>803.0</ele><time>2026-04-18T10:16:58Z</time></trkpt><trkpt lat="43.71026606812477" lon="12.170197910325172"><ele>804.0</ele><time>2026-04-18T10:16:59Z</time></trkpt><trkpt lat="43.71028813261812" lon="12.170419679698204"><ele>804.0</ele><time>2026-04-18T10:17:00.048Z</time></trkpt><trkpt lat="43.710332556595944" lon="12.17066827313313"><ele>804.0</ele><time>2026-04-18T10:17:01.05Z</time></trkpt><trkpt lat="43.71034055197945" lon="12.170905470323605"><ele>804.0</ele><time>2026-04-18T10:17:02.05Z</time></trkpt><trkpt lat="43.710328416561914" lon="12.171170531432933"><ele>788.0</ele><time>2026-04-18T10:17:03Z</time></trkpt><trkpt lat="43.710236218750524" lon="12.171579558273498"><ele>772.0</ele><time>2026-04-18T10:17:04Z</time></trkpt><trkpt lat="43.71013695325928" lon="12.171847336854382"><ele>772.0</ele><time>2026-04-18T10:17:05Z</time></trkpt><trkpt lat="43.71005481911932" lon="12.17212099568214"><ele>772.0</ele><time>2026-04-18T10:17:06Z</time></trkpt><trkpt lat="43.7100124253644" lon="12.172417101518688"><ele>772.0</ele><time>2026-04-18T10:17:07Z</time></trkpt><trkpt lat="43.71003129404059" lon="12.172713995625742"><ele>770.3333333333333</ele><time>2026-04-18T10:17:08Z</time></trkpt><trkpt lat="43.710101985021716" lon="12.173006579325591"><ele>768.6666666666666</ele><time>2026-04-18T10:17:09Z</time></trkpt><trkpt lat="43.7102157207375" lon="12.173271239349898"><ele>767.0</ele><time>2026-04-18T10:17:10Z</time></trkpt><trkpt lat="43.710353899886485" lon="12.173519423403217"><ele>767.0</ele><time>2026-04-18T10:17:11Z</time></trkpt><trkpt lat="43.710455856497255" lon="12.173762761727541"><ele>767.0</ele><time>2026-04-18T10:17:12Z</time></trkpt><trkpt lat="43.71047936854752" lon="12.174066650481537"><ele>767.0</ele><time>2026-04-18T10:17:13Z</time></trkpt><trkpt lat="43.710507661627766" lon="12.174372662045187"><ele>767.0</ele><time>2026-04-18T10:17:14Z</time></trkpt><trkpt lat="43.710540578597715" lon="12.17466939734494"><ele>767.0</ele><time>2026-04-18T10:17:15Z</time></trkpt><trkpt lat="43.710567026905174" lon="12.174971247818274"><ele>767.0</ele><time>2026-04-18T10:17:16Z</time></trkpt><trkpt lat="43.71059456831039" lon="12.175263603874741"><ele>765.6666666666666</ele><time>2026-04-18T10:17:17Z</time></trkpt><trkpt lat="43.710618081666965" lon="12.17556296884064"><ele>764.3333333333334</ele><time>2026-04-18T10:17:18Z</time></trkpt><trkpt lat="43.710640121755624" lon="12.175859906365616"><ele>763.0</ele><time>2026-04-18T10:17:19Z</time></trkpt><trkpt lat="43.71065756260773" lon="12.176150666025114"><ele>761.3333333333334</ele><time>2026-04-18T10:17:20Z</time></trkpt><trkpt lat="43.71066601945739" lon="12.176412022146419"><ele>759.6666666666666</ele><time>2026-04-18T10:17:21Z</time></trkpt><trkpt lat="43.71065158626582" lon="12.176664688931004"><ele>758.0</ele><time>2026-04-18T10:17:22Z</time></trkpt><trkpt lat="43.71060424406326" lon="12.176903339183994"><ele>754.6666666666666</ele><time>2026-04-18T10:17:23Z</time></trkpt><trkpt lat="43.710519265996645" lon="12.177132634312791"><ele>751.3333333333334</ele><time>2026-04-18T10:17:24Z</time></trkpt><trkpt lat="43.71041688873394" lon="12.177354003344476"><ele>748.0</ele><time>2026-04-18T10:17:25Z</time></trkpt><trkpt lat="43.710315071997464" lon="12.177583404975952"><ele>739.3333333333334</ele><time>2026-04-18T10:17:26Z</time></trkpt><trkpt lat="43.710225465471076" lon="12.177810936832298"><ele>730.6666666666666</ele><time>2026-04-18T10:17:27Z</time></trkpt><trkpt lat="43.71016149405602" lon="12.178054681401596"><ele>722.0</ele><time>2026-04-18T10:17:28Z</time></trkpt><trkpt lat="43.71013279469762" lon="12.178317384773477"><ele>721.6666666666666</ele><time>2026-04-18T10:17:29Z</time></trkpt><trkpt lat="43.71014464504313" lon="12.178587473641867"><ele>721.3333333333334</ele><time>2026-04-18T10:17:30Z</time></trkpt><trkpt lat="43.71018150302407" lon="12.178858898387736"><ele>721.0</ele><time>2026-04-18T10:17:31Z</time></trkpt><trkpt lat="43.71021964557083" lon="12.17912915340726"><ele>721.6666666666667</ele><time>2026-04-18T10:17:32Z</time></trkpt><trkpt lat="43.71024816417549" lon="12.17938940743459"><ele>722.3333333333334</ele><time>2026-04-18T10:17:33Z</time></trkpt><trkpt lat="43.71026091539367" lon="12.17964273219124"><ele>723.0</ele><time>2026-04-18T10:17:34Z</time></trkpt><trkpt lat="43.71024738958202" lon="12.179881967414891"><ele>720.0</ele><time>2026-04-18T10:17:35Z</time></trkpt><trkpt lat="43.71020246684591" lon="12.180114082400621"><ele>717.0</ele><time>2026-04-18T10:17:36Z</time></trkpt><trkpt lat="43.71012632857271" lon="12.180317504576998"><ele>714.0</ele><time>2026-04-18T10:17:37Z</time></trkpt><trkpt lat="43.710048782173686" lon="12.180514372120307"><ele>713.25</ele><time>2026-04-18T10:17:38Z</time></trkpt><trkpt lat="43.70997843676457" lon="12.180703817713178"><ele>712.5</ele><time>2026-04-18T10:17:39Z</time></trkpt><trkpt lat="43.709920646267804" lon="12.180873597318014"><ele>711.75</ele><time>2026-04-18T10:17:40Z</time></trkpt><trkpt lat="43.7098817126402" lon="12.181010806067224"><ele>711.0</ele><time>2026-04-18T10:17:41Z</time></trkpt><trkpt lat="43.70986200445469" lon="12.181120420949735"><ele>711.0</ele><time>2026-04-18T10:17:42Z</time></trkpt><trkpt lat="43.709866774155515" lon="12.181239050537066"><ele>711.0</ele><time>2026-04-18T10:17:43Z</time></trkpt><trkpt lat="43.709885538825716" lon="12.18135651256683"><ele>711.0</ele><time>2026-04-18T10:17:44Z</time></trkpt><trkpt lat="43.70989189563098" lon="12.18148084769319"><ele>711.0</ele><time>2026-04-18T10:17:45Z</time></trkpt><trkpt lat="43.70989653275583" lon="12.181585556348354"><ele>711.0</ele><time>2026-04-18T10:17:46Z</time></trkpt><trkpt lat="43.709899176946465" lon="12.181713181212777"><ele>711.0</ele><time>2026-04-18T10:17:47Z</time></trkpt><trkpt lat="43.709900657521985" lon="12.181849574881271"><ele>710.4</ele><time>2026-04-18T10:17:48Z</time></trkpt><trkpt lat="43.709900336858844" lon="12.181977371088463"><ele>709.8</ele><time>2026-04-18T10:17:49Z</time></trkpt><trkpt lat="43.70989510673189" lon="12.182122117424663"><ele>709.1999999999999</ele><time>2026-04-18T10:17:50Z</time></trkpt><trkpt lat="43.70988511973509" lon="12.182264474848177"><ele>708.5999999999999</ele><time>2026-04-18T10:17:51Z</time></trkpt><trkpt lat="43.709868347096275" lon="12.18242025869925"><ele>708.0</ele><time>2026-04-18T10:17:52Z</time></trkpt><trkpt lat="43.70983652606339" lon="12.182546538847294"><ele>707.2</ele><time>2026-04-18T10:17:53Z</time></trkpt><trkpt lat="43.70979195821601" lon="12.182672564685983"><ele>706.4</ele><time>2026-04-18T10:17:54Z</time></trkpt><trkpt lat="43.70973096448456" lon="12.182761255367204"><ele>705.6</ele><time>2026-04-18T10:17:55Z</time></trkpt><trkpt lat="43.70967398680066" lon="12.182836535909544"><ele>704.8000000000001</ele><time>2026-04-18T10:17:56Z</time></trkpt><trkpt lat="43.70960030969673" lon="12.183000763956962"><ele>704.0</ele><time>2026-04-18T10:17:57Z</time></trkpt><trkpt lat="43.70954338580823" lon="12.183103710558608"><ele>703.1666666666666</ele><time>2026-04-18T10:17:58Z</time></trkpt><trkpt lat="43.709479425015985" lon="12.183190607927578"><ele>702.3333333333333</ele><time>2026-04-18T10:17:59Z</time></trkpt><trkpt lat="43.70942018326681" lon="12.183287138256325"><ele>701.5</ele><time>2026-04-18T10:18:00Z</time></trkpt><trkpt lat="43.70936483847098" lon="12.18338757168089"><ele>700.6666666666666</ele><time>2026-04-18T10:18:01Z</time></trkpt><trkpt lat="43.70931369122916" lon="12.18348484837745"><ele>699.8333333333334</ele><time>2026-04-18T10:18:02Z</time></trkpt><trkpt lat="43.70927143242564" lon="12.183586351900425"><ele>699.0</ele><time>2026-04-18T10:18:03Z</time></trkpt><trkpt lat="43.70923650481872" lon="12.183682648018255"><ele>699.0</ele><time>2026-04-18T10:18:04Z</time></trkpt><trkpt lat="43.70920508554692" lon="12.183788002941794"><ele>699.0</ele><time>2026-04-18T10:18:05Z</time></trkpt><trkpt lat="43.70917399187399" lon="12.183893813269275"><ele>699.0</ele><time>2026-04-18T10:18:06Z</time></trkpt><trkpt lat="43.709192206462156" lon="12.184011197991492"><ele>699.0</ele><time>2026-04-18T10:18:07Z</time></trkpt><trkpt lat="43.70920489799556" lon="12.184111077217368"><ele>699.0</ele><time>2026-04-18T10:18:08Z</time></trkpt><trkpt lat="43.70921974530642" lon="12.18420362644877"><ele>699.0</ele><time>2026-04-18T10:18:09Z</time></trkpt><trkpt lat="43.70922572253619" lon="12.184300310691508"><ele>699.0</ele><time>2026-04-18T10:18:10Z</time></trkpt><trkpt lat="43.70922252399433" lon="12.184440749936597"><ele>699.0</ele><time>2026-04-18T10:18:12Z</time></trkpt><trkpt lat="43.70922647977456" lon="12.184544048857767"><ele>699.0</ele><time>2026-04-18T10:18:14Z</time></trkpt><trkpt lat="43.70923067402425" lon="12.184699759401848"><ele>699.0</ele><time>2026-04-18T10:18:16Z</time></trkpt><trkpt lat="43.709215073492" lon="12.184792753201602"><ele>699.0</ele><time>2026-04-18T10:18:17Z</time></trkpt><trkpt lat="43.70919951947087" lon="12.184885990397902"><ele>699.0</ele><time>2026-04-18T10:18:18Z</time></trkpt><trkpt lat="43.70917797291632" lon="12.184973003997138"><ele>698.8000000000001</ele><time>2026-04-18T10:18:19Z</time></trkpt><trkpt lat="43.70912566697377" lon="12.185115592672862"><ele>698.6</ele><time>2026-04-18T10:18:21Z</time></trkpt><trkpt lat="43.70907344292015" lon="12.185175181969829"><ele>698.4</ele><time>2026-04-18T10:18:23Z</time></trkpt><trkpt lat="43.709029598368026" lon="12.185060213501458"><ele>698.2</ele><time>2026-04-18T10:18:33Z</time></trkpt><trkpt lat="43.708973729094524" lon="12.184982751812942"><ele>698.0</ele><time>2026-04-18T10:18:35Z</time></trkpt><trkpt lat="43.70887381714981" lon="12.184937836289352"><ele>698.0</ele><time>2026-04-18T10:18:37Z</time></trkpt><trkpt lat="43.708794834167314" lon="12.184887282048443"><ele>698.0</ele><time>2026-04-18T10:18:38.001Z</time></trkpt><trkpt lat="43.70872621757784" lon="12.18486098762038"><ele>698.0</ele><time>2026-04-18T10:18:39.001Z</time></trkpt><trkpt lat="43.70866006493146" lon="12.184832860292587"><ele>698.0</ele><time>2026-04-18T10:18:40.001Z</time></trkpt><trkpt lat="43.70859241998439" lon="12.184754812149428"><ele>698.0</ele><time>2026-04-18T10:18:42.001Z</time></trkpt><trkpt lat="43.70858164299819" lon="12.184650913777569"><ele>698.0</ele><time>2026-04-18T10:18:43.001Z</time></trkpt><trkpt lat="43.708571647116514" lon="12.18452488564479"><ele>697.0</ele><time>2026-04-18T10:18:44.001Z</time></trkpt><trkpt lat="43.70855657018852" lon="12.184404767350847"><ele>696.0</ele><time>2026-04-18T10:18:45.001Z</time></trkpt><trkpt lat="43.70853107393429" lon="12.184292136258334"><ele>695.0</ele><time>2026-04-18T10:18:46.001Z</time></trkpt><trkpt lat="43.70848852813512" lon="12.184179074985783"><ele>694.0</ele><time>2026-04-18T10:18:47.001Z</time></trkpt><trkpt lat="43.70846799736346" lon="12.184067226774575"><ele>693.0</ele><time>2026-04-18T10:18:48.001Z</time></trkpt><trkpt lat="43.708444110788676" lon="12.183975523174448"><ele>692.0</ele><time>2026-04-18T10:18:49.001Z</time></trkpt><trkpt lat="43.70846289877096" lon="12.183850497765508"><ele>693.25</ele><time>2026-04-18T10:18:50.001Z</time></trkpt><trkpt lat="43.70851163588337" lon="12.183707402687052"><ele>694.5</ele><time>2026-04-18T10:18:51.001Z</time></trkpt><trkpt lat="43.708575662554864" lon="12.183549376918805"><ele>695.75</ele><time>2026-04-18T10:18:52.001Z</time></trkpt><trkpt lat="43.70864172515521" lon="12.183379525318253"><ele>697.0</ele><time>2026-04-18T10:18:53.001Z</time></trkpt><trkpt lat="43.70871090128019" lon="12.183193626650299"><ele>696.0</ele><time>2026-04-18T10:18:54.001Z</time></trkpt><trkpt lat="43.708780117708905" lon="12.182998828747877"><ele>695.0</ele><time>2026-04-18T10:18:55.001Z</time></trkpt><trkpt lat="43.70882109424635" lon="12.18282390307074"><ele>694.0</ele><time>2026-04-18T10:18:56.001Z</time></trkpt><trkpt lat="43.70885832345819" lon="12.182666488734618"><ele>693.0</ele><time>2026-04-18T10:18:57.001Z</time></trkpt><trkpt lat="43.708857768156975" lon="12.182502182037469"><ele>693.0</ele><time>2026-04-18T10:18:58.001Z</time></trkpt><trkpt lat="43.708814790088844" lon="12.182330445772042"><ele>693.0</ele><time>2026-04-18T10:18:59.001Z</time></trkpt><trkpt lat="43.70874625304577" lon="12.182157411053467"><ele>693.0</ele><time>2026-04-18T10:19:00.001Z</time></trkpt><trkpt lat="43.70866038166741" lon="12.181986959876475"><ele>693.0</ele><time>2026-04-18T10:19:01.001Z</time></trkpt><trkpt lat="43.70856676508798" lon="12.18179490704084"><ele>687.0</ele><time>2026-04-18T10:19:02.001Z</time></trkpt><trkpt lat="43.708467846157035" lon="12.18159795582917"><ele>681.0</ele><time>2026-04-18T10:19:03.001Z</time></trkpt><trkpt lat="43.70837646078121" lon="12.181393586602713"><ele>675.0</ele><time>2026-04-18T10:19:04.001Z</time></trkpt><trkpt lat="43.70827800492692" lon="12.181197968547954"><ele>674.3333333333334</ele><time>2026-04-18T10:19:05Z</time></trkpt><trkpt lat="43.70818430001525" lon="12.181002855843628"><ele>673.6666666666667</ele><time>2026-04-18T10:19:06Z</time></trkpt><trkpt lat="43.70809042549678" lon="12.180802535954426"><ele>673.0</ele><time>2026-04-18T10:19:07Z</time></trkpt><trkpt lat="43.70799597710623" lon="12.180602118767771"><ele>672.3333333333334</ele><time>2026-04-18T10:19:08Z</time></trkpt><trkpt lat="43.70789752369127" lon="12.18040330947385"><ele>671.6666666666666</ele><time>2026-04-18T10:19:09Z</time></trkpt><trkpt lat="43.70781522077932" lon="12.180188601122692"><ele>671.0</ele><time>2026-04-18T10:19:10Z</time></trkpt><trkpt lat="43.70773433657118" lon="12.180005889019812"><ele>669.8</ele><time>2026-04-18T10:19:11Z</time></trkpt><trkpt lat="43.707646838123885" lon="12.179853732198021"><ele>668.5999999999999</ele><time>2026-04-18T10:19:12Z</time></trkpt><trkpt lat="43.70757900079612" lon="12.179721036271157"><ele>667.4</ele><time>2026-04-18T10:19:13Z</time></trkpt><trkpt lat="43.7075089601723" lon="12.179646094237166"><ele>666.2</ele><time>2026-04-18T10:19:14Z</time></trkpt><trkpt lat="43.70742479603395" lon="12.179614710202149"><ele>665.0</ele><time>2026-04-18T10:19:15Z</time></trkpt><trkpt lat="43.70733505312073" lon="12.179646375577724"><ele>665.0</ele><time>2026-04-18T10:19:16Z</time></trkpt><trkpt lat="43.70724566143711" lon="12.179725373044446"><ele>665.0</ele><time>2026-04-18T10:19:17Z</time></trkpt><trkpt lat="43.7071543916853" lon="12.179858302732926"><ele>665.0</ele><time>2026-04-18T10:19:18Z</time></trkpt><trkpt lat="43.70705521571275" lon="12.180000234374484"><ele>665.0</ele><time>2026-04-18T10:19:19Z</time></trkpt><trkpt lat="43.70694614194737" lon="12.18014616707065"><ele>660.3333333333333</ele><time>2026-04-18T10:19:20Z</time></trkpt><trkpt lat="43.706823295445716" lon="12.180304430584561"><ele>655.6666666666666</ele><time>2026-04-18T10:19:21Z</time></trkpt><trkpt lat="43.70669526140186" lon="12.180462651461559"><ele>651.0</ele><time>2026-04-18T10:19:22Z</time></trkpt><trkpt lat="43.70656837119329" lon="12.180616742159513"><ele>650.6666666666666</ele><time>2026-04-18T10:19:23Z</time></trkpt><trkpt lat="43.706451421282566" lon="12.180763634599451"><ele>650.3333333333333</ele><time>2026-04-18T10:19:24Z</time></trkpt><trkpt lat="43.70634232293197" lon="12.180905512811124"><ele>650.0</ele><time>2026-04-18T10:19:25Z</time></trkpt><trkpt lat="43.70623169229381" lon="12.181040968621806"><ele>650.0</ele><time>2026-04-18T10:19:26Z</time></trkpt><trkpt lat="43.706099695989025" lon="12.181146204360564"><ele>650.0</ele><time>2026-04-18T10:19:27Z</time></trkpt><trkpt lat="43.70594360641085" lon="12.181232289174242"><ele>650.0</ele><time>2026-04-18T10:19:28Z</time></trkpt><trkpt lat="43.70577441056434" lon="12.181320774821117"><ele>646.6666666666666</ele><time>2026-04-18T10:19:29Z</time></trkpt><trkpt lat="43.70560846911179" lon="12.181412401787362"><ele>643.3333333333334</ele><time>2026-04-18T10:19:30Z</time></trkpt><trkpt lat="43.70543006083021" lon="12.181515320769483"><ele>640.0</ele><time>2026-04-18T10:19:31Z</time></trkpt><trkpt lat="43.705245296887625" lon="12.181621998576444"><ele>638.6666666666667</ele><time>2026-04-18T10:19:32Z</time></trkpt><trkpt lat="43.705076791403805" lon="12.181723760884257"><ele>637.3333333333334</ele><time>2026-04-18T10:19:33Z</time></trkpt><trkpt lat="43.70490894766982" lon="12.181819884313015"><ele>636.0</ele><time>2026-04-18T10:19:34Z</time></trkpt><trkpt lat="43.70473995173667" lon="12.18192207335493"><ele>636.0</ele><time>2026-04-18T10:19:35Z</time></trkpt><trkpt lat="43.70457372530335" lon="12.182022657957694"><ele>636.0</ele><time>2026-04-18T10:19:36Z</time></trkpt><trkpt lat="43.704413615547686" lon="12.182115278718058"><ele>636.0</ele><time>2026-04-18T10:19:37Z</time></trkpt><trkpt lat="43.704249755082685" lon="12.182211598347129"><ele>633.6666666666666</ele><time>2026-04-18T10:19:38Z</time></trkpt><trkpt lat="43.70407740287079" lon="12.182317712039694"><ele>631.3333333333333</ele><time>2026-04-18T10:19:39Z</time></trkpt><trkpt lat="43.7039206639403" lon="12.182426149261309"><ele>629.0</ele><time>2026-04-18T10:19:40Z</time></trkpt><trkpt lat="43.703771282060956" lon="12.182535176657733"><ele>629.0</ele><time>2026-04-18T10:19:41Z</time></trkpt><trkpt lat="43.70361631600503" lon="12.182635593831943"><ele>629.0</ele><time>2026-04-18T10:19:42Z</time></trkpt><trkpt lat="43.70346823713931" lon="12.182712399631354"><ele>629.0</ele><time>2026-04-18T10:19:43Z</time></trkpt><trkpt lat="43.70333193453927" lon="12.18276344322666"><ele>624.5</ele><time>2026-04-18T10:19:44Z</time></trkpt><trkpt lat="43.7032037936415" lon="12.182793580159284"><ele>620.0</ele><time>2026-04-18T10:19:44.999Z</time></trkpt><trkpt lat="43.70308921106271" lon="12.18282603237609"><ele>615.5</ele><time>2026-04-18T10:19:45.999Z</time></trkpt><trkpt lat="43.70298926681406" lon="12.182882667820815"><ele>611.0</ele><time>2026-04-18T10:19:46.999Z</time></trkpt><trkpt lat="43.70290957805256" lon="12.182969272522461"><ele>611.0</ele><time>2026-04-18T10:19:47.999Z</time></trkpt><trkpt lat="43.70284022963622" lon="12.183081379596464"><ele>611.0</ele><time>2026-04-18T10:19:48.999Z</time></trkpt><trkpt lat="43.70278546009219" lon="12.18321087819099"><ele>611.0</ele><time>2026-04-18T10:19:49.999Z</time></trkpt><trkpt lat="43.70274489135216" lon="12.183362829267166"><ele>611.0</ele><time>2026-04-18T10:19:50.999Z</time></trkpt><trkpt lat="43.70270935737411" lon="12.183536503650378"><ele>610.5</ele><time>2026-04-18T10:19:51.999Z</time></trkpt><trkpt lat="43.70266569774853" lon="12.183713510872614"><ele>610.0</ele><time>2026-04-18T10:19:52.999Z</time></trkpt><trkpt lat="43.70260141941401" lon="12.183893276377514"><ele>609.5</ele><time>2026-04-18T10:19:53.999Z</time></trkpt><trkpt lat="43.70251253764907" lon="12.184062169130238"><ele>609.0</ele><time>2026-04-18T10:19:54.999Z</time></trkpt><trkpt lat="43.70241192240889" lon="12.184204363749997"><ele>609.0</ele><time>2026-04-18T10:19:55.999Z</time></trkpt><trkpt lat="43.70229581553744" lon="12.184322776094778"><ele>609.0</ele><time>2026-04-18T10:19:56.999Z</time></trkpt><trkpt lat="43.702175772975004" lon="12.184403114491529"><ele>609.0</ele><time>2026-04-18T10:19:57.999Z</time></trkpt><trkpt lat="43.702056336542945" lon="12.184482406070364"><ele>609.0</ele><time>2026-04-18T10:19:58.999Z</time></trkpt><trkpt lat="43.70195164797076" lon="12.184579713759408"><ele>603.5</ele><time>2026-04-18T10:19:59.999Z</time></trkpt><trkpt lat="43.701867862899675" lon="12.18469816027375"><ele>598.0</ele><time>2026-04-18T10:20:00.999Z</time></trkpt><trkpt lat="43.70180241160748" lon="12.184843373840005"><ele>592.5</ele><time>2026-04-18T10:20:01.999Z</time></trkpt><trkpt lat="43.70174686501958" lon="12.185002783859096"><ele>587.0</ele><time>2026-04-18T10:20:02.999Z</time></trkpt><trkpt lat="43.70168577350559" lon="12.185166590379492"><ele>587.0</ele><time>2026-04-18T10:20:03.999Z</time></trkpt><trkpt lat="43.7016249215407" lon="12.185339143131523"><ele>587.0</ele><time>2026-04-18T10:20:04.999Z</time></trkpt><trkpt lat="43.70157605209048" lon="12.185510926996916"><ele>587.0</ele><time>2026-04-18T10:20:05.999Z</time></trkpt><trkpt lat="43.70153466828439" lon="12.185684723385908"><ele>587.0</ele><time>2026-04-18T10:20:06.999Z</time></trkpt><trkpt lat="43.70150124425276" lon="12.185856775953896"><ele>589.0</ele><time>2026-04-18T10:20:07.999Z</time></trkpt><trkpt lat="43.70147008373209" lon="12.186046301281545"><ele>591.0</ele><time>2026-04-18T10:20:08.999Z</time></trkpt><trkpt lat="43.70144417126083" lon="12.18623313241088"><ele>593.0</ele><time>2026-04-18T10:20:09.999Z</time></trkpt><trkpt lat="43.701406313428954" lon="12.186402461885883"><ele>595.0</ele><time>2026-04-18T10:20:10.999Z</time></trkpt><trkpt lat="43.70134529585435" lon="12.18652826066906"><ele>596.0</ele><time>2026-04-18T10:20:11.999Z</time></trkpt><trkpt lat="43.70127120723515" lon="12.186579367437204"><ele>597.0</ele><time>2026-04-18T10:20:12.999Z</time></trkpt><trkpt lat="43.701181963320316" lon="12.186556538096541"><ele>598.0</ele><time>2026-04-18T10:20:13.999Z</time></trkpt><trkpt lat="43.701078543414894" lon="12.186587402827884"><ele>599.0</ele><time>2026-04-18T10:20:14.999Z</time></trkpt><trkpt lat="43.700964361273655" lon="12.1865919709285"><ele>600.0</ele><time>2026-04-18T10:20:15.999Z</time></trkpt><trkpt lat="43.70084363339489" lon="12.186605227830897"><ele>595.2</ele><time>2026-04-18T10:20:16.999Z</time></trkpt><trkpt lat="43.700719270513524" lon="12.186625731374983"><ele>590.4</ele><time>2026-04-18T10:20:17.999Z</time></trkpt><trkpt lat="43.70060102349015" lon="12.186648446741998"><ele>585.6</ele><time>2026-04-18T10:20:18.999Z</time></trkpt><trkpt lat="43.70049888935496" lon="12.186671770955162"><ele>580.8</ele><time>2026-04-18T10:20:19.999Z</time></trkpt><trkpt lat="43.700415885690276" lon="12.186694350341297"><ele>576.0</ele><time>2026-04-18T10:20:20.999Z</time></trkpt><trkpt lat="43.70035169297203" lon="12.186715470477047"><ele>576.0</ele><time>2026-04-18T10:20:21.999Z</time></trkpt><trkpt lat="43.700283976393706" lon="12.186729240474927"><ele>576.0</ele><time>2026-04-18T10:20:23.999Z</time></trkpt><trkpt lat="43.700206772490944" lon="12.186748174327516"><ele>576.0</ele><time>2026-04-18T10:20:30.999Z</time></trkpt><trkpt lat="43.70008950241746" lon="12.18675119095544"><ele>576.0</ele><time>2026-04-18T10:20:32.999Z</time></trkpt><trkpt lat="43.7000154554139" lon="12.186766519086778"><ele>576.0</ele><time>2026-04-18T10:20:33.999Z</time></trkpt><trkpt lat="43.69991622924771" lon="12.186800757306061"><ele>576.0</ele><time>2026-04-18T10:20:34.999Z</time></trkpt><trkpt lat="43.69981705673117" lon="12.186853210281324"><ele>578.25</ele><time>2026-04-18T10:20:35.999Z</time></trkpt><trkpt lat="43.69970489408005" lon="12.186915085269177"><ele>580.5</ele><time>2026-04-18T10:20:36.999Z</time></trkpt><trkpt lat="43.69958485863262" lon="12.186989535672927"><ele>582.75</ele><time>2026-04-18T10:20:37.999Z</time></trkpt><trkpt lat="43.69947954095997" lon="12.187086591270145"><ele>585.0</ele><time>2026-04-18T10:20:38.999Z</time></trkpt><trkpt lat="43.6993850389735" lon="12.187219356382963"><ele>586.0</ele><time>2026-04-18T10:20:39.999Z</time></trkpt><trkpt lat="43.699310996916076" lon="12.187358877209702"><ele>587.0</ele><time>2026-04-18T10:20:40.999Z</time></trkpt><trkpt lat="43.69924587005335" lon="12.187511495282314"><ele>588.0</ele><time>2026-04-18T10:20:41.999Z</time></trkpt><trkpt lat="43.69917312086712" lon="12.187662875303463"><ele>589.0</ele><time>2026-04-18T10:20:42.999Z</time></trkpt><trkpt lat="43.69907931889453" lon="12.187806170683087"><ele>589.0</ele><time>2026-04-18T10:20:44Z</time></trkpt><trkpt lat="43.69898750345612" lon="12.18794148606751"><ele>589.0</ele><time>2026-04-18T10:20:45Z</time></trkpt><trkpt lat="43.698917176145976" lon="12.18808557905732"><ele>589.0</ele><time>2026-04-18T10:20:46Z</time></trkpt><trkpt lat="43.69885254921515" lon="12.18822592074253"><ele>589.0</ele><time>2026-04-18T10:20:47Z</time></trkpt><trkpt lat="43.69878164101494" lon="12.188354314824053"><ele>592.5</ele><time>2026-04-18T10:20:48Z</time></trkpt><trkpt lat="43.698731720546455" lon="12.188505075869237"><ele>596.0</ele><time>2026-04-18T10:20:49Z</time></trkpt><trkpt lat="43.69867742716309" lon="12.188659389944187"><ele>599.5</ele><time>2026-04-18T10:20:50Z</time></trkpt><trkpt lat="43.6986231514704" lon="12.188816733743511"><ele>603.0</ele><time>2026-04-18T10:20:51Z</time></trkpt><trkpt lat="43.698576422524184" lon="12.188969376704753"><ele>598.5</ele><time>2026-04-18T10:20:52Z</time></trkpt><trkpt lat="43.69854286051148" lon="12.189133321456149"><ele>594.0</ele><time>2026-04-18T10:20:53Z</time></trkpt><trkpt lat="43.69853363167207" lon="12.189310900442472"><ele>589.5</ele><time>2026-04-18T10:20:54Z</time></trkpt><trkpt lat="43.698544210439614" lon="12.189481523164124"><ele>585.0</ele><time>2026-04-18T10:20:55Z</time></trkpt><trkpt lat="43.698558857160826" lon="12.189652871192578"><ele>585.0</ele><time>2026-04-18T10:20:56Z</time></trkpt><trkpt lat="43.69856714058836" lon="12.189823124040608"><ele>585.0</ele><time>2026-04-18T10:20:57Z</time></trkpt><trkpt lat="43.698559778604285" lon="12.189985423088375"><ele>585.0</ele><time>2026-04-18T10:20:58Z</time></trkpt><trkpt lat="43.6985355140213" lon="12.190148550475328"><ele>585.0</ele><time>2026-04-18T10:20:59Z</time></trkpt><trkpt lat="43.698494670568834" lon="12.190303081521456"><ele>581.5</ele><time>2026-04-18T10:21:00Z</time></trkpt><trkpt lat="43.6984456515438" lon="12.190461475472361"><ele>578.0</ele><time>2026-04-18T10:21:01Z</time></trkpt><trkpt lat="43.698396857294746" lon="12.19061936503963"><ele>574.5</ele><time>2026-04-18T10:21:02Z</time></trkpt><trkpt lat="43.69834546961193" lon="12.190798943211814"><ele>571.0</ele><time>2026-04-18T10:21:03Z</time></trkpt><trkpt lat="43.698297532539634" lon="12.190967560899594"><ele>569.5</ele><time>2026-04-18T10:21:04Z</time></trkpt><trkpt lat="43.69824936930113" lon="12.191139505779546"><ele>568.0</ele><time>2026-04-18T10:21:05Z</time></trkpt><trkpt lat="43.69820754347639" lon="12.191304027390455"><ele>566.5</ele><time>2026-04-18T10:21:06Z</time></trkpt><trkpt lat="43.69817540389262" lon="12.191457533148178"><ele>565.0</ele><time>2026-04-18T10:21:07Z</time></trkpt><trkpt lat="43.69815788930112" lon="12.191605848588583"><ele>565.0</ele><time>2026-04-18T10:21:08Z</time></trkpt><trkpt lat="43.69813962449176" lon="12.191743006371842"><ele>565.0</ele><time>2026-04-18T10:21:09Z</time></trkpt><trkpt lat="43.69812364310646" lon="12.191879172919407"><ele>565.0</ele><time>2026-04-18T10:21:10Z</time></trkpt><trkpt lat="43.698113824546134" lon="12.19199587675317"><ele>565.0</ele><time>2026-04-18T10:21:11Z</time></trkpt><trkpt lat="43.698109006270144" lon="12.19214888068339"><ele>565.0</ele><time>2026-04-18T10:21:13Z</time></trkpt><trkpt lat="43.69812687183184" lon="12.19224360322777"><ele>565.4</ele><time>2026-04-18T10:21:15Z</time></trkpt><trkpt lat="43.698141780221256" lon="12.192342510311992"><ele>565.8</ele><time>2026-04-18T10:21:17Z</time></trkpt><trkpt lat="43.69818085438483" lon="12.192461281502185"><ele>566.2</ele><time>2026-04-18T10:21:19Z</time></trkpt><trkpt lat="43.6982750289953" lon="12.192588569046515"><ele>566.6</ele><time>2026-04-18T10:21:21Z</time></trkpt><trkpt lat="43.698344769904644" lon="12.192643595294236"><ele>567.0</ele><time>2026-04-18T10:21:22Z</time></trkpt><trkpt lat="43.6984173022736" lon="12.192707094271823"><ele>567.0</ele><time>2026-04-18T10:21:23Z</time></trkpt><trkpt lat="43.69849037954122" lon="12.192802443583105"><ele>567.0</ele><time>2026-04-18T10:21:24Z</time></trkpt><trkpt lat="43.69855979133357" lon="12.192915261497056"><ele>567.0</ele><time>2026-04-18T10:21:25Z</time></trkpt><trkpt lat="43.6986260119018" lon="12.193053245923522"><ele>567.0</ele><time>2026-04-18T10:21:26Z</time></trkpt><trkpt lat="43.6986925698772" lon="12.193210601606568"><ele>565.4</ele><time>2026-04-18T10:21:27Z</time></trkpt><trkpt lat="43.698731731926685" lon="12.193324127079034"><ele>563.8000000000001</ele><time>2026-04-18T10:21:27.999Z</time></trkpt><trkpt lat="43.69877577783795" lon="12.193471681012213"><ele>562.2</ele><time>2026-04-18T10:21:28.999Z</time></trkpt><trkpt lat="43.69880154667926" lon="12.193635360223332"><ele>560.6</ele><time>2026-04-18T10:21:29.999Z</time></trkpt><trkpt lat="43.698799040086755" lon="12.193788725470043"><ele>559.0</ele><time>2026-04-18T10:21:30.999Z</time></trkpt><trkpt lat="43.69878662616441" lon="12.19394587034795"><ele>558.75</ele><time>2026-04-18T10:21:31.999Z</time></trkpt><trkpt lat="43.69877609162002" lon="12.194114260425268"><ele>558.5</ele><time>2026-04-18T10:21:32.999Z</time></trkpt><trkpt lat="43.698777505571506" lon="12.19430127817956"><ele>558.25</ele><time>2026-04-18T10:21:33.999Z</time></trkpt><trkpt lat="43.698751178732245" lon="12.194483502213439"><ele>558.0</ele><time>2026-04-18T10:21:34.999Z</time></trkpt><trkpt lat="43.69873494630507" lon="12.194671615870163"><ele>559.0</ele><time>2026-04-18T10:21:35.999Z</time></trkpt><trkpt lat="43.698716551945914" lon="12.194858274561867"><ele>560.0</ele><time>2026-04-18T10:21:36.999Z</time></trkpt><trkpt lat="43.69869620109526" lon="12.195048601508434"><ele>561.0</ele><time>2026-04-18T10:21:37.999Z</time></trkpt><trkpt lat="43.698672474735794" lon="12.195237841024129"><ele>562.0</ele><time>2026-04-18T10:21:38.999Z</time></trkpt><trkpt lat="43.698652330416415" lon="12.195425059980991"><ele>562.0</ele><time>2026-04-18T10:21:39.999Z</time></trkpt><trkpt lat="43.698637511462096" lon="12.195611976958434"><ele>562.0</ele><time>2026-04-18T10:21:40.999Z</time></trkpt><trkpt lat="43.698635021101644" lon="12.195810687858932"><ele>562.0</ele><time>2026-04-18T10:21:41.999Z</time></trkpt><trkpt lat="43.69865576516717" lon="12.196011600350337"><ele>562.0</ele><time>2026-04-18T10:21:42.999Z</time></trkpt><trkpt lat="43.69870070079012" lon="12.196202802923418"><ele>561.0</ele><time>2026-04-18T10:21:43.999Z</time></trkpt><trkpt lat="43.698765805326545" lon="12.196393568315957"><ele>560.0</ele><time>2026-04-18T10:21:44.999Z</time></trkpt><trkpt lat="43.6988378571261" lon="12.196579462328176"><ele>559.0</ele><time>2026-04-18T10:21:45.999Z</time></trkpt><trkpt lat="43.698901463576654" lon="12.196776036678196"><ele>556.0</ele><time>2026-04-18T10:21:46.999Z</time></trkpt><trkpt lat="43.69898990045735" lon="12.196978906621396"><ele>553.0</ele><time>2026-04-18T10:21:47.999Z</time></trkpt><trkpt lat="43.699076136629245" lon="12.197148306844493"><ele>550.0</ele><time>2026-04-18T10:21:48.999Z</time></trkpt><trkpt lat="43.699196175008005" lon="12.197307879977712"><ele>550.0</ele><time>2026-04-18T10:21:49.999Z</time></trkpt><trkpt lat="43.69930970701735" lon="12.197468203608766"><ele>550.0</ele><time>2026-04-18T10:21:50.999Z</time></trkpt><trkpt lat="43.699421745222736" lon="12.197628935927831"><ele>550.0</ele><time>2026-04-18T10:21:51.999Z</time></trkpt><trkpt lat="43.699551414669415" lon="12.197766044533742"><ele>550.0</ele><time>2026-04-18T10:21:52.999Z</time></trkpt><trkpt lat="43.699698318566995" lon="12.197872276980624"><ele>550.0</ele><time>2026-04-18T10:21:53.999Z</time></trkpt><trkpt lat="43.69985533669471" lon="12.1979571629387"><ele>550.0</ele><time>2026-04-18T10:21:54.999Z</time></trkpt><trkpt lat="43.70001158141053" lon="12.198024292988856"><ele>550.0</ele><time>2026-04-18T10:21:55.999Z</time></trkpt><trkpt lat="43.70016905298765" lon="12.198079576455854"><ele>550.0</ele><time>2026-04-18T10:21:56.999Z</time></trkpt><trkpt lat="43.70032176263624" lon="12.198131583098581"><ele>550.0</ele><time>2026-04-18T10:21:57.999Z</time></trkpt><trkpt lat="43.70047978737067" lon="12.198182871225358"><ele>551.6666666666667</ele><time>2026-04-18T10:21:58.999Z</time></trkpt><trkpt lat="43.700627149400844" lon="12.198227979054764"><ele>553.3333333333334</ele><time>2026-04-18T10:21:59.999Z</time></trkpt><trkpt lat="43.700770931484705" lon="12.198271595517786"><ele>555.0</ele><time>2026-04-18T10:22:00.999Z</time></trkpt><trkpt lat="43.70091990285405" lon="12.198319384006515"><ele>555.0</ele><time>2026-04-18T10:22:01.999Z</time></trkpt><trkpt lat="43.701064648220715" lon="12.198372083545738"><ele>555.0</ele><time>2026-04-18T10:22:02.999Z</time></trkpt><trkpt lat="43.70121637297913" lon="12.198432214281096"><ele>555.0</ele><time>2026-04-18T10:22:03.999Z</time></trkpt><trkpt lat="43.70136297099112" lon="12.198496573610647"><ele>554.75</ele><time>2026-04-18T10:22:04.999Z</time></trkpt><trkpt lat="43.70149995440522" lon="12.198558645203365"><ele>554.5</ele><time>2026-04-18T10:22:05.999Z</time></trkpt><trkpt lat="43.70163290711487" lon="12.19861682158916"><ele>554.25</ele><time>2026-04-18T10:22:06.999Z</time></trkpt><trkpt lat="43.70177247527111" lon="12.198647290032083"><ele>554.0</ele><time>2026-04-18T10:22:07.999Z</time></trkpt><trkpt lat="43.701911904984776" lon="12.198701614524676"><ele>553.0</ele><time>2026-04-18T10:22:08.999Z</time></trkpt><trkpt lat="43.70204355552608" lon="12.198768752808496"><ele>552.0</ele><time>2026-04-18T10:22:09.999Z</time></trkpt><trkpt lat="43.70216182629265" lon="12.19881391066521"><ele>551.0</ele><time>2026-04-18T10:22:10.999Z</time></trkpt><trkpt lat="43.70226568909298" lon="12.198860117769502"><ele>550.0</ele><time>2026-04-18T10:22:11.999Z</time></trkpt><trkpt lat="43.70236484731482" lon="12.198925785730124"><ele>550.5</ele><time>2026-04-18T10:22:12.999Z</time></trkpt><trkpt lat="43.70247519337135" lon="12.199016565748476"><ele>551.0</ele><time>2026-04-18T10:22:13.999Z</time></trkpt><trkpt lat="43.70259843067977" lon="12.199118074504515"><ele>551.5</ele><time>2026-04-18T10:22:14.999Z</time></trkpt><trkpt lat="43.702719437263085" lon="12.199217745992947"><ele>552.0</ele><time>2026-04-18T10:22:15.999Z</time></trkpt><trkpt lat="43.70284185334745" lon="12.199319750637954"><ele>552.0</ele><time>2026-04-18T10:22:16.999Z</time></trkpt><trkpt lat="43.70296308291713" lon="12.199423322848059"><ele>552.0</ele><time>2026-04-18T10:22:17.999Z</time></trkpt><trkpt lat="43.70308143604954" lon="12.199530705522736"><ele>552.0</ele><time>2026-04-18T10:22:18.999Z</time></trkpt><trkpt lat="43.70319730810924" lon="12.199641882342448"><ele>552.0</ele><time>2026-04-18T10:22:19.999Z</time></trkpt><trkpt lat="43.70333054450139" lon="12.199761053532047"><ele>553.0</ele><time>2026-04-18T10:22:20.999Z</time></trkpt><trkpt lat="43.70347899950466" lon="12.199860036868863"><ele>554.0</ele><time>2026-04-18T10:22:21.999Z</time></trkpt><trkpt lat="43.70364068574492" lon="12.199933453672836"><ele>555.0</ele><time>2026-04-18T10:22:22.999Z</time></trkpt><trkpt lat="43.70381152574437" lon="12.199974256883117"><ele>555.0</ele><time>2026-04-18T10:22:23.999Z</time></trkpt><trkpt lat="43.703976650830135" lon="12.200002348080737"><ele>555.0</ele><time>2026-04-18T10:22:24.999Z</time></trkpt><trkpt lat="43.70414858731446" lon="12.200030541933758"><ele>555.0</ele><time>2026-04-18T10:22:25.999Z</time></trkpt><trkpt lat="43.704306833366815" lon="12.200057693367302"><ele>553.5</ele><time>2026-04-18T10:22:26.999Z</time></trkpt><trkpt lat="43.70445527246466" lon="12.200087935929291"><ele>552.0</ele><time>2026-04-18T10:22:27.999Z</time></trkpt><trkpt lat="43.70460240737618" lon="12.200121076051529"><ele>550.5</ele><time>2026-04-18T10:22:28.999Z</time></trkpt><trkpt lat="43.70473560505202" lon="12.200151961797193"><ele>549.0</ele><time>2026-04-18T10:22:29.999Z</time></trkpt><trkpt lat="43.70483598246992" lon="12.200178524656648"><ele>549.0</ele><time>2026-04-18T10:22:30.999Z</time></trkpt><trkpt lat="43.70490900836921" lon="12.200209187326486"><ele>549.0</ele><time>2026-04-18T10:22:31.999Z</time></trkpt><trkpt lat="43.70496420465985" lon="12.200251967606821"><ele>549.0</ele><time>2026-04-18T10:22:32.999Z</time></trkpt><trkpt lat="43.70502514360766" lon="12.200290578536357"><ele>549.0</ele><time>2026-04-18T10:22:33.999Z</time></trkpt><trkpt lat="43.70513529335702" lon="12.200275434070607"><ele>549.0</ele><time>2026-04-18T10:22:34.999Z</time></trkpt><trkpt lat="43.70524281602259" lon="12.20028951486568"><ele>549.0</ele><time>2026-04-18T10:22:35.999Z</time></trkpt><trkpt lat="43.70534645621099" lon="12.200325104905396"><ele>548.5</ele><time>2026-04-18T10:22:36.999Z</time></trkpt><trkpt lat="43.705469947272704" lon="12.200396828853755"><ele>548.0</ele><time>2026-04-18T10:22:37.999Z</time></trkpt><trkpt lat="43.705605186817245" lon="12.200499834914286"><ele>547.5</ele><time>2026-04-18T10:22:38.999Z</time></trkpt><trkpt lat="43.705740253679416" lon="12.200601215648742"><ele>547.0</ele><time>2026-04-18T10:22:39.999Z</time></trkpt><trkpt lat="43.70587673107354" lon="12.200689811628534"><ele>548.5</ele><time>2026-04-18T10:22:40.999Z</time></trkpt><trkpt lat="43.70600679371352" lon="12.200772777244596"><ele>550.0</ele><time>2026-04-18T10:22:41.999Z</time></trkpt><trkpt lat="43.70612593789232" lon="12.200843764438483"><ele>551.5</ele><time>2026-04-18T10:22:42.999Z</time></trkpt><trkpt lat="43.70622534772213" lon="12.200918803695485"><ele>553.0</ele><time>2026-04-18T10:22:43.999Z</time></trkpt><trkpt lat="43.70630181571353" lon="12.20102193666511"><ele>551.0</ele><time>2026-04-18T10:22:44.999Z</time></trkpt><trkpt lat="43.706365446385114" lon="12.201165913975112"><ele>549.0</ele><time>2026-04-18T10:22:45.999Z</time></trkpt><trkpt lat="43.70643199943277" lon="12.201353034086402"><ele>547.0</ele><time>2026-04-18T10:22:46.999Z</time></trkpt><trkpt lat="43.706504105212325" lon="12.201536739076609"><ele>545.0</ele><time>2026-04-18T10:22:47.999Z</time></trkpt><trkpt lat="43.70656843749012" lon="12.201733869043995"><ele>545.0</ele><time>2026-04-18T10:22:48.999Z</time></trkpt><trkpt lat="43.70663963863087" lon="12.201938552427954"><ele>545.0</ele><time>2026-04-18T10:22:50Z</time></trkpt><trkpt lat="43.70671240902696" lon="12.202144859917267"><ele>545.0</ele><time>2026-04-18T10:22:51Z</time></trkpt><trkpt lat="43.70678715211344" lon="12.202359098336586"><ele>545.3333333333333</ele><time>2026-04-18T10:22:52Z</time></trkpt><trkpt lat="43.706858866891224" lon="12.202567089974215"><ele>545.6666666666666</ele><time>2026-04-18T10:22:53Z</time></trkpt><trkpt lat="43.70693395790492" lon="12.20276200799"><ele>546.0</ele><time>2026-04-18T10:22:54Z</time></trkpt><trkpt lat="43.70701422433952" lon="12.202951583044333"><ele>544.5</ele><time>2026-04-18T10:22:55Z</time></trkpt><trkpt lat="43.707100312123714" lon="12.203132831549297"><ele>543.0</ele><time>2026-04-18T10:22:56Z</time></trkpt><trkpt lat="43.70717053868864" lon="12.20328931486907"><ele>541.5</ele><time>2026-04-18T10:22:57Z</time></trkpt><trkpt lat="43.7072096019992" lon="12.203423206145017"><ele>540.0</ele><time>2026-04-18T10:22:58Z</time></trkpt><trkpt lat="43.70721966663411" lon="12.203581311516812"><ele>540.0</ele><time>2026-04-18T10:22:59Z</time></trkpt><trkpt lat="43.70721077527489" lon="12.203737809466984"><ele>540.0</ele><time>2026-04-18T10:23:00Z</time></trkpt><trkpt lat="43.70717910601872" lon="12.203899720020724"><ele>540.0</ele><time>2026-04-18T10:23:01Z</time></trkpt><trkpt lat="43.70714604355038" lon="12.20403423034647"><ele>540.0</ele><time>2026-04-18T10:23:02Z</time></trkpt><trkpt lat="43.70716101968875" lon="12.204124749611013"><ele>540.0</ele><time>2026-04-18T10:23:03Z</time></trkpt><trkpt lat="43.7072955840807" lon="12.204201432504291"><ele>540.2</ele><time>2026-04-18T10:23:05Z</time></trkpt><trkpt lat="43.70738072104001" lon="12.204252788858945"><ele>540.4</ele><time>2026-04-18T10:23:06Z</time></trkpt><trkpt lat="43.70749240944412" lon="12.20427099662061"><ele>540.6</ele><time>2026-04-18T10:23:07Z</time></trkpt><trkpt lat="43.707609873426435" lon="12.204255659163275"><ele>540.8</ele><time>2026-04-18T10:23:08Z</time></trkpt><trkpt lat="43.70771906164644" lon="12.20418827488112"><ele>541.0</ele><time>2026-04-18T10:23:09Z</time></trkpt><trkpt lat="43.70781886294231" lon="12.204047440438632"><ele>541.5</ele><time>2026-04-18T10:23:10Z</time></trkpt><trkpt lat="43.70791493401291" lon="12.203916610283741"><ele>542.0</ele><time>2026-04-18T10:23:11Z</time></trkpt><trkpt lat="43.708013503599666" lon="12.203817374306926"><ele>542.5</ele><time>2026-04-18T10:23:12Z</time></trkpt><trkpt lat="43.70810760877674" lon="12.203758979318174"><ele>543.0</ele><time>2026-04-18T10:23:13Z</time></trkpt><trkpt lat="43.70820130253814" lon="12.203797455664617"><ele>543.0</ele><time>2026-04-18T10:23:14Z</time></trkpt><trkpt lat="43.70830874704491" lon="12.203839967631342"><ele>543.0</ele><time>2026-04-18T10:23:15Z</time></trkpt><trkpt lat="43.70843453986713" lon="12.20388619771054"><ele>543.0</ele><time>2026-04-18T10:23:16Z</time></trkpt><trkpt lat="43.70856334795272" lon="12.203933535937802"><ele>543.0</ele><time>2026-04-18T10:23:17Z</time></trkpt><trkpt lat="43.70869557992639" lon="12.203982132477787"><ele>545.0</ele><time>2026-04-18T10:23:18Z</time></trkpt><trkpt lat="43.70883389707362" lon="12.204032967178264"><ele>547.0</ele><time>2026-04-18T10:23:19Z</time></trkpt><trkpt lat="43.708967092410596" lon="12.204084579454891"><ele>549.0</ele><time>2026-04-18T10:23:20Z</time></trkpt><trkpt lat="43.709113219017105" lon="12.20414164684285"><ele>551.0</ele><time>2026-04-18T10:23:21Z</time></trkpt><trkpt lat="43.709264720657124" lon="12.204200786311766"><ele>551.25</ele><time>2026-04-18T10:23:22Z</time></trkpt><trkpt lat="43.709415700790196" lon="12.204256453711059"><ele>551.5</ele><time>2026-04-18T10:23:23Z</time></trkpt><trkpt lat="43.70956866426804" lon="12.20431285253382"><ele>551.75</ele><time>2026-04-18T10:23:24Z</time></trkpt><trkpt lat="43.70969346736032" lon="12.204356555378048"><ele>552.0</ele><time>2026-04-18T10:23:25Z</time></trkpt><trkpt lat="43.709810610067855" lon="12.204399953606574"><ele>552.0</ele><time>2026-04-18T10:23:26Z</time></trkpt><trkpt lat="43.70990207433183" lon="12.204466019491813"><ele>552.0</ele><time>2026-04-18T10:23:27Z</time></trkpt><trkpt lat="43.70997039584607" lon="12.204570060151966"><ele>552.0</ele><time>2026-04-18T10:23:28Z</time></trkpt><trkpt lat="43.71002962879197" lon="12.204698197639354"><ele>552.0</ele><time>2026-04-18T10:23:29Z</time></trkpt><trkpt lat="43.71004520081822" lon="12.204861134765737"><ele>552.0</ele><time>2026-04-18T10:23:30Z</time></trkpt><trkpt lat="43.710044834466224" lon="12.205034200684278"><ele>553.25</ele><time>2026-04-18T10:23:31Z</time></trkpt><trkpt lat="43.710072549204995" lon="12.205201945216402"><ele>554.5</ele><time>2026-04-18T10:23:32Z</time></trkpt><trkpt lat="43.71012447640198" lon="12.20536058822342"><ele>555.75</ele><time>2026-04-18T10:23:33Z</time></trkpt><trkpt lat="43.710203718457485" lon="12.205491659426462"><ele>557.0</ele><time>2026-04-18T10:23:34Z</time></trkpt><trkpt lat="43.71030596048838" lon="12.205607012504787"><ele>559.2</ele><time>2026-04-18T10:23:35Z</time></trkpt><trkpt lat="43.71042141166408" lon="12.205692029870706"><ele>561.4000000000001</ele><time>2026-04-18T10:23:36Z</time></trkpt><trkpt lat="43.71052272171174" lon="12.205788986864667"><ele>563.5999999999999</ele><time>2026-04-18T10:23:37Z</time></trkpt><trkpt lat="43.71060585545807" lon="12.205869522497656"><ele>565.8</ele><time>2026-04-18T10:23:38Z</time></trkpt><trkpt lat="43.71067082493115" lon="12.20593548982363"><ele>568.0</ele><time>2026-04-18T10:23:39Z</time></trkpt><trkpt lat="43.71074828457421" lon="12.206014139210396"><ele>568.0</ele><time>2026-04-18T10:23:41Z</time></trkpt><trkpt lat="43.71088823941203" lon="12.206000597502088"><ele>568.0</ele><time>2026-04-18T10:23:43Z</time></trkpt><trkpt lat="43.710975579167375" lon="12.20594242750432"><ele>568.0</ele><time>2026-04-18T10:23:44Z</time></trkpt><trkpt lat="43.71106466002191" lon="12.205857774286454"><ele>568.0</ele><time>2026-04-18T10:23:45Z</time></trkpt><trkpt lat="43.71115611333653" lon="12.20575933171807"><ele>566.75</ele><time>2026-04-18T10:23:46Z</time></trkpt><trkpt lat="43.71125034665877" lon="12.205640346520207"><ele>565.5</ele><time>2026-04-18T10:23:47Z</time></trkpt><trkpt lat="43.71134551402339" lon="12.205515241805237"><ele>564.25</ele><time>2026-04-18T10:23:48Z</time></trkpt><trkpt lat="43.711432944057464" lon="12.205385324815108"><ele>563.0</ele><time>2026-04-18T10:23:49Z</time></trkpt><trkpt lat="43.7114562070031" lon="12.205199115969222"><ele>563.0</ele><time>2026-04-18T10:23:50Z</time></trkpt><trkpt lat="43.711479742134614" lon="12.20501605316841"><ele>563.0</ele><time>2026-04-18T10:23:51Z</time></trkpt><trkpt lat="43.71149611577739" lon="12.204812032977669"><ele>563.0</ele><time>2026-04-18T10:23:52Z</time></trkpt><trkpt lat="43.71150186718688" lon="12.204606208036187"><ele>563.0</ele><time>2026-04-18T10:23:53Z</time></trkpt><trkpt lat="43.711517510898894" lon="12.204401578419398"><ele>560.6666666666666</ele><time>2026-04-18T10:23:54Z</time></trkpt><trkpt lat="43.711532811421044" lon="12.204178870917067"><ele>558.3333333333334</ele><time>2026-04-18T10:23:55Z</time></trkpt><trkpt lat="43.71154515881005" lon="12.203975399693622"><ele>556.0</ele><time>2026-04-18T10:23:56Z</time></trkpt><trkpt lat="43.71155915453568" lon="12.203779055953717"><ele>555.0</ele><time>2026-04-18T10:23:56.999Z</time></trkpt><trkpt lat="43.711577994407726" lon="12.203596769363562"><ele>554.0</ele><time>2026-04-18T10:23:57.999Z</time></trkpt><trkpt lat="43.711608453430244" lon="12.203432047948622"><ele>553.0</ele><time>2026-04-18T10:23:58.999Z</time></trkpt><trkpt lat="43.71168557756146" lon="12.20330196974016"><ele>552.0</ele><time>2026-04-18T10:23:59.999Z</time></trkpt><trkpt lat="43.711766337802636" lon="12.203154612062702"><ele>550.75</ele><time>2026-04-18T10:24:00.999Z</time></trkpt><trkpt lat="43.71185802302709" lon="12.202999477637606"><ele>549.5</ele><time>2026-04-18T10:24:01.999Z</time></trkpt><trkpt lat="43.71195373572282" lon="12.2028338467322"><ele>548.25</ele><time>2026-04-18T10:24:02.999Z</time></trkpt><trkpt lat="43.712037791808534" lon="12.202698757999"><ele>547.0</ele><time>2026-04-18T10:24:03.999Z</time></trkpt><trkpt lat="43.71212836472705" lon="12.202606757055298"><ele>547.0</ele><time>2026-04-18T10:24:04.999Z</time></trkpt><trkpt lat="43.71223805958745" lon="12.202552046543692"><ele>547.0</ele><time>2026-04-18T10:24:05.999Z</time></trkpt><trkpt lat="43.71234928621707" lon="12.202538695910553"><ele>547.0</ele><time>2026-04-18T10:24:06.999Z</time></trkpt><trkpt lat="43.712463872271314" lon="12.20255885706597"><ele>547.0</ele><time>2026-04-18T10:24:07.999Z</time></trkpt><trkpt lat="43.71258088779971" lon="12.202592902780292"><ele>547.0</ele><time>2026-04-18T10:24:08.999Z</time></trkpt><trkpt lat="43.71269926121241" lon="12.202630964930318"><ele>547.0</ele><time>2026-04-18T10:24:09.999Z</time></trkpt><trkpt lat="43.7128191506121" lon="12.202638738998678"><ele>547.0</ele><time>2026-04-18T10:24:10.999Z</time></trkpt><trkpt lat="43.712932992952275" lon="12.202572453853945"><ele>547.0</ele><time>2026-04-18T10:24:11.999Z</time></trkpt><trkpt lat="43.7130061502286" lon="12.202425095150662"><ele>547.75</ele><time>2026-04-18T10:24:12.999Z</time></trkpt><trkpt lat="43.713024320099656" lon="12.202247187992157"><ele>548.5</ele><time>2026-04-18T10:24:13.999Z</time></trkpt><trkpt lat="43.71300273562206" lon="12.20206968344244"><ele>549.25</ele><time>2026-04-18T10:24:14.999Z</time></trkpt><trkpt lat="43.712943321039134" lon="12.201911665130462"><ele>550.0</ele><time>2026-04-18T10:24:15.999Z</time></trkpt><trkpt lat="43.712830313268306" lon="12.201773764157657"><ele>548.75</ele><time>2026-04-18T10:24:16.999Z</time></trkpt><trkpt lat="43.71270984993028" lon="12.201676473135079"><ele>547.5</ele><time>2026-04-18T10:24:17.999Z</time></trkpt><trkpt lat="43.71259396926316" lon="12.201616414865299"><ele>546.25</ele><time>2026-04-18T10:24:18.999Z</time></trkpt><trkpt lat="43.71249146671699" lon="12.201558493612737"><ele>545.0</ele><time>2026-04-18T10:24:19.999Z</time></trkpt><trkpt lat="43.71240409571095" lon="12.201489124744866"><ele>545.0</ele><time>2026-04-18T10:24:20.999Z</time></trkpt><trkpt lat="43.712327127139716" lon="12.201412833735626"><ele>545.0</ele><time>2026-04-18T10:24:21.999Z</time></trkpt><trkpt lat="43.712266816596156" lon="12.201325535940981"><ele>545.0</ele><time>2026-04-18T10:24:22.999Z</time></trkpt><trkpt lat="43.71222936498839" lon="12.201230556998368"><ele>545.0</ele><time>2026-04-18T10:24:23.999Z</time></trkpt><trkpt lat="43.71222157371247" lon="12.201128576606084"><ele>545.0</ele><time>2026-04-18T10:24:24.999Z</time></trkpt><trkpt lat="43.712241399205915" lon="12.2010286399609"><ele>545.0</ele><time>2026-04-18T10:24:25.999Z</time></trkpt><trkpt lat="43.71228055487772" lon="12.20095334586834"><ele>545.0</ele><time>2026-04-18T10:24:26.999Z</time></trkpt><trkpt lat="43.712304410424345" lon="12.200872037204775"><ele>545.0</ele><time>2026-04-18T10:24:27.999Z</time></trkpt><trkpt lat="43.71235625948928" lon="12.200725313991677"><ele>545.0</ele><time>2026-04-18T10:24:29.999Z</time></trkpt><trkpt lat="43.7123871352047" lon="12.200644224989345"><ele>545.0</ele><time>2026-04-18T10:24:30.999Z</time></trkpt><trkpt lat="43.712417314696715" lon="12.20056496435816"><ele>545.0</ele><time>2026-04-18T10:24:31.999Z</time></trkpt><trkpt lat="43.712449184075744" lon="12.200481266522651"><ele>545.0</ele><time>2026-04-18T10:24:32.999Z</time></trkpt><trkpt lat="43.71248681034991" lon="12.200348049101853"><ele>545.2</ele><time>2026-04-18T10:24:34.999Z</time></trkpt><trkpt lat="43.712539520344706" lon="12.200230868272863"><ele>545.4</ele><time>2026-04-18T10:24:36.999Z</time></trkpt><trkpt lat="43.71260074851266" lon="12.200129780044163"><ele>545.6</ele><time>2026-04-18T10:24:38.999Z</time></trkpt><trkpt lat="43.71268261430967" lon="12.200060887043414"><ele>545.8</ele><time>2026-04-18T10:24:40.999Z</time></trkpt><trkpt lat="43.7128088732548" lon="12.200064846432358"><ele>546.0</ele><time>2026-04-18T10:24:42.999Z</time></trkpt><trkpt lat="43.71287576735949" lon="12.200061882247704"><ele>546.0</ele><time>2026-04-18T10:24:43.999Z</time></trkpt><trkpt lat="43.712946693073796" lon="12.200029546926212"><ele>546.0</ele><time>2026-04-18T10:24:44.999Z</time></trkpt><trkpt lat="43.713022540188604" lon="12.200028554273684"><ele>546.0</ele><time>2026-04-18T10:24:45.999Z</time></trkpt><trkpt lat="43.71308336063894" lon="12.199966145686076"><ele>546.0</ele><time>2026-04-18T10:24:46.999Z</time></trkpt><trkpt lat="43.713141152869525" lon="12.199920956750146"><ele>546.0</ele><time>2026-04-18T10:24:47.999Z</time></trkpt><trkpt lat="43.713189596993956" lon="12.199857736118824"><ele>546.0</ele><time>2026-04-18T10:24:48.999Z</time></trkpt><trkpt lat="43.71326025901511" lon="12.199726173396478"><ele>545.2</ele><time>2026-04-18T10:24:50.999Z</time></trkpt><trkpt lat="43.71332930016726" lon="12.19959033393794"><ele>544.4000000000001</ele><time>2026-04-18T10:24:52.999Z</time></trkpt><trkpt lat="43.71340869642022" lon="12.19945562006603"><ele>543.6</ele><time>2026-04-18T10:24:54.999Z</time></trkpt><trkpt lat="43.71347324209293" lon="12.199372250345"><ele>542.8000000000001</ele><time>2026-04-18T10:24:56Z</time></trkpt><trkpt lat="43.71351753165376" lon="12.199301024182567"><ele>542.0</ele><time>2026-04-18T10:24:57Z</time></trkpt><trkpt lat="43.713557679797375" lon="12.199225218829813"><ele>542.6666666666666</ele><time>2026-04-18T10:24:58Z</time></trkpt><trkpt lat="43.7136026579062" lon="12.199145073992218"><ele>543.3333333333333</ele><time>2026-04-18T10:24:59Z</time></trkpt><trkpt lat="43.713644722158975" lon="12.19906641889996"><ele>544.0</ele><time>2026-04-18T10:25:00Z</time></trkpt><trkpt lat="43.713696431015485" lon="12.198981287415245"><ele>544.6666666666666</ele><time>2026-04-18T10:25:01Z</time></trkpt><trkpt lat="43.71374355956807" lon="12.198898826677212"><ele>545.3333333333334</ele><time>2026-04-18T10:25:02Z</time></trkpt><trkpt lat="43.71379216102245" lon="12.198815690642995"><ele>546.0</ele><time>2026-04-18T10:25:03Z</time></trkpt><trkpt lat="43.713840568311156" lon="12.198730229065015"><ele>546.0</ele><time>2026-04-18T10:25:04Z</time></trkpt><trkpt lat="43.71387964805201" lon="12.198638870390884"><ele>546.0</ele><time>2026-04-18T10:25:05Z</time></trkpt><trkpt lat="43.71393657949518" lon="12.198556121205472"><ele>546.0</ele><time>2026-04-18T10:25:06Z</time></trkpt><trkpt lat="43.71399230176299" lon="12.198461107778408"><ele>546.0</ele><time>2026-04-18T10:25:07Z</time></trkpt><trkpt lat="43.71405424940186" lon="12.198363754695807"><ele>546.0</ele><time>2026-04-18T10:25:08Z</time></trkpt><trkpt lat="43.71412478942842" lon="12.198266946968234"><ele>546.0</ele><time>2026-04-18T10:25:09Z</time></trkpt><trkpt lat="43.714204634853466" lon="12.198167716530026"><ele>546.25</ele><time>2026-04-18T10:25:10Z</time></trkpt><trkpt lat="43.71429087183597" lon="12.19807726132673"><ele>546.5</ele><time>2026-04-18T10:25:11Z</time></trkpt><trkpt lat="43.71438542319343" lon="12.197985196606828"><ele>546.75</ele><time>2026-04-18T10:25:12Z</time></trkpt><trkpt lat="43.714481035707756" lon="12.197900753819308"><ele>547.0</ele><time>2026-04-18T10:25:13Z</time></trkpt><trkpt lat="43.71458100232192" lon="12.197811716396345"><ele>547.0</ele><time>2026-04-18T10:25:14Z</time></trkpt><trkpt lat="43.71468239973973" lon="12.197717921149236"><ele>547.0</ele><time>2026-04-18T10:25:15Z</time></trkpt><trkpt lat="43.714791282703295" lon="12.197625842920749"><ele>547.0</ele><time>2026-04-18T10:25:16Z</time></trkpt><trkpt lat="43.71489648594879" lon="12.197526675826577"><ele>547.0</ele><time>2026-04-18T10:25:17Z</time></trkpt><trkpt lat="43.7150090497771" lon="12.197436198526193"><ele>547.0</ele><time>2026-04-18T10:25:18Z</time></trkpt></trkseg><trkseg><trkpt lat="43.912379901542025" lon="12.457103047419222"><ele>486.9</ele><time>2026-04-25T12:47:25.107Z</time></trkpt></trkseg></trk></gpx>